<?xml version="1.0" encoding="UTF-8" standalone="no" ?>
<gpx xmlns="http://www.topografix.com/GPX/1/1" xmlns:xsi="http://www.w3.org/2001/XMLSchema-instance" xsi:schemaLocation="http://www.topografix.com/GPX/1/1 http://www.topografix.com/GPX/1/1/gpx.xsd" version="1.1" creator="VisuGPX - https://www.visugpx.com">
  <metadata>
    <name>Caen - Abbaye Juaye Mondaye</name>
  </metadata>
  <trk>
    <name><![CDATA[Caen - Abbaye Juaye Mondaye_1]]></name>
    <trkseg>
      <trkpt lat="49.18855" lon="-0.40082">
        <ele>51.6</ele>
        <time>2023-05-25T11:48:55Z</time>
      </trkpt>
      <trkpt lat="49.18855" lon="-0.40081">
        <ele>51.6</ele>
        <time>2023-05-25T11:48:56Z</time>
      </trkpt>
      <trkpt lat="49.18854" lon="-0.40081">
        <ele>51.6</ele>
        <time>2023-05-25T11:48:57Z</time>
      </trkpt>
      <trkpt lat="49.18855" lon="-0.4008">
        <ele>51.6</ele>
        <time>2023-05-25T11:48:58Z</time>
      </trkpt>
      <trkpt lat="49.18855" lon="-0.4008">
        <ele>51.6</ele>
        <time>2023-05-25T11:48:59Z</time>
      </trkpt>
      <trkpt lat="49.18856" lon="-0.4008">
        <ele>51.6</ele>
        <time>2023-05-25T11:49:00Z</time>
      </trkpt>
      <trkpt lat="49.18857" lon="-0.40081">
        <ele>51.8</ele>
        <time>2023-05-25T11:49:01Z</time>
      </trkpt>
      <trkpt lat="49.18857" lon="-0.40081">
        <ele>51.8</ele>
        <time>2023-05-25T11:49:02Z</time>
      </trkpt>
      <trkpt lat="49.18858" lon="-0.40082">
        <ele>51.8</ele>
        <time>2023-05-25T11:49:03Z</time>
      </trkpt>
      <trkpt lat="49.18857" lon="-0.40083">
        <ele>51.8</ele>
        <time>2023-05-25T11:49:04Z</time>
      </trkpt>
      <trkpt lat="49.18857" lon="-0.40084">
        <ele>51.8</ele>
        <time>2023-05-25T11:49:05Z</time>
      </trkpt>
      <trkpt lat="49.18856" lon="-0.40085">
        <ele>51.8</ele>
        <time>2023-05-25T11:49:06Z</time>
      </trkpt>
      <trkpt lat="49.18856" lon="-0.40086">
        <ele>51.8</ele>
        <time>2023-05-25T11:49:07Z</time>
      </trkpt>
      <trkpt lat="49.18857" lon="-0.40088">
        <ele>51.8</ele>
        <time>2023-05-25T11:49:08Z</time>
      </trkpt>
      <trkpt lat="49.18859" lon="-0.4009">
        <ele>52</ele>
        <time>2023-05-25T11:49:09Z</time>
      </trkpt>
      <trkpt lat="49.1886" lon="-0.40092">
        <ele>52</ele>
        <time>2023-05-25T11:49:10Z</time>
      </trkpt>
      <trkpt lat="49.18863" lon="-0.40094">
        <ele>52.2</ele>
        <time>2023-05-25T11:49:11Z</time>
      </trkpt>
      <trkpt lat="49.18865" lon="-0.40096">
        <ele>52.4</ele>
        <time>2023-05-25T11:49:12Z</time>
      </trkpt>
      <trkpt lat="49.18868" lon="-0.40099">
        <ele>52.6</ele>
        <time>2023-05-25T11:49:13Z</time>
      </trkpt>
      <trkpt lat="49.1887" lon="-0.40102">
        <ele>52.8</ele>
        <time>2023-05-25T11:49:14Z</time>
      </trkpt>
      <trkpt lat="49.18873" lon="-0.40105">
        <ele>53</ele>
        <time>2023-05-25T11:49:15Z</time>
      </trkpt>
      <trkpt lat="49.18875" lon="-0.40108">
        <ele>53</ele>
        <time>2023-05-25T11:49:16Z</time>
      </trkpt>
      <trkpt lat="49.18876" lon="-0.40112">
        <ele>53.2</ele>
        <time>2023-05-25T11:49:17Z</time>
      </trkpt>
      <trkpt lat="49.18878" lon="-0.40115">
        <ele>53.4</ele>
        <time>2023-05-25T11:49:18Z</time>
      </trkpt>
      <trkpt lat="49.18878" lon="-0.40115">
        <ele>53.4</ele>
        <time>2023-05-25T11:49:19Z</time>
      </trkpt>
      <trkpt lat="49.18878" lon="-0.40115">
        <ele>53.4</ele>
        <time>2023-05-25T11:49:20Z</time>
      </trkpt>
      <trkpt lat="49.18878" lon="-0.40115">
        <ele>53.4</ele>
        <time>2023-05-25T11:49:21Z</time>
      </trkpt>
      <trkpt lat="49.18879" lon="-0.40116">
        <ele>53.4</ele>
        <time>2023-05-25T11:49:22Z</time>
      </trkpt>
      <trkpt lat="49.18879" lon="-0.40117">
        <ele>53.6</ele>
        <time>2023-05-25T11:49:23Z</time>
      </trkpt>
      <trkpt lat="49.18879" lon="-0.40117">
        <ele>53.6</ele>
        <time>2023-05-25T11:49:24Z</time>
      </trkpt>
      <trkpt lat="49.18879" lon="-0.40117">
        <ele>53.6</ele>
        <time>2023-05-25T11:49:25Z</time>
      </trkpt>
      <trkpt lat="49.18879" lon="-0.40118">
        <ele>53.6</ele>
        <time>2023-05-25T11:49:26Z</time>
      </trkpt>
      <trkpt lat="49.1888" lon="-0.40118">
        <ele>53.6</ele>
        <time>2023-05-25T11:49:27Z</time>
      </trkpt>
      <trkpt lat="49.1888" lon="-0.40118">
        <ele>53.6</ele>
        <time>2023-05-25T11:49:28Z</time>
      </trkpt>
      <trkpt lat="49.18881" lon="-0.40118">
        <ele>53.6</ele>
        <time>2023-05-25T11:49:29Z</time>
      </trkpt>
      <trkpt lat="49.18882" lon="-0.40119">
        <ele>53.6</ele>
        <time>2023-05-25T11:49:30Z</time>
      </trkpt>
      <trkpt lat="49.18882" lon="-0.4012">
        <ele>53.8</ele>
        <time>2023-05-25T11:49:31Z</time>
      </trkpt>
      <trkpt lat="49.18883" lon="-0.40121">
        <ele>53.8</ele>
        <time>2023-05-25T11:49:32Z</time>
      </trkpt>
      <trkpt lat="49.18884" lon="-0.40121">
        <ele>53.8</ele>
        <time>2023-05-25T11:49:33Z</time>
      </trkpt>
      <trkpt lat="49.18884" lon="-0.40122">
        <ele>53.8</ele>
        <time>2023-05-25T11:49:34Z</time>
      </trkpt>
      <trkpt lat="49.18885" lon="-0.40122">
        <ele>54</ele>
        <time>2023-05-25T11:49:35Z</time>
      </trkpt>
      <trkpt lat="49.18885" lon="-0.40122">
        <ele>54</ele>
        <time>2023-05-25T11:49:36Z</time>
      </trkpt>
      <trkpt lat="49.18886" lon="-0.40123">
        <ele>54</ele>
        <time>2023-05-25T11:49:37Z</time>
      </trkpt>
      <trkpt lat="49.18887" lon="-0.40124">
        <ele>54</ele>
        <time>2023-05-25T11:49:38Z</time>
      </trkpt>
      <trkpt lat="49.18888" lon="-0.40126">
        <ele>54</ele>
        <time>2023-05-25T11:49:39Z</time>
      </trkpt>
      <trkpt lat="49.18888" lon="-0.40129">
        <ele>54</ele>
        <time>2023-05-25T11:49:40Z</time>
      </trkpt>
      <trkpt lat="49.18888" lon="-0.40132">
        <ele>54</ele>
        <time>2023-05-25T11:49:41Z</time>
      </trkpt>
      <trkpt lat="49.18887" lon="-0.40135">
        <ele>54</ele>
        <time>2023-05-25T11:49:42Z</time>
      </trkpt>
      <trkpt lat="49.18886" lon="-0.40139">
        <ele>54</ele>
        <time>2023-05-25T11:49:43Z</time>
      </trkpt>
      <trkpt lat="49.18885" lon="-0.40143">
        <ele>54</ele>
        <time>2023-05-25T11:49:44Z</time>
      </trkpt>
      <trkpt lat="49.18884" lon="-0.40147">
        <ele>54</ele>
        <time>2023-05-25T11:49:45Z</time>
      </trkpt>
      <trkpt lat="49.18883" lon="-0.40152">
        <ele>54</ele>
        <time>2023-05-25T11:49:46Z</time>
      </trkpt>
      <trkpt lat="49.18882" lon="-0.40157">
        <ele>54</ele>
        <time>2023-05-25T11:49:47Z</time>
      </trkpt>
      <trkpt lat="49.18881" lon="-0.40162">
        <ele>53.8</ele>
        <time>2023-05-25T11:49:48Z</time>
      </trkpt>
      <trkpt lat="49.1888" lon="-0.40168">
        <ele>53.8</ele>
        <time>2023-05-25T11:49:49Z</time>
      </trkpt>
      <trkpt lat="49.18879" lon="-0.40175">
        <ele>54</ele>
        <time>2023-05-25T11:49:50Z</time>
      </trkpt>
      <trkpt lat="49.18879" lon="-0.40181">
        <ele>54</ele>
        <time>2023-05-25T11:49:51Z</time>
      </trkpt>
      <trkpt lat="49.18878" lon="-0.40188">
        <ele>54.2</ele>
        <time>2023-05-25T11:49:52Z</time>
      </trkpt>
      <trkpt lat="49.18877" lon="-0.40194">
        <ele>54.2</ele>
        <time>2023-05-25T11:49:53Z</time>
      </trkpt>
      <trkpt lat="49.18876" lon="-0.40201">
        <ele>54.4</ele>
        <time>2023-05-25T11:49:54Z</time>
      </trkpt>
      <trkpt lat="49.18875" lon="-0.40207">
        <ele>54.6</ele>
        <time>2023-05-25T11:49:55Z</time>
      </trkpt>
      <trkpt lat="49.18875" lon="-0.40212">
        <ele>54.6</ele>
        <time>2023-05-25T11:49:56Z</time>
      </trkpt>
      <trkpt lat="49.18875" lon="-0.40217">
        <ele>54.8</ele>
        <time>2023-05-25T11:49:57Z</time>
      </trkpt>
      <trkpt lat="49.18875" lon="-0.40222">
        <ele>54.8</ele>
        <time>2023-05-25T11:49:58Z</time>
      </trkpt>
      <trkpt lat="49.18875" lon="-0.40228">
        <ele>55</ele>
        <time>2023-05-25T11:49:59Z</time>
      </trkpt>
      <trkpt lat="49.18874" lon="-0.40234">
        <ele>55</ele>
        <time>2023-05-25T11:50:00Z</time>
      </trkpt>
      <trkpt lat="49.18873" lon="-0.4024">
        <ele>55.2</ele>
        <time>2023-05-25T11:50:01Z</time>
      </trkpt>
      <trkpt lat="49.18873" lon="-0.40246">
        <ele>55.2</ele>
        <time>2023-05-25T11:50:02Z</time>
      </trkpt>
      <trkpt lat="49.18872" lon="-0.40253">
        <ele>55.4</ele>
        <time>2023-05-25T11:50:03Z</time>
      </trkpt>
      <trkpt lat="49.18871" lon="-0.4026">
        <ele>55.6</ele>
        <time>2023-05-25T11:50:04Z</time>
      </trkpt>
      <trkpt lat="49.1887" lon="-0.40266">
        <ele>55.6</ele>
        <time>2023-05-25T11:50:05Z</time>
      </trkpt>
      <trkpt lat="49.18869" lon="-0.40273">
        <ele>55.8</ele>
        <time>2023-05-25T11:50:06Z</time>
      </trkpt>
      <trkpt lat="49.18869" lon="-0.4028">
        <ele>55.8</ele>
        <time>2023-05-25T11:50:07Z</time>
      </trkpt>
      <trkpt lat="49.18868" lon="-0.40287">
        <ele>56</ele>
        <time>2023-05-25T11:50:08Z</time>
      </trkpt>
      <trkpt lat="49.18867" lon="-0.40294">
        <ele>56</ele>
        <time>2023-05-25T11:50:09Z</time>
      </trkpt>
      <trkpt lat="49.18866" lon="-0.40301">
        <ele>56.2</ele>
        <time>2023-05-25T11:50:10Z</time>
      </trkpt>
      <trkpt lat="49.18865" lon="-0.40308">
        <ele>56.2</ele>
        <time>2023-05-25T11:50:11Z</time>
      </trkpt>
      <trkpt lat="49.18865" lon="-0.40315">
        <ele>56.4</ele>
        <time>2023-05-25T11:50:12Z</time>
      </trkpt>
      <trkpt lat="49.18864" lon="-0.40322">
        <ele>56.6</ele>
        <time>2023-05-25T11:50:13Z</time>
      </trkpt>
      <trkpt lat="49.18863" lon="-0.40329">
        <ele>56.8</ele>
        <time>2023-05-25T11:50:14Z</time>
      </trkpt>
      <trkpt lat="49.18862" lon="-0.40336">
        <ele>56.8</ele>
        <time>2023-05-25T11:50:15Z</time>
      </trkpt>
      <trkpt lat="49.18862" lon="-0.40343">
        <ele>56.8</ele>
        <time>2023-05-25T11:50:16Z</time>
      </trkpt>
      <trkpt lat="49.18861" lon="-0.40349">
        <ele>57</ele>
        <time>2023-05-25T11:50:17Z</time>
      </trkpt>
      <trkpt lat="49.1886" lon="-0.40356">
        <ele>57</ele>
        <time>2023-05-25T11:50:18Z</time>
      </trkpt>
      <trkpt lat="49.18859" lon="-0.40363">
        <ele>57</ele>
        <time>2023-05-25T11:50:19Z</time>
      </trkpt>
      <trkpt lat="49.18859" lon="-0.4037">
        <ele>57</ele>
        <time>2023-05-25T11:50:20Z</time>
      </trkpt>
      <trkpt lat="49.18858" lon="-0.40377">
        <ele>57</ele>
        <time>2023-05-25T11:50:21Z</time>
      </trkpt>
      <trkpt lat="49.18857" lon="-0.40385">
        <ele>57.2</ele>
        <time>2023-05-25T11:50:22Z</time>
      </trkpt>
      <trkpt lat="49.18856" lon="-0.40392">
        <ele>57.2</ele>
        <time>2023-05-25T11:50:23Z</time>
      </trkpt>
      <trkpt lat="49.18855" lon="-0.40399">
        <ele>57.2</ele>
        <time>2023-05-25T11:50:24Z</time>
      </trkpt>
      <trkpt lat="49.18854" lon="-0.40406">
        <ele>57.4</ele>
        <time>2023-05-25T11:50:25Z</time>
      </trkpt>
      <trkpt lat="49.18853" lon="-0.40414">
        <ele>57.4</ele>
        <time>2023-05-25T11:50:26Z</time>
      </trkpt>
      <trkpt lat="49.18853" lon="-0.40421">
        <ele>57.6</ele>
        <time>2023-05-25T11:50:27Z</time>
      </trkpt>
      <trkpt lat="49.18852" lon="-0.40429">
        <ele>57.8</ele>
        <time>2023-05-25T11:50:28Z</time>
      </trkpt>
      <trkpt lat="49.18851" lon="-0.40436">
        <ele>58</ele>
        <time>2023-05-25T11:50:29Z</time>
      </trkpt>
      <trkpt lat="49.1885" lon="-0.40444">
        <ele>58</ele>
        <time>2023-05-25T11:50:30Z</time>
      </trkpt>
      <trkpt lat="49.1885" lon="-0.40451">
        <ele>58.2</ele>
        <time>2023-05-25T11:50:31Z</time>
      </trkpt>
      <trkpt lat="49.18849" lon="-0.40459">
        <ele>58.6</ele>
        <time>2023-05-25T11:50:32Z</time>
      </trkpt>
      <trkpt lat="49.18848" lon="-0.40466">
        <ele>58.8</ele>
        <time>2023-05-25T11:50:33Z</time>
      </trkpt>
      <trkpt lat="49.18847" lon="-0.40474">
        <ele>59</ele>
        <time>2023-05-25T11:50:34Z</time>
      </trkpt>
      <trkpt lat="49.18846" lon="-0.40481">
        <ele>59</ele>
        <time>2023-05-25T11:50:35Z</time>
      </trkpt>
      <trkpt lat="49.18846" lon="-0.40488">
        <ele>59.2</ele>
        <time>2023-05-25T11:50:36Z</time>
      </trkpt>
      <trkpt lat="49.18845" lon="-0.40495">
        <ele>59.6</ele>
        <time>2023-05-25T11:50:37Z</time>
      </trkpt>
      <trkpt lat="49.18844" lon="-0.40502">
        <ele>59.6</ele>
        <time>2023-05-25T11:50:38Z</time>
      </trkpt>
      <trkpt lat="49.18843" lon="-0.40509">
        <ele>59.6</ele>
        <time>2023-05-25T11:50:39Z</time>
      </trkpt>
      <trkpt lat="49.18842" lon="-0.40516">
        <ele>59.6</ele>
        <time>2023-05-25T11:50:40Z</time>
      </trkpt>
      <trkpt lat="49.18841" lon="-0.40523">
        <ele>59.6</ele>
        <time>2023-05-25T11:50:41Z</time>
      </trkpt>
      <trkpt lat="49.18841" lon="-0.40529">
        <ele>59.6</ele>
        <time>2023-05-25T11:50:42Z</time>
      </trkpt>
      <trkpt lat="49.1884" lon="-0.40536">
        <ele>59.4</ele>
        <time>2023-05-25T11:50:43Z</time>
      </trkpt>
      <trkpt lat="49.18839" lon="-0.40542">
        <ele>59.4</ele>
        <time>2023-05-25T11:50:44Z</time>
      </trkpt>
      <trkpt lat="49.18838" lon="-0.40548">
        <ele>59.2</ele>
        <time>2023-05-25T11:50:45Z</time>
      </trkpt>
      <trkpt lat="49.18837" lon="-0.40554">
        <ele>59.2</ele>
        <time>2023-05-25T11:50:46Z</time>
      </trkpt>
      <trkpt lat="49.18836" lon="-0.4056">
        <ele>59.2</ele>
        <time>2023-05-25T11:50:47Z</time>
      </trkpt>
      <trkpt lat="49.18835" lon="-0.40567">
        <ele>59</ele>
        <time>2023-05-25T11:50:48Z</time>
      </trkpt>
      <trkpt lat="49.18833" lon="-0.40572">
        <ele>59</ele>
        <time>2023-05-25T11:50:49Z</time>
      </trkpt>
      <trkpt lat="49.18831" lon="-0.40576">
        <ele>59</ele>
        <time>2023-05-25T11:50:50Z</time>
      </trkpt>
      <trkpt lat="49.18828" lon="-0.40579">
        <ele>58.8</ele>
        <time>2023-05-25T11:50:51Z</time>
      </trkpt>
      <trkpt lat="49.18824" lon="-0.40581">
        <ele>58.4</ele>
        <time>2023-05-25T11:50:52Z</time>
      </trkpt>
      <trkpt lat="49.1882" lon="-0.40581">
        <ele>58.2</ele>
        <time>2023-05-25T11:50:53Z</time>
      </trkpt>
      <trkpt lat="49.18814" lon="-0.40581">
        <ele>58</ele>
        <time>2023-05-25T11:50:54Z</time>
      </trkpt>
      <trkpt lat="49.18809" lon="-0.40582">
        <ele>57.6</ele>
        <time>2023-05-25T11:50:55Z</time>
      </trkpt>
      <trkpt lat="49.18804" lon="-0.40583">
        <ele>57.2</ele>
        <time>2023-05-25T11:50:56Z</time>
      </trkpt>
      <trkpt lat="49.18798" lon="-0.40583">
        <ele>57</ele>
        <time>2023-05-25T11:50:57Z</time>
      </trkpt>
      <trkpt lat="49.18793" lon="-0.40584">
        <ele>56.6</ele>
        <time>2023-05-25T11:50:58Z</time>
      </trkpt>
      <trkpt lat="49.18788" lon="-0.40584">
        <ele>56.2</ele>
        <time>2023-05-25T11:50:59Z</time>
      </trkpt>
      <trkpt lat="49.18785" lon="-0.40584">
        <ele>56</ele>
        <time>2023-05-25T11:51:00Z</time>
      </trkpt>
      <trkpt lat="49.18781" lon="-0.40585">
        <ele>56</ele>
        <time>2023-05-25T11:51:01Z</time>
      </trkpt>
      <trkpt lat="49.18779" lon="-0.40586">
        <ele>55.8</ele>
        <time>2023-05-25T11:51:02Z</time>
      </trkpt>
      <trkpt lat="49.18776" lon="-0.40585">
        <ele>55.6</ele>
        <time>2023-05-25T11:51:03Z</time>
      </trkpt>
      <trkpt lat="49.18774" lon="-0.40582">
        <ele>55.4</ele>
        <time>2023-05-25T11:51:04Z</time>
      </trkpt>
      <trkpt lat="49.18772" lon="-0.40577">
        <ele>55.2</ele>
        <time>2023-05-25T11:51:05Z</time>
      </trkpt>
      <trkpt lat="49.18771" lon="-0.40571">
        <ele>55.2</ele>
        <time>2023-05-25T11:51:06Z</time>
      </trkpt>
      <trkpt lat="49.18771" lon="-0.40564">
        <ele>55</ele>
        <time>2023-05-25T11:51:07Z</time>
      </trkpt>
      <trkpt lat="49.1877" lon="-0.40557">
        <ele>55</ele>
        <time>2023-05-25T11:51:08Z</time>
      </trkpt>
      <trkpt lat="49.18769" lon="-0.4055">
        <ele>54.8</ele>
        <time>2023-05-25T11:51:09Z</time>
      </trkpt>
      <trkpt lat="49.18768" lon="-0.40542">
        <ele>54.8</ele>
        <time>2023-05-25T11:51:10Z</time>
      </trkpt>
      <trkpt lat="49.18767" lon="-0.40534">
        <ele>54.6</ele>
        <time>2023-05-25T11:51:11Z</time>
      </trkpt>
      <trkpt lat="49.18765" lon="-0.40526">
        <ele>54.2</ele>
        <time>2023-05-25T11:51:12Z</time>
      </trkpt>
      <trkpt lat="49.18763" lon="-0.40518">
        <ele>54</ele>
        <time>2023-05-25T11:51:13Z</time>
      </trkpt>
      <trkpt lat="49.18762" lon="-0.4051">
        <ele>54</ele>
        <time>2023-05-25T11:51:14Z</time>
      </trkpt>
      <trkpt lat="49.1876" lon="-0.40502">
        <ele>53.8</ele>
        <time>2023-05-25T11:51:15Z</time>
      </trkpt>
      <trkpt lat="49.18758" lon="-0.40493">
        <ele>53.4</ele>
        <time>2023-05-25T11:51:16Z</time>
      </trkpt>
      <trkpt lat="49.18756" lon="-0.40485">
        <ele>53</ele>
        <time>2023-05-25T11:51:17Z</time>
      </trkpt>
      <trkpt lat="49.18755" lon="-0.40476">
        <ele>52.8</ele>
        <time>2023-05-25T11:51:18Z</time>
      </trkpt>
      <trkpt lat="49.18753" lon="-0.40467">
        <ele>52.4</ele>
        <time>2023-05-25T11:51:19Z</time>
      </trkpt>
      <trkpt lat="49.18751" lon="-0.40458">
        <ele>52</ele>
        <time>2023-05-25T11:51:20Z</time>
      </trkpt>
      <trkpt lat="49.18748" lon="-0.40448">
        <ele>51.8</ele>
        <time>2023-05-25T11:51:21Z</time>
      </trkpt>
      <trkpt lat="49.18746" lon="-0.40439">
        <ele>51.2</ele>
        <time>2023-05-25T11:51:22Z</time>
      </trkpt>
      <trkpt lat="49.18744" lon="-0.4043">
        <ele>51</ele>
        <time>2023-05-25T11:51:23Z</time>
      </trkpt>
      <trkpt lat="49.18741" lon="-0.4042">
        <ele>50.6</ele>
        <time>2023-05-25T11:51:24Z</time>
      </trkpt>
      <trkpt lat="49.18739" lon="-0.40411">
        <ele>50.2</ele>
        <time>2023-05-25T11:51:25Z</time>
      </trkpt>
      <trkpt lat="49.18737" lon="-0.40402">
        <ele>50</ele>
        <time>2023-05-25T11:51:26Z</time>
      </trkpt>
      <trkpt lat="49.18735" lon="-0.40394">
        <ele>49.8</ele>
        <time>2023-05-25T11:51:27Z</time>
      </trkpt>
      <trkpt lat="49.18733" lon="-0.40386">
        <ele>49.6</ele>
        <time>2023-05-25T11:51:28Z</time>
      </trkpt>
      <trkpt lat="49.1873" lon="-0.4038">
        <ele>49.2</ele>
        <time>2023-05-25T11:51:29Z</time>
      </trkpt>
      <trkpt lat="49.18726" lon="-0.40376">
        <ele>49</ele>
        <time>2023-05-25T11:51:30Z</time>
      </trkpt>
      <trkpt lat="49.18723" lon="-0.40376">
        <ele>49</ele>
        <time>2023-05-25T11:51:31Z</time>
      </trkpt>
      <trkpt lat="49.1872" lon="-0.40379">
        <ele>48.8</ele>
        <time>2023-05-25T11:51:32Z</time>
      </trkpt>
      <trkpt lat="49.1872" lon="-0.40385">
        <ele>49</ele>
        <time>2023-05-25T11:51:33Z</time>
      </trkpt>
      <trkpt lat="49.1872" lon="-0.40391">
        <ele>49</ele>
        <time>2023-05-25T11:51:34Z</time>
      </trkpt>
      <trkpt lat="49.1872" lon="-0.40397">
        <ele>49.2</ele>
        <time>2023-05-25T11:51:35Z</time>
      </trkpt>
      <trkpt lat="49.18721" lon="-0.40403">
        <ele>49.2</ele>
        <time>2023-05-25T11:51:36Z</time>
      </trkpt>
      <trkpt lat="49.18722" lon="-0.40409">
        <ele>49.6</ele>
        <time>2023-05-25T11:51:37Z</time>
      </trkpt>
      <trkpt lat="49.18722" lon="-0.40416">
        <ele>49.6</ele>
        <time>2023-05-25T11:51:38Z</time>
      </trkpt>
      <trkpt lat="49.18722" lon="-0.40422">
        <ele>49.8</ele>
        <time>2023-05-25T11:51:39Z</time>
      </trkpt>
      <trkpt lat="49.18723" lon="-0.40429">
        <ele>49.8</ele>
        <time>2023-05-25T11:51:40Z</time>
      </trkpt>
      <trkpt lat="49.18723" lon="-0.40436">
        <ele>50</ele>
        <time>2023-05-25T11:51:41Z</time>
      </trkpt>
      <trkpt lat="49.18724" lon="-0.40442">
        <ele>50</ele>
        <time>2023-05-25T11:51:42Z</time>
      </trkpt>
      <trkpt lat="49.18724" lon="-0.40449">
        <ele>50.2</ele>
        <time>2023-05-25T11:51:43Z</time>
      </trkpt>
      <trkpt lat="49.18725" lon="-0.40456">
        <ele>50.2</ele>
        <time>2023-05-25T11:51:44Z</time>
      </trkpt>
      <trkpt lat="49.18725" lon="-0.40462">
        <ele>50.4</ele>
        <time>2023-05-25T11:51:45Z</time>
      </trkpt>
      <trkpt lat="49.18726" lon="-0.40469">
        <ele>50.6</ele>
        <time>2023-05-25T11:51:46Z</time>
      </trkpt>
      <trkpt lat="49.18726" lon="-0.40476">
        <ele>50.8</ele>
        <time>2023-05-25T11:51:47Z</time>
      </trkpt>
      <trkpt lat="49.18727" lon="-0.40482">
        <ele>50.8</ele>
        <time>2023-05-25T11:51:48Z</time>
      </trkpt>
      <trkpt lat="49.18728" lon="-0.40489">
        <ele>51</ele>
        <time>2023-05-25T11:51:49Z</time>
      </trkpt>
      <trkpt lat="49.18728" lon="-0.40496">
        <ele>51</ele>
        <time>2023-05-25T11:51:50Z</time>
      </trkpt>
      <trkpt lat="49.18729" lon="-0.40502">
        <ele>51.2</ele>
        <time>2023-05-25T11:51:51Z</time>
      </trkpt>
      <trkpt lat="49.18729" lon="-0.40508">
        <ele>51.4</ele>
        <time>2023-05-25T11:51:52Z</time>
      </trkpt>
      <trkpt lat="49.1873" lon="-0.40515">
        <ele>51.6</ele>
        <time>2023-05-25T11:51:53Z</time>
      </trkpt>
      <trkpt lat="49.18731" lon="-0.40521">
        <ele>51.6</ele>
        <time>2023-05-25T11:51:54Z</time>
      </trkpt>
      <trkpt lat="49.18731" lon="-0.40528">
        <ele>51.8</ele>
        <time>2023-05-25T11:51:55Z</time>
      </trkpt>
      <trkpt lat="49.18732" lon="-0.40534">
        <ele>52</ele>
        <time>2023-05-25T11:51:56Z</time>
      </trkpt>
      <trkpt lat="49.18732" lon="-0.40541">
        <ele>52</ele>
        <time>2023-05-25T11:51:57Z</time>
      </trkpt>
      <trkpt lat="49.18732" lon="-0.40548">
        <ele>52</ele>
        <time>2023-05-25T11:51:58Z</time>
      </trkpt>
      <trkpt lat="49.18733" lon="-0.40554">
        <ele>52.2</ele>
        <time>2023-05-25T11:51:59Z</time>
      </trkpt>
      <trkpt lat="49.18733" lon="-0.40561">
        <ele>52.2</ele>
        <time>2023-05-25T11:52:00Z</time>
      </trkpt>
      <trkpt lat="49.18733" lon="-0.40568">
        <ele>52.4</ele>
        <time>2023-05-25T11:52:01Z</time>
      </trkpt>
      <trkpt lat="49.18733" lon="-0.40575">
        <ele>52.4</ele>
        <time>2023-05-25T11:52:02Z</time>
      </trkpt>
      <trkpt lat="49.18732" lon="-0.40582">
        <ele>52.6</ele>
        <time>2023-05-25T11:52:03Z</time>
      </trkpt>
      <trkpt lat="49.18732" lon="-0.40588">
        <ele>52.6</ele>
        <time>2023-05-25T11:52:04Z</time>
      </trkpt>
      <trkpt lat="49.18732" lon="-0.40595">
        <ele>52.6</ele>
        <time>2023-05-25T11:52:05Z</time>
      </trkpt>
      <trkpt lat="49.18731" lon="-0.40602">
        <ele>52.6</ele>
        <time>2023-05-25T11:52:06Z</time>
      </trkpt>
      <trkpt lat="49.18731" lon="-0.40609">
        <ele>52.6</ele>
        <time>2023-05-25T11:52:07Z</time>
      </trkpt>
      <trkpt lat="49.1873" lon="-0.40616">
        <ele>52.6</ele>
        <time>2023-05-25T11:52:08Z</time>
      </trkpt>
      <trkpt lat="49.1873" lon="-0.40623">
        <ele>52.6</ele>
        <time>2023-05-25T11:52:09Z</time>
      </trkpt>
      <trkpt lat="49.18729" lon="-0.4063">
        <ele>52.8</ele>
        <time>2023-05-25T11:52:10Z</time>
      </trkpt>
      <trkpt lat="49.18729" lon="-0.40637">
        <ele>52.8</ele>
        <time>2023-05-25T11:52:11Z</time>
      </trkpt>
      <trkpt lat="49.18728" lon="-0.40644">
        <ele>52.8</ele>
        <time>2023-05-25T11:52:12Z</time>
      </trkpt>
      <trkpt lat="49.18728" lon="-0.40651">
        <ele>52.8</ele>
        <time>2023-05-25T11:52:13Z</time>
      </trkpt>
      <trkpt lat="49.18728" lon="-0.40658">
        <ele>52.8</ele>
        <time>2023-05-25T11:52:14Z</time>
      </trkpt>
      <trkpt lat="49.18727" lon="-0.40665">
        <ele>52.8</ele>
        <time>2023-05-25T11:52:15Z</time>
      </trkpt>
      <trkpt lat="49.18727" lon="-0.40672">
        <ele>52.8</ele>
        <time>2023-05-25T11:52:16Z</time>
      </trkpt>
      <trkpt lat="49.18727" lon="-0.4068">
        <ele>52.8</ele>
        <time>2023-05-25T11:52:17Z</time>
      </trkpt>
      <trkpt lat="49.18727" lon="-0.40688">
        <ele>52.6</ele>
        <time>2023-05-25T11:52:18Z</time>
      </trkpt>
      <trkpt lat="49.18726" lon="-0.40695">
        <ele>52.6</ele>
        <time>2023-05-25T11:52:19Z</time>
      </trkpt>
      <trkpt lat="49.18726" lon="-0.40703">
        <ele>52.6</ele>
        <time>2023-05-25T11:52:20Z</time>
      </trkpt>
      <trkpt lat="49.18726" lon="-0.40711">
        <ele>52.6</ele>
        <time>2023-05-25T11:52:21Z</time>
      </trkpt>
      <trkpt lat="49.18726" lon="-0.4072">
        <ele>52.4</ele>
        <time>2023-05-25T11:52:22Z</time>
      </trkpt>
      <trkpt lat="49.18726" lon="-0.40728">
        <ele>52.4</ele>
        <time>2023-05-25T11:52:23Z</time>
      </trkpt>
      <trkpt lat="49.18725" lon="-0.40736">
        <ele>52.2</ele>
        <time>2023-05-25T11:52:24Z</time>
      </trkpt>
      <trkpt lat="49.18725" lon="-0.40745">
        <ele>52.2</ele>
        <time>2023-05-25T11:52:25Z</time>
      </trkpt>
      <trkpt lat="49.18725" lon="-0.40753">
        <ele>52.2</ele>
        <time>2023-05-25T11:52:26Z</time>
      </trkpt>
      <trkpt lat="49.18725" lon="-0.40761">
        <ele>52.2</ele>
        <time>2023-05-25T11:52:27Z</time>
      </trkpt>
      <trkpt lat="49.18725" lon="-0.4077">
        <ele>52.2</ele>
        <time>2023-05-25T11:52:28Z</time>
      </trkpt>
      <trkpt lat="49.18726" lon="-0.40778">
        <ele>52.2</ele>
        <time>2023-05-25T11:52:29Z</time>
      </trkpt>
      <trkpt lat="49.18726" lon="-0.40786">
        <ele>52.2</ele>
        <time>2023-05-25T11:52:30Z</time>
      </trkpt>
      <trkpt lat="49.18727" lon="-0.40794">
        <ele>52.2</ele>
        <time>2023-05-25T11:52:31Z</time>
      </trkpt>
      <trkpt lat="49.18727" lon="-0.40803">
        <ele>52.4</ele>
        <time>2023-05-25T11:52:32Z</time>
      </trkpt>
      <trkpt lat="49.18728" lon="-0.40811">
        <ele>52.4</ele>
        <time>2023-05-25T11:52:33Z</time>
      </trkpt>
      <trkpt lat="49.18728" lon="-0.40819">
        <ele>52.4</ele>
        <time>2023-05-25T11:52:34Z</time>
      </trkpt>
      <trkpt lat="49.18729" lon="-0.40827">
        <ele>52.6</ele>
        <time>2023-05-25T11:52:35Z</time>
      </trkpt>
      <trkpt lat="49.18729" lon="-0.40835">
        <ele>52.6</ele>
        <time>2023-05-25T11:52:36Z</time>
      </trkpt>
      <trkpt lat="49.1873" lon="-0.40843">
        <ele>52.6</ele>
        <time>2023-05-25T11:52:37Z</time>
      </trkpt>
      <trkpt lat="49.1873" lon="-0.40851">
        <ele>52.8</ele>
        <time>2023-05-25T11:52:38Z</time>
      </trkpt>
      <trkpt lat="49.1873" lon="-0.40859">
        <ele>52.8</ele>
        <time>2023-05-25T11:52:39Z</time>
      </trkpt>
      <trkpt lat="49.18731" lon="-0.40867">
        <ele>53</ele>
        <time>2023-05-25T11:52:40Z</time>
      </trkpt>
      <trkpt lat="49.18731" lon="-0.40875">
        <ele>53</ele>
        <time>2023-05-25T11:52:41Z</time>
      </trkpt>
      <trkpt lat="49.18732" lon="-0.40883">
        <ele>53.2</ele>
        <time>2023-05-25T11:52:42Z</time>
      </trkpt>
      <trkpt lat="49.18732" lon="-0.40891">
        <ele>53.2</ele>
        <time>2023-05-25T11:52:43Z</time>
      </trkpt>
      <trkpt lat="49.18733" lon="-0.40899">
        <ele>53.4</ele>
        <time>2023-05-25T11:52:44Z</time>
      </trkpt>
      <trkpt lat="49.18734" lon="-0.40907">
        <ele>53.6</ele>
        <time>2023-05-25T11:52:45Z</time>
      </trkpt>
      <trkpt lat="49.18735" lon="-0.40915">
        <ele>53.8</ele>
        <time>2023-05-25T11:52:46Z</time>
      </trkpt>
      <trkpt lat="49.18736" lon="-0.40923">
        <ele>54</ele>
        <time>2023-05-25T11:52:47Z</time>
      </trkpt>
      <trkpt lat="49.18736" lon="-0.40931">
        <ele>54.2</ele>
        <time>2023-05-25T11:52:48Z</time>
      </trkpt>
      <trkpt lat="49.18737" lon="-0.40939">
        <ele>54.4</ele>
        <time>2023-05-25T11:52:49Z</time>
      </trkpt>
      <trkpt lat="49.18738" lon="-0.40947">
        <ele>54.6</ele>
        <time>2023-05-25T11:52:50Z</time>
      </trkpt>
      <trkpt lat="49.18738" lon="-0.40955">
        <ele>54.8</ele>
        <time>2023-05-25T11:52:51Z</time>
      </trkpt>
      <trkpt lat="49.18739" lon="-0.40963">
        <ele>55</ele>
        <time>2023-05-25T11:52:52Z</time>
      </trkpt>
      <trkpt lat="49.18739" lon="-0.40971">
        <ele>55.2</ele>
        <time>2023-05-25T11:52:53Z</time>
      </trkpt>
      <trkpt lat="49.18739" lon="-0.40979">
        <ele>55.4</ele>
        <time>2023-05-25T11:52:54Z</time>
      </trkpt>
      <trkpt lat="49.18739" lon="-0.40987">
        <ele>55.6</ele>
        <time>2023-05-25T11:52:55Z</time>
      </trkpt>
      <trkpt lat="49.18739" lon="-0.40995">
        <ele>55.8</ele>
        <time>2023-05-25T11:52:56Z</time>
      </trkpt>
      <trkpt lat="49.18739" lon="-0.41003">
        <ele>55.8</ele>
        <time>2023-05-25T11:52:57Z</time>
      </trkpt>
      <trkpt lat="49.18738" lon="-0.4101">
        <ele>55.6</ele>
        <time>2023-05-25T11:52:58Z</time>
      </trkpt>
      <trkpt lat="49.18736" lon="-0.41017">
        <ele>55.2</ele>
        <time>2023-05-25T11:52:59Z</time>
      </trkpt>
      <trkpt lat="49.18735" lon="-0.41023">
        <ele>55</ele>
        <time>2023-05-25T11:53:00Z</time>
      </trkpt>
      <trkpt lat="49.18734" lon="-0.41029">
        <ele>54.8</ele>
        <time>2023-05-25T11:53:01Z</time>
      </trkpt>
      <trkpt lat="49.18734" lon="-0.41033">
        <ele>54.8</ele>
        <time>2023-05-25T11:53:02Z</time>
      </trkpt>
      <trkpt lat="49.18735" lon="-0.41038">
        <ele>54.8</ele>
        <time>2023-05-25T11:53:03Z</time>
      </trkpt>
      <trkpt lat="49.18736" lon="-0.41042">
        <ele>54.8</ele>
        <time>2023-05-25T11:53:04Z</time>
      </trkpt>
      <trkpt lat="49.18737" lon="-0.41048">
        <ele>54.8</ele>
        <time>2023-05-25T11:53:05Z</time>
      </trkpt>
      <trkpt lat="49.18738" lon="-0.41055">
        <ele>54.8</ele>
        <time>2023-05-25T11:53:06Z</time>
      </trkpt>
      <trkpt lat="49.18738" lon="-0.41061">
        <ele>54.6</ele>
        <time>2023-05-25T11:53:07Z</time>
      </trkpt>
      <trkpt lat="49.18738" lon="-0.41068">
        <ele>54.4</ele>
        <time>2023-05-25T11:53:08Z</time>
      </trkpt>
      <trkpt lat="49.18736" lon="-0.41075">
        <ele>54</ele>
        <time>2023-05-25T11:53:09Z</time>
      </trkpt>
      <trkpt lat="49.18733" lon="-0.41081">
        <ele>53.8</ele>
        <time>2023-05-25T11:53:10Z</time>
      </trkpt>
      <trkpt lat="49.1873" lon="-0.41086">
        <ele>53.6</ele>
        <time>2023-05-25T11:53:11Z</time>
      </trkpt>
      <trkpt lat="49.18727" lon="-0.41092">
        <ele>53.6</ele>
        <time>2023-05-25T11:53:12Z</time>
      </trkpt>
      <trkpt lat="49.18725" lon="-0.41099">
        <ele>53.4</ele>
        <time>2023-05-25T11:53:13Z</time>
      </trkpt>
      <trkpt lat="49.18724" lon="-0.41107">
        <ele>53.6</ele>
        <time>2023-05-25T11:53:14Z</time>
      </trkpt>
      <trkpt lat="49.18725" lon="-0.41115">
        <ele>53.8</ele>
        <time>2023-05-25T11:53:15Z</time>
      </trkpt>
      <trkpt lat="49.18727" lon="-0.41122">
        <ele>54</ele>
        <time>2023-05-25T11:53:16Z</time>
      </trkpt>
      <trkpt lat="49.18729" lon="-0.4113">
        <ele>54.2</ele>
        <time>2023-05-25T11:53:17Z</time>
      </trkpt>
      <trkpt lat="49.18731" lon="-0.41137">
        <ele>54.4</ele>
        <time>2023-05-25T11:53:18Z</time>
      </trkpt>
      <trkpt lat="49.18732" lon="-0.41144">
        <ele>54.6</ele>
        <time>2023-05-25T11:53:19Z</time>
      </trkpt>
      <trkpt lat="49.18733" lon="-0.41151">
        <ele>54.8</ele>
        <time>2023-05-25T11:53:20Z</time>
      </trkpt>
      <trkpt lat="49.18735" lon="-0.41158">
        <ele>55</ele>
        <time>2023-05-25T11:53:21Z</time>
      </trkpt>
      <trkpt lat="49.18736" lon="-0.41165">
        <ele>55</ele>
        <time>2023-05-25T11:53:22Z</time>
      </trkpt>
      <trkpt lat="49.18736" lon="-0.41172">
        <ele>55.2</ele>
        <time>2023-05-25T11:53:23Z</time>
      </trkpt>
      <trkpt lat="49.18737" lon="-0.41179">
        <ele>55.6</ele>
        <time>2023-05-25T11:53:24Z</time>
      </trkpt>
      <trkpt lat="49.18738" lon="-0.41187">
        <ele>55.6</ele>
        <time>2023-05-25T11:53:25Z</time>
      </trkpt>
      <trkpt lat="49.18738" lon="-0.41194">
        <ele>55.8</ele>
        <time>2023-05-25T11:53:26Z</time>
      </trkpt>
      <trkpt lat="49.18739" lon="-0.41201">
        <ele>56</ele>
        <time>2023-05-25T11:53:27Z</time>
      </trkpt>
      <trkpt lat="49.18739" lon="-0.41209">
        <ele>56</ele>
        <time>2023-05-25T11:53:28Z</time>
      </trkpt>
      <trkpt lat="49.18739" lon="-0.41217">
        <ele>56.2</ele>
        <time>2023-05-25T11:53:29Z</time>
      </trkpt>
      <trkpt lat="49.18739" lon="-0.41224">
        <ele>56.4</ele>
        <time>2023-05-25T11:53:30Z</time>
      </trkpt>
      <trkpt lat="49.18739" lon="-0.41233">
        <ele>56.6</ele>
        <time>2023-05-25T11:53:31Z</time>
      </trkpt>
      <trkpt lat="49.18739" lon="-0.41241">
        <ele>56.6</ele>
        <time>2023-05-25T11:53:32Z</time>
      </trkpt>
      <trkpt lat="49.18739" lon="-0.41249">
        <ele>56.8</ele>
        <time>2023-05-25T11:53:33Z</time>
      </trkpt>
      <trkpt lat="49.18738" lon="-0.41257">
        <ele>56.8</ele>
        <time>2023-05-25T11:53:34Z</time>
      </trkpt>
      <trkpt lat="49.18738" lon="-0.41266">
        <ele>56.6</ele>
        <time>2023-05-25T11:53:35Z</time>
      </trkpt>
      <trkpt lat="49.18738" lon="-0.41274">
        <ele>56.6</ele>
        <time>2023-05-25T11:53:36Z</time>
      </trkpt>
      <trkpt lat="49.18738" lon="-0.41282">
        <ele>56.2</ele>
        <time>2023-05-25T11:53:37Z</time>
      </trkpt>
      <trkpt lat="49.18738" lon="-0.41291">
        <ele>56.2</ele>
        <time>2023-05-25T11:53:38Z</time>
      </trkpt>
      <trkpt lat="49.18737" lon="-0.41299">
        <ele>56</ele>
        <time>2023-05-25T11:53:39Z</time>
      </trkpt>
      <trkpt lat="49.18737" lon="-0.41307">
        <ele>56</ele>
        <time>2023-05-25T11:53:40Z</time>
      </trkpt>
      <trkpt lat="49.18737" lon="-0.41315">
        <ele>56</ele>
        <time>2023-05-25T11:53:41Z</time>
      </trkpt>
      <trkpt lat="49.18737" lon="-0.41324">
        <ele>55.8</ele>
        <time>2023-05-25T11:53:42Z</time>
      </trkpt>
      <trkpt lat="49.18737" lon="-0.41331">
        <ele>55.8</ele>
        <time>2023-05-25T11:53:43Z</time>
      </trkpt>
      <trkpt lat="49.18736" lon="-0.41339">
        <ele>55.8</ele>
        <time>2023-05-25T11:53:44Z</time>
      </trkpt>
      <trkpt lat="49.18736" lon="-0.41347">
        <ele>56</ele>
        <time>2023-05-25T11:53:45Z</time>
      </trkpt>
      <trkpt lat="49.18736" lon="-0.41355">
        <ele>56.2</ele>
        <time>2023-05-25T11:53:46Z</time>
      </trkpt>
      <trkpt lat="49.18736" lon="-0.41363">
        <ele>56.2</ele>
        <time>2023-05-25T11:53:47Z</time>
      </trkpt>
      <trkpt lat="49.18736" lon="-0.41371">
        <ele>56.6</ele>
        <time>2023-05-25T11:53:48Z</time>
      </trkpt>
      <trkpt lat="49.18736" lon="-0.41379">
        <ele>56.6</ele>
        <time>2023-05-25T11:53:49Z</time>
      </trkpt>
      <trkpt lat="49.18736" lon="-0.41387">
        <ele>56.8</ele>
        <time>2023-05-25T11:53:50Z</time>
      </trkpt>
      <trkpt lat="49.18736" lon="-0.41395">
        <ele>57</ele>
        <time>2023-05-25T11:53:51Z</time>
      </trkpt>
      <trkpt lat="49.18735" lon="-0.41403">
        <ele>57</ele>
        <time>2023-05-25T11:53:52Z</time>
      </trkpt>
      <trkpt lat="49.18735" lon="-0.41411">
        <ele>57.2</ele>
        <time>2023-05-25T11:53:53Z</time>
      </trkpt>
      <trkpt lat="49.18735" lon="-0.4142">
        <ele>57.4</ele>
        <time>2023-05-25T11:53:54Z</time>
      </trkpt>
      <trkpt lat="49.18735" lon="-0.41428">
        <ele>57.4</ele>
        <time>2023-05-25T11:53:55Z</time>
      </trkpt>
      <trkpt lat="49.18735" lon="-0.41437">
        <ele>57.4</ele>
        <time>2023-05-25T11:53:56Z</time>
      </trkpt>
      <trkpt lat="49.18735" lon="-0.41445">
        <ele>57.4</ele>
        <time>2023-05-25T11:53:57Z</time>
      </trkpt>
      <trkpt lat="49.18735" lon="-0.41454">
        <ele>57.2</ele>
        <time>2023-05-25T11:53:58Z</time>
      </trkpt>
      <trkpt lat="49.18734" lon="-0.41463">
        <ele>57.2</ele>
        <time>2023-05-25T11:53:59Z</time>
      </trkpt>
      <trkpt lat="49.18734" lon="-0.41472">
        <ele>57.2</ele>
        <time>2023-05-25T11:54:00Z</time>
      </trkpt>
      <trkpt lat="49.18734" lon="-0.4148">
        <ele>57.2</ele>
        <time>2023-05-25T11:54:01Z</time>
      </trkpt>
      <trkpt lat="49.18734" lon="-0.41489">
        <ele>57.2</ele>
        <time>2023-05-25T11:54:02Z</time>
      </trkpt>
      <trkpt lat="49.18734" lon="-0.41498">
        <ele>57.2</ele>
        <time>2023-05-25T11:54:03Z</time>
      </trkpt>
      <trkpt lat="49.18734" lon="-0.41507">
        <ele>57.2</ele>
        <time>2023-05-25T11:54:04Z</time>
      </trkpt>
      <trkpt lat="49.18733" lon="-0.41516">
        <ele>57</ele>
        <time>2023-05-25T11:54:05Z</time>
      </trkpt>
      <trkpt lat="49.18733" lon="-0.41525">
        <ele>57</ele>
        <time>2023-05-25T11:54:06Z</time>
      </trkpt>
      <trkpt lat="49.18733" lon="-0.41534">
        <ele>56.8</ele>
        <time>2023-05-25T11:54:07Z</time>
      </trkpt>
      <trkpt lat="49.18733" lon="-0.41543">
        <ele>56.8</ele>
        <time>2023-05-25T11:54:08Z</time>
      </trkpt>
      <trkpt lat="49.18733" lon="-0.41553">
        <ele>56.8</ele>
        <time>2023-05-25T11:54:09Z</time>
      </trkpt>
      <trkpt lat="49.18733" lon="-0.41562">
        <ele>56.6</ele>
        <time>2023-05-25T11:54:10Z</time>
      </trkpt>
      <trkpt lat="49.18733" lon="-0.41571">
        <ele>56.4</ele>
        <time>2023-05-25T11:54:11Z</time>
      </trkpt>
      <trkpt lat="49.18732" lon="-0.4158">
        <ele>56.2</ele>
        <time>2023-05-25T11:54:12Z</time>
      </trkpt>
      <trkpt lat="49.18732" lon="-0.4159">
        <ele>56.2</ele>
        <time>2023-05-25T11:54:13Z</time>
      </trkpt>
      <trkpt lat="49.18732" lon="-0.41599">
        <ele>56.2</ele>
        <time>2023-05-25T11:54:14Z</time>
      </trkpt>
      <trkpt lat="49.18732" lon="-0.41609">
        <ele>56.2</ele>
        <time>2023-05-25T11:54:15Z</time>
      </trkpt>
      <trkpt lat="49.18732" lon="-0.41618">
        <ele>56.2</ele>
        <time>2023-05-25T11:54:16Z</time>
      </trkpt>
      <trkpt lat="49.18732" lon="-0.41628">
        <ele>56.2</ele>
        <time>2023-05-25T11:54:17Z</time>
      </trkpt>
      <trkpt lat="49.18732" lon="-0.41637">
        <ele>56.2</ele>
        <time>2023-05-25T11:54:18Z</time>
      </trkpt>
      <trkpt lat="49.18731" lon="-0.41647">
        <ele>56.2</ele>
        <time>2023-05-25T11:54:19Z</time>
      </trkpt>
      <trkpt lat="49.18731" lon="-0.41656">
        <ele>56.2</ele>
        <time>2023-05-25T11:54:20Z</time>
      </trkpt>
      <trkpt lat="49.18731" lon="-0.41666">
        <ele>56.2</ele>
        <time>2023-05-25T11:54:21Z</time>
      </trkpt>
      <trkpt lat="49.18731" lon="-0.41676">
        <ele>56</ele>
        <time>2023-05-25T11:54:22Z</time>
      </trkpt>
      <trkpt lat="49.18731" lon="-0.41686">
        <ele>56</ele>
        <time>2023-05-25T11:54:23Z</time>
      </trkpt>
      <trkpt lat="49.1873" lon="-0.41696">
        <ele>56</ele>
        <time>2023-05-25T11:54:24Z</time>
      </trkpt>
      <trkpt lat="49.1873" lon="-0.41705">
        <ele>56</ele>
        <time>2023-05-25T11:54:25Z</time>
      </trkpt>
      <trkpt lat="49.1873" lon="-0.41715">
        <ele>56</ele>
        <time>2023-05-25T11:54:26Z</time>
      </trkpt>
      <trkpt lat="49.1873" lon="-0.41725">
        <ele>56</ele>
        <time>2023-05-25T11:54:27Z</time>
      </trkpt>
      <trkpt lat="49.18729" lon="-0.41735">
        <ele>56</ele>
        <time>2023-05-25T11:54:28Z</time>
      </trkpt>
      <trkpt lat="49.18729" lon="-0.41745">
        <ele>56</ele>
        <time>2023-05-25T11:54:29Z</time>
      </trkpt>
      <trkpt lat="49.18729" lon="-0.41755">
        <ele>56</ele>
        <time>2023-05-25T11:54:30Z</time>
      </trkpt>
      <trkpt lat="49.18729" lon="-0.41765">
        <ele>56</ele>
        <time>2023-05-25T11:54:31Z</time>
      </trkpt>
      <trkpt lat="49.18728" lon="-0.41776">
        <ele>56</ele>
        <time>2023-05-25T11:54:32Z</time>
      </trkpt>
      <trkpt lat="49.18728" lon="-0.41786">
        <ele>56</ele>
        <time>2023-05-25T11:54:33Z</time>
      </trkpt>
      <trkpt lat="49.18728" lon="-0.41796">
        <ele>56</ele>
        <time>2023-05-25T11:54:34Z</time>
      </trkpt>
      <trkpt lat="49.18728" lon="-0.41806">
        <ele>56</ele>
        <time>2023-05-25T11:54:35Z</time>
      </trkpt>
      <trkpt lat="49.18728" lon="-0.41816">
        <ele>56</ele>
        <time>2023-05-25T11:54:36Z</time>
      </trkpt>
      <trkpt lat="49.18727" lon="-0.41827">
        <ele>56</ele>
        <time>2023-05-25T11:54:37Z</time>
      </trkpt>
      <trkpt lat="49.18727" lon="-0.41837">
        <ele>56</ele>
        <time>2023-05-25T11:54:38Z</time>
      </trkpt>
      <trkpt lat="49.18727" lon="-0.41847">
        <ele>55.8</ele>
        <time>2023-05-25T11:54:39Z</time>
      </trkpt>
      <trkpt lat="49.18727" lon="-0.41858">
        <ele>55.6</ele>
        <time>2023-05-25T11:54:40Z</time>
      </trkpt>
      <trkpt lat="49.18727" lon="-0.41868">
        <ele>55.2</ele>
        <time>2023-05-25T11:54:41Z</time>
      </trkpt>
      <trkpt lat="49.18727" lon="-0.41879">
        <ele>55</ele>
        <time>2023-05-25T11:54:42Z</time>
      </trkpt>
      <trkpt lat="49.18726" lon="-0.41889">
        <ele>55</ele>
        <time>2023-05-25T11:54:43Z</time>
      </trkpt>
      <trkpt lat="49.18726" lon="-0.41899">
        <ele>54.6</ele>
        <time>2023-05-25T11:54:44Z</time>
      </trkpt>
      <trkpt lat="49.18726" lon="-0.4191">
        <ele>54.4</ele>
        <time>2023-05-25T11:54:45Z</time>
      </trkpt>
      <trkpt lat="49.18726" lon="-0.41921">
        <ele>54.2</ele>
        <time>2023-05-25T11:54:46Z</time>
      </trkpt>
      <trkpt lat="49.18726" lon="-0.41931">
        <ele>54.2</ele>
        <time>2023-05-25T11:54:47Z</time>
      </trkpt>
      <trkpt lat="49.18725" lon="-0.41942">
        <ele>54.2</ele>
        <time>2023-05-25T11:54:48Z</time>
      </trkpt>
      <trkpt lat="49.18725" lon="-0.41952">
        <ele>54.2</ele>
        <time>2023-05-25T11:54:49Z</time>
      </trkpt>
      <trkpt lat="49.18725" lon="-0.41963">
        <ele>54.4</ele>
        <time>2023-05-25T11:54:50Z</time>
      </trkpt>
      <trkpt lat="49.18725" lon="-0.41974">
        <ele>54.4</ele>
        <time>2023-05-25T11:54:51Z</time>
      </trkpt>
      <trkpt lat="49.18725" lon="-0.41985">
        <ele>54.4</ele>
        <time>2023-05-25T11:54:52Z</time>
      </trkpt>
      <trkpt lat="49.18725" lon="-0.41997">
        <ele>54.6</ele>
        <time>2023-05-25T11:54:53Z</time>
      </trkpt>
      <trkpt lat="49.18725" lon="-0.42009">
        <ele>54.4</ele>
        <time>2023-05-25T11:54:54Z</time>
      </trkpt>
      <trkpt lat="49.18725" lon="-0.4202">
        <ele>54.2</ele>
        <time>2023-05-25T11:54:55Z</time>
      </trkpt>
      <trkpt lat="49.18725" lon="-0.42032">
        <ele>54.2</ele>
        <time>2023-05-25T11:54:56Z</time>
      </trkpt>
      <trkpt lat="49.18725" lon="-0.42044">
        <ele>54</ele>
        <time>2023-05-25T11:54:57Z</time>
      </trkpt>
      <trkpt lat="49.18725" lon="-0.42056">
        <ele>54</ele>
        <time>2023-05-25T11:54:58Z</time>
      </trkpt>
      <trkpt lat="49.18725" lon="-0.42067">
        <ele>54</ele>
        <time>2023-05-25T11:54:59Z</time>
      </trkpt>
      <trkpt lat="49.18725" lon="-0.42077">
        <ele>53.8</ele>
        <time>2023-05-25T11:55:00Z</time>
      </trkpt>
      <trkpt lat="49.18725" lon="-0.42086">
        <ele>53.8</ele>
        <time>2023-05-25T11:55:01Z</time>
      </trkpt>
      <trkpt lat="49.18725" lon="-0.42094">
        <ele>53.8</ele>
        <time>2023-05-25T11:55:02Z</time>
      </trkpt>
      <trkpt lat="49.18725" lon="-0.42102">
        <ele>53.8</ele>
        <time>2023-05-25T11:55:03Z</time>
      </trkpt>
      <trkpt lat="49.18725" lon="-0.4211">
        <ele>53.8</ele>
        <time>2023-05-25T11:55:04Z</time>
      </trkpt>
      <trkpt lat="49.18725" lon="-0.42118">
        <ele>53.8</ele>
        <time>2023-05-25T11:55:05Z</time>
      </trkpt>
      <trkpt lat="49.18724" lon="-0.42128">
        <ele>53.8</ele>
        <time>2023-05-25T11:55:06Z</time>
      </trkpt>
      <trkpt lat="49.18724" lon="-0.42138">
        <ele>53.8</ele>
        <time>2023-05-25T11:55:07Z</time>
      </trkpt>
      <trkpt lat="49.18724" lon="-0.42147">
        <ele>53.8</ele>
        <time>2023-05-25T11:55:08Z</time>
      </trkpt>
      <trkpt lat="49.18724" lon="-0.42157">
        <ele>53.8</ele>
        <time>2023-05-25T11:55:09Z</time>
      </trkpt>
      <trkpt lat="49.18724" lon="-0.42167">
        <ele>53.8</ele>
        <time>2023-05-25T11:55:10Z</time>
      </trkpt>
      <trkpt lat="49.18724" lon="-0.42177">
        <ele>53.8</ele>
        <time>2023-05-25T11:55:11Z</time>
      </trkpt>
      <trkpt lat="49.18724" lon="-0.42188">
        <ele>53.8</ele>
        <time>2023-05-25T11:55:12Z</time>
      </trkpt>
      <trkpt lat="49.18724" lon="-0.42198">
        <ele>53.8</ele>
        <time>2023-05-25T11:55:13Z</time>
      </trkpt>
      <trkpt lat="49.18724" lon="-0.42209">
        <ele>53.8</ele>
        <time>2023-05-25T11:55:14Z</time>
      </trkpt>
      <trkpt lat="49.18724" lon="-0.4222">
        <ele>53.8</ele>
        <time>2023-05-25T11:55:15Z</time>
      </trkpt>
      <trkpt lat="49.18723" lon="-0.42231">
        <ele>53.8</ele>
        <time>2023-05-25T11:55:16Z</time>
      </trkpt>
      <trkpt lat="49.18723" lon="-0.42242">
        <ele>53.8</ele>
        <time>2023-05-25T11:55:17Z</time>
      </trkpt>
      <trkpt lat="49.18723" lon="-0.42254">
        <ele>53.8</ele>
        <time>2023-05-25T11:55:18Z</time>
      </trkpt>
      <trkpt lat="49.18722" lon="-0.42266">
        <ele>53.8</ele>
        <time>2023-05-25T11:55:19Z</time>
      </trkpt>
      <trkpt lat="49.18722" lon="-0.42278">
        <ele>53.8</ele>
        <time>2023-05-25T11:55:20Z</time>
      </trkpt>
      <trkpt lat="49.18722" lon="-0.42291">
        <ele>53.8</ele>
        <time>2023-05-25T11:55:21Z</time>
      </trkpt>
      <trkpt lat="49.18722" lon="-0.42303">
        <ele>53.8</ele>
        <time>2023-05-25T11:55:22Z</time>
      </trkpt>
      <trkpt lat="49.18722" lon="-0.42316">
        <ele>53.8</ele>
        <time>2023-05-25T11:55:23Z</time>
      </trkpt>
      <trkpt lat="49.18722" lon="-0.42329">
        <ele>53.8</ele>
        <time>2023-05-25T11:55:24Z</time>
      </trkpt>
      <trkpt lat="49.18721" lon="-0.42342">
        <ele>53.6</ele>
        <time>2023-05-25T11:55:25Z</time>
      </trkpt>
      <trkpt lat="49.18721" lon="-0.42356">
        <ele>53.6</ele>
        <time>2023-05-25T11:55:26Z</time>
      </trkpt>
      <trkpt lat="49.1872" lon="-0.42369">
        <ele>53.6</ele>
        <time>2023-05-25T11:55:27Z</time>
      </trkpt>
      <trkpt lat="49.18719" lon="-0.42382">
        <ele>53.4</ele>
        <time>2023-05-25T11:55:28Z</time>
      </trkpt>
      <trkpt lat="49.18719" lon="-0.42395">
        <ele>53.2</ele>
        <time>2023-05-25T11:55:29Z</time>
      </trkpt>
      <trkpt lat="49.18718" lon="-0.42408">
        <ele>53.2</ele>
        <time>2023-05-25T11:55:30Z</time>
      </trkpt>
      <trkpt lat="49.18718" lon="-0.42421">
        <ele>53.2</ele>
        <time>2023-05-25T11:55:31Z</time>
      </trkpt>
      <trkpt lat="49.18717" lon="-0.42434">
        <ele>53.4</ele>
        <time>2023-05-25T11:55:32Z</time>
      </trkpt>
      <trkpt lat="49.18717" lon="-0.42446">
        <ele>53.6</ele>
        <time>2023-05-25T11:55:33Z</time>
      </trkpt>
      <trkpt lat="49.18717" lon="-0.42459">
        <ele>53.6</ele>
        <time>2023-05-25T11:55:34Z</time>
      </trkpt>
      <trkpt lat="49.18717" lon="-0.42472">
        <ele>53.8</ele>
        <time>2023-05-25T11:55:35Z</time>
      </trkpt>
      <trkpt lat="49.18717" lon="-0.42484">
        <ele>54</ele>
        <time>2023-05-25T11:55:36Z</time>
      </trkpt>
      <trkpt lat="49.18717" lon="-0.42497">
        <ele>54</ele>
        <time>2023-05-25T11:55:37Z</time>
      </trkpt>
      <trkpt lat="49.18716" lon="-0.42509">
        <ele>54</ele>
        <time>2023-05-25T11:55:38Z</time>
      </trkpt>
      <trkpt lat="49.18716" lon="-0.42521">
        <ele>53.8</ele>
        <time>2023-05-25T11:55:39Z</time>
      </trkpt>
      <trkpt lat="49.18716" lon="-0.42533">
        <ele>53.8</ele>
        <time>2023-05-25T11:55:40Z</time>
      </trkpt>
      <trkpt lat="49.18715" lon="-0.42545">
        <ele>53.6</ele>
        <time>2023-05-25T11:55:41Z</time>
      </trkpt>
      <trkpt lat="49.18715" lon="-0.42557">
        <ele>53.4</ele>
        <time>2023-05-25T11:55:42Z</time>
      </trkpt>
      <trkpt lat="49.18714" lon="-0.42569">
        <ele>53.2</ele>
        <time>2023-05-25T11:55:43Z</time>
      </trkpt>
      <trkpt lat="49.18714" lon="-0.42581">
        <ele>53.2</ele>
        <time>2023-05-25T11:55:44Z</time>
      </trkpt>
      <trkpt lat="49.18713" lon="-0.42593">
        <ele>52.8</ele>
        <time>2023-05-25T11:55:45Z</time>
      </trkpt>
      <trkpt lat="49.18713" lon="-0.42605">
        <ele>52.4</ele>
        <time>2023-05-25T11:55:46Z</time>
      </trkpt>
      <trkpt lat="49.18712" lon="-0.42617">
        <ele>52</ele>
        <time>2023-05-25T11:55:47Z</time>
      </trkpt>
      <trkpt lat="49.18711" lon="-0.42629">
        <ele>51.6</ele>
        <time>2023-05-25T11:55:48Z</time>
      </trkpt>
      <trkpt lat="49.1871" lon="-0.42641">
        <ele>51</ele>
        <time>2023-05-25T11:55:49Z</time>
      </trkpt>
      <trkpt lat="49.18709" lon="-0.42653">
        <ele>50.6</ele>
        <time>2023-05-25T11:55:50Z</time>
      </trkpt>
      <trkpt lat="49.18708" lon="-0.42666">
        <ele>50</ele>
        <time>2023-05-25T11:55:51Z</time>
      </trkpt>
      <trkpt lat="49.18706" lon="-0.42678">
        <ele>49.6</ele>
        <time>2023-05-25T11:55:52Z</time>
      </trkpt>
      <trkpt lat="49.18704" lon="-0.42691">
        <ele>49.2</ele>
        <time>2023-05-25T11:55:53Z</time>
      </trkpt>
      <trkpt lat="49.18702" lon="-0.42703">
        <ele>48.8</ele>
        <time>2023-05-25T11:55:54Z</time>
      </trkpt>
      <trkpt lat="49.18699" lon="-0.42716">
        <ele>48.2</ele>
        <time>2023-05-25T11:55:55Z</time>
      </trkpt>
      <trkpt lat="49.18696" lon="-0.42728">
        <ele>48</ele>
        <time>2023-05-25T11:55:56Z</time>
      </trkpt>
      <trkpt lat="49.18694" lon="-0.4274">
        <ele>47.4</ele>
        <time>2023-05-25T11:55:57Z</time>
      </trkpt>
      <trkpt lat="49.18692" lon="-0.42753">
        <ele>47</ele>
        <time>2023-05-25T11:55:58Z</time>
      </trkpt>
      <trkpt lat="49.18689" lon="-0.42765">
        <ele>47</ele>
        <time>2023-05-25T11:55:59Z</time>
      </trkpt>
      <trkpt lat="49.18687" lon="-0.42777">
        <ele>47</ele>
        <time>2023-05-25T11:56:00Z</time>
      </trkpt>
      <trkpt lat="49.18685" lon="-0.42789">
        <ele>47</ele>
        <time>2023-05-25T11:56:01Z</time>
      </trkpt>
      <trkpt lat="49.18682" lon="-0.42801">
        <ele>47</ele>
        <time>2023-05-25T11:56:02Z</time>
      </trkpt>
      <trkpt lat="49.1868" lon="-0.42812">
        <ele>47</ele>
        <time>2023-05-25T11:56:03Z</time>
      </trkpt>
      <trkpt lat="49.18677" lon="-0.42823">
        <ele>47.2</ele>
        <time>2023-05-25T11:56:04Z</time>
      </trkpt>
      <trkpt lat="49.18675" lon="-0.42834">
        <ele>47.2</ele>
        <time>2023-05-25T11:56:05Z</time>
      </trkpt>
      <trkpt lat="49.18673" lon="-0.42845">
        <ele>47</ele>
        <time>2023-05-25T11:56:06Z</time>
      </trkpt>
      <trkpt lat="49.1867" lon="-0.42855">
        <ele>47</ele>
        <time>2023-05-25T11:56:07Z</time>
      </trkpt>
      <trkpt lat="49.18668" lon="-0.42866">
        <ele>46.8</ele>
        <time>2023-05-25T11:56:08Z</time>
      </trkpt>
      <trkpt lat="49.18666" lon="-0.42876">
        <ele>46.6</ele>
        <time>2023-05-25T11:56:09Z</time>
      </trkpt>
      <trkpt lat="49.18664" lon="-0.42886">
        <ele>46.4</ele>
        <time>2023-05-25T11:56:10Z</time>
      </trkpt>
      <trkpt lat="49.18662" lon="-0.42896">
        <ele>46.2</ele>
        <time>2023-05-25T11:56:11Z</time>
      </trkpt>
      <trkpt lat="49.1866" lon="-0.42906">
        <ele>46.2</ele>
        <time>2023-05-25T11:56:12Z</time>
      </trkpt>
      <trkpt lat="49.18657" lon="-0.42915">
        <ele>46.2</ele>
        <time>2023-05-25T11:56:13Z</time>
      </trkpt>
      <trkpt lat="49.18655" lon="-0.42925">
        <ele>46.2</ele>
        <time>2023-05-25T11:56:14Z</time>
      </trkpt>
      <trkpt lat="49.18653" lon="-0.42935">
        <ele>46.2</ele>
        <time>2023-05-25T11:56:15Z</time>
      </trkpt>
      <trkpt lat="49.18651" lon="-0.42945">
        <ele>46.4</ele>
        <time>2023-05-25T11:56:16Z</time>
      </trkpt>
      <trkpt lat="49.18649" lon="-0.42955">
        <ele>46.4</ele>
        <time>2023-05-25T11:56:17Z</time>
      </trkpt>
      <trkpt lat="49.18647" lon="-0.42965">
        <ele>46.6</ele>
        <time>2023-05-25T11:56:18Z</time>
      </trkpt>
      <trkpt lat="49.18646" lon="-0.42975">
        <ele>46.6</ele>
        <time>2023-05-25T11:56:19Z</time>
      </trkpt>
      <trkpt lat="49.18644" lon="-0.42985">
        <ele>46.6</ele>
        <time>2023-05-25T11:56:20Z</time>
      </trkpt>
      <trkpt lat="49.18642" lon="-0.42995">
        <ele>46.6</ele>
        <time>2023-05-25T11:56:21Z</time>
      </trkpt>
      <trkpt lat="49.18641" lon="-0.43004">
        <ele>46.8</ele>
        <time>2023-05-25T11:56:22Z</time>
      </trkpt>
      <trkpt lat="49.18641" lon="-0.43013">
        <ele>46.8</ele>
        <time>2023-05-25T11:56:23Z</time>
      </trkpt>
      <trkpt lat="49.1864" lon="-0.43021">
        <ele>47</ele>
        <time>2023-05-25T11:56:24Z</time>
      </trkpt>
      <trkpt lat="49.18639" lon="-0.43029">
        <ele>47</ele>
        <time>2023-05-25T11:56:25Z</time>
      </trkpt>
      <trkpt lat="49.18637" lon="-0.43037">
        <ele>47.2</ele>
        <time>2023-05-25T11:56:26Z</time>
      </trkpt>
      <trkpt lat="49.18634" lon="-0.43045">
        <ele>47.2</ele>
        <time>2023-05-25T11:56:27Z</time>
      </trkpt>
      <trkpt lat="49.18633" lon="-0.43054">
        <ele>47.6</ele>
        <time>2023-05-25T11:56:28Z</time>
      </trkpt>
      <trkpt lat="49.18631" lon="-0.43062">
        <ele>47.6</ele>
        <time>2023-05-25T11:56:29Z</time>
      </trkpt>
      <trkpt lat="49.18629" lon="-0.43071">
        <ele>47.8</ele>
        <time>2023-05-25T11:56:30Z</time>
      </trkpt>
      <trkpt lat="49.18627" lon="-0.4308">
        <ele>48</ele>
        <time>2023-05-25T11:56:31Z</time>
      </trkpt>
      <trkpt lat="49.18625" lon="-0.43088">
        <ele>48</ele>
        <time>2023-05-25T11:56:32Z</time>
      </trkpt>
      <trkpt lat="49.18623" lon="-0.43097">
        <ele>48</ele>
        <time>2023-05-25T11:56:33Z</time>
      </trkpt>
      <trkpt lat="49.18621" lon="-0.43105">
        <ele>48.2</ele>
        <time>2023-05-25T11:56:34Z</time>
      </trkpt>
      <trkpt lat="49.18619" lon="-0.43114">
        <ele>48.2</ele>
        <time>2023-05-25T11:56:35Z</time>
      </trkpt>
      <trkpt lat="49.18617" lon="-0.43122">
        <ele>48.4</ele>
        <time>2023-05-25T11:56:36Z</time>
      </trkpt>
      <trkpt lat="49.18616" lon="-0.43131">
        <ele>48.4</ele>
        <time>2023-05-25T11:56:37Z</time>
      </trkpt>
      <trkpt lat="49.18614" lon="-0.43139">
        <ele>48.6</ele>
        <time>2023-05-25T11:56:38Z</time>
      </trkpt>
      <trkpt lat="49.18612" lon="-0.43148">
        <ele>48.6</ele>
        <time>2023-05-25T11:56:39Z</time>
      </trkpt>
      <trkpt lat="49.1861" lon="-0.43156">
        <ele>48.6</ele>
        <time>2023-05-25T11:56:40Z</time>
      </trkpt>
      <trkpt lat="49.18608" lon="-0.43164">
        <ele>48.8</ele>
        <time>2023-05-25T11:56:41Z</time>
      </trkpt>
      <trkpt lat="49.18607" lon="-0.43173">
        <ele>48.8</ele>
        <time>2023-05-25T11:56:42Z</time>
      </trkpt>
      <trkpt lat="49.18605" lon="-0.43181">
        <ele>49</ele>
        <time>2023-05-25T11:56:43Z</time>
      </trkpt>
      <trkpt lat="49.18603" lon="-0.43189">
        <ele>49.2</ele>
        <time>2023-05-25T11:56:44Z</time>
      </trkpt>
      <trkpt lat="49.18601" lon="-0.43198">
        <ele>49.6</ele>
        <time>2023-05-25T11:56:45Z</time>
      </trkpt>
      <trkpt lat="49.18599" lon="-0.43206">
        <ele>49.8</ele>
        <time>2023-05-25T11:56:46Z</time>
      </trkpt>
      <trkpt lat="49.18597" lon="-0.43215">
        <ele>50</ele>
        <time>2023-05-25T11:56:47Z</time>
      </trkpt>
      <trkpt lat="49.18595" lon="-0.43223">
        <ele>50</ele>
        <time>2023-05-25T11:56:48Z</time>
      </trkpt>
      <trkpt lat="49.18593" lon="-0.43232">
        <ele>50.4</ele>
        <time>2023-05-25T11:56:49Z</time>
      </trkpt>
      <trkpt lat="49.18591" lon="-0.4324">
        <ele>50.6</ele>
        <time>2023-05-25T11:56:50Z</time>
      </trkpt>
      <trkpt lat="49.18589" lon="-0.43249">
        <ele>50.8</ele>
        <time>2023-05-25T11:56:51Z</time>
      </trkpt>
      <trkpt lat="49.18587" lon="-0.43258">
        <ele>51</ele>
        <time>2023-05-25T11:56:52Z</time>
      </trkpt>
      <trkpt lat="49.18585" lon="-0.43266">
        <ele>51</ele>
        <time>2023-05-25T11:56:53Z</time>
      </trkpt>
      <trkpt lat="49.18583" lon="-0.43275">
        <ele>51.2</ele>
        <time>2023-05-25T11:56:54Z</time>
      </trkpt>
      <trkpt lat="49.18581" lon="-0.43284">
        <ele>51.4</ele>
        <time>2023-05-25T11:56:55Z</time>
      </trkpt>
      <trkpt lat="49.1858" lon="-0.43293">
        <ele>51.6</ele>
        <time>2023-05-25T11:56:56Z</time>
      </trkpt>
      <trkpt lat="49.18578" lon="-0.43301">
        <ele>51.8</ele>
        <time>2023-05-25T11:56:57Z</time>
      </trkpt>
      <trkpt lat="49.18575" lon="-0.4331">
        <ele>51.8</ele>
        <time>2023-05-25T11:56:58Z</time>
      </trkpt>
      <trkpt lat="49.18574" lon="-0.43319">
        <ele>52</ele>
        <time>2023-05-25T11:56:59Z</time>
      </trkpt>
      <trkpt lat="49.18572" lon="-0.43328">
        <ele>52</ele>
        <time>2023-05-25T11:57:00Z</time>
      </trkpt>
      <trkpt lat="49.1857" lon="-0.43337">
        <ele>52.2</ele>
        <time>2023-05-25T11:57:01Z</time>
      </trkpt>
      <trkpt lat="49.18568" lon="-0.43346">
        <ele>52.2</ele>
        <time>2023-05-25T11:57:02Z</time>
      </trkpt>
      <trkpt lat="49.18566" lon="-0.43355">
        <ele>52.2</ele>
        <time>2023-05-25T11:57:03Z</time>
      </trkpt>
      <trkpt lat="49.18565" lon="-0.43364">
        <ele>52.2</ele>
        <time>2023-05-25T11:57:04Z</time>
      </trkpt>
      <trkpt lat="49.18563" lon="-0.43373">
        <ele>52.4</ele>
        <time>2023-05-25T11:57:05Z</time>
      </trkpt>
      <trkpt lat="49.18562" lon="-0.43382">
        <ele>52.4</ele>
        <time>2023-05-25T11:57:06Z</time>
      </trkpt>
      <trkpt lat="49.1856" lon="-0.43391">
        <ele>52.6</ele>
        <time>2023-05-25T11:57:07Z</time>
      </trkpt>
      <trkpt lat="49.18559" lon="-0.434">
        <ele>52.6</ele>
        <time>2023-05-25T11:57:08Z</time>
      </trkpt>
      <trkpt lat="49.18557" lon="-0.43409">
        <ele>52.6</ele>
        <time>2023-05-25T11:57:09Z</time>
      </trkpt>
      <trkpt lat="49.18556" lon="-0.43417">
        <ele>52.8</ele>
        <time>2023-05-25T11:57:10Z</time>
      </trkpt>
      <trkpt lat="49.18554" lon="-0.43426">
        <ele>52.8</ele>
        <time>2023-05-25T11:57:11Z</time>
      </trkpt>
      <trkpt lat="49.18552" lon="-0.43435">
        <ele>52.8</ele>
        <time>2023-05-25T11:57:12Z</time>
      </trkpt>
      <trkpt lat="49.18551" lon="-0.43443">
        <ele>52.8</ele>
        <time>2023-05-25T11:57:13Z</time>
      </trkpt>
      <trkpt lat="49.18549" lon="-0.43451">
        <ele>52.8</ele>
        <time>2023-05-25T11:57:14Z</time>
      </trkpt>
      <trkpt lat="49.1855" lon="-0.43459">
        <ele>52.8</ele>
        <time>2023-05-25T11:57:15Z</time>
      </trkpt>
      <trkpt lat="49.1855" lon="-0.43466">
        <ele>52.8</ele>
        <time>2023-05-25T11:57:16Z</time>
      </trkpt>
      <trkpt lat="49.18549" lon="-0.43474">
        <ele>52.8</ele>
        <time>2023-05-25T11:57:17Z</time>
      </trkpt>
      <trkpt lat="49.18546" lon="-0.43482">
        <ele>53</ele>
        <time>2023-05-25T11:57:18Z</time>
      </trkpt>
      <trkpt lat="49.18543" lon="-0.43489">
        <ele>53</ele>
        <time>2023-05-25T11:57:19Z</time>
      </trkpt>
      <trkpt lat="49.1854" lon="-0.43496">
        <ele>53</ele>
        <time>2023-05-25T11:57:20Z</time>
      </trkpt>
      <trkpt lat="49.18538" lon="-0.43503">
        <ele>53</ele>
        <time>2023-05-25T11:57:21Z</time>
      </trkpt>
      <trkpt lat="49.18535" lon="-0.4351">
        <ele>53.2</ele>
        <time>2023-05-25T11:57:22Z</time>
      </trkpt>
      <trkpt lat="49.18532" lon="-0.43518">
        <ele>53.2</ele>
        <time>2023-05-25T11:57:23Z</time>
      </trkpt>
      <trkpt lat="49.1853" lon="-0.43525">
        <ele>53.4</ele>
        <time>2023-05-25T11:57:24Z</time>
      </trkpt>
      <trkpt lat="49.18527" lon="-0.43533">
        <ele>53.6</ele>
        <time>2023-05-25T11:57:25Z</time>
      </trkpt>
      <trkpt lat="49.18525" lon="-0.43541">
        <ele>53.6</ele>
        <time>2023-05-25T11:57:26Z</time>
      </trkpt>
      <trkpt lat="49.18522" lon="-0.43548">
        <ele>53.8</ele>
        <time>2023-05-25T11:57:27Z</time>
      </trkpt>
      <trkpt lat="49.18519" lon="-0.43556">
        <ele>54</ele>
        <time>2023-05-25T11:57:28Z</time>
      </trkpt>
      <trkpt lat="49.18516" lon="-0.43564">
        <ele>54</ele>
        <time>2023-05-25T11:57:29Z</time>
      </trkpt>
      <trkpt lat="49.18513" lon="-0.43571">
        <ele>54.2</ele>
        <time>2023-05-25T11:57:30Z</time>
      </trkpt>
      <trkpt lat="49.1851" lon="-0.43579">
        <ele>54.6</ele>
        <time>2023-05-25T11:57:31Z</time>
      </trkpt>
      <trkpt lat="49.18507" lon="-0.43586">
        <ele>54.6</ele>
        <time>2023-05-25T11:57:32Z</time>
      </trkpt>
      <trkpt lat="49.18504" lon="-0.43594">
        <ele>54.6</ele>
        <time>2023-05-25T11:57:33Z</time>
      </trkpt>
      <trkpt lat="49.18501" lon="-0.43602">
        <ele>54.6</ele>
        <time>2023-05-25T11:57:34Z</time>
      </trkpt>
      <trkpt lat="49.18498" lon="-0.43611">
        <ele>54.4</ele>
        <time>2023-05-25T11:57:35Z</time>
      </trkpt>
      <trkpt lat="49.18496" lon="-0.43619">
        <ele>54.2</ele>
        <time>2023-05-25T11:57:36Z</time>
      </trkpt>
      <trkpt lat="49.18493" lon="-0.43627">
        <ele>54</ele>
        <time>2023-05-25T11:57:37Z</time>
      </trkpt>
      <trkpt lat="49.1849" lon="-0.43635">
        <ele>54</ele>
        <time>2023-05-25T11:57:38Z</time>
      </trkpt>
      <trkpt lat="49.18487" lon="-0.43643">
        <ele>54</ele>
        <time>2023-05-25T11:57:39Z</time>
      </trkpt>
      <trkpt lat="49.18484" lon="-0.43652">
        <ele>53.8</ele>
        <time>2023-05-25T11:57:40Z</time>
      </trkpt>
      <trkpt lat="49.18481" lon="-0.4366">
        <ele>53.8</ele>
        <time>2023-05-25T11:57:41Z</time>
      </trkpt>
      <trkpt lat="49.18478" lon="-0.43668">
        <ele>53.8</ele>
        <time>2023-05-25T11:57:42Z</time>
      </trkpt>
      <trkpt lat="49.18476" lon="-0.43676">
        <ele>53.8</ele>
        <time>2023-05-25T11:57:43Z</time>
      </trkpt>
      <trkpt lat="49.18473" lon="-0.43684">
        <ele>54</ele>
        <time>2023-05-25T11:57:44Z</time>
      </trkpt>
      <trkpt lat="49.18469" lon="-0.43692">
        <ele>54</ele>
        <time>2023-05-25T11:57:45Z</time>
      </trkpt>
      <trkpt lat="49.18466" lon="-0.43699">
        <ele>54</ele>
        <time>2023-05-25T11:57:46Z</time>
      </trkpt>
      <trkpt lat="49.18463" lon="-0.43707">
        <ele>54</ele>
        <time>2023-05-25T11:57:47Z</time>
      </trkpt>
      <trkpt lat="49.1846" lon="-0.43715">
        <ele>54.2</ele>
        <time>2023-05-25T11:57:48Z</time>
      </trkpt>
      <trkpt lat="49.18457" lon="-0.43722">
        <ele>54.2</ele>
        <time>2023-05-25T11:57:49Z</time>
      </trkpt>
      <trkpt lat="49.18454" lon="-0.4373">
        <ele>54.2</ele>
        <time>2023-05-25T11:57:50Z</time>
      </trkpt>
      <trkpt lat="49.18451" lon="-0.43737">
        <ele>54.2</ele>
        <time>2023-05-25T11:57:51Z</time>
      </trkpt>
      <trkpt lat="49.18447" lon="-0.43744">
        <ele>54.2</ele>
        <time>2023-05-25T11:57:52Z</time>
      </trkpt>
      <trkpt lat="49.18443" lon="-0.43751">
        <ele>54.4</ele>
        <time>2023-05-25T11:57:53Z</time>
      </trkpt>
      <trkpt lat="49.1844" lon="-0.43758">
        <ele>54.6</ele>
        <time>2023-05-25T11:57:54Z</time>
      </trkpt>
      <trkpt lat="49.18436" lon="-0.43765">
        <ele>54.8</ele>
        <time>2023-05-25T11:57:55Z</time>
      </trkpt>
      <trkpt lat="49.18433" lon="-0.43772">
        <ele>54.8</ele>
        <time>2023-05-25T11:57:56Z</time>
      </trkpt>
      <trkpt lat="49.1843" lon="-0.4378">
        <ele>55</ele>
        <time>2023-05-25T11:57:57Z</time>
      </trkpt>
      <trkpt lat="49.18426" lon="-0.43788">
        <ele>55.2</ele>
        <time>2023-05-25T11:57:58Z</time>
      </trkpt>
      <trkpt lat="49.18423" lon="-0.43795">
        <ele>55.2</ele>
        <time>2023-05-25T11:57:59Z</time>
      </trkpt>
      <trkpt lat="49.1842" lon="-0.43803">
        <ele>55.6</ele>
        <time>2023-05-25T11:58:00Z</time>
      </trkpt>
      <trkpt lat="49.18417" lon="-0.4381">
        <ele>55.8</ele>
        <time>2023-05-25T11:58:01Z</time>
      </trkpt>
      <trkpt lat="49.18414" lon="-0.43818">
        <ele>55.8</ele>
        <time>2023-05-25T11:58:02Z</time>
      </trkpt>
      <trkpt lat="49.18411" lon="-0.43826">
        <ele>56</ele>
        <time>2023-05-25T11:58:03Z</time>
      </trkpt>
      <trkpt lat="49.18408" lon="-0.43834">
        <ele>56</ele>
        <time>2023-05-25T11:58:04Z</time>
      </trkpt>
      <trkpt lat="49.18405" lon="-0.43842">
        <ele>56</ele>
        <time>2023-05-25T11:58:05Z</time>
      </trkpt>
      <trkpt lat="49.18402" lon="-0.4385">
        <ele>56</ele>
        <time>2023-05-25T11:58:06Z</time>
      </trkpt>
      <trkpt lat="49.18399" lon="-0.43858">
        <ele>56</ele>
        <time>2023-05-25T11:58:07Z</time>
      </trkpt>
      <trkpt lat="49.18396" lon="-0.43866">
        <ele>56</ele>
        <time>2023-05-25T11:58:08Z</time>
      </trkpt>
      <trkpt lat="49.18394" lon="-0.43874">
        <ele>56</ele>
        <time>2023-05-25T11:58:09Z</time>
      </trkpt>
      <trkpt lat="49.18391" lon="-0.43882">
        <ele>56.2</ele>
        <time>2023-05-25T11:58:10Z</time>
      </trkpt>
      <trkpt lat="49.18389" lon="-0.4389">
        <ele>56.2</ele>
        <time>2023-05-25T11:58:11Z</time>
      </trkpt>
      <trkpt lat="49.18386" lon="-0.43898">
        <ele>56.2</ele>
        <time>2023-05-25T11:58:12Z</time>
      </trkpt>
      <trkpt lat="49.18384" lon="-0.43906">
        <ele>56.2</ele>
        <time>2023-05-25T11:58:13Z</time>
      </trkpt>
      <trkpt lat="49.18381" lon="-0.43915">
        <ele>56.4</ele>
        <time>2023-05-25T11:58:14Z</time>
      </trkpt>
      <trkpt lat="49.18379" lon="-0.43923">
        <ele>56.6</ele>
        <time>2023-05-25T11:58:15Z</time>
      </trkpt>
      <trkpt lat="49.18376" lon="-0.43931">
        <ele>56.6</ele>
        <time>2023-05-25T11:58:16Z</time>
      </trkpt>
      <trkpt lat="49.18374" lon="-0.43939">
        <ele>56.6</ele>
        <time>2023-05-25T11:58:17Z</time>
      </trkpt>
      <trkpt lat="49.18371" lon="-0.43947">
        <ele>56.6</ele>
        <time>2023-05-25T11:58:18Z</time>
      </trkpt>
      <trkpt lat="49.18369" lon="-0.43954">
        <ele>56.6</ele>
        <time>2023-05-25T11:58:19Z</time>
      </trkpt>
      <trkpt lat="49.18367" lon="-0.43962">
        <ele>56.6</ele>
        <time>2023-05-25T11:58:20Z</time>
      </trkpt>
      <trkpt lat="49.18364" lon="-0.4397">
        <ele>56.6</ele>
        <time>2023-05-25T11:58:21Z</time>
      </trkpt>
      <trkpt lat="49.18361" lon="-0.43978">
        <ele>56.8</ele>
        <time>2023-05-25T11:58:22Z</time>
      </trkpt>
      <trkpt lat="49.18359" lon="-0.43985">
        <ele>56.8</ele>
        <time>2023-05-25T11:58:23Z</time>
      </trkpt>
      <trkpt lat="49.18357" lon="-0.43993">
        <ele>56.8</ele>
        <time>2023-05-25T11:58:24Z</time>
      </trkpt>
      <trkpt lat="49.18354" lon="-0.44001">
        <ele>56.8</ele>
        <time>2023-05-25T11:58:25Z</time>
      </trkpt>
      <trkpt lat="49.18352" lon="-0.44009">
        <ele>56.8</ele>
        <time>2023-05-25T11:58:26Z</time>
      </trkpt>
      <trkpt lat="49.1835" lon="-0.44018">
        <ele>57</ele>
        <time>2023-05-25T11:58:27Z</time>
      </trkpt>
      <trkpt lat="49.18348" lon="-0.44026">
        <ele>57</ele>
        <time>2023-05-25T11:58:28Z</time>
      </trkpt>
      <trkpt lat="49.18346" lon="-0.44035">
        <ele>57</ele>
        <time>2023-05-25T11:58:29Z</time>
      </trkpt>
      <trkpt lat="49.18345" lon="-0.44043">
        <ele>57.2</ele>
        <time>2023-05-25T11:58:30Z</time>
      </trkpt>
      <trkpt lat="49.18344" lon="-0.44052">
        <ele>57.2</ele>
        <time>2023-05-25T11:58:31Z</time>
      </trkpt>
      <trkpt lat="49.18343" lon="-0.44061">
        <ele>57.4</ele>
        <time>2023-05-25T11:58:32Z</time>
      </trkpt>
      <trkpt lat="49.18343" lon="-0.44069">
        <ele>57.6</ele>
        <time>2023-05-25T11:58:33Z</time>
      </trkpt>
      <trkpt lat="49.18342" lon="-0.44078">
        <ele>57.6</ele>
        <time>2023-05-25T11:58:34Z</time>
      </trkpt>
      <trkpt lat="49.18342" lon="-0.44088">
        <ele>57.8</ele>
        <time>2023-05-25T11:58:35Z</time>
      </trkpt>
      <trkpt lat="49.18342" lon="-0.44097">
        <ele>57.8</ele>
        <time>2023-05-25T11:58:36Z</time>
      </trkpt>
      <trkpt lat="49.18342" lon="-0.44106">
        <ele>57.8</ele>
        <time>2023-05-25T11:58:37Z</time>
      </trkpt>
      <trkpt lat="49.18342" lon="-0.44115">
        <ele>57.8</ele>
        <time>2023-05-25T11:58:38Z</time>
      </trkpt>
      <trkpt lat="49.18342" lon="-0.44125">
        <ele>57.8</ele>
        <time>2023-05-25T11:58:39Z</time>
      </trkpt>
      <trkpt lat="49.18342" lon="-0.44135">
        <ele>57.8</ele>
        <time>2023-05-25T11:58:40Z</time>
      </trkpt>
      <trkpt lat="49.18342" lon="-0.44144">
        <ele>57.8</ele>
        <time>2023-05-25T11:58:41Z</time>
      </trkpt>
      <trkpt lat="49.18343" lon="-0.44154">
        <ele>58</ele>
        <time>2023-05-25T11:58:42Z</time>
      </trkpt>
      <trkpt lat="49.18343" lon="-0.44163">
        <ele>58</ele>
        <time>2023-05-25T11:58:43Z</time>
      </trkpt>
      <trkpt lat="49.18344" lon="-0.44173">
        <ele>58</ele>
        <time>2023-05-25T11:58:44Z</time>
      </trkpt>
      <trkpt lat="49.18346" lon="-0.44183">
        <ele>57.8</ele>
        <time>2023-05-25T11:58:45Z</time>
      </trkpt>
      <trkpt lat="49.18347" lon="-0.44193">
        <ele>57.8</ele>
        <time>2023-05-25T11:58:46Z</time>
      </trkpt>
      <trkpt lat="49.18348" lon="-0.44202">
        <ele>57.8</ele>
        <time>2023-05-25T11:58:47Z</time>
      </trkpt>
      <trkpt lat="49.18349" lon="-0.44212">
        <ele>57.8</ele>
        <time>2023-05-25T11:58:48Z</time>
      </trkpt>
      <trkpt lat="49.18351" lon="-0.44222">
        <ele>57.8</ele>
        <time>2023-05-25T11:58:49Z</time>
      </trkpt>
      <trkpt lat="49.18352" lon="-0.44231">
        <ele>57.6</ele>
        <time>2023-05-25T11:58:50Z</time>
      </trkpt>
      <trkpt lat="49.18353" lon="-0.44241">
        <ele>57.6</ele>
        <time>2023-05-25T11:58:51Z</time>
      </trkpt>
      <trkpt lat="49.18354" lon="-0.44251">
        <ele>57.6</ele>
        <time>2023-05-25T11:58:52Z</time>
      </trkpt>
      <trkpt lat="49.18356" lon="-0.44261">
        <ele>57.4</ele>
        <time>2023-05-25T11:58:53Z</time>
      </trkpt>
      <trkpt lat="49.18357" lon="-0.44271">
        <ele>57.2</ele>
        <time>2023-05-25T11:58:54Z</time>
      </trkpt>
      <trkpt lat="49.18358" lon="-0.4428">
        <ele>57.2</ele>
        <time>2023-05-25T11:58:55Z</time>
      </trkpt>
      <trkpt lat="49.1836" lon="-0.4429">
        <ele>57</ele>
        <time>2023-05-25T11:58:56Z</time>
      </trkpt>
      <trkpt lat="49.18363" lon="-0.44299">
        <ele>57</ele>
        <time>2023-05-25T11:58:57Z</time>
      </trkpt>
      <trkpt lat="49.18366" lon="-0.44307">
        <ele>56.8</ele>
        <time>2023-05-25T11:58:58Z</time>
      </trkpt>
      <trkpt lat="49.18369" lon="-0.44316">
        <ele>56.8</ele>
        <time>2023-05-25T11:58:59Z</time>
      </trkpt>
      <trkpt lat="49.18372" lon="-0.44325">
        <ele>56.6</ele>
        <time>2023-05-25T11:59:00Z</time>
      </trkpt>
      <trkpt lat="49.18374" lon="-0.44333">
        <ele>56.6</ele>
        <time>2023-05-25T11:59:01Z</time>
      </trkpt>
      <trkpt lat="49.18375" lon="-0.4434">
        <ele>56.6</ele>
        <time>2023-05-25T11:59:02Z</time>
      </trkpt>
      <trkpt lat="49.18377" lon="-0.44345">
        <ele>56.6</ele>
        <time>2023-05-25T11:59:03Z</time>
      </trkpt>
      <trkpt lat="49.18377" lon="-0.44349">
        <ele>56.6</ele>
        <time>2023-05-25T11:59:04Z</time>
      </trkpt>
      <trkpt lat="49.18377" lon="-0.44353">
        <ele>56.6</ele>
        <time>2023-05-25T11:59:05Z</time>
      </trkpt>
      <trkpt lat="49.18377" lon="-0.44356">
        <ele>56.6</ele>
        <time>2023-05-25T11:59:06Z</time>
      </trkpt>
      <trkpt lat="49.18377" lon="-0.4436">
        <ele>56.6</ele>
        <time>2023-05-25T11:59:07Z</time>
      </trkpt>
      <trkpt lat="49.18377" lon="-0.44365">
        <ele>56.8</ele>
        <time>2023-05-25T11:59:08Z</time>
      </trkpt>
      <trkpt lat="49.18377" lon="-0.4437">
        <ele>56.8</ele>
        <time>2023-05-25T11:59:09Z</time>
      </trkpt>
      <trkpt lat="49.18376" lon="-0.44377">
        <ele>56.8</ele>
        <time>2023-05-25T11:59:10Z</time>
      </trkpt>
      <trkpt lat="49.18376" lon="-0.44384">
        <ele>56.8</ele>
        <time>2023-05-25T11:59:11Z</time>
      </trkpt>
      <trkpt lat="49.18376" lon="-0.44391">
        <ele>56.8</ele>
        <time>2023-05-25T11:59:12Z</time>
      </trkpt>
      <trkpt lat="49.18377" lon="-0.44399">
        <ele>57</ele>
        <time>2023-05-25T11:59:13Z</time>
      </trkpt>
      <trkpt lat="49.18377" lon="-0.44408">
        <ele>57</ele>
        <time>2023-05-25T11:59:14Z</time>
      </trkpt>
      <trkpt lat="49.18378" lon="-0.44416">
        <ele>57</ele>
        <time>2023-05-25T11:59:15Z</time>
      </trkpt>
      <trkpt lat="49.18378" lon="-0.44424">
        <ele>57.2</ele>
        <time>2023-05-25T11:59:16Z</time>
      </trkpt>
      <trkpt lat="49.18379" lon="-0.44433">
        <ele>57.4</ele>
        <time>2023-05-25T11:59:17Z</time>
      </trkpt>
      <trkpt lat="49.1838" lon="-0.44442">
        <ele>57.6</ele>
        <time>2023-05-25T11:59:18Z</time>
      </trkpt>
      <trkpt lat="49.18381" lon="-0.44451">
        <ele>57.8</ele>
        <time>2023-05-25T11:59:19Z</time>
      </trkpt>
      <trkpt lat="49.18382" lon="-0.44459">
        <ele>58</ele>
        <time>2023-05-25T11:59:20Z</time>
      </trkpt>
      <trkpt lat="49.18383" lon="-0.44468">
        <ele>58.2</ele>
        <time>2023-05-25T11:59:21Z</time>
      </trkpt>
      <trkpt lat="49.18384" lon="-0.44477">
        <ele>58.4</ele>
        <time>2023-05-25T11:59:22Z</time>
      </trkpt>
      <trkpt lat="49.18386" lon="-0.44486">
        <ele>58.8</ele>
        <time>2023-05-25T11:59:23Z</time>
      </trkpt>
      <trkpt lat="49.18387" lon="-0.44494">
        <ele>59</ele>
        <time>2023-05-25T11:59:24Z</time>
      </trkpt>
      <trkpt lat="49.18387" lon="-0.44503">
        <ele>59</ele>
        <time>2023-05-25T11:59:25Z</time>
      </trkpt>
      <trkpt lat="49.18388" lon="-0.44511">
        <ele>59</ele>
        <time>2023-05-25T11:59:26Z</time>
      </trkpt>
      <trkpt lat="49.18389" lon="-0.4452">
        <ele>59</ele>
        <time>2023-05-25T11:59:27Z</time>
      </trkpt>
      <trkpt lat="49.1839" lon="-0.44529">
        <ele>59</ele>
        <time>2023-05-25T11:59:28Z</time>
      </trkpt>
      <trkpt lat="49.18391" lon="-0.44537">
        <ele>59</ele>
        <time>2023-05-25T11:59:29Z</time>
      </trkpt>
      <trkpt lat="49.18392" lon="-0.44545">
        <ele>59</ele>
        <time>2023-05-25T11:59:30Z</time>
      </trkpt>
      <trkpt lat="49.18393" lon="-0.44554">
        <ele>59</ele>
        <time>2023-05-25T11:59:31Z</time>
      </trkpt>
      <trkpt lat="49.18394" lon="-0.44562">
        <ele>59</ele>
        <time>2023-05-25T11:59:32Z</time>
      </trkpt>
      <trkpt lat="49.18394" lon="-0.4457">
        <ele>59</ele>
        <time>2023-05-25T11:59:33Z</time>
      </trkpt>
      <trkpt lat="49.18395" lon="-0.44578">
        <ele>59</ele>
        <time>2023-05-25T11:59:34Z</time>
      </trkpt>
      <trkpt lat="49.18396" lon="-0.44587">
        <ele>59</ele>
        <time>2023-05-25T11:59:35Z</time>
      </trkpt>
      <trkpt lat="49.18397" lon="-0.44595">
        <ele>59</ele>
        <time>2023-05-25T11:59:36Z</time>
      </trkpt>
      <trkpt lat="49.18397" lon="-0.44604">
        <ele>59</ele>
        <time>2023-05-25T11:59:37Z</time>
      </trkpt>
      <trkpt lat="49.18398" lon="-0.44613">
        <ele>58.8</ele>
        <time>2023-05-25T11:59:38Z</time>
      </trkpt>
      <trkpt lat="49.18398" lon="-0.44621">
        <ele>58.8</ele>
        <time>2023-05-25T11:59:39Z</time>
      </trkpt>
      <trkpt lat="49.18399" lon="-0.4463">
        <ele>58.8</ele>
        <time>2023-05-25T11:59:40Z</time>
      </trkpt>
      <trkpt lat="49.18401" lon="-0.44638">
        <ele>58.6</ele>
        <time>2023-05-25T11:59:41Z</time>
      </trkpt>
      <trkpt lat="49.18403" lon="-0.44646">
        <ele>58.6</ele>
        <time>2023-05-25T11:59:42Z</time>
      </trkpt>
      <trkpt lat="49.18406" lon="-0.44654">
        <ele>58.4</ele>
        <time>2023-05-25T11:59:43Z</time>
      </trkpt>
      <trkpt lat="49.18409" lon="-0.44662">
        <ele>58.2</ele>
        <time>2023-05-25T11:59:44Z</time>
      </trkpt>
      <trkpt lat="49.18411" lon="-0.4467">
        <ele>58.2</ele>
        <time>2023-05-25T11:59:45Z</time>
      </trkpt>
      <trkpt lat="49.18411" lon="-0.44678">
        <ele>58.2</ele>
        <time>2023-05-25T11:59:46Z</time>
      </trkpt>
      <trkpt lat="49.1841" lon="-0.44686">
        <ele>58.4</ele>
        <time>2023-05-25T11:59:47Z</time>
      </trkpt>
      <trkpt lat="49.1841" lon="-0.44695">
        <ele>58.6</ele>
        <time>2023-05-25T11:59:48Z</time>
      </trkpt>
      <trkpt lat="49.18409" lon="-0.44704">
        <ele>58.6</ele>
        <time>2023-05-25T11:59:49Z</time>
      </trkpt>
      <trkpt lat="49.18409" lon="-0.44713">
        <ele>58.8</ele>
        <time>2023-05-25T11:59:50Z</time>
      </trkpt>
      <trkpt lat="49.1841" lon="-0.44722">
        <ele>58.8</ele>
        <time>2023-05-25T11:59:51Z</time>
      </trkpt>
      <trkpt lat="49.18411" lon="-0.44731">
        <ele>58.8</ele>
        <time>2023-05-25T11:59:52Z</time>
      </trkpt>
      <trkpt lat="49.18412" lon="-0.44739">
        <ele>59</ele>
        <time>2023-05-25T11:59:53Z</time>
      </trkpt>
      <trkpt lat="49.18413" lon="-0.44748">
        <ele>59</ele>
        <time>2023-05-25T11:59:54Z</time>
      </trkpt>
      <trkpt lat="49.18414" lon="-0.44757">
        <ele>59</ele>
        <time>2023-05-25T11:59:55Z</time>
      </trkpt>
      <trkpt lat="49.18415" lon="-0.44765">
        <ele>59.2</ele>
        <time>2023-05-25T11:59:56Z</time>
      </trkpt>
      <trkpt lat="49.18416" lon="-0.44774">
        <ele>59.2</ele>
        <time>2023-05-25T11:59:57Z</time>
      </trkpt>
      <trkpt lat="49.18417" lon="-0.44783">
        <ele>59.4</ele>
        <time>2023-05-25T11:59:58Z</time>
      </trkpt>
      <trkpt lat="49.18418" lon="-0.44792">
        <ele>59.6</ele>
        <time>2023-05-25T11:59:59Z</time>
      </trkpt>
      <trkpt lat="49.18419" lon="-0.44801">
        <ele>59.6</ele>
        <time>2023-05-25T12:00:00Z</time>
      </trkpt>
      <trkpt lat="49.1842" lon="-0.4481">
        <ele>59.8</ele>
        <time>2023-05-25T12:00:01Z</time>
      </trkpt>
      <trkpt lat="49.1842" lon="-0.44819">
        <ele>59.8</ele>
        <time>2023-05-25T12:00:02Z</time>
      </trkpt>
      <trkpt lat="49.18421" lon="-0.44828">
        <ele>60</ele>
        <time>2023-05-25T12:00:03Z</time>
      </trkpt>
      <trkpt lat="49.18422" lon="-0.44837">
        <ele>60</ele>
        <time>2023-05-25T12:00:04Z</time>
      </trkpt>
      <trkpt lat="49.18423" lon="-0.44846">
        <ele>59.8</ele>
        <time>2023-05-25T12:00:05Z</time>
      </trkpt>
      <trkpt lat="49.18424" lon="-0.44855">
        <ele>59.6</ele>
        <time>2023-05-25T12:00:06Z</time>
      </trkpt>
      <trkpt lat="49.18425" lon="-0.44864">
        <ele>59.2</ele>
        <time>2023-05-25T12:00:07Z</time>
      </trkpt>
      <trkpt lat="49.18426" lon="-0.44873">
        <ele>59</ele>
        <time>2023-05-25T12:00:08Z</time>
      </trkpt>
      <trkpt lat="49.18427" lon="-0.4488">
        <ele>59</ele>
        <time>2023-05-25T12:00:09Z</time>
      </trkpt>
      <trkpt lat="49.18427" lon="-0.44887">
        <ele>58.8</ele>
        <time>2023-05-25T12:00:10Z</time>
      </trkpt>
      <trkpt lat="49.18427" lon="-0.44893">
        <ele>58.6</ele>
        <time>2023-05-25T12:00:11Z</time>
      </trkpt>
      <trkpt lat="49.18428" lon="-0.44898">
        <ele>58.4</ele>
        <time>2023-05-25T12:00:12Z</time>
      </trkpt>
      <trkpt lat="49.18428" lon="-0.44902">
        <ele>58.4</ele>
        <time>2023-05-25T12:00:13Z</time>
      </trkpt>
      <trkpt lat="49.18429" lon="-0.44905">
        <ele>58.2</ele>
        <time>2023-05-25T12:00:14Z</time>
      </trkpt>
      <trkpt lat="49.18429" lon="-0.4491">
        <ele>58.2</ele>
        <time>2023-05-25T12:00:15Z</time>
      </trkpt>
      <trkpt lat="49.18429" lon="-0.44915">
        <ele>58</ele>
        <time>2023-05-25T12:00:16Z</time>
      </trkpt>
      <trkpt lat="49.1843" lon="-0.44921">
        <ele>58</ele>
        <time>2023-05-25T12:00:17Z</time>
      </trkpt>
      <trkpt lat="49.1843" lon="-0.44928">
        <ele>58</ele>
        <time>2023-05-25T12:00:18Z</time>
      </trkpt>
      <trkpt lat="49.18431" lon="-0.44936">
        <ele>58</ele>
        <time>2023-05-25T12:00:19Z</time>
      </trkpt>
      <trkpt lat="49.18431" lon="-0.44943">
        <ele>58</ele>
        <time>2023-05-25T12:00:20Z</time>
      </trkpt>
      <trkpt lat="49.18432" lon="-0.44952">
        <ele>58</ele>
        <time>2023-05-25T12:00:21Z</time>
      </trkpt>
      <trkpt lat="49.18433" lon="-0.4496">
        <ele>58</ele>
        <time>2023-05-25T12:00:22Z</time>
      </trkpt>
      <trkpt lat="49.18434" lon="-0.44968">
        <ele>58</ele>
        <time>2023-05-25T12:00:23Z</time>
      </trkpt>
      <trkpt lat="49.18434" lon="-0.44977">
        <ele>58</ele>
        <time>2023-05-25T12:00:24Z</time>
      </trkpt>
      <trkpt lat="49.18435" lon="-0.44986">
        <ele>58</ele>
        <time>2023-05-25T12:00:25Z</time>
      </trkpt>
      <trkpt lat="49.18436" lon="-0.44995">
        <ele>58</ele>
        <time>2023-05-25T12:00:26Z</time>
      </trkpt>
      <trkpt lat="49.18437" lon="-0.45004">
        <ele>58</ele>
        <time>2023-05-25T12:00:27Z</time>
      </trkpt>
      <trkpt lat="49.18437" lon="-0.45013">
        <ele>58</ele>
        <time>2023-05-25T12:00:28Z</time>
      </trkpt>
      <trkpt lat="49.18438" lon="-0.45022">
        <ele>58</ele>
        <time>2023-05-25T12:00:29Z</time>
      </trkpt>
      <trkpt lat="49.18439" lon="-0.45031">
        <ele>58</ele>
        <time>2023-05-25T12:00:30Z</time>
      </trkpt>
      <trkpt lat="49.18439" lon="-0.45041">
        <ele>58</ele>
        <time>2023-05-25T12:00:31Z</time>
      </trkpt>
      <trkpt lat="49.1844" lon="-0.4505">
        <ele>58.2</ele>
        <time>2023-05-25T12:00:32Z</time>
      </trkpt>
      <trkpt lat="49.18441" lon="-0.4506">
        <ele>58.2</ele>
        <time>2023-05-25T12:00:33Z</time>
      </trkpt>
      <trkpt lat="49.18441" lon="-0.45069">
        <ele>58.2</ele>
        <time>2023-05-25T12:00:34Z</time>
      </trkpt>
      <trkpt lat="49.18442" lon="-0.45079">
        <ele>58.2</ele>
        <time>2023-05-25T12:00:35Z</time>
      </trkpt>
      <trkpt lat="49.18443" lon="-0.45088">
        <ele>58.4</ele>
        <time>2023-05-25T12:00:36Z</time>
      </trkpt>
      <trkpt lat="49.18443" lon="-0.45097">
        <ele>58.6</ele>
        <time>2023-05-25T12:00:37Z</time>
      </trkpt>
      <trkpt lat="49.18444" lon="-0.45107">
        <ele>58.6</ele>
        <time>2023-05-25T12:00:38Z</time>
      </trkpt>
      <trkpt lat="49.18445" lon="-0.45116">
        <ele>58.8</ele>
        <time>2023-05-25T12:00:39Z</time>
      </trkpt>
      <trkpt lat="49.18446" lon="-0.45126">
        <ele>59</ele>
        <time>2023-05-25T12:00:40Z</time>
      </trkpt>
      <trkpt lat="49.18446" lon="-0.45135">
        <ele>59</ele>
        <time>2023-05-25T12:00:41Z</time>
      </trkpt>
      <trkpt lat="49.18447" lon="-0.45144">
        <ele>59</ele>
        <time>2023-05-25T12:00:42Z</time>
      </trkpt>
      <trkpt lat="49.18448" lon="-0.45154">
        <ele>59.2</ele>
        <time>2023-05-25T12:00:43Z</time>
      </trkpt>
      <trkpt lat="49.18448" lon="-0.45163">
        <ele>59.2</ele>
        <time>2023-05-25T12:00:44Z</time>
      </trkpt>
      <trkpt lat="49.18449" lon="-0.45173">
        <ele>59.6</ele>
        <time>2023-05-25T12:00:45Z</time>
      </trkpt>
      <trkpt lat="49.18449" lon="-0.45183">
        <ele>59.8</ele>
        <time>2023-05-25T12:00:46Z</time>
      </trkpt>
      <trkpt lat="49.1845" lon="-0.45192">
        <ele>59.8</ele>
        <time>2023-05-25T12:00:47Z</time>
      </trkpt>
      <trkpt lat="49.18451" lon="-0.45202">
        <ele>60</ele>
        <time>2023-05-25T12:00:48Z</time>
      </trkpt>
      <trkpt lat="49.18451" lon="-0.45212">
        <ele>60.2</ele>
        <time>2023-05-25T12:00:49Z</time>
      </trkpt>
      <trkpt lat="49.18452" lon="-0.45221">
        <ele>60.4</ele>
        <time>2023-05-25T12:00:50Z</time>
      </trkpt>
      <trkpt lat="49.18453" lon="-0.45231">
        <ele>60.6</ele>
        <time>2023-05-25T12:00:51Z</time>
      </trkpt>
      <trkpt lat="49.18453" lon="-0.45241">
        <ele>60.8</ele>
        <time>2023-05-25T12:00:52Z</time>
      </trkpt>
      <trkpt lat="49.18454" lon="-0.4525">
        <ele>61</ele>
        <time>2023-05-25T12:00:53Z</time>
      </trkpt>
      <trkpt lat="49.18455" lon="-0.4526">
        <ele>61</ele>
        <time>2023-05-25T12:00:54Z</time>
      </trkpt>
      <trkpt lat="49.18456" lon="-0.4527">
        <ele>61.2</ele>
        <time>2023-05-25T12:00:55Z</time>
      </trkpt>
      <trkpt lat="49.18456" lon="-0.45279">
        <ele>61.2</ele>
        <time>2023-05-25T12:00:56Z</time>
      </trkpt>
      <trkpt lat="49.18457" lon="-0.45289">
        <ele>61.4</ele>
        <time>2023-05-25T12:00:57Z</time>
      </trkpt>
      <trkpt lat="49.18458" lon="-0.45298">
        <ele>61.6</ele>
        <time>2023-05-25T12:00:58Z</time>
      </trkpt>
      <trkpt lat="49.18458" lon="-0.45308">
        <ele>61.8</ele>
        <time>2023-05-25T12:00:59Z</time>
      </trkpt>
      <trkpt lat="49.18459" lon="-0.45317">
        <ele>61.8</ele>
        <time>2023-05-25T12:01:00Z</time>
      </trkpt>
      <trkpt lat="49.1846" lon="-0.45326">
        <ele>62</ele>
        <time>2023-05-25T12:01:01Z</time>
      </trkpt>
      <trkpt lat="49.1846" lon="-0.45335">
        <ele>62</ele>
        <time>2023-05-25T12:01:02Z</time>
      </trkpt>
      <trkpt lat="49.18461" lon="-0.45344">
        <ele>62</ele>
        <time>2023-05-25T12:01:03Z</time>
      </trkpt>
      <trkpt lat="49.18462" lon="-0.45353">
        <ele>61.8</ele>
        <time>2023-05-25T12:01:04Z</time>
      </trkpt>
      <trkpt lat="49.18462" lon="-0.45362">
        <ele>61.8</ele>
        <time>2023-05-25T12:01:05Z</time>
      </trkpt>
      <trkpt lat="49.18463" lon="-0.45371">
        <ele>61.8</ele>
        <time>2023-05-25T12:01:06Z</time>
      </trkpt>
      <trkpt lat="49.18464" lon="-0.4538">
        <ele>61.6</ele>
        <time>2023-05-25T12:01:07Z</time>
      </trkpt>
      <trkpt lat="49.18464" lon="-0.45389">
        <ele>61.6</ele>
        <time>2023-05-25T12:01:08Z</time>
      </trkpt>
      <trkpt lat="49.18465" lon="-0.45397">
        <ele>61.4</ele>
        <time>2023-05-25T12:01:09Z</time>
      </trkpt>
      <trkpt lat="49.18466" lon="-0.45406">
        <ele>61.2</ele>
        <time>2023-05-25T12:01:10Z</time>
      </trkpt>
      <trkpt lat="49.18466" lon="-0.45415">
        <ele>61.2</ele>
        <time>2023-05-25T12:01:11Z</time>
      </trkpt>
      <trkpt lat="49.18467" lon="-0.45423">
        <ele>61</ele>
        <time>2023-05-25T12:01:12Z</time>
      </trkpt>
      <trkpt lat="49.18467" lon="-0.45432">
        <ele>61</ele>
        <time>2023-05-25T12:01:13Z</time>
      </trkpt>
      <trkpt lat="49.18468" lon="-0.45441">
        <ele>60.8</ele>
        <time>2023-05-25T12:01:14Z</time>
      </trkpt>
      <trkpt lat="49.18468" lon="-0.45449">
        <ele>60.6</ele>
        <time>2023-05-25T12:01:15Z</time>
      </trkpt>
      <trkpt lat="49.18469" lon="-0.45458">
        <ele>60.4</ele>
        <time>2023-05-25T12:01:16Z</time>
      </trkpt>
      <trkpt lat="49.18469" lon="-0.45467">
        <ele>60.2</ele>
        <time>2023-05-25T12:01:17Z</time>
      </trkpt>
      <trkpt lat="49.18469" lon="-0.45475">
        <ele>60</ele>
        <time>2023-05-25T12:01:18Z</time>
      </trkpt>
      <trkpt lat="49.18469" lon="-0.45484">
        <ele>60</ele>
        <time>2023-05-25T12:01:19Z</time>
      </trkpt>
      <trkpt lat="49.18469" lon="-0.45492">
        <ele>59.8</ele>
        <time>2023-05-25T12:01:20Z</time>
      </trkpt>
      <trkpt lat="49.18469" lon="-0.45501">
        <ele>59.6</ele>
        <time>2023-05-25T12:01:21Z</time>
      </trkpt>
      <trkpt lat="49.18469" lon="-0.45509">
        <ele>59.8</ele>
        <time>2023-05-25T12:01:22Z</time>
      </trkpt>
      <trkpt lat="49.18469" lon="-0.45518">
        <ele>59.8</ele>
        <time>2023-05-25T12:01:23Z</time>
      </trkpt>
      <trkpt lat="49.18468" lon="-0.45526">
        <ele>59.8</ele>
        <time>2023-05-25T12:01:24Z</time>
      </trkpt>
      <trkpt lat="49.18468" lon="-0.45535">
        <ele>59.8</ele>
        <time>2023-05-25T12:01:25Z</time>
      </trkpt>
      <trkpt lat="49.18467" lon="-0.45544">
        <ele>59.8</ele>
        <time>2023-05-25T12:01:26Z</time>
      </trkpt>
      <trkpt lat="49.18467" lon="-0.45552">
        <ele>60</ele>
        <time>2023-05-25T12:01:27Z</time>
      </trkpt>
      <trkpt lat="49.18466" lon="-0.45561">
        <ele>60</ele>
        <time>2023-05-25T12:01:28Z</time>
      </trkpt>
      <trkpt lat="49.18465" lon="-0.45569">
        <ele>60</ele>
        <time>2023-05-25T12:01:29Z</time>
      </trkpt>
      <trkpt lat="49.18464" lon="-0.45578">
        <ele>60</ele>
        <time>2023-05-25T12:01:30Z</time>
      </trkpt>
      <trkpt lat="49.18463" lon="-0.45586">
        <ele>60</ele>
        <time>2023-05-25T12:01:31Z</time>
      </trkpt>
      <trkpt lat="49.18462" lon="-0.45595">
        <ele>60.2</ele>
        <time>2023-05-25T12:01:32Z</time>
      </trkpt>
      <trkpt lat="49.18461" lon="-0.45603">
        <ele>60.6</ele>
        <time>2023-05-25T12:01:33Z</time>
      </trkpt>
      <trkpt lat="49.1846" lon="-0.45611">
        <ele>60.8</ele>
        <time>2023-05-25T12:01:34Z</time>
      </trkpt>
      <trkpt lat="49.18459" lon="-0.45619">
        <ele>61</ele>
        <time>2023-05-25T12:01:35Z</time>
      </trkpt>
      <trkpt lat="49.18457" lon="-0.45627">
        <ele>61</ele>
        <time>2023-05-25T12:01:36Z</time>
      </trkpt>
      <trkpt lat="49.18456" lon="-0.45635">
        <ele>61.2</ele>
        <time>2023-05-25T12:01:37Z</time>
      </trkpt>
      <trkpt lat="49.18455" lon="-0.45643">
        <ele>61.4</ele>
        <time>2023-05-25T12:01:38Z</time>
      </trkpt>
      <trkpt lat="49.18453" lon="-0.45651">
        <ele>61.6</ele>
        <time>2023-05-25T12:01:39Z</time>
      </trkpt>
      <trkpt lat="49.18452" lon="-0.45659">
        <ele>61.8</ele>
        <time>2023-05-25T12:01:40Z</time>
      </trkpt>
      <trkpt lat="49.18451" lon="-0.45667">
        <ele>62</ele>
        <time>2023-05-25T12:01:41Z</time>
      </trkpt>
      <trkpt lat="49.18449" lon="-0.45675">
        <ele>62</ele>
        <time>2023-05-25T12:01:42Z</time>
      </trkpt>
      <trkpt lat="49.18448" lon="-0.45683">
        <ele>62</ele>
        <time>2023-05-25T12:01:43Z</time>
      </trkpt>
      <trkpt lat="49.18446" lon="-0.45691">
        <ele>62</ele>
        <time>2023-05-25T12:01:44Z</time>
      </trkpt>
      <trkpt lat="49.18445" lon="-0.45699">
        <ele>62</ele>
        <time>2023-05-25T12:01:45Z</time>
      </trkpt>
      <trkpt lat="49.18443" lon="-0.45707">
        <ele>61.8</ele>
        <time>2023-05-25T12:01:46Z</time>
      </trkpt>
      <trkpt lat="49.18442" lon="-0.45716">
        <ele>61.8</ele>
        <time>2023-05-25T12:01:47Z</time>
      </trkpt>
      <trkpt lat="49.1844" lon="-0.45724">
        <ele>61.8</ele>
        <time>2023-05-25T12:01:48Z</time>
      </trkpt>
      <trkpt lat="49.18439" lon="-0.45732">
        <ele>61.8</ele>
        <time>2023-05-25T12:01:49Z</time>
      </trkpt>
      <trkpt lat="49.18437" lon="-0.4574">
        <ele>61.8</ele>
        <time>2023-05-25T12:01:50Z</time>
      </trkpt>
      <trkpt lat="49.18435" lon="-0.45749">
        <ele>61.8</ele>
        <time>2023-05-25T12:01:51Z</time>
      </trkpt>
      <trkpt lat="49.18433" lon="-0.45757">
        <ele>62</ele>
        <time>2023-05-25T12:01:52Z</time>
      </trkpt>
      <trkpt lat="49.18432" lon="-0.45765">
        <ele>62.2</ele>
        <time>2023-05-25T12:01:53Z</time>
      </trkpt>
      <trkpt lat="49.1843" lon="-0.45774">
        <ele>62.6</ele>
        <time>2023-05-25T12:01:54Z</time>
      </trkpt>
      <trkpt lat="49.18428" lon="-0.45782">
        <ele>62.8</ele>
        <time>2023-05-25T12:01:55Z</time>
      </trkpt>
      <trkpt lat="49.18426" lon="-0.4579">
        <ele>63</ele>
        <time>2023-05-25T12:01:56Z</time>
      </trkpt>
      <trkpt lat="49.18424" lon="-0.45799">
        <ele>63.2</ele>
        <time>2023-05-25T12:01:57Z</time>
      </trkpt>
      <trkpt lat="49.18423" lon="-0.45807">
        <ele>63.4</ele>
        <time>2023-05-25T12:01:58Z</time>
      </trkpt>
      <trkpt lat="49.18421" lon="-0.45816">
        <ele>63.6</ele>
        <time>2023-05-25T12:01:59Z</time>
      </trkpt>
      <trkpt lat="49.18419" lon="-0.45824">
        <ele>63.8</ele>
        <time>2023-05-25T12:02:00Z</time>
      </trkpt>
      <trkpt lat="49.18417" lon="-0.45832">
        <ele>64</ele>
        <time>2023-05-25T12:02:01Z</time>
      </trkpt>
      <trkpt lat="49.18416" lon="-0.45841">
        <ele>64</ele>
        <time>2023-05-25T12:02:02Z</time>
      </trkpt>
      <trkpt lat="49.18414" lon="-0.45849">
        <ele>64</ele>
        <time>2023-05-25T12:02:03Z</time>
      </trkpt>
      <trkpt lat="49.18412" lon="-0.45857">
        <ele>64.2</ele>
        <time>2023-05-25T12:02:04Z</time>
      </trkpt>
      <trkpt lat="49.1841" lon="-0.45865">
        <ele>64.4</ele>
        <time>2023-05-25T12:02:05Z</time>
      </trkpt>
      <trkpt lat="49.18408" lon="-0.45874">
        <ele>64.4</ele>
        <time>2023-05-25T12:02:06Z</time>
      </trkpt>
      <trkpt lat="49.18407" lon="-0.45882">
        <ele>64.4</ele>
        <time>2023-05-25T12:02:07Z</time>
      </trkpt>
      <trkpt lat="49.18405" lon="-0.4589">
        <ele>64.4</ele>
        <time>2023-05-25T12:02:08Z</time>
      </trkpt>
      <trkpt lat="49.18403" lon="-0.45898">
        <ele>64.6</ele>
        <time>2023-05-25T12:02:09Z</time>
      </trkpt>
      <trkpt lat="49.18401" lon="-0.45907">
        <ele>64.6</ele>
        <time>2023-05-25T12:02:10Z</time>
      </trkpt>
      <trkpt lat="49.18399" lon="-0.45915">
        <ele>64.6</ele>
        <time>2023-05-25T12:02:11Z</time>
      </trkpt>
      <trkpt lat="49.18397" lon="-0.45924">
        <ele>64.6</ele>
        <time>2023-05-25T12:02:12Z</time>
      </trkpt>
      <trkpt lat="49.18396" lon="-0.45932">
        <ele>64.6</ele>
        <time>2023-05-25T12:02:13Z</time>
      </trkpt>
      <trkpt lat="49.18394" lon="-0.4594">
        <ele>64.6</ele>
        <time>2023-05-25T12:02:14Z</time>
      </trkpt>
      <trkpt lat="49.18392" lon="-0.45949">
        <ele>64.6</ele>
        <time>2023-05-25T12:02:15Z</time>
      </trkpt>
      <trkpt lat="49.1839" lon="-0.45957">
        <ele>64.6</ele>
        <time>2023-05-25T12:02:16Z</time>
      </trkpt>
      <trkpt lat="49.18389" lon="-0.45965">
        <ele>64.6</ele>
        <time>2023-05-25T12:02:17Z</time>
      </trkpt>
      <trkpt lat="49.18387" lon="-0.45974">
        <ele>64.6</ele>
        <time>2023-05-25T12:02:18Z</time>
      </trkpt>
      <trkpt lat="49.18385" lon="-0.45982">
        <ele>64.6</ele>
        <time>2023-05-25T12:02:19Z</time>
      </trkpt>
      <trkpt lat="49.18383" lon="-0.45991">
        <ele>64.6</ele>
        <time>2023-05-25T12:02:20Z</time>
      </trkpt>
      <trkpt lat="49.18382" lon="-0.45999">
        <ele>64.6</ele>
        <time>2023-05-25T12:02:21Z</time>
      </trkpt>
      <trkpt lat="49.1838" lon="-0.46008">
        <ele>64.6</ele>
        <time>2023-05-25T12:02:22Z</time>
      </trkpt>
      <trkpt lat="49.18378" lon="-0.46017">
        <ele>64.6</ele>
        <time>2023-05-25T12:02:23Z</time>
      </trkpt>
      <trkpt lat="49.18376" lon="-0.46026">
        <ele>64.6</ele>
        <time>2023-05-25T12:02:24Z</time>
      </trkpt>
      <trkpt lat="49.18374" lon="-0.46035">
        <ele>64.6</ele>
        <time>2023-05-25T12:02:25Z</time>
      </trkpt>
      <trkpt lat="49.18372" lon="-0.46044">
        <ele>64.6</ele>
        <time>2023-05-25T12:02:26Z</time>
      </trkpt>
      <trkpt lat="49.1837" lon="-0.46052">
        <ele>64.6</ele>
        <time>2023-05-25T12:02:27Z</time>
      </trkpt>
      <trkpt lat="49.18368" lon="-0.46062">
        <ele>64.6</ele>
        <time>2023-05-25T12:02:28Z</time>
      </trkpt>
      <trkpt lat="49.18367" lon="-0.46071">
        <ele>64.6</ele>
        <time>2023-05-25T12:02:29Z</time>
      </trkpt>
      <trkpt lat="49.18365" lon="-0.4608">
        <ele>64.6</ele>
        <time>2023-05-25T12:02:30Z</time>
      </trkpt>
      <trkpt lat="49.18363" lon="-0.46089">
        <ele>64.8</ele>
        <time>2023-05-25T12:02:31Z</time>
      </trkpt>
      <trkpt lat="49.18361" lon="-0.46098">
        <ele>65</ele>
        <time>2023-05-25T12:02:32Z</time>
      </trkpt>
      <trkpt lat="49.18359" lon="-0.46107">
        <ele>65</ele>
        <time>2023-05-25T12:02:33Z</time>
      </trkpt>
      <trkpt lat="49.18357" lon="-0.46116">
        <ele>65</ele>
        <time>2023-05-25T12:02:34Z</time>
      </trkpt>
      <trkpt lat="49.18355" lon="-0.46125">
        <ele>65.4</ele>
        <time>2023-05-25T12:02:35Z</time>
      </trkpt>
      <trkpt lat="49.18353" lon="-0.46134">
        <ele>65.4</ele>
        <time>2023-05-25T12:02:36Z</time>
      </trkpt>
      <trkpt lat="49.18351" lon="-0.46144">
        <ele>65.6</ele>
        <time>2023-05-25T12:02:37Z</time>
      </trkpt>
      <trkpt lat="49.18349" lon="-0.46153">
        <ele>65.6</ele>
        <time>2023-05-25T12:02:38Z</time>
      </trkpt>
      <trkpt lat="49.18348" lon="-0.46162">
        <ele>66</ele>
        <time>2023-05-25T12:02:39Z</time>
      </trkpt>
      <trkpt lat="49.18345" lon="-0.46171">
        <ele>66</ele>
        <time>2023-05-25T12:02:40Z</time>
      </trkpt>
      <trkpt lat="49.18344" lon="-0.4618">
        <ele>66</ele>
        <time>2023-05-25T12:02:41Z</time>
      </trkpt>
      <trkpt lat="49.18342" lon="-0.4619">
        <ele>66</ele>
        <time>2023-05-25T12:02:42Z</time>
      </trkpt>
      <trkpt lat="49.1834" lon="-0.46199">
        <ele>66</ele>
        <time>2023-05-25T12:02:43Z</time>
      </trkpt>
      <trkpt lat="49.18338" lon="-0.46208">
        <ele>66</ele>
        <time>2023-05-25T12:02:44Z</time>
      </trkpt>
      <trkpt lat="49.18336" lon="-0.46218">
        <ele>66</ele>
        <time>2023-05-25T12:02:45Z</time>
      </trkpt>
      <trkpt lat="49.18334" lon="-0.46227">
        <ele>66</ele>
        <time>2023-05-25T12:02:46Z</time>
      </trkpt>
      <trkpt lat="49.18332" lon="-0.46236">
        <ele>66</ele>
        <time>2023-05-25T12:02:47Z</time>
      </trkpt>
      <trkpt lat="49.1833" lon="-0.46245">
        <ele>66</ele>
        <time>2023-05-25T12:02:48Z</time>
      </trkpt>
      <trkpt lat="49.18328" lon="-0.46255">
        <ele>66</ele>
        <time>2023-05-25T12:02:49Z</time>
      </trkpt>
      <trkpt lat="49.18326" lon="-0.46264">
        <ele>66.4</ele>
        <time>2023-05-25T12:02:50Z</time>
      </trkpt>
      <trkpt lat="49.18324" lon="-0.46273">
        <ele>66.4</ele>
        <time>2023-05-25T12:02:51Z</time>
      </trkpt>
      <trkpt lat="49.18322" lon="-0.46282">
        <ele>66.6</ele>
        <time>2023-05-25T12:02:52Z</time>
      </trkpt>
      <trkpt lat="49.1832" lon="-0.46291">
        <ele>66.6</ele>
        <time>2023-05-25T12:02:53Z</time>
      </trkpt>
      <trkpt lat="49.18318" lon="-0.46301">
        <ele>66.8</ele>
        <time>2023-05-25T12:02:54Z</time>
      </trkpt>
      <trkpt lat="49.18316" lon="-0.4631">
        <ele>67</ele>
        <time>2023-05-25T12:02:55Z</time>
      </trkpt>
      <trkpt lat="49.18314" lon="-0.46319">
        <ele>67</ele>
        <time>2023-05-25T12:02:56Z</time>
      </trkpt>
      <trkpt lat="49.18312" lon="-0.46329">
        <ele>67.2</ele>
        <time>2023-05-25T12:02:57Z</time>
      </trkpt>
      <trkpt lat="49.18311" lon="-0.46338">
        <ele>67.4</ele>
        <time>2023-05-25T12:02:58Z</time>
      </trkpt>
      <trkpt lat="49.18309" lon="-0.46347">
        <ele>67.4</ele>
        <time>2023-05-25T12:02:59Z</time>
      </trkpt>
      <trkpt lat="49.18307" lon="-0.46357">
        <ele>67.4</ele>
        <time>2023-05-25T12:03:00Z</time>
      </trkpt>
      <trkpt lat="49.18305" lon="-0.46366">
        <ele>67.4</ele>
        <time>2023-05-25T12:03:01Z</time>
      </trkpt>
      <trkpt lat="49.18304" lon="-0.46376">
        <ele>67.4</ele>
        <time>2023-05-25T12:03:02Z</time>
      </trkpt>
      <trkpt lat="49.18302" lon="-0.46386">
        <ele>67.4</ele>
        <time>2023-05-25T12:03:03Z</time>
      </trkpt>
      <trkpt lat="49.18301" lon="-0.46395">
        <ele>67.4</ele>
        <time>2023-05-25T12:03:04Z</time>
      </trkpt>
      <trkpt lat="49.18299" lon="-0.46405">
        <ele>67.4</ele>
        <time>2023-05-25T12:03:05Z</time>
      </trkpt>
      <trkpt lat="49.18298" lon="-0.46415">
        <ele>67.4</ele>
        <time>2023-05-25T12:03:06Z</time>
      </trkpt>
      <trkpt lat="49.18297" lon="-0.46425">
        <ele>67.4</ele>
        <time>2023-05-25T12:03:07Z</time>
      </trkpt>
      <trkpt lat="49.18296" lon="-0.46435">
        <ele>67.4</ele>
        <time>2023-05-25T12:03:08Z</time>
      </trkpt>
      <trkpt lat="49.18295" lon="-0.46444">
        <ele>67.4</ele>
        <time>2023-05-25T12:03:09Z</time>
      </trkpt>
      <trkpt lat="49.18294" lon="-0.46454">
        <ele>67.4</ele>
        <time>2023-05-25T12:03:10Z</time>
      </trkpt>
      <trkpt lat="49.18293" lon="-0.46464">
        <ele>67.6</ele>
        <time>2023-05-25T12:03:11Z</time>
      </trkpt>
      <trkpt lat="49.18292" lon="-0.46474">
        <ele>67.6</ele>
        <time>2023-05-25T12:03:12Z</time>
      </trkpt>
      <trkpt lat="49.18292" lon="-0.46484">
        <ele>67.6</ele>
        <time>2023-05-25T12:03:13Z</time>
      </trkpt>
      <trkpt lat="49.18291" lon="-0.46494">
        <ele>67.6</ele>
        <time>2023-05-25T12:03:14Z</time>
      </trkpt>
      <trkpt lat="49.1829" lon="-0.46504">
        <ele>67.6</ele>
        <time>2023-05-25T12:03:15Z</time>
      </trkpt>
      <trkpt lat="49.18289" lon="-0.46514">
        <ele>67.6</ele>
        <time>2023-05-25T12:03:16Z</time>
      </trkpt>
      <trkpt lat="49.18289" lon="-0.46524">
        <ele>68</ele>
        <time>2023-05-25T12:03:17Z</time>
      </trkpt>
      <trkpt lat="49.18288" lon="-0.46534">
        <ele>68</ele>
        <time>2023-05-25T12:03:18Z</time>
      </trkpt>
      <trkpt lat="49.18288" lon="-0.46544">
        <ele>68</ele>
        <time>2023-05-25T12:03:19Z</time>
      </trkpt>
      <trkpt lat="49.18287" lon="-0.46554">
        <ele>68.2</ele>
        <time>2023-05-25T12:03:20Z</time>
      </trkpt>
      <trkpt lat="49.18287" lon="-0.46564">
        <ele>68.4</ele>
        <time>2023-05-25T12:03:21Z</time>
      </trkpt>
      <trkpt lat="49.18286" lon="-0.46574">
        <ele>68.6</ele>
        <time>2023-05-25T12:03:22Z</time>
      </trkpt>
      <trkpt lat="49.18286" lon="-0.46584">
        <ele>68.6</ele>
        <time>2023-05-25T12:03:23Z</time>
      </trkpt>
      <trkpt lat="49.18285" lon="-0.46594">
        <ele>68.6</ele>
        <time>2023-05-25T12:03:24Z</time>
      </trkpt>
      <trkpt lat="49.18285" lon="-0.46604">
        <ele>68.6</ele>
        <time>2023-05-25T12:03:25Z</time>
      </trkpt>
      <trkpt lat="49.18285" lon="-0.46615">
        <ele>68.6</ele>
        <time>2023-05-25T12:03:26Z</time>
      </trkpt>
      <trkpt lat="49.18284" lon="-0.46625">
        <ele>68.6</ele>
        <time>2023-05-25T12:03:27Z</time>
      </trkpt>
      <trkpt lat="49.18284" lon="-0.46635">
        <ele>68.6</ele>
        <time>2023-05-25T12:03:28Z</time>
      </trkpt>
      <trkpt lat="49.18284" lon="-0.46645">
        <ele>68.6</ele>
        <time>2023-05-25T12:03:29Z</time>
      </trkpt>
      <trkpt lat="49.18284" lon="-0.46656">
        <ele>68.6</ele>
        <time>2023-05-25T12:03:30Z</time>
      </trkpt>
      <trkpt lat="49.18283" lon="-0.46666">
        <ele>68.6</ele>
        <time>2023-05-25T12:03:31Z</time>
      </trkpt>
      <trkpt lat="49.18283" lon="-0.46676">
        <ele>68.6</ele>
        <time>2023-05-25T12:03:32Z</time>
      </trkpt>
      <trkpt lat="49.18283" lon="-0.46687">
        <ele>68.6</ele>
        <time>2023-05-25T12:03:33Z</time>
      </trkpt>
      <trkpt lat="49.18283" lon="-0.46698">
        <ele>68.6</ele>
        <time>2023-05-25T12:03:34Z</time>
      </trkpt>
      <trkpt lat="49.18283" lon="-0.46708">
        <ele>68.4</ele>
        <time>2023-05-25T12:03:35Z</time>
      </trkpt>
      <trkpt lat="49.18283" lon="-0.46719">
        <ele>68.4</ele>
        <time>2023-05-25T12:03:36Z</time>
      </trkpt>
      <trkpt lat="49.18283" lon="-0.46729">
        <ele>68.4</ele>
        <time>2023-05-25T12:03:37Z</time>
      </trkpt>
      <trkpt lat="49.18284" lon="-0.4674">
        <ele>68.2</ele>
        <time>2023-05-25T12:03:38Z</time>
      </trkpt>
      <trkpt lat="49.18284" lon="-0.46751">
        <ele>68.2</ele>
        <time>2023-05-25T12:03:39Z</time>
      </trkpt>
      <trkpt lat="49.18284" lon="-0.46762">
        <ele>68</ele>
        <time>2023-05-25T12:03:40Z</time>
      </trkpt>
      <trkpt lat="49.18284" lon="-0.46772">
        <ele>68</ele>
        <time>2023-05-25T12:03:41Z</time>
      </trkpt>
      <trkpt lat="49.18284" lon="-0.46783">
        <ele>68</ele>
        <time>2023-05-25T12:03:42Z</time>
      </trkpt>
      <trkpt lat="49.18285" lon="-0.46794">
        <ele>68</ele>
        <time>2023-05-25T12:03:43Z</time>
      </trkpt>
      <trkpt lat="49.18285" lon="-0.46805">
        <ele>67.8</ele>
        <time>2023-05-25T12:03:44Z</time>
      </trkpt>
      <trkpt lat="49.18285" lon="-0.46816">
        <ele>67.6</ele>
        <time>2023-05-25T12:03:45Z</time>
      </trkpt>
      <trkpt lat="49.18285" lon="-0.46827">
        <ele>67.6</ele>
        <time>2023-05-25T12:03:46Z</time>
      </trkpt>
      <trkpt lat="49.18286" lon="-0.46837">
        <ele>67.6</ele>
        <time>2023-05-25T12:03:47Z</time>
      </trkpt>
      <trkpt lat="49.18286" lon="-0.46848">
        <ele>67.6</ele>
        <time>2023-05-25T12:03:48Z</time>
      </trkpt>
      <trkpt lat="49.18286" lon="-0.46859">
        <ele>67.6</ele>
        <time>2023-05-25T12:03:49Z</time>
      </trkpt>
      <trkpt lat="49.18287" lon="-0.4687">
        <ele>67.6</ele>
        <time>2023-05-25T12:03:50Z</time>
      </trkpt>
      <trkpt lat="49.18287" lon="-0.46881">
        <ele>67.6</ele>
        <time>2023-05-25T12:03:51Z</time>
      </trkpt>
      <trkpt lat="49.18287" lon="-0.46892">
        <ele>67.6</ele>
        <time>2023-05-25T12:03:52Z</time>
      </trkpt>
      <trkpt lat="49.18288" lon="-0.46903">
        <ele>67.6</ele>
        <time>2023-05-25T12:03:53Z</time>
      </trkpt>
      <trkpt lat="49.18288" lon="-0.46914">
        <ele>67.6</ele>
        <time>2023-05-25T12:03:54Z</time>
      </trkpt>
      <trkpt lat="49.18289" lon="-0.46925">
        <ele>67.6</ele>
        <time>2023-05-25T12:03:55Z</time>
      </trkpt>
      <trkpt lat="49.18289" lon="-0.46936">
        <ele>67.4</ele>
        <time>2023-05-25T12:03:56Z</time>
      </trkpt>
      <trkpt lat="49.18289" lon="-0.46947">
        <ele>67.4</ele>
        <time>2023-05-25T12:03:57Z</time>
      </trkpt>
      <trkpt lat="49.1829" lon="-0.46958">
        <ele>67.4</ele>
        <time>2023-05-25T12:03:58Z</time>
      </trkpt>
      <trkpt lat="49.1829" lon="-0.46969">
        <ele>67.2</ele>
        <time>2023-05-25T12:03:59Z</time>
      </trkpt>
      <trkpt lat="49.1829" lon="-0.4698">
        <ele>67.2</ele>
        <time>2023-05-25T12:04:00Z</time>
      </trkpt>
      <trkpt lat="49.18291" lon="-0.46991">
        <ele>67</ele>
        <time>2023-05-25T12:04:01Z</time>
      </trkpt>
      <trkpt lat="49.18291" lon="-0.47002">
        <ele>67</ele>
        <time>2023-05-25T12:04:02Z</time>
      </trkpt>
      <trkpt lat="49.18291" lon="-0.47013">
        <ele>67.2</ele>
        <time>2023-05-25T12:04:03Z</time>
      </trkpt>
      <trkpt lat="49.18292" lon="-0.47024">
        <ele>67.4</ele>
        <time>2023-05-25T12:04:04Z</time>
      </trkpt>
      <trkpt lat="49.18292" lon="-0.47035">
        <ele>67.4</ele>
        <time>2023-05-25T12:04:05Z</time>
      </trkpt>
      <trkpt lat="49.18292" lon="-0.47046">
        <ele>67.6</ele>
        <time>2023-05-25T12:04:06Z</time>
      </trkpt>
      <trkpt lat="49.18293" lon="-0.47056">
        <ele>67.6</ele>
        <time>2023-05-25T12:04:07Z</time>
      </trkpt>
      <trkpt lat="49.18293" lon="-0.47067">
        <ele>67.8</ele>
        <time>2023-05-25T12:04:08Z</time>
      </trkpt>
      <trkpt lat="49.18293" lon="-0.47078">
        <ele>68</ele>
        <time>2023-05-25T12:04:09Z</time>
      </trkpt>
      <trkpt lat="49.18294" lon="-0.47089">
        <ele>68</ele>
        <time>2023-05-25T12:04:10Z</time>
      </trkpt>
      <trkpt lat="49.18294" lon="-0.471">
        <ele>68.2</ele>
        <time>2023-05-25T12:04:11Z</time>
      </trkpt>
      <trkpt lat="49.18294" lon="-0.47111">
        <ele>68.4</ele>
        <time>2023-05-25T12:04:12Z</time>
      </trkpt>
      <trkpt lat="49.18295" lon="-0.47122">
        <ele>68.6</ele>
        <time>2023-05-25T12:04:13Z</time>
      </trkpt>
      <trkpt lat="49.18295" lon="-0.47133">
        <ele>68.6</ele>
        <time>2023-05-25T12:04:14Z</time>
      </trkpt>
      <trkpt lat="49.18295" lon="-0.47144">
        <ele>68.6</ele>
        <time>2023-05-25T12:04:15Z</time>
      </trkpt>
      <trkpt lat="49.18296" lon="-0.47155">
        <ele>69</ele>
        <time>2023-05-25T12:04:16Z</time>
      </trkpt>
      <trkpt lat="49.18296" lon="-0.47166">
        <ele>69</ele>
        <time>2023-05-25T12:04:17Z</time>
      </trkpt>
      <trkpt lat="49.18296" lon="-0.47177">
        <ele>69</ele>
        <time>2023-05-25T12:04:18Z</time>
      </trkpt>
      <trkpt lat="49.18297" lon="-0.47188">
        <ele>69</ele>
        <time>2023-05-25T12:04:19Z</time>
      </trkpt>
      <trkpt lat="49.18297" lon="-0.47199">
        <ele>69</ele>
        <time>2023-05-25T12:04:20Z</time>
      </trkpt>
      <trkpt lat="49.18297" lon="-0.4721">
        <ele>69</ele>
        <time>2023-05-25T12:04:21Z</time>
      </trkpt>
      <trkpt lat="49.18298" lon="-0.47221">
        <ele>69</ele>
        <time>2023-05-25T12:04:22Z</time>
      </trkpt>
      <trkpt lat="49.18298" lon="-0.47232">
        <ele>69</ele>
        <time>2023-05-25T12:04:23Z</time>
      </trkpt>
      <trkpt lat="49.18298" lon="-0.47243">
        <ele>69</ele>
        <time>2023-05-25T12:04:24Z</time>
      </trkpt>
      <trkpt lat="49.18299" lon="-0.47254">
        <ele>69</ele>
        <time>2023-05-25T12:04:25Z</time>
      </trkpt>
      <trkpt lat="49.18299" lon="-0.47266">
        <ele>69</ele>
        <time>2023-05-25T12:04:26Z</time>
      </trkpt>
      <trkpt lat="49.183" lon="-0.47277">
        <ele>69</ele>
        <time>2023-05-25T12:04:27Z</time>
      </trkpt>
      <trkpt lat="49.18301" lon="-0.47288">
        <ele>69</ele>
        <time>2023-05-25T12:04:28Z</time>
      </trkpt>
      <trkpt lat="49.18301" lon="-0.47299">
        <ele>69</ele>
        <time>2023-05-25T12:04:29Z</time>
      </trkpt>
      <trkpt lat="49.18302" lon="-0.4731">
        <ele>68.8</ele>
        <time>2023-05-25T12:04:30Z</time>
      </trkpt>
      <trkpt lat="49.18303" lon="-0.47321">
        <ele>68.8</ele>
        <time>2023-05-25T12:04:31Z</time>
      </trkpt>
      <trkpt lat="49.18304" lon="-0.47332">
        <ele>68.6</ele>
        <time>2023-05-25T12:04:32Z</time>
      </trkpt>
      <trkpt lat="49.18305" lon="-0.47343">
        <ele>68.6</ele>
        <time>2023-05-25T12:04:33Z</time>
      </trkpt>
      <trkpt lat="49.18305" lon="-0.47354">
        <ele>68.6</ele>
        <time>2023-05-25T12:04:34Z</time>
      </trkpt>
      <trkpt lat="49.18306" lon="-0.47365">
        <ele>68.6</ele>
        <time>2023-05-25T12:04:35Z</time>
      </trkpt>
      <trkpt lat="49.18307" lon="-0.47376">
        <ele>68.6</ele>
        <time>2023-05-25T12:04:36Z</time>
      </trkpt>
      <trkpt lat="49.18308" lon="-0.47387">
        <ele>68.4</ele>
        <time>2023-05-25T12:04:37Z</time>
      </trkpt>
      <trkpt lat="49.18309" lon="-0.47398">
        <ele>68.4</ele>
        <time>2023-05-25T12:04:38Z</time>
      </trkpt>
      <trkpt lat="49.1831" lon="-0.47408">
        <ele>68.4</ele>
        <time>2023-05-25T12:04:39Z</time>
      </trkpt>
      <trkpt lat="49.18311" lon="-0.4742">
        <ele>68.4</ele>
        <time>2023-05-25T12:04:40Z</time>
      </trkpt>
      <trkpt lat="49.18312" lon="-0.47431">
        <ele>68.6</ele>
        <time>2023-05-25T12:04:41Z</time>
      </trkpt>
      <trkpt lat="49.18313" lon="-0.47442">
        <ele>68.6</ele>
        <time>2023-05-25T12:04:42Z</time>
      </trkpt>
      <trkpt lat="49.18314" lon="-0.47453">
        <ele>68.8</ele>
        <time>2023-05-25T12:04:43Z</time>
      </trkpt>
      <trkpt lat="49.18315" lon="-0.47464">
        <ele>69</ele>
        <time>2023-05-25T12:04:44Z</time>
      </trkpt>
      <trkpt lat="49.18316" lon="-0.47475">
        <ele>69</ele>
        <time>2023-05-25T12:04:45Z</time>
      </trkpt>
      <trkpt lat="49.18317" lon="-0.47486">
        <ele>69.2</ele>
        <time>2023-05-25T12:04:46Z</time>
      </trkpt>
      <trkpt lat="49.18318" lon="-0.47497">
        <ele>69.4</ele>
        <time>2023-05-25T12:04:47Z</time>
      </trkpt>
      <trkpt lat="49.18319" lon="-0.47508">
        <ele>69.4</ele>
        <time>2023-05-25T12:04:48Z</time>
      </trkpt>
      <trkpt lat="49.1832" lon="-0.47519">
        <ele>69.4</ele>
        <time>2023-05-25T12:04:49Z</time>
      </trkpt>
      <trkpt lat="49.18321" lon="-0.47531">
        <ele>69.4</ele>
        <time>2023-05-25T12:04:50Z</time>
      </trkpt>
      <trkpt lat="49.18322" lon="-0.47542">
        <ele>69.2</ele>
        <time>2023-05-25T12:04:51Z</time>
      </trkpt>
      <trkpt lat="49.18322" lon="-0.47553">
        <ele>69.2</ele>
        <time>2023-05-25T12:04:52Z</time>
      </trkpt>
      <trkpt lat="49.18323" lon="-0.47564">
        <ele>69</ele>
        <time>2023-05-25T12:04:53Z</time>
      </trkpt>
      <trkpt lat="49.18324" lon="-0.47575">
        <ele>69</ele>
        <time>2023-05-25T12:04:54Z</time>
      </trkpt>
      <trkpt lat="49.18325" lon="-0.47586">
        <ele>69</ele>
        <time>2023-05-25T12:04:55Z</time>
      </trkpt>
      <trkpt lat="49.18326" lon="-0.47597">
        <ele>69</ele>
        <time>2023-05-25T12:04:56Z</time>
      </trkpt>
      <trkpt lat="49.18327" lon="-0.47608">
        <ele>69</ele>
        <time>2023-05-25T12:04:57Z</time>
      </trkpt>
      <trkpt lat="49.18328" lon="-0.4762">
        <ele>69</ele>
        <time>2023-05-25T12:04:58Z</time>
      </trkpt>
      <trkpt lat="49.18329" lon="-0.47631">
        <ele>69</ele>
        <time>2023-05-25T12:04:59Z</time>
      </trkpt>
      <trkpt lat="49.1833" lon="-0.47642">
        <ele>69</ele>
        <time>2023-05-25T12:05:00Z</time>
      </trkpt>
      <trkpt lat="49.18331" lon="-0.47653">
        <ele>69</ele>
        <time>2023-05-25T12:05:01Z</time>
      </trkpt>
      <trkpt lat="49.18332" lon="-0.47665">
        <ele>69</ele>
        <time>2023-05-25T12:05:02Z</time>
      </trkpt>
      <trkpt lat="49.18333" lon="-0.47676">
        <ele>69</ele>
        <time>2023-05-25T12:05:03Z</time>
      </trkpt>
      <trkpt lat="49.18333" lon="-0.47687">
        <ele>69.2</ele>
        <time>2023-05-25T12:05:04Z</time>
      </trkpt>
      <trkpt lat="49.18334" lon="-0.47698">
        <ele>69.4</ele>
        <time>2023-05-25T12:05:05Z</time>
      </trkpt>
      <trkpt lat="49.18334" lon="-0.4771">
        <ele>69.6</ele>
        <time>2023-05-25T12:05:06Z</time>
      </trkpt>
      <trkpt lat="49.18334" lon="-0.47721">
        <ele>69.6</ele>
        <time>2023-05-25T12:05:07Z</time>
      </trkpt>
      <trkpt lat="49.18335" lon="-0.47732">
        <ele>69.8</ele>
        <time>2023-05-25T12:05:08Z</time>
      </trkpt>
      <trkpt lat="49.18335" lon="-0.47743">
        <ele>70</ele>
        <time>2023-05-25T12:05:09Z</time>
      </trkpt>
      <trkpt lat="49.18335" lon="-0.47755">
        <ele>70</ele>
        <time>2023-05-25T12:05:10Z</time>
      </trkpt>
      <trkpt lat="49.18335" lon="-0.47766">
        <ele>70</ele>
        <time>2023-05-25T12:05:11Z</time>
      </trkpt>
      <trkpt lat="49.18335" lon="-0.47777">
        <ele>70</ele>
        <time>2023-05-25T12:05:12Z</time>
      </trkpt>
      <trkpt lat="49.18335" lon="-0.47788">
        <ele>70</ele>
        <time>2023-05-25T12:05:13Z</time>
      </trkpt>
      <trkpt lat="49.18334" lon="-0.478">
        <ele>70</ele>
        <time>2023-05-25T12:05:14Z</time>
      </trkpt>
      <trkpt lat="49.18334" lon="-0.47811">
        <ele>70</ele>
        <time>2023-05-25T12:05:15Z</time>
      </trkpt>
      <trkpt lat="49.18334" lon="-0.47822">
        <ele>70</ele>
        <time>2023-05-25T12:05:16Z</time>
      </trkpt>
      <trkpt lat="49.18334" lon="-0.47834">
        <ele>70</ele>
        <time>2023-05-25T12:05:17Z</time>
      </trkpt>
      <trkpt lat="49.18334" lon="-0.47845">
        <ele>70</ele>
        <time>2023-05-25T12:05:18Z</time>
      </trkpt>
      <trkpt lat="49.18334" lon="-0.47856">
        <ele>70</ele>
        <time>2023-05-25T12:05:19Z</time>
      </trkpt>
      <trkpt lat="49.18334" lon="-0.47867">
        <ele>70</ele>
        <time>2023-05-25T12:05:20Z</time>
      </trkpt>
      <trkpt lat="49.18334" lon="-0.47878">
        <ele>70</ele>
        <time>2023-05-25T12:05:21Z</time>
      </trkpt>
      <trkpt lat="49.18334" lon="-0.47889">
        <ele>70</ele>
        <time>2023-05-25T12:05:22Z</time>
      </trkpt>
      <trkpt lat="49.18334" lon="-0.479">
        <ele>70</ele>
        <time>2023-05-25T12:05:23Z</time>
      </trkpt>
      <trkpt lat="49.18334" lon="-0.47911">
        <ele>70</ele>
        <time>2023-05-25T12:05:24Z</time>
      </trkpt>
      <trkpt lat="49.18333" lon="-0.47922">
        <ele>70</ele>
        <time>2023-05-25T12:05:25Z</time>
      </trkpt>
      <trkpt lat="49.18333" lon="-0.47932">
        <ele>70</ele>
        <time>2023-05-25T12:05:26Z</time>
      </trkpt>
      <trkpt lat="49.18333" lon="-0.47943">
        <ele>70</ele>
        <time>2023-05-25T12:05:27Z</time>
      </trkpt>
      <trkpt lat="49.18333" lon="-0.47953">
        <ele>70</ele>
        <time>2023-05-25T12:05:28Z</time>
      </trkpt>
      <trkpt lat="49.18333" lon="-0.47964">
        <ele>70</ele>
        <time>2023-05-25T12:05:29Z</time>
      </trkpt>
      <trkpt lat="49.18333" lon="-0.47974">
        <ele>70</ele>
        <time>2023-05-25T12:05:30Z</time>
      </trkpt>
      <trkpt lat="49.18333" lon="-0.47984">
        <ele>70</ele>
        <time>2023-05-25T12:05:31Z</time>
      </trkpt>
      <trkpt lat="49.18333" lon="-0.47995">
        <ele>70</ele>
        <time>2023-05-25T12:05:32Z</time>
      </trkpt>
      <trkpt lat="49.18333" lon="-0.48005">
        <ele>70</ele>
        <time>2023-05-25T12:05:33Z</time>
      </trkpt>
      <trkpt lat="49.18333" lon="-0.48015">
        <ele>70.2</ele>
        <time>2023-05-25T12:05:34Z</time>
      </trkpt>
      <trkpt lat="49.18332" lon="-0.48025">
        <ele>70.4</ele>
        <time>2023-05-25T12:05:35Z</time>
      </trkpt>
      <trkpt lat="49.18332" lon="-0.48035">
        <ele>70.4</ele>
        <time>2023-05-25T12:05:36Z</time>
      </trkpt>
      <trkpt lat="49.18332" lon="-0.48045">
        <ele>70.6</ele>
        <time>2023-05-25T12:05:37Z</time>
      </trkpt>
      <trkpt lat="49.18332" lon="-0.48055">
        <ele>70.6</ele>
        <time>2023-05-25T12:05:38Z</time>
      </trkpt>
      <trkpt lat="49.18332" lon="-0.48066">
        <ele>70.8</ele>
        <time>2023-05-25T12:05:39Z</time>
      </trkpt>
      <trkpt lat="49.18332" lon="-0.48076">
        <ele>71</ele>
        <time>2023-05-25T12:05:40Z</time>
      </trkpt>
      <trkpt lat="49.18332" lon="-0.48086">
        <ele>71</ele>
        <time>2023-05-25T12:05:41Z</time>
      </trkpt>
      <trkpt lat="49.18332" lon="-0.48096">
        <ele>71</ele>
        <time>2023-05-25T12:05:42Z</time>
      </trkpt>
      <trkpt lat="49.18331" lon="-0.48106">
        <ele>71</ele>
        <time>2023-05-25T12:05:43Z</time>
      </trkpt>
      <trkpt lat="49.18331" lon="-0.48117">
        <ele>71</ele>
        <time>2023-05-25T12:05:44Z</time>
      </trkpt>
      <trkpt lat="49.18331" lon="-0.48127">
        <ele>71</ele>
        <time>2023-05-25T12:05:45Z</time>
      </trkpt>
      <trkpt lat="49.1833" lon="-0.48137">
        <ele>71</ele>
        <time>2023-05-25T12:05:46Z</time>
      </trkpt>
      <trkpt lat="49.1833" lon="-0.48147">
        <ele>71</ele>
        <time>2023-05-25T12:05:47Z</time>
      </trkpt>
      <trkpt lat="49.1833" lon="-0.48158">
        <ele>71</ele>
        <time>2023-05-25T12:05:48Z</time>
      </trkpt>
      <trkpt lat="49.18329" lon="-0.48168">
        <ele>71</ele>
        <time>2023-05-25T12:05:49Z</time>
      </trkpt>
      <trkpt lat="49.18329" lon="-0.48179">
        <ele>71</ele>
        <time>2023-05-25T12:05:50Z</time>
      </trkpt>
      <trkpt lat="49.18328" lon="-0.48189">
        <ele>71</ele>
        <time>2023-05-25T12:05:51Z</time>
      </trkpt>
      <trkpt lat="49.18328" lon="-0.48199">
        <ele>71</ele>
        <time>2023-05-25T12:05:52Z</time>
      </trkpt>
      <trkpt lat="49.18328" lon="-0.4821">
        <ele>71</ele>
        <time>2023-05-25T12:05:53Z</time>
      </trkpt>
      <trkpt lat="49.18327" lon="-0.4822">
        <ele>71</ele>
        <time>2023-05-25T12:05:54Z</time>
      </trkpt>
      <trkpt lat="49.18327" lon="-0.48231">
        <ele>71.2</ele>
        <time>2023-05-25T12:05:55Z</time>
      </trkpt>
      <trkpt lat="49.18326" lon="-0.48241">
        <ele>71.2</ele>
        <time>2023-05-25T12:05:56Z</time>
      </trkpt>
      <trkpt lat="49.18326" lon="-0.48252">
        <ele>71.2</ele>
        <time>2023-05-25T12:05:57Z</time>
      </trkpt>
      <trkpt lat="49.18325" lon="-0.48263">
        <ele>71</ele>
        <time>2023-05-25T12:05:58Z</time>
      </trkpt>
      <trkpt lat="49.18325" lon="-0.48273">
        <ele>71</ele>
        <time>2023-05-25T12:05:59Z</time>
      </trkpt>
      <trkpt lat="49.18324" lon="-0.48284">
        <ele>70.8</ele>
        <time>2023-05-25T12:06:00Z</time>
      </trkpt>
      <trkpt lat="49.18323" lon="-0.48295">
        <ele>70.6</ele>
        <time>2023-05-25T12:06:01Z</time>
      </trkpt>
      <trkpt lat="49.18322" lon="-0.48306">
        <ele>70.6</ele>
        <time>2023-05-25T12:06:02Z</time>
      </trkpt>
      <trkpt lat="49.18321" lon="-0.48317">
        <ele>70.4</ele>
        <time>2023-05-25T12:06:03Z</time>
      </trkpt>
      <trkpt lat="49.1832" lon="-0.48328">
        <ele>70.2</ele>
        <time>2023-05-25T12:06:04Z</time>
      </trkpt>
      <trkpt lat="49.18319" lon="-0.48339">
        <ele>70</ele>
        <time>2023-05-25T12:06:05Z</time>
      </trkpt>
      <trkpt lat="49.18318" lon="-0.4835">
        <ele>70</ele>
        <time>2023-05-25T12:06:06Z</time>
      </trkpt>
      <trkpt lat="49.18317" lon="-0.48361">
        <ele>70</ele>
        <time>2023-05-25T12:06:07Z</time>
      </trkpt>
      <trkpt lat="49.18315" lon="-0.48371">
        <ele>70</ele>
        <time>2023-05-25T12:06:08Z</time>
      </trkpt>
      <trkpt lat="49.18314" lon="-0.48382">
        <ele>70</ele>
        <time>2023-05-25T12:06:09Z</time>
      </trkpt>
      <trkpt lat="49.18312" lon="-0.48393">
        <ele>70</ele>
        <time>2023-05-25T12:06:10Z</time>
      </trkpt>
      <trkpt lat="49.1831" lon="-0.48403">
        <ele>69.8</ele>
        <time>2023-05-25T12:06:11Z</time>
      </trkpt>
      <trkpt lat="49.18309" lon="-0.48414">
        <ele>69.6</ele>
        <time>2023-05-25T12:06:12Z</time>
      </trkpt>
      <trkpt lat="49.18307" lon="-0.48425">
        <ele>69.6</ele>
        <time>2023-05-25T12:06:13Z</time>
      </trkpt>
      <trkpt lat="49.18305" lon="-0.48436">
        <ele>69.4</ele>
        <time>2023-05-25T12:06:14Z</time>
      </trkpt>
      <trkpt lat="49.18302" lon="-0.48447">
        <ele>69.4</ele>
        <time>2023-05-25T12:06:15Z</time>
      </trkpt>
      <trkpt lat="49.183" lon="-0.48458">
        <ele>69</ele>
        <time>2023-05-25T12:06:16Z</time>
      </trkpt>
      <trkpt lat="49.18298" lon="-0.48469">
        <ele>69</ele>
        <time>2023-05-25T12:06:17Z</time>
      </trkpt>
      <trkpt lat="49.18296" lon="-0.4848">
        <ele>68.8</ele>
        <time>2023-05-25T12:06:18Z</time>
      </trkpt>
      <trkpt lat="49.18294" lon="-0.48492">
        <ele>68.6</ele>
        <time>2023-05-25T12:06:19Z</time>
      </trkpt>
      <trkpt lat="49.18292" lon="-0.48503">
        <ele>68.6</ele>
        <time>2023-05-25T12:06:20Z</time>
      </trkpt>
      <trkpt lat="49.18289" lon="-0.48514">
        <ele>68.6</ele>
        <time>2023-05-25T12:06:21Z</time>
      </trkpt>
      <trkpt lat="49.18287" lon="-0.48526">
        <ele>68.4</ele>
        <time>2023-05-25T12:06:22Z</time>
      </trkpt>
      <trkpt lat="49.18285" lon="-0.48537">
        <ele>68.4</ele>
        <time>2023-05-25T12:06:23Z</time>
      </trkpt>
      <trkpt lat="49.18283" lon="-0.48548">
        <ele>68.4</ele>
        <time>2023-05-25T12:06:24Z</time>
      </trkpt>
      <trkpt lat="49.18281" lon="-0.4856">
        <ele>68.4</ele>
        <time>2023-05-25T12:06:25Z</time>
      </trkpt>
      <trkpt lat="49.18279" lon="-0.48571">
        <ele>68.4</ele>
        <time>2023-05-25T12:06:26Z</time>
      </trkpt>
      <trkpt lat="49.18277" lon="-0.48582">
        <ele>68.4</ele>
        <time>2023-05-25T12:06:27Z</time>
      </trkpt>
      <trkpt lat="49.18275" lon="-0.48593">
        <ele>68.2</ele>
        <time>2023-05-25T12:06:28Z</time>
      </trkpt>
      <trkpt lat="49.18273" lon="-0.48604">
        <ele>68</ele>
        <time>2023-05-25T12:06:29Z</time>
      </trkpt>
      <trkpt lat="49.18271" lon="-0.48615">
        <ele>68</ele>
        <time>2023-05-25T12:06:30Z</time>
      </trkpt>
      <trkpt lat="49.18269" lon="-0.48626">
        <ele>68</ele>
        <time>2023-05-25T12:06:31Z</time>
      </trkpt>
      <trkpt lat="49.18267" lon="-0.48637">
        <ele>68</ele>
        <time>2023-05-25T12:06:32Z</time>
      </trkpt>
      <trkpt lat="49.18265" lon="-0.48648">
        <ele>68</ele>
        <time>2023-05-25T12:06:33Z</time>
      </trkpt>
      <trkpt lat="49.18263" lon="-0.48659">
        <ele>68</ele>
        <time>2023-05-25T12:06:34Z</time>
      </trkpt>
      <trkpt lat="49.18261" lon="-0.48669">
        <ele>68</ele>
        <time>2023-05-25T12:06:35Z</time>
      </trkpt>
      <trkpt lat="49.18259" lon="-0.4868">
        <ele>68</ele>
        <time>2023-05-25T12:06:36Z</time>
      </trkpt>
      <trkpt lat="49.18257" lon="-0.48691">
        <ele>68.2</ele>
        <time>2023-05-25T12:06:37Z</time>
      </trkpt>
      <trkpt lat="49.18256" lon="-0.48701">
        <ele>68.4</ele>
        <time>2023-05-25T12:06:38Z</time>
      </trkpt>
      <trkpt lat="49.18254" lon="-0.48711">
        <ele>68.6</ele>
        <time>2023-05-25T12:06:39Z</time>
      </trkpt>
      <trkpt lat="49.18252" lon="-0.48722">
        <ele>68.6</ele>
        <time>2023-05-25T12:06:40Z</time>
      </trkpt>
      <trkpt lat="49.1825" lon="-0.48732">
        <ele>68.8</ele>
        <time>2023-05-25T12:06:41Z</time>
      </trkpt>
      <trkpt lat="49.18248" lon="-0.48742">
        <ele>69</ele>
        <time>2023-05-25T12:06:42Z</time>
      </trkpt>
      <trkpt lat="49.18247" lon="-0.48753">
        <ele>69</ele>
        <time>2023-05-25T12:06:43Z</time>
      </trkpt>
      <trkpt lat="49.18245" lon="-0.48763">
        <ele>69</ele>
        <time>2023-05-25T12:06:44Z</time>
      </trkpt>
      <trkpt lat="49.18243" lon="-0.48773">
        <ele>69.2</ele>
        <time>2023-05-25T12:06:45Z</time>
      </trkpt>
      <trkpt lat="49.18241" lon="-0.48783">
        <ele>69.4</ele>
        <time>2023-05-25T12:06:46Z</time>
      </trkpt>
      <trkpt lat="49.1824" lon="-0.48793">
        <ele>69.6</ele>
        <time>2023-05-25T12:06:47Z</time>
      </trkpt>
      <trkpt lat="49.18238" lon="-0.48803">
        <ele>69.6</ele>
        <time>2023-05-25T12:06:48Z</time>
      </trkpt>
      <trkpt lat="49.18236" lon="-0.48813">
        <ele>69.6</ele>
        <time>2023-05-25T12:06:49Z</time>
      </trkpt>
      <trkpt lat="49.18235" lon="-0.48823">
        <ele>70</ele>
        <time>2023-05-25T12:06:50Z</time>
      </trkpt>
      <trkpt lat="49.18233" lon="-0.48833">
        <ele>70</ele>
        <time>2023-05-25T12:06:51Z</time>
      </trkpt>
      <trkpt lat="49.18231" lon="-0.48843">
        <ele>70</ele>
        <time>2023-05-25T12:06:52Z</time>
      </trkpt>
      <trkpt lat="49.1823" lon="-0.48853">
        <ele>70</ele>
        <time>2023-05-25T12:06:53Z</time>
      </trkpt>
      <trkpt lat="49.18228" lon="-0.48862">
        <ele>70.2</ele>
        <time>2023-05-25T12:06:54Z</time>
      </trkpt>
      <trkpt lat="49.18226" lon="-0.48872">
        <ele>70.4</ele>
        <time>2023-05-25T12:06:55Z</time>
      </trkpt>
      <trkpt lat="49.18225" lon="-0.48881">
        <ele>70.4</ele>
        <time>2023-05-25T12:06:56Z</time>
      </trkpt>
      <trkpt lat="49.18223" lon="-0.4889">
        <ele>70.4</ele>
        <time>2023-05-25T12:06:57Z</time>
      </trkpt>
      <trkpt lat="49.18221" lon="-0.48899">
        <ele>70.6</ele>
        <time>2023-05-25T12:06:58Z</time>
      </trkpt>
      <trkpt lat="49.1822" lon="-0.48908">
        <ele>70.6</ele>
        <time>2023-05-25T12:06:59Z</time>
      </trkpt>
      <trkpt lat="49.18218" lon="-0.48917">
        <ele>70.8</ele>
        <time>2023-05-25T12:07:00Z</time>
      </trkpt>
      <trkpt lat="49.18216" lon="-0.48925">
        <ele>70.8</ele>
        <time>2023-05-25T12:07:01Z</time>
      </trkpt>
      <trkpt lat="49.18214" lon="-0.48934">
        <ele>70.8</ele>
        <time>2023-05-25T12:07:02Z</time>
      </trkpt>
      <trkpt lat="49.18212" lon="-0.48942">
        <ele>70.8</ele>
        <time>2023-05-25T12:07:03Z</time>
      </trkpt>
      <trkpt lat="49.1821" lon="-0.48951">
        <ele>70.8</ele>
        <time>2023-05-25T12:07:04Z</time>
      </trkpt>
      <trkpt lat="49.18207" lon="-0.48959">
        <ele>70.8</ele>
        <time>2023-05-25T12:07:05Z</time>
      </trkpt>
      <trkpt lat="49.18205" lon="-0.48968">
        <ele>70.6</ele>
        <time>2023-05-25T12:07:06Z</time>
      </trkpt>
      <trkpt lat="49.18203" lon="-0.48976">
        <ele>70.6</ele>
        <time>2023-05-25T12:07:07Z</time>
      </trkpt>
      <trkpt lat="49.182" lon="-0.48985">
        <ele>70.6</ele>
        <time>2023-05-25T12:07:08Z</time>
      </trkpt>
      <trkpt lat="49.18197" lon="-0.48993">
        <ele>70.6</ele>
        <time>2023-05-25T12:07:09Z</time>
      </trkpt>
      <trkpt lat="49.18195" lon="-0.49002">
        <ele>70.6</ele>
        <time>2023-05-25T12:07:10Z</time>
      </trkpt>
      <trkpt lat="49.18192" lon="-0.4901">
        <ele>70.6</ele>
        <time>2023-05-25T12:07:11Z</time>
      </trkpt>
      <trkpt lat="49.18189" lon="-0.49019">
        <ele>70.8</ele>
        <time>2023-05-25T12:07:12Z</time>
      </trkpt>
      <trkpt lat="49.18186" lon="-0.49027">
        <ele>70.8</ele>
        <time>2023-05-25T12:07:13Z</time>
      </trkpt>
      <trkpt lat="49.18184" lon="-0.49036">
        <ele>71</ele>
        <time>2023-05-25T12:07:14Z</time>
      </trkpt>
      <trkpt lat="49.18181" lon="-0.49044">
        <ele>71</ele>
        <time>2023-05-25T12:07:15Z</time>
      </trkpt>
      <trkpt lat="49.18178" lon="-0.49052">
        <ele>71</ele>
        <time>2023-05-25T12:07:16Z</time>
      </trkpt>
      <trkpt lat="49.18175" lon="-0.49059">
        <ele>71</ele>
        <time>2023-05-25T12:07:17Z</time>
      </trkpt>
      <trkpt lat="49.18172" lon="-0.49067">
        <ele>71</ele>
        <time>2023-05-25T12:07:18Z</time>
      </trkpt>
      <trkpt lat="49.18169" lon="-0.49074">
        <ele>71</ele>
        <time>2023-05-25T12:07:19Z</time>
      </trkpt>
      <trkpt lat="49.18167" lon="-0.49082">
        <ele>71</ele>
        <time>2023-05-25T12:07:20Z</time>
      </trkpt>
      <trkpt lat="49.18166" lon="-0.49091">
        <ele>71</ele>
        <time>2023-05-25T12:07:21Z</time>
      </trkpt>
      <trkpt lat="49.18166" lon="-0.49099">
        <ele>71.2</ele>
        <time>2023-05-25T12:07:22Z</time>
      </trkpt>
      <trkpt lat="49.18167" lon="-0.49107">
        <ele>71.4</ele>
        <time>2023-05-25T12:07:23Z</time>
      </trkpt>
      <trkpt lat="49.1817" lon="-0.49116">
        <ele>71.4</ele>
        <time>2023-05-25T12:07:24Z</time>
      </trkpt>
      <trkpt lat="49.18171" lon="-0.49125">
        <ele>71.6</ele>
        <time>2023-05-25T12:07:25Z</time>
      </trkpt>
      <trkpt lat="49.18171" lon="-0.49134">
        <ele>71.6</ele>
        <time>2023-05-25T12:07:26Z</time>
      </trkpt>
      <trkpt lat="49.18169" lon="-0.49143">
        <ele>71.6</ele>
        <time>2023-05-25T12:07:27Z</time>
      </trkpt>
      <trkpt lat="49.18166" lon="-0.49151">
        <ele>71.8</ele>
        <time>2023-05-25T12:07:28Z</time>
      </trkpt>
      <trkpt lat="49.18165" lon="-0.4916">
        <ele>72</ele>
        <time>2023-05-25T12:07:29Z</time>
      </trkpt>
      <trkpt lat="49.18165" lon="-0.4917">
        <ele>72</ele>
        <time>2023-05-25T12:07:30Z</time>
      </trkpt>
      <trkpt lat="49.18167" lon="-0.49178">
        <ele>72</ele>
        <time>2023-05-25T12:07:31Z</time>
      </trkpt>
      <trkpt lat="49.1817" lon="-0.49187">
        <ele>72.2</ele>
        <time>2023-05-25T12:07:32Z</time>
      </trkpt>
      <trkpt lat="49.18172" lon="-0.49195">
        <ele>72.4</ele>
        <time>2023-05-25T12:07:33Z</time>
      </trkpt>
      <trkpt lat="49.18175" lon="-0.49203">
        <ele>72.4</ele>
        <time>2023-05-25T12:07:34Z</time>
      </trkpt>
      <trkpt lat="49.18177" lon="-0.49212">
        <ele>72.6</ele>
        <time>2023-05-25T12:07:35Z</time>
      </trkpt>
      <trkpt lat="49.1818" lon="-0.49221">
        <ele>72.6</ele>
        <time>2023-05-25T12:07:36Z</time>
      </trkpt>
      <trkpt lat="49.18182" lon="-0.4923">
        <ele>72.8</ele>
        <time>2023-05-25T12:07:37Z</time>
      </trkpt>
      <trkpt lat="49.18184" lon="-0.49239">
        <ele>73</ele>
        <time>2023-05-25T12:07:38Z</time>
      </trkpt>
      <trkpt lat="49.18186" lon="-0.49248">
        <ele>73</ele>
        <time>2023-05-25T12:07:39Z</time>
      </trkpt>
      <trkpt lat="49.18188" lon="-0.49257">
        <ele>73</ele>
        <time>2023-05-25T12:07:40Z</time>
      </trkpt>
      <trkpt lat="49.1819" lon="-0.49266">
        <ele>73</ele>
        <time>2023-05-25T12:07:41Z</time>
      </trkpt>
      <trkpt lat="49.18192" lon="-0.49275">
        <ele>73</ele>
        <time>2023-05-25T12:07:42Z</time>
      </trkpt>
      <trkpt lat="49.18194" lon="-0.49284">
        <ele>73</ele>
        <time>2023-05-25T12:07:43Z</time>
      </trkpt>
      <trkpt lat="49.18196" lon="-0.49292">
        <ele>73</ele>
        <time>2023-05-25T12:07:44Z</time>
      </trkpt>
      <trkpt lat="49.18198" lon="-0.49301">
        <ele>73</ele>
        <time>2023-05-25T12:07:45Z</time>
      </trkpt>
      <trkpt lat="49.182" lon="-0.4931">
        <ele>73</ele>
        <time>2023-05-25T12:07:46Z</time>
      </trkpt>
      <trkpt lat="49.18201" lon="-0.49319">
        <ele>73</ele>
        <time>2023-05-25T12:07:47Z</time>
      </trkpt>
      <trkpt lat="49.18203" lon="-0.49327">
        <ele>73</ele>
        <time>2023-05-25T12:07:48Z</time>
      </trkpt>
      <trkpt lat="49.18205" lon="-0.49336">
        <ele>73</ele>
        <time>2023-05-25T12:07:49Z</time>
      </trkpt>
      <trkpt lat="49.18207" lon="-0.49345">
        <ele>73</ele>
        <time>2023-05-25T12:07:50Z</time>
      </trkpt>
      <trkpt lat="49.18209" lon="-0.49354">
        <ele>73</ele>
        <time>2023-05-25T12:07:51Z</time>
      </trkpt>
      <trkpt lat="49.1821" lon="-0.49363">
        <ele>73.2</ele>
        <time>2023-05-25T12:07:52Z</time>
      </trkpt>
      <trkpt lat="49.18212" lon="-0.49371">
        <ele>73.2</ele>
        <time>2023-05-25T12:07:53Z</time>
      </trkpt>
      <trkpt lat="49.18214" lon="-0.4938">
        <ele>73.2</ele>
        <time>2023-05-25T12:07:54Z</time>
      </trkpt>
      <trkpt lat="49.18215" lon="-0.49389">
        <ele>73.4</ele>
        <time>2023-05-25T12:07:55Z</time>
      </trkpt>
      <trkpt lat="49.18216" lon="-0.49399">
        <ele>73.4</ele>
        <time>2023-05-25T12:07:56Z</time>
      </trkpt>
      <trkpt lat="49.18217" lon="-0.49408">
        <ele>73.4</ele>
        <time>2023-05-25T12:07:57Z</time>
      </trkpt>
      <trkpt lat="49.18219" lon="-0.49417">
        <ele>73.4</ele>
        <time>2023-05-25T12:07:58Z</time>
      </trkpt>
      <trkpt lat="49.1822" lon="-0.49426">
        <ele>73.4</ele>
        <time>2023-05-25T12:07:59Z</time>
      </trkpt>
      <trkpt lat="49.1822" lon="-0.49435">
        <ele>73.4</ele>
        <time>2023-05-25T12:08:00Z</time>
      </trkpt>
      <trkpt lat="49.18221" lon="-0.49443">
        <ele>73.4</ele>
        <time>2023-05-25T12:08:01Z</time>
      </trkpt>
      <trkpt lat="49.18222" lon="-0.49452">
        <ele>73.4</ele>
        <time>2023-05-25T12:08:02Z</time>
      </trkpt>
      <trkpt lat="49.18222" lon="-0.4946">
        <ele>73.4</ele>
        <time>2023-05-25T12:08:03Z</time>
      </trkpt>
      <trkpt lat="49.18223" lon="-0.49468">
        <ele>73.4</ele>
        <time>2023-05-25T12:08:04Z</time>
      </trkpt>
      <trkpt lat="49.18223" lon="-0.49476">
        <ele>73.4</ele>
        <time>2023-05-25T12:08:05Z</time>
      </trkpt>
      <trkpt lat="49.18224" lon="-0.49485">
        <ele>73.4</ele>
        <time>2023-05-25T12:08:06Z</time>
      </trkpt>
      <trkpt lat="49.18225" lon="-0.49493">
        <ele>73.4</ele>
        <time>2023-05-25T12:08:07Z</time>
      </trkpt>
      <trkpt lat="49.18225" lon="-0.49502">
        <ele>73.4</ele>
        <time>2023-05-25T12:08:08Z</time>
      </trkpt>
      <trkpt lat="49.18226" lon="-0.49511">
        <ele>73.4</ele>
        <time>2023-05-25T12:08:09Z</time>
      </trkpt>
      <trkpt lat="49.18226" lon="-0.4952">
        <ele>73.6</ele>
        <time>2023-05-25T12:08:10Z</time>
      </trkpt>
      <trkpt lat="49.18227" lon="-0.49529">
        <ele>73.6</ele>
        <time>2023-05-25T12:08:11Z</time>
      </trkpt>
      <trkpt lat="49.18227" lon="-0.49538">
        <ele>73.6</ele>
        <time>2023-05-25T12:08:12Z</time>
      </trkpt>
      <trkpt lat="49.18228" lon="-0.49547">
        <ele>73.6</ele>
        <time>2023-05-25T12:08:13Z</time>
      </trkpt>
      <trkpt lat="49.18229" lon="-0.49556">
        <ele>73.8</ele>
        <time>2023-05-25T12:08:14Z</time>
      </trkpt>
      <trkpt lat="49.18229" lon="-0.49565">
        <ele>73.8</ele>
        <time>2023-05-25T12:08:15Z</time>
      </trkpt>
      <trkpt lat="49.1823" lon="-0.49574">
        <ele>74</ele>
        <time>2023-05-25T12:08:16Z</time>
      </trkpt>
      <trkpt lat="49.18231" lon="-0.49584">
        <ele>74</ele>
        <time>2023-05-25T12:08:17Z</time>
      </trkpt>
      <trkpt lat="49.18231" lon="-0.49593">
        <ele>74</ele>
        <time>2023-05-25T12:08:18Z</time>
      </trkpt>
      <trkpt lat="49.18232" lon="-0.49602">
        <ele>74.2</ele>
        <time>2023-05-25T12:08:19Z</time>
      </trkpt>
      <trkpt lat="49.18233" lon="-0.49611">
        <ele>74.4</ele>
        <time>2023-05-25T12:08:20Z</time>
      </trkpt>
      <trkpt lat="49.18234" lon="-0.4962">
        <ele>74.4</ele>
        <time>2023-05-25T12:08:21Z</time>
      </trkpt>
      <trkpt lat="49.18235" lon="-0.49629">
        <ele>74.6</ele>
        <time>2023-05-25T12:08:22Z</time>
      </trkpt>
      <trkpt lat="49.18236" lon="-0.49639">
        <ele>74.6</ele>
        <time>2023-05-25T12:08:23Z</time>
      </trkpt>
      <trkpt lat="49.18237" lon="-0.49648">
        <ele>74.6</ele>
        <time>2023-05-25T12:08:24Z</time>
      </trkpt>
      <trkpt lat="49.18238" lon="-0.49657">
        <ele>74.8</ele>
        <time>2023-05-25T12:08:25Z</time>
      </trkpt>
      <trkpt lat="49.1824" lon="-0.49666">
        <ele>75</ele>
        <time>2023-05-25T12:08:26Z</time>
      </trkpt>
      <trkpt lat="49.18241" lon="-0.49675">
        <ele>75</ele>
        <time>2023-05-25T12:08:27Z</time>
      </trkpt>
      <trkpt lat="49.18243" lon="-0.49684">
        <ele>75</ele>
        <time>2023-05-25T12:08:28Z</time>
      </trkpt>
      <trkpt lat="49.18244" lon="-0.49693">
        <ele>75</ele>
        <time>2023-05-25T12:08:29Z</time>
      </trkpt>
      <trkpt lat="49.18246" lon="-0.49702">
        <ele>75</ele>
        <time>2023-05-25T12:08:30Z</time>
      </trkpt>
      <trkpt lat="49.18248" lon="-0.49711">
        <ele>75</ele>
        <time>2023-05-25T12:08:31Z</time>
      </trkpt>
      <trkpt lat="49.1825" lon="-0.49719">
        <ele>75</ele>
        <time>2023-05-25T12:08:32Z</time>
      </trkpt>
      <trkpt lat="49.18252" lon="-0.49728">
        <ele>75</ele>
        <time>2023-05-25T12:08:33Z</time>
      </trkpt>
      <trkpt lat="49.18254" lon="-0.49737">
        <ele>75</ele>
        <time>2023-05-25T12:08:34Z</time>
      </trkpt>
      <trkpt lat="49.18256" lon="-0.49745">
        <ele>75</ele>
        <time>2023-05-25T12:08:35Z</time>
      </trkpt>
      <trkpt lat="49.18258" lon="-0.49754">
        <ele>75</ele>
        <time>2023-05-25T12:08:36Z</time>
      </trkpt>
      <trkpt lat="49.18261" lon="-0.49762">
        <ele>75</ele>
        <time>2023-05-25T12:08:37Z</time>
      </trkpt>
      <trkpt lat="49.18263" lon="-0.4977">
        <ele>75.4</ele>
        <time>2023-05-25T12:08:38Z</time>
      </trkpt>
      <trkpt lat="49.18266" lon="-0.49779">
        <ele>75.4</ele>
        <time>2023-05-25T12:08:39Z</time>
      </trkpt>
      <trkpt lat="49.18269" lon="-0.49787">
        <ele>75.6</ele>
        <time>2023-05-25T12:08:40Z</time>
      </trkpt>
      <trkpt lat="49.18272" lon="-0.49795">
        <ele>75.6</ele>
        <time>2023-05-25T12:08:41Z</time>
      </trkpt>
      <trkpt lat="49.18275" lon="-0.49803">
        <ele>75.6</ele>
        <time>2023-05-25T12:08:42Z</time>
      </trkpt>
      <trkpt lat="49.18279" lon="-0.49811">
        <ele>75.6</ele>
        <time>2023-05-25T12:08:43Z</time>
      </trkpt>
      <trkpt lat="49.18282" lon="-0.49818">
        <ele>75.6</ele>
        <time>2023-05-25T12:08:44Z</time>
      </trkpt>
      <trkpt lat="49.18286" lon="-0.49826">
        <ele>75.6</ele>
        <time>2023-05-25T12:08:45Z</time>
      </trkpt>
      <trkpt lat="49.18289" lon="-0.49833">
        <ele>75.6</ele>
        <time>2023-05-25T12:08:46Z</time>
      </trkpt>
      <trkpt lat="49.18293" lon="-0.49841">
        <ele>75.6</ele>
        <time>2023-05-25T12:08:47Z</time>
      </trkpt>
      <trkpt lat="49.18297" lon="-0.49848">
        <ele>75.4</ele>
        <time>2023-05-25T12:08:48Z</time>
      </trkpt>
      <trkpt lat="49.183" lon="-0.49855">
        <ele>75.4</ele>
        <time>2023-05-25T12:08:49Z</time>
      </trkpt>
      <trkpt lat="49.18304" lon="-0.49863">
        <ele>75.4</ele>
        <time>2023-05-25T12:08:50Z</time>
      </trkpt>
      <trkpt lat="49.18308" lon="-0.4987">
        <ele>75.2</ele>
        <time>2023-05-25T12:08:51Z</time>
      </trkpt>
      <trkpt lat="49.18312" lon="-0.49878">
        <ele>75.2</ele>
        <time>2023-05-25T12:08:52Z</time>
      </trkpt>
      <trkpt lat="49.18316" lon="-0.49885">
        <ele>75</ele>
        <time>2023-05-25T12:08:53Z</time>
      </trkpt>
      <trkpt lat="49.1832" lon="-0.49893">
        <ele>75</ele>
        <time>2023-05-25T12:08:54Z</time>
      </trkpt>
      <trkpt lat="49.18324" lon="-0.49901">
        <ele>75</ele>
        <time>2023-05-25T12:08:55Z</time>
      </trkpt>
      <trkpt lat="49.18329" lon="-0.49909">
        <ele>75</ele>
        <time>2023-05-25T12:08:56Z</time>
      </trkpt>
      <trkpt lat="49.18333" lon="-0.49917">
        <ele>75</ele>
        <time>2023-05-25T12:08:57Z</time>
      </trkpt>
      <trkpt lat="49.18337" lon="-0.49926">
        <ele>75</ele>
        <time>2023-05-25T12:08:58Z</time>
      </trkpt>
      <trkpt lat="49.18341" lon="-0.49934">
        <ele>75</ele>
        <time>2023-05-25T12:08:59Z</time>
      </trkpt>
      <trkpt lat="49.18344" lon="-0.49942">
        <ele>74.8</ele>
        <time>2023-05-25T12:09:00Z</time>
      </trkpt>
      <trkpt lat="49.18348" lon="-0.49951">
        <ele>74.6</ele>
        <time>2023-05-25T12:09:01Z</time>
      </trkpt>
      <trkpt lat="49.18351" lon="-0.49959">
        <ele>74.6</ele>
        <time>2023-05-25T12:09:02Z</time>
      </trkpt>
      <trkpt lat="49.18354" lon="-0.49968">
        <ele>74.6</ele>
        <time>2023-05-25T12:09:03Z</time>
      </trkpt>
      <trkpt lat="49.18356" lon="-0.49977">
        <ele>74.4</ele>
        <time>2023-05-25T12:09:04Z</time>
      </trkpt>
      <trkpt lat="49.18359" lon="-0.49985">
        <ele>74.2</ele>
        <time>2023-05-25T12:09:05Z</time>
      </trkpt>
      <trkpt lat="49.18361" lon="-0.49994">
        <ele>74</ele>
        <time>2023-05-25T12:09:06Z</time>
      </trkpt>
      <trkpt lat="49.18363" lon="-0.50003">
        <ele>74</ele>
        <time>2023-05-25T12:09:07Z</time>
      </trkpt>
      <trkpt lat="49.18365" lon="-0.50011">
        <ele>73.8</ele>
        <time>2023-05-25T12:09:08Z</time>
      </trkpt>
      <trkpt lat="49.18367" lon="-0.50018">
        <ele>73.6</ele>
        <time>2023-05-25T12:09:09Z</time>
      </trkpt>
      <trkpt lat="49.18369" lon="-0.50023">
        <ele>73.6</ele>
        <time>2023-05-25T12:09:10Z</time>
      </trkpt>
      <trkpt lat="49.18371" lon="-0.50027">
        <ele>73.6</ele>
        <time>2023-05-25T12:09:11Z</time>
      </trkpt>
      <trkpt lat="49.18373" lon="-0.5003">
        <ele>73.4</ele>
        <time>2023-05-25T12:09:12Z</time>
      </trkpt>
      <trkpt lat="49.18375" lon="-0.50033">
        <ele>73.4</ele>
        <time>2023-05-25T12:09:13Z</time>
      </trkpt>
      <trkpt lat="49.18378" lon="-0.50038">
        <ele>73.2</ele>
        <time>2023-05-25T12:09:14Z</time>
      </trkpt>
      <trkpt lat="49.1838" lon="-0.50043">
        <ele>73</ele>
        <time>2023-05-25T12:09:15Z</time>
      </trkpt>
      <trkpt lat="49.18383" lon="-0.5005">
        <ele>73</ele>
        <time>2023-05-25T12:09:16Z</time>
      </trkpt>
      <trkpt lat="49.18386" lon="-0.50056">
        <ele>72.8</ele>
        <time>2023-05-25T12:09:17Z</time>
      </trkpt>
      <trkpt lat="49.1839" lon="-0.50063">
        <ele>72.6</ele>
        <time>2023-05-25T12:09:18Z</time>
      </trkpt>
      <trkpt lat="49.18393" lon="-0.50069">
        <ele>72.6</ele>
        <time>2023-05-25T12:09:19Z</time>
      </trkpt>
      <trkpt lat="49.18396" lon="-0.50076">
        <ele>72.6</ele>
        <time>2023-05-25T12:09:20Z</time>
      </trkpt>
      <trkpt lat="49.184" lon="-0.50083">
        <ele>72.4</ele>
        <time>2023-05-25T12:09:21Z</time>
      </trkpt>
      <trkpt lat="49.18403" lon="-0.5009">
        <ele>72.4</ele>
        <time>2023-05-25T12:09:22Z</time>
      </trkpt>
      <trkpt lat="49.18406" lon="-0.50098">
        <ele>72.4</ele>
        <time>2023-05-25T12:09:23Z</time>
      </trkpt>
      <trkpt lat="49.1841" lon="-0.50106">
        <ele>72.4</ele>
        <time>2023-05-25T12:09:24Z</time>
      </trkpt>
      <trkpt lat="49.18413" lon="-0.50113">
        <ele>72.4</ele>
        <time>2023-05-25T12:09:25Z</time>
      </trkpt>
      <trkpt lat="49.18416" lon="-0.50121">
        <ele>72.6</ele>
        <time>2023-05-25T12:09:26Z</time>
      </trkpt>
      <trkpt lat="49.1842" lon="-0.50129">
        <ele>72.6</ele>
        <time>2023-05-25T12:09:27Z</time>
      </trkpt>
      <trkpt lat="49.18423" lon="-0.50137">
        <ele>72.4</ele>
        <time>2023-05-25T12:09:28Z</time>
      </trkpt>
      <trkpt lat="49.18427" lon="-0.50145">
        <ele>72.4</ele>
        <time>2023-05-25T12:09:29Z</time>
      </trkpt>
      <trkpt lat="49.1843" lon="-0.50154">
        <ele>72.4</ele>
        <time>2023-05-25T12:09:30Z</time>
      </trkpt>
      <trkpt lat="49.18434" lon="-0.50162">
        <ele>72.4</ele>
        <time>2023-05-25T12:09:31Z</time>
      </trkpt>
      <trkpt lat="49.18438" lon="-0.50171">
        <ele>72.2</ele>
        <time>2023-05-25T12:09:32Z</time>
      </trkpt>
      <trkpt lat="49.18442" lon="-0.50179">
        <ele>72</ele>
        <time>2023-05-25T12:09:33Z</time>
      </trkpt>
      <trkpt lat="49.18446" lon="-0.50188">
        <ele>71.6</ele>
        <time>2023-05-25T12:09:34Z</time>
      </trkpt>
      <trkpt lat="49.18451" lon="-0.50196">
        <ele>71.4</ele>
        <time>2023-05-25T12:09:35Z</time>
      </trkpt>
      <trkpt lat="49.18456" lon="-0.50204">
        <ele>71</ele>
        <time>2023-05-25T12:09:36Z</time>
      </trkpt>
      <trkpt lat="49.18463" lon="-0.50209">
        <ele>70.8</ele>
        <time>2023-05-25T12:09:37Z</time>
      </trkpt>
      <trkpt lat="49.1847" lon="-0.50214">
        <ele>70.6</ele>
        <time>2023-05-25T12:09:38Z</time>
      </trkpt>
      <trkpt lat="49.18476" lon="-0.50219">
        <ele>70.2</ele>
        <time>2023-05-25T12:09:39Z</time>
      </trkpt>
      <trkpt lat="49.18483" lon="-0.50224">
        <ele>70</ele>
        <time>2023-05-25T12:09:40Z</time>
      </trkpt>
      <trkpt lat="49.18489" lon="-0.50229">
        <ele>69.6</ele>
        <time>2023-05-25T12:09:41Z</time>
      </trkpt>
      <trkpt lat="49.18495" lon="-0.50235">
        <ele>69.4</ele>
        <time>2023-05-25T12:09:42Z</time>
      </trkpt>
      <trkpt lat="49.18501" lon="-0.5024">
        <ele>69</ele>
        <time>2023-05-25T12:09:43Z</time>
      </trkpt>
      <trkpt lat="49.18507" lon="-0.50245">
        <ele>69</ele>
        <time>2023-05-25T12:09:44Z</time>
      </trkpt>
      <trkpt lat="49.18513" lon="-0.50251">
        <ele>68.8</ele>
        <time>2023-05-25T12:09:45Z</time>
      </trkpt>
      <trkpt lat="49.18518" lon="-0.50256">
        <ele>68.6</ele>
        <time>2023-05-25T12:09:46Z</time>
      </trkpt>
      <trkpt lat="49.18524" lon="-0.50261">
        <ele>68.6</ele>
        <time>2023-05-25T12:09:47Z</time>
      </trkpt>
      <trkpt lat="49.18529" lon="-0.50267">
        <ele>68.4</ele>
        <time>2023-05-25T12:09:48Z</time>
      </trkpt>
      <trkpt lat="49.18534" lon="-0.50272">
        <ele>68.2</ele>
        <time>2023-05-25T12:09:49Z</time>
      </trkpt>
      <trkpt lat="49.18539" lon="-0.50278">
        <ele>68</ele>
        <time>2023-05-25T12:09:50Z</time>
      </trkpt>
      <trkpt lat="49.18543" lon="-0.50284">
        <ele>68</ele>
        <time>2023-05-25T12:09:51Z</time>
      </trkpt>
      <trkpt lat="49.18548" lon="-0.5029">
        <ele>67.6</ele>
        <time>2023-05-25T12:09:52Z</time>
      </trkpt>
      <trkpt lat="49.18551" lon="-0.50296">
        <ele>67.6</ele>
        <time>2023-05-25T12:09:53Z</time>
      </trkpt>
      <trkpt lat="49.18555" lon="-0.50304">
        <ele>67.4</ele>
        <time>2023-05-25T12:09:54Z</time>
      </trkpt>
      <trkpt lat="49.18558" lon="-0.50313">
        <ele>67</ele>
        <time>2023-05-25T12:09:55Z</time>
      </trkpt>
      <trkpt lat="49.18561" lon="-0.50323">
        <ele>66.6</ele>
        <time>2023-05-25T12:09:56Z</time>
      </trkpt>
      <trkpt lat="49.18564" lon="-0.50334">
        <ele>66.4</ele>
        <time>2023-05-25T12:09:57Z</time>
      </trkpt>
      <trkpt lat="49.18567" lon="-0.50345">
        <ele>66</ele>
        <time>2023-05-25T12:09:58Z</time>
      </trkpt>
      <trkpt lat="49.1857" lon="-0.50357">
        <ele>65.8</ele>
        <time>2023-05-25T12:09:59Z</time>
      </trkpt>
      <trkpt lat="49.18573" lon="-0.50368">
        <ele>65.4</ele>
        <time>2023-05-25T12:10:00Z</time>
      </trkpt>
      <trkpt lat="49.18577" lon="-0.5038">
        <ele>65</ele>
        <time>2023-05-25T12:10:01Z</time>
      </trkpt>
      <trkpt lat="49.1858" lon="-0.50392">
        <ele>64.6</ele>
        <time>2023-05-25T12:10:02Z</time>
      </trkpt>
      <trkpt lat="49.18584" lon="-0.50404">
        <ele>64.4</ele>
        <time>2023-05-25T12:10:03Z</time>
      </trkpt>
      <trkpt lat="49.18587" lon="-0.50416">
        <ele>64</ele>
        <time>2023-05-25T12:10:04Z</time>
      </trkpt>
      <trkpt lat="49.1859" lon="-0.50428">
        <ele>63.6</ele>
        <time>2023-05-25T12:10:05Z</time>
      </trkpt>
      <trkpt lat="49.18593" lon="-0.5044">
        <ele>63.2</ele>
        <time>2023-05-25T12:10:06Z</time>
      </trkpt>
      <trkpt lat="49.18597" lon="-0.50453">
        <ele>62.8</ele>
        <time>2023-05-25T12:10:07Z</time>
      </trkpt>
      <trkpt lat="49.186" lon="-0.50464">
        <ele>62.6</ele>
        <time>2023-05-25T12:10:08Z</time>
      </trkpt>
      <trkpt lat="49.18604" lon="-0.50476">
        <ele>62</ele>
        <time>2023-05-25T12:10:09Z</time>
      </trkpt>
      <trkpt lat="49.18607" lon="-0.50487">
        <ele>61.8</ele>
        <time>2023-05-25T12:10:10Z</time>
      </trkpt>
      <trkpt lat="49.18611" lon="-0.50499">
        <ele>61.4</ele>
        <time>2023-05-25T12:10:11Z</time>
      </trkpt>
      <trkpt lat="49.18615" lon="-0.5051">
        <ele>61</ele>
        <time>2023-05-25T12:10:12Z</time>
      </trkpt>
      <trkpt lat="49.18619" lon="-0.5052">
        <ele>61</ele>
        <time>2023-05-25T12:10:13Z</time>
      </trkpt>
      <trkpt lat="49.18623" lon="-0.50531">
        <ele>60.8</ele>
        <time>2023-05-25T12:10:14Z</time>
      </trkpt>
      <trkpt lat="49.18627" lon="-0.50541">
        <ele>60.8</ele>
        <time>2023-05-25T12:10:15Z</time>
      </trkpt>
      <trkpt lat="49.18631" lon="-0.50552">
        <ele>60.8</ele>
        <time>2023-05-25T12:10:16Z</time>
      </trkpt>
      <trkpt lat="49.18634" lon="-0.50562">
        <ele>60.8</ele>
        <time>2023-05-25T12:10:17Z</time>
      </trkpt>
      <trkpt lat="49.18638" lon="-0.50572">
        <ele>60.8</ele>
        <time>2023-05-25T12:10:18Z</time>
      </trkpt>
      <trkpt lat="49.18642" lon="-0.50582">
        <ele>60.8</ele>
        <time>2023-05-25T12:10:19Z</time>
      </trkpt>
      <trkpt lat="49.18646" lon="-0.50592">
        <ele>60.8</ele>
        <time>2023-05-25T12:10:20Z</time>
      </trkpt>
      <trkpt lat="49.18649" lon="-0.50602">
        <ele>60.8</ele>
        <time>2023-05-25T12:10:21Z</time>
      </trkpt>
      <trkpt lat="49.18653" lon="-0.50612">
        <ele>61</ele>
        <time>2023-05-25T12:10:22Z</time>
      </trkpt>
      <trkpt lat="49.18656" lon="-0.50621">
        <ele>61</ele>
        <time>2023-05-25T12:10:23Z</time>
      </trkpt>
      <trkpt lat="49.1866" lon="-0.50631">
        <ele>61</ele>
        <time>2023-05-25T12:10:24Z</time>
      </trkpt>
      <trkpt lat="49.18663" lon="-0.50639">
        <ele>61</ele>
        <time>2023-05-25T12:10:25Z</time>
      </trkpt>
      <trkpt lat="49.18667" lon="-0.50647">
        <ele>61</ele>
        <time>2023-05-25T12:10:26Z</time>
      </trkpt>
      <trkpt lat="49.1867" lon="-0.50654">
        <ele>61</ele>
        <time>2023-05-25T12:10:27Z</time>
      </trkpt>
      <trkpt lat="49.18673" lon="-0.50659">
        <ele>61.2</ele>
        <time>2023-05-25T12:10:28Z</time>
      </trkpt>
      <trkpt lat="49.18677" lon="-0.50661">
        <ele>61.2</ele>
        <time>2023-05-25T12:10:29Z</time>
      </trkpt>
      <trkpt lat="49.1868" lon="-0.50662">
        <ele>61.2</ele>
        <time>2023-05-25T12:10:30Z</time>
      </trkpt>
      <trkpt lat="49.18682" lon="-0.50662">
        <ele>61.4</ele>
        <time>2023-05-25T12:10:31Z</time>
      </trkpt>
      <trkpt lat="49.18685" lon="-0.50662">
        <ele>61.4</ele>
        <time>2023-05-25T12:10:32Z</time>
      </trkpt>
      <trkpt lat="49.18688" lon="-0.50662">
        <ele>61.6</ele>
        <time>2023-05-25T12:10:33Z</time>
      </trkpt>
      <trkpt lat="49.18691" lon="-0.50661">
        <ele>61.6</ele>
        <time>2023-05-25T12:10:34Z</time>
      </trkpt>
      <trkpt lat="49.18694" lon="-0.5066">
        <ele>61.8</ele>
        <time>2023-05-25T12:10:35Z</time>
      </trkpt>
      <trkpt lat="49.18698" lon="-0.50658">
        <ele>61.8</ele>
        <time>2023-05-25T12:10:36Z</time>
      </trkpt>
      <trkpt lat="49.18702" lon="-0.50657">
        <ele>61.8</ele>
        <time>2023-05-25T12:10:37Z</time>
      </trkpt>
      <trkpt lat="49.18706" lon="-0.50655">
        <ele>62</ele>
        <time>2023-05-25T12:10:38Z</time>
      </trkpt>
      <trkpt lat="49.1871" lon="-0.50653">
        <ele>62</ele>
        <time>2023-05-25T12:10:39Z</time>
      </trkpt>
      <trkpt lat="49.18714" lon="-0.50652">
        <ele>62</ele>
        <time>2023-05-25T12:10:40Z</time>
      </trkpt>
      <trkpt lat="49.18718" lon="-0.5065">
        <ele>62.2</ele>
        <time>2023-05-25T12:10:41Z</time>
      </trkpt>
      <trkpt lat="49.18722" lon="-0.50648">
        <ele>62.2</ele>
        <time>2023-05-25T12:10:42Z</time>
      </trkpt>
      <trkpt lat="49.18726" lon="-0.50646">
        <ele>62.4</ele>
        <time>2023-05-25T12:10:43Z</time>
      </trkpt>
      <trkpt lat="49.18731" lon="-0.50644">
        <ele>62.6</ele>
        <time>2023-05-25T12:10:44Z</time>
      </trkpt>
      <trkpt lat="49.18735" lon="-0.50641">
        <ele>62.6</ele>
        <time>2023-05-25T12:10:45Z</time>
      </trkpt>
      <trkpt lat="49.18739" lon="-0.50639">
        <ele>62.8</ele>
        <time>2023-05-25T12:10:46Z</time>
      </trkpt>
      <trkpt lat="49.18743" lon="-0.50637">
        <ele>62.8</ele>
        <time>2023-05-25T12:10:47Z</time>
      </trkpt>
      <trkpt lat="49.18747" lon="-0.50635">
        <ele>63</ele>
        <time>2023-05-25T12:10:48Z</time>
      </trkpt>
      <trkpt lat="49.18752" lon="-0.50633">
        <ele>63</ele>
        <time>2023-05-25T12:10:49Z</time>
      </trkpt>
      <trkpt lat="49.18755" lon="-0.50631">
        <ele>63</ele>
        <time>2023-05-25T12:10:50Z</time>
      </trkpt>
      <trkpt lat="49.1876" lon="-0.5063">
        <ele>63</ele>
        <time>2023-05-25T12:10:51Z</time>
      </trkpt>
      <trkpt lat="49.18764" lon="-0.50627">
        <ele>63.2</ele>
        <time>2023-05-25T12:10:52Z</time>
      </trkpt>
      <trkpt lat="49.18768" lon="-0.50625">
        <ele>63.2</ele>
        <time>2023-05-25T12:10:53Z</time>
      </trkpt>
      <trkpt lat="49.18772" lon="-0.50623">
        <ele>63.2</ele>
        <time>2023-05-25T12:10:54Z</time>
      </trkpt>
      <trkpt lat="49.18776" lon="-0.50621">
        <ele>63.2</ele>
        <time>2023-05-25T12:10:55Z</time>
      </trkpt>
      <trkpt lat="49.1878" lon="-0.50619">
        <ele>63.2</ele>
        <time>2023-05-25T12:10:56Z</time>
      </trkpt>
      <trkpt lat="49.18784" lon="-0.50617">
        <ele>63.2</ele>
        <time>2023-05-25T12:10:57Z</time>
      </trkpt>
      <trkpt lat="49.18788" lon="-0.50614">
        <ele>63.2</ele>
        <time>2023-05-25T12:10:58Z</time>
      </trkpt>
      <trkpt lat="49.18792" lon="-0.50612">
        <ele>63.2</ele>
        <time>2023-05-25T12:10:59Z</time>
      </trkpt>
      <trkpt lat="49.18796" lon="-0.50609">
        <ele>63.2</ele>
        <time>2023-05-25T12:11:00Z</time>
      </trkpt>
      <trkpt lat="49.18801" lon="-0.50607">
        <ele>63.2</ele>
        <time>2023-05-25T12:11:01Z</time>
      </trkpt>
      <trkpt lat="49.18805" lon="-0.50605">
        <ele>63.2</ele>
        <time>2023-05-25T12:11:02Z</time>
      </trkpt>
      <trkpt lat="49.18809" lon="-0.50603">
        <ele>63.2</ele>
        <time>2023-05-25T12:11:03Z</time>
      </trkpt>
      <trkpt lat="49.18813" lon="-0.50601">
        <ele>63.2</ele>
        <time>2023-05-25T12:11:04Z</time>
      </trkpt>
      <trkpt lat="49.18817" lon="-0.50599">
        <ele>63.2</ele>
        <time>2023-05-25T12:11:05Z</time>
      </trkpt>
      <trkpt lat="49.18821" lon="-0.50597">
        <ele>63.2</ele>
        <time>2023-05-25T12:11:06Z</time>
      </trkpt>
      <trkpt lat="49.18825" lon="-0.50596">
        <ele>63.2</ele>
        <time>2023-05-25T12:11:07Z</time>
      </trkpt>
      <trkpt lat="49.18829" lon="-0.50594">
        <ele>63.2</ele>
        <time>2023-05-25T12:11:08Z</time>
      </trkpt>
      <trkpt lat="49.18833" lon="-0.50593">
        <ele>63.2</ele>
        <time>2023-05-25T12:11:09Z</time>
      </trkpt>
      <trkpt lat="49.18837" lon="-0.50592">
        <ele>63.6</ele>
        <time>2023-05-25T12:11:10Z</time>
      </trkpt>
      <trkpt lat="49.18842" lon="-0.50592">
        <ele>63.8</ele>
        <time>2023-05-25T12:11:11Z</time>
      </trkpt>
      <trkpt lat="49.18846" lon="-0.50591">
        <ele>64</ele>
        <time>2023-05-25T12:11:12Z</time>
      </trkpt>
      <trkpt lat="49.1885" lon="-0.50591">
        <ele>64.2</ele>
        <time>2023-05-25T12:11:13Z</time>
      </trkpt>
      <trkpt lat="49.18855" lon="-0.5059">
        <ele>64.4</ele>
        <time>2023-05-25T12:11:14Z</time>
      </trkpt>
      <trkpt lat="49.18859" lon="-0.5059">
        <ele>64.6</ele>
        <time>2023-05-25T12:11:15Z</time>
      </trkpt>
      <trkpt lat="49.18863" lon="-0.5059">
        <ele>65</ele>
        <time>2023-05-25T12:11:16Z</time>
      </trkpt>
      <trkpt lat="49.18868" lon="-0.5059">
        <ele>65.2</ele>
        <time>2023-05-25T12:11:17Z</time>
      </trkpt>
      <trkpt lat="49.18872" lon="-0.50591">
        <ele>65.4</ele>
        <time>2023-05-25T12:11:18Z</time>
      </trkpt>
      <trkpt lat="49.18876" lon="-0.50591">
        <ele>65.6</ele>
        <time>2023-05-25T12:11:19Z</time>
      </trkpt>
      <trkpt lat="49.18881" lon="-0.50592">
        <ele>66</ele>
        <time>2023-05-25T12:11:20Z</time>
      </trkpt>
      <trkpt lat="49.18885" lon="-0.50593">
        <ele>66.2</ele>
        <time>2023-05-25T12:11:21Z</time>
      </trkpt>
      <trkpt lat="49.18889" lon="-0.50594">
        <ele>66.4</ele>
        <time>2023-05-25T12:11:22Z</time>
      </trkpt>
      <trkpt lat="49.18893" lon="-0.50596">
        <ele>66.6</ele>
        <time>2023-05-25T12:11:23Z</time>
      </trkpt>
      <trkpt lat="49.18898" lon="-0.50597">
        <ele>67</ele>
        <time>2023-05-25T12:11:24Z</time>
      </trkpt>
      <trkpt lat="49.18902" lon="-0.50599">
        <ele>67.2</ele>
        <time>2023-05-25T12:11:25Z</time>
      </trkpt>
      <trkpt lat="49.18906" lon="-0.50601">
        <ele>67.4</ele>
        <time>2023-05-25T12:11:26Z</time>
      </trkpt>
      <trkpt lat="49.18911" lon="-0.50602">
        <ele>67.6</ele>
        <time>2023-05-25T12:11:27Z</time>
      </trkpt>
      <trkpt lat="49.18915" lon="-0.50604">
        <ele>68</ele>
        <time>2023-05-25T12:11:28Z</time>
      </trkpt>
      <trkpt lat="49.18919" lon="-0.50605">
        <ele>68</ele>
        <time>2023-05-25T12:11:29Z</time>
      </trkpt>
      <trkpt lat="49.18923" lon="-0.50607">
        <ele>68</ele>
        <time>2023-05-25T12:11:30Z</time>
      </trkpt>
      <trkpt lat="49.18927" lon="-0.50609">
        <ele>68</ele>
        <time>2023-05-25T12:11:31Z</time>
      </trkpt>
      <trkpt lat="49.18932" lon="-0.5061">
        <ele>68</ele>
        <time>2023-05-25T12:11:32Z</time>
      </trkpt>
      <trkpt lat="49.18936" lon="-0.50612">
        <ele>68</ele>
        <time>2023-05-25T12:11:33Z</time>
      </trkpt>
      <trkpt lat="49.1894" lon="-0.50614">
        <ele>68</ele>
        <time>2023-05-25T12:11:34Z</time>
      </trkpt>
      <trkpt lat="49.18944" lon="-0.50615">
        <ele>68</ele>
        <time>2023-05-25T12:11:35Z</time>
      </trkpt>
      <trkpt lat="49.18949" lon="-0.50617">
        <ele>68.2</ele>
        <time>2023-05-25T12:11:36Z</time>
      </trkpt>
      <trkpt lat="49.18953" lon="-0.50618">
        <ele>68.2</ele>
        <time>2023-05-25T12:11:37Z</time>
      </trkpt>
      <trkpt lat="49.18958" lon="-0.5062">
        <ele>68.2</ele>
        <time>2023-05-25T12:11:38Z</time>
      </trkpt>
      <trkpt lat="49.18962" lon="-0.50621">
        <ele>68.4</ele>
        <time>2023-05-25T12:11:39Z</time>
      </trkpt>
      <trkpt lat="49.18967" lon="-0.50623">
        <ele>68.4</ele>
        <time>2023-05-25T12:11:40Z</time>
      </trkpt>
      <trkpt lat="49.18972" lon="-0.50625">
        <ele>68.4</ele>
        <time>2023-05-25T12:11:41Z</time>
      </trkpt>
      <trkpt lat="49.18976" lon="-0.50626">
        <ele>68.4</ele>
        <time>2023-05-25T12:11:42Z</time>
      </trkpt>
      <trkpt lat="49.18981" lon="-0.50628">
        <ele>68.4</ele>
        <time>2023-05-25T12:11:43Z</time>
      </trkpt>
      <trkpt lat="49.18985" lon="-0.5063">
        <ele>68.6</ele>
        <time>2023-05-25T12:11:44Z</time>
      </trkpt>
      <trkpt lat="49.1899" lon="-0.50631">
        <ele>68.6</ele>
        <time>2023-05-25T12:11:45Z</time>
      </trkpt>
      <trkpt lat="49.18995" lon="-0.50633">
        <ele>68.6</ele>
        <time>2023-05-25T12:11:46Z</time>
      </trkpt>
      <trkpt lat="49.19" lon="-0.50635">
        <ele>68.6</ele>
        <time>2023-05-25T12:11:47Z</time>
      </trkpt>
      <trkpt lat="49.19004" lon="-0.50636">
        <ele>68.6</ele>
        <time>2023-05-25T12:11:48Z</time>
      </trkpt>
      <trkpt lat="49.19009" lon="-0.50638">
        <ele>69</ele>
        <time>2023-05-25T12:11:49Z</time>
      </trkpt>
      <trkpt lat="49.19014" lon="-0.5064">
        <ele>69</ele>
        <time>2023-05-25T12:11:50Z</time>
      </trkpt>
      <trkpt lat="49.19019" lon="-0.50641">
        <ele>69.2</ele>
        <time>2023-05-25T12:11:51Z</time>
      </trkpt>
      <trkpt lat="49.19024" lon="-0.50643">
        <ele>69.4</ele>
        <time>2023-05-25T12:11:52Z</time>
      </trkpt>
      <trkpt lat="49.19029" lon="-0.50645">
        <ele>69.4</ele>
        <time>2023-05-25T12:11:53Z</time>
      </trkpt>
      <trkpt lat="49.19035" lon="-0.50647">
        <ele>69.6</ele>
        <time>2023-05-25T12:11:54Z</time>
      </trkpt>
      <trkpt lat="49.1904" lon="-0.50648">
        <ele>69.6</ele>
        <time>2023-05-25T12:11:55Z</time>
      </trkpt>
      <trkpt lat="49.19045" lon="-0.5065">
        <ele>70</ele>
        <time>2023-05-25T12:11:56Z</time>
      </trkpt>
      <trkpt lat="49.19051" lon="-0.50652">
        <ele>70</ele>
        <time>2023-05-25T12:11:57Z</time>
      </trkpt>
      <trkpt lat="49.19056" lon="-0.50654">
        <ele>70.2</ele>
        <time>2023-05-25T12:11:58Z</time>
      </trkpt>
      <trkpt lat="49.19061" lon="-0.50656">
        <ele>70.4</ele>
        <time>2023-05-25T12:11:59Z</time>
      </trkpt>
      <trkpt lat="49.19067" lon="-0.50658">
        <ele>70.6</ele>
        <time>2023-05-25T12:12:00Z</time>
      </trkpt>
      <trkpt lat="49.19073" lon="-0.5066">
        <ele>70.6</ele>
        <time>2023-05-25T12:12:01Z</time>
      </trkpt>
      <trkpt lat="49.19078" lon="-0.50662">
        <ele>70.8</ele>
        <time>2023-05-25T12:12:02Z</time>
      </trkpt>
      <trkpt lat="49.19083" lon="-0.50664">
        <ele>71</ele>
        <time>2023-05-25T12:12:03Z</time>
      </trkpt>
      <trkpt lat="49.19089" lon="-0.50666">
        <ele>71</ele>
        <time>2023-05-25T12:12:04Z</time>
      </trkpt>
      <trkpt lat="49.19094" lon="-0.50668">
        <ele>71</ele>
        <time>2023-05-25T12:12:05Z</time>
      </trkpt>
      <trkpt lat="49.191" lon="-0.5067">
        <ele>70.8</ele>
        <time>2023-05-25T12:12:06Z</time>
      </trkpt>
      <trkpt lat="49.19105" lon="-0.50672">
        <ele>70.6</ele>
        <time>2023-05-25T12:12:07Z</time>
      </trkpt>
      <trkpt lat="49.19111" lon="-0.50674">
        <ele>70.6</ele>
        <time>2023-05-25T12:12:08Z</time>
      </trkpt>
      <trkpt lat="49.19116" lon="-0.50677">
        <ele>70.6</ele>
        <time>2023-05-25T12:12:09Z</time>
      </trkpt>
      <trkpt lat="49.19121" lon="-0.50679">
        <ele>70.6</ele>
        <time>2023-05-25T12:12:10Z</time>
      </trkpt>
      <trkpt lat="49.19127" lon="-0.50682">
        <ele>70.4</ele>
        <time>2023-05-25T12:12:11Z</time>
      </trkpt>
      <trkpt lat="49.19132" lon="-0.50684">
        <ele>70.4</ele>
        <time>2023-05-25T12:12:12Z</time>
      </trkpt>
      <trkpt lat="49.19137" lon="-0.50687">
        <ele>70.4</ele>
        <time>2023-05-25T12:12:13Z</time>
      </trkpt>
      <trkpt lat="49.19143" lon="-0.5069">
        <ele>70.2</ele>
        <time>2023-05-25T12:12:14Z</time>
      </trkpt>
      <trkpt lat="49.19148" lon="-0.50692">
        <ele>70.2</ele>
        <time>2023-05-25T12:12:15Z</time>
      </trkpt>
      <trkpt lat="49.19153" lon="-0.50695">
        <ele>70</ele>
        <time>2023-05-25T12:12:16Z</time>
      </trkpt>
      <trkpt lat="49.19159" lon="-0.50698">
        <ele>70</ele>
        <time>2023-05-25T12:12:17Z</time>
      </trkpt>
      <trkpt lat="49.19164" lon="-0.50701">
        <ele>70</ele>
        <time>2023-05-25T12:12:18Z</time>
      </trkpt>
      <trkpt lat="49.19169" lon="-0.50704">
        <ele>70</ele>
        <time>2023-05-25T12:12:19Z</time>
      </trkpt>
      <trkpt lat="49.19174" lon="-0.50707">
        <ele>70</ele>
        <time>2023-05-25T12:12:20Z</time>
      </trkpt>
      <trkpt lat="49.19179" lon="-0.50711">
        <ele>70</ele>
        <time>2023-05-25T12:12:21Z</time>
      </trkpt>
      <trkpt lat="49.19184" lon="-0.50714">
        <ele>70</ele>
        <time>2023-05-25T12:12:22Z</time>
      </trkpt>
      <trkpt lat="49.19189" lon="-0.50717">
        <ele>70.2</ele>
        <time>2023-05-25T12:12:23Z</time>
      </trkpt>
      <trkpt lat="49.19194" lon="-0.50721">
        <ele>70.2</ele>
        <time>2023-05-25T12:12:24Z</time>
      </trkpt>
      <trkpt lat="49.19199" lon="-0.50725">
        <ele>70.4</ele>
        <time>2023-05-25T12:12:25Z</time>
      </trkpt>
      <trkpt lat="49.19204" lon="-0.50728">
        <ele>70.4</ele>
        <time>2023-05-25T12:12:26Z</time>
      </trkpt>
      <trkpt lat="49.19209" lon="-0.50732">
        <ele>70.4</ele>
        <time>2023-05-25T12:12:27Z</time>
      </trkpt>
      <trkpt lat="49.19214" lon="-0.50736">
        <ele>70.6</ele>
        <time>2023-05-25T12:12:28Z</time>
      </trkpt>
      <trkpt lat="49.19219" lon="-0.50739">
        <ele>70.6</ele>
        <time>2023-05-25T12:12:29Z</time>
      </trkpt>
      <trkpt lat="49.19224" lon="-0.50743">
        <ele>70.6</ele>
        <time>2023-05-25T12:12:30Z</time>
      </trkpt>
      <trkpt lat="49.19228" lon="-0.50747">
        <ele>70.6</ele>
        <time>2023-05-25T12:12:31Z</time>
      </trkpt>
      <trkpt lat="49.19233" lon="-0.5075">
        <ele>70.8</ele>
        <time>2023-05-25T12:12:32Z</time>
      </trkpt>
      <trkpt lat="49.19238" lon="-0.50754">
        <ele>70.8</ele>
        <time>2023-05-25T12:12:33Z</time>
      </trkpt>
      <trkpt lat="49.19242" lon="-0.50757">
        <ele>71</ele>
        <time>2023-05-25T12:12:34Z</time>
      </trkpt>
      <trkpt lat="49.19247" lon="-0.50759">
        <ele>71</ele>
        <time>2023-05-25T12:12:35Z</time>
      </trkpt>
      <trkpt lat="49.19252" lon="-0.50762">
        <ele>71</ele>
        <time>2023-05-25T12:12:36Z</time>
      </trkpt>
      <trkpt lat="49.19257" lon="-0.50763">
        <ele>71</ele>
        <time>2023-05-25T12:12:37Z</time>
      </trkpt>
      <trkpt lat="49.19262" lon="-0.50765">
        <ele>71</ele>
        <time>2023-05-25T12:12:38Z</time>
      </trkpt>
      <trkpt lat="49.19267" lon="-0.50766">
        <ele>70.8</ele>
        <time>2023-05-25T12:12:39Z</time>
      </trkpt>
      <trkpt lat="49.19272" lon="-0.50767">
        <ele>70.6</ele>
        <time>2023-05-25T12:12:40Z</time>
      </trkpt>
      <trkpt lat="49.19277" lon="-0.50768">
        <ele>70.6</ele>
        <time>2023-05-25T12:12:41Z</time>
      </trkpt>
      <trkpt lat="49.19282" lon="-0.50769">
        <ele>70.6</ele>
        <time>2023-05-25T12:12:42Z</time>
      </trkpt>
      <trkpt lat="49.19286" lon="-0.50771">
        <ele>70.6</ele>
        <time>2023-05-25T12:12:43Z</time>
      </trkpt>
      <trkpt lat="49.19291" lon="-0.50774">
        <ele>70.6</ele>
        <time>2023-05-25T12:12:44Z</time>
      </trkpt>
      <trkpt lat="49.19294" lon="-0.50778">
        <ele>70.6</ele>
        <time>2023-05-25T12:12:45Z</time>
      </trkpt>
      <trkpt lat="49.19296" lon="-0.50784">
        <ele>70.4</ele>
        <time>2023-05-25T12:12:46Z</time>
      </trkpt>
      <trkpt lat="49.19299" lon="-0.5079">
        <ele>70.4</ele>
        <time>2023-05-25T12:12:47Z</time>
      </trkpt>
      <trkpt lat="49.19301" lon="-0.50797">
        <ele>70.4</ele>
        <time>2023-05-25T12:12:48Z</time>
      </trkpt>
      <trkpt lat="49.19304" lon="-0.50804">
        <ele>70.4</ele>
        <time>2023-05-25T12:12:49Z</time>
      </trkpt>
      <trkpt lat="49.19307" lon="-0.50812">
        <ele>70.4</ele>
        <time>2023-05-25T12:12:50Z</time>
      </trkpt>
      <trkpt lat="49.1931" lon="-0.50819">
        <ele>70.4</ele>
        <time>2023-05-25T12:12:51Z</time>
      </trkpt>
      <trkpt lat="49.19314" lon="-0.50826">
        <ele>70.2</ele>
        <time>2023-05-25T12:12:52Z</time>
      </trkpt>
      <trkpt lat="49.19317" lon="-0.50833">
        <ele>70.2</ele>
        <time>2023-05-25T12:12:53Z</time>
      </trkpt>
      <trkpt lat="49.19321" lon="-0.5084">
        <ele>70.2</ele>
        <time>2023-05-25T12:12:54Z</time>
      </trkpt>
      <trkpt lat="49.19325" lon="-0.50847">
        <ele>70.2</ele>
        <time>2023-05-25T12:12:55Z</time>
      </trkpt>
      <trkpt lat="49.19329" lon="-0.50853">
        <ele>70.4</ele>
        <time>2023-05-25T12:12:56Z</time>
      </trkpt>
      <trkpt lat="49.19332" lon="-0.5086">
        <ele>70.4</ele>
        <time>2023-05-25T12:12:57Z</time>
      </trkpt>
      <trkpt lat="49.19336" lon="-0.50867">
        <ele>70.4</ele>
        <time>2023-05-25T12:12:58Z</time>
      </trkpt>
      <trkpt lat="49.19339" lon="-0.50874">
        <ele>70.4</ele>
        <time>2023-05-25T12:12:59Z</time>
      </trkpt>
      <trkpt lat="49.19343" lon="-0.5088">
        <ele>70.6</ele>
        <time>2023-05-25T12:13:00Z</time>
      </trkpt>
      <trkpt lat="49.19346" lon="-0.50887">
        <ele>70.6</ele>
        <time>2023-05-25T12:13:01Z</time>
      </trkpt>
      <trkpt lat="49.1935" lon="-0.50894">
        <ele>70.6</ele>
        <time>2023-05-25T12:13:02Z</time>
      </trkpt>
      <trkpt lat="49.19353" lon="-0.50901">
        <ele>70.6</ele>
        <time>2023-05-25T12:13:03Z</time>
      </trkpt>
      <trkpt lat="49.19357" lon="-0.50908">
        <ele>70.6</ele>
        <time>2023-05-25T12:13:04Z</time>
      </trkpt>
      <trkpt lat="49.19361" lon="-0.50915">
        <ele>70.6</ele>
        <time>2023-05-25T12:13:05Z</time>
      </trkpt>
      <trkpt lat="49.19364" lon="-0.50922">
        <ele>70.6</ele>
        <time>2023-05-25T12:13:06Z</time>
      </trkpt>
      <trkpt lat="49.19368" lon="-0.50928">
        <ele>70.6</ele>
        <time>2023-05-25T12:13:07Z</time>
      </trkpt>
      <trkpt lat="49.19372" lon="-0.50935">
        <ele>70.6</ele>
        <time>2023-05-25T12:13:08Z</time>
      </trkpt>
      <trkpt lat="49.19375" lon="-0.50942">
        <ele>70.6</ele>
        <time>2023-05-25T12:13:09Z</time>
      </trkpt>
      <trkpt lat="49.19379" lon="-0.50949">
        <ele>70.6</ele>
        <time>2023-05-25T12:13:10Z</time>
      </trkpt>
      <trkpt lat="49.19383" lon="-0.50956">
        <ele>70.6</ele>
        <time>2023-05-25T12:13:11Z</time>
      </trkpt>
      <trkpt lat="49.19386" lon="-0.50963">
        <ele>70.6</ele>
        <time>2023-05-25T12:13:12Z</time>
      </trkpt>
      <trkpt lat="49.1939" lon="-0.5097">
        <ele>70.8</ele>
        <time>2023-05-25T12:13:13Z</time>
      </trkpt>
      <trkpt lat="49.19394" lon="-0.50977">
        <ele>70.8</ele>
        <time>2023-05-25T12:13:14Z</time>
      </trkpt>
      <trkpt lat="49.19397" lon="-0.50984">
        <ele>71</ele>
        <time>2023-05-25T12:13:15Z</time>
      </trkpt>
      <trkpt lat="49.19401" lon="-0.50992">
        <ele>71</ele>
        <time>2023-05-25T12:13:16Z</time>
      </trkpt>
      <trkpt lat="49.19404" lon="-0.50999">
        <ele>71</ele>
        <time>2023-05-25T12:13:17Z</time>
      </trkpt>
      <trkpt lat="49.19407" lon="-0.51006">
        <ele>71</ele>
        <time>2023-05-25T12:13:18Z</time>
      </trkpt>
      <trkpt lat="49.19411" lon="-0.51013">
        <ele>70.8</ele>
        <time>2023-05-25T12:13:19Z</time>
      </trkpt>
      <trkpt lat="49.19414" lon="-0.5102">
        <ele>70.8</ele>
        <time>2023-05-25T12:13:20Z</time>
      </trkpt>
      <trkpt lat="49.19418" lon="-0.51027">
        <ele>70.6</ele>
        <time>2023-05-25T12:13:21Z</time>
      </trkpt>
      <trkpt lat="49.19422" lon="-0.51034">
        <ele>70.6</ele>
        <time>2023-05-25T12:13:22Z</time>
      </trkpt>
      <trkpt lat="49.19427" lon="-0.51041">
        <ele>70.6</ele>
        <time>2023-05-25T12:13:23Z</time>
      </trkpt>
      <trkpt lat="49.19432" lon="-0.51047">
        <ele>70.6</ele>
        <time>2023-05-25T12:13:24Z</time>
      </trkpt>
      <trkpt lat="49.19437" lon="-0.51054">
        <ele>70.6</ele>
        <time>2023-05-25T12:13:25Z</time>
      </trkpt>
      <trkpt lat="49.19443" lon="-0.51059">
        <ele>70.6</ele>
        <time>2023-05-25T12:13:26Z</time>
      </trkpt>
      <trkpt lat="49.19448" lon="-0.51064">
        <ele>70.6</ele>
        <time>2023-05-25T12:13:27Z</time>
      </trkpt>
      <trkpt lat="49.19455" lon="-0.51069">
        <ele>70.6</ele>
        <time>2023-05-25T12:13:28Z</time>
      </trkpt>
      <trkpt lat="49.19461" lon="-0.51073">
        <ele>70.6</ele>
        <time>2023-05-25T12:13:29Z</time>
      </trkpt>
      <trkpt lat="49.19467" lon="-0.51077">
        <ele>70.6</ele>
        <time>2023-05-25T12:13:30Z</time>
      </trkpt>
      <trkpt lat="49.19473" lon="-0.51081">
        <ele>70.6</ele>
        <time>2023-05-25T12:13:31Z</time>
      </trkpt>
      <trkpt lat="49.19479" lon="-0.51086">
        <ele>70.6</ele>
        <time>2023-05-25T12:13:32Z</time>
      </trkpt>
      <trkpt lat="49.19485" lon="-0.5109">
        <ele>70.6</ele>
        <time>2023-05-25T12:13:33Z</time>
      </trkpt>
      <trkpt lat="49.19491" lon="-0.51094">
        <ele>70.6</ele>
        <time>2023-05-25T12:13:34Z</time>
      </trkpt>
      <trkpt lat="49.19497" lon="-0.51098">
        <ele>70.4</ele>
        <time>2023-05-25T12:13:35Z</time>
      </trkpt>
      <trkpt lat="49.19503" lon="-0.51102">
        <ele>70.4</ele>
        <time>2023-05-25T12:13:36Z</time>
      </trkpt>
      <trkpt lat="49.19508" lon="-0.51107">
        <ele>70</ele>
        <time>2023-05-25T12:13:37Z</time>
      </trkpt>
      <trkpt lat="49.19514" lon="-0.51112">
        <ele>69.8</ele>
        <time>2023-05-25T12:13:38Z</time>
      </trkpt>
      <trkpt lat="49.19519" lon="-0.51117">
        <ele>69.6</ele>
        <time>2023-05-25T12:13:39Z</time>
      </trkpt>
      <trkpt lat="49.19524" lon="-0.51124">
        <ele>69.4</ele>
        <time>2023-05-25T12:13:40Z</time>
      </trkpt>
      <trkpt lat="49.19529" lon="-0.51131">
        <ele>69.2</ele>
        <time>2023-05-25T12:13:41Z</time>
      </trkpt>
      <trkpt lat="49.19533" lon="-0.51139">
        <ele>69</ele>
        <time>2023-05-25T12:13:42Z</time>
      </trkpt>
      <trkpt lat="49.19538" lon="-0.51146">
        <ele>69</ele>
        <time>2023-05-25T12:13:43Z</time>
      </trkpt>
      <trkpt lat="49.19542" lon="-0.51155">
        <ele>68.6</ele>
        <time>2023-05-25T12:13:44Z</time>
      </trkpt>
      <trkpt lat="49.19546" lon="-0.51163">
        <ele>68.6</ele>
        <time>2023-05-25T12:13:45Z</time>
      </trkpt>
      <trkpt lat="49.19549" lon="-0.51171">
        <ele>68.6</ele>
        <time>2023-05-25T12:13:46Z</time>
      </trkpt>
      <trkpt lat="49.19553" lon="-0.5118">
        <ele>68.6</ele>
        <time>2023-05-25T12:13:47Z</time>
      </trkpt>
      <trkpt lat="49.19556" lon="-0.51189">
        <ele>68.6</ele>
        <time>2023-05-25T12:13:48Z</time>
      </trkpt>
      <trkpt lat="49.19559" lon="-0.51198">
        <ele>68.6</ele>
        <time>2023-05-25T12:13:49Z</time>
      </trkpt>
      <trkpt lat="49.19562" lon="-0.51207">
        <ele>68.6</ele>
        <time>2023-05-25T12:13:50Z</time>
      </trkpt>
      <trkpt lat="49.19565" lon="-0.51216">
        <ele>68.8</ele>
        <time>2023-05-25T12:13:51Z</time>
      </trkpt>
      <trkpt lat="49.19567" lon="-0.51225">
        <ele>68.8</ele>
        <time>2023-05-25T12:13:52Z</time>
      </trkpt>
      <trkpt lat="49.1957" lon="-0.51234">
        <ele>68.8</ele>
        <time>2023-05-25T12:13:53Z</time>
      </trkpt>
      <trkpt lat="49.19572" lon="-0.51244">
        <ele>69</ele>
        <time>2023-05-25T12:13:54Z</time>
      </trkpt>
      <trkpt lat="49.19574" lon="-0.51253">
        <ele>69</ele>
        <time>2023-05-25T12:13:55Z</time>
      </trkpt>
      <trkpt lat="49.19576" lon="-0.51262">
        <ele>69</ele>
        <time>2023-05-25T12:13:56Z</time>
      </trkpt>
      <trkpt lat="49.19578" lon="-0.51272">
        <ele>69.2</ele>
        <time>2023-05-25T12:13:57Z</time>
      </trkpt>
      <trkpt lat="49.1958" lon="-0.51281">
        <ele>69.4</ele>
        <time>2023-05-25T12:13:58Z</time>
      </trkpt>
      <trkpt lat="49.19582" lon="-0.5129">
        <ele>69.6</ele>
        <time>2023-05-25T12:13:59Z</time>
      </trkpt>
      <trkpt lat="49.19583" lon="-0.513">
        <ele>69.6</ele>
        <time>2023-05-25T12:14:00Z</time>
      </trkpt>
      <trkpt lat="49.19585" lon="-0.51309">
        <ele>69.6</ele>
        <time>2023-05-25T12:14:01Z</time>
      </trkpt>
      <trkpt lat="49.19587" lon="-0.51318">
        <ele>69.8</ele>
        <time>2023-05-25T12:14:02Z</time>
      </trkpt>
      <trkpt lat="49.19589" lon="-0.51328">
        <ele>70</ele>
        <time>2023-05-25T12:14:03Z</time>
      </trkpt>
      <trkpt lat="49.19591" lon="-0.51337">
        <ele>70</ele>
        <time>2023-05-25T12:14:04Z</time>
      </trkpt>
      <trkpt lat="49.19593" lon="-0.51346">
        <ele>70</ele>
        <time>2023-05-25T12:14:05Z</time>
      </trkpt>
      <trkpt lat="49.19595" lon="-0.51355">
        <ele>70</ele>
        <time>2023-05-25T12:14:06Z</time>
      </trkpt>
      <trkpt lat="49.19597" lon="-0.51364">
        <ele>70</ele>
        <time>2023-05-25T12:14:07Z</time>
      </trkpt>
      <trkpt lat="49.19599" lon="-0.51373">
        <ele>70</ele>
        <time>2023-05-25T12:14:08Z</time>
      </trkpt>
      <trkpt lat="49.19601" lon="-0.51382">
        <ele>70</ele>
        <time>2023-05-25T12:14:09Z</time>
      </trkpt>
      <trkpt lat="49.19603" lon="-0.5139">
        <ele>70</ele>
        <time>2023-05-25T12:14:10Z</time>
      </trkpt>
      <trkpt lat="49.19605" lon="-0.51399">
        <ele>70</ele>
        <time>2023-05-25T12:14:11Z</time>
      </trkpt>
      <trkpt lat="49.19608" lon="-0.51408">
        <ele>70</ele>
        <time>2023-05-25T12:14:12Z</time>
      </trkpt>
      <trkpt lat="49.19611" lon="-0.51416">
        <ele>70</ele>
        <time>2023-05-25T12:14:13Z</time>
      </trkpt>
      <trkpt lat="49.19614" lon="-0.51424">
        <ele>70</ele>
        <time>2023-05-25T12:14:14Z</time>
      </trkpt>
      <trkpt lat="49.19619" lon="-0.5143">
        <ele>70</ele>
        <time>2023-05-25T12:14:15Z</time>
      </trkpt>
      <trkpt lat="49.19624" lon="-0.51435">
        <ele>70</ele>
        <time>2023-05-25T12:14:16Z</time>
      </trkpt>
      <trkpt lat="49.19629" lon="-0.51439">
        <ele>70</ele>
        <time>2023-05-25T12:14:17Z</time>
      </trkpt>
      <trkpt lat="49.19635" lon="-0.51442">
        <ele>70</ele>
        <time>2023-05-25T12:14:18Z</time>
      </trkpt>
      <trkpt lat="49.19641" lon="-0.51443">
        <ele>70</ele>
        <time>2023-05-25T12:14:19Z</time>
      </trkpt>
      <trkpt lat="49.19646" lon="-0.51443">
        <ele>70</ele>
        <time>2023-05-25T12:14:20Z</time>
      </trkpt>
      <trkpt lat="49.19652" lon="-0.51442">
        <ele>70</ele>
        <time>2023-05-25T12:14:21Z</time>
      </trkpt>
      <trkpt lat="49.19658" lon="-0.51441">
        <ele>70</ele>
        <time>2023-05-25T12:14:22Z</time>
      </trkpt>
      <trkpt lat="49.19663" lon="-0.51438">
        <ele>70</ele>
        <time>2023-05-25T12:14:23Z</time>
      </trkpt>
      <trkpt lat="49.19668" lon="-0.51436">
        <ele>70</ele>
        <time>2023-05-25T12:14:24Z</time>
      </trkpt>
      <trkpt lat="49.19674" lon="-0.51433">
        <ele>70</ele>
        <time>2023-05-25T12:14:25Z</time>
      </trkpt>
      <trkpt lat="49.19679" lon="-0.51431">
        <ele>69.8</ele>
        <time>2023-05-25T12:14:26Z</time>
      </trkpt>
      <trkpt lat="49.19684" lon="-0.51428">
        <ele>69.6</ele>
        <time>2023-05-25T12:14:27Z</time>
      </trkpt>
      <trkpt lat="49.1969" lon="-0.51426">
        <ele>69.6</ele>
        <time>2023-05-25T12:14:28Z</time>
      </trkpt>
      <trkpt lat="49.19695" lon="-0.51424">
        <ele>69.4</ele>
        <time>2023-05-25T12:14:29Z</time>
      </trkpt>
      <trkpt lat="49.19701" lon="-0.51421">
        <ele>69.2</ele>
        <time>2023-05-25T12:14:30Z</time>
      </trkpt>
      <trkpt lat="49.19706" lon="-0.51419">
        <ele>69</ele>
        <time>2023-05-25T12:14:31Z</time>
      </trkpt>
      <trkpt lat="49.19711" lon="-0.51416">
        <ele>69</ele>
        <time>2023-05-25T12:14:32Z</time>
      </trkpt>
      <trkpt lat="49.19715" lon="-0.51413">
        <ele>68.8</ele>
        <time>2023-05-25T12:14:33Z</time>
      </trkpt>
      <trkpt lat="49.19719" lon="-0.5141">
        <ele>68.6</ele>
        <time>2023-05-25T12:14:34Z</time>
      </trkpt>
      <trkpt lat="49.19724" lon="-0.51409">
        <ele>68.6</ele>
        <time>2023-05-25T12:14:35Z</time>
      </trkpt>
      <trkpt lat="49.19727" lon="-0.5141">
        <ele>68.6</ele>
        <time>2023-05-25T12:14:36Z</time>
      </trkpt>
      <trkpt lat="49.1973" lon="-0.51414">
        <ele>68.6</ele>
        <time>2023-05-25T12:14:37Z</time>
      </trkpt>
      <trkpt lat="49.19731" lon="-0.5142">
        <ele>68.6</ele>
        <time>2023-05-25T12:14:38Z</time>
      </trkpt>
      <trkpt lat="49.19732" lon="-0.51426">
        <ele>68.6</ele>
        <time>2023-05-25T12:14:39Z</time>
      </trkpt>
      <trkpt lat="49.19733" lon="-0.51432">
        <ele>68.6</ele>
        <time>2023-05-25T12:14:40Z</time>
      </trkpt>
      <trkpt lat="49.19735" lon="-0.51438">
        <ele>68.8</ele>
        <time>2023-05-25T12:14:41Z</time>
      </trkpt>
      <trkpt lat="49.19736" lon="-0.51445">
        <ele>69</ele>
        <time>2023-05-25T12:14:42Z</time>
      </trkpt>
      <trkpt lat="49.19737" lon="-0.51452">
        <ele>69</ele>
        <time>2023-05-25T12:14:43Z</time>
      </trkpt>
      <trkpt lat="49.19739" lon="-0.51459">
        <ele>69.2</ele>
        <time>2023-05-25T12:14:44Z</time>
      </trkpt>
      <trkpt lat="49.19739" lon="-0.51467">
        <ele>69.4</ele>
        <time>2023-05-25T12:14:45Z</time>
      </trkpt>
      <trkpt lat="49.1974" lon="-0.51474">
        <ele>69.6</ele>
        <time>2023-05-25T12:14:46Z</time>
      </trkpt>
      <trkpt lat="49.19741" lon="-0.51482">
        <ele>69.6</ele>
        <time>2023-05-25T12:14:47Z</time>
      </trkpt>
      <trkpt lat="49.19741" lon="-0.5149">
        <ele>69.8</ele>
        <time>2023-05-25T12:14:48Z</time>
      </trkpt>
      <trkpt lat="49.19742" lon="-0.51498">
        <ele>70</ele>
        <time>2023-05-25T12:14:49Z</time>
      </trkpt>
      <trkpt lat="49.19742" lon="-0.51506">
        <ele>70</ele>
        <time>2023-05-25T12:14:50Z</time>
      </trkpt>
      <trkpt lat="49.19742" lon="-0.51514">
        <ele>70.2</ele>
        <time>2023-05-25T12:14:51Z</time>
      </trkpt>
      <trkpt lat="49.19742" lon="-0.51523">
        <ele>70.4</ele>
        <time>2023-05-25T12:14:52Z</time>
      </trkpt>
      <trkpt lat="49.19742" lon="-0.51531">
        <ele>70.4</ele>
        <time>2023-05-25T12:14:53Z</time>
      </trkpt>
      <trkpt lat="49.19741" lon="-0.51539">
        <ele>70.6</ele>
        <time>2023-05-25T12:14:54Z</time>
      </trkpt>
      <trkpt lat="49.19741" lon="-0.51547">
        <ele>70.6</ele>
        <time>2023-05-25T12:14:55Z</time>
      </trkpt>
      <trkpt lat="49.19741" lon="-0.51555">
        <ele>70.6</ele>
        <time>2023-05-25T12:14:56Z</time>
      </trkpt>
      <trkpt lat="49.1974" lon="-0.51564">
        <ele>71</ele>
        <time>2023-05-25T12:14:57Z</time>
      </trkpt>
      <trkpt lat="49.1974" lon="-0.51572">
        <ele>71</ele>
        <time>2023-05-25T12:14:58Z</time>
      </trkpt>
      <trkpt lat="49.1974" lon="-0.5158">
        <ele>71</ele>
        <time>2023-05-25T12:14:59Z</time>
      </trkpt>
      <trkpt lat="49.19741" lon="-0.51589">
        <ele>71</ele>
        <time>2023-05-25T12:15:00Z</time>
      </trkpt>
      <trkpt lat="49.19741" lon="-0.51597">
        <ele>71</ele>
        <time>2023-05-25T12:15:01Z</time>
      </trkpt>
      <trkpt lat="49.19742" lon="-0.51606">
        <ele>71</ele>
        <time>2023-05-25T12:15:02Z</time>
      </trkpt>
      <trkpt lat="49.19742" lon="-0.51614">
        <ele>71</ele>
        <time>2023-05-25T12:15:03Z</time>
      </trkpt>
      <trkpt lat="49.19743" lon="-0.51622">
        <ele>71</ele>
        <time>2023-05-25T12:15:04Z</time>
      </trkpt>
      <trkpt lat="49.19743" lon="-0.51631">
        <ele>71</ele>
        <time>2023-05-25T12:15:05Z</time>
      </trkpt>
      <trkpt lat="49.19744" lon="-0.51639">
        <ele>71</ele>
        <time>2023-05-25T12:15:06Z</time>
      </trkpt>
      <trkpt lat="49.19744" lon="-0.51647">
        <ele>71</ele>
        <time>2023-05-25T12:15:07Z</time>
      </trkpt>
      <trkpt lat="49.19745" lon="-0.51655">
        <ele>71</ele>
        <time>2023-05-25T12:15:08Z</time>
      </trkpt>
      <trkpt lat="49.19746" lon="-0.51664">
        <ele>71</ele>
        <time>2023-05-25T12:15:09Z</time>
      </trkpt>
      <trkpt lat="49.19746" lon="-0.51672">
        <ele>71</ele>
        <time>2023-05-25T12:15:10Z</time>
      </trkpt>
      <trkpt lat="49.19747" lon="-0.5168">
        <ele>70.8</ele>
        <time>2023-05-25T12:15:11Z</time>
      </trkpt>
      <trkpt lat="49.19747" lon="-0.51688">
        <ele>70.6</ele>
        <time>2023-05-25T12:15:12Z</time>
      </trkpt>
      <trkpt lat="49.19748" lon="-0.51696">
        <ele>70.6</ele>
        <time>2023-05-25T12:15:13Z</time>
      </trkpt>
      <trkpt lat="49.19749" lon="-0.51705">
        <ele>70.6</ele>
        <time>2023-05-25T12:15:14Z</time>
      </trkpt>
      <trkpt lat="49.1975" lon="-0.51713">
        <ele>70.4</ele>
        <time>2023-05-25T12:15:15Z</time>
      </trkpt>
      <trkpt lat="49.19751" lon="-0.51721">
        <ele>70.4</ele>
        <time>2023-05-25T12:15:16Z</time>
      </trkpt>
      <trkpt lat="49.19752" lon="-0.5173">
        <ele>70.2</ele>
        <time>2023-05-25T12:15:17Z</time>
      </trkpt>
      <trkpt lat="49.19753" lon="-0.51738">
        <ele>70</ele>
        <time>2023-05-25T12:15:18Z</time>
      </trkpt>
      <trkpt lat="49.19755" lon="-0.51747">
        <ele>70</ele>
        <time>2023-05-25T12:15:19Z</time>
      </trkpt>
      <trkpt lat="49.19756" lon="-0.51755">
        <ele>70</ele>
        <time>2023-05-25T12:15:20Z</time>
      </trkpt>
      <trkpt lat="49.19758" lon="-0.51763">
        <ele>70.2</ele>
        <time>2023-05-25T12:15:21Z</time>
      </trkpt>
      <trkpt lat="49.1976" lon="-0.51772">
        <ele>70.4</ele>
        <time>2023-05-25T12:15:22Z</time>
      </trkpt>
      <trkpt lat="49.19762" lon="-0.5178">
        <ele>70.4</ele>
        <time>2023-05-25T12:15:23Z</time>
      </trkpt>
      <trkpt lat="49.19763" lon="-0.51788">
        <ele>70.6</ele>
        <time>2023-05-25T12:15:24Z</time>
      </trkpt>
      <trkpt lat="49.19765" lon="-0.51796">
        <ele>70.6</ele>
        <time>2023-05-25T12:15:25Z</time>
      </trkpt>
      <trkpt lat="49.19767" lon="-0.51805">
        <ele>70.6</ele>
        <time>2023-05-25T12:15:26Z</time>
      </trkpt>
      <trkpt lat="49.19769" lon="-0.51813">
        <ele>70.8</ele>
        <time>2023-05-25T12:15:27Z</time>
      </trkpt>
      <trkpt lat="49.19771" lon="-0.5182">
        <ele>70.8</ele>
        <time>2023-05-25T12:15:28Z</time>
      </trkpt>
      <trkpt lat="49.19773" lon="-0.51829">
        <ele>71</ele>
        <time>2023-05-25T12:15:29Z</time>
      </trkpt>
      <trkpt lat="49.19774" lon="-0.51836">
        <ele>71</ele>
        <time>2023-05-25T12:15:30Z</time>
      </trkpt>
      <trkpt lat="49.19776" lon="-0.51844">
        <ele>71</ele>
        <time>2023-05-25T12:15:31Z</time>
      </trkpt>
      <trkpt lat="49.19778" lon="-0.51852">
        <ele>71.2</ele>
        <time>2023-05-25T12:15:32Z</time>
      </trkpt>
      <trkpt lat="49.1978" lon="-0.5186">
        <ele>71.2</ele>
        <time>2023-05-25T12:15:33Z</time>
      </trkpt>
      <trkpt lat="49.19782" lon="-0.51868">
        <ele>71.4</ele>
        <time>2023-05-25T12:15:34Z</time>
      </trkpt>
      <trkpt lat="49.19784" lon="-0.51876">
        <ele>71.4</ele>
        <time>2023-05-25T12:15:35Z</time>
      </trkpt>
      <trkpt lat="49.19787" lon="-0.51884">
        <ele>71.4</ele>
        <time>2023-05-25T12:15:36Z</time>
      </trkpt>
      <trkpt lat="49.19789" lon="-0.51892">
        <ele>71.4</ele>
        <time>2023-05-25T12:15:37Z</time>
      </trkpt>
      <trkpt lat="49.19791" lon="-0.519">
        <ele>71.4</ele>
        <time>2023-05-25T12:15:38Z</time>
      </trkpt>
      <trkpt lat="49.19793" lon="-0.51908">
        <ele>71.4</ele>
        <time>2023-05-25T12:15:39Z</time>
      </trkpt>
      <trkpt lat="49.19796" lon="-0.51916">
        <ele>71.6</ele>
        <time>2023-05-25T12:15:40Z</time>
      </trkpt>
      <trkpt lat="49.19798" lon="-0.51924">
        <ele>71.4</ele>
        <time>2023-05-25T12:15:41Z</time>
      </trkpt>
      <trkpt lat="49.198" lon="-0.51932">
        <ele>71.4</ele>
        <time>2023-05-25T12:15:42Z</time>
      </trkpt>
      <trkpt lat="49.19803" lon="-0.5194">
        <ele>71.2</ele>
        <time>2023-05-25T12:15:43Z</time>
      </trkpt>
      <trkpt lat="49.19805" lon="-0.51948">
        <ele>71</ele>
        <time>2023-05-25T12:15:44Z</time>
      </trkpt>
      <trkpt lat="49.19808" lon="-0.51956">
        <ele>71</ele>
        <time>2023-05-25T12:15:45Z</time>
      </trkpt>
      <trkpt lat="49.1981" lon="-0.51964">
        <ele>71</ele>
        <time>2023-05-25T12:15:46Z</time>
      </trkpt>
      <trkpt lat="49.19812" lon="-0.51972">
        <ele>70.8</ele>
        <time>2023-05-25T12:15:47Z</time>
      </trkpt>
      <trkpt lat="49.19815" lon="-0.5198">
        <ele>70.6</ele>
        <time>2023-05-25T12:15:48Z</time>
      </trkpt>
      <trkpt lat="49.19817" lon="-0.51988">
        <ele>70.6</ele>
        <time>2023-05-25T12:15:49Z</time>
      </trkpt>
      <trkpt lat="49.1982" lon="-0.51996">
        <ele>70.4</ele>
        <time>2023-05-25T12:15:50Z</time>
      </trkpt>
      <trkpt lat="49.19822" lon="-0.52004">
        <ele>70.4</ele>
        <time>2023-05-25T12:15:51Z</time>
      </trkpt>
      <trkpt lat="49.19824" lon="-0.52012">
        <ele>70.4</ele>
        <time>2023-05-25T12:15:52Z</time>
      </trkpt>
      <trkpt lat="49.19827" lon="-0.52019">
        <ele>70.4</ele>
        <time>2023-05-25T12:15:53Z</time>
      </trkpt>
      <trkpt lat="49.19829" lon="-0.52028">
        <ele>70.4</ele>
        <time>2023-05-25T12:15:54Z</time>
      </trkpt>
      <trkpt lat="49.19832" lon="-0.52036">
        <ele>70.4</ele>
        <time>2023-05-25T12:15:55Z</time>
      </trkpt>
      <trkpt lat="49.19834" lon="-0.52043">
        <ele>70.6</ele>
        <time>2023-05-25T12:15:56Z</time>
      </trkpt>
      <trkpt lat="49.19837" lon="-0.52052">
        <ele>70.6</ele>
        <time>2023-05-25T12:15:57Z</time>
      </trkpt>
      <trkpt lat="49.19839" lon="-0.5206">
        <ele>70.6</ele>
        <time>2023-05-25T12:15:58Z</time>
      </trkpt>
      <trkpt lat="49.19841" lon="-0.52068">
        <ele>70.6</ele>
        <time>2023-05-25T12:15:59Z</time>
      </trkpt>
      <trkpt lat="49.19843" lon="-0.52077">
        <ele>70.6</ele>
        <time>2023-05-25T12:16:00Z</time>
      </trkpt>
      <trkpt lat="49.19845" lon="-0.52085">
        <ele>70.6</ele>
        <time>2023-05-25T12:16:01Z</time>
      </trkpt>
      <trkpt lat="49.19847" lon="-0.52094">
        <ele>70.4</ele>
        <time>2023-05-25T12:16:02Z</time>
      </trkpt>
      <trkpt lat="49.19848" lon="-0.52103">
        <ele>70.4</ele>
        <time>2023-05-25T12:16:03Z</time>
      </trkpt>
      <trkpt lat="49.1985" lon="-0.52112">
        <ele>70</ele>
        <time>2023-05-25T12:16:04Z</time>
      </trkpt>
      <trkpt lat="49.19851" lon="-0.52121">
        <ele>70</ele>
        <time>2023-05-25T12:16:05Z</time>
      </trkpt>
      <trkpt lat="49.19853" lon="-0.5213">
        <ele>70</ele>
        <time>2023-05-25T12:16:06Z</time>
      </trkpt>
      <trkpt lat="49.19854" lon="-0.52139">
        <ele>69.8</ele>
        <time>2023-05-25T12:16:07Z</time>
      </trkpt>
      <trkpt lat="49.19855" lon="-0.52148">
        <ele>69.6</ele>
        <time>2023-05-25T12:16:08Z</time>
      </trkpt>
      <trkpt lat="49.19857" lon="-0.52157">
        <ele>69.6</ele>
        <time>2023-05-25T12:16:09Z</time>
      </trkpt>
      <trkpt lat="49.19858" lon="-0.52166">
        <ele>69.4</ele>
        <time>2023-05-25T12:16:10Z</time>
      </trkpt>
      <trkpt lat="49.1986" lon="-0.52175">
        <ele>69.4</ele>
        <time>2023-05-25T12:16:11Z</time>
      </trkpt>
      <trkpt lat="49.19861" lon="-0.52184">
        <ele>69.4</ele>
        <time>2023-05-25T12:16:12Z</time>
      </trkpt>
      <trkpt lat="49.19863" lon="-0.52193">
        <ele>69.4</ele>
        <time>2023-05-25T12:16:13Z</time>
      </trkpt>
      <trkpt lat="49.19864" lon="-0.52203">
        <ele>69.4</ele>
        <time>2023-05-25T12:16:14Z</time>
      </trkpt>
      <trkpt lat="49.19866" lon="-0.52212">
        <ele>69.2</ele>
        <time>2023-05-25T12:16:15Z</time>
      </trkpt>
      <trkpt lat="49.19867" lon="-0.52221">
        <ele>69.2</ele>
        <time>2023-05-25T12:16:16Z</time>
      </trkpt>
      <trkpt lat="49.19869" lon="-0.52231">
        <ele>69.2</ele>
        <time>2023-05-25T12:16:17Z</time>
      </trkpt>
      <trkpt lat="49.1987" lon="-0.5224">
        <ele>69</ele>
        <time>2023-05-25T12:16:18Z</time>
      </trkpt>
      <trkpt lat="49.19872" lon="-0.5225">
        <ele>69</ele>
        <time>2023-05-25T12:16:19Z</time>
      </trkpt>
      <trkpt lat="49.19873" lon="-0.52259">
        <ele>69</ele>
        <time>2023-05-25T12:16:20Z</time>
      </trkpt>
      <trkpt lat="49.19875" lon="-0.52269">
        <ele>69</ele>
        <time>2023-05-25T12:16:21Z</time>
      </trkpt>
      <trkpt lat="49.19876" lon="-0.52279">
        <ele>69</ele>
        <time>2023-05-25T12:16:22Z</time>
      </trkpt>
      <trkpt lat="49.19878" lon="-0.52289">
        <ele>69.2</ele>
        <time>2023-05-25T12:16:23Z</time>
      </trkpt>
      <trkpt lat="49.1988" lon="-0.52299">
        <ele>69.2</ele>
        <time>2023-05-25T12:16:24Z</time>
      </trkpt>
      <trkpt lat="49.19881" lon="-0.52309">
        <ele>69.4</ele>
        <time>2023-05-25T12:16:25Z</time>
      </trkpt>
      <trkpt lat="49.19883" lon="-0.52319">
        <ele>69.4</ele>
        <time>2023-05-25T12:16:26Z</time>
      </trkpt>
      <trkpt lat="49.19884" lon="-0.52329">
        <ele>69.4</ele>
        <time>2023-05-25T12:16:27Z</time>
      </trkpt>
      <trkpt lat="49.19886" lon="-0.52339">
        <ele>69.4</ele>
        <time>2023-05-25T12:16:28Z</time>
      </trkpt>
      <trkpt lat="49.19887" lon="-0.52349">
        <ele>69.4</ele>
        <time>2023-05-25T12:16:29Z</time>
      </trkpt>
      <trkpt lat="49.19889" lon="-0.52358">
        <ele>69.4</ele>
        <time>2023-05-25T12:16:30Z</time>
      </trkpt>
      <trkpt lat="49.1989" lon="-0.52368">
        <ele>69.4</ele>
        <time>2023-05-25T12:16:31Z</time>
      </trkpt>
      <trkpt lat="49.19892" lon="-0.52377">
        <ele>69.6</ele>
        <time>2023-05-25T12:16:32Z</time>
      </trkpt>
      <trkpt lat="49.19894" lon="-0.52387">
        <ele>69.6</ele>
        <time>2023-05-25T12:16:33Z</time>
      </trkpt>
      <trkpt lat="49.19895" lon="-0.52397">
        <ele>69.6</ele>
        <time>2023-05-25T12:16:34Z</time>
      </trkpt>
      <trkpt lat="49.19897" lon="-0.52407">
        <ele>69.6</ele>
        <time>2023-05-25T12:16:35Z</time>
      </trkpt>
      <trkpt lat="49.19898" lon="-0.52416">
        <ele>69.4</ele>
        <time>2023-05-25T12:16:36Z</time>
      </trkpt>
      <trkpt lat="49.199" lon="-0.52426">
        <ele>69.4</ele>
        <time>2023-05-25T12:16:37Z</time>
      </trkpt>
      <trkpt lat="49.19901" lon="-0.52436">
        <ele>69</ele>
        <time>2023-05-25T12:16:38Z</time>
      </trkpt>
      <trkpt lat="49.19903" lon="-0.52445">
        <ele>69</ele>
        <time>2023-05-25T12:16:39Z</time>
      </trkpt>
      <trkpt lat="49.19905" lon="-0.52455">
        <ele>68.8</ele>
        <time>2023-05-25T12:16:40Z</time>
      </trkpt>
      <trkpt lat="49.19906" lon="-0.52465">
        <ele>68.6</ele>
        <time>2023-05-25T12:16:41Z</time>
      </trkpt>
      <trkpt lat="49.19908" lon="-0.52474">
        <ele>68.4</ele>
        <time>2023-05-25T12:16:42Z</time>
      </trkpt>
      <trkpt lat="49.1991" lon="-0.52484">
        <ele>68.4</ele>
        <time>2023-05-25T12:16:43Z</time>
      </trkpt>
      <trkpt lat="49.19911" lon="-0.52493">
        <ele>68.2</ele>
        <time>2023-05-25T12:16:44Z</time>
      </trkpt>
      <trkpt lat="49.19913" lon="-0.52503">
        <ele>68</ele>
        <time>2023-05-25T12:16:45Z</time>
      </trkpt>
      <trkpt lat="49.19914" lon="-0.52512">
        <ele>68.2</ele>
        <time>2023-05-25T12:16:46Z</time>
      </trkpt>
      <trkpt lat="49.19916" lon="-0.52522">
        <ele>68.4</ele>
        <time>2023-05-25T12:16:47Z</time>
      </trkpt>
      <trkpt lat="49.19917" lon="-0.52531">
        <ele>68.4</ele>
        <time>2023-05-25T12:16:48Z</time>
      </trkpt>
      <trkpt lat="49.19919" lon="-0.52541">
        <ele>68.6</ele>
        <time>2023-05-25T12:16:49Z</time>
      </trkpt>
      <trkpt lat="49.19921" lon="-0.52551">
        <ele>68.6</ele>
        <time>2023-05-25T12:16:50Z</time>
      </trkpt>
      <trkpt lat="49.19922" lon="-0.5256">
        <ele>68.6</ele>
        <time>2023-05-25T12:16:51Z</time>
      </trkpt>
      <trkpt lat="49.19923" lon="-0.5257">
        <ele>68.8</ele>
        <time>2023-05-25T12:16:52Z</time>
      </trkpt>
      <trkpt lat="49.19924" lon="-0.5258">
        <ele>69</ele>
        <time>2023-05-25T12:16:53Z</time>
      </trkpt>
      <trkpt lat="49.19925" lon="-0.52589">
        <ele>69</ele>
        <time>2023-05-25T12:16:54Z</time>
      </trkpt>
      <trkpt lat="49.19924" lon="-0.52599">
        <ele>69.2</ele>
        <time>2023-05-25T12:16:55Z</time>
      </trkpt>
      <trkpt lat="49.19923" lon="-0.52609">
        <ele>69.4</ele>
        <time>2023-05-25T12:16:56Z</time>
      </trkpt>
      <trkpt lat="49.19921" lon="-0.52618">
        <ele>69.4</ele>
        <time>2023-05-25T12:16:57Z</time>
      </trkpt>
      <trkpt lat="49.19919" lon="-0.52627">
        <ele>69.6</ele>
        <time>2023-05-25T12:16:58Z</time>
      </trkpt>
      <trkpt lat="49.19915" lon="-0.52636">
        <ele>69.6</ele>
        <time>2023-05-25T12:16:59Z</time>
      </trkpt>
      <trkpt lat="49.19912" lon="-0.52644">
        <ele>69.8</ele>
        <time>2023-05-25T12:17:00Z</time>
      </trkpt>
      <trkpt lat="49.19908" lon="-0.52653">
        <ele>70</ele>
        <time>2023-05-25T12:17:01Z</time>
      </trkpt>
      <trkpt lat="49.19904" lon="-0.52661">
        <ele>70.2</ele>
        <time>2023-05-25T12:17:02Z</time>
      </trkpt>
      <trkpt lat="49.199" lon="-0.5267">
        <ele>70.4</ele>
        <time>2023-05-25T12:17:03Z</time>
      </trkpt>
      <trkpt lat="49.19896" lon="-0.52678">
        <ele>70.6</ele>
        <time>2023-05-25T12:17:04Z</time>
      </trkpt>
      <trkpt lat="49.19892" lon="-0.52686">
        <ele>70.8</ele>
        <time>2023-05-25T12:17:05Z</time>
      </trkpt>
      <trkpt lat="49.19888" lon="-0.52695">
        <ele>71</ele>
        <time>2023-05-25T12:17:06Z</time>
      </trkpt>
      <trkpt lat="49.19884" lon="-0.52703">
        <ele>71.2</ele>
        <time>2023-05-25T12:17:07Z</time>
      </trkpt>
      <trkpt lat="49.1988" lon="-0.52712">
        <ele>71.4</ele>
        <time>2023-05-25T12:17:08Z</time>
      </trkpt>
      <trkpt lat="49.19875" lon="-0.5272">
        <ele>71.6</ele>
        <time>2023-05-25T12:17:09Z</time>
      </trkpt>
      <trkpt lat="49.19871" lon="-0.52728">
        <ele>71.8</ele>
        <time>2023-05-25T12:17:10Z</time>
      </trkpt>
      <trkpt lat="49.19868" lon="-0.52736">
        <ele>72</ele>
        <time>2023-05-25T12:17:11Z</time>
      </trkpt>
      <trkpt lat="49.19864" lon="-0.52745">
        <ele>72.2</ele>
        <time>2023-05-25T12:17:12Z</time>
      </trkpt>
      <trkpt lat="49.1986" lon="-0.52753">
        <ele>72.4</ele>
        <time>2023-05-25T12:17:13Z</time>
      </trkpt>
      <trkpt lat="49.19856" lon="-0.52761">
        <ele>72.6</ele>
        <time>2023-05-25T12:17:14Z</time>
      </trkpt>
      <trkpt lat="49.19852" lon="-0.52769">
        <ele>72.6</ele>
        <time>2023-05-25T12:17:15Z</time>
      </trkpt>
      <trkpt lat="49.19848" lon="-0.52777">
        <ele>72.6</ele>
        <time>2023-05-25T12:17:16Z</time>
      </trkpt>
      <trkpt lat="49.19844" lon="-0.52785">
        <ele>72.8</ele>
        <time>2023-05-25T12:17:17Z</time>
      </trkpt>
      <trkpt lat="49.1984" lon="-0.52793">
        <ele>73</ele>
        <time>2023-05-25T12:17:18Z</time>
      </trkpt>
      <trkpt lat="49.19836" lon="-0.52801">
        <ele>73</ele>
        <time>2023-05-25T12:17:19Z</time>
      </trkpt>
      <trkpt lat="49.19832" lon="-0.52809">
        <ele>73</ele>
        <time>2023-05-25T12:17:20Z</time>
      </trkpt>
      <trkpt lat="49.19828" lon="-0.52817">
        <ele>73</ele>
        <time>2023-05-25T12:17:21Z</time>
      </trkpt>
      <trkpt lat="49.19824" lon="-0.52825">
        <ele>73</ele>
        <time>2023-05-25T12:17:22Z</time>
      </trkpt>
      <trkpt lat="49.1982" lon="-0.52833">
        <ele>73.2</ele>
        <time>2023-05-25T12:17:23Z</time>
      </trkpt>
      <trkpt lat="49.19816" lon="-0.52841">
        <ele>73.2</ele>
        <time>2023-05-25T12:17:24Z</time>
      </trkpt>
      <trkpt lat="49.19812" lon="-0.52849">
        <ele>73.2</ele>
        <time>2023-05-25T12:17:25Z</time>
      </trkpt>
      <trkpt lat="49.19808" lon="-0.52856">
        <ele>73.2</ele>
        <time>2023-05-25T12:17:26Z</time>
      </trkpt>
      <trkpt lat="49.19804" lon="-0.52865">
        <ele>73.2</ele>
        <time>2023-05-25T12:17:27Z</time>
      </trkpt>
      <trkpt lat="49.198" lon="-0.52873">
        <ele>73.2</ele>
        <time>2023-05-25T12:17:28Z</time>
      </trkpt>
      <trkpt lat="49.19796" lon="-0.5288">
        <ele>73.2</ele>
        <time>2023-05-25T12:17:29Z</time>
      </trkpt>
      <trkpt lat="49.19792" lon="-0.52889">
        <ele>73.2</ele>
        <time>2023-05-25T12:17:30Z</time>
      </trkpt>
      <trkpt lat="49.19789" lon="-0.52896">
        <ele>73</ele>
        <time>2023-05-25T12:17:31Z</time>
      </trkpt>
      <trkpt lat="49.19785" lon="-0.52904">
        <ele>73</ele>
        <time>2023-05-25T12:17:32Z</time>
      </trkpt>
      <trkpt lat="49.19781" lon="-0.52912">
        <ele>73</ele>
        <time>2023-05-25T12:17:33Z</time>
      </trkpt>
      <trkpt lat="49.19777" lon="-0.5292">
        <ele>73</ele>
        <time>2023-05-25T12:17:34Z</time>
      </trkpt>
      <trkpt lat="49.19773" lon="-0.52928">
        <ele>73</ele>
        <time>2023-05-25T12:17:35Z</time>
      </trkpt>
      <trkpt lat="49.1977" lon="-0.52935">
        <ele>73.2</ele>
        <time>2023-05-25T12:17:36Z</time>
      </trkpt>
      <trkpt lat="49.19766" lon="-0.52943">
        <ele>73.4</ele>
        <time>2023-05-25T12:17:37Z</time>
      </trkpt>
      <trkpt lat="49.19762" lon="-0.52951">
        <ele>73.4</ele>
        <time>2023-05-25T12:17:38Z</time>
      </trkpt>
      <trkpt lat="49.19758" lon="-0.52958">
        <ele>73.6</ele>
        <time>2023-05-25T12:17:39Z</time>
      </trkpt>
      <trkpt lat="49.19754" lon="-0.52966">
        <ele>73.6</ele>
        <time>2023-05-25T12:17:40Z</time>
      </trkpt>
      <trkpt lat="49.19751" lon="-0.52974">
        <ele>73.6</ele>
        <time>2023-05-25T12:17:41Z</time>
      </trkpt>
      <trkpt lat="49.19747" lon="-0.52981">
        <ele>73.8</ele>
        <time>2023-05-25T12:17:42Z</time>
      </trkpt>
      <trkpt lat="49.19743" lon="-0.52989">
        <ele>74</ele>
        <time>2023-05-25T12:17:43Z</time>
      </trkpt>
      <trkpt lat="49.1974" lon="-0.52997">
        <ele>74.2</ele>
        <time>2023-05-25T12:17:44Z</time>
      </trkpt>
      <trkpt lat="49.19737" lon="-0.53006">
        <ele>74.4</ele>
        <time>2023-05-25T12:17:45Z</time>
      </trkpt>
      <trkpt lat="49.19734" lon="-0.53015">
        <ele>74.4</ele>
        <time>2023-05-25T12:17:46Z</time>
      </trkpt>
      <trkpt lat="49.19732" lon="-0.53024">
        <ele>74.4</ele>
        <time>2023-05-25T12:17:47Z</time>
      </trkpt>
      <trkpt lat="49.1973" lon="-0.53033">
        <ele>74.6</ele>
        <time>2023-05-25T12:17:48Z</time>
      </trkpt>
      <trkpt lat="49.19728" lon="-0.53042">
        <ele>74.6</ele>
        <time>2023-05-25T12:17:49Z</time>
      </trkpt>
      <trkpt lat="49.19726" lon="-0.53051">
        <ele>74.6</ele>
        <time>2023-05-25T12:17:50Z</time>
      </trkpt>
      <trkpt lat="49.19725" lon="-0.5306">
        <ele>74.6</ele>
        <time>2023-05-25T12:17:51Z</time>
      </trkpt>
      <trkpt lat="49.19723" lon="-0.5307">
        <ele>74.6</ele>
        <time>2023-05-25T12:17:52Z</time>
      </trkpt>
      <trkpt lat="49.19722" lon="-0.53079">
        <ele>74.6</ele>
        <time>2023-05-25T12:17:53Z</time>
      </trkpt>
      <trkpt lat="49.19721" lon="-0.53088">
        <ele>74.6</ele>
        <time>2023-05-25T12:17:54Z</time>
      </trkpt>
      <trkpt lat="49.1972" lon="-0.53098">
        <ele>74.6</ele>
        <time>2023-05-25T12:17:55Z</time>
      </trkpt>
      <trkpt lat="49.19718" lon="-0.53108">
        <ele>74.8</ele>
        <time>2023-05-25T12:17:56Z</time>
      </trkpt>
      <trkpt lat="49.19717" lon="-0.53117">
        <ele>74.8</ele>
        <time>2023-05-25T12:17:57Z</time>
      </trkpt>
      <trkpt lat="49.19716" lon="-0.53127">
        <ele>74.8</ele>
        <time>2023-05-25T12:17:58Z</time>
      </trkpt>
      <trkpt lat="49.19715" lon="-0.53136">
        <ele>74.8</ele>
        <time>2023-05-25T12:17:59Z</time>
      </trkpt>
      <trkpt lat="49.19714" lon="-0.53146">
        <ele>75</ele>
        <time>2023-05-25T12:18:00Z</time>
      </trkpt>
      <trkpt lat="49.19712" lon="-0.53155">
        <ele>75</ele>
        <time>2023-05-25T12:18:01Z</time>
      </trkpt>
      <trkpt lat="49.19711" lon="-0.53164">
        <ele>75</ele>
        <time>2023-05-25T12:18:02Z</time>
      </trkpt>
      <trkpt lat="49.1971" lon="-0.53174">
        <ele>75</ele>
        <time>2023-05-25T12:18:03Z</time>
      </trkpt>
      <trkpt lat="49.19709" lon="-0.53183">
        <ele>75</ele>
        <time>2023-05-25T12:18:04Z</time>
      </trkpt>
      <trkpt lat="49.19708" lon="-0.53192">
        <ele>75.2</ele>
        <time>2023-05-25T12:18:05Z</time>
      </trkpt>
      <trkpt lat="49.19706" lon="-0.53201">
        <ele>75.2</ele>
        <time>2023-05-25T12:18:06Z</time>
      </trkpt>
      <trkpt lat="49.19705" lon="-0.53211">
        <ele>75.4</ele>
        <time>2023-05-25T12:18:07Z</time>
      </trkpt>
      <trkpt lat="49.19704" lon="-0.5322">
        <ele>75.4</ele>
        <time>2023-05-25T12:18:08Z</time>
      </trkpt>
      <trkpt lat="49.19703" lon="-0.53229">
        <ele>75.6</ele>
        <time>2023-05-25T12:18:09Z</time>
      </trkpt>
      <trkpt lat="49.19702" lon="-0.53238">
        <ele>75.6</ele>
        <time>2023-05-25T12:18:10Z</time>
      </trkpt>
      <trkpt lat="49.197" lon="-0.53248">
        <ele>75.6</ele>
        <time>2023-05-25T12:18:11Z</time>
      </trkpt>
      <trkpt lat="49.19699" lon="-0.53257">
        <ele>75.6</ele>
        <time>2023-05-25T12:18:12Z</time>
      </trkpt>
      <trkpt lat="49.19698" lon="-0.53266">
        <ele>75.6</ele>
        <time>2023-05-25T12:18:13Z</time>
      </trkpt>
      <trkpt lat="49.19697" lon="-0.53275">
        <ele>75.6</ele>
        <time>2023-05-25T12:18:14Z</time>
      </trkpt>
      <trkpt lat="49.19696" lon="-0.53284">
        <ele>75.6</ele>
        <time>2023-05-25T12:18:15Z</time>
      </trkpt>
      <trkpt lat="49.19694" lon="-0.53294">
        <ele>75.6</ele>
        <time>2023-05-25T12:18:16Z</time>
      </trkpt>
      <trkpt lat="49.19693" lon="-0.53303">
        <ele>75.6</ele>
        <time>2023-05-25T12:18:17Z</time>
      </trkpt>
      <trkpt lat="49.19692" lon="-0.53313">
        <ele>75.6</ele>
        <time>2023-05-25T12:18:18Z</time>
      </trkpt>
      <trkpt lat="49.19691" lon="-0.53322">
        <ele>75.6</ele>
        <time>2023-05-25T12:18:19Z</time>
      </trkpt>
      <trkpt lat="49.19689" lon="-0.53332">
        <ele>75.6</ele>
        <time>2023-05-25T12:18:20Z</time>
      </trkpt>
      <trkpt lat="49.19688" lon="-0.53342">
        <ele>75.6</ele>
        <time>2023-05-25T12:18:21Z</time>
      </trkpt>
      <trkpt lat="49.19687" lon="-0.53351">
        <ele>75.6</ele>
        <time>2023-05-25T12:18:22Z</time>
      </trkpt>
      <trkpt lat="49.19685" lon="-0.5336">
        <ele>75.6</ele>
        <time>2023-05-25T12:18:23Z</time>
      </trkpt>
      <trkpt lat="49.19684" lon="-0.53369">
        <ele>75.4</ele>
        <time>2023-05-25T12:18:24Z</time>
      </trkpt>
      <trkpt lat="49.19683" lon="-0.53378">
        <ele>75.4</ele>
        <time>2023-05-25T12:18:25Z</time>
      </trkpt>
      <trkpt lat="49.19682" lon="-0.53387">
        <ele>75.2</ele>
        <time>2023-05-25T12:18:26Z</time>
      </trkpt>
      <trkpt lat="49.19681" lon="-0.53396">
        <ele>75</ele>
        <time>2023-05-25T12:18:27Z</time>
      </trkpt>
      <trkpt lat="49.1968" lon="-0.53404">
        <ele>75</ele>
        <time>2023-05-25T12:18:28Z</time>
      </trkpt>
      <trkpt lat="49.19679" lon="-0.53413">
        <ele>75</ele>
        <time>2023-05-25T12:18:29Z</time>
      </trkpt>
      <trkpt lat="49.19677" lon="-0.53422">
        <ele>74.8</ele>
        <time>2023-05-25T12:18:30Z</time>
      </trkpt>
      <trkpt lat="49.19676" lon="-0.53431">
        <ele>74.6</ele>
        <time>2023-05-25T12:18:31Z</time>
      </trkpt>
      <trkpt lat="49.19675" lon="-0.5344">
        <ele>74.6</ele>
        <time>2023-05-25T12:18:32Z</time>
      </trkpt>
      <trkpt lat="49.19674" lon="-0.5345">
        <ele>74.6</ele>
        <time>2023-05-25T12:18:33Z</time>
      </trkpt>
      <trkpt lat="49.19672" lon="-0.53459">
        <ele>74.6</ele>
        <time>2023-05-25T12:18:34Z</time>
      </trkpt>
      <trkpt lat="49.19671" lon="-0.53469">
        <ele>74.4</ele>
        <time>2023-05-25T12:18:35Z</time>
      </trkpt>
      <trkpt lat="49.1967" lon="-0.53479">
        <ele>74.2</ele>
        <time>2023-05-25T12:18:36Z</time>
      </trkpt>
      <trkpt lat="49.19668" lon="-0.53488">
        <ele>74</ele>
        <time>2023-05-25T12:18:37Z</time>
      </trkpt>
      <trkpt lat="49.19667" lon="-0.53498">
        <ele>74</ele>
        <time>2023-05-25T12:18:38Z</time>
      </trkpt>
      <trkpt lat="49.19666" lon="-0.53508">
        <ele>74.2</ele>
        <time>2023-05-25T12:18:39Z</time>
      </trkpt>
      <trkpt lat="49.19664" lon="-0.53517">
        <ele>74.6</ele>
        <time>2023-05-25T12:18:40Z</time>
      </trkpt>
      <trkpt lat="49.19663" lon="-0.53527">
        <ele>74.6</ele>
        <time>2023-05-25T12:18:41Z</time>
      </trkpt>
      <trkpt lat="49.19662" lon="-0.53536">
        <ele>75</ele>
        <time>2023-05-25T12:18:42Z</time>
      </trkpt>
      <trkpt lat="49.19661" lon="-0.53546">
        <ele>75.2</ele>
        <time>2023-05-25T12:18:43Z</time>
      </trkpt>
      <trkpt lat="49.1966" lon="-0.53556">
        <ele>75.4</ele>
        <time>2023-05-25T12:18:44Z</time>
      </trkpt>
      <trkpt lat="49.19658" lon="-0.53565">
        <ele>75.6</ele>
        <time>2023-05-25T12:18:45Z</time>
      </trkpt>
      <trkpt lat="49.19657" lon="-0.53575">
        <ele>75.8</ele>
        <time>2023-05-25T12:18:46Z</time>
      </trkpt>
      <trkpt lat="49.19656" lon="-0.53584">
        <ele>76</ele>
        <time>2023-05-25T12:18:47Z</time>
      </trkpt>
      <trkpt lat="49.19655" lon="-0.53593">
        <ele>75.8</ele>
        <time>2023-05-25T12:18:48Z</time>
      </trkpt>
      <trkpt lat="49.19654" lon="-0.53603">
        <ele>75.6</ele>
        <time>2023-05-25T12:18:49Z</time>
      </trkpt>
      <trkpt lat="49.19653" lon="-0.53612">
        <ele>75.4</ele>
        <time>2023-05-25T12:18:50Z</time>
      </trkpt>
      <trkpt lat="49.19652" lon="-0.53622">
        <ele>75.2</ele>
        <time>2023-05-25T12:18:51Z</time>
      </trkpt>
      <trkpt lat="49.1965" lon="-0.53631">
        <ele>75</ele>
        <time>2023-05-25T12:18:52Z</time>
      </trkpt>
      <trkpt lat="49.19649" lon="-0.53641">
        <ele>74.8</ele>
        <time>2023-05-25T12:18:53Z</time>
      </trkpt>
      <trkpt lat="49.19648" lon="-0.53651">
        <ele>74.6</ele>
        <time>2023-05-25T12:18:54Z</time>
      </trkpt>
      <trkpt lat="49.19647" lon="-0.5366">
        <ele>74.4</ele>
        <time>2023-05-25T12:18:55Z</time>
      </trkpt>
      <trkpt lat="49.19645" lon="-0.5367">
        <ele>74.2</ele>
        <time>2023-05-25T12:18:56Z</time>
      </trkpt>
      <trkpt lat="49.19644" lon="-0.5368">
        <ele>74</ele>
        <time>2023-05-25T12:18:57Z</time>
      </trkpt>
      <trkpt lat="49.19643" lon="-0.5369">
        <ele>73.6</ele>
        <time>2023-05-25T12:18:58Z</time>
      </trkpt>
      <trkpt lat="49.19642" lon="-0.53699">
        <ele>73.6</ele>
        <time>2023-05-25T12:18:59Z</time>
      </trkpt>
      <trkpt lat="49.19641" lon="-0.53709">
        <ele>73.4</ele>
        <time>2023-05-25T12:19:00Z</time>
      </trkpt>
      <trkpt lat="49.1964" lon="-0.53719">
        <ele>73</ele>
        <time>2023-05-25T12:19:01Z</time>
      </trkpt>
      <trkpt lat="49.19639" lon="-0.53729">
        <ele>72.8</ele>
        <time>2023-05-25T12:19:02Z</time>
      </trkpt>
      <trkpt lat="49.19638" lon="-0.53739">
        <ele>72.6</ele>
        <time>2023-05-25T12:19:03Z</time>
      </trkpt>
      <trkpt lat="49.19636" lon="-0.53749">
        <ele>72.4</ele>
        <time>2023-05-25T12:19:04Z</time>
      </trkpt>
      <trkpt lat="49.19635" lon="-0.53759">
        <ele>72.4</ele>
        <time>2023-05-25T12:19:05Z</time>
      </trkpt>
      <trkpt lat="49.19633" lon="-0.53769">
        <ele>72.2</ele>
        <time>2023-05-25T12:19:06Z</time>
      </trkpt>
      <trkpt lat="49.19632" lon="-0.53781">
        <ele>72</ele>
        <time>2023-05-25T12:19:07Z</time>
      </trkpt>
      <trkpt lat="49.1963" lon="-0.53792">
        <ele>72</ele>
        <time>2023-05-25T12:19:08Z</time>
      </trkpt>
      <trkpt lat="49.19629" lon="-0.53804">
        <ele>71.8</ele>
        <time>2023-05-25T12:19:09Z</time>
      </trkpt>
      <trkpt lat="49.19627" lon="-0.53815">
        <ele>71.6</ele>
        <time>2023-05-25T12:19:10Z</time>
      </trkpt>
      <trkpt lat="49.19625" lon="-0.53827">
        <ele>71.6</ele>
        <time>2023-05-25T12:19:11Z</time>
      </trkpt>
      <trkpt lat="49.19623" lon="-0.53839">
        <ele>71.6</ele>
        <time>2023-05-25T12:19:12Z</time>
      </trkpt>
      <trkpt lat="49.19622" lon="-0.53851">
        <ele>71.6</ele>
        <time>2023-05-25T12:19:13Z</time>
      </trkpt>
      <trkpt lat="49.19621" lon="-0.53863">
        <ele>71.6</ele>
        <time>2023-05-25T12:19:14Z</time>
      </trkpt>
      <trkpt lat="49.1962" lon="-0.53874">
        <ele>71.6</ele>
        <time>2023-05-25T12:19:15Z</time>
      </trkpt>
      <trkpt lat="49.19619" lon="-0.53886">
        <ele>71.6</ele>
        <time>2023-05-25T12:19:16Z</time>
      </trkpt>
      <trkpt lat="49.19618" lon="-0.53896">
        <ele>71.6</ele>
        <time>2023-05-25T12:19:17Z</time>
      </trkpt>
      <trkpt lat="49.19617" lon="-0.53907">
        <ele>71.6</ele>
        <time>2023-05-25T12:19:18Z</time>
      </trkpt>
      <trkpt lat="49.19616" lon="-0.53917">
        <ele>71.6</ele>
        <time>2023-05-25T12:19:19Z</time>
      </trkpt>
      <trkpt lat="49.19615" lon="-0.53928">
        <ele>71.8</ele>
        <time>2023-05-25T12:19:20Z</time>
      </trkpt>
      <trkpt lat="49.19615" lon="-0.53938">
        <ele>72</ele>
        <time>2023-05-25T12:19:21Z</time>
      </trkpt>
      <trkpt lat="49.19614" lon="-0.53948">
        <ele>72</ele>
        <time>2023-05-25T12:19:22Z</time>
      </trkpt>
      <trkpt lat="49.19614" lon="-0.53959">
        <ele>72</ele>
        <time>2023-05-25T12:19:23Z</time>
      </trkpt>
      <trkpt lat="49.19614" lon="-0.53969">
        <ele>72.4</ele>
        <time>2023-05-25T12:19:24Z</time>
      </trkpt>
      <trkpt lat="49.19614" lon="-0.53979">
        <ele>72.4</ele>
        <time>2023-05-25T12:19:25Z</time>
      </trkpt>
      <trkpt lat="49.19614" lon="-0.53989">
        <ele>72.6</ele>
        <time>2023-05-25T12:19:26Z</time>
      </trkpt>
      <trkpt lat="49.19614" lon="-0.53999">
        <ele>72.6</ele>
        <time>2023-05-25T12:19:27Z</time>
      </trkpt>
      <trkpt lat="49.19614" lon="-0.54009">
        <ele>72.8</ele>
        <time>2023-05-25T12:19:28Z</time>
      </trkpt>
      <trkpt lat="49.19614" lon="-0.54019">
        <ele>73</ele>
        <time>2023-05-25T12:19:29Z</time>
      </trkpt>
      <trkpt lat="49.19615" lon="-0.54029">
        <ele>73</ele>
        <time>2023-05-25T12:19:30Z</time>
      </trkpt>
      <trkpt lat="49.19615" lon="-0.54039">
        <ele>73.4</ele>
        <time>2023-05-25T12:19:31Z</time>
      </trkpt>
      <trkpt lat="49.19615" lon="-0.5405">
        <ele>73.4</ele>
        <time>2023-05-25T12:19:32Z</time>
      </trkpt>
      <trkpt lat="49.19615" lon="-0.54059">
        <ele>73.6</ele>
        <time>2023-05-25T12:19:33Z</time>
      </trkpt>
      <trkpt lat="49.19615" lon="-0.54069">
        <ele>73.8</ele>
        <time>2023-05-25T12:19:34Z</time>
      </trkpt>
      <trkpt lat="49.19615" lon="-0.54079">
        <ele>74</ele>
        <time>2023-05-25T12:19:35Z</time>
      </trkpt>
      <trkpt lat="49.19615" lon="-0.54089">
        <ele>74</ele>
        <time>2023-05-25T12:19:36Z</time>
      </trkpt>
      <trkpt lat="49.19614" lon="-0.54098">
        <ele>74.4</ele>
        <time>2023-05-25T12:19:37Z</time>
      </trkpt>
      <trkpt lat="49.19614" lon="-0.54108">
        <ele>74.6</ele>
        <time>2023-05-25T12:19:38Z</time>
      </trkpt>
      <trkpt lat="49.19613" lon="-0.54118">
        <ele>74.6</ele>
        <time>2023-05-25T12:19:39Z</time>
      </trkpt>
      <trkpt lat="49.19613" lon="-0.54127">
        <ele>75</ele>
        <time>2023-05-25T12:19:40Z</time>
      </trkpt>
      <trkpt lat="49.19612" lon="-0.54137">
        <ele>75</ele>
        <time>2023-05-25T12:19:41Z</time>
      </trkpt>
      <trkpt lat="49.19611" lon="-0.54147">
        <ele>75.4</ele>
        <time>2023-05-25T12:19:42Z</time>
      </trkpt>
      <trkpt lat="49.1961" lon="-0.54157">
        <ele>75.6</ele>
        <time>2023-05-25T12:19:43Z</time>
      </trkpt>
      <trkpt lat="49.19609" lon="-0.54168">
        <ele>75.6</ele>
        <time>2023-05-25T12:19:44Z</time>
      </trkpt>
      <trkpt lat="49.19607" lon="-0.54178">
        <ele>75.8</ele>
        <time>2023-05-25T12:19:45Z</time>
      </trkpt>
      <trkpt lat="49.19606" lon="-0.54188">
        <ele>76</ele>
        <time>2023-05-25T12:19:46Z</time>
      </trkpt>
      <trkpt lat="49.19604" lon="-0.54198">
        <ele>76</ele>
        <time>2023-05-25T12:19:47Z</time>
      </trkpt>
      <trkpt lat="49.19602" lon="-0.54208">
        <ele>76.4</ele>
        <time>2023-05-25T12:19:48Z</time>
      </trkpt>
      <trkpt lat="49.19599" lon="-0.54218">
        <ele>76.4</ele>
        <time>2023-05-25T12:19:49Z</time>
      </trkpt>
      <trkpt lat="49.19597" lon="-0.54227">
        <ele>76.6</ele>
        <time>2023-05-25T12:19:50Z</time>
      </trkpt>
      <trkpt lat="49.19595" lon="-0.54237">
        <ele>76.6</ele>
        <time>2023-05-25T12:19:51Z</time>
      </trkpt>
      <trkpt lat="49.19593" lon="-0.54246">
        <ele>76.8</ele>
        <time>2023-05-25T12:19:52Z</time>
      </trkpt>
      <trkpt lat="49.19591" lon="-0.54255">
        <ele>77</ele>
        <time>2023-05-25T12:19:53Z</time>
      </trkpt>
      <trkpt lat="49.19588" lon="-0.54264">
        <ele>77</ele>
        <time>2023-05-25T12:19:54Z</time>
      </trkpt>
      <trkpt lat="49.19586" lon="-0.54273">
        <ele>77</ele>
        <time>2023-05-25T12:19:55Z</time>
      </trkpt>
      <trkpt lat="49.19584" lon="-0.54282">
        <ele>77</ele>
        <time>2023-05-25T12:19:56Z</time>
      </trkpt>
      <trkpt lat="49.19582" lon="-0.54291">
        <ele>77</ele>
        <time>2023-05-25T12:19:57Z</time>
      </trkpt>
      <trkpt lat="49.19579" lon="-0.543">
        <ele>77</ele>
        <time>2023-05-25T12:19:58Z</time>
      </trkpt>
      <trkpt lat="49.19577" lon="-0.54308">
        <ele>77</ele>
        <time>2023-05-25T12:19:59Z</time>
      </trkpt>
      <trkpt lat="49.19575" lon="-0.54317">
        <ele>77</ele>
        <time>2023-05-25T12:20:00Z</time>
      </trkpt>
      <trkpt lat="49.19573" lon="-0.54326">
        <ele>77</ele>
        <time>2023-05-25T12:20:01Z</time>
      </trkpt>
      <trkpt lat="49.19571" lon="-0.54334">
        <ele>77.2</ele>
        <time>2023-05-25T12:20:02Z</time>
      </trkpt>
      <trkpt lat="49.19569" lon="-0.54343">
        <ele>77.4</ele>
        <time>2023-05-25T12:20:03Z</time>
      </trkpt>
      <trkpt lat="49.19567" lon="-0.54351">
        <ele>77.4</ele>
        <time>2023-05-25T12:20:04Z</time>
      </trkpt>
      <trkpt lat="49.19565" lon="-0.5436">
        <ele>77.6</ele>
        <time>2023-05-25T12:20:05Z</time>
      </trkpt>
      <trkpt lat="49.19563" lon="-0.54368">
        <ele>77.6</ele>
        <time>2023-05-25T12:20:06Z</time>
      </trkpt>
      <trkpt lat="49.19561" lon="-0.54376">
        <ele>77.6</ele>
        <time>2023-05-25T12:20:07Z</time>
      </trkpt>
      <trkpt lat="49.19559" lon="-0.54384">
        <ele>77.6</ele>
        <time>2023-05-25T12:20:08Z</time>
      </trkpt>
      <trkpt lat="49.19557" lon="-0.54392">
        <ele>77.8</ele>
        <time>2023-05-25T12:20:09Z</time>
      </trkpt>
      <trkpt lat="49.19555" lon="-0.544">
        <ele>78</ele>
        <time>2023-05-25T12:20:10Z</time>
      </trkpt>
      <trkpt lat="49.19553" lon="-0.54408">
        <ele>78</ele>
        <time>2023-05-25T12:20:11Z</time>
      </trkpt>
      <trkpt lat="49.19551" lon="-0.54415">
        <ele>78</ele>
        <time>2023-05-25T12:20:12Z</time>
      </trkpt>
      <trkpt lat="49.19549" lon="-0.54423">
        <ele>78</ele>
        <time>2023-05-25T12:20:13Z</time>
      </trkpt>
      <trkpt lat="49.19546" lon="-0.54431">
        <ele>78.2</ele>
        <time>2023-05-25T12:20:14Z</time>
      </trkpt>
      <trkpt lat="49.19544" lon="-0.54438">
        <ele>78.4</ele>
        <time>2023-05-25T12:20:15Z</time>
      </trkpt>
      <trkpt lat="49.19542" lon="-0.54446">
        <ele>78.6</ele>
        <time>2023-05-25T12:20:16Z</time>
      </trkpt>
      <trkpt lat="49.19539" lon="-0.54454">
        <ele>78.6</ele>
        <time>2023-05-25T12:20:17Z</time>
      </trkpt>
      <trkpt lat="49.19537" lon="-0.54461">
        <ele>78.8</ele>
        <time>2023-05-25T12:20:18Z</time>
      </trkpt>
      <trkpt lat="49.19534" lon="-0.54469">
        <ele>79</ele>
        <time>2023-05-25T12:20:19Z</time>
      </trkpt>
      <trkpt lat="49.19532" lon="-0.54477">
        <ele>79.2</ele>
        <time>2023-05-25T12:20:20Z</time>
      </trkpt>
      <trkpt lat="49.19529" lon="-0.54484">
        <ele>79.4</ele>
        <time>2023-05-25T12:20:21Z</time>
      </trkpt>
      <trkpt lat="49.19526" lon="-0.54492">
        <ele>79.6</ele>
        <time>2023-05-25T12:20:22Z</time>
      </trkpt>
      <trkpt lat="49.19523" lon="-0.54499">
        <ele>79.6</ele>
        <time>2023-05-25T12:20:23Z</time>
      </trkpt>
      <trkpt lat="49.19519" lon="-0.54506">
        <ele>79.8</ele>
        <time>2023-05-25T12:20:24Z</time>
      </trkpt>
      <trkpt lat="49.19516" lon="-0.54513">
        <ele>79.8</ele>
        <time>2023-05-25T12:20:25Z</time>
      </trkpt>
      <trkpt lat="49.19512" lon="-0.54519">
        <ele>80</ele>
        <time>2023-05-25T12:20:26Z</time>
      </trkpt>
      <trkpt lat="49.19509" lon="-0.54526">
        <ele>80</ele>
        <time>2023-05-25T12:20:27Z</time>
      </trkpt>
      <trkpt lat="49.19505" lon="-0.54532">
        <ele>80</ele>
        <time>2023-05-25T12:20:28Z</time>
      </trkpt>
      <trkpt lat="49.19501" lon="-0.54538">
        <ele>80</ele>
        <time>2023-05-25T12:20:29Z</time>
      </trkpt>
      <trkpt lat="49.19497" lon="-0.54544">
        <ele>80</ele>
        <time>2023-05-25T12:20:30Z</time>
      </trkpt>
      <trkpt lat="49.19493" lon="-0.5455">
        <ele>80</ele>
        <time>2023-05-25T12:20:31Z</time>
      </trkpt>
      <trkpt lat="49.19488" lon="-0.54556">
        <ele>80</ele>
        <time>2023-05-25T12:20:32Z</time>
      </trkpt>
      <trkpt lat="49.19484" lon="-0.54562">
        <ele>80.2</ele>
        <time>2023-05-25T12:20:33Z</time>
      </trkpt>
      <trkpt lat="49.1948" lon="-0.54568">
        <ele>80.2</ele>
        <time>2023-05-25T12:20:34Z</time>
      </trkpt>
      <trkpt lat="49.19475" lon="-0.54574">
        <ele>80.4</ele>
        <time>2023-05-25T12:20:35Z</time>
      </trkpt>
      <trkpt lat="49.1947" lon="-0.5458">
        <ele>80.4</ele>
        <time>2023-05-25T12:20:36Z</time>
      </trkpt>
      <trkpt lat="49.19465" lon="-0.54585">
        <ele>80.4</ele>
        <time>2023-05-25T12:20:37Z</time>
      </trkpt>
      <trkpt lat="49.19461" lon="-0.54591">
        <ele>80.6</ele>
        <time>2023-05-25T12:20:38Z</time>
      </trkpt>
      <trkpt lat="49.19456" lon="-0.54596">
        <ele>80.6</ele>
        <time>2023-05-25T12:20:39Z</time>
      </trkpt>
      <trkpt lat="49.19451" lon="-0.54602">
        <ele>80.8</ele>
        <time>2023-05-25T12:20:40Z</time>
      </trkpt>
      <trkpt lat="49.19446" lon="-0.54607">
        <ele>81</ele>
        <time>2023-05-25T12:20:41Z</time>
      </trkpt>
      <trkpt lat="49.19441" lon="-0.54613">
        <ele>81</ele>
        <time>2023-05-25T12:20:42Z</time>
      </trkpt>
      <trkpt lat="49.19437" lon="-0.54618">
        <ele>81.2</ele>
        <time>2023-05-25T12:20:43Z</time>
      </trkpt>
      <trkpt lat="49.19432" lon="-0.54624">
        <ele>81.4</ele>
        <time>2023-05-25T12:20:44Z</time>
      </trkpt>
      <trkpt lat="49.19427" lon="-0.54629">
        <ele>81.4</ele>
        <time>2023-05-25T12:20:45Z</time>
      </trkpt>
      <trkpt lat="49.19423" lon="-0.54635">
        <ele>81.6</ele>
        <time>2023-05-25T12:20:46Z</time>
      </trkpt>
      <trkpt lat="49.19418" lon="-0.5464">
        <ele>81.6</ele>
        <time>2023-05-25T12:20:47Z</time>
      </trkpt>
      <trkpt lat="49.19414" lon="-0.54645">
        <ele>81.8</ele>
        <time>2023-05-25T12:20:48Z</time>
      </trkpt>
      <trkpt lat="49.19409" lon="-0.54649">
        <ele>82</ele>
        <time>2023-05-25T12:20:49Z</time>
      </trkpt>
      <trkpt lat="49.19404" lon="-0.54654">
        <ele>82</ele>
        <time>2023-05-25T12:20:50Z</time>
      </trkpt>
      <trkpt lat="49.19399" lon="-0.54658">
        <ele>82</ele>
        <time>2023-05-25T12:20:51Z</time>
      </trkpt>
      <trkpt lat="49.19395" lon="-0.54663">
        <ele>82.2</ele>
        <time>2023-05-25T12:20:52Z</time>
      </trkpt>
      <trkpt lat="49.1939" lon="-0.54667">
        <ele>82.4</ele>
        <time>2023-05-25T12:20:53Z</time>
      </trkpt>
      <trkpt lat="49.19385" lon="-0.54671">
        <ele>82.4</ele>
        <time>2023-05-25T12:20:54Z</time>
      </trkpt>
      <trkpt lat="49.19381" lon="-0.54676">
        <ele>82.6</ele>
        <time>2023-05-25T12:20:55Z</time>
      </trkpt>
      <trkpt lat="49.19376" lon="-0.5468">
        <ele>82.6</ele>
        <time>2023-05-25T12:20:56Z</time>
      </trkpt>
      <trkpt lat="49.19371" lon="-0.54684">
        <ele>82.6</ele>
        <time>2023-05-25T12:20:57Z</time>
      </trkpt>
      <trkpt lat="49.19366" lon="-0.54687">
        <ele>82.8</ele>
        <time>2023-05-25T12:20:58Z</time>
      </trkpt>
      <trkpt lat="49.19362" lon="-0.54691">
        <ele>83</ele>
        <time>2023-05-25T12:20:59Z</time>
      </trkpt>
      <trkpt lat="49.19356" lon="-0.54694">
        <ele>83</ele>
        <time>2023-05-25T12:21:00Z</time>
      </trkpt>
      <trkpt lat="49.19352" lon="-0.54697">
        <ele>83</ele>
        <time>2023-05-25T12:21:01Z</time>
      </trkpt>
      <trkpt lat="49.19347" lon="-0.54701">
        <ele>83.4</ele>
        <time>2023-05-25T12:21:02Z</time>
      </trkpt>
      <trkpt lat="49.19342" lon="-0.54705">
        <ele>83.4</ele>
        <time>2023-05-25T12:21:03Z</time>
      </trkpt>
      <trkpt lat="49.19337" lon="-0.54709">
        <ele>83.6</ele>
        <time>2023-05-25T12:21:04Z</time>
      </trkpt>
      <trkpt lat="49.19332" lon="-0.54713">
        <ele>83.6</ele>
        <time>2023-05-25T12:21:05Z</time>
      </trkpt>
      <trkpt lat="49.19327" lon="-0.54718">
        <ele>83.6</ele>
        <time>2023-05-25T12:21:06Z</time>
      </trkpt>
      <trkpt lat="49.19322" lon="-0.54723">
        <ele>83.6</ele>
        <time>2023-05-25T12:21:07Z</time>
      </trkpt>
      <trkpt lat="49.19318" lon="-0.54729">
        <ele>83.8</ele>
        <time>2023-05-25T12:21:08Z</time>
      </trkpt>
      <trkpt lat="49.19313" lon="-0.54736">
        <ele>84</ele>
        <time>2023-05-25T12:21:09Z</time>
      </trkpt>
      <trkpt lat="49.19309" lon="-0.54743">
        <ele>84</ele>
        <time>2023-05-25T12:21:10Z</time>
      </trkpt>
      <trkpt lat="49.19305" lon="-0.54751">
        <ele>84</ele>
        <time>2023-05-25T12:21:11Z</time>
      </trkpt>
      <trkpt lat="49.19301" lon="-0.54759">
        <ele>84</ele>
        <time>2023-05-25T12:21:12Z</time>
      </trkpt>
      <trkpt lat="49.19298" lon="-0.54768">
        <ele>84.2</ele>
        <time>2023-05-25T12:21:13Z</time>
      </trkpt>
      <trkpt lat="49.19295" lon="-0.54777">
        <ele>84.4</ele>
        <time>2023-05-25T12:21:14Z</time>
      </trkpt>
      <trkpt lat="49.19292" lon="-0.54787">
        <ele>84.4</ele>
        <time>2023-05-25T12:21:15Z</time>
      </trkpt>
      <trkpt lat="49.1929" lon="-0.54797">
        <ele>84.6</ele>
        <time>2023-05-25T12:21:16Z</time>
      </trkpt>
      <trkpt lat="49.19287" lon="-0.54807">
        <ele>84.6</ele>
        <time>2023-05-25T12:21:17Z</time>
      </trkpt>
      <trkpt lat="49.19285" lon="-0.54817">
        <ele>84.8</ele>
        <time>2023-05-25T12:21:18Z</time>
      </trkpt>
      <trkpt lat="49.19283" lon="-0.54826">
        <ele>85</ele>
        <time>2023-05-25T12:21:19Z</time>
      </trkpt>
      <trkpt lat="49.19281" lon="-0.54836">
        <ele>85</ele>
        <time>2023-05-25T12:21:20Z</time>
      </trkpt>
      <trkpt lat="49.19279" lon="-0.54846">
        <ele>85</ele>
        <time>2023-05-25T12:21:21Z</time>
      </trkpt>
      <trkpt lat="49.19277" lon="-0.54855">
        <ele>85.2</ele>
        <time>2023-05-25T12:21:22Z</time>
      </trkpt>
      <trkpt lat="49.19274" lon="-0.54864">
        <ele>85.4</ele>
        <time>2023-05-25T12:21:23Z</time>
      </trkpt>
      <trkpt lat="49.19271" lon="-0.54873">
        <ele>85.4</ele>
        <time>2023-05-25T12:21:24Z</time>
      </trkpt>
      <trkpt lat="49.19269" lon="-0.54882">
        <ele>85.6</ele>
        <time>2023-05-25T12:21:25Z</time>
      </trkpt>
      <trkpt lat="49.19266" lon="-0.54891">
        <ele>85.6</ele>
        <time>2023-05-25T12:21:26Z</time>
      </trkpt>
      <trkpt lat="49.19263" lon="-0.54899">
        <ele>85.6</ele>
        <time>2023-05-25T12:21:27Z</time>
      </trkpt>
      <trkpt lat="49.1926" lon="-0.54908">
        <ele>85.8</ele>
        <time>2023-05-25T12:21:28Z</time>
      </trkpt>
      <trkpt lat="49.19258" lon="-0.54916">
        <ele>86</ele>
        <time>2023-05-25T12:21:29Z</time>
      </trkpt>
      <trkpt lat="49.19255" lon="-0.54923">
        <ele>86</ele>
        <time>2023-05-25T12:21:30Z</time>
      </trkpt>
      <trkpt lat="49.19252" lon="-0.54931">
        <ele>86</ele>
        <time>2023-05-25T12:21:31Z</time>
      </trkpt>
      <trkpt lat="49.19249" lon="-0.54938">
        <ele>86</ele>
        <time>2023-05-25T12:21:32Z</time>
      </trkpt>
      <trkpt lat="49.19246" lon="-0.54945">
        <ele>86</ele>
        <time>2023-05-25T12:21:33Z</time>
      </trkpt>
      <trkpt lat="49.19243" lon="-0.54953">
        <ele>86</ele>
        <time>2023-05-25T12:21:34Z</time>
      </trkpt>
      <trkpt lat="49.1924" lon="-0.5496">
        <ele>86</ele>
        <time>2023-05-25T12:21:35Z</time>
      </trkpt>
      <trkpt lat="49.19238" lon="-0.54967">
        <ele>86</ele>
        <time>2023-05-25T12:21:36Z</time>
      </trkpt>
      <trkpt lat="49.19234" lon="-0.54973">
        <ele>86</ele>
        <time>2023-05-25T12:21:37Z</time>
      </trkpt>
      <trkpt lat="49.19231" lon="-0.5498">
        <ele>86.2</ele>
        <time>2023-05-25T12:21:38Z</time>
      </trkpt>
      <trkpt lat="49.19229" lon="-0.54987">
        <ele>86.2</ele>
        <time>2023-05-25T12:21:39Z</time>
      </trkpt>
      <trkpt lat="49.19226" lon="-0.54994">
        <ele>86.4</ele>
        <time>2023-05-25T12:21:40Z</time>
      </trkpt>
      <trkpt lat="49.19222" lon="-0.55001">
        <ele>86.4</ele>
        <time>2023-05-25T12:21:41Z</time>
      </trkpt>
      <trkpt lat="49.1922" lon="-0.55007">
        <ele>86.6</ele>
        <time>2023-05-25T12:21:42Z</time>
      </trkpt>
      <trkpt lat="49.19217" lon="-0.55014">
        <ele>86.6</ele>
        <time>2023-05-25T12:21:43Z</time>
      </trkpt>
      <trkpt lat="49.19213" lon="-0.55021">
        <ele>86.6</ele>
        <time>2023-05-25T12:21:44Z</time>
      </trkpt>
      <trkpt lat="49.1921" lon="-0.55028">
        <ele>86.8</ele>
        <time>2023-05-25T12:21:45Z</time>
      </trkpt>
      <trkpt lat="49.19207" lon="-0.55035">
        <ele>87</ele>
        <time>2023-05-25T12:21:46Z</time>
      </trkpt>
      <trkpt lat="49.19204" lon="-0.55042">
        <ele>87</ele>
        <time>2023-05-25T12:21:47Z</time>
      </trkpt>
      <trkpt lat="49.19201" lon="-0.55048">
        <ele>87.2</ele>
        <time>2023-05-25T12:21:48Z</time>
      </trkpt>
      <trkpt lat="49.19198" lon="-0.55055">
        <ele>87.4</ele>
        <time>2023-05-25T12:21:49Z</time>
      </trkpt>
      <trkpt lat="49.19195" lon="-0.55062">
        <ele>87.4</ele>
        <time>2023-05-25T12:21:50Z</time>
      </trkpt>
      <trkpt lat="49.19192" lon="-0.55069">
        <ele>87.6</ele>
        <time>2023-05-25T12:21:51Z</time>
      </trkpt>
      <trkpt lat="49.19189" lon="-0.55076">
        <ele>87.6</ele>
        <time>2023-05-25T12:21:52Z</time>
      </trkpt>
      <trkpt lat="49.19186" lon="-0.55083">
        <ele>87.8</ele>
        <time>2023-05-25T12:21:53Z</time>
      </trkpt>
      <trkpt lat="49.19183" lon="-0.55089">
        <ele>87.8</ele>
        <time>2023-05-25T12:21:54Z</time>
      </trkpt>
      <trkpt lat="49.1918" lon="-0.55096">
        <ele>88</ele>
        <time>2023-05-25T12:21:55Z</time>
      </trkpt>
      <trkpt lat="49.19176" lon="-0.55103">
        <ele>88</ele>
        <time>2023-05-25T12:21:56Z</time>
      </trkpt>
      <trkpt lat="49.19173" lon="-0.5511">
        <ele>88</ele>
        <time>2023-05-25T12:21:57Z</time>
      </trkpt>
      <trkpt lat="49.1917" lon="-0.55117">
        <ele>88</ele>
        <time>2023-05-25T12:21:58Z</time>
      </trkpt>
      <trkpt lat="49.19167" lon="-0.55123">
        <ele>88</ele>
        <time>2023-05-25T12:21:59Z</time>
      </trkpt>
      <trkpt lat="49.19163" lon="-0.5513">
        <ele>88</ele>
        <time>2023-05-25T12:22:00Z</time>
      </trkpt>
      <trkpt lat="49.1916" lon="-0.55137">
        <ele>88</ele>
        <time>2023-05-25T12:22:01Z</time>
      </trkpt>
      <trkpt lat="49.19156" lon="-0.55143">
        <ele>88</ele>
        <time>2023-05-25T12:22:02Z</time>
      </trkpt>
      <trkpt lat="49.19152" lon="-0.5515">
        <ele>88</ele>
        <time>2023-05-25T12:22:03Z</time>
      </trkpt>
      <trkpt lat="49.19148" lon="-0.55156">
        <ele>88.2</ele>
        <time>2023-05-25T12:22:04Z</time>
      </trkpt>
      <trkpt lat="49.19145" lon="-0.55162">
        <ele>88.2</ele>
        <time>2023-05-25T12:22:05Z</time>
      </trkpt>
      <trkpt lat="49.1914" lon="-0.55169">
        <ele>88.4</ele>
        <time>2023-05-25T12:22:06Z</time>
      </trkpt>
      <trkpt lat="49.19136" lon="-0.55175">
        <ele>88.4</ele>
        <time>2023-05-25T12:22:07Z</time>
      </trkpt>
      <trkpt lat="49.19132" lon="-0.55181">
        <ele>88.4</ele>
        <time>2023-05-25T12:22:08Z</time>
      </trkpt>
      <trkpt lat="49.19128" lon="-0.55187">
        <ele>88.6</ele>
        <time>2023-05-25T12:22:09Z</time>
      </trkpt>
      <trkpt lat="49.19124" lon="-0.55193">
        <ele>88.6</ele>
        <time>2023-05-25T12:22:10Z</time>
      </trkpt>
      <trkpt lat="49.1912" lon="-0.552">
        <ele>88.6</ele>
        <time>2023-05-25T12:22:11Z</time>
      </trkpt>
      <trkpt lat="49.19117" lon="-0.55206">
        <ele>88.6</ele>
        <time>2023-05-25T12:22:12Z</time>
      </trkpt>
      <trkpt lat="49.19113" lon="-0.55213">
        <ele>88.6</ele>
        <time>2023-05-25T12:22:13Z</time>
      </trkpt>
      <trkpt lat="49.19111" lon="-0.55221">
        <ele>88.6</ele>
        <time>2023-05-25T12:22:14Z</time>
      </trkpt>
      <trkpt lat="49.19109" lon="-0.55229">
        <ele>88.6</ele>
        <time>2023-05-25T12:22:15Z</time>
      </trkpt>
      <trkpt lat="49.1911" lon="-0.55237">
        <ele>88.6</ele>
        <time>2023-05-25T12:22:16Z</time>
      </trkpt>
      <trkpt lat="49.19111" lon="-0.55245">
        <ele>88.6</ele>
        <time>2023-05-25T12:22:17Z</time>
      </trkpt>
      <trkpt lat="49.19114" lon="-0.55252">
        <ele>88.6</ele>
        <time>2023-05-25T12:22:18Z</time>
      </trkpt>
      <trkpt lat="49.19117" lon="-0.55258">
        <ele>88.6</ele>
        <time>2023-05-25T12:22:19Z</time>
      </trkpt>
      <trkpt lat="49.19121" lon="-0.55264">
        <ele>88.6</ele>
        <time>2023-05-25T12:22:20Z</time>
      </trkpt>
      <trkpt lat="49.19125" lon="-0.55269">
        <ele>88.6</ele>
        <time>2023-05-25T12:22:21Z</time>
      </trkpt>
      <trkpt lat="49.19129" lon="-0.55275">
        <ele>88.4</ele>
        <time>2023-05-25T12:22:22Z</time>
      </trkpt>
      <trkpt lat="49.19133" lon="-0.5528">
        <ele>88.4</ele>
        <time>2023-05-25T12:22:23Z</time>
      </trkpt>
      <trkpt lat="49.19138" lon="-0.55286">
        <ele>88.4</ele>
        <time>2023-05-25T12:22:24Z</time>
      </trkpt>
      <trkpt lat="49.19142" lon="-0.55292">
        <ele>88.4</ele>
        <time>2023-05-25T12:22:25Z</time>
      </trkpt>
      <trkpt lat="49.19146" lon="-0.55298">
        <ele>88.4</ele>
        <time>2023-05-25T12:22:26Z</time>
      </trkpt>
      <trkpt lat="49.19149" lon="-0.55305">
        <ele>88.2</ele>
        <time>2023-05-25T12:22:27Z</time>
      </trkpt>
      <trkpt lat="49.19153" lon="-0.55311">
        <ele>88.2</ele>
        <time>2023-05-25T12:22:28Z</time>
      </trkpt>
      <trkpt lat="49.19157" lon="-0.55318">
        <ele>88</ele>
        <time>2023-05-25T12:22:29Z</time>
      </trkpt>
      <trkpt lat="49.19161" lon="-0.55324">
        <ele>88</ele>
        <time>2023-05-25T12:22:30Z</time>
      </trkpt>
      <trkpt lat="49.19164" lon="-0.55331">
        <ele>88</ele>
        <time>2023-05-25T12:22:31Z</time>
      </trkpt>
      <trkpt lat="49.19168" lon="-0.55338">
        <ele>88</ele>
        <time>2023-05-25T12:22:32Z</time>
      </trkpt>
      <trkpt lat="49.19171" lon="-0.55344">
        <ele>87.8</ele>
        <time>2023-05-25T12:22:33Z</time>
      </trkpt>
      <trkpt lat="49.19175" lon="-0.55351">
        <ele>87.6</ele>
        <time>2023-05-25T12:22:34Z</time>
      </trkpt>
      <trkpt lat="49.19179" lon="-0.55357">
        <ele>87.4</ele>
        <time>2023-05-25T12:22:35Z</time>
      </trkpt>
      <trkpt lat="49.19182" lon="-0.55364">
        <ele>87.4</ele>
        <time>2023-05-25T12:22:36Z</time>
      </trkpt>
      <trkpt lat="49.19186" lon="-0.5537">
        <ele>87</ele>
        <time>2023-05-25T12:22:37Z</time>
      </trkpt>
      <trkpt lat="49.19189" lon="-0.55377">
        <ele>87</ele>
        <time>2023-05-25T12:22:38Z</time>
      </trkpt>
      <trkpt lat="49.19193" lon="-0.55384">
        <ele>86.8</ele>
        <time>2023-05-25T12:22:39Z</time>
      </trkpt>
      <trkpt lat="49.19196" lon="-0.5539">
        <ele>86.6</ele>
        <time>2023-05-25T12:22:40Z</time>
      </trkpt>
      <trkpt lat="49.192" lon="-0.55397">
        <ele>86.4</ele>
        <time>2023-05-25T12:22:41Z</time>
      </trkpt>
      <trkpt lat="49.19203" lon="-0.55404">
        <ele>86.4</ele>
        <time>2023-05-25T12:22:42Z</time>
      </trkpt>
      <trkpt lat="49.19207" lon="-0.55411">
        <ele>86</ele>
        <time>2023-05-25T12:22:43Z</time>
      </trkpt>
      <trkpt lat="49.1921" lon="-0.55419">
        <ele>86</ele>
        <time>2023-05-25T12:22:44Z</time>
      </trkpt>
      <trkpt lat="49.19214" lon="-0.55426">
        <ele>86</ele>
        <time>2023-05-25T12:22:45Z</time>
      </trkpt>
      <trkpt lat="49.19217" lon="-0.55433">
        <ele>85.8</ele>
        <time>2023-05-25T12:22:46Z</time>
      </trkpt>
      <trkpt lat="49.19221" lon="-0.55441">
        <ele>85.8</ele>
        <time>2023-05-25T12:22:47Z</time>
      </trkpt>
      <trkpt lat="49.19224" lon="-0.55449">
        <ele>85.8</ele>
        <time>2023-05-25T12:22:48Z</time>
      </trkpt>
      <trkpt lat="49.19228" lon="-0.55457">
        <ele>85.8</ele>
        <time>2023-05-25T12:22:49Z</time>
      </trkpt>
      <trkpt lat="49.19231" lon="-0.55465">
        <ele>85.8</ele>
        <time>2023-05-25T12:22:50Z</time>
      </trkpt>
      <trkpt lat="49.19234" lon="-0.55474">
        <ele>85.8</ele>
        <time>2023-05-25T12:22:51Z</time>
      </trkpt>
      <trkpt lat="49.19237" lon="-0.55482">
        <ele>85.8</ele>
        <time>2023-05-25T12:22:52Z</time>
      </trkpt>
      <trkpt lat="49.19241" lon="-0.55491">
        <ele>86</ele>
        <time>2023-05-25T12:22:53Z</time>
      </trkpt>
      <trkpt lat="49.19244" lon="-0.55499">
        <ele>86</ele>
        <time>2023-05-25T12:22:54Z</time>
      </trkpt>
      <trkpt lat="49.19247" lon="-0.55508">
        <ele>86</ele>
        <time>2023-05-25T12:22:55Z</time>
      </trkpt>
      <trkpt lat="49.19251" lon="-0.55517">
        <ele>86</ele>
        <time>2023-05-25T12:22:56Z</time>
      </trkpt>
      <trkpt lat="49.19254" lon="-0.55526">
        <ele>86</ele>
        <time>2023-05-25T12:22:57Z</time>
      </trkpt>
      <trkpt lat="49.19257" lon="-0.55535">
        <ele>85.8</ele>
        <time>2023-05-25T12:22:58Z</time>
      </trkpt>
      <trkpt lat="49.19261" lon="-0.55545">
        <ele>85.6</ele>
        <time>2023-05-25T12:22:59Z</time>
      </trkpt>
      <trkpt lat="49.19264" lon="-0.55554">
        <ele>85.6</ele>
        <time>2023-05-25T12:23:00Z</time>
      </trkpt>
      <trkpt lat="49.19268" lon="-0.55563">
        <ele>85.6</ele>
        <time>2023-05-25T12:23:01Z</time>
      </trkpt>
      <trkpt lat="49.19271" lon="-0.55573">
        <ele>85.6</ele>
        <time>2023-05-25T12:23:02Z</time>
      </trkpt>
      <trkpt lat="49.19275" lon="-0.55582">
        <ele>85.4</ele>
        <time>2023-05-25T12:23:03Z</time>
      </trkpt>
      <trkpt lat="49.19278" lon="-0.55591">
        <ele>85.4</ele>
        <time>2023-05-25T12:23:04Z</time>
      </trkpt>
      <trkpt lat="49.19281" lon="-0.556">
        <ele>85</ele>
        <time>2023-05-25T12:23:05Z</time>
      </trkpt>
      <trkpt lat="49.19285" lon="-0.55608">
        <ele>85</ele>
        <time>2023-05-25T12:23:06Z</time>
      </trkpt>
      <trkpt lat="49.19288" lon="-0.55617">
        <ele>85</ele>
        <time>2023-05-25T12:23:07Z</time>
      </trkpt>
      <trkpt lat="49.19291" lon="-0.55626">
        <ele>84.8</ele>
        <time>2023-05-25T12:23:08Z</time>
      </trkpt>
      <trkpt lat="49.19294" lon="-0.55635">
        <ele>84.6</ele>
        <time>2023-05-25T12:23:09Z</time>
      </trkpt>
      <trkpt lat="49.19297" lon="-0.55644">
        <ele>84.6</ele>
        <time>2023-05-25T12:23:10Z</time>
      </trkpt>
      <trkpt lat="49.19301" lon="-0.55653">
        <ele>84.6</ele>
        <time>2023-05-25T12:23:11Z</time>
      </trkpt>
      <trkpt lat="49.19304" lon="-0.55662">
        <ele>84.4</ele>
        <time>2023-05-25T12:23:12Z</time>
      </trkpt>
      <trkpt lat="49.19307" lon="-0.55672">
        <ele>84.4</ele>
        <time>2023-05-25T12:23:13Z</time>
      </trkpt>
      <trkpt lat="49.19311" lon="-0.55681">
        <ele>84.4</ele>
        <time>2023-05-25T12:23:14Z</time>
      </trkpt>
      <trkpt lat="49.19314" lon="-0.5569">
        <ele>84.4</ele>
        <time>2023-05-25T12:23:15Z</time>
      </trkpt>
      <trkpt lat="49.19317" lon="-0.55699">
        <ele>84.6</ele>
        <time>2023-05-25T12:23:16Z</time>
      </trkpt>
      <trkpt lat="49.19321" lon="-0.55708">
        <ele>84.6</ele>
        <time>2023-05-25T12:23:17Z</time>
      </trkpt>
      <trkpt lat="49.19324" lon="-0.55717">
        <ele>84.6</ele>
        <time>2023-05-25T12:23:18Z</time>
      </trkpt>
      <trkpt lat="49.19327" lon="-0.55726">
        <ele>84.6</ele>
        <time>2023-05-25T12:23:19Z</time>
      </trkpt>
      <trkpt lat="49.1933" lon="-0.55735">
        <ele>84.8</ele>
        <time>2023-05-25T12:23:20Z</time>
      </trkpt>
      <trkpt lat="49.19333" lon="-0.55744">
        <ele>85</ele>
        <time>2023-05-25T12:23:21Z</time>
      </trkpt>
      <trkpt lat="49.19336" lon="-0.55752">
        <ele>85</ele>
        <time>2023-05-25T12:23:22Z</time>
      </trkpt>
      <trkpt lat="49.19339" lon="-0.55761">
        <ele>85</ele>
        <time>2023-05-25T12:23:23Z</time>
      </trkpt>
      <trkpt lat="49.19342" lon="-0.55769">
        <ele>85</ele>
        <time>2023-05-25T12:23:24Z</time>
      </trkpt>
      <trkpt lat="49.19345" lon="-0.55777">
        <ele>85</ele>
        <time>2023-05-25T12:23:25Z</time>
      </trkpt>
      <trkpt lat="49.19348" lon="-0.55785">
        <ele>85.2</ele>
        <time>2023-05-25T12:23:26Z</time>
      </trkpt>
      <trkpt lat="49.19351" lon="-0.55793">
        <ele>85.2</ele>
        <time>2023-05-25T12:23:27Z</time>
      </trkpt>
      <trkpt lat="49.19353" lon="-0.55801">
        <ele>85.2</ele>
        <time>2023-05-25T12:23:28Z</time>
      </trkpt>
      <trkpt lat="49.19356" lon="-0.5581">
        <ele>85.2</ele>
        <time>2023-05-25T12:23:29Z</time>
      </trkpt>
      <trkpt lat="49.19359" lon="-0.55817">
        <ele>85.4</ele>
        <time>2023-05-25T12:23:30Z</time>
      </trkpt>
      <trkpt lat="49.19361" lon="-0.55826">
        <ele>85.4</ele>
        <time>2023-05-25T12:23:31Z</time>
      </trkpt>
      <trkpt lat="49.19364" lon="-0.55833">
        <ele>85.4</ele>
        <time>2023-05-25T12:23:32Z</time>
      </trkpt>
      <trkpt lat="49.19366" lon="-0.55841">
        <ele>85.4</ele>
        <time>2023-05-25T12:23:33Z</time>
      </trkpt>
      <trkpt lat="49.19369" lon="-0.5585">
        <ele>85.4</ele>
        <time>2023-05-25T12:23:34Z</time>
      </trkpt>
      <trkpt lat="49.19371" lon="-0.55858">
        <ele>85.4</ele>
        <time>2023-05-25T12:23:35Z</time>
      </trkpt>
      <trkpt lat="49.19374" lon="-0.55866">
        <ele>85.4</ele>
        <time>2023-05-25T12:23:36Z</time>
      </trkpt>
      <trkpt lat="49.19376" lon="-0.55874">
        <ele>85.4</ele>
        <time>2023-05-25T12:23:37Z</time>
      </trkpt>
      <trkpt lat="49.19379" lon="-0.55882">
        <ele>85.6</ele>
        <time>2023-05-25T12:23:38Z</time>
      </trkpt>
      <trkpt lat="49.19382" lon="-0.5589">
        <ele>85.6</ele>
        <time>2023-05-25T12:23:39Z</time>
      </trkpt>
      <trkpt lat="49.19384" lon="-0.55898">
        <ele>85.6</ele>
        <time>2023-05-25T12:23:40Z</time>
      </trkpt>
      <trkpt lat="49.19387" lon="-0.55906">
        <ele>85.6</ele>
        <time>2023-05-25T12:23:41Z</time>
      </trkpt>
      <trkpt lat="49.1939" lon="-0.55914">
        <ele>85.6</ele>
        <time>2023-05-25T12:23:42Z</time>
      </trkpt>
      <trkpt lat="49.19393" lon="-0.55923">
        <ele>85.6</ele>
        <time>2023-05-25T12:23:43Z</time>
      </trkpt>
      <trkpt lat="49.19395" lon="-0.55931">
        <ele>86</ele>
        <time>2023-05-25T12:23:44Z</time>
      </trkpt>
      <trkpt lat="49.19398" lon="-0.55939">
        <ele>86</ele>
        <time>2023-05-25T12:23:45Z</time>
      </trkpt>
      <trkpt lat="49.19401" lon="-0.55947">
        <ele>86.4</ele>
        <time>2023-05-25T12:23:46Z</time>
      </trkpt>
      <trkpt lat="49.19404" lon="-0.55956">
        <ele>86.6</ele>
        <time>2023-05-25T12:23:47Z</time>
      </trkpt>
      <trkpt lat="49.19406" lon="-0.55964">
        <ele>86.6</ele>
        <time>2023-05-25T12:23:48Z</time>
      </trkpt>
      <trkpt lat="49.19409" lon="-0.55972">
        <ele>87</ele>
        <time>2023-05-25T12:23:49Z</time>
      </trkpt>
      <trkpt lat="49.19412" lon="-0.55981">
        <ele>87.4</ele>
        <time>2023-05-25T12:23:50Z</time>
      </trkpt>
      <trkpt lat="49.19415" lon="-0.55989">
        <ele>87.6</ele>
        <time>2023-05-25T12:23:51Z</time>
      </trkpt>
      <trkpt lat="49.19418" lon="-0.55997">
        <ele>88</ele>
        <time>2023-05-25T12:23:52Z</time>
      </trkpt>
      <trkpt lat="49.19421" lon="-0.56005">
        <ele>87.8</ele>
        <time>2023-05-25T12:23:53Z</time>
      </trkpt>
      <trkpt lat="49.19423" lon="-0.56014">
        <ele>87.6</ele>
        <time>2023-05-25T12:23:54Z</time>
      </trkpt>
      <trkpt lat="49.19426" lon="-0.56022">
        <ele>87.6</ele>
        <time>2023-05-25T12:23:55Z</time>
      </trkpt>
      <trkpt lat="49.19429" lon="-0.5603">
        <ele>87.4</ele>
        <time>2023-05-25T12:23:56Z</time>
      </trkpt>
      <trkpt lat="49.19431" lon="-0.56038">
        <ele>87.4</ele>
        <time>2023-05-25T12:23:57Z</time>
      </trkpt>
      <trkpt lat="49.19434" lon="-0.56046">
        <ele>87.2</ele>
        <time>2023-05-25T12:23:58Z</time>
      </trkpt>
      <trkpt lat="49.19437" lon="-0.56054">
        <ele>87</ele>
        <time>2023-05-25T12:23:59Z</time>
      </trkpt>
      <trkpt lat="49.19439" lon="-0.56062">
        <ele>87</ele>
        <time>2023-05-25T12:24:00Z</time>
      </trkpt>
      <trkpt lat="49.19442" lon="-0.5607">
        <ele>87</ele>
        <time>2023-05-25T12:24:01Z</time>
      </trkpt>
      <trkpt lat="49.19444" lon="-0.56079">
        <ele>87</ele>
        <time>2023-05-25T12:24:02Z</time>
      </trkpt>
      <trkpt lat="49.19447" lon="-0.56087">
        <ele>87</ele>
        <time>2023-05-25T12:24:03Z</time>
      </trkpt>
      <trkpt lat="49.19449" lon="-0.56095">
        <ele>87</ele>
        <time>2023-05-25T12:24:04Z</time>
      </trkpt>
      <trkpt lat="49.19452" lon="-0.56103">
        <ele>87</ele>
        <time>2023-05-25T12:24:05Z</time>
      </trkpt>
      <trkpt lat="49.19454" lon="-0.56112">
        <ele>87.2</ele>
        <time>2023-05-25T12:24:06Z</time>
      </trkpt>
      <trkpt lat="49.19457" lon="-0.5612">
        <ele>87.2</ele>
        <time>2023-05-25T12:24:07Z</time>
      </trkpt>
      <trkpt lat="49.19459" lon="-0.56129">
        <ele>87.4</ele>
        <time>2023-05-25T12:24:08Z</time>
      </trkpt>
      <trkpt lat="49.19462" lon="-0.56137">
        <ele>87.4</ele>
        <time>2023-05-25T12:24:09Z</time>
      </trkpt>
      <trkpt lat="49.19464" lon="-0.56146">
        <ele>87.4</ele>
        <time>2023-05-25T12:24:10Z</time>
      </trkpt>
      <trkpt lat="49.19466" lon="-0.56154">
        <ele>87.6</ele>
        <time>2023-05-25T12:24:11Z</time>
      </trkpt>
      <trkpt lat="49.19469" lon="-0.56163">
        <ele>87.6</ele>
        <time>2023-05-25T12:24:12Z</time>
      </trkpt>
      <trkpt lat="49.19471" lon="-0.56172">
        <ele>87.6</ele>
        <time>2023-05-25T12:24:13Z</time>
      </trkpt>
      <trkpt lat="49.19474" lon="-0.5618">
        <ele>87.8</ele>
        <time>2023-05-25T12:24:14Z</time>
      </trkpt>
      <trkpt lat="49.19476" lon="-0.56189">
        <ele>88</ele>
        <time>2023-05-25T12:24:15Z</time>
      </trkpt>
      <trkpt lat="49.19478" lon="-0.56197">
        <ele>88</ele>
        <time>2023-05-25T12:24:16Z</time>
      </trkpt>
      <trkpt lat="49.1948" lon="-0.56206">
        <ele>88.2</ele>
        <time>2023-05-25T12:24:17Z</time>
      </trkpt>
      <trkpt lat="49.19483" lon="-0.56214">
        <ele>88.4</ele>
        <time>2023-05-25T12:24:18Z</time>
      </trkpt>
      <trkpt lat="49.19485" lon="-0.56222">
        <ele>88.6</ele>
        <time>2023-05-25T12:24:19Z</time>
      </trkpt>
      <trkpt lat="49.19487" lon="-0.56231">
        <ele>88.6</ele>
        <time>2023-05-25T12:24:20Z</time>
      </trkpt>
      <trkpt lat="49.19489" lon="-0.56239">
        <ele>88.6</ele>
        <time>2023-05-25T12:24:21Z</time>
      </trkpt>
      <trkpt lat="49.19491" lon="-0.56247">
        <ele>89</ele>
        <time>2023-05-25T12:24:22Z</time>
      </trkpt>
      <trkpt lat="49.19493" lon="-0.56254">
        <ele>89</ele>
        <time>2023-05-25T12:24:23Z</time>
      </trkpt>
      <trkpt lat="49.19495" lon="-0.56262">
        <ele>89</ele>
        <time>2023-05-25T12:24:24Z</time>
      </trkpt>
      <trkpt lat="49.19497" lon="-0.5627">
        <ele>89.2</ele>
        <time>2023-05-25T12:24:25Z</time>
      </trkpt>
      <trkpt lat="49.19499" lon="-0.56278">
        <ele>89.4</ele>
        <time>2023-05-25T12:24:26Z</time>
      </trkpt>
      <trkpt lat="49.19501" lon="-0.56286">
        <ele>89.4</ele>
        <time>2023-05-25T12:24:27Z</time>
      </trkpt>
      <trkpt lat="49.19503" lon="-0.56293">
        <ele>89.6</ele>
        <time>2023-05-25T12:24:28Z</time>
      </trkpt>
      <trkpt lat="49.19504" lon="-0.56301">
        <ele>89.6</ele>
        <time>2023-05-25T12:24:29Z</time>
      </trkpt>
      <trkpt lat="49.19507" lon="-0.56309">
        <ele>89.6</ele>
        <time>2023-05-25T12:24:30Z</time>
      </trkpt>
      <trkpt lat="49.19509" lon="-0.56317">
        <ele>89.6</ele>
        <time>2023-05-25T12:24:31Z</time>
      </trkpt>
      <trkpt lat="49.1951" lon="-0.56325">
        <ele>89.6</ele>
        <time>2023-05-25T12:24:32Z</time>
      </trkpt>
      <trkpt lat="49.19512" lon="-0.56333">
        <ele>89.6</ele>
        <time>2023-05-25T12:24:33Z</time>
      </trkpt>
      <trkpt lat="49.19514" lon="-0.56341">
        <ele>89.6</ele>
        <time>2023-05-25T12:24:34Z</time>
      </trkpt>
      <trkpt lat="49.19516" lon="-0.56349">
        <ele>89.6</ele>
        <time>2023-05-25T12:24:35Z</time>
      </trkpt>
      <trkpt lat="49.19518" lon="-0.56357">
        <ele>89.6</ele>
        <time>2023-05-25T12:24:36Z</time>
      </trkpt>
      <trkpt lat="49.19521" lon="-0.56365">
        <ele>89.6</ele>
        <time>2023-05-25T12:24:37Z</time>
      </trkpt>
      <trkpt lat="49.19523" lon="-0.56373">
        <ele>89.6</ele>
        <time>2023-05-25T12:24:38Z</time>
      </trkpt>
      <trkpt lat="49.19525" lon="-0.56381">
        <ele>89.6</ele>
        <time>2023-05-25T12:24:39Z</time>
      </trkpt>
      <trkpt lat="49.19528" lon="-0.56389">
        <ele>89.8</ele>
        <time>2023-05-25T12:24:40Z</time>
      </trkpt>
      <trkpt lat="49.1953" lon="-0.56397">
        <ele>89.8</ele>
        <time>2023-05-25T12:24:41Z</time>
      </trkpt>
      <trkpt lat="49.19533" lon="-0.56405">
        <ele>90</ele>
        <time>2023-05-25T12:24:42Z</time>
      </trkpt>
      <trkpt lat="49.19535" lon="-0.56413">
        <ele>90</ele>
        <time>2023-05-25T12:24:43Z</time>
      </trkpt>
      <trkpt lat="49.19537" lon="-0.56421">
        <ele>90</ele>
        <time>2023-05-25T12:24:44Z</time>
      </trkpt>
      <trkpt lat="49.1954" lon="-0.56428">
        <ele>90</ele>
        <time>2023-05-25T12:24:45Z</time>
      </trkpt>
      <trkpt lat="49.19542" lon="-0.56436">
        <ele>90</ele>
        <time>2023-05-25T12:24:46Z</time>
      </trkpt>
      <trkpt lat="49.19545" lon="-0.56444">
        <ele>90</ele>
        <time>2023-05-25T12:24:47Z</time>
      </trkpt>
      <trkpt lat="49.19547" lon="-0.56452">
        <ele>90</ele>
        <time>2023-05-25T12:24:48Z</time>
      </trkpt>
      <trkpt lat="49.1955" lon="-0.5646">
        <ele>90</ele>
        <time>2023-05-25T12:24:49Z</time>
      </trkpt>
      <trkpt lat="49.19552" lon="-0.56468">
        <ele>90</ele>
        <time>2023-05-25T12:24:50Z</time>
      </trkpt>
      <trkpt lat="49.19555" lon="-0.56476">
        <ele>90</ele>
        <time>2023-05-25T12:24:51Z</time>
      </trkpt>
      <trkpt lat="49.19557" lon="-0.56484">
        <ele>90</ele>
        <time>2023-05-25T12:24:52Z</time>
      </trkpt>
      <trkpt lat="49.1956" lon="-0.56492">
        <ele>90</ele>
        <time>2023-05-25T12:24:53Z</time>
      </trkpt>
      <trkpt lat="49.19562" lon="-0.565">
        <ele>90</ele>
        <time>2023-05-25T12:24:54Z</time>
      </trkpt>
      <trkpt lat="49.19565" lon="-0.56509">
        <ele>90</ele>
        <time>2023-05-25T12:24:55Z</time>
      </trkpt>
      <trkpt lat="49.19567" lon="-0.56517">
        <ele>90</ele>
        <time>2023-05-25T12:24:56Z</time>
      </trkpt>
      <trkpt lat="49.1957" lon="-0.56526">
        <ele>90</ele>
        <time>2023-05-25T12:24:57Z</time>
      </trkpt>
      <trkpt lat="49.19572" lon="-0.56535">
        <ele>90</ele>
        <time>2023-05-25T12:24:58Z</time>
      </trkpt>
      <trkpt lat="49.19575" lon="-0.56544">
        <ele>90</ele>
        <time>2023-05-25T12:24:59Z</time>
      </trkpt>
      <trkpt lat="49.19577" lon="-0.56553">
        <ele>90</ele>
        <time>2023-05-25T12:25:00Z</time>
      </trkpt>
      <trkpt lat="49.19579" lon="-0.56562">
        <ele>90</ele>
        <time>2023-05-25T12:25:01Z</time>
      </trkpt>
      <trkpt lat="49.19582" lon="-0.56571">
        <ele>90</ele>
        <time>2023-05-25T12:25:02Z</time>
      </trkpt>
      <trkpt lat="49.19584" lon="-0.5658">
        <ele>90</ele>
        <time>2023-05-25T12:25:03Z</time>
      </trkpt>
      <trkpt lat="49.19586" lon="-0.56589">
        <ele>90</ele>
        <time>2023-05-25T12:25:04Z</time>
      </trkpt>
      <trkpt lat="49.19588" lon="-0.56598">
        <ele>90</ele>
        <time>2023-05-25T12:25:05Z</time>
      </trkpt>
      <trkpt lat="49.1959" lon="-0.56607">
        <ele>90</ele>
        <time>2023-05-25T12:25:06Z</time>
      </trkpt>
      <trkpt lat="49.19592" lon="-0.56615">
        <ele>90</ele>
        <time>2023-05-25T12:25:07Z</time>
      </trkpt>
      <trkpt lat="49.19594" lon="-0.56624">
        <ele>90</ele>
        <time>2023-05-25T12:25:08Z</time>
      </trkpt>
      <trkpt lat="49.19596" lon="-0.56633">
        <ele>90</ele>
        <time>2023-05-25T12:25:09Z</time>
      </trkpt>
      <trkpt lat="49.19597" lon="-0.56642">
        <ele>89.8</ele>
        <time>2023-05-25T12:25:10Z</time>
      </trkpt>
      <trkpt lat="49.19599" lon="-0.56651">
        <ele>89.8</ele>
        <time>2023-05-25T12:25:11Z</time>
      </trkpt>
      <trkpt lat="49.19601" lon="-0.5666">
        <ele>89.8</ele>
        <time>2023-05-25T12:25:12Z</time>
      </trkpt>
      <trkpt lat="49.19603" lon="-0.56668">
        <ele>89.6</ele>
        <time>2023-05-25T12:25:13Z</time>
      </trkpt>
      <trkpt lat="49.19605" lon="-0.56677">
        <ele>89.6</ele>
        <time>2023-05-25T12:25:14Z</time>
      </trkpt>
      <trkpt lat="49.19608" lon="-0.56684">
        <ele>89.4</ele>
        <time>2023-05-25T12:25:15Z</time>
      </trkpt>
      <trkpt lat="49.1961" lon="-0.56691">
        <ele>89.2</ele>
        <time>2023-05-25T12:25:16Z</time>
      </trkpt>
      <trkpt lat="49.19613" lon="-0.56697">
        <ele>89</ele>
        <time>2023-05-25T12:25:17Z</time>
      </trkpt>
      <trkpt lat="49.19615" lon="-0.56701">
        <ele>89</ele>
        <time>2023-05-25T12:25:18Z</time>
      </trkpt>
      <trkpt lat="49.19617" lon="-0.56705">
        <ele>89</ele>
        <time>2023-05-25T12:25:19Z</time>
      </trkpt>
      <trkpt lat="49.19617" lon="-0.56709">
        <ele>88.8</ele>
        <time>2023-05-25T12:25:20Z</time>
      </trkpt>
      <trkpt lat="49.19617" lon="-0.56713">
        <ele>88.6</ele>
        <time>2023-05-25T12:25:21Z</time>
      </trkpt>
      <trkpt lat="49.19618" lon="-0.56717">
        <ele>88.6</ele>
        <time>2023-05-25T12:25:22Z</time>
      </trkpt>
      <trkpt lat="49.19618" lon="-0.56723">
        <ele>88.6</ele>
        <time>2023-05-25T12:25:23Z</time>
      </trkpt>
      <trkpt lat="49.19618" lon="-0.56729">
        <ele>88.4</ele>
        <time>2023-05-25T12:25:24Z</time>
      </trkpt>
      <trkpt lat="49.19618" lon="-0.56736">
        <ele>88.4</ele>
        <time>2023-05-25T12:25:25Z</time>
      </trkpt>
      <trkpt lat="49.19619" lon="-0.56743">
        <ele>88</ele>
        <time>2023-05-25T12:25:26Z</time>
      </trkpt>
      <trkpt lat="49.1962" lon="-0.5675">
        <ele>88</ele>
        <time>2023-05-25T12:25:27Z</time>
      </trkpt>
      <trkpt lat="49.19621" lon="-0.56758">
        <ele>88</ele>
        <time>2023-05-25T12:25:28Z</time>
      </trkpt>
      <trkpt lat="49.19622" lon="-0.56766">
        <ele>88</ele>
        <time>2023-05-25T12:25:29Z</time>
      </trkpt>
      <trkpt lat="49.19624" lon="-0.56774">
        <ele>88</ele>
        <time>2023-05-25T12:25:30Z</time>
      </trkpt>
      <trkpt lat="49.19625" lon="-0.56783">
        <ele>87.8</ele>
        <time>2023-05-25T12:25:31Z</time>
      </trkpt>
      <trkpt lat="49.19627" lon="-0.56791">
        <ele>87.6</ele>
        <time>2023-05-25T12:25:32Z</time>
      </trkpt>
      <trkpt lat="49.19628" lon="-0.568">
        <ele>87.6</ele>
        <time>2023-05-25T12:25:33Z</time>
      </trkpt>
      <trkpt lat="49.1963" lon="-0.56808">
        <ele>87.6</ele>
        <time>2023-05-25T12:25:34Z</time>
      </trkpt>
      <trkpt lat="49.19632" lon="-0.56817">
        <ele>87.6</ele>
        <time>2023-05-25T12:25:35Z</time>
      </trkpt>
      <trkpt lat="49.19633" lon="-0.56826">
        <ele>87.6</ele>
        <time>2023-05-25T12:25:36Z</time>
      </trkpt>
      <trkpt lat="49.19635" lon="-0.56835">
        <ele>87.4</ele>
        <time>2023-05-25T12:25:37Z</time>
      </trkpt>
      <trkpt lat="49.19637" lon="-0.56844">
        <ele>87.2</ele>
        <time>2023-05-25T12:25:38Z</time>
      </trkpt>
      <trkpt lat="49.19639" lon="-0.56853">
        <ele>87</ele>
        <time>2023-05-25T12:25:39Z</time>
      </trkpt>
      <trkpt lat="49.1964" lon="-0.56862">
        <ele>87</ele>
        <time>2023-05-25T12:25:40Z</time>
      </trkpt>
      <trkpt lat="49.19642" lon="-0.56871">
        <ele>86.8</ele>
        <time>2023-05-25T12:25:41Z</time>
      </trkpt>
      <trkpt lat="49.19644" lon="-0.56881">
        <ele>86.6</ele>
        <time>2023-05-25T12:25:42Z</time>
      </trkpt>
      <trkpt lat="49.19645" lon="-0.56891">
        <ele>86.6</ele>
        <time>2023-05-25T12:25:43Z</time>
      </trkpt>
      <trkpt lat="49.19645" lon="-0.569">
        <ele>86.6</ele>
        <time>2023-05-25T12:25:44Z</time>
      </trkpt>
      <trkpt lat="49.19645" lon="-0.5691">
        <ele>86.4</ele>
        <time>2023-05-25T12:25:45Z</time>
      </trkpt>
      <trkpt lat="49.19643" lon="-0.5692">
        <ele>86.2</ele>
        <time>2023-05-25T12:25:46Z</time>
      </trkpt>
      <trkpt lat="49.19641" lon="-0.5693">
        <ele>86</ele>
        <time>2023-05-25T12:25:47Z</time>
      </trkpt>
      <trkpt lat="49.19638" lon="-0.5694">
        <ele>85.8</ele>
        <time>2023-05-25T12:25:48Z</time>
      </trkpt>
      <trkpt lat="49.19634" lon="-0.5695">
        <ele>85.6</ele>
        <time>2023-05-25T12:25:49Z</time>
      </trkpt>
      <trkpt lat="49.19631" lon="-0.5696">
        <ele>85.4</ele>
        <time>2023-05-25T12:25:50Z</time>
      </trkpt>
      <trkpt lat="49.19628" lon="-0.5697">
        <ele>85.2</ele>
        <time>2023-05-25T12:25:51Z</time>
      </trkpt>
      <trkpt lat="49.19625" lon="-0.56981">
        <ele>85</ele>
        <time>2023-05-25T12:25:52Z</time>
      </trkpt>
      <trkpt lat="49.19621" lon="-0.56991">
        <ele>84.8</ele>
        <time>2023-05-25T12:25:53Z</time>
      </trkpt>
      <trkpt lat="49.19618" lon="-0.57002">
        <ele>84.6</ele>
        <time>2023-05-25T12:25:54Z</time>
      </trkpt>
      <trkpt lat="49.19614" lon="-0.57013">
        <ele>84.4</ele>
        <time>2023-05-25T12:25:55Z</time>
      </trkpt>
      <trkpt lat="49.19609" lon="-0.57025">
        <ele>84</ele>
        <time>2023-05-25T12:25:56Z</time>
      </trkpt>
      <trkpt lat="49.19605" lon="-0.57037">
        <ele>83.6</ele>
        <time>2023-05-25T12:25:57Z</time>
      </trkpt>
      <trkpt lat="49.19601" lon="-0.57049">
        <ele>83.6</ele>
        <time>2023-05-25T12:25:58Z</time>
      </trkpt>
      <trkpt lat="49.19596" lon="-0.57061">
        <ele>83.4</ele>
        <time>2023-05-25T12:25:59Z</time>
      </trkpt>
      <trkpt lat="49.19592" lon="-0.57074">
        <ele>83</ele>
        <time>2023-05-25T12:26:00Z</time>
      </trkpt>
      <trkpt lat="49.19587" lon="-0.57086">
        <ele>82.8</ele>
        <time>2023-05-25T12:26:01Z</time>
      </trkpt>
      <trkpt lat="49.19583" lon="-0.57099">
        <ele>82.6</ele>
        <time>2023-05-25T12:26:02Z</time>
      </trkpt>
      <trkpt lat="49.19579" lon="-0.57111">
        <ele>82.2</ele>
        <time>2023-05-25T12:26:03Z</time>
      </trkpt>
      <trkpt lat="49.19574" lon="-0.57123">
        <ele>82</ele>
        <time>2023-05-25T12:26:04Z</time>
      </trkpt>
      <trkpt lat="49.1957" lon="-0.57135">
        <ele>81.6</ele>
        <time>2023-05-25T12:26:05Z</time>
      </trkpt>
      <trkpt lat="49.19566" lon="-0.57147">
        <ele>81.6</ele>
        <time>2023-05-25T12:26:06Z</time>
      </trkpt>
      <trkpt lat="49.19562" lon="-0.5716">
        <ele>81.6</ele>
        <time>2023-05-25T12:26:07Z</time>
      </trkpt>
      <trkpt lat="49.19558" lon="-0.57172">
        <ele>81.4</ele>
        <time>2023-05-25T12:26:08Z</time>
      </trkpt>
      <trkpt lat="49.19555" lon="-0.57185">
        <ele>81.2</ele>
        <time>2023-05-25T12:26:09Z</time>
      </trkpt>
      <trkpt lat="49.19552" lon="-0.57197">
        <ele>81</ele>
        <time>2023-05-25T12:26:10Z</time>
      </trkpt>
      <trkpt lat="49.19552" lon="-0.5721">
        <ele>80.6</ele>
        <time>2023-05-25T12:26:11Z</time>
      </trkpt>
      <trkpt lat="49.19553" lon="-0.57223">
        <ele>80.2</ele>
        <time>2023-05-25T12:26:12Z</time>
      </trkpt>
      <trkpt lat="49.19554" lon="-0.57236">
        <ele>79.8</ele>
        <time>2023-05-25T12:26:13Z</time>
      </trkpt>
      <trkpt lat="49.19557" lon="-0.57248">
        <ele>79.4</ele>
        <time>2023-05-25T12:26:14Z</time>
      </trkpt>
      <trkpt lat="49.19559" lon="-0.57261">
        <ele>79</ele>
        <time>2023-05-25T12:26:15Z</time>
      </trkpt>
      <trkpt lat="49.19561" lon="-0.57273">
        <ele>78.8</ele>
        <time>2023-05-25T12:26:16Z</time>
      </trkpt>
      <trkpt lat="49.19562" lon="-0.57286">
        <ele>78.6</ele>
        <time>2023-05-25T12:26:17Z</time>
      </trkpt>
      <trkpt lat="49.19563" lon="-0.57298">
        <ele>78.4</ele>
        <time>2023-05-25T12:26:18Z</time>
      </trkpt>
      <trkpt lat="49.19564" lon="-0.5731">
        <ele>78.2</ele>
        <time>2023-05-25T12:26:19Z</time>
      </trkpt>
      <trkpt lat="49.19565" lon="-0.57323">
        <ele>78</ele>
        <time>2023-05-25T12:26:20Z</time>
      </trkpt>
      <trkpt lat="49.19566" lon="-0.57336">
        <ele>77.8</ele>
        <time>2023-05-25T12:26:21Z</time>
      </trkpt>
      <trkpt lat="49.19566" lon="-0.57348">
        <ele>77.8</ele>
        <time>2023-05-25T12:26:22Z</time>
      </trkpt>
      <trkpt lat="49.19566" lon="-0.57361">
        <ele>77.6</ele>
        <time>2023-05-25T12:26:23Z</time>
      </trkpt>
      <trkpt lat="49.19567" lon="-0.57373">
        <ele>77.6</ele>
        <time>2023-05-25T12:26:24Z</time>
      </trkpt>
      <trkpt lat="49.19567" lon="-0.57386">
        <ele>77.6</ele>
        <time>2023-05-25T12:26:25Z</time>
      </trkpt>
      <trkpt lat="49.19568" lon="-0.57398">
        <ele>77.6</ele>
        <time>2023-05-25T12:26:26Z</time>
      </trkpt>
      <trkpt lat="49.19568" lon="-0.5741">
        <ele>77.4</ele>
        <time>2023-05-25T12:26:27Z</time>
      </trkpt>
      <trkpt lat="49.19568" lon="-0.57422">
        <ele>77.6</ele>
        <time>2023-05-25T12:26:28Z</time>
      </trkpt>
      <trkpt lat="49.19568" lon="-0.57434">
        <ele>77.6</ele>
        <time>2023-05-25T12:26:29Z</time>
      </trkpt>
      <trkpt lat="49.19569" lon="-0.57445">
        <ele>78</ele>
        <time>2023-05-25T12:26:30Z</time>
      </trkpt>
      <trkpt lat="49.19569" lon="-0.57456">
        <ele>78.2</ele>
        <time>2023-05-25T12:26:31Z</time>
      </trkpt>
      <trkpt lat="49.19569" lon="-0.57467">
        <ele>78.6</ele>
        <time>2023-05-25T12:26:32Z</time>
      </trkpt>
      <trkpt lat="49.19569" lon="-0.57478">
        <ele>78.6</ele>
        <time>2023-05-25T12:26:33Z</time>
      </trkpt>
      <trkpt lat="49.19569" lon="-0.57489">
        <ele>79</ele>
        <time>2023-05-25T12:26:34Z</time>
      </trkpt>
      <trkpt lat="49.19569" lon="-0.57499">
        <ele>79.2</ele>
        <time>2023-05-25T12:26:35Z</time>
      </trkpt>
      <trkpt lat="49.19568" lon="-0.57509">
        <ele>79.4</ele>
        <time>2023-05-25T12:26:36Z</time>
      </trkpt>
      <trkpt lat="49.19568" lon="-0.5752">
        <ele>79.4</ele>
        <time>2023-05-25T12:26:37Z</time>
      </trkpt>
      <trkpt lat="49.19567" lon="-0.5753">
        <ele>79.6</ele>
        <time>2023-05-25T12:26:38Z</time>
      </trkpt>
      <trkpt lat="49.19566" lon="-0.5754">
        <ele>79.6</ele>
        <time>2023-05-25T12:26:39Z</time>
      </trkpt>
      <trkpt lat="49.19564" lon="-0.5755">
        <ele>79.6</ele>
        <time>2023-05-25T12:26:40Z</time>
      </trkpt>
      <trkpt lat="49.19563" lon="-0.5756">
        <ele>79.8</ele>
        <time>2023-05-25T12:26:41Z</time>
      </trkpt>
      <trkpt lat="49.19561" lon="-0.5757">
        <ele>80</ele>
        <time>2023-05-25T12:26:42Z</time>
      </trkpt>
      <trkpt lat="49.19559" lon="-0.5758">
        <ele>80</ele>
        <time>2023-05-25T12:26:43Z</time>
      </trkpt>
      <trkpt lat="49.19557" lon="-0.57589">
        <ele>80</ele>
        <time>2023-05-25T12:26:44Z</time>
      </trkpt>
      <trkpt lat="49.19556" lon="-0.57599">
        <ele>80.2</ele>
        <time>2023-05-25T12:26:45Z</time>
      </trkpt>
      <trkpt lat="49.19554" lon="-0.57608">
        <ele>80.4</ele>
        <time>2023-05-25T12:26:46Z</time>
      </trkpt>
      <trkpt lat="49.19552" lon="-0.57618">
        <ele>80.6</ele>
        <time>2023-05-25T12:26:47Z</time>
      </trkpt>
      <trkpt lat="49.1955" lon="-0.57627">
        <ele>80.6</ele>
        <time>2023-05-25T12:26:48Z</time>
      </trkpt>
      <trkpt lat="49.19548" lon="-0.57636">
        <ele>81</ele>
        <time>2023-05-25T12:26:49Z</time>
      </trkpt>
      <trkpt lat="49.19546" lon="-0.57645">
        <ele>81</ele>
        <time>2023-05-25T12:26:50Z</time>
      </trkpt>
      <trkpt lat="49.19544" lon="-0.57654">
        <ele>81.4</ele>
        <time>2023-05-25T12:26:51Z</time>
      </trkpt>
      <trkpt lat="49.19542" lon="-0.57664">
        <ele>81.4</ele>
        <time>2023-05-25T12:26:52Z</time>
      </trkpt>
      <trkpt lat="49.1954" lon="-0.57673">
        <ele>81.6</ele>
        <time>2023-05-25T12:26:53Z</time>
      </trkpt>
      <trkpt lat="49.19538" lon="-0.57682">
        <ele>81.4</ele>
        <time>2023-05-25T12:26:54Z</time>
      </trkpt>
      <trkpt lat="49.19536" lon="-0.57692">
        <ele>81.4</ele>
        <time>2023-05-25T12:26:55Z</time>
      </trkpt>
      <trkpt lat="49.19535" lon="-0.57702">
        <ele>81.4</ele>
        <time>2023-05-25T12:26:56Z</time>
      </trkpt>
      <trkpt lat="49.19533" lon="-0.57711">
        <ele>81.4</ele>
        <time>2023-05-25T12:26:57Z</time>
      </trkpt>
      <trkpt lat="49.19531" lon="-0.57721">
        <ele>81.2</ele>
        <time>2023-05-25T12:26:58Z</time>
      </trkpt>
      <trkpt lat="49.19529" lon="-0.57731">
        <ele>81</ele>
        <time>2023-05-25T12:26:59Z</time>
      </trkpt>
      <trkpt lat="49.19527" lon="-0.57741">
        <ele>81</ele>
        <time>2023-05-25T12:27:00Z</time>
      </trkpt>
      <trkpt lat="49.19525" lon="-0.5775">
        <ele>81</ele>
        <time>2023-05-25T12:27:01Z</time>
      </trkpt>
      <trkpt lat="49.19523" lon="-0.5776">
        <ele>81</ele>
        <time>2023-05-25T12:27:02Z</time>
      </trkpt>
      <trkpt lat="49.19521" lon="-0.57769">
        <ele>81.2</ele>
        <time>2023-05-25T12:27:03Z</time>
      </trkpt>
      <trkpt lat="49.19519" lon="-0.57778">
        <ele>81.4</ele>
        <time>2023-05-25T12:27:04Z</time>
      </trkpt>
      <trkpt lat="49.19517" lon="-0.57787">
        <ele>81.4</ele>
        <time>2023-05-25T12:27:05Z</time>
      </trkpt>
      <trkpt lat="49.19515" lon="-0.57796">
        <ele>81.6</ele>
        <time>2023-05-25T12:27:06Z</time>
      </trkpt>
      <trkpt lat="49.19513" lon="-0.57805">
        <ele>81.6</ele>
        <time>2023-05-25T12:27:07Z</time>
      </trkpt>
      <trkpt lat="49.19511" lon="-0.57814">
        <ele>81.8</ele>
        <time>2023-05-25T12:27:08Z</time>
      </trkpt>
      <trkpt lat="49.1951" lon="-0.57823">
        <ele>82</ele>
        <time>2023-05-25T12:27:09Z</time>
      </trkpt>
      <trkpt lat="49.19508" lon="-0.57831">
        <ele>82</ele>
        <time>2023-05-25T12:27:10Z</time>
      </trkpt>
      <trkpt lat="49.19506" lon="-0.5784">
        <ele>82.2</ele>
        <time>2023-05-25T12:27:11Z</time>
      </trkpt>
      <trkpt lat="49.19504" lon="-0.57849">
        <ele>82.4</ele>
        <time>2023-05-25T12:27:12Z</time>
      </trkpt>
      <trkpt lat="49.19503" lon="-0.57858">
        <ele>82.6</ele>
        <time>2023-05-25T12:27:13Z</time>
      </trkpt>
      <trkpt lat="49.19501" lon="-0.57866">
        <ele>82.8</ele>
        <time>2023-05-25T12:27:14Z</time>
      </trkpt>
      <trkpt lat="49.19499" lon="-0.57875">
        <ele>83</ele>
        <time>2023-05-25T12:27:15Z</time>
      </trkpt>
      <trkpt lat="49.19497" lon="-0.57884">
        <ele>83.4</ele>
        <time>2023-05-25T12:27:16Z</time>
      </trkpt>
      <trkpt lat="49.19495" lon="-0.57893">
        <ele>83.6</ele>
        <time>2023-05-25T12:27:17Z</time>
      </trkpt>
      <trkpt lat="49.19494" lon="-0.57901">
        <ele>84</ele>
        <time>2023-05-25T12:27:18Z</time>
      </trkpt>
      <trkpt lat="49.19492" lon="-0.5791">
        <ele>84.2</ele>
        <time>2023-05-25T12:27:19Z</time>
      </trkpt>
      <trkpt lat="49.19491" lon="-0.57919">
        <ele>84.6</ele>
        <time>2023-05-25T12:27:20Z</time>
      </trkpt>
      <trkpt lat="49.1949" lon="-0.57928">
        <ele>84.6</ele>
        <time>2023-05-25T12:27:21Z</time>
      </trkpt>
      <trkpt lat="49.19489" lon="-0.57937">
        <ele>85</ele>
        <time>2023-05-25T12:27:22Z</time>
      </trkpt>
      <trkpt lat="49.19489" lon="-0.57947">
        <ele>85</ele>
        <time>2023-05-25T12:27:23Z</time>
      </trkpt>
      <trkpt lat="49.19489" lon="-0.57956">
        <ele>85.4</ele>
        <time>2023-05-25T12:27:24Z</time>
      </trkpt>
      <trkpt lat="49.19488" lon="-0.57965">
        <ele>85.6</ele>
        <time>2023-05-25T12:27:25Z</time>
      </trkpt>
      <trkpt lat="49.19488" lon="-0.57974">
        <ele>85.6</ele>
        <time>2023-05-25T12:27:26Z</time>
      </trkpt>
      <trkpt lat="49.19488" lon="-0.57983">
        <ele>86</ele>
        <time>2023-05-25T12:27:27Z</time>
      </trkpt>
      <trkpt lat="49.19488" lon="-0.57993">
        <ele>86</ele>
        <time>2023-05-25T12:27:28Z</time>
      </trkpt>
      <trkpt lat="49.19487" lon="-0.58001">
        <ele>86.4</ele>
        <time>2023-05-25T12:27:29Z</time>
      </trkpt>
      <trkpt lat="49.19486" lon="-0.5801">
        <ele>86.6</ele>
        <time>2023-05-25T12:27:30Z</time>
      </trkpt>
      <trkpt lat="49.19485" lon="-0.58017">
        <ele>86.6</ele>
        <time>2023-05-25T12:27:31Z</time>
      </trkpt>
      <trkpt lat="49.19482" lon="-0.58023">
        <ele>87</ele>
        <time>2023-05-25T12:27:32Z</time>
      </trkpt>
      <trkpt lat="49.19478" lon="-0.58029">
        <ele>87</ele>
        <time>2023-05-25T12:27:33Z</time>
      </trkpt>
      <trkpt lat="49.19474" lon="-0.58033">
        <ele>87.2</ele>
        <time>2023-05-25T12:27:34Z</time>
      </trkpt>
      <trkpt lat="49.1947" lon="-0.58038">
        <ele>87.4</ele>
        <time>2023-05-25T12:27:35Z</time>
      </trkpt>
      <trkpt lat="49.19465" lon="-0.58042">
        <ele>87.4</ele>
        <time>2023-05-25T12:27:36Z</time>
      </trkpt>
      <trkpt lat="49.19461" lon="-0.58046">
        <ele>87.6</ele>
        <time>2023-05-25T12:27:37Z</time>
      </trkpt>
      <trkpt lat="49.19457" lon="-0.5805">
        <ele>87.6</ele>
        <time>2023-05-25T12:27:38Z</time>
      </trkpt>
      <trkpt lat="49.19452" lon="-0.58053">
        <ele>87.6</ele>
        <time>2023-05-25T12:27:39Z</time>
      </trkpt>
      <trkpt lat="49.19448" lon="-0.58057">
        <ele>87.8</ele>
        <time>2023-05-25T12:27:40Z</time>
      </trkpt>
      <trkpt lat="49.19444" lon="-0.5806">
        <ele>87.8</ele>
        <time>2023-05-25T12:27:41Z</time>
      </trkpt>
      <trkpt lat="49.19441" lon="-0.58063">
        <ele>88</ele>
        <time>2023-05-25T12:27:42Z</time>
      </trkpt>
      <trkpt lat="49.19437" lon="-0.58066">
        <ele>88</ele>
        <time>2023-05-25T12:27:43Z</time>
      </trkpt>
      <trkpt lat="49.19433" lon="-0.58069">
        <ele>88</ele>
        <time>2023-05-25T12:27:44Z</time>
      </trkpt>
      <trkpt lat="49.19429" lon="-0.58072">
        <ele>88</ele>
        <time>2023-05-25T12:27:45Z</time>
      </trkpt>
      <trkpt lat="49.19425" lon="-0.58075">
        <ele>88</ele>
        <time>2023-05-25T12:27:46Z</time>
      </trkpt>
      <trkpt lat="49.19421" lon="-0.58078">
        <ele>88</ele>
        <time>2023-05-25T12:27:47Z</time>
      </trkpt>
      <trkpt lat="49.19417" lon="-0.58082">
        <ele>88</ele>
        <time>2023-05-25T12:27:48Z</time>
      </trkpt>
      <trkpt lat="49.19413" lon="-0.58085">
        <ele>88</ele>
        <time>2023-05-25T12:27:49Z</time>
      </trkpt>
      <trkpt lat="49.19409" lon="-0.58088">
        <ele>88</ele>
        <time>2023-05-25T12:27:50Z</time>
      </trkpt>
      <trkpt lat="49.19405" lon="-0.58092">
        <ele>88</ele>
        <time>2023-05-25T12:27:51Z</time>
      </trkpt>
      <trkpt lat="49.19401" lon="-0.58095">
        <ele>88.2</ele>
        <time>2023-05-25T12:27:52Z</time>
      </trkpt>
      <trkpt lat="49.19397" lon="-0.58099">
        <ele>88.2</ele>
        <time>2023-05-25T12:27:53Z</time>
      </trkpt>
      <trkpt lat="49.19392" lon="-0.58102">
        <ele>88.2</ele>
        <time>2023-05-25T12:27:54Z</time>
      </trkpt>
      <trkpt lat="49.19388" lon="-0.58106">
        <ele>88.4</ele>
        <time>2023-05-25T12:27:55Z</time>
      </trkpt>
      <trkpt lat="49.19383" lon="-0.58108">
        <ele>88.4</ele>
        <time>2023-05-25T12:27:56Z</time>
      </trkpt>
      <trkpt lat="49.19379" lon="-0.58111">
        <ele>88.4</ele>
        <time>2023-05-25T12:27:57Z</time>
      </trkpt>
      <trkpt lat="49.19374" lon="-0.58114">
        <ele>88.4</ele>
        <time>2023-05-25T12:27:58Z</time>
      </trkpt>
      <trkpt lat="49.19369" lon="-0.58116">
        <ele>88.4</ele>
        <time>2023-05-25T12:27:59Z</time>
      </trkpt>
      <trkpt lat="49.19365" lon="-0.58118">
        <ele>88.4</ele>
        <time>2023-05-25T12:28:00Z</time>
      </trkpt>
      <trkpt lat="49.1936" lon="-0.5812">
        <ele>88.4</ele>
        <time>2023-05-25T12:28:01Z</time>
      </trkpt>
      <trkpt lat="49.19356" lon="-0.58122">
        <ele>88.4</ele>
        <time>2023-05-25T12:28:02Z</time>
      </trkpt>
      <trkpt lat="49.19351" lon="-0.58124">
        <ele>88.4</ele>
        <time>2023-05-25T12:28:03Z</time>
      </trkpt>
      <trkpt lat="49.19347" lon="-0.58125">
        <ele>88.4</ele>
        <time>2023-05-25T12:28:04Z</time>
      </trkpt>
      <trkpt lat="49.19342" lon="-0.58127">
        <ele>88.4</ele>
        <time>2023-05-25T12:28:05Z</time>
      </trkpt>
      <trkpt lat="49.19337" lon="-0.58129">
        <ele>88.4</ele>
        <time>2023-05-25T12:28:06Z</time>
      </trkpt>
      <trkpt lat="49.19333" lon="-0.58131">
        <ele>88.6</ele>
        <time>2023-05-25T12:28:07Z</time>
      </trkpt>
      <trkpt lat="49.19328" lon="-0.58132">
        <ele>88.6</ele>
        <time>2023-05-25T12:28:08Z</time>
      </trkpt>
      <trkpt lat="49.19323" lon="-0.58134">
        <ele>88.6</ele>
        <time>2023-05-25T12:28:09Z</time>
      </trkpt>
      <trkpt lat="49.19319" lon="-0.58136">
        <ele>88.8</ele>
        <time>2023-05-25T12:28:10Z</time>
      </trkpt>
      <trkpt lat="49.19314" lon="-0.58137">
        <ele>89</ele>
        <time>2023-05-25T12:28:11Z</time>
      </trkpt>
      <trkpt lat="49.19309" lon="-0.58139">
        <ele>89</ele>
        <time>2023-05-25T12:28:12Z</time>
      </trkpt>
      <trkpt lat="49.19305" lon="-0.58141">
        <ele>89.2</ele>
        <time>2023-05-25T12:28:13Z</time>
      </trkpt>
      <trkpt lat="49.193" lon="-0.58142">
        <ele>89.4</ele>
        <time>2023-05-25T12:28:14Z</time>
      </trkpt>
      <trkpt lat="49.19295" lon="-0.58144">
        <ele>89.6</ele>
        <time>2023-05-25T12:28:15Z</time>
      </trkpt>
      <trkpt lat="49.1929" lon="-0.58146">
        <ele>89.6</ele>
        <time>2023-05-25T12:28:16Z</time>
      </trkpt>
      <trkpt lat="49.19286" lon="-0.58147">
        <ele>89.8</ele>
        <time>2023-05-25T12:28:17Z</time>
      </trkpt>
      <trkpt lat="49.19281" lon="-0.58149">
        <ele>90</ele>
        <time>2023-05-25T12:28:18Z</time>
      </trkpt>
      <trkpt lat="49.19276" lon="-0.58151">
        <ele>90</ele>
        <time>2023-05-25T12:28:19Z</time>
      </trkpt>
      <trkpt lat="49.19271" lon="-0.58153">
        <ele>90.4</ele>
        <time>2023-05-25T12:28:20Z</time>
      </trkpt>
      <trkpt lat="49.19266" lon="-0.58155">
        <ele>90.4</ele>
        <time>2023-05-25T12:28:21Z</time>
      </trkpt>
      <trkpt lat="49.19261" lon="-0.58156">
        <ele>90.6</ele>
        <time>2023-05-25T12:28:22Z</time>
      </trkpt>
      <trkpt lat="49.19256" lon="-0.58158">
        <ele>90.8</ele>
        <time>2023-05-25T12:28:23Z</time>
      </trkpt>
      <trkpt lat="49.19251" lon="-0.5816">
        <ele>91</ele>
        <time>2023-05-25T12:28:24Z</time>
      </trkpt>
      <trkpt lat="49.19247" lon="-0.58161">
        <ele>91</ele>
        <time>2023-05-25T12:28:25Z</time>
      </trkpt>
      <trkpt lat="49.19242" lon="-0.58162">
        <ele>91.4</ele>
        <time>2023-05-25T12:28:26Z</time>
      </trkpt>
      <trkpt lat="49.19237" lon="-0.58164">
        <ele>91.6</ele>
        <time>2023-05-25T12:28:27Z</time>
      </trkpt>
      <trkpt lat="49.19232" lon="-0.58165">
        <ele>91.6</ele>
        <time>2023-05-25T12:28:28Z</time>
      </trkpt>
      <trkpt lat="49.19227" lon="-0.58167">
        <ele>91.8</ele>
        <time>2023-05-25T12:28:29Z</time>
      </trkpt>
      <trkpt lat="49.19222" lon="-0.58168">
        <ele>92</ele>
        <time>2023-05-25T12:28:30Z</time>
      </trkpt>
      <trkpt lat="49.19217" lon="-0.5817">
        <ele>92.2</ele>
        <time>2023-05-25T12:28:31Z</time>
      </trkpt>
      <trkpt lat="49.19212" lon="-0.58172">
        <ele>92.4</ele>
        <time>2023-05-25T12:28:32Z</time>
      </trkpt>
      <trkpt lat="49.19207" lon="-0.58174">
        <ele>92.6</ele>
        <time>2023-05-25T12:28:33Z</time>
      </trkpt>
      <trkpt lat="49.19202" lon="-0.58177">
        <ele>92.8</ele>
        <time>2023-05-25T12:28:34Z</time>
      </trkpt>
      <trkpt lat="49.19197" lon="-0.58179">
        <ele>93</ele>
        <time>2023-05-25T12:28:35Z</time>
      </trkpt>
      <trkpt lat="49.19192" lon="-0.58182">
        <ele>93.2</ele>
        <time>2023-05-25T12:28:36Z</time>
      </trkpt>
      <trkpt lat="49.19188" lon="-0.58185">
        <ele>93.4</ele>
        <time>2023-05-25T12:28:37Z</time>
      </trkpt>
      <trkpt lat="49.19183" lon="-0.58189">
        <ele>93.6</ele>
        <time>2023-05-25T12:28:38Z</time>
      </trkpt>
      <trkpt lat="49.19178" lon="-0.58193">
        <ele>93.8</ele>
        <time>2023-05-25T12:28:39Z</time>
      </trkpt>
      <trkpt lat="49.19174" lon="-0.58196">
        <ele>94</ele>
        <time>2023-05-25T12:28:40Z</time>
      </trkpt>
      <trkpt lat="49.19169" lon="-0.582">
        <ele>94.4</ele>
        <time>2023-05-25T12:28:41Z</time>
      </trkpt>
      <trkpt lat="49.19165" lon="-0.58204">
        <ele>94.6</ele>
        <time>2023-05-25T12:28:42Z</time>
      </trkpt>
      <trkpt lat="49.19161" lon="-0.58208">
        <ele>94.6</ele>
        <time>2023-05-25T12:28:43Z</time>
      </trkpt>
      <trkpt lat="49.19156" lon="-0.58212">
        <ele>94.8</ele>
        <time>2023-05-25T12:28:44Z</time>
      </trkpt>
      <trkpt lat="49.19153" lon="-0.58216">
        <ele>95</ele>
        <time>2023-05-25T12:28:45Z</time>
      </trkpt>
      <trkpt lat="49.19149" lon="-0.58219">
        <ele>95</ele>
        <time>2023-05-25T12:28:46Z</time>
      </trkpt>
      <trkpt lat="49.19145" lon="-0.58223">
        <ele>95.2</ele>
        <time>2023-05-25T12:28:47Z</time>
      </trkpt>
      <trkpt lat="49.19141" lon="-0.58227">
        <ele>95.4</ele>
        <time>2023-05-25T12:28:48Z</time>
      </trkpt>
      <trkpt lat="49.19137" lon="-0.5823">
        <ele>95.6</ele>
        <time>2023-05-25T12:28:49Z</time>
      </trkpt>
      <trkpt lat="49.19133" lon="-0.58234">
        <ele>95.6</ele>
        <time>2023-05-25T12:28:50Z</time>
      </trkpt>
      <trkpt lat="49.19129" lon="-0.58238">
        <ele>95.8</ele>
        <time>2023-05-25T12:28:51Z</time>
      </trkpt>
      <trkpt lat="49.19125" lon="-0.58242">
        <ele>96</ele>
        <time>2023-05-25T12:28:52Z</time>
      </trkpt>
      <trkpt lat="49.19122" lon="-0.58245">
        <ele>96</ele>
        <time>2023-05-25T12:28:53Z</time>
      </trkpt>
      <trkpt lat="49.19118" lon="-0.58249">
        <ele>96.2</ele>
        <time>2023-05-25T12:28:54Z</time>
      </trkpt>
      <trkpt lat="49.19115" lon="-0.58252">
        <ele>96.2</ele>
        <time>2023-05-25T12:28:55Z</time>
      </trkpt>
      <trkpt lat="49.19112" lon="-0.58256">
        <ele>96.4</ele>
        <time>2023-05-25T12:28:56Z</time>
      </trkpt>
      <trkpt lat="49.19108" lon="-0.5826">
        <ele>96.4</ele>
        <time>2023-05-25T12:28:57Z</time>
      </trkpt>
      <trkpt lat="49.19104" lon="-0.58263">
        <ele>96.4</ele>
        <time>2023-05-25T12:28:58Z</time>
      </trkpt>
      <trkpt lat="49.19101" lon="-0.58267">
        <ele>96.4</ele>
        <time>2023-05-25T12:28:59Z</time>
      </trkpt>
      <trkpt lat="49.19097" lon="-0.58271">
        <ele>96.4</ele>
        <time>2023-05-25T12:29:00Z</time>
      </trkpt>
      <trkpt lat="49.19094" lon="-0.58276">
        <ele>96.4</ele>
        <time>2023-05-25T12:29:01Z</time>
      </trkpt>
      <trkpt lat="49.1909" lon="-0.5828">
        <ele>96.6</ele>
        <time>2023-05-25T12:29:02Z</time>
      </trkpt>
      <trkpt lat="49.19087" lon="-0.58284">
        <ele>96.6</ele>
        <time>2023-05-25T12:29:03Z</time>
      </trkpt>
      <trkpt lat="49.19083" lon="-0.58288">
        <ele>96.6</ele>
        <time>2023-05-25T12:29:04Z</time>
      </trkpt>
      <trkpt lat="49.19079" lon="-0.58293">
        <ele>96.6</ele>
        <time>2023-05-25T12:29:05Z</time>
      </trkpt>
      <trkpt lat="49.19075" lon="-0.58297">
        <ele>96.8</ele>
        <time>2023-05-25T12:29:06Z</time>
      </trkpt>
      <trkpt lat="49.19071" lon="-0.58301">
        <ele>97</ele>
        <time>2023-05-25T12:29:07Z</time>
      </trkpt>
      <trkpt lat="49.19067" lon="-0.58305">
        <ele>97</ele>
        <time>2023-05-25T12:29:08Z</time>
      </trkpt>
      <trkpt lat="49.19063" lon="-0.58309">
        <ele>97.2</ele>
        <time>2023-05-25T12:29:09Z</time>
      </trkpt>
      <trkpt lat="49.19059" lon="-0.58314">
        <ele>97.4</ele>
        <time>2023-05-25T12:29:10Z</time>
      </trkpt>
      <trkpt lat="49.19054" lon="-0.58317">
        <ele>97.6</ele>
        <time>2023-05-25T12:29:11Z</time>
      </trkpt>
      <trkpt lat="49.1905" lon="-0.58321">
        <ele>97.6</ele>
        <time>2023-05-25T12:29:12Z</time>
      </trkpt>
      <trkpt lat="49.19045" lon="-0.58325">
        <ele>98</ele>
        <time>2023-05-25T12:29:13Z</time>
      </trkpt>
      <trkpt lat="49.19041" lon="-0.58328">
        <ele>98</ele>
        <time>2023-05-25T12:29:14Z</time>
      </trkpt>
      <trkpt lat="49.19036" lon="-0.58332">
        <ele>98.4</ele>
        <time>2023-05-25T12:29:15Z</time>
      </trkpt>
      <trkpt lat="49.19031" lon="-0.58335">
        <ele>98.6</ele>
        <time>2023-05-25T12:29:16Z</time>
      </trkpt>
      <trkpt lat="49.19027" lon="-0.58337">
        <ele>98.6</ele>
        <time>2023-05-25T12:29:17Z</time>
      </trkpt>
      <trkpt lat="49.19022" lon="-0.58339">
        <ele>99</ele>
        <time>2023-05-25T12:29:18Z</time>
      </trkpt>
      <trkpt lat="49.19017" lon="-0.58341">
        <ele>99</ele>
        <time>2023-05-25T12:29:19Z</time>
      </trkpt>
      <trkpt lat="49.19013" lon="-0.58343">
        <ele>99.4</ele>
        <time>2023-05-25T12:29:20Z</time>
      </trkpt>
      <trkpt lat="49.19008" lon="-0.58345">
        <ele>99.6</ele>
        <time>2023-05-25T12:29:21Z</time>
      </trkpt>
      <trkpt lat="49.19004" lon="-0.58346">
        <ele>99.6</ele>
        <time>2023-05-25T12:29:22Z</time>
      </trkpt>
      <trkpt lat="49.19" lon="-0.58348">
        <ele>99.8</ele>
        <time>2023-05-25T12:29:23Z</time>
      </trkpt>
      <trkpt lat="49.18995" lon="-0.58349">
        <ele>100</ele>
        <time>2023-05-25T12:29:24Z</time>
      </trkpt>
      <trkpt lat="49.18991" lon="-0.58351">
        <ele>100</ele>
        <time>2023-05-25T12:29:25Z</time>
      </trkpt>
      <trkpt lat="49.18986" lon="-0.58352">
        <ele>100</ele>
        <time>2023-05-25T12:29:26Z</time>
      </trkpt>
      <trkpt lat="49.18982" lon="-0.58354">
        <ele>100</ele>
        <time>2023-05-25T12:29:27Z</time>
      </trkpt>
      <trkpt lat="49.18977" lon="-0.58356">
        <ele>100.2</ele>
        <time>2023-05-25T12:29:28Z</time>
      </trkpt>
      <trkpt lat="49.18973" lon="-0.58358">
        <ele>100.4</ele>
        <time>2023-05-25T12:29:29Z</time>
      </trkpt>
      <trkpt lat="49.18968" lon="-0.5836">
        <ele>100.4</ele>
        <time>2023-05-25T12:29:30Z</time>
      </trkpt>
      <trkpt lat="49.18964" lon="-0.58361">
        <ele>100.4</ele>
        <time>2023-05-25T12:29:31Z</time>
      </trkpt>
      <trkpt lat="49.1896" lon="-0.58363">
        <ele>100.4</ele>
        <time>2023-05-25T12:29:32Z</time>
      </trkpt>
      <trkpt lat="49.18956" lon="-0.58364">
        <ele>100.6</ele>
        <time>2023-05-25T12:29:33Z</time>
      </trkpt>
      <trkpt lat="49.18952" lon="-0.58366">
        <ele>100.6</ele>
        <time>2023-05-25T12:29:34Z</time>
      </trkpt>
      <trkpt lat="49.18947" lon="-0.58368">
        <ele>100.6</ele>
        <time>2023-05-25T12:29:35Z</time>
      </trkpt>
      <trkpt lat="49.18943" lon="-0.58369">
        <ele>100.6</ele>
        <time>2023-05-25T12:29:36Z</time>
      </trkpt>
      <trkpt lat="49.18939" lon="-0.58371">
        <ele>100.6</ele>
        <time>2023-05-25T12:29:37Z</time>
      </trkpt>
      <trkpt lat="49.18934" lon="-0.58373">
        <ele>100.6</ele>
        <time>2023-05-25T12:29:38Z</time>
      </trkpt>
      <trkpt lat="49.1893" lon="-0.58374">
        <ele>100.8</ele>
        <time>2023-05-25T12:29:39Z</time>
      </trkpt>
      <trkpt lat="49.18925" lon="-0.58376">
        <ele>100.8</ele>
        <time>2023-05-25T12:29:40Z</time>
      </trkpt>
      <trkpt lat="49.18921" lon="-0.58378">
        <ele>101</ele>
        <time>2023-05-25T12:29:41Z</time>
      </trkpt>
      <trkpt lat="49.18916" lon="-0.58379">
        <ele>101</ele>
        <time>2023-05-25T12:29:42Z</time>
      </trkpt>
      <trkpt lat="49.18912" lon="-0.58381">
        <ele>101</ele>
        <time>2023-05-25T12:29:43Z</time>
      </trkpt>
      <trkpt lat="49.18907" lon="-0.58383">
        <ele>101</ele>
        <time>2023-05-25T12:29:44Z</time>
      </trkpt>
      <trkpt lat="49.18903" lon="-0.58385">
        <ele>101</ele>
        <time>2023-05-25T12:29:45Z</time>
      </trkpt>
      <trkpt lat="49.18898" lon="-0.58386">
        <ele>101.2</ele>
        <time>2023-05-25T12:29:46Z</time>
      </trkpt>
      <trkpt lat="49.18894" lon="-0.58388">
        <ele>101.4</ele>
        <time>2023-05-25T12:29:47Z</time>
      </trkpt>
      <trkpt lat="49.18889" lon="-0.5839">
        <ele>101.4</ele>
        <time>2023-05-25T12:29:48Z</time>
      </trkpt>
      <trkpt lat="49.18885" lon="-0.58391">
        <ele>101.6</ele>
        <time>2023-05-25T12:29:49Z</time>
      </trkpt>
      <trkpt lat="49.1888" lon="-0.58393">
        <ele>101.6</ele>
        <time>2023-05-25T12:29:50Z</time>
      </trkpt>
      <trkpt lat="49.18876" lon="-0.58395">
        <ele>101.6</ele>
        <time>2023-05-25T12:29:51Z</time>
      </trkpt>
      <trkpt lat="49.18871" lon="-0.58397">
        <ele>101.8</ele>
        <time>2023-05-25T12:29:52Z</time>
      </trkpt>
      <trkpt lat="49.18867" lon="-0.58398">
        <ele>102</ele>
        <time>2023-05-25T12:29:53Z</time>
      </trkpt>
      <trkpt lat="49.18862" lon="-0.584">
        <ele>102</ele>
        <time>2023-05-25T12:29:54Z</time>
      </trkpt>
      <trkpt lat="49.18858" lon="-0.58402">
        <ele>102.2</ele>
        <time>2023-05-25T12:29:55Z</time>
      </trkpt>
      <trkpt lat="49.18853" lon="-0.58404">
        <ele>102.4</ele>
        <time>2023-05-25T12:29:56Z</time>
      </trkpt>
      <trkpt lat="49.18848" lon="-0.58405">
        <ele>102.6</ele>
        <time>2023-05-25T12:29:57Z</time>
      </trkpt>
      <trkpt lat="49.18844" lon="-0.58407">
        <ele>102.6</ele>
        <time>2023-05-25T12:29:58Z</time>
      </trkpt>
      <trkpt lat="49.18839" lon="-0.58409">
        <ele>102.8</ele>
        <time>2023-05-25T12:29:59Z</time>
      </trkpt>
      <trkpt lat="49.18834" lon="-0.58412">
        <ele>103</ele>
        <time>2023-05-25T12:30:00Z</time>
      </trkpt>
      <trkpt lat="49.1883" lon="-0.58416">
        <ele>103</ele>
        <time>2023-05-25T12:30:01Z</time>
      </trkpt>
      <trkpt lat="49.18826" lon="-0.58421">
        <ele>103</ele>
        <time>2023-05-25T12:30:02Z</time>
      </trkpt>
      <trkpt lat="49.18822" lon="-0.58428">
        <ele>103</ele>
        <time>2023-05-25T12:30:03Z</time>
      </trkpt>
      <trkpt lat="49.1882" lon="-0.58435">
        <ele>102.8</ele>
        <time>2023-05-25T12:30:04Z</time>
      </trkpt>
      <trkpt lat="49.18818" lon="-0.58443">
        <ele>102.6</ele>
        <time>2023-05-25T12:30:05Z</time>
      </trkpt>
      <trkpt lat="49.18817" lon="-0.58451">
        <ele>102.6</ele>
        <time>2023-05-25T12:30:06Z</time>
      </trkpt>
      <trkpt lat="49.18817" lon="-0.58459">
        <ele>102.6</ele>
        <time>2023-05-25T12:30:07Z</time>
      </trkpt>
      <trkpt lat="49.18817" lon="-0.58467">
        <ele>102.6</ele>
        <time>2023-05-25T12:30:08Z</time>
      </trkpt>
      <trkpt lat="49.18818" lon="-0.58475">
        <ele>102.4</ele>
        <time>2023-05-25T12:30:09Z</time>
      </trkpt>
      <trkpt lat="49.18819" lon="-0.58483">
        <ele>102.4</ele>
        <time>2023-05-25T12:30:10Z</time>
      </trkpt>
      <trkpt lat="49.1882" lon="-0.58491">
        <ele>102.2</ele>
        <time>2023-05-25T12:30:11Z</time>
      </trkpt>
      <trkpt lat="49.18821" lon="-0.58499">
        <ele>102.2</ele>
        <time>2023-05-25T12:30:12Z</time>
      </trkpt>
      <trkpt lat="49.18822" lon="-0.58506">
        <ele>102.2</ele>
        <time>2023-05-25T12:30:13Z</time>
      </trkpt>
      <trkpt lat="49.18823" lon="-0.58514">
        <ele>102.2</ele>
        <time>2023-05-25T12:30:14Z</time>
      </trkpt>
      <trkpt lat="49.18824" lon="-0.58522">
        <ele>102.4</ele>
        <time>2023-05-25T12:30:15Z</time>
      </trkpt>
      <trkpt lat="49.18825" lon="-0.5853">
        <ele>102.4</ele>
        <time>2023-05-25T12:30:16Z</time>
      </trkpt>
      <trkpt lat="49.18826" lon="-0.58538">
        <ele>102.4</ele>
        <time>2023-05-25T12:30:17Z</time>
      </trkpt>
      <trkpt lat="49.18827" lon="-0.58546">
        <ele>102.6</ele>
        <time>2023-05-25T12:30:18Z</time>
      </trkpt>
      <trkpt lat="49.18828" lon="-0.58554">
        <ele>102.6</ele>
        <time>2023-05-25T12:30:19Z</time>
      </trkpt>
      <trkpt lat="49.18828" lon="-0.58562">
        <ele>102.6</ele>
        <time>2023-05-25T12:30:20Z</time>
      </trkpt>
      <trkpt lat="49.18829" lon="-0.5857">
        <ele>102.8</ele>
        <time>2023-05-25T12:30:21Z</time>
      </trkpt>
      <trkpt lat="49.1883" lon="-0.58579">
        <ele>103</ele>
        <time>2023-05-25T12:30:22Z</time>
      </trkpt>
      <trkpt lat="49.18831" lon="-0.58587">
        <ele>103</ele>
        <time>2023-05-25T12:30:23Z</time>
      </trkpt>
      <trkpt lat="49.18831" lon="-0.58596">
        <ele>103</ele>
        <time>2023-05-25T12:30:24Z</time>
      </trkpt>
      <trkpt lat="49.18832" lon="-0.58605">
        <ele>103</ele>
        <time>2023-05-25T12:30:25Z</time>
      </trkpt>
      <trkpt lat="49.18833" lon="-0.58613">
        <ele>103</ele>
        <time>2023-05-25T12:30:26Z</time>
      </trkpt>
      <trkpt lat="49.18834" lon="-0.58622">
        <ele>103</ele>
        <time>2023-05-25T12:30:27Z</time>
      </trkpt>
      <trkpt lat="49.18834" lon="-0.58631">
        <ele>103</ele>
        <time>2023-05-25T12:30:28Z</time>
      </trkpt>
      <trkpt lat="49.18835" lon="-0.5864">
        <ele>103</ele>
        <time>2023-05-25T12:30:29Z</time>
      </trkpt>
      <trkpt lat="49.18836" lon="-0.58649">
        <ele>103</ele>
        <time>2023-05-25T12:30:30Z</time>
      </trkpt>
      <trkpt lat="49.18837" lon="-0.58658">
        <ele>103</ele>
        <time>2023-05-25T12:30:31Z</time>
      </trkpt>
      <trkpt lat="49.18837" lon="-0.58667">
        <ele>103</ele>
        <time>2023-05-25T12:30:32Z</time>
      </trkpt>
      <trkpt lat="49.18838" lon="-0.58676">
        <ele>103</ele>
        <time>2023-05-25T12:30:33Z</time>
      </trkpt>
      <trkpt lat="49.18839" lon="-0.58685">
        <ele>103.2</ele>
        <time>2023-05-25T12:30:34Z</time>
      </trkpt>
      <trkpt lat="49.1884" lon="-0.58694">
        <ele>103.4</ele>
        <time>2023-05-25T12:30:35Z</time>
      </trkpt>
      <trkpt lat="49.1884" lon="-0.58703">
        <ele>103.4</ele>
        <time>2023-05-25T12:30:36Z</time>
      </trkpt>
      <trkpt lat="49.18841" lon="-0.58713">
        <ele>103.6</ele>
        <time>2023-05-25T12:30:37Z</time>
      </trkpt>
      <trkpt lat="49.18842" lon="-0.58722">
        <ele>103.6</ele>
        <time>2023-05-25T12:30:38Z</time>
      </trkpt>
      <trkpt lat="49.18842" lon="-0.58731">
        <ele>103.6</ele>
        <time>2023-05-25T12:30:39Z</time>
      </trkpt>
      <trkpt lat="49.18843" lon="-0.5874">
        <ele>103.8</ele>
        <time>2023-05-25T12:30:40Z</time>
      </trkpt>
      <trkpt lat="49.18844" lon="-0.58749">
        <ele>104</ele>
        <time>2023-05-25T12:30:41Z</time>
      </trkpt>
      <trkpt lat="49.18845" lon="-0.58758">
        <ele>103.8</ele>
        <time>2023-05-25T12:30:42Z</time>
      </trkpt>
      <trkpt lat="49.18845" lon="-0.58767">
        <ele>103.6</ele>
        <time>2023-05-25T12:30:43Z</time>
      </trkpt>
      <trkpt lat="49.18846" lon="-0.58776">
        <ele>103.6</ele>
        <time>2023-05-25T12:30:44Z</time>
      </trkpt>
      <trkpt lat="49.18847" lon="-0.58785">
        <ele>103.6</ele>
        <time>2023-05-25T12:30:45Z</time>
      </trkpt>
      <trkpt lat="49.18848" lon="-0.58794">
        <ele>103.4</ele>
        <time>2023-05-25T12:30:46Z</time>
      </trkpt>
      <trkpt lat="49.18848" lon="-0.58802">
        <ele>103.4</ele>
        <time>2023-05-25T12:30:47Z</time>
      </trkpt>
      <trkpt lat="49.18849" lon="-0.58811">
        <ele>103.2</ele>
        <time>2023-05-25T12:30:48Z</time>
      </trkpt>
      <trkpt lat="49.1885" lon="-0.5882">
        <ele>103</ele>
        <time>2023-05-25T12:30:49Z</time>
      </trkpt>
      <trkpt lat="49.18851" lon="-0.58828">
        <ele>103</ele>
        <time>2023-05-25T12:30:50Z</time>
      </trkpt>
      <trkpt lat="49.18852" lon="-0.58837">
        <ele>103</ele>
        <time>2023-05-25T12:30:51Z</time>
      </trkpt>
      <trkpt lat="49.18852" lon="-0.58846">
        <ele>103</ele>
        <time>2023-05-25T12:30:52Z</time>
      </trkpt>
      <trkpt lat="49.18853" lon="-0.58854">
        <ele>103</ele>
        <time>2023-05-25T12:30:53Z</time>
      </trkpt>
      <trkpt lat="49.18854" lon="-0.58863">
        <ele>103</ele>
        <time>2023-05-25T12:30:54Z</time>
      </trkpt>
      <trkpt lat="49.18854" lon="-0.58871">
        <ele>103</ele>
        <time>2023-05-25T12:30:55Z</time>
      </trkpt>
      <trkpt lat="49.18855" lon="-0.5888">
        <ele>103</ele>
        <time>2023-05-25T12:30:56Z</time>
      </trkpt>
      <trkpt lat="49.18856" lon="-0.58889">
        <ele>103.2</ele>
        <time>2023-05-25T12:30:57Z</time>
      </trkpt>
      <trkpt lat="49.18857" lon="-0.58897">
        <ele>103.2</ele>
        <time>2023-05-25T12:30:58Z</time>
      </trkpt>
      <trkpt lat="49.18857" lon="-0.58906">
        <ele>103.4</ele>
        <time>2023-05-25T12:30:59Z</time>
      </trkpt>
      <trkpt lat="49.18858" lon="-0.58914">
        <ele>103.4</ele>
        <time>2023-05-25T12:31:00Z</time>
      </trkpt>
      <trkpt lat="49.18859" lon="-0.58923">
        <ele>103.4</ele>
        <time>2023-05-25T12:31:01Z</time>
      </trkpt>
      <trkpt lat="49.1886" lon="-0.58932">
        <ele>103.4</ele>
        <time>2023-05-25T12:31:02Z</time>
      </trkpt>
      <trkpt lat="49.18861" lon="-0.5894">
        <ele>103.4</ele>
        <time>2023-05-25T12:31:03Z</time>
      </trkpt>
      <trkpt lat="49.18862" lon="-0.58949">
        <ele>103.6</ele>
        <time>2023-05-25T12:31:04Z</time>
      </trkpt>
      <trkpt lat="49.18863" lon="-0.58957">
        <ele>103.6</ele>
        <time>2023-05-25T12:31:05Z</time>
      </trkpt>
      <trkpt lat="49.18864" lon="-0.58966">
        <ele>103.6</ele>
        <time>2023-05-25T12:31:06Z</time>
      </trkpt>
      <trkpt lat="49.18865" lon="-0.58974">
        <ele>103.6</ele>
        <time>2023-05-25T12:31:07Z</time>
      </trkpt>
      <trkpt lat="49.18866" lon="-0.58982">
        <ele>103.6</ele>
        <time>2023-05-25T12:31:08Z</time>
      </trkpt>
      <trkpt lat="49.18867" lon="-0.58991">
        <ele>103.6</ele>
        <time>2023-05-25T12:31:09Z</time>
      </trkpt>
      <trkpt lat="49.18869" lon="-0.58999">
        <ele>103.6</ele>
        <time>2023-05-25T12:31:10Z</time>
      </trkpt>
      <trkpt lat="49.1887" lon="-0.59008">
        <ele>103.6</ele>
        <time>2023-05-25T12:31:11Z</time>
      </trkpt>
      <trkpt lat="49.18871" lon="-0.59016">
        <ele>103.6</ele>
        <time>2023-05-25T12:31:12Z</time>
      </trkpt>
      <trkpt lat="49.18873" lon="-0.59025">
        <ele>103.6</ele>
        <time>2023-05-25T12:31:13Z</time>
      </trkpt>
      <trkpt lat="49.18874" lon="-0.59033">
        <ele>103.6</ele>
        <time>2023-05-25T12:31:14Z</time>
      </trkpt>
      <trkpt lat="49.18875" lon="-0.59042">
        <ele>103.6</ele>
        <time>2023-05-25T12:31:15Z</time>
      </trkpt>
      <trkpt lat="49.18876" lon="-0.59051">
        <ele>103.8</ele>
        <time>2023-05-25T12:31:16Z</time>
      </trkpt>
      <trkpt lat="49.18877" lon="-0.5906">
        <ele>103.8</ele>
        <time>2023-05-25T12:31:17Z</time>
      </trkpt>
      <trkpt lat="49.18876" lon="-0.59068">
        <ele>104</ele>
        <time>2023-05-25T12:31:18Z</time>
      </trkpt>
      <trkpt lat="49.18874" lon="-0.59075">
        <ele>104</ele>
        <time>2023-05-25T12:31:19Z</time>
      </trkpt>
      <trkpt lat="49.18871" lon="-0.5908">
        <ele>104</ele>
        <time>2023-05-25T12:31:20Z</time>
      </trkpt>
      <trkpt lat="49.18866" lon="-0.59083">
        <ele>104.2</ele>
        <time>2023-05-25T12:31:21Z</time>
      </trkpt>
      <trkpt lat="49.18861" lon="-0.59087">
        <ele>104.4</ele>
        <time>2023-05-25T12:31:22Z</time>
      </trkpt>
      <trkpt lat="49.18857" lon="-0.59091">
        <ele>104.4</ele>
        <time>2023-05-25T12:31:23Z</time>
      </trkpt>
      <trkpt lat="49.18852" lon="-0.59095">
        <ele>104.6</ele>
        <time>2023-05-25T12:31:24Z</time>
      </trkpt>
      <trkpt lat="49.18848" lon="-0.59098">
        <ele>104.6</ele>
        <time>2023-05-25T12:31:25Z</time>
      </trkpt>
      <trkpt lat="49.18843" lon="-0.59102">
        <ele>104.6</ele>
        <time>2023-05-25T12:31:26Z</time>
      </trkpt>
      <trkpt lat="49.18838" lon="-0.59106">
        <ele>104.6</ele>
        <time>2023-05-25T12:31:27Z</time>
      </trkpt>
      <trkpt lat="49.18833" lon="-0.59109">
        <ele>104.6</ele>
        <time>2023-05-25T12:31:28Z</time>
      </trkpt>
      <trkpt lat="49.18828" lon="-0.59113">
        <ele>104.6</ele>
        <time>2023-05-25T12:31:29Z</time>
      </trkpt>
      <trkpt lat="49.18823" lon="-0.59117">
        <ele>104.4</ele>
        <time>2023-05-25T12:31:30Z</time>
      </trkpt>
      <trkpt lat="49.18817" lon="-0.59121">
        <ele>104.4</ele>
        <time>2023-05-25T12:31:31Z</time>
      </trkpt>
      <trkpt lat="49.18812" lon="-0.59125">
        <ele>104</ele>
        <time>2023-05-25T12:31:32Z</time>
      </trkpt>
      <trkpt lat="49.18807" lon="-0.59129">
        <ele>104</ele>
        <time>2023-05-25T12:31:33Z</time>
      </trkpt>
      <trkpt lat="49.18801" lon="-0.59133">
        <ele>104</ele>
        <time>2023-05-25T12:31:34Z</time>
      </trkpt>
      <trkpt lat="49.18796" lon="-0.59137">
        <ele>103.6</ele>
        <time>2023-05-25T12:31:35Z</time>
      </trkpt>
      <trkpt lat="49.1879" lon="-0.59142">
        <ele>103.6</ele>
        <time>2023-05-25T12:31:36Z</time>
      </trkpt>
      <trkpt lat="49.18784" lon="-0.59146">
        <ele>103.6</ele>
        <time>2023-05-25T12:31:37Z</time>
      </trkpt>
      <trkpt lat="49.18779" lon="-0.59151">
        <ele>103.4</ele>
        <time>2023-05-25T12:31:38Z</time>
      </trkpt>
      <trkpt lat="49.18773" lon="-0.59156">
        <ele>103.4</ele>
        <time>2023-05-25T12:31:39Z</time>
      </trkpt>
      <trkpt lat="49.18767" lon="-0.59161">
        <ele>103.2</ele>
        <time>2023-05-25T12:31:40Z</time>
      </trkpt>
      <trkpt lat="49.18761" lon="-0.59166">
        <ele>103</ele>
        <time>2023-05-25T12:31:41Z</time>
      </trkpt>
      <trkpt lat="49.18755" lon="-0.59172">
        <ele>103</ele>
        <time>2023-05-25T12:31:42Z</time>
      </trkpt>
      <trkpt lat="49.18749" lon="-0.59177">
        <ele>102.8</ele>
        <time>2023-05-25T12:31:43Z</time>
      </trkpt>
      <trkpt lat="49.18743" lon="-0.59182">
        <ele>102.6</ele>
        <time>2023-05-25T12:31:44Z</time>
      </trkpt>
      <trkpt lat="49.18737" lon="-0.59188">
        <ele>102.2</ele>
        <time>2023-05-25T12:31:45Z</time>
      </trkpt>
      <trkpt lat="49.18731" lon="-0.59193">
        <ele>102</ele>
        <time>2023-05-25T12:31:46Z</time>
      </trkpt>
      <trkpt lat="49.18725" lon="-0.59199">
        <ele>101.8</ele>
        <time>2023-05-25T12:31:47Z</time>
      </trkpt>
      <trkpt lat="49.18719" lon="-0.59205">
        <ele>101.6</ele>
        <time>2023-05-25T12:31:48Z</time>
      </trkpt>
      <trkpt lat="49.18713" lon="-0.5921">
        <ele>101.4</ele>
        <time>2023-05-25T12:31:49Z</time>
      </trkpt>
      <trkpt lat="49.18707" lon="-0.59216">
        <ele>101.4</ele>
        <time>2023-05-25T12:31:50Z</time>
      </trkpt>
      <trkpt lat="49.18701" lon="-0.59221">
        <ele>101</ele>
        <time>2023-05-25T12:31:51Z</time>
      </trkpt>
      <trkpt lat="49.18695" lon="-0.59227">
        <ele>101</ele>
        <time>2023-05-25T12:31:52Z</time>
      </trkpt>
      <trkpt lat="49.18689" lon="-0.59232">
        <ele>101</ele>
        <time>2023-05-25T12:31:53Z</time>
      </trkpt>
      <trkpt lat="49.18683" lon="-0.59238">
        <ele>101</ele>
        <time>2023-05-25T12:31:54Z</time>
      </trkpt>
      <trkpt lat="49.18677" lon="-0.59243">
        <ele>101</ele>
        <time>2023-05-25T12:31:55Z</time>
      </trkpt>
      <trkpt lat="49.18671" lon="-0.59249">
        <ele>101</ele>
        <time>2023-05-25T12:31:56Z</time>
      </trkpt>
      <trkpt lat="49.18666" lon="-0.59254">
        <ele>101</ele>
        <time>2023-05-25T12:31:57Z</time>
      </trkpt>
      <trkpt lat="49.1866" lon="-0.5926">
        <ele>100.8</ele>
        <time>2023-05-25T12:31:58Z</time>
      </trkpt>
      <trkpt lat="49.18654" lon="-0.59265">
        <ele>100.6</ele>
        <time>2023-05-25T12:31:59Z</time>
      </trkpt>
      <trkpt lat="49.18648" lon="-0.5927">
        <ele>100.6</ele>
        <time>2023-05-25T12:32:00Z</time>
      </trkpt>
      <trkpt lat="49.18642" lon="-0.59276">
        <ele>100.4</ele>
        <time>2023-05-25T12:32:01Z</time>
      </trkpt>
      <trkpt lat="49.18636" lon="-0.59282">
        <ele>100.4</ele>
        <time>2023-05-25T12:32:02Z</time>
      </trkpt>
      <trkpt lat="49.1863" lon="-0.59287">
        <ele>100</ele>
        <time>2023-05-25T12:32:03Z</time>
      </trkpt>
      <trkpt lat="49.18624" lon="-0.59293">
        <ele>100</ele>
        <time>2023-05-25T12:32:04Z</time>
      </trkpt>
      <trkpt lat="49.18618" lon="-0.59299">
        <ele>99.8</ele>
        <time>2023-05-25T12:32:05Z</time>
      </trkpt>
      <trkpt lat="49.18612" lon="-0.59305">
        <ele>99.6</ele>
        <time>2023-05-25T12:32:06Z</time>
      </trkpt>
      <trkpt lat="49.18606" lon="-0.5931">
        <ele>99.6</ele>
        <time>2023-05-25T12:32:07Z</time>
      </trkpt>
      <trkpt lat="49.186" lon="-0.59316">
        <ele>99.4</ele>
        <time>2023-05-25T12:32:08Z</time>
      </trkpt>
      <trkpt lat="49.18594" lon="-0.59323">
        <ele>99.2</ele>
        <time>2023-05-25T12:32:09Z</time>
      </trkpt>
      <trkpt lat="49.18587" lon="-0.59329">
        <ele>99</ele>
        <time>2023-05-25T12:32:10Z</time>
      </trkpt>
      <trkpt lat="49.18581" lon="-0.59335">
        <ele>99</ele>
        <time>2023-05-25T12:32:11Z</time>
      </trkpt>
      <trkpt lat="49.18575" lon="-0.59341">
        <ele>98.8</ele>
        <time>2023-05-25T12:32:12Z</time>
      </trkpt>
      <trkpt lat="49.18569" lon="-0.59349">
        <ele>98.6</ele>
        <time>2023-05-25T12:32:13Z</time>
      </trkpt>
      <trkpt lat="49.18565" lon="-0.59357">
        <ele>98.6</ele>
        <time>2023-05-25T12:32:14Z</time>
      </trkpt>
      <trkpt lat="49.18561" lon="-0.59367">
        <ele>98.6</ele>
        <time>2023-05-25T12:32:15Z</time>
      </trkpt>
      <trkpt lat="49.18558" lon="-0.59378">
        <ele>98.8</ele>
        <time>2023-05-25T12:32:16Z</time>
      </trkpt>
      <trkpt lat="49.18555" lon="-0.59389">
        <ele>99</ele>
        <time>2023-05-25T12:32:17Z</time>
      </trkpt>
      <trkpt lat="49.18553" lon="-0.59401">
        <ele>99</ele>
        <time>2023-05-25T12:32:18Z</time>
      </trkpt>
      <trkpt lat="49.1855" lon="-0.59412">
        <ele>99.4</ele>
        <time>2023-05-25T12:32:19Z</time>
      </trkpt>
      <trkpt lat="49.18548" lon="-0.59423">
        <ele>99.4</ele>
        <time>2023-05-25T12:32:20Z</time>
      </trkpt>
      <trkpt lat="49.18545" lon="-0.59435">
        <ele>99</ele>
        <time>2023-05-25T12:32:21Z</time>
      </trkpt>
      <trkpt lat="49.18543" lon="-0.59446">
        <ele>99</ele>
        <time>2023-05-25T12:32:22Z</time>
      </trkpt>
      <trkpt lat="49.18541" lon="-0.59457">
        <ele>98.6</ele>
        <time>2023-05-25T12:32:23Z</time>
      </trkpt>
      <trkpt lat="49.18538" lon="-0.59468">
        <ele>98.6</ele>
        <time>2023-05-25T12:32:24Z</time>
      </trkpt>
      <trkpt lat="49.18534" lon="-0.59477">
        <ele>98.2</ele>
        <time>2023-05-25T12:32:25Z</time>
      </trkpt>
      <trkpt lat="49.18529" lon="-0.59486">
        <ele>97.8</ele>
        <time>2023-05-25T12:32:26Z</time>
      </trkpt>
      <trkpt lat="49.18522" lon="-0.59493">
        <ele>97.4</ele>
        <time>2023-05-25T12:32:27Z</time>
      </trkpt>
      <trkpt lat="49.18515" lon="-0.595">
        <ele>97</ele>
        <time>2023-05-25T12:32:28Z</time>
      </trkpt>
      <trkpt lat="49.18508" lon="-0.59506">
        <ele>96.4</ele>
        <time>2023-05-25T12:32:29Z</time>
      </trkpt>
      <trkpt lat="49.185" lon="-0.59512">
        <ele>95.6</ele>
        <time>2023-05-25T12:32:30Z</time>
      </trkpt>
      <trkpt lat="49.18493" lon="-0.59519">
        <ele>95.2</ele>
        <time>2023-05-25T12:32:31Z</time>
      </trkpt>
      <trkpt lat="49.18486" lon="-0.59526">
        <ele>94.6</ele>
        <time>2023-05-25T12:32:32Z</time>
      </trkpt>
      <trkpt lat="49.1848" lon="-0.59534">
        <ele>94.2</ele>
        <time>2023-05-25T12:32:33Z</time>
      </trkpt>
      <trkpt lat="49.18474" lon="-0.59544">
        <ele>93.6</ele>
        <time>2023-05-25T12:32:34Z</time>
      </trkpt>
      <trkpt lat="49.1847" lon="-0.59556">
        <ele>93.4</ele>
        <time>2023-05-25T12:32:35Z</time>
      </trkpt>
      <trkpt lat="49.18468" lon="-0.59569">
        <ele>93</ele>
        <time>2023-05-25T12:32:36Z</time>
      </trkpt>
      <trkpt lat="49.18467" lon="-0.59581">
        <ele>93</ele>
        <time>2023-05-25T12:32:37Z</time>
      </trkpt>
      <trkpt lat="49.18468" lon="-0.59594">
        <ele>92.8</ele>
        <time>2023-05-25T12:32:38Z</time>
      </trkpt>
      <trkpt lat="49.1847" lon="-0.59606">
        <ele>92.8</ele>
        <time>2023-05-25T12:32:39Z</time>
      </trkpt>
      <trkpt lat="49.18472" lon="-0.59618">
        <ele>93</ele>
        <time>2023-05-25T12:32:40Z</time>
      </trkpt>
      <trkpt lat="49.18474" lon="-0.59629">
        <ele>93</ele>
        <time>2023-05-25T12:32:41Z</time>
      </trkpt>
      <trkpt lat="49.18477" lon="-0.59641">
        <ele>93</ele>
        <time>2023-05-25T12:32:42Z</time>
      </trkpt>
      <trkpt lat="49.18479" lon="-0.59652">
        <ele>92.8</ele>
        <time>2023-05-25T12:32:43Z</time>
      </trkpt>
      <trkpt lat="49.18481" lon="-0.59663">
        <ele>92.8</ele>
        <time>2023-05-25T12:32:44Z</time>
      </trkpt>
      <trkpt lat="49.18483" lon="-0.59674">
        <ele>93</ele>
        <time>2023-05-25T12:32:45Z</time>
      </trkpt>
      <trkpt lat="49.18486" lon="-0.59684">
        <ele>93</ele>
        <time>2023-05-25T12:32:46Z</time>
      </trkpt>
      <trkpt lat="49.18488" lon="-0.59695">
        <ele>93</ele>
        <time>2023-05-25T12:32:47Z</time>
      </trkpt>
      <trkpt lat="49.1849" lon="-0.59705">
        <ele>93.4</ele>
        <time>2023-05-25T12:32:48Z</time>
      </trkpt>
      <trkpt lat="49.18492" lon="-0.59715">
        <ele>93.4</ele>
        <time>2023-05-25T12:32:49Z</time>
      </trkpt>
      <trkpt lat="49.18494" lon="-0.59724">
        <ele>93.6</ele>
        <time>2023-05-25T12:32:50Z</time>
      </trkpt>
      <trkpt lat="49.18496" lon="-0.59734">
        <ele>93.6</ele>
        <time>2023-05-25T12:32:51Z</time>
      </trkpt>
      <trkpt lat="49.18498" lon="-0.59743">
        <ele>94</ele>
        <time>2023-05-25T12:32:52Z</time>
      </trkpt>
      <trkpt lat="49.185" lon="-0.59752">
        <ele>94</ele>
        <time>2023-05-25T12:32:53Z</time>
      </trkpt>
      <trkpt lat="49.185" lon="-0.5976">
        <ele>93.8</ele>
        <time>2023-05-25T12:32:54Z</time>
      </trkpt>
      <trkpt lat="49.18501" lon="-0.59766">
        <ele>93.6</ele>
        <time>2023-05-25T12:32:55Z</time>
      </trkpt>
      <trkpt lat="49.18501" lon="-0.59769">
        <ele>93.6</ele>
        <time>2023-05-25T12:32:56Z</time>
      </trkpt>
      <trkpt lat="49.18501" lon="-0.59772">
        <ele>93.6</ele>
        <time>2023-05-25T12:32:57Z</time>
      </trkpt>
      <trkpt lat="49.18502" lon="-0.59773">
        <ele>93.6</ele>
        <time>2023-05-25T12:32:58Z</time>
      </trkpt>
      <trkpt lat="49.18502" lon="-0.59773">
        <ele>93.6</ele>
        <time>2023-05-25T12:32:59Z</time>
      </trkpt>
      <trkpt lat="49.18502" lon="-0.59773">
        <ele>93.6</ele>
        <time>2023-05-25T12:33:00Z</time>
      </trkpt>
      <trkpt lat="49.18502" lon="-0.59773">
        <ele>93.6</ele>
        <time>2023-05-25T12:33:01Z</time>
      </trkpt>
      <trkpt lat="49.18502" lon="-0.59773">
        <ele>93.6</ele>
        <time>2023-05-25T12:33:02Z</time>
      </trkpt>
      <trkpt lat="49.18502" lon="-0.59774">
        <ele>93.6</ele>
        <time>2023-05-25T12:36:58Z</time>
      </trkpt>
      <trkpt lat="49.18502" lon="-0.59774">
        <ele>93.6</ele>
        <time>2023-05-25T12:36:59Z</time>
      </trkpt>
      <trkpt lat="49.18502" lon="-0.59774">
        <ele>93.6</ele>
        <time>2023-05-25T12:37:00Z</time>
      </trkpt>
      <trkpt lat="49.18502" lon="-0.59775">
        <ele>93.4</ele>
        <time>2023-05-25T12:37:01Z</time>
      </trkpt>
      <trkpt lat="49.185" lon="-0.59776">
        <ele>93.4</ele>
        <time>2023-05-25T12:37:02Z</time>
      </trkpt>
      <trkpt lat="49.18498" lon="-0.59776">
        <ele>93.4</ele>
        <time>2023-05-25T12:37:03Z</time>
      </trkpt>
      <trkpt lat="49.18497" lon="-0.59777">
        <ele>93.4</ele>
        <time>2023-05-25T12:37:04Z</time>
      </trkpt>
      <trkpt lat="49.18495" lon="-0.5978">
        <ele>93.2</ele>
        <time>2023-05-25T12:37:05Z</time>
      </trkpt>
      <trkpt lat="49.18494" lon="-0.59783">
        <ele>93</ele>
        <time>2023-05-25T12:37:06Z</time>
      </trkpt>
      <trkpt lat="49.18492" lon="-0.59788">
        <ele>93</ele>
        <time>2023-05-25T12:37:07Z</time>
      </trkpt>
      <trkpt lat="49.1849" lon="-0.59792">
        <ele>93</ele>
        <time>2023-05-25T12:37:08Z</time>
      </trkpt>
      <trkpt lat="49.18487" lon="-0.59798">
        <ele>92.6</ele>
        <time>2023-05-25T12:37:09Z</time>
      </trkpt>
      <trkpt lat="49.18483" lon="-0.59803">
        <ele>92.6</ele>
        <time>2023-05-25T12:37:10Z</time>
      </trkpt>
      <trkpt lat="49.18479" lon="-0.59808">
        <ele>92.4</ele>
        <time>2023-05-25T12:37:11Z</time>
      </trkpt>
      <trkpt lat="49.18475" lon="-0.59814">
        <ele>92.4</ele>
        <time>2023-05-25T12:37:12Z</time>
      </trkpt>
      <trkpt lat="49.1847" lon="-0.5982">
        <ele>92.2</ele>
        <time>2023-05-25T12:37:13Z</time>
      </trkpt>
      <trkpt lat="49.18466" lon="-0.59826">
        <ele>92</ele>
        <time>2023-05-25T12:37:14Z</time>
      </trkpt>
      <trkpt lat="49.18461" lon="-0.59833">
        <ele>92</ele>
        <time>2023-05-25T12:37:15Z</time>
      </trkpt>
      <trkpt lat="49.18456" lon="-0.5984">
        <ele>92</ele>
        <time>2023-05-25T12:37:16Z</time>
      </trkpt>
      <trkpt lat="49.1845" lon="-0.59847">
        <ele>92</ele>
        <time>2023-05-25T12:37:17Z</time>
      </trkpt>
      <trkpt lat="49.18445" lon="-0.59854">
        <ele>91.8</ele>
        <time>2023-05-25T12:37:18Z</time>
      </trkpt>
      <trkpt lat="49.1844" lon="-0.59861">
        <ele>91.8</ele>
        <time>2023-05-25T12:37:19Z</time>
      </trkpt>
      <trkpt lat="49.18434" lon="-0.59868">
        <ele>91.6</ele>
        <time>2023-05-25T12:37:20Z</time>
      </trkpt>
      <trkpt lat="49.18428" lon="-0.59876">
        <ele>91.6</ele>
        <time>2023-05-25T12:37:21Z</time>
      </trkpt>
      <trkpt lat="49.18422" lon="-0.59884">
        <ele>91.4</ele>
        <time>2023-05-25T12:37:22Z</time>
      </trkpt>
      <trkpt lat="49.18416" lon="-0.59891">
        <ele>91.4</ele>
        <time>2023-05-25T12:37:23Z</time>
      </trkpt>
      <trkpt lat="49.1841" lon="-0.59899">
        <ele>91</ele>
        <time>2023-05-25T12:37:24Z</time>
      </trkpt>
      <trkpt lat="49.18404" lon="-0.59907">
        <ele>90.8</ele>
        <time>2023-05-25T12:37:25Z</time>
      </trkpt>
      <trkpt lat="49.18397" lon="-0.59916">
        <ele>90.6</ele>
        <time>2023-05-25T12:37:26Z</time>
      </trkpt>
      <trkpt lat="49.18391" lon="-0.59924">
        <ele>90.4</ele>
        <time>2023-05-25T12:37:27Z</time>
      </trkpt>
      <trkpt lat="49.18384" lon="-0.59932">
        <ele>90</ele>
        <time>2023-05-25T12:37:28Z</time>
      </trkpt>
      <trkpt lat="49.18377" lon="-0.5994">
        <ele>89.8</ele>
        <time>2023-05-25T12:37:29Z</time>
      </trkpt>
      <trkpt lat="49.18371" lon="-0.59949">
        <ele>89.6</ele>
        <time>2023-05-25T12:37:30Z</time>
      </trkpt>
      <trkpt lat="49.18364" lon="-0.59958">
        <ele>89.2</ele>
        <time>2023-05-25T12:37:31Z</time>
      </trkpt>
      <trkpt lat="49.18357" lon="-0.59967">
        <ele>89</ele>
        <time>2023-05-25T12:37:32Z</time>
      </trkpt>
      <trkpt lat="49.1835" lon="-0.59976">
        <ele>88.6</ele>
        <time>2023-05-25T12:37:33Z</time>
      </trkpt>
      <trkpt lat="49.18344" lon="-0.59985">
        <ele>88.4</ele>
        <time>2023-05-25T12:37:34Z</time>
      </trkpt>
      <trkpt lat="49.18337" lon="-0.59995">
        <ele>88.2</ele>
        <time>2023-05-25T12:37:35Z</time>
      </trkpt>
      <trkpt lat="49.18331" lon="-0.60005">
        <ele>87.8</ele>
        <time>2023-05-25T12:37:36Z</time>
      </trkpt>
      <trkpt lat="49.18324" lon="-0.60016">
        <ele>87.6</ele>
        <time>2023-05-25T12:37:37Z</time>
      </trkpt>
      <trkpt lat="49.18318" lon="-0.60026">
        <ele>87.2</ele>
        <time>2023-05-25T12:37:38Z</time>
      </trkpt>
      <trkpt lat="49.18312" lon="-0.60038">
        <ele>87</ele>
        <time>2023-05-25T12:37:39Z</time>
      </trkpt>
      <trkpt lat="49.18306" lon="-0.6005">
        <ele>86.6</ele>
        <time>2023-05-25T12:37:40Z</time>
      </trkpt>
      <trkpt lat="49.183" lon="-0.60062">
        <ele>86.4</ele>
        <time>2023-05-25T12:37:41Z</time>
      </trkpt>
      <trkpt lat="49.18295" lon="-0.60075">
        <ele>86.2</ele>
        <time>2023-05-25T12:37:42Z</time>
      </trkpt>
      <trkpt lat="49.18289" lon="-0.60088">
        <ele>86</ele>
        <time>2023-05-25T12:37:43Z</time>
      </trkpt>
      <trkpt lat="49.18284" lon="-0.60101">
        <ele>86</ele>
        <time>2023-05-25T12:37:44Z</time>
      </trkpt>
      <trkpt lat="49.18279" lon="-0.60115">
        <ele>85.8</ele>
        <time>2023-05-25T12:37:45Z</time>
      </trkpt>
      <trkpt lat="49.18274" lon="-0.60128">
        <ele>85.6</ele>
        <time>2023-05-25T12:37:46Z</time>
      </trkpt>
      <trkpt lat="49.18269" lon="-0.60142">
        <ele>85.6</ele>
        <time>2023-05-25T12:37:47Z</time>
      </trkpt>
      <trkpt lat="49.18264" lon="-0.60156">
        <ele>85.4</ele>
        <time>2023-05-25T12:37:48Z</time>
      </trkpt>
      <trkpt lat="49.18259" lon="-0.60169">
        <ele>85</ele>
        <time>2023-05-25T12:37:49Z</time>
      </trkpt>
      <trkpt lat="49.18254" lon="-0.60183">
        <ele>85</ele>
        <time>2023-05-25T12:37:50Z</time>
      </trkpt>
      <trkpt lat="49.18249" lon="-0.60196">
        <ele>84.6</ele>
        <time>2023-05-25T12:37:51Z</time>
      </trkpt>
      <trkpt lat="49.18245" lon="-0.6021">
        <ele>84.4</ele>
        <time>2023-05-25T12:37:52Z</time>
      </trkpt>
      <trkpt lat="49.1824" lon="-0.60223">
        <ele>84</ele>
        <time>2023-05-25T12:37:53Z</time>
      </trkpt>
      <trkpt lat="49.18235" lon="-0.60237">
        <ele>83.8</ele>
        <time>2023-05-25T12:37:54Z</time>
      </trkpt>
      <trkpt lat="49.18231" lon="-0.60251">
        <ele>83.6</ele>
        <time>2023-05-25T12:37:55Z</time>
      </trkpt>
      <trkpt lat="49.18227" lon="-0.60265">
        <ele>83.4</ele>
        <time>2023-05-25T12:37:56Z</time>
      </trkpt>
      <trkpt lat="49.18223" lon="-0.60279">
        <ele>83</ele>
        <time>2023-05-25T12:37:57Z</time>
      </trkpt>
      <trkpt lat="49.1822" lon="-0.60294">
        <ele>83</ele>
        <time>2023-05-25T12:37:58Z</time>
      </trkpt>
      <trkpt lat="49.18217" lon="-0.60309">
        <ele>82.8</ele>
        <time>2023-05-25T12:37:59Z</time>
      </trkpt>
      <trkpt lat="49.18214" lon="-0.60324">
        <ele>82.6</ele>
        <time>2023-05-25T12:38:00Z</time>
      </trkpt>
      <trkpt lat="49.18212" lon="-0.60338">
        <ele>82.6</ele>
        <time>2023-05-25T12:38:01Z</time>
      </trkpt>
      <trkpt lat="49.18209" lon="-0.60353">
        <ele>82.6</ele>
        <time>2023-05-25T12:38:02Z</time>
      </trkpt>
      <trkpt lat="49.18207" lon="-0.60368">
        <ele>82.6</ele>
        <time>2023-05-25T12:38:03Z</time>
      </trkpt>
      <trkpt lat="49.18204" lon="-0.60383">
        <ele>82.6</ele>
        <time>2023-05-25T12:38:04Z</time>
      </trkpt>
      <trkpt lat="49.18202" lon="-0.60397">
        <ele>82.4</ele>
        <time>2023-05-25T12:38:05Z</time>
      </trkpt>
      <trkpt lat="49.18199" lon="-0.60412">
        <ele>82.4</ele>
        <time>2023-05-25T12:38:06Z</time>
      </trkpt>
      <trkpt lat="49.18197" lon="-0.60426">
        <ele>82.4</ele>
        <time>2023-05-25T12:38:07Z</time>
      </trkpt>
      <trkpt lat="49.18194" lon="-0.6044">
        <ele>82</ele>
        <time>2023-05-25T12:38:08Z</time>
      </trkpt>
      <trkpt lat="49.18192" lon="-0.60455">
        <ele>81.8</ele>
        <time>2023-05-25T12:38:09Z</time>
      </trkpt>
      <trkpt lat="49.18189" lon="-0.60469">
        <ele>81.6</ele>
        <time>2023-05-25T12:38:10Z</time>
      </trkpt>
      <trkpt lat="49.18186" lon="-0.60483">
        <ele>81.4</ele>
        <time>2023-05-25T12:38:11Z</time>
      </trkpt>
      <trkpt lat="49.18184" lon="-0.60497">
        <ele>81.2</ele>
        <time>2023-05-25T12:38:12Z</time>
      </trkpt>
      <trkpt lat="49.18181" lon="-0.60512">
        <ele>81</ele>
        <time>2023-05-25T12:38:13Z</time>
      </trkpt>
      <trkpt lat="49.18179" lon="-0.60526">
        <ele>81</ele>
        <time>2023-05-25T12:38:14Z</time>
      </trkpt>
      <trkpt lat="49.18176" lon="-0.6054">
        <ele>81</ele>
        <time>2023-05-25T12:38:15Z</time>
      </trkpt>
      <trkpt lat="49.18174" lon="-0.60554">
        <ele>81</ele>
        <time>2023-05-25T12:38:16Z</time>
      </trkpt>
      <trkpt lat="49.18171" lon="-0.60568">
        <ele>81</ele>
        <time>2023-05-25T12:38:17Z</time>
      </trkpt>
      <trkpt lat="49.18169" lon="-0.60582">
        <ele>81</ele>
        <time>2023-05-25T12:38:18Z</time>
      </trkpt>
      <trkpt lat="49.18166" lon="-0.60596">
        <ele>81</ele>
        <time>2023-05-25T12:38:19Z</time>
      </trkpt>
      <trkpt lat="49.18164" lon="-0.60609">
        <ele>81</ele>
        <time>2023-05-25T12:38:20Z</time>
      </trkpt>
      <trkpt lat="49.18161" lon="-0.60623">
        <ele>81</ele>
        <time>2023-05-25T12:38:21Z</time>
      </trkpt>
      <trkpt lat="49.18159" lon="-0.60637">
        <ele>81</ele>
        <time>2023-05-25T12:38:22Z</time>
      </trkpt>
      <trkpt lat="49.18156" lon="-0.60651">
        <ele>81</ele>
        <time>2023-05-25T12:38:23Z</time>
      </trkpt>
      <trkpt lat="49.18154" lon="-0.60665">
        <ele>80.8</ele>
        <time>2023-05-25T12:38:24Z</time>
      </trkpt>
      <trkpt lat="49.18151" lon="-0.60678">
        <ele>80.8</ele>
        <time>2023-05-25T12:38:25Z</time>
      </trkpt>
      <trkpt lat="49.18149" lon="-0.60692">
        <ele>80.8</ele>
        <time>2023-05-25T12:38:26Z</time>
      </trkpt>
      <trkpt lat="49.18146" lon="-0.60706">
        <ele>80.8</ele>
        <time>2023-05-25T12:38:27Z</time>
      </trkpt>
      <trkpt lat="49.18144" lon="-0.6072">
        <ele>80.6</ele>
        <time>2023-05-25T12:38:28Z</time>
      </trkpt>
      <trkpt lat="49.18141" lon="-0.60733">
        <ele>80.6</ele>
        <time>2023-05-25T12:38:29Z</time>
      </trkpt>
      <trkpt lat="49.18139" lon="-0.60746">
        <ele>80.6</ele>
        <time>2023-05-25T12:38:30Z</time>
      </trkpt>
      <trkpt lat="49.18137" lon="-0.60759">
        <ele>80.6</ele>
        <time>2023-05-25T12:38:31Z</time>
      </trkpt>
      <trkpt lat="49.18134" lon="-0.60772">
        <ele>80.4</ele>
        <time>2023-05-25T12:38:32Z</time>
      </trkpt>
      <trkpt lat="49.18132" lon="-0.60785">
        <ele>80.4</ele>
        <time>2023-05-25T12:38:33Z</time>
      </trkpt>
      <trkpt lat="49.1813" lon="-0.60797">
        <ele>80.2</ele>
        <time>2023-05-25T12:38:34Z</time>
      </trkpt>
      <trkpt lat="49.18127" lon="-0.60809">
        <ele>80.2</ele>
        <time>2023-05-25T12:38:35Z</time>
      </trkpt>
      <trkpt lat="49.18125" lon="-0.60821">
        <ele>80</ele>
        <time>2023-05-25T12:38:36Z</time>
      </trkpt>
      <trkpt lat="49.18123" lon="-0.60833">
        <ele>80</ele>
        <time>2023-05-25T12:38:37Z</time>
      </trkpt>
      <trkpt lat="49.18121" lon="-0.60845">
        <ele>80</ele>
        <time>2023-05-25T12:38:38Z</time>
      </trkpt>
      <trkpt lat="49.18119" lon="-0.60857">
        <ele>80</ele>
        <time>2023-05-25T12:38:39Z</time>
      </trkpt>
      <trkpt lat="49.18117" lon="-0.60869">
        <ele>79.8</ele>
        <time>2023-05-25T12:38:40Z</time>
      </trkpt>
      <trkpt lat="49.18116" lon="-0.6088">
        <ele>79.8</ele>
        <time>2023-05-25T12:38:41Z</time>
      </trkpt>
      <trkpt lat="49.18114" lon="-0.60892">
        <ele>79.6</ele>
        <time>2023-05-25T12:38:42Z</time>
      </trkpt>
      <trkpt lat="49.18112" lon="-0.60903">
        <ele>79.6</ele>
        <time>2023-05-25T12:38:43Z</time>
      </trkpt>
      <trkpt lat="49.18109" lon="-0.60914">
        <ele>79.6</ele>
        <time>2023-05-25T12:38:44Z</time>
      </trkpt>
      <trkpt lat="49.18106" lon="-0.60925">
        <ele>79.6</ele>
        <time>2023-05-25T12:38:45Z</time>
      </trkpt>
      <trkpt lat="49.18102" lon="-0.60935">
        <ele>79.6</ele>
        <time>2023-05-25T12:38:46Z</time>
      </trkpt>
      <trkpt lat="49.18098" lon="-0.60945">
        <ele>79.8</ele>
        <time>2023-05-25T12:38:47Z</time>
      </trkpt>
      <trkpt lat="49.18093" lon="-0.60954">
        <ele>79.8</ele>
        <time>2023-05-25T12:38:48Z</time>
      </trkpt>
      <trkpt lat="49.18089" lon="-0.60964">
        <ele>80</ele>
        <time>2023-05-25T12:38:49Z</time>
      </trkpt>
      <trkpt lat="49.18085" lon="-0.60974">
        <ele>80</ele>
        <time>2023-05-25T12:38:50Z</time>
      </trkpt>
      <trkpt lat="49.18081" lon="-0.60984">
        <ele>80</ele>
        <time>2023-05-25T12:38:51Z</time>
      </trkpt>
      <trkpt lat="49.18077" lon="-0.60994">
        <ele>80</ele>
        <time>2023-05-25T12:38:52Z</time>
      </trkpt>
      <trkpt lat="49.18074" lon="-0.61004">
        <ele>79.8</ele>
        <time>2023-05-25T12:38:53Z</time>
      </trkpt>
      <trkpt lat="49.1807" lon="-0.61013">
        <ele>79.6</ele>
        <time>2023-05-25T12:38:54Z</time>
      </trkpt>
      <trkpt lat="49.18066" lon="-0.61022">
        <ele>79.2</ele>
        <time>2023-05-25T12:38:55Z</time>
      </trkpt>
      <trkpt lat="49.18062" lon="-0.6103">
        <ele>79</ele>
        <time>2023-05-25T12:38:56Z</time>
      </trkpt>
      <trkpt lat="49.18058" lon="-0.61038">
        <ele>79</ele>
        <time>2023-05-25T12:38:57Z</time>
      </trkpt>
      <trkpt lat="49.18053" lon="-0.61046">
        <ele>78.8</ele>
        <time>2023-05-25T12:38:58Z</time>
      </trkpt>
      <trkpt lat="49.18048" lon="-0.61054">
        <ele>78.6</ele>
        <time>2023-05-25T12:38:59Z</time>
      </trkpt>
      <trkpt lat="49.18044" lon="-0.61062">
        <ele>78.6</ele>
        <time>2023-05-25T12:39:00Z</time>
      </trkpt>
      <trkpt lat="49.18039" lon="-0.61069">
        <ele>78.6</ele>
        <time>2023-05-25T12:39:01Z</time>
      </trkpt>
      <trkpt lat="49.18035" lon="-0.61077">
        <ele>78.8</ele>
        <time>2023-05-25T12:39:02Z</time>
      </trkpt>
      <trkpt lat="49.18031" lon="-0.61085">
        <ele>78.8</ele>
        <time>2023-05-25T12:39:03Z</time>
      </trkpt>
      <trkpt lat="49.18027" lon="-0.61093">
        <ele>78.8</ele>
        <time>2023-05-25T12:39:04Z</time>
      </trkpt>
      <trkpt lat="49.18023" lon="-0.61101">
        <ele>78.8</ele>
        <time>2023-05-25T12:39:05Z</time>
      </trkpt>
      <trkpt lat="49.18019" lon="-0.61108">
        <ele>78.6</ele>
        <time>2023-05-25T12:39:06Z</time>
      </trkpt>
      <trkpt lat="49.18014" lon="-0.61116">
        <ele>78.6</ele>
        <time>2023-05-25T12:39:07Z</time>
      </trkpt>
      <trkpt lat="49.1801" lon="-0.61123">
        <ele>78.6</ele>
        <time>2023-05-25T12:39:08Z</time>
      </trkpt>
      <trkpt lat="49.18005" lon="-0.61131">
        <ele>78.6</ele>
        <time>2023-05-25T12:39:09Z</time>
      </trkpt>
      <trkpt lat="49.18001" lon="-0.61138">
        <ele>78.6</ele>
        <time>2023-05-25T12:39:10Z</time>
      </trkpt>
      <trkpt lat="49.17996" lon="-0.61144">
        <ele>78.6</ele>
        <time>2023-05-25T12:39:11Z</time>
      </trkpt>
      <trkpt lat="49.17991" lon="-0.61151">
        <ele>78.8</ele>
        <time>2023-05-25T12:39:12Z</time>
      </trkpt>
      <trkpt lat="49.17986" lon="-0.61157">
        <ele>79</ele>
        <time>2023-05-25T12:39:13Z</time>
      </trkpt>
      <trkpt lat="49.17981" lon="-0.61163">
        <ele>79</ele>
        <time>2023-05-25T12:39:14Z</time>
      </trkpt>
      <trkpt lat="49.17977" lon="-0.61169">
        <ele>79</ele>
        <time>2023-05-25T12:39:15Z</time>
      </trkpt>
      <trkpt lat="49.17971" lon="-0.61174">
        <ele>79</ele>
        <time>2023-05-25T12:39:16Z</time>
      </trkpt>
      <trkpt lat="49.17966" lon="-0.6118">
        <ele>79.2</ele>
        <time>2023-05-25T12:39:17Z</time>
      </trkpt>
      <trkpt lat="49.17961" lon="-0.61185">
        <ele>79.2</ele>
        <time>2023-05-25T12:39:18Z</time>
      </trkpt>
      <trkpt lat="49.17956" lon="-0.6119">
        <ele>79.4</ele>
        <time>2023-05-25T12:39:19Z</time>
      </trkpt>
      <trkpt lat="49.17951" lon="-0.61195">
        <ele>79.4</ele>
        <time>2023-05-25T12:39:20Z</time>
      </trkpt>
      <trkpt lat="49.17945" lon="-0.61201">
        <ele>79.4</ele>
        <time>2023-05-25T12:39:21Z</time>
      </trkpt>
      <trkpt lat="49.1794" lon="-0.61206">
        <ele>79.4</ele>
        <time>2023-05-25T12:39:22Z</time>
      </trkpt>
      <trkpt lat="49.17934" lon="-0.61211">
        <ele>79.4</ele>
        <time>2023-05-25T12:39:23Z</time>
      </trkpt>
      <trkpt lat="49.17929" lon="-0.61216">
        <ele>79.2</ele>
        <time>2023-05-25T12:39:24Z</time>
      </trkpt>
      <trkpt lat="49.17924" lon="-0.61222">
        <ele>79</ele>
        <time>2023-05-25T12:39:25Z</time>
      </trkpt>
      <trkpt lat="49.17919" lon="-0.61227">
        <ele>79</ele>
        <time>2023-05-25T12:39:26Z</time>
      </trkpt>
      <trkpt lat="49.17914" lon="-0.61233">
        <ele>79</ele>
        <time>2023-05-25T12:39:27Z</time>
      </trkpt>
      <trkpt lat="49.17908" lon="-0.61239">
        <ele>79</ele>
        <time>2023-05-25T12:39:28Z</time>
      </trkpt>
      <trkpt lat="49.17904" lon="-0.61245">
        <ele>78.8</ele>
        <time>2023-05-25T12:39:29Z</time>
      </trkpt>
      <trkpt lat="49.17899" lon="-0.61251">
        <ele>78.8</ele>
        <time>2023-05-25T12:39:30Z</time>
      </trkpt>
      <trkpt lat="49.17894" lon="-0.61258">
        <ele>79</ele>
        <time>2023-05-25T12:39:31Z</time>
      </trkpt>
      <trkpt lat="49.17889" lon="-0.61265">
        <ele>79</ele>
        <time>2023-05-25T12:39:32Z</time>
      </trkpt>
      <trkpt lat="49.17885" lon="-0.61272">
        <ele>79</ele>
        <time>2023-05-25T12:39:33Z</time>
      </trkpt>
      <trkpt lat="49.1788" lon="-0.61279">
        <ele>79</ele>
        <time>2023-05-25T12:39:34Z</time>
      </trkpt>
      <trkpt lat="49.17875" lon="-0.61286">
        <ele>79</ele>
        <time>2023-05-25T12:39:35Z</time>
      </trkpt>
      <trkpt lat="49.17871" lon="-0.61294">
        <ele>79</ele>
        <time>2023-05-25T12:39:36Z</time>
      </trkpt>
      <trkpt lat="49.17866" lon="-0.61302">
        <ele>78.8</ele>
        <time>2023-05-25T12:39:37Z</time>
      </trkpt>
      <trkpt lat="49.17861" lon="-0.6131">
        <ele>78.8</ele>
        <time>2023-05-25T12:39:38Z</time>
      </trkpt>
      <trkpt lat="49.17856" lon="-0.61319">
        <ele>78.6</ele>
        <time>2023-05-25T12:39:39Z</time>
      </trkpt>
      <trkpt lat="49.17851" lon="-0.61327">
        <ele>78.6</ele>
        <time>2023-05-25T12:39:40Z</time>
      </trkpt>
      <trkpt lat="49.17846" lon="-0.61335">
        <ele>78.6</ele>
        <time>2023-05-25T12:39:41Z</time>
      </trkpt>
      <trkpt lat="49.17842" lon="-0.61341">
        <ele>78.6</ele>
        <time>2023-05-25T12:39:42Z</time>
      </trkpt>
      <trkpt lat="49.17838" lon="-0.61347">
        <ele>78.6</ele>
        <time>2023-05-25T12:39:43Z</time>
      </trkpt>
      <trkpt lat="49.17835" lon="-0.61353">
        <ele>78.6</ele>
        <time>2023-05-25T12:39:44Z</time>
      </trkpt>
      <trkpt lat="49.17833" lon="-0.61358">
        <ele>78.4</ele>
        <time>2023-05-25T12:39:45Z</time>
      </trkpt>
      <trkpt lat="49.17832" lon="-0.61363">
        <ele>78.4</ele>
        <time>2023-05-25T12:39:46Z</time>
      </trkpt>
      <trkpt lat="49.17832" lon="-0.61369">
        <ele>78.2</ele>
        <time>2023-05-25T12:39:47Z</time>
      </trkpt>
      <trkpt lat="49.17832" lon="-0.61374">
        <ele>78</ele>
        <time>2023-05-25T12:39:48Z</time>
      </trkpt>
      <trkpt lat="49.17833" lon="-0.61381">
        <ele>78</ele>
        <time>2023-05-25T12:39:49Z</time>
      </trkpt>
      <trkpt lat="49.17834" lon="-0.61388">
        <ele>77.6</ele>
        <time>2023-05-25T12:39:50Z</time>
      </trkpt>
      <trkpt lat="49.17835" lon="-0.61397">
        <ele>77.4</ele>
        <time>2023-05-25T12:39:51Z</time>
      </trkpt>
      <trkpt lat="49.17836" lon="-0.61406">
        <ele>77</ele>
        <time>2023-05-25T12:39:52Z</time>
      </trkpt>
      <trkpt lat="49.17838" lon="-0.61416">
        <ele>76.8</ele>
        <time>2023-05-25T12:39:53Z</time>
      </trkpt>
      <trkpt lat="49.1784" lon="-0.61426">
        <ele>76.6</ele>
        <time>2023-05-25T12:39:54Z</time>
      </trkpt>
      <trkpt lat="49.17841" lon="-0.61436">
        <ele>76.4</ele>
        <time>2023-05-25T12:39:55Z</time>
      </trkpt>
      <trkpt lat="49.17843" lon="-0.61448">
        <ele>76</ele>
        <time>2023-05-25T12:39:56Z</time>
      </trkpt>
      <trkpt lat="49.17845" lon="-0.61459">
        <ele>75.8</ele>
        <time>2023-05-25T12:39:57Z</time>
      </trkpt>
      <trkpt lat="49.17847" lon="-0.61471">
        <ele>75.6</ele>
        <time>2023-05-25T12:39:58Z</time>
      </trkpt>
      <trkpt lat="49.17849" lon="-0.61483">
        <ele>75</ele>
        <time>2023-05-25T12:39:59Z</time>
      </trkpt>
      <trkpt lat="49.17851" lon="-0.61495">
        <ele>74.8</ele>
        <time>2023-05-25T12:40:00Z</time>
      </trkpt>
      <trkpt lat="49.17853" lon="-0.61508">
        <ele>74.4</ele>
        <time>2023-05-25T12:40:01Z</time>
      </trkpt>
      <trkpt lat="49.17855" lon="-0.6152">
        <ele>74</ele>
        <time>2023-05-25T12:40:02Z</time>
      </trkpt>
      <trkpt lat="49.17857" lon="-0.61533">
        <ele>73.6</ele>
        <time>2023-05-25T12:40:03Z</time>
      </trkpt>
      <trkpt lat="49.17859" lon="-0.61545">
        <ele>73.2</ele>
        <time>2023-05-25T12:40:04Z</time>
      </trkpt>
      <trkpt lat="49.17861" lon="-0.61558">
        <ele>72.8</ele>
        <time>2023-05-25T12:40:05Z</time>
      </trkpt>
      <trkpt lat="49.17864" lon="-0.61571">
        <ele>72.4</ele>
        <time>2023-05-25T12:40:06Z</time>
      </trkpt>
      <trkpt lat="49.17866" lon="-0.61584">
        <ele>72</ele>
        <time>2023-05-25T12:40:07Z</time>
      </trkpt>
      <trkpt lat="49.17868" lon="-0.61597">
        <ele>71.4</ele>
        <time>2023-05-25T12:40:08Z</time>
      </trkpt>
      <trkpt lat="49.1787" lon="-0.61611">
        <ele>70.6</ele>
        <time>2023-05-25T12:40:09Z</time>
      </trkpt>
      <trkpt lat="49.1787" lon="-0.61625">
        <ele>70</ele>
        <time>2023-05-25T12:40:10Z</time>
      </trkpt>
      <trkpt lat="49.1787" lon="-0.61638">
        <ele>69.6</ele>
        <time>2023-05-25T12:40:11Z</time>
      </trkpt>
      <trkpt lat="49.17868" lon="-0.61652">
        <ele>69</ele>
        <time>2023-05-25T12:40:12Z</time>
      </trkpt>
      <trkpt lat="49.17865" lon="-0.61665">
        <ele>68.6</ele>
        <time>2023-05-25T12:40:13Z</time>
      </trkpt>
      <trkpt lat="49.17861" lon="-0.61677">
        <ele>68</ele>
        <time>2023-05-25T12:40:14Z</time>
      </trkpt>
      <trkpt lat="49.17855" lon="-0.61689">
        <ele>67.6</ele>
        <time>2023-05-25T12:40:15Z</time>
      </trkpt>
      <trkpt lat="49.17849" lon="-0.617">
        <ele>67.4</ele>
        <time>2023-05-25T12:40:16Z</time>
      </trkpt>
      <trkpt lat="49.17842" lon="-0.61711">
        <ele>67</ele>
        <time>2023-05-25T12:40:17Z</time>
      </trkpt>
      <trkpt lat="49.17836" lon="-0.61723">
        <ele>66.6</ele>
        <time>2023-05-25T12:40:18Z</time>
      </trkpt>
      <trkpt lat="49.17829" lon="-0.61734">
        <ele>66.2</ele>
        <time>2023-05-25T12:40:19Z</time>
      </trkpt>
      <trkpt lat="49.17822" lon="-0.61745">
        <ele>65.8</ele>
        <time>2023-05-25T12:40:20Z</time>
      </trkpt>
      <trkpt lat="49.17814" lon="-0.61757">
        <ele>65.6</ele>
        <time>2023-05-25T12:40:21Z</time>
      </trkpt>
      <trkpt lat="49.17807" lon="-0.61768">
        <ele>65.4</ele>
        <time>2023-05-25T12:40:22Z</time>
      </trkpt>
      <trkpt lat="49.178" lon="-0.6178">
        <ele>65</ele>
        <time>2023-05-25T12:40:23Z</time>
      </trkpt>
      <trkpt lat="49.17793" lon="-0.61792">
        <ele>65</ele>
        <time>2023-05-25T12:40:24Z</time>
      </trkpt>
      <trkpt lat="49.17786" lon="-0.61804">
        <ele>64.6</ele>
        <time>2023-05-25T12:40:25Z</time>
      </trkpt>
      <trkpt lat="49.17779" lon="-0.61815">
        <ele>64.6</ele>
        <time>2023-05-25T12:40:26Z</time>
      </trkpt>
      <trkpt lat="49.17771" lon="-0.61826">
        <ele>64.4</ele>
        <time>2023-05-25T12:40:27Z</time>
      </trkpt>
      <trkpt lat="49.17765" lon="-0.61837">
        <ele>64</ele>
        <time>2023-05-25T12:40:28Z</time>
      </trkpt>
      <trkpt lat="49.17759" lon="-0.61847">
        <ele>63.8</ele>
        <time>2023-05-25T12:40:29Z</time>
      </trkpt>
      <trkpt lat="49.17755" lon="-0.61856">
        <ele>63.4</ele>
        <time>2023-05-25T12:40:30Z</time>
      </trkpt>
      <trkpt lat="49.17751" lon="-0.61865">
        <ele>63</ele>
        <time>2023-05-25T12:40:31Z</time>
      </trkpt>
      <trkpt lat="49.17748" lon="-0.61873">
        <ele>62.8</ele>
        <time>2023-05-25T12:40:32Z</time>
      </trkpt>
      <trkpt lat="49.17746" lon="-0.61882">
        <ele>62.2</ele>
        <time>2023-05-25T12:40:33Z</time>
      </trkpt>
      <trkpt lat="49.17745" lon="-0.6189">
        <ele>62</ele>
        <time>2023-05-25T12:40:34Z</time>
      </trkpt>
      <trkpt lat="49.17744" lon="-0.61899">
        <ele>61.4</ele>
        <time>2023-05-25T12:40:35Z</time>
      </trkpt>
      <trkpt lat="49.17744" lon="-0.61908">
        <ele>61</ele>
        <time>2023-05-25T12:40:36Z</time>
      </trkpt>
      <trkpt lat="49.17744" lon="-0.61917">
        <ele>60.4</ele>
        <time>2023-05-25T12:40:37Z</time>
      </trkpt>
      <trkpt lat="49.17744" lon="-0.61926">
        <ele>59.8</ele>
        <time>2023-05-25T12:40:38Z</time>
      </trkpt>
      <trkpt lat="49.17744" lon="-0.61936">
        <ele>59.2</ele>
        <time>2023-05-25T12:40:39Z</time>
      </trkpt>
      <trkpt lat="49.17744" lon="-0.61946">
        <ele>58.6</ele>
        <time>2023-05-25T12:40:40Z</time>
      </trkpt>
      <trkpt lat="49.17744" lon="-0.61956">
        <ele>58</ele>
        <time>2023-05-25T12:40:41Z</time>
      </trkpt>
      <trkpt lat="49.17744" lon="-0.61967">
        <ele>57.2</ele>
        <time>2023-05-25T12:40:42Z</time>
      </trkpt>
      <trkpt lat="49.17744" lon="-0.61979">
        <ele>56.6</ele>
        <time>2023-05-25T12:40:43Z</time>
      </trkpt>
      <trkpt lat="49.17745" lon="-0.61991">
        <ele>55.8</ele>
        <time>2023-05-25T12:40:44Z</time>
      </trkpt>
      <trkpt lat="49.17745" lon="-0.62004">
        <ele>55</ele>
        <time>2023-05-25T12:40:45Z</time>
      </trkpt>
      <trkpt lat="49.17745" lon="-0.62017">
        <ele>54.4</ele>
        <time>2023-05-25T12:40:46Z</time>
      </trkpt>
      <trkpt lat="49.17745" lon="-0.6203">
        <ele>53.8</ele>
        <time>2023-05-25T12:40:47Z</time>
      </trkpt>
      <trkpt lat="49.17746" lon="-0.62043">
        <ele>53</ele>
        <time>2023-05-25T12:40:48Z</time>
      </trkpt>
      <trkpt lat="49.17746" lon="-0.62057">
        <ele>52.4</ele>
        <time>2023-05-25T12:40:49Z</time>
      </trkpt>
      <trkpt lat="49.17747" lon="-0.62071">
        <ele>51.8</ele>
        <time>2023-05-25T12:40:50Z</time>
      </trkpt>
      <trkpt lat="49.17747" lon="-0.62085">
        <ele>51</ele>
        <time>2023-05-25T12:40:51Z</time>
      </trkpt>
      <trkpt lat="49.17747" lon="-0.62099">
        <ele>51.2</ele>
        <time>2023-05-25T12:40:52Z</time>
      </trkpt>
      <trkpt lat="49.17748" lon="-0.62113">
        <ele>51.4</ele>
        <time>2023-05-25T12:40:53Z</time>
      </trkpt>
      <trkpt lat="49.17748" lon="-0.62127">
        <ele>51.6</ele>
        <time>2023-05-25T12:40:54Z</time>
      </trkpt>
      <trkpt lat="49.17749" lon="-0.62141">
        <ele>51.8</ele>
        <time>2023-05-25T12:40:55Z</time>
      </trkpt>
      <trkpt lat="49.1775" lon="-0.62155">
        <ele>51.8</ele>
        <time>2023-05-25T12:40:56Z</time>
      </trkpt>
      <trkpt lat="49.1775" lon="-0.62169">
        <ele>52</ele>
        <time>2023-05-25T12:40:57Z</time>
      </trkpt>
      <trkpt lat="49.17751" lon="-0.62182">
        <ele>51.8</ele>
        <time>2023-05-25T12:40:58Z</time>
      </trkpt>
      <trkpt lat="49.17751" lon="-0.62195">
        <ele>51.6</ele>
        <time>2023-05-25T12:40:59Z</time>
      </trkpt>
      <trkpt lat="49.17751" lon="-0.62208">
        <ele>51.4</ele>
        <time>2023-05-25T12:41:00Z</time>
      </trkpt>
      <trkpt lat="49.17752" lon="-0.62221">
        <ele>51.2</ele>
        <time>2023-05-25T12:41:01Z</time>
      </trkpt>
      <trkpt lat="49.17752" lon="-0.62233">
        <ele>51</ele>
        <time>2023-05-25T12:41:02Z</time>
      </trkpt>
      <trkpt lat="49.17753" lon="-0.62245">
        <ele>51</ele>
        <time>2023-05-25T12:41:03Z</time>
      </trkpt>
      <trkpt lat="49.17753" lon="-0.62256">
        <ele>51</ele>
        <time>2023-05-25T12:41:04Z</time>
      </trkpt>
      <trkpt lat="49.17753" lon="-0.62267">
        <ele>51</ele>
        <time>2023-05-25T12:41:05Z</time>
      </trkpt>
      <trkpt lat="49.17753" lon="-0.62277">
        <ele>51.2</ele>
        <time>2023-05-25T12:41:06Z</time>
      </trkpt>
      <trkpt lat="49.17754" lon="-0.62286">
        <ele>51.2</ele>
        <time>2023-05-25T12:41:07Z</time>
      </trkpt>
      <trkpt lat="49.17754" lon="-0.62295">
        <ele>51.6</ele>
        <time>2023-05-25T12:41:08Z</time>
      </trkpt>
      <trkpt lat="49.17753" lon="-0.62304">
        <ele>51.6</ele>
        <time>2023-05-25T12:41:09Z</time>
      </trkpt>
      <trkpt lat="49.17753" lon="-0.62312">
        <ele>51.8</ele>
        <time>2023-05-25T12:41:10Z</time>
      </trkpt>
      <trkpt lat="49.17752" lon="-0.6232">
        <ele>51.8</ele>
        <time>2023-05-25T12:41:11Z</time>
      </trkpt>
      <trkpt lat="49.17752" lon="-0.62328">
        <ele>52</ele>
        <time>2023-05-25T12:41:12Z</time>
      </trkpt>
      <trkpt lat="49.17752" lon="-0.62336">
        <ele>52</ele>
        <time>2023-05-25T12:41:13Z</time>
      </trkpt>
      <trkpt lat="49.17752" lon="-0.62343">
        <ele>52.2</ele>
        <time>2023-05-25T12:41:14Z</time>
      </trkpt>
      <trkpt lat="49.1775" lon="-0.62349">
        <ele>52.6</ele>
        <time>2023-05-25T12:41:15Z</time>
      </trkpt>
      <trkpt lat="49.17747" lon="-0.62355">
        <ele>52.8</ele>
        <time>2023-05-25T12:41:16Z</time>
      </trkpt>
      <trkpt lat="49.17743" lon="-0.62359">
        <ele>53</ele>
        <time>2023-05-25T12:41:17Z</time>
      </trkpt>
      <trkpt lat="49.1774" lon="-0.62364">
        <ele>53.2</ele>
        <time>2023-05-25T12:41:18Z</time>
      </trkpt>
      <trkpt lat="49.17736" lon="-0.62369">
        <ele>53.6</ele>
        <time>2023-05-25T12:41:19Z</time>
      </trkpt>
      <trkpt lat="49.17732" lon="-0.62375">
        <ele>53.8</ele>
        <time>2023-05-25T12:41:20Z</time>
      </trkpt>
      <trkpt lat="49.17729" lon="-0.6238">
        <ele>54</ele>
        <time>2023-05-25T12:41:21Z</time>
      </trkpt>
      <trkpt lat="49.17726" lon="-0.62385">
        <ele>54.2</ele>
        <time>2023-05-25T12:41:22Z</time>
      </trkpt>
      <trkpt lat="49.17722" lon="-0.6239">
        <ele>54.6</ele>
        <time>2023-05-25T12:41:23Z</time>
      </trkpt>
      <trkpt lat="49.17719" lon="-0.62395">
        <ele>54.8</ele>
        <time>2023-05-25T12:41:24Z</time>
      </trkpt>
      <trkpt lat="49.17715" lon="-0.624">
        <ele>55</ele>
        <time>2023-05-25T12:41:25Z</time>
      </trkpt>
      <trkpt lat="49.17711" lon="-0.62404">
        <ele>55</ele>
        <time>2023-05-25T12:41:26Z</time>
      </trkpt>
      <trkpt lat="49.17708" lon="-0.62409">
        <ele>55.2</ele>
        <time>2023-05-25T12:41:27Z</time>
      </trkpt>
      <trkpt lat="49.17704" lon="-0.62413">
        <ele>55.6</ele>
        <time>2023-05-25T12:41:28Z</time>
      </trkpt>
      <trkpt lat="49.177" lon="-0.62418">
        <ele>55.6</ele>
        <time>2023-05-25T12:41:29Z</time>
      </trkpt>
      <trkpt lat="49.17697" lon="-0.62422">
        <ele>56</ele>
        <time>2023-05-25T12:41:30Z</time>
      </trkpt>
      <trkpt lat="49.17693" lon="-0.62426">
        <ele>56.2</ele>
        <time>2023-05-25T12:41:31Z</time>
      </trkpt>
      <trkpt lat="49.1769" lon="-0.62431">
        <ele>56.4</ele>
        <time>2023-05-25T12:41:32Z</time>
      </trkpt>
      <trkpt lat="49.17687" lon="-0.62435">
        <ele>56.6</ele>
        <time>2023-05-25T12:41:33Z</time>
      </trkpt>
      <trkpt lat="49.17683" lon="-0.6244">
        <ele>57</ele>
        <time>2023-05-25T12:41:34Z</time>
      </trkpt>
      <trkpt lat="49.1768" lon="-0.62444">
        <ele>57</ele>
        <time>2023-05-25T12:41:35Z</time>
      </trkpt>
      <trkpt lat="49.17677" lon="-0.62449">
        <ele>57.2</ele>
        <time>2023-05-25T12:41:36Z</time>
      </trkpt>
      <trkpt lat="49.17673" lon="-0.62453">
        <ele>57.4</ele>
        <time>2023-05-25T12:41:37Z</time>
      </trkpt>
      <trkpt lat="49.1767" lon="-0.62458">
        <ele>57.6</ele>
        <time>2023-05-25T12:41:38Z</time>
      </trkpt>
      <trkpt lat="49.17667" lon="-0.62463">
        <ele>57.8</ele>
        <time>2023-05-25T12:41:39Z</time>
      </trkpt>
      <trkpt lat="49.17663" lon="-0.62467">
        <ele>57.8</ele>
        <time>2023-05-25T12:41:40Z</time>
      </trkpt>
      <trkpt lat="49.1766" lon="-0.62472">
        <ele>58</ele>
        <time>2023-05-25T12:41:41Z</time>
      </trkpt>
      <trkpt lat="49.17656" lon="-0.62477">
        <ele>58.2</ele>
        <time>2023-05-25T12:41:42Z</time>
      </trkpt>
      <trkpt lat="49.17653" lon="-0.62481">
        <ele>58.2</ele>
        <time>2023-05-25T12:41:43Z</time>
      </trkpt>
      <trkpt lat="49.17649" lon="-0.62486">
        <ele>58.6</ele>
        <time>2023-05-25T12:41:44Z</time>
      </trkpt>
      <trkpt lat="49.17646" lon="-0.62491">
        <ele>58.8</ele>
        <time>2023-05-25T12:41:45Z</time>
      </trkpt>
      <trkpt lat="49.17642" lon="-0.62496">
        <ele>58.8</ele>
        <time>2023-05-25T12:41:46Z</time>
      </trkpt>
      <trkpt lat="49.17638" lon="-0.625">
        <ele>59</ele>
        <time>2023-05-25T12:41:47Z</time>
      </trkpt>
      <trkpt lat="49.17635" lon="-0.62505">
        <ele>59.2</ele>
        <time>2023-05-25T12:41:48Z</time>
      </trkpt>
      <trkpt lat="49.17631" lon="-0.62509">
        <ele>59.4</ele>
        <time>2023-05-25T12:41:49Z</time>
      </trkpt>
      <trkpt lat="49.17627" lon="-0.62514">
        <ele>59.6</ele>
        <time>2023-05-25T12:41:50Z</time>
      </trkpt>
      <trkpt lat="49.17624" lon="-0.62518">
        <ele>59.8</ele>
        <time>2023-05-25T12:41:51Z</time>
      </trkpt>
      <trkpt lat="49.1762" lon="-0.62523">
        <ele>60</ele>
        <time>2023-05-25T12:41:52Z</time>
      </trkpt>
      <trkpt lat="49.17616" lon="-0.62528">
        <ele>60</ele>
        <time>2023-05-25T12:41:53Z</time>
      </trkpt>
      <trkpt lat="49.17612" lon="-0.62532">
        <ele>60.2</ele>
        <time>2023-05-25T12:41:54Z</time>
      </trkpt>
      <trkpt lat="49.17609" lon="-0.62537">
        <ele>60.2</ele>
        <time>2023-05-25T12:41:55Z</time>
      </trkpt>
      <trkpt lat="49.17605" lon="-0.62542">
        <ele>60.4</ele>
        <time>2023-05-25T12:41:56Z</time>
      </trkpt>
      <trkpt lat="49.17601" lon="-0.62547">
        <ele>60.6</ele>
        <time>2023-05-25T12:41:57Z</time>
      </trkpt>
      <trkpt lat="49.17597" lon="-0.62552">
        <ele>60.6</ele>
        <time>2023-05-25T12:41:58Z</time>
      </trkpt>
      <trkpt lat="49.17593" lon="-0.62557">
        <ele>60.6</ele>
        <time>2023-05-25T12:41:59Z</time>
      </trkpt>
      <trkpt lat="49.1759" lon="-0.62562">
        <ele>60.8</ele>
        <time>2023-05-25T12:42:00Z</time>
      </trkpt>
      <trkpt lat="49.17587" lon="-0.62566">
        <ele>60.8</ele>
        <time>2023-05-25T12:42:01Z</time>
      </trkpt>
      <trkpt lat="49.17584" lon="-0.62571">
        <ele>60.8</ele>
        <time>2023-05-25T12:42:02Z</time>
      </trkpt>
      <trkpt lat="49.17581" lon="-0.62576">
        <ele>60.8</ele>
        <time>2023-05-25T12:42:03Z</time>
      </trkpt>
      <trkpt lat="49.17578" lon="-0.62581">
        <ele>60.8</ele>
        <time>2023-05-25T12:42:04Z</time>
      </trkpt>
      <trkpt lat="49.17577" lon="-0.62586">
        <ele>61</ele>
        <time>2023-05-25T12:42:05Z</time>
      </trkpt>
      <trkpt lat="49.17576" lon="-0.62591">
        <ele>61.2</ele>
        <time>2023-05-25T12:42:06Z</time>
      </trkpt>
      <trkpt lat="49.17576" lon="-0.62596">
        <ele>61.4</ele>
        <time>2023-05-25T12:42:07Z</time>
      </trkpt>
      <trkpt lat="49.17577" lon="-0.62601">
        <ele>61.6</ele>
        <time>2023-05-25T12:42:08Z</time>
      </trkpt>
      <trkpt lat="49.17578" lon="-0.62605">
        <ele>62</ele>
        <time>2023-05-25T12:42:09Z</time>
      </trkpt>
      <trkpt lat="49.17581" lon="-0.62609">
        <ele>62.2</ele>
        <time>2023-05-25T12:42:10Z</time>
      </trkpt>
      <trkpt lat="49.17584" lon="-0.62613">
        <ele>62.4</ele>
        <time>2023-05-25T12:42:11Z</time>
      </trkpt>
      <trkpt lat="49.17588" lon="-0.62616">
        <ele>62.8</ele>
        <time>2023-05-25T12:42:12Z</time>
      </trkpt>
      <trkpt lat="49.17592" lon="-0.62619">
        <ele>63</ele>
        <time>2023-05-25T12:42:13Z</time>
      </trkpt>
      <trkpt lat="49.17596" lon="-0.62621">
        <ele>63.4</ele>
        <time>2023-05-25T12:42:14Z</time>
      </trkpt>
      <trkpt lat="49.176" lon="-0.62624">
        <ele>63.8</ele>
        <time>2023-05-25T12:42:15Z</time>
      </trkpt>
      <trkpt lat="49.17604" lon="-0.62626">
        <ele>64</ele>
        <time>2023-05-25T12:42:16Z</time>
      </trkpt>
      <trkpt lat="49.17608" lon="-0.62629">
        <ele>64.4</ele>
        <time>2023-05-25T12:42:17Z</time>
      </trkpt>
      <trkpt lat="49.17611" lon="-0.62631">
        <ele>64.6</ele>
        <time>2023-05-25T12:42:18Z</time>
      </trkpt>
      <trkpt lat="49.17615" lon="-0.62633">
        <ele>65</ele>
        <time>2023-05-25T12:42:19Z</time>
      </trkpt>
      <trkpt lat="49.17619" lon="-0.62636">
        <ele>65.4</ele>
        <time>2023-05-25T12:42:20Z</time>
      </trkpt>
      <trkpt lat="49.17622" lon="-0.62638">
        <ele>65.6</ele>
        <time>2023-05-25T12:42:21Z</time>
      </trkpt>
      <trkpt lat="49.17626" lon="-0.6264">
        <ele>66</ele>
        <time>2023-05-25T12:42:22Z</time>
      </trkpt>
      <trkpt lat="49.17629" lon="-0.62642">
        <ele>66.4</ele>
        <time>2023-05-25T12:42:23Z</time>
      </trkpt>
      <trkpt lat="49.17633" lon="-0.62644">
        <ele>66.6</ele>
        <time>2023-05-25T12:42:24Z</time>
      </trkpt>
      <trkpt lat="49.17636" lon="-0.62647">
        <ele>67</ele>
        <time>2023-05-25T12:42:25Z</time>
      </trkpt>
      <trkpt lat="49.1764" lon="-0.62649">
        <ele>67.2</ele>
        <time>2023-05-25T12:42:26Z</time>
      </trkpt>
      <trkpt lat="49.17643" lon="-0.62651">
        <ele>67.6</ele>
        <time>2023-05-25T12:42:27Z</time>
      </trkpt>
      <trkpt lat="49.17647" lon="-0.62653">
        <ele>68</ele>
        <time>2023-05-25T12:42:28Z</time>
      </trkpt>
      <trkpt lat="49.1765" lon="-0.62655">
        <ele>68.2</ele>
        <time>2023-05-25T12:42:29Z</time>
      </trkpt>
      <trkpt lat="49.17654" lon="-0.62658">
        <ele>68.6</ele>
        <time>2023-05-25T12:42:30Z</time>
      </trkpt>
      <trkpt lat="49.17657" lon="-0.6266">
        <ele>69</ele>
        <time>2023-05-25T12:42:31Z</time>
      </trkpt>
      <trkpt lat="49.17661" lon="-0.62662">
        <ele>69.4</ele>
        <time>2023-05-25T12:42:32Z</time>
      </trkpt>
      <trkpt lat="49.17664" lon="-0.62664">
        <ele>69.6</ele>
        <time>2023-05-25T12:42:33Z</time>
      </trkpt>
      <trkpt lat="49.17668" lon="-0.62666">
        <ele>70</ele>
        <time>2023-05-25T12:42:34Z</time>
      </trkpt>
      <trkpt lat="49.17671" lon="-0.62668">
        <ele>70.4</ele>
        <time>2023-05-25T12:42:35Z</time>
      </trkpt>
      <trkpt lat="49.17675" lon="-0.62671">
        <ele>70.6</ele>
        <time>2023-05-25T12:42:36Z</time>
      </trkpt>
      <trkpt lat="49.17678" lon="-0.62673">
        <ele>70.8</ele>
        <time>2023-05-25T12:42:37Z</time>
      </trkpt>
      <trkpt lat="49.17682" lon="-0.62675">
        <ele>71</ele>
        <time>2023-05-25T12:42:38Z</time>
      </trkpt>
      <trkpt lat="49.17685" lon="-0.62677">
        <ele>71.4</ele>
        <time>2023-05-25T12:42:39Z</time>
      </trkpt>
      <trkpt lat="49.17689" lon="-0.62679">
        <ele>71.6</ele>
        <time>2023-05-25T12:42:40Z</time>
      </trkpt>
      <trkpt lat="49.17692" lon="-0.62681">
        <ele>71.6</ele>
        <time>2023-05-25T12:42:41Z</time>
      </trkpt>
      <trkpt lat="49.17696" lon="-0.62683">
        <ele>72</ele>
        <time>2023-05-25T12:42:42Z</time>
      </trkpt>
      <trkpt lat="49.17699" lon="-0.62685">
        <ele>72.2</ele>
        <time>2023-05-25T12:42:43Z</time>
      </trkpt>
      <trkpt lat="49.17702" lon="-0.62687">
        <ele>72.4</ele>
        <time>2023-05-25T12:42:44Z</time>
      </trkpt>
      <trkpt lat="49.17706" lon="-0.62689">
        <ele>72.6</ele>
        <time>2023-05-25T12:42:45Z</time>
      </trkpt>
      <trkpt lat="49.17709" lon="-0.62691">
        <ele>73</ele>
        <time>2023-05-25T12:42:46Z</time>
      </trkpt>
      <trkpt lat="49.17712" lon="-0.62694">
        <ele>73</ele>
        <time>2023-05-25T12:42:47Z</time>
      </trkpt>
      <trkpt lat="49.17716" lon="-0.62696">
        <ele>73.4</ele>
        <time>2023-05-25T12:42:48Z</time>
      </trkpt>
      <trkpt lat="49.17719" lon="-0.62698">
        <ele>73.6</ele>
        <time>2023-05-25T12:42:49Z</time>
      </trkpt>
      <trkpt lat="49.17722" lon="-0.627">
        <ele>73.6</ele>
        <time>2023-05-25T12:42:50Z</time>
      </trkpt>
      <trkpt lat="49.17726" lon="-0.62702">
        <ele>74</ele>
        <time>2023-05-25T12:42:51Z</time>
      </trkpt>
      <trkpt lat="49.17729" lon="-0.62704">
        <ele>74.2</ele>
        <time>2023-05-25T12:42:52Z</time>
      </trkpt>
      <trkpt lat="49.17732" lon="-0.62707">
        <ele>74.4</ele>
        <time>2023-05-25T12:42:53Z</time>
      </trkpt>
      <trkpt lat="49.17736" lon="-0.62709">
        <ele>74.6</ele>
        <time>2023-05-25T12:42:54Z</time>
      </trkpt>
      <trkpt lat="49.17739" lon="-0.62711">
        <ele>74.8</ele>
        <time>2023-05-25T12:42:55Z</time>
      </trkpt>
      <trkpt lat="49.17743" lon="-0.62714">
        <ele>75</ele>
        <time>2023-05-25T12:42:56Z</time>
      </trkpt>
      <trkpt lat="49.17746" lon="-0.62716">
        <ele>75.4</ele>
        <time>2023-05-25T12:42:57Z</time>
      </trkpt>
      <trkpt lat="49.1775" lon="-0.62718">
        <ele>75.6</ele>
        <time>2023-05-25T12:42:58Z</time>
      </trkpt>
      <trkpt lat="49.17754" lon="-0.6272">
        <ele>75.6</ele>
        <time>2023-05-25T12:42:59Z</time>
      </trkpt>
      <trkpt lat="49.17757" lon="-0.62723">
        <ele>75.6</ele>
        <time>2023-05-25T12:43:00Z</time>
      </trkpt>
      <trkpt lat="49.17761" lon="-0.62725">
        <ele>75.6</ele>
        <time>2023-05-25T12:43:01Z</time>
      </trkpt>
      <trkpt lat="49.17765" lon="-0.62728">
        <ele>75.6</ele>
        <time>2023-05-25T12:43:02Z</time>
      </trkpt>
      <trkpt lat="49.17768" lon="-0.6273">
        <ele>75.6</ele>
        <time>2023-05-25T12:43:03Z</time>
      </trkpt>
      <trkpt lat="49.17772" lon="-0.62733">
        <ele>75.6</ele>
        <time>2023-05-25T12:43:04Z</time>
      </trkpt>
      <trkpt lat="49.17776" lon="-0.62735">
        <ele>75.6</ele>
        <time>2023-05-25T12:43:05Z</time>
      </trkpt>
      <trkpt lat="49.1778" lon="-0.62737">
        <ele>75.6</ele>
        <time>2023-05-25T12:43:06Z</time>
      </trkpt>
      <trkpt lat="49.17784" lon="-0.6274">
        <ele>75.6</ele>
        <time>2023-05-25T12:43:07Z</time>
      </trkpt>
      <trkpt lat="49.17788" lon="-0.62742">
        <ele>75.8</ele>
        <time>2023-05-25T12:43:08Z</time>
      </trkpt>
      <trkpt lat="49.17792" lon="-0.62745">
        <ele>75.8</ele>
        <time>2023-05-25T12:43:09Z</time>
      </trkpt>
      <trkpt lat="49.17796" lon="-0.62747">
        <ele>75.8</ele>
        <time>2023-05-25T12:43:10Z</time>
      </trkpt>
      <trkpt lat="49.178" lon="-0.6275">
        <ele>75.8</ele>
        <time>2023-05-25T12:43:11Z</time>
      </trkpt>
      <trkpt lat="49.17804" lon="-0.62753">
        <ele>75.8</ele>
        <time>2023-05-25T12:43:12Z</time>
      </trkpt>
      <trkpt lat="49.17808" lon="-0.62755">
        <ele>75.8</ele>
        <time>2023-05-25T12:43:13Z</time>
      </trkpt>
      <trkpt lat="49.17813" lon="-0.62758">
        <ele>75.8</ele>
        <time>2023-05-25T12:43:14Z</time>
      </trkpt>
      <trkpt lat="49.17817" lon="-0.6276">
        <ele>75.6</ele>
        <time>2023-05-25T12:43:15Z</time>
      </trkpt>
      <trkpt lat="49.17821" lon="-0.62763">
        <ele>75.6</ele>
        <time>2023-05-25T12:43:16Z</time>
      </trkpt>
      <trkpt lat="49.17825" lon="-0.62765">
        <ele>75.6</ele>
        <time>2023-05-25T12:43:17Z</time>
      </trkpt>
      <trkpt lat="49.17829" lon="-0.62768">
        <ele>75.6</ele>
        <time>2023-05-25T12:43:18Z</time>
      </trkpt>
      <trkpt lat="49.17832" lon="-0.6277">
        <ele>75.6</ele>
        <time>2023-05-25T12:43:19Z</time>
      </trkpt>
      <trkpt lat="49.17836" lon="-0.62772">
        <ele>75.6</ele>
        <time>2023-05-25T12:43:20Z</time>
      </trkpt>
      <trkpt lat="49.17839" lon="-0.62775">
        <ele>75.6</ele>
        <time>2023-05-25T12:43:21Z</time>
      </trkpt>
      <trkpt lat="49.17843" lon="-0.62777">
        <ele>75.6</ele>
        <time>2023-05-25T12:43:22Z</time>
      </trkpt>
      <trkpt lat="49.17847" lon="-0.62779">
        <ele>75.6</ele>
        <time>2023-05-25T12:43:23Z</time>
      </trkpt>
      <trkpt lat="49.17851" lon="-0.62782">
        <ele>75.4</ele>
        <time>2023-05-25T12:43:24Z</time>
      </trkpt>
      <trkpt lat="49.17855" lon="-0.62784">
        <ele>75.2</ele>
        <time>2023-05-25T12:43:25Z</time>
      </trkpt>
      <trkpt lat="49.17859" lon="-0.62787">
        <ele>75</ele>
        <time>2023-05-25T12:43:26Z</time>
      </trkpt>
      <trkpt lat="49.17864" lon="-0.6279">
        <ele>75</ele>
        <time>2023-05-25T12:43:27Z</time>
      </trkpt>
      <trkpt lat="49.17868" lon="-0.62792">
        <ele>74.8</ele>
        <time>2023-05-25T12:43:28Z</time>
      </trkpt>
      <trkpt lat="49.17873" lon="-0.62795">
        <ele>74.6</ele>
        <time>2023-05-25T12:43:29Z</time>
      </trkpt>
      <trkpt lat="49.17877" lon="-0.62798">
        <ele>74.6</ele>
        <time>2023-05-25T12:43:30Z</time>
      </trkpt>
      <trkpt lat="49.17882" lon="-0.62801">
        <ele>74.4</ele>
        <time>2023-05-25T12:43:31Z</time>
      </trkpt>
      <trkpt lat="49.17887" lon="-0.62804">
        <ele>74.2</ele>
        <time>2023-05-25T12:43:32Z</time>
      </trkpt>
      <trkpt lat="49.17892" lon="-0.62807">
        <ele>74</ele>
        <time>2023-05-25T12:43:33Z</time>
      </trkpt>
      <trkpt lat="49.17897" lon="-0.6281">
        <ele>73.8</ele>
        <time>2023-05-25T12:43:34Z</time>
      </trkpt>
      <trkpt lat="49.17902" lon="-0.62813">
        <ele>73.6</ele>
        <time>2023-05-25T12:43:35Z</time>
      </trkpt>
      <trkpt lat="49.17908" lon="-0.62817">
        <ele>73.4</ele>
        <time>2023-05-25T12:43:36Z</time>
      </trkpt>
      <trkpt lat="49.17913" lon="-0.6282">
        <ele>73</ele>
        <time>2023-05-25T12:43:37Z</time>
      </trkpt>
      <trkpt lat="49.17919" lon="-0.62823">
        <ele>72.8</ele>
        <time>2023-05-25T12:43:38Z</time>
      </trkpt>
      <trkpt lat="49.17925" lon="-0.62827">
        <ele>72.6</ele>
        <time>2023-05-25T12:43:39Z</time>
      </trkpt>
      <trkpt lat="49.1793" lon="-0.62831">
        <ele>72.6</ele>
        <time>2023-05-25T12:43:40Z</time>
      </trkpt>
      <trkpt lat="49.17937" lon="-0.62835">
        <ele>72.6</ele>
        <time>2023-05-25T12:43:41Z</time>
      </trkpt>
      <trkpt lat="49.17943" lon="-0.62838">
        <ele>72.4</ele>
        <time>2023-05-25T12:43:42Z</time>
      </trkpt>
      <trkpt lat="49.17949" lon="-0.62842">
        <ele>72.4</ele>
        <time>2023-05-25T12:43:43Z</time>
      </trkpt>
      <trkpt lat="49.17955" lon="-0.62846">
        <ele>72</ele>
        <time>2023-05-25T12:43:44Z</time>
      </trkpt>
      <trkpt lat="49.17962" lon="-0.6285">
        <ele>72</ele>
        <time>2023-05-25T12:43:45Z</time>
      </trkpt>
      <trkpt lat="49.17968" lon="-0.62854">
        <ele>72</ele>
        <time>2023-05-25T12:43:46Z</time>
      </trkpt>
      <trkpt lat="49.17974" lon="-0.62858">
        <ele>71.8</ele>
        <time>2023-05-25T12:43:47Z</time>
      </trkpt>
      <trkpt lat="49.17981" lon="-0.62862">
        <ele>71.6</ele>
        <time>2023-05-25T12:43:48Z</time>
      </trkpt>
      <trkpt lat="49.17987" lon="-0.62867">
        <ele>71.6</ele>
        <time>2023-05-25T12:43:49Z</time>
      </trkpt>
      <trkpt lat="49.17994" lon="-0.62871">
        <ele>71.6</ele>
        <time>2023-05-25T12:43:50Z</time>
      </trkpt>
      <trkpt lat="49.18001" lon="-0.62875">
        <ele>71.6</ele>
        <time>2023-05-25T12:43:51Z</time>
      </trkpt>
      <trkpt lat="49.18008" lon="-0.6288">
        <ele>71.4</ele>
        <time>2023-05-25T12:43:52Z</time>
      </trkpt>
      <trkpt lat="49.18014" lon="-0.62884">
        <ele>71</ele>
        <time>2023-05-25T12:43:53Z</time>
      </trkpt>
      <trkpt lat="49.18022" lon="-0.62888">
        <ele>71</ele>
        <time>2023-05-25T12:43:54Z</time>
      </trkpt>
      <trkpt lat="49.18029" lon="-0.62893">
        <ele>70.6</ele>
        <time>2023-05-25T12:43:55Z</time>
      </trkpt>
      <trkpt lat="49.18036" lon="-0.62898">
        <ele>70.6</ele>
        <time>2023-05-25T12:43:56Z</time>
      </trkpt>
      <trkpt lat="49.18044" lon="-0.62902">
        <ele>70.4</ele>
        <time>2023-05-25T12:43:57Z</time>
      </trkpt>
      <trkpt lat="49.18051" lon="-0.62907">
        <ele>70</ele>
        <time>2023-05-25T12:43:58Z</time>
      </trkpt>
      <trkpt lat="49.18059" lon="-0.62912">
        <ele>69.8</ele>
        <time>2023-05-25T12:43:59Z</time>
      </trkpt>
      <trkpt lat="49.18067" lon="-0.62917">
        <ele>69.6</ele>
        <time>2023-05-25T12:44:00Z</time>
      </trkpt>
      <trkpt lat="49.18075" lon="-0.62922">
        <ele>69.4</ele>
        <time>2023-05-25T12:44:01Z</time>
      </trkpt>
      <trkpt lat="49.18083" lon="-0.62927">
        <ele>69.2</ele>
        <time>2023-05-25T12:44:02Z</time>
      </trkpt>
      <trkpt lat="49.18092" lon="-0.62932">
        <ele>68.6</ele>
        <time>2023-05-25T12:44:03Z</time>
      </trkpt>
      <trkpt lat="49.181" lon="-0.62937">
        <ele>68.2</ele>
        <time>2023-05-25T12:44:04Z</time>
      </trkpt>
      <trkpt lat="49.18108" lon="-0.62942">
        <ele>67.6</ele>
        <time>2023-05-25T12:44:05Z</time>
      </trkpt>
      <trkpt lat="49.18117" lon="-0.62947">
        <ele>67</ele>
        <time>2023-05-25T12:44:06Z</time>
      </trkpt>
      <trkpt lat="49.18125" lon="-0.62953">
        <ele>66.4</ele>
        <time>2023-05-25T12:44:07Z</time>
      </trkpt>
      <trkpt lat="49.18134" lon="-0.62959">
        <ele>65.6</ele>
        <time>2023-05-25T12:44:08Z</time>
      </trkpt>
      <trkpt lat="49.18143" lon="-0.62964">
        <ele>65</ele>
        <time>2023-05-25T12:44:09Z</time>
      </trkpt>
      <trkpt lat="49.18152" lon="-0.6297">
        <ele>64.4</ele>
        <time>2023-05-25T12:44:10Z</time>
      </trkpt>
      <trkpt lat="49.18161" lon="-0.62975">
        <ele>63.6</ele>
        <time>2023-05-25T12:44:11Z</time>
      </trkpt>
      <trkpt lat="49.1817" lon="-0.62981">
        <ele>63</ele>
        <time>2023-05-25T12:44:12Z</time>
      </trkpt>
      <trkpt lat="49.18178" lon="-0.62986">
        <ele>63</ele>
        <time>2023-05-25T12:44:13Z</time>
      </trkpt>
      <trkpt lat="49.18187" lon="-0.62992">
        <ele>63</ele>
        <time>2023-05-25T12:44:14Z</time>
      </trkpt>
      <trkpt lat="49.18196" lon="-0.62997">
        <ele>63.2</ele>
        <time>2023-05-25T12:44:15Z</time>
      </trkpt>
      <trkpt lat="49.18204" lon="-0.63002">
        <ele>63.6</ele>
        <time>2023-05-25T12:44:16Z</time>
      </trkpt>
      <trkpt lat="49.18212" lon="-0.63007">
        <ele>64</ele>
        <time>2023-05-25T12:44:17Z</time>
      </trkpt>
      <trkpt lat="49.1822" lon="-0.63012">
        <ele>64.2</ele>
        <time>2023-05-25T12:44:18Z</time>
      </trkpt>
      <trkpt lat="49.18227" lon="-0.63016">
        <ele>64.6</ele>
        <time>2023-05-25T12:44:19Z</time>
      </trkpt>
      <trkpt lat="49.18234" lon="-0.63021">
        <ele>64.8</ele>
        <time>2023-05-25T12:44:20Z</time>
      </trkpt>
      <trkpt lat="49.18241" lon="-0.63025">
        <ele>65</ele>
        <time>2023-05-25T12:44:21Z</time>
      </trkpt>
      <trkpt lat="49.18248" lon="-0.6303">
        <ele>65.4</ele>
        <time>2023-05-25T12:44:22Z</time>
      </trkpt>
      <trkpt lat="49.18254" lon="-0.63034">
        <ele>65.6</ele>
        <time>2023-05-25T12:44:23Z</time>
      </trkpt>
      <trkpt lat="49.18261" lon="-0.63038">
        <ele>65.6</ele>
        <time>2023-05-25T12:44:24Z</time>
      </trkpt>
      <trkpt lat="49.18267" lon="-0.63042">
        <ele>65.6</ele>
        <time>2023-05-25T12:44:25Z</time>
      </trkpt>
      <trkpt lat="49.18272" lon="-0.63047">
        <ele>65.8</ele>
        <time>2023-05-25T12:44:26Z</time>
      </trkpt>
      <trkpt lat="49.18278" lon="-0.63052">
        <ele>66</ele>
        <time>2023-05-25T12:44:27Z</time>
      </trkpt>
      <trkpt lat="49.18284" lon="-0.63056">
        <ele>66</ele>
        <time>2023-05-25T12:44:28Z</time>
      </trkpt>
      <trkpt lat="49.18289" lon="-0.63061">
        <ele>66.2</ele>
        <time>2023-05-25T12:44:29Z</time>
      </trkpt>
      <trkpt lat="49.18295" lon="-0.63066">
        <ele>66.4</ele>
        <time>2023-05-25T12:44:30Z</time>
      </trkpt>
      <trkpt lat="49.183" lon="-0.63072">
        <ele>66.6</ele>
        <time>2023-05-25T12:44:31Z</time>
      </trkpt>
      <trkpt lat="49.18305" lon="-0.63077">
        <ele>67</ele>
        <time>2023-05-25T12:44:32Z</time>
      </trkpt>
      <trkpt lat="49.1831" lon="-0.63083">
        <ele>67.4</ele>
        <time>2023-05-25T12:44:33Z</time>
      </trkpt>
      <trkpt lat="49.18315" lon="-0.63089">
        <ele>67.4</ele>
        <time>2023-05-25T12:44:34Z</time>
      </trkpt>
      <trkpt lat="49.1832" lon="-0.63095">
        <ele>67.6</ele>
        <time>2023-05-25T12:44:35Z</time>
      </trkpt>
      <trkpt lat="49.18325" lon="-0.63101">
        <ele>67.6</ele>
        <time>2023-05-25T12:44:36Z</time>
      </trkpt>
      <trkpt lat="49.1833" lon="-0.63107">
        <ele>68</ele>
        <time>2023-05-25T12:44:37Z</time>
      </trkpt>
      <trkpt lat="49.18335" lon="-0.63114">
        <ele>68</ele>
        <time>2023-05-25T12:44:38Z</time>
      </trkpt>
      <trkpt lat="49.18339" lon="-0.6312">
        <ele>68</ele>
        <time>2023-05-25T12:44:39Z</time>
      </trkpt>
      <trkpt lat="49.18343" lon="-0.63127">
        <ele>68.2</ele>
        <time>2023-05-25T12:44:40Z</time>
      </trkpt>
      <trkpt lat="49.18348" lon="-0.63134">
        <ele>68.4</ele>
        <time>2023-05-25T12:44:41Z</time>
      </trkpt>
      <trkpt lat="49.18352" lon="-0.6314">
        <ele>68.4</ele>
        <time>2023-05-25T12:44:42Z</time>
      </trkpt>
      <trkpt lat="49.18356" lon="-0.63147">
        <ele>68.6</ele>
        <time>2023-05-25T12:44:43Z</time>
      </trkpt>
      <trkpt lat="49.18361" lon="-0.63154">
        <ele>68.6</ele>
        <time>2023-05-25T12:44:44Z</time>
      </trkpt>
      <trkpt lat="49.18365" lon="-0.63161">
        <ele>69</ele>
        <time>2023-05-25T12:44:45Z</time>
      </trkpt>
      <trkpt lat="49.18369" lon="-0.63168">
        <ele>69.2</ele>
        <time>2023-05-25T12:44:46Z</time>
      </trkpt>
      <trkpt lat="49.18373" lon="-0.63174">
        <ele>69.4</ele>
        <time>2023-05-25T12:44:47Z</time>
      </trkpt>
      <trkpt lat="49.18377" lon="-0.63181">
        <ele>69.4</ele>
        <time>2023-05-25T12:44:48Z</time>
      </trkpt>
      <trkpt lat="49.18381" lon="-0.63188">
        <ele>69.6</ele>
        <time>2023-05-25T12:44:49Z</time>
      </trkpt>
      <trkpt lat="49.18386" lon="-0.63195">
        <ele>69.6</ele>
        <time>2023-05-25T12:44:50Z</time>
      </trkpt>
      <trkpt lat="49.1839" lon="-0.63202">
        <ele>69.8</ele>
        <time>2023-05-25T12:44:51Z</time>
      </trkpt>
      <trkpt lat="49.18394" lon="-0.63209">
        <ele>70</ele>
        <time>2023-05-25T12:44:52Z</time>
      </trkpt>
      <trkpt lat="49.18398" lon="-0.63216">
        <ele>70</ele>
        <time>2023-05-25T12:44:53Z</time>
      </trkpt>
      <trkpt lat="49.18402" lon="-0.63222">
        <ele>70.2</ele>
        <time>2023-05-25T12:44:54Z</time>
      </trkpt>
      <trkpt lat="49.18407" lon="-0.63229">
        <ele>70.4</ele>
        <time>2023-05-25T12:44:55Z</time>
      </trkpt>
      <trkpt lat="49.18411" lon="-0.63236">
        <ele>70.6</ele>
        <time>2023-05-25T12:44:56Z</time>
      </trkpt>
      <trkpt lat="49.18415" lon="-0.63243">
        <ele>70.8</ele>
        <time>2023-05-25T12:44:57Z</time>
      </trkpt>
      <trkpt lat="49.18419" lon="-0.6325">
        <ele>71</ele>
        <time>2023-05-25T12:44:58Z</time>
      </trkpt>
      <trkpt lat="49.18423" lon="-0.63256">
        <ele>71</ele>
        <time>2023-05-25T12:44:59Z</time>
      </trkpt>
      <trkpt lat="49.18428" lon="-0.63263">
        <ele>71</ele>
        <time>2023-05-25T12:45:00Z</time>
      </trkpt>
      <trkpt lat="49.18432" lon="-0.6327">
        <ele>71.2</ele>
        <time>2023-05-25T12:45:01Z</time>
      </trkpt>
      <trkpt lat="49.18436" lon="-0.63277">
        <ele>71.2</ele>
        <time>2023-05-25T12:45:02Z</time>
      </trkpt>
      <trkpt lat="49.18441" lon="-0.63285">
        <ele>71.2</ele>
        <time>2023-05-25T12:45:03Z</time>
      </trkpt>
      <trkpt lat="49.18445" lon="-0.63292">
        <ele>71.2</ele>
        <time>2023-05-25T12:45:04Z</time>
      </trkpt>
      <trkpt lat="49.1845" lon="-0.63299">
        <ele>71</ele>
        <time>2023-05-25T12:45:05Z</time>
      </trkpt>
      <trkpt lat="49.18454" lon="-0.63306">
        <ele>71</ele>
        <time>2023-05-25T12:45:06Z</time>
      </trkpt>
      <trkpt lat="49.18459" lon="-0.63314">
        <ele>71</ele>
        <time>2023-05-25T12:45:07Z</time>
      </trkpt>
      <trkpt lat="49.18463" lon="-0.63321">
        <ele>71</ele>
        <time>2023-05-25T12:45:08Z</time>
      </trkpt>
      <trkpt lat="49.18468" lon="-0.63329">
        <ele>70.8</ele>
        <time>2023-05-25T12:45:09Z</time>
      </trkpt>
      <trkpt lat="49.18472" lon="-0.63336">
        <ele>70.6</ele>
        <time>2023-05-25T12:45:10Z</time>
      </trkpt>
      <trkpt lat="49.18477" lon="-0.63343">
        <ele>70.4</ele>
        <time>2023-05-25T12:45:11Z</time>
      </trkpt>
      <trkpt lat="49.18481" lon="-0.63351">
        <ele>70.2</ele>
        <time>2023-05-25T12:45:12Z</time>
      </trkpt>
      <trkpt lat="49.18486" lon="-0.63358">
        <ele>70</ele>
        <time>2023-05-25T12:45:13Z</time>
      </trkpt>
      <trkpt lat="49.1849" lon="-0.63366">
        <ele>69.8</ele>
        <time>2023-05-25T12:45:14Z</time>
      </trkpt>
      <trkpt lat="49.18495" lon="-0.63374">
        <ele>69.6</ele>
        <time>2023-05-25T12:45:15Z</time>
      </trkpt>
      <trkpt lat="49.185" lon="-0.63382">
        <ele>69.4</ele>
        <time>2023-05-25T12:45:16Z</time>
      </trkpt>
      <trkpt lat="49.18505" lon="-0.6339">
        <ele>69.2</ele>
        <time>2023-05-25T12:45:17Z</time>
      </trkpt>
      <trkpt lat="49.1851" lon="-0.63398">
        <ele>69</ele>
        <time>2023-05-25T12:45:18Z</time>
      </trkpt>
      <trkpt lat="49.18515" lon="-0.63407">
        <ele>68.6</ele>
        <time>2023-05-25T12:45:19Z</time>
      </trkpt>
      <trkpt lat="49.18521" lon="-0.63415">
        <ele>68.6</ele>
        <time>2023-05-25T12:45:20Z</time>
      </trkpt>
      <trkpt lat="49.18526" lon="-0.63424">
        <ele>68.2</ele>
        <time>2023-05-25T12:45:21Z</time>
      </trkpt>
      <trkpt lat="49.18531" lon="-0.63433">
        <ele>67.8</ele>
        <time>2023-05-25T12:45:22Z</time>
      </trkpt>
      <trkpt lat="49.18537" lon="-0.63442">
        <ele>67.4</ele>
        <time>2023-05-25T12:45:23Z</time>
      </trkpt>
      <trkpt lat="49.18542" lon="-0.63451">
        <ele>67</ele>
        <time>2023-05-25T12:45:24Z</time>
      </trkpt>
      <trkpt lat="49.18548" lon="-0.6346">
        <ele>66.6</ele>
        <time>2023-05-25T12:45:25Z</time>
      </trkpt>
      <trkpt lat="49.18554" lon="-0.63469">
        <ele>66</ele>
        <time>2023-05-25T12:45:26Z</time>
      </trkpt>
      <trkpt lat="49.18559" lon="-0.63479">
        <ele>65.6</ele>
        <time>2023-05-25T12:45:27Z</time>
      </trkpt>
      <trkpt lat="49.18565" lon="-0.63488">
        <ele>65</ele>
        <time>2023-05-25T12:45:28Z</time>
      </trkpt>
      <trkpt lat="49.18571" lon="-0.63498">
        <ele>64.6</ele>
        <time>2023-05-25T12:45:29Z</time>
      </trkpt>
      <trkpt lat="49.18577" lon="-0.63508">
        <ele>64</ele>
        <time>2023-05-25T12:45:30Z</time>
      </trkpt>
      <trkpt lat="49.18583" lon="-0.63518">
        <ele>63.8</ele>
        <time>2023-05-25T12:45:31Z</time>
      </trkpt>
      <trkpt lat="49.18589" lon="-0.63528">
        <ele>63.4</ele>
        <time>2023-05-25T12:45:32Z</time>
      </trkpt>
      <trkpt lat="49.18596" lon="-0.63539">
        <ele>63</ele>
        <time>2023-05-25T12:45:33Z</time>
      </trkpt>
      <trkpt lat="49.18602" lon="-0.63549">
        <ele>62.6</ele>
        <time>2023-05-25T12:45:34Z</time>
      </trkpt>
      <trkpt lat="49.18609" lon="-0.6356">
        <ele>62</ele>
        <time>2023-05-25T12:45:35Z</time>
      </trkpt>
      <trkpt lat="49.18616" lon="-0.6357">
        <ele>61.8</ele>
        <time>2023-05-25T12:45:36Z</time>
      </trkpt>
      <trkpt lat="49.18623" lon="-0.63581">
        <ele>61.2</ele>
        <time>2023-05-25T12:45:37Z</time>
      </trkpt>
      <trkpt lat="49.18629" lon="-0.63592">
        <ele>60.6</ele>
        <time>2023-05-25T12:45:38Z</time>
      </trkpt>
      <trkpt lat="49.18637" lon="-0.63604">
        <ele>59.8</ele>
        <time>2023-05-25T12:45:39Z</time>
      </trkpt>
      <trkpt lat="49.18644" lon="-0.63615">
        <ele>58.8</ele>
        <time>2023-05-25T12:45:40Z</time>
      </trkpt>
      <trkpt lat="49.18651" lon="-0.63627">
        <ele>58</ele>
        <time>2023-05-25T12:45:41Z</time>
      </trkpt>
      <trkpt lat="49.18658" lon="-0.63639">
        <ele>57</ele>
        <time>2023-05-25T12:45:42Z</time>
      </trkpt>
      <trkpt lat="49.18665" lon="-0.6365">
        <ele>56</ele>
        <time>2023-05-25T12:45:43Z</time>
      </trkpt>
      <trkpt lat="49.18673" lon="-0.63663">
        <ele>55.2</ele>
        <time>2023-05-25T12:45:44Z</time>
      </trkpt>
      <trkpt lat="49.1868" lon="-0.63675">
        <ele>55</ele>
        <time>2023-05-25T12:45:45Z</time>
      </trkpt>
      <trkpt lat="49.18687" lon="-0.63687">
        <ele>55.4</ele>
        <time>2023-05-25T12:45:46Z</time>
      </trkpt>
      <trkpt lat="49.18694" lon="-0.63698">
        <ele>55.8</ele>
        <time>2023-05-25T12:45:47Z</time>
      </trkpt>
      <trkpt lat="49.18701" lon="-0.63709">
        <ele>56</ele>
        <time>2023-05-25T12:45:48Z</time>
      </trkpt>
      <trkpt lat="49.18707" lon="-0.6372">
        <ele>56.6</ele>
        <time>2023-05-25T12:45:49Z</time>
      </trkpt>
      <trkpt lat="49.18713" lon="-0.6373">
        <ele>57</ele>
        <time>2023-05-25T12:45:50Z</time>
      </trkpt>
      <trkpt lat="49.18719" lon="-0.63739">
        <ele>57.6</ele>
        <time>2023-05-25T12:45:51Z</time>
      </trkpt>
      <trkpt lat="49.18725" lon="-0.63748">
        <ele>58</ele>
        <time>2023-05-25T12:45:52Z</time>
      </trkpt>
      <trkpt lat="49.1873" lon="-0.63757">
        <ele>58.6</ele>
        <time>2023-05-25T12:45:53Z</time>
      </trkpt>
      <trkpt lat="49.18735" lon="-0.63765">
        <ele>59</ele>
        <time>2023-05-25T12:45:54Z</time>
      </trkpt>
      <trkpt lat="49.18739" lon="-0.63773">
        <ele>59.6</ele>
        <time>2023-05-25T12:45:55Z</time>
      </trkpt>
      <trkpt lat="49.18744" lon="-0.63781">
        <ele>60</ele>
        <time>2023-05-25T12:45:56Z</time>
      </trkpt>
      <trkpt lat="49.18749" lon="-0.63788">
        <ele>60.2</ele>
        <time>2023-05-25T12:45:57Z</time>
      </trkpt>
      <trkpt lat="49.18753" lon="-0.63796">
        <ele>60.8</ele>
        <time>2023-05-25T12:45:58Z</time>
      </trkpt>
      <trkpt lat="49.18758" lon="-0.63803">
        <ele>61.2</ele>
        <time>2023-05-25T12:45:59Z</time>
      </trkpt>
      <trkpt lat="49.18762" lon="-0.6381">
        <ele>61.6</ele>
        <time>2023-05-25T12:46:00Z</time>
      </trkpt>
      <trkpt lat="49.18767" lon="-0.63817">
        <ele>62</ele>
        <time>2023-05-25T12:46:01Z</time>
      </trkpt>
      <trkpt lat="49.18771" lon="-0.63823">
        <ele>62.4</ele>
        <time>2023-05-25T12:46:02Z</time>
      </trkpt>
      <trkpt lat="49.18776" lon="-0.6383">
        <ele>62.8</ele>
        <time>2023-05-25T12:46:03Z</time>
      </trkpt>
      <trkpt lat="49.1878" lon="-0.63836">
        <ele>63.2</ele>
        <time>2023-05-25T12:46:04Z</time>
      </trkpt>
      <trkpt lat="49.18783" lon="-0.63842">
        <ele>63.6</ele>
        <time>2023-05-25T12:46:05Z</time>
      </trkpt>
      <trkpt lat="49.18787" lon="-0.63847">
        <ele>64</ele>
        <time>2023-05-25T12:46:06Z</time>
      </trkpt>
      <trkpt lat="49.18791" lon="-0.63852">
        <ele>64.4</ele>
        <time>2023-05-25T12:46:07Z</time>
      </trkpt>
      <trkpt lat="49.18794" lon="-0.63857">
        <ele>64.6</ele>
        <time>2023-05-25T12:46:08Z</time>
      </trkpt>
      <trkpt lat="49.18798" lon="-0.63862">
        <ele>65</ele>
        <time>2023-05-25T12:46:09Z</time>
      </trkpt>
      <trkpt lat="49.18801" lon="-0.63867">
        <ele>65.2</ele>
        <time>2023-05-25T12:46:10Z</time>
      </trkpt>
      <trkpt lat="49.18805" lon="-0.63871">
        <ele>65.6</ele>
        <time>2023-05-25T12:46:11Z</time>
      </trkpt>
      <trkpt lat="49.18809" lon="-0.63876">
        <ele>65.8</ele>
        <time>2023-05-25T12:46:12Z</time>
      </trkpt>
      <trkpt lat="49.18812" lon="-0.63881">
        <ele>66</ele>
        <time>2023-05-25T12:46:13Z</time>
      </trkpt>
      <trkpt lat="49.18816" lon="-0.63885">
        <ele>66.4</ele>
        <time>2023-05-25T12:46:14Z</time>
      </trkpt>
      <trkpt lat="49.1882" lon="-0.63889">
        <ele>66.6</ele>
        <time>2023-05-25T12:46:15Z</time>
      </trkpt>
      <trkpt lat="49.18823" lon="-0.63893">
        <ele>67</ele>
        <time>2023-05-25T12:46:16Z</time>
      </trkpt>
      <trkpt lat="49.18827" lon="-0.63898">
        <ele>67</ele>
        <time>2023-05-25T12:46:17Z</time>
      </trkpt>
      <trkpt lat="49.18831" lon="-0.63901">
        <ele>67.4</ele>
        <time>2023-05-25T12:46:18Z</time>
      </trkpt>
      <trkpt lat="49.18834" lon="-0.63905">
        <ele>67.6</ele>
        <time>2023-05-25T12:46:19Z</time>
      </trkpt>
      <trkpt lat="49.18838" lon="-0.63908">
        <ele>67.8</ele>
        <time>2023-05-25T12:46:20Z</time>
      </trkpt>
      <trkpt lat="49.18842" lon="-0.63912">
        <ele>68</ele>
        <time>2023-05-25T12:46:21Z</time>
      </trkpt>
      <trkpt lat="49.18845" lon="-0.63915">
        <ele>68.2</ele>
        <time>2023-05-25T12:46:22Z</time>
      </trkpt>
      <trkpt lat="49.18849" lon="-0.63918">
        <ele>68.4</ele>
        <time>2023-05-25T12:46:23Z</time>
      </trkpt>
      <trkpt lat="49.18853" lon="-0.63921">
        <ele>68.6</ele>
        <time>2023-05-25T12:46:24Z</time>
      </trkpt>
      <trkpt lat="49.18857" lon="-0.63925">
        <ele>68.6</ele>
        <time>2023-05-25T12:46:25Z</time>
      </trkpt>
      <trkpt lat="49.1886" lon="-0.63928">
        <ele>68.8</ele>
        <time>2023-05-25T12:46:26Z</time>
      </trkpt>
      <trkpt lat="49.18864" lon="-0.63931">
        <ele>69</ele>
        <time>2023-05-25T12:46:27Z</time>
      </trkpt>
      <trkpt lat="49.18868" lon="-0.63933">
        <ele>69</ele>
        <time>2023-05-25T12:46:28Z</time>
      </trkpt>
      <trkpt lat="49.18872" lon="-0.63936">
        <ele>69.2</ele>
        <time>2023-05-25T12:46:29Z</time>
      </trkpt>
      <trkpt lat="49.18876" lon="-0.63939">
        <ele>69.4</ele>
        <time>2023-05-25T12:46:30Z</time>
      </trkpt>
      <trkpt lat="49.1888" lon="-0.63942">
        <ele>69.4</ele>
        <time>2023-05-25T12:46:31Z</time>
      </trkpt>
      <trkpt lat="49.18884" lon="-0.63944">
        <ele>69.6</ele>
        <time>2023-05-25T12:46:32Z</time>
      </trkpt>
      <trkpt lat="49.18888" lon="-0.63947">
        <ele>69.6</ele>
        <time>2023-05-25T12:46:33Z</time>
      </trkpt>
      <trkpt lat="49.18892" lon="-0.63949">
        <ele>69.6</ele>
        <time>2023-05-25T12:46:34Z</time>
      </trkpt>
      <trkpt lat="49.18896" lon="-0.63951">
        <ele>69.6</ele>
        <time>2023-05-25T12:46:35Z</time>
      </trkpt>
      <trkpt lat="49.189" lon="-0.63953">
        <ele>69.8</ele>
        <time>2023-05-25T12:46:36Z</time>
      </trkpt>
      <trkpt lat="49.18904" lon="-0.63955">
        <ele>69.8</ele>
        <time>2023-05-25T12:46:37Z</time>
      </trkpt>
      <trkpt lat="49.18908" lon="-0.63958">
        <ele>70</ele>
        <time>2023-05-25T12:46:38Z</time>
      </trkpt>
      <trkpt lat="49.18912" lon="-0.6396">
        <ele>70</ele>
        <time>2023-05-25T12:46:39Z</time>
      </trkpt>
      <trkpt lat="49.18916" lon="-0.63961">
        <ele>70</ele>
        <time>2023-05-25T12:46:40Z</time>
      </trkpt>
      <trkpt lat="49.1892" lon="-0.63964">
        <ele>70</ele>
        <time>2023-05-25T12:46:41Z</time>
      </trkpt>
      <trkpt lat="49.18925" lon="-0.63965">
        <ele>70</ele>
        <time>2023-05-25T12:46:42Z</time>
      </trkpt>
      <trkpt lat="49.18929" lon="-0.63967">
        <ele>70.2</ele>
        <time>2023-05-25T12:46:43Z</time>
      </trkpt>
      <trkpt lat="49.18933" lon="-0.63969">
        <ele>70.4</ele>
        <time>2023-05-25T12:46:44Z</time>
      </trkpt>
      <trkpt lat="49.18937" lon="-0.63971">
        <ele>70.4</ele>
        <time>2023-05-25T12:46:45Z</time>
      </trkpt>
      <trkpt lat="49.18941" lon="-0.63973">
        <ele>70.6</ele>
        <time>2023-05-25T12:46:46Z</time>
      </trkpt>
      <trkpt lat="49.18945" lon="-0.63975">
        <ele>70.6</ele>
        <time>2023-05-25T12:46:47Z</time>
      </trkpt>
      <trkpt lat="49.1895" lon="-0.63977">
        <ele>70.6</ele>
        <time>2023-05-25T12:46:48Z</time>
      </trkpt>
      <trkpt lat="49.18954" lon="-0.63979">
        <ele>70.8</ele>
        <time>2023-05-25T12:46:49Z</time>
      </trkpt>
      <trkpt lat="49.18958" lon="-0.63981">
        <ele>71</ele>
        <time>2023-05-25T12:46:50Z</time>
      </trkpt>
      <trkpt lat="49.18963" lon="-0.63984">
        <ele>71</ele>
        <time>2023-05-25T12:46:51Z</time>
      </trkpt>
      <trkpt lat="49.18967" lon="-0.63986">
        <ele>71</ele>
        <time>2023-05-25T12:46:52Z</time>
      </trkpt>
      <trkpt lat="49.18971" lon="-0.63988">
        <ele>71.2</ele>
        <time>2023-05-25T12:46:53Z</time>
      </trkpt>
      <trkpt lat="49.18976" lon="-0.6399">
        <ele>71.4</ele>
        <time>2023-05-25T12:46:54Z</time>
      </trkpt>
      <trkpt lat="49.1898" lon="-0.63992">
        <ele>71.4</ele>
        <time>2023-05-25T12:46:55Z</time>
      </trkpt>
      <trkpt lat="49.18985" lon="-0.63994">
        <ele>71.6</ele>
        <time>2023-05-25T12:46:56Z</time>
      </trkpt>
      <trkpt lat="49.18989" lon="-0.63996">
        <ele>71.6</ele>
        <time>2023-05-25T12:46:57Z</time>
      </trkpt>
      <trkpt lat="49.18993" lon="-0.63998">
        <ele>71.8</ele>
        <time>2023-05-25T12:46:58Z</time>
      </trkpt>
      <trkpt lat="49.18998" lon="-0.64001">
        <ele>72</ele>
        <time>2023-05-25T12:46:59Z</time>
      </trkpt>
      <trkpt lat="49.19002" lon="-0.64003">
        <ele>72</ele>
        <time>2023-05-25T12:47:00Z</time>
      </trkpt>
      <trkpt lat="49.19007" lon="-0.64005">
        <ele>72</ele>
        <time>2023-05-25T12:47:01Z</time>
      </trkpt>
      <trkpt lat="49.19011" lon="-0.64007">
        <ele>72</ele>
        <time>2023-05-25T12:47:02Z</time>
      </trkpt>
      <trkpt lat="49.19016" lon="-0.64009">
        <ele>72</ele>
        <time>2023-05-25T12:47:03Z</time>
      </trkpt>
      <trkpt lat="49.1902" lon="-0.64011">
        <ele>72</ele>
        <time>2023-05-25T12:47:04Z</time>
      </trkpt>
      <trkpt lat="49.19024" lon="-0.64013">
        <ele>72.2</ele>
        <time>2023-05-25T12:47:05Z</time>
      </trkpt>
      <trkpt lat="49.19029" lon="-0.64015">
        <ele>72.2</ele>
        <time>2023-05-25T12:47:06Z</time>
      </trkpt>
      <trkpt lat="49.19033" lon="-0.64017">
        <ele>72.2</ele>
        <time>2023-05-25T12:47:07Z</time>
      </trkpt>
      <trkpt lat="49.19038" lon="-0.6402">
        <ele>72.2</ele>
        <time>2023-05-25T12:47:08Z</time>
      </trkpt>
      <trkpt lat="49.19042" lon="-0.64022">
        <ele>72.4</ele>
        <time>2023-05-25T12:47:09Z</time>
      </trkpt>
      <trkpt lat="49.19047" lon="-0.64024">
        <ele>72.4</ele>
        <time>2023-05-25T12:47:10Z</time>
      </trkpt>
      <trkpt lat="49.19052" lon="-0.64026">
        <ele>72.4</ele>
        <time>2023-05-25T12:47:11Z</time>
      </trkpt>
      <trkpt lat="49.19056" lon="-0.64028">
        <ele>72.4</ele>
        <time>2023-05-25T12:47:12Z</time>
      </trkpt>
      <trkpt lat="49.19061" lon="-0.6403">
        <ele>72.4</ele>
        <time>2023-05-25T12:47:13Z</time>
      </trkpt>
      <trkpt lat="49.19066" lon="-0.64032">
        <ele>72.4</ele>
        <time>2023-05-25T12:47:14Z</time>
      </trkpt>
      <trkpt lat="49.1907" lon="-0.64034">
        <ele>72.4</ele>
        <time>2023-05-25T12:47:15Z</time>
      </trkpt>
      <trkpt lat="49.19075" lon="-0.64037">
        <ele>72.4</ele>
        <time>2023-05-25T12:47:16Z</time>
      </trkpt>
      <trkpt lat="49.19079" lon="-0.64039">
        <ele>72.6</ele>
        <time>2023-05-25T12:47:17Z</time>
      </trkpt>
      <trkpt lat="49.19084" lon="-0.64041">
        <ele>72.6</ele>
        <time>2023-05-25T12:47:18Z</time>
      </trkpt>
      <trkpt lat="49.19088" lon="-0.64043">
        <ele>72.6</ele>
        <time>2023-05-25T12:47:19Z</time>
      </trkpt>
      <trkpt lat="49.19093" lon="-0.64045">
        <ele>72.6</ele>
        <time>2023-05-25T12:47:20Z</time>
      </trkpt>
      <trkpt lat="49.19097" lon="-0.64047">
        <ele>72.8</ele>
        <time>2023-05-25T12:47:21Z</time>
      </trkpt>
      <trkpt lat="49.19102" lon="-0.6405">
        <ele>73</ele>
        <time>2023-05-25T12:47:22Z</time>
      </trkpt>
      <trkpt lat="49.19106" lon="-0.64052">
        <ele>73</ele>
        <time>2023-05-25T12:47:23Z</time>
      </trkpt>
      <trkpt lat="49.19111" lon="-0.64054">
        <ele>73.2</ele>
        <time>2023-05-25T12:47:24Z</time>
      </trkpt>
      <trkpt lat="49.19115" lon="-0.64056">
        <ele>73.4</ele>
        <time>2023-05-25T12:47:25Z</time>
      </trkpt>
      <trkpt lat="49.1912" lon="-0.64058">
        <ele>73.4</ele>
        <time>2023-05-25T12:47:26Z</time>
      </trkpt>
      <trkpt lat="49.19125" lon="-0.6406">
        <ele>73.6</ele>
        <time>2023-05-25T12:47:27Z</time>
      </trkpt>
      <trkpt lat="49.19129" lon="-0.64063">
        <ele>73.6</ele>
        <time>2023-05-25T12:47:28Z</time>
      </trkpt>
      <trkpt lat="49.19134" lon="-0.64065">
        <ele>74</ele>
        <time>2023-05-25T12:47:29Z</time>
      </trkpt>
      <trkpt lat="49.19139" lon="-0.64067">
        <ele>74</ele>
        <time>2023-05-25T12:47:30Z</time>
      </trkpt>
      <trkpt lat="49.19143" lon="-0.64069">
        <ele>74</ele>
        <time>2023-05-25T12:47:31Z</time>
      </trkpt>
      <trkpt lat="49.19148" lon="-0.64071">
        <ele>74.4</ele>
        <time>2023-05-25T12:47:32Z</time>
      </trkpt>
      <trkpt lat="49.19153" lon="-0.64073">
        <ele>74.4</ele>
        <time>2023-05-25T12:47:33Z</time>
      </trkpt>
      <trkpt lat="49.19158" lon="-0.64075">
        <ele>74.6</ele>
        <time>2023-05-25T12:47:34Z</time>
      </trkpt>
      <trkpt lat="49.19163" lon="-0.64078">
        <ele>74.8</ele>
        <time>2023-05-25T12:47:35Z</time>
      </trkpt>
      <trkpt lat="49.19168" lon="-0.64081">
        <ele>75</ele>
        <time>2023-05-25T12:47:36Z</time>
      </trkpt>
      <trkpt lat="49.19172" lon="-0.64083">
        <ele>74.8</ele>
        <time>2023-05-25T12:47:37Z</time>
      </trkpt>
      <trkpt lat="49.19177" lon="-0.64086">
        <ele>74.6</ele>
        <time>2023-05-25T12:47:38Z</time>
      </trkpt>
      <trkpt lat="49.19182" lon="-0.64088">
        <ele>74.4</ele>
        <time>2023-05-25T12:47:39Z</time>
      </trkpt>
      <trkpt lat="49.19187" lon="-0.64091">
        <ele>74.2</ele>
        <time>2023-05-25T12:47:40Z</time>
      </trkpt>
      <trkpt lat="49.19192" lon="-0.64093">
        <ele>74</ele>
        <time>2023-05-25T12:47:41Z</time>
      </trkpt>
      <trkpt lat="49.19197" lon="-0.64096">
        <ele>74</ele>
        <time>2023-05-25T12:47:42Z</time>
      </trkpt>
      <trkpt lat="49.19201" lon="-0.64098">
        <ele>73.8</ele>
        <time>2023-05-25T12:47:43Z</time>
      </trkpt>
      <trkpt lat="49.19207" lon="-0.64101">
        <ele>73.6</ele>
        <time>2023-05-25T12:47:44Z</time>
      </trkpt>
      <trkpt lat="49.19211" lon="-0.64103">
        <ele>73.6</ele>
        <time>2023-05-25T12:47:45Z</time>
      </trkpt>
      <trkpt lat="49.19217" lon="-0.64105">
        <ele>73.4</ele>
        <time>2023-05-25T12:47:46Z</time>
      </trkpt>
      <trkpt lat="49.19222" lon="-0.64107">
        <ele>73.4</ele>
        <time>2023-05-25T12:47:47Z</time>
      </trkpt>
      <trkpt lat="49.19227" lon="-0.64109">
        <ele>73.2</ele>
        <time>2023-05-25T12:47:48Z</time>
      </trkpt>
      <trkpt lat="49.19232" lon="-0.64112">
        <ele>73</ele>
        <time>2023-05-25T12:47:49Z</time>
      </trkpt>
      <trkpt lat="49.19237" lon="-0.64114">
        <ele>73</ele>
        <time>2023-05-25T12:47:50Z</time>
      </trkpt>
      <trkpt lat="49.19242" lon="-0.64117">
        <ele>73</ele>
        <time>2023-05-25T12:47:51Z</time>
      </trkpt>
      <trkpt lat="49.19247" lon="-0.64119">
        <ele>73</ele>
        <time>2023-05-25T12:47:52Z</time>
      </trkpt>
      <trkpt lat="49.19253" lon="-0.64122">
        <ele>73</ele>
        <time>2023-05-25T12:47:53Z</time>
      </trkpt>
      <trkpt lat="49.19258" lon="-0.64124">
        <ele>73</ele>
        <time>2023-05-25T12:47:54Z</time>
      </trkpt>
      <trkpt lat="49.19263" lon="-0.64127">
        <ele>73</ele>
        <time>2023-05-25T12:47:55Z</time>
      </trkpt>
      <trkpt lat="49.19268" lon="-0.64129">
        <ele>73</ele>
        <time>2023-05-25T12:47:56Z</time>
      </trkpt>
      <trkpt lat="49.19273" lon="-0.64132">
        <ele>73</ele>
        <time>2023-05-25T12:47:57Z</time>
      </trkpt>
      <trkpt lat="49.19278" lon="-0.64134">
        <ele>73</ele>
        <time>2023-05-25T12:47:58Z</time>
      </trkpt>
      <trkpt lat="49.19283" lon="-0.64136">
        <ele>73</ele>
        <time>2023-05-25T12:47:59Z</time>
      </trkpt>
      <trkpt lat="49.19288" lon="-0.64139">
        <ele>73</ele>
        <time>2023-05-25T12:48:00Z</time>
      </trkpt>
      <trkpt lat="49.19293" lon="-0.64141">
        <ele>73</ele>
        <time>2023-05-25T12:48:01Z</time>
      </trkpt>
      <trkpt lat="49.19299" lon="-0.64143">
        <ele>73</ele>
        <time>2023-05-25T12:48:02Z</time>
      </trkpt>
      <trkpt lat="49.19304" lon="-0.64146">
        <ele>73</ele>
        <time>2023-05-25T12:48:03Z</time>
      </trkpt>
      <trkpt lat="49.19309" lon="-0.64148">
        <ele>73</ele>
        <time>2023-05-25T12:48:04Z</time>
      </trkpt>
      <trkpt lat="49.19314" lon="-0.64151">
        <ele>73</ele>
        <time>2023-05-25T12:48:05Z</time>
      </trkpt>
      <trkpt lat="49.19319" lon="-0.64153">
        <ele>73</ele>
        <time>2023-05-25T12:48:06Z</time>
      </trkpt>
      <trkpt lat="49.19325" lon="-0.64156">
        <ele>73</ele>
        <time>2023-05-25T12:48:07Z</time>
      </trkpt>
      <trkpt lat="49.1933" lon="-0.64158">
        <ele>73</ele>
        <time>2023-05-25T12:48:08Z</time>
      </trkpt>
      <trkpt lat="49.19335" lon="-0.64161">
        <ele>73</ele>
        <time>2023-05-25T12:48:09Z</time>
      </trkpt>
      <trkpt lat="49.1934" lon="-0.64163">
        <ele>73</ele>
        <time>2023-05-25T12:48:10Z</time>
      </trkpt>
      <trkpt lat="49.19345" lon="-0.64165">
        <ele>73</ele>
        <time>2023-05-25T12:48:11Z</time>
      </trkpt>
      <trkpt lat="49.1935" lon="-0.64168">
        <ele>73</ele>
        <time>2023-05-25T12:48:12Z</time>
      </trkpt>
      <trkpt lat="49.19355" lon="-0.6417">
        <ele>73</ele>
        <time>2023-05-25T12:48:13Z</time>
      </trkpt>
      <trkpt lat="49.1936" lon="-0.64173">
        <ele>73</ele>
        <time>2023-05-25T12:48:14Z</time>
      </trkpt>
      <trkpt lat="49.19365" lon="-0.64175">
        <ele>73</ele>
        <time>2023-05-25T12:48:15Z</time>
      </trkpt>
      <trkpt lat="49.1937" lon="-0.64178">
        <ele>73</ele>
        <time>2023-05-25T12:48:16Z</time>
      </trkpt>
      <trkpt lat="49.19375" lon="-0.6418">
        <ele>73.2</ele>
        <time>2023-05-25T12:48:17Z</time>
      </trkpt>
      <trkpt lat="49.19381" lon="-0.64182">
        <ele>73.2</ele>
        <time>2023-05-25T12:48:18Z</time>
      </trkpt>
      <trkpt lat="49.19386" lon="-0.64185">
        <ele>73.2</ele>
        <time>2023-05-25T12:48:19Z</time>
      </trkpt>
      <trkpt lat="49.19391" lon="-0.64187">
        <ele>73.2</ele>
        <time>2023-05-25T12:48:20Z</time>
      </trkpt>
      <trkpt lat="49.19396" lon="-0.64189">
        <ele>73.4</ele>
        <time>2023-05-25T12:48:21Z</time>
      </trkpt>
      <trkpt lat="49.19401" lon="-0.64192">
        <ele>73.4</ele>
        <time>2023-05-25T12:48:22Z</time>
      </trkpt>
      <trkpt lat="49.19406" lon="-0.64194">
        <ele>73.4</ele>
        <time>2023-05-25T12:48:23Z</time>
      </trkpt>
      <trkpt lat="49.19411" lon="-0.64197">
        <ele>73.4</ele>
        <time>2023-05-25T12:48:24Z</time>
      </trkpt>
      <trkpt lat="49.19417" lon="-0.64199">
        <ele>73.4</ele>
        <time>2023-05-25T12:48:25Z</time>
      </trkpt>
      <trkpt lat="49.19422" lon="-0.64201">
        <ele>73.4</ele>
        <time>2023-05-25T12:48:26Z</time>
      </trkpt>
      <trkpt lat="49.19427" lon="-0.64204">
        <ele>73.6</ele>
        <time>2023-05-25T12:48:27Z</time>
      </trkpt>
      <trkpt lat="49.19433" lon="-0.64206">
        <ele>73.6</ele>
        <time>2023-05-25T12:48:28Z</time>
      </trkpt>
      <trkpt lat="49.19438" lon="-0.64209">
        <ele>73.6</ele>
        <time>2023-05-25T12:48:29Z</time>
      </trkpt>
      <trkpt lat="49.19444" lon="-0.64211">
        <ele>73.6</ele>
        <time>2023-05-25T12:48:30Z</time>
      </trkpt>
      <trkpt lat="49.19449" lon="-0.64214">
        <ele>73.8</ele>
        <time>2023-05-25T12:48:31Z</time>
      </trkpt>
      <trkpt lat="49.19455" lon="-0.64217">
        <ele>74</ele>
        <time>2023-05-25T12:48:32Z</time>
      </trkpt>
      <trkpt lat="49.1946" lon="-0.64219">
        <ele>74</ele>
        <time>2023-05-25T12:48:33Z</time>
      </trkpt>
      <trkpt lat="49.19466" lon="-0.64222">
        <ele>74</ele>
        <time>2023-05-25T12:48:34Z</time>
      </trkpt>
      <trkpt lat="49.19472" lon="-0.64225">
        <ele>74.2</ele>
        <time>2023-05-25T12:48:35Z</time>
      </trkpt>
      <trkpt lat="49.19477" lon="-0.64227">
        <ele>74.4</ele>
        <time>2023-05-25T12:48:36Z</time>
      </trkpt>
      <trkpt lat="49.19483" lon="-0.6423">
        <ele>74.4</ele>
        <time>2023-05-25T12:48:37Z</time>
      </trkpt>
      <trkpt lat="49.19489" lon="-0.64233">
        <ele>74.6</ele>
        <time>2023-05-25T12:48:38Z</time>
      </trkpt>
      <trkpt lat="49.19495" lon="-0.64236">
        <ele>74.6</ele>
        <time>2023-05-25T12:48:39Z</time>
      </trkpt>
      <trkpt lat="49.19501" lon="-0.64239">
        <ele>74.6</ele>
        <time>2023-05-25T12:48:40Z</time>
      </trkpt>
      <trkpt lat="49.19507" lon="-0.64241">
        <ele>74.6</ele>
        <time>2023-05-25T12:48:41Z</time>
      </trkpt>
      <trkpt lat="49.19513" lon="-0.64244">
        <ele>74.6</ele>
        <time>2023-05-25T12:48:42Z</time>
      </trkpt>
      <trkpt lat="49.19519" lon="-0.64247">
        <ele>74.6</ele>
        <time>2023-05-25T12:48:43Z</time>
      </trkpt>
      <trkpt lat="49.19524" lon="-0.6425">
        <ele>74.4</ele>
        <time>2023-05-25T12:48:44Z</time>
      </trkpt>
      <trkpt lat="49.1953" lon="-0.64253">
        <ele>74.2</ele>
        <time>2023-05-25T12:48:45Z</time>
      </trkpt>
      <trkpt lat="49.19536" lon="-0.64255">
        <ele>74</ele>
        <time>2023-05-25T12:48:46Z</time>
      </trkpt>
      <trkpt lat="49.19542" lon="-0.64258">
        <ele>74</ele>
        <time>2023-05-25T12:48:47Z</time>
      </trkpt>
      <trkpt lat="49.19548" lon="-0.64261">
        <ele>73.8</ele>
        <time>2023-05-25T12:48:48Z</time>
      </trkpt>
      <trkpt lat="49.19554" lon="-0.64264">
        <ele>73.6</ele>
        <time>2023-05-25T12:48:49Z</time>
      </trkpt>
      <trkpt lat="49.1956" lon="-0.64266">
        <ele>73.6</ele>
        <time>2023-05-25T12:48:50Z</time>
      </trkpt>
      <trkpt lat="49.19566" lon="-0.64269">
        <ele>73.4</ele>
        <time>2023-05-25T12:48:51Z</time>
      </trkpt>
      <trkpt lat="49.19572" lon="-0.64272">
        <ele>73.2</ele>
        <time>2023-05-25T12:48:52Z</time>
      </trkpt>
      <trkpt lat="49.19578" lon="-0.64275">
        <ele>73</ele>
        <time>2023-05-25T12:48:53Z</time>
      </trkpt>
      <trkpt lat="49.19583" lon="-0.64277">
        <ele>73</ele>
        <time>2023-05-25T12:48:54Z</time>
      </trkpt>
      <trkpt lat="49.19589" lon="-0.6428">
        <ele>72.8</ele>
        <time>2023-05-25T12:48:55Z</time>
      </trkpt>
      <trkpt lat="49.19595" lon="-0.64283">
        <ele>72.6</ele>
        <time>2023-05-25T12:48:56Z</time>
      </trkpt>
      <trkpt lat="49.196" lon="-0.64286">
        <ele>72.4</ele>
        <time>2023-05-25T12:48:57Z</time>
      </trkpt>
      <trkpt lat="49.19606" lon="-0.64288">
        <ele>72.2</ele>
        <time>2023-05-25T12:48:58Z</time>
      </trkpt>
      <trkpt lat="49.19611" lon="-0.64291">
        <ele>72</ele>
        <time>2023-05-25T12:48:59Z</time>
      </trkpt>
      <trkpt lat="49.19616" lon="-0.64294">
        <ele>71.8</ele>
        <time>2023-05-25T12:49:00Z</time>
      </trkpt>
      <trkpt lat="49.19622" lon="-0.64296">
        <ele>71.6</ele>
        <time>2023-05-25T12:49:01Z</time>
      </trkpt>
      <trkpt lat="49.19627" lon="-0.64299">
        <ele>71.4</ele>
        <time>2023-05-25T12:49:02Z</time>
      </trkpt>
      <trkpt lat="49.19632" lon="-0.64302">
        <ele>71.2</ele>
        <time>2023-05-25T12:49:03Z</time>
      </trkpt>
      <trkpt lat="49.19637" lon="-0.64307">
        <ele>71</ele>
        <time>2023-05-25T12:49:04Z</time>
      </trkpt>
      <trkpt lat="49.1964" lon="-0.64314">
        <ele>71</ele>
        <time>2023-05-25T12:49:05Z</time>
      </trkpt>
      <trkpt lat="49.19641" lon="-0.64322">
        <ele>71</ele>
        <time>2023-05-25T12:49:06Z</time>
      </trkpt>
      <trkpt lat="49.19641" lon="-0.6433">
        <ele>71</ele>
        <time>2023-05-25T12:49:07Z</time>
      </trkpt>
      <trkpt lat="49.1964" lon="-0.64339">
        <ele>71</ele>
        <time>2023-05-25T12:49:08Z</time>
      </trkpt>
      <trkpt lat="49.19638" lon="-0.64348">
        <ele>71</ele>
        <time>2023-05-25T12:49:09Z</time>
      </trkpt>
      <trkpt lat="49.19637" lon="-0.64356">
        <ele>71</ele>
        <time>2023-05-25T12:49:10Z</time>
      </trkpt>
      <trkpt lat="49.19636" lon="-0.64365">
        <ele>71</ele>
        <time>2023-05-25T12:49:11Z</time>
      </trkpt>
      <trkpt lat="49.19635" lon="-0.64374">
        <ele>71</ele>
        <time>2023-05-25T12:49:12Z</time>
      </trkpt>
      <trkpt lat="49.19635" lon="-0.64383">
        <ele>71</ele>
        <time>2023-05-25T12:49:13Z</time>
      </trkpt>
      <trkpt lat="49.19635" lon="-0.64392">
        <ele>71</ele>
        <time>2023-05-25T12:49:14Z</time>
      </trkpt>
      <trkpt lat="49.19635" lon="-0.64402">
        <ele>71</ele>
        <time>2023-05-25T12:49:15Z</time>
      </trkpt>
      <trkpt lat="49.19635" lon="-0.64412">
        <ele>71</ele>
        <time>2023-05-25T12:49:16Z</time>
      </trkpt>
      <trkpt lat="49.19635" lon="-0.64422">
        <ele>70.8</ele>
        <time>2023-05-25T12:49:17Z</time>
      </trkpt>
      <trkpt lat="49.19635" lon="-0.64432">
        <ele>70.6</ele>
        <time>2023-05-25T12:49:18Z</time>
      </trkpt>
      <trkpt lat="49.19635" lon="-0.64443">
        <ele>70.4</ele>
        <time>2023-05-25T12:49:19Z</time>
      </trkpt>
      <trkpt lat="49.19635" lon="-0.64453">
        <ele>70</ele>
        <time>2023-05-25T12:49:20Z</time>
      </trkpt>
      <trkpt lat="49.19635" lon="-0.64464">
        <ele>69.6</ele>
        <time>2023-05-25T12:49:21Z</time>
      </trkpt>
      <trkpt lat="49.19636" lon="-0.64475">
        <ele>69.6</ele>
        <time>2023-05-25T12:49:22Z</time>
      </trkpt>
      <trkpt lat="49.19636" lon="-0.64486">
        <ele>69.2</ele>
        <time>2023-05-25T12:49:23Z</time>
      </trkpt>
      <trkpt lat="49.19636" lon="-0.64497">
        <ele>69</ele>
        <time>2023-05-25T12:49:24Z</time>
      </trkpt>
      <trkpt lat="49.19636" lon="-0.64509">
        <ele>68.6</ele>
        <time>2023-05-25T12:49:25Z</time>
      </trkpt>
      <trkpt lat="49.19637" lon="-0.6452">
        <ele>68.4</ele>
        <time>2023-05-25T12:49:26Z</time>
      </trkpt>
      <trkpt lat="49.19637" lon="-0.64532">
        <ele>68</ele>
        <time>2023-05-25T12:49:27Z</time>
      </trkpt>
      <trkpt lat="49.19637" lon="-0.64543">
        <ele>67.6</ele>
        <time>2023-05-25T12:49:28Z</time>
      </trkpt>
      <trkpt lat="49.19638" lon="-0.64554">
        <ele>67.4</ele>
        <time>2023-05-25T12:49:29Z</time>
      </trkpt>
      <trkpt lat="49.19638" lon="-0.64566">
        <ele>67</ele>
        <time>2023-05-25T12:49:30Z</time>
      </trkpt>
      <trkpt lat="49.19638" lon="-0.64577">
        <ele>67</ele>
        <time>2023-05-25T12:49:31Z</time>
      </trkpt>
      <trkpt lat="49.19639" lon="-0.64589">
        <ele>66.6</ele>
        <time>2023-05-25T12:49:32Z</time>
      </trkpt>
      <trkpt lat="49.19639" lon="-0.646">
        <ele>66.2</ele>
        <time>2023-05-25T12:49:33Z</time>
      </trkpt>
      <trkpt lat="49.19639" lon="-0.64611">
        <ele>65.8</ele>
        <time>2023-05-25T12:49:34Z</time>
      </trkpt>
      <trkpt lat="49.1964" lon="-0.64623">
        <ele>65.6</ele>
        <time>2023-05-25T12:49:35Z</time>
      </trkpt>
      <trkpt lat="49.1964" lon="-0.64634">
        <ele>65</ele>
        <time>2023-05-25T12:49:36Z</time>
      </trkpt>
      <trkpt lat="49.19641" lon="-0.64646">
        <ele>64.8</ele>
        <time>2023-05-25T12:49:37Z</time>
      </trkpt>
      <trkpt lat="49.19642" lon="-0.64657">
        <ele>64.4</ele>
        <time>2023-05-25T12:49:38Z</time>
      </trkpt>
      <trkpt lat="49.19642" lon="-0.64668">
        <ele>64</ele>
        <time>2023-05-25T12:49:39Z</time>
      </trkpt>
      <trkpt lat="49.19643" lon="-0.6468">
        <ele>64.2</ele>
        <time>2023-05-25T12:49:40Z</time>
      </trkpt>
      <trkpt lat="49.19644" lon="-0.64691">
        <ele>64.4</ele>
        <time>2023-05-25T12:49:41Z</time>
      </trkpt>
      <trkpt lat="49.19645" lon="-0.64702">
        <ele>64.6</ele>
        <time>2023-05-25T12:49:42Z</time>
      </trkpt>
      <trkpt lat="49.19646" lon="-0.64713">
        <ele>64.6</ele>
        <time>2023-05-25T12:49:43Z</time>
      </trkpt>
      <trkpt lat="49.19648" lon="-0.64725">
        <ele>64.8</ele>
        <time>2023-05-25T12:49:44Z</time>
      </trkpt>
      <trkpt lat="49.19649" lon="-0.64735">
        <ele>65</ele>
        <time>2023-05-25T12:49:45Z</time>
      </trkpt>
      <trkpt lat="49.1965" lon="-0.64746">
        <ele>65</ele>
        <time>2023-05-25T12:49:46Z</time>
      </trkpt>
      <trkpt lat="49.19652" lon="-0.64756">
        <ele>65</ele>
        <time>2023-05-25T12:49:47Z</time>
      </trkpt>
      <trkpt lat="49.19653" lon="-0.64766">
        <ele>65</ele>
        <time>2023-05-25T12:49:48Z</time>
      </trkpt>
      <trkpt lat="49.19655" lon="-0.64776">
        <ele>65</ele>
        <time>2023-05-25T12:49:49Z</time>
      </trkpt>
      <trkpt lat="49.19656" lon="-0.64786">
        <ele>65</ele>
        <time>2023-05-25T12:49:50Z</time>
      </trkpt>
      <trkpt lat="49.19658" lon="-0.64796">
        <ele>65</ele>
        <time>2023-05-25T12:49:51Z</time>
      </trkpt>
      <trkpt lat="49.19659" lon="-0.64805">
        <ele>65</ele>
        <time>2023-05-25T12:49:52Z</time>
      </trkpt>
      <trkpt lat="49.19661" lon="-0.64814">
        <ele>65</ele>
        <time>2023-05-25T12:49:53Z</time>
      </trkpt>
      <trkpt lat="49.19663" lon="-0.64824">
        <ele>65</ele>
        <time>2023-05-25T12:49:54Z</time>
      </trkpt>
      <trkpt lat="49.19664" lon="-0.64833">
        <ele>65</ele>
        <time>2023-05-25T12:49:55Z</time>
      </trkpt>
      <trkpt lat="49.19666" lon="-0.64842">
        <ele>65.2</ele>
        <time>2023-05-25T12:49:56Z</time>
      </trkpt>
      <trkpt lat="49.19668" lon="-0.6485">
        <ele>65.4</ele>
        <time>2023-05-25T12:49:57Z</time>
      </trkpt>
      <trkpt lat="49.19669" lon="-0.64859">
        <ele>65.4</ele>
        <time>2023-05-25T12:49:58Z</time>
      </trkpt>
      <trkpt lat="49.19671" lon="-0.64867">
        <ele>65.6</ele>
        <time>2023-05-25T12:49:59Z</time>
      </trkpt>
      <trkpt lat="49.19673" lon="-0.64876">
        <ele>65.6</ele>
        <time>2023-05-25T12:50:00Z</time>
      </trkpt>
      <trkpt lat="49.19674" lon="-0.64884">
        <ele>65.8</ele>
        <time>2023-05-25T12:50:01Z</time>
      </trkpt>
      <trkpt lat="49.19676" lon="-0.64892">
        <ele>66</ele>
        <time>2023-05-25T12:50:02Z</time>
      </trkpt>
      <trkpt lat="49.19677" lon="-0.64899">
        <ele>66</ele>
        <time>2023-05-25T12:50:03Z</time>
      </trkpt>
      <trkpt lat="49.19679" lon="-0.64907">
        <ele>66</ele>
        <time>2023-05-25T12:50:04Z</time>
      </trkpt>
      <trkpt lat="49.1968" lon="-0.64915">
        <ele>66</ele>
        <time>2023-05-25T12:50:05Z</time>
      </trkpt>
      <trkpt lat="49.19682" lon="-0.64922">
        <ele>66</ele>
        <time>2023-05-25T12:50:06Z</time>
      </trkpt>
      <trkpt lat="49.19683" lon="-0.6493">
        <ele>66</ele>
        <time>2023-05-25T12:50:07Z</time>
      </trkpt>
      <trkpt lat="49.19684" lon="-0.64938">
        <ele>66</ele>
        <time>2023-05-25T12:50:08Z</time>
      </trkpt>
      <trkpt lat="49.19685" lon="-0.64946">
        <ele>66</ele>
        <time>2023-05-25T12:50:09Z</time>
      </trkpt>
      <trkpt lat="49.19686" lon="-0.64955">
        <ele>66</ele>
        <time>2023-05-25T12:50:10Z</time>
      </trkpt>
      <trkpt lat="49.19687" lon="-0.64963">
        <ele>66</ele>
        <time>2023-05-25T12:50:11Z</time>
      </trkpt>
      <trkpt lat="49.19688" lon="-0.64972">
        <ele>66</ele>
        <time>2023-05-25T12:50:12Z</time>
      </trkpt>
      <trkpt lat="49.19688" lon="-0.64981">
        <ele>66</ele>
        <time>2023-05-25T12:50:13Z</time>
      </trkpt>
      <trkpt lat="49.19688" lon="-0.64989">
        <ele>66</ele>
        <time>2023-05-25T12:50:14Z</time>
      </trkpt>
      <trkpt lat="49.19689" lon="-0.64998">
        <ele>66</ele>
        <time>2023-05-25T12:50:15Z</time>
      </trkpt>
      <trkpt lat="49.19689" lon="-0.65007">
        <ele>66</ele>
        <time>2023-05-25T12:50:16Z</time>
      </trkpt>
      <trkpt lat="49.19689" lon="-0.65015">
        <ele>66</ele>
        <time>2023-05-25T12:50:17Z</time>
      </trkpt>
      <trkpt lat="49.19689" lon="-0.65024">
        <ele>66</ele>
        <time>2023-05-25T12:50:18Z</time>
      </trkpt>
      <trkpt lat="49.1969" lon="-0.65034">
        <ele>66</ele>
        <time>2023-05-25T12:50:19Z</time>
      </trkpt>
      <trkpt lat="49.1969" lon="-0.65043">
        <ele>66</ele>
        <time>2023-05-25T12:50:20Z</time>
      </trkpt>
      <trkpt lat="49.1969" lon="-0.65052">
        <ele>66</ele>
        <time>2023-05-25T12:50:21Z</time>
      </trkpt>
      <trkpt lat="49.19691" lon="-0.65061">
        <ele>66</ele>
        <time>2023-05-25T12:50:22Z</time>
      </trkpt>
      <trkpt lat="49.19692" lon="-0.6507">
        <ele>66</ele>
        <time>2023-05-25T12:50:23Z</time>
      </trkpt>
      <trkpt lat="49.19694" lon="-0.65077">
        <ele>66</ele>
        <time>2023-05-25T12:50:24Z</time>
      </trkpt>
      <trkpt lat="49.19697" lon="-0.65082">
        <ele>66</ele>
        <time>2023-05-25T12:50:25Z</time>
      </trkpt>
      <trkpt lat="49.19702" lon="-0.65086">
        <ele>65.8</ele>
        <time>2023-05-25T12:50:26Z</time>
      </trkpt>
      <trkpt lat="49.19707" lon="-0.65089">
        <ele>65.6</ele>
        <time>2023-05-25T12:50:27Z</time>
      </trkpt>
      <trkpt lat="49.19713" lon="-0.65092">
        <ele>65.6</ele>
        <time>2023-05-25T12:50:28Z</time>
      </trkpt>
      <trkpt lat="49.19719" lon="-0.65095">
        <ele>65.4</ele>
        <time>2023-05-25T12:50:29Z</time>
      </trkpt>
      <trkpt lat="49.19725" lon="-0.65098">
        <ele>65.4</ele>
        <time>2023-05-25T12:50:30Z</time>
      </trkpt>
      <trkpt lat="49.19732" lon="-0.65101">
        <ele>65</ele>
        <time>2023-05-25T12:50:31Z</time>
      </trkpt>
      <trkpt lat="49.19739" lon="-0.65104">
        <ele>65</ele>
        <time>2023-05-25T12:50:32Z</time>
      </trkpt>
      <trkpt lat="49.19746" lon="-0.65107">
        <ele>64.6</ele>
        <time>2023-05-25T12:50:33Z</time>
      </trkpt>
      <trkpt lat="49.19753" lon="-0.6511">
        <ele>64.6</ele>
        <time>2023-05-25T12:50:34Z</time>
      </trkpt>
      <trkpt lat="49.1976" lon="-0.65112">
        <ele>65</ele>
        <time>2023-05-25T12:50:35Z</time>
      </trkpt>
      <trkpt lat="49.19767" lon="-0.65114">
        <ele>65</ele>
        <time>2023-05-25T12:50:36Z</time>
      </trkpt>
      <trkpt lat="49.19774" lon="-0.65116">
        <ele>65.2</ele>
        <time>2023-05-25T12:50:37Z</time>
      </trkpt>
      <trkpt lat="49.19781" lon="-0.65118">
        <ele>65.4</ele>
        <time>2023-05-25T12:50:38Z</time>
      </trkpt>
      <trkpt lat="49.19788" lon="-0.6512">
        <ele>65.6</ele>
        <time>2023-05-25T12:50:39Z</time>
      </trkpt>
      <trkpt lat="49.19795" lon="-0.65122">
        <ele>65.8</ele>
        <time>2023-05-25T12:50:40Z</time>
      </trkpt>
      <trkpt lat="49.19802" lon="-0.65124">
        <ele>66</ele>
        <time>2023-05-25T12:50:41Z</time>
      </trkpt>
      <trkpt lat="49.19809" lon="-0.65127">
        <ele>66</ele>
        <time>2023-05-25T12:50:42Z</time>
      </trkpt>
      <trkpt lat="49.19816" lon="-0.6513">
        <ele>66.4</ele>
        <time>2023-05-25T12:50:43Z</time>
      </trkpt>
      <trkpt lat="49.19822" lon="-0.65133">
        <ele>66.4</ele>
        <time>2023-05-25T12:50:44Z</time>
      </trkpt>
      <trkpt lat="49.19829" lon="-0.65136">
        <ele>66.6</ele>
        <time>2023-05-25T12:50:45Z</time>
      </trkpt>
      <trkpt lat="49.19835" lon="-0.65138">
        <ele>66.6</ele>
        <time>2023-05-25T12:50:46Z</time>
      </trkpt>
      <trkpt lat="49.19841" lon="-0.65141">
        <ele>67</ele>
        <time>2023-05-25T12:50:47Z</time>
      </trkpt>
      <trkpt lat="49.19846" lon="-0.65143">
        <ele>67</ele>
        <time>2023-05-25T12:50:48Z</time>
      </trkpt>
      <trkpt lat="49.19852" lon="-0.65145">
        <ele>67.4</ele>
        <time>2023-05-25T12:50:49Z</time>
      </trkpt>
      <trkpt lat="49.19857" lon="-0.65147">
        <ele>67.6</ele>
        <time>2023-05-25T12:50:50Z</time>
      </trkpt>
      <trkpt lat="49.19861" lon="-0.65149">
        <ele>67.6</ele>
        <time>2023-05-25T12:50:51Z</time>
      </trkpt>
      <trkpt lat="49.19866" lon="-0.65151">
        <ele>67.6</ele>
        <time>2023-05-25T12:50:52Z</time>
      </trkpt>
      <trkpt lat="49.19871" lon="-0.65153">
        <ele>68</ele>
        <time>2023-05-25T12:50:53Z</time>
      </trkpt>
      <trkpt lat="49.19875" lon="-0.65155">
        <ele>68</ele>
        <time>2023-05-25T12:50:54Z</time>
      </trkpt>
      <trkpt lat="49.19879" lon="-0.65157">
        <ele>68</ele>
        <time>2023-05-25T12:50:55Z</time>
      </trkpt>
      <trkpt lat="49.19883" lon="-0.65159">
        <ele>68.2</ele>
        <time>2023-05-25T12:50:56Z</time>
      </trkpt>
      <trkpt lat="49.19887" lon="-0.65161">
        <ele>68.4</ele>
        <time>2023-05-25T12:50:57Z</time>
      </trkpt>
      <trkpt lat="49.1989" lon="-0.65163">
        <ele>68.4</ele>
        <time>2023-05-25T12:50:58Z</time>
      </trkpt>
      <trkpt lat="49.19894" lon="-0.65165">
        <ele>68.6</ele>
        <time>2023-05-25T12:50:59Z</time>
      </trkpt>
      <trkpt lat="49.19898" lon="-0.65166">
        <ele>68.6</ele>
        <time>2023-05-25T12:51:00Z</time>
      </trkpt>
      <trkpt lat="49.19902" lon="-0.65167">
        <ele>68.6</ele>
        <time>2023-05-25T12:51:01Z</time>
      </trkpt>
      <trkpt lat="49.19906" lon="-0.65169">
        <ele>68.8</ele>
        <time>2023-05-25T12:51:02Z</time>
      </trkpt>
      <trkpt lat="49.19909" lon="-0.6517">
        <ele>69</ele>
        <time>2023-05-25T12:51:03Z</time>
      </trkpt>
      <trkpt lat="49.19913" lon="-0.65172">
        <ele>69</ele>
        <time>2023-05-25T12:51:04Z</time>
      </trkpt>
      <trkpt lat="49.19917" lon="-0.65173">
        <ele>69</ele>
        <time>2023-05-25T12:51:05Z</time>
      </trkpt>
      <trkpt lat="49.19921" lon="-0.65175">
        <ele>69.2</ele>
        <time>2023-05-25T12:51:06Z</time>
      </trkpt>
      <trkpt lat="49.19924" lon="-0.65178">
        <ele>69.4</ele>
        <time>2023-05-25T12:51:07Z</time>
      </trkpt>
      <trkpt lat="49.19927" lon="-0.65181">
        <ele>69.4</ele>
        <time>2023-05-25T12:51:08Z</time>
      </trkpt>
      <trkpt lat="49.19931" lon="-0.65184">
        <ele>69.6</ele>
        <time>2023-05-25T12:51:09Z</time>
      </trkpt>
      <trkpt lat="49.19934" lon="-0.65187">
        <ele>69.6</ele>
        <time>2023-05-25T12:51:10Z</time>
      </trkpt>
      <trkpt lat="49.19937" lon="-0.65191">
        <ele>69.6</ele>
        <time>2023-05-25T12:51:11Z</time>
      </trkpt>
      <trkpt lat="49.1994" lon="-0.65194">
        <ele>69.8</ele>
        <time>2023-05-25T12:51:12Z</time>
      </trkpt>
      <trkpt lat="49.19943" lon="-0.65198">
        <ele>70</ele>
        <time>2023-05-25T12:51:13Z</time>
      </trkpt>
      <trkpt lat="49.19946" lon="-0.65201">
        <ele>70</ele>
        <time>2023-05-25T12:51:14Z</time>
      </trkpt>
      <trkpt lat="49.19949" lon="-0.65204">
        <ele>70</ele>
        <time>2023-05-25T12:51:15Z</time>
      </trkpt>
      <trkpt lat="49.19953" lon="-0.65207">
        <ele>70</ele>
        <time>2023-05-25T12:51:16Z</time>
      </trkpt>
      <trkpt lat="49.19956" lon="-0.65211">
        <ele>70.2</ele>
        <time>2023-05-25T12:51:17Z</time>
      </trkpt>
      <trkpt lat="49.19959" lon="-0.65214">
        <ele>70.4</ele>
        <time>2023-05-25T12:51:18Z</time>
      </trkpt>
      <trkpt lat="49.19963" lon="-0.65217">
        <ele>70.4</ele>
        <time>2023-05-25T12:51:19Z</time>
      </trkpt>
      <trkpt lat="49.19966" lon="-0.65221">
        <ele>70.4</ele>
        <time>2023-05-25T12:51:20Z</time>
      </trkpt>
      <trkpt lat="49.19969" lon="-0.65224">
        <ele>70.6</ele>
        <time>2023-05-25T12:51:21Z</time>
      </trkpt>
      <trkpt lat="49.19972" lon="-0.65228">
        <ele>70.6</ele>
        <time>2023-05-25T12:51:22Z</time>
      </trkpt>
      <trkpt lat="49.19976" lon="-0.65231">
        <ele>70.6</ele>
        <time>2023-05-25T12:51:23Z</time>
      </trkpt>
      <trkpt lat="49.19979" lon="-0.65235">
        <ele>70.6</ele>
        <time>2023-05-25T12:51:24Z</time>
      </trkpt>
      <trkpt lat="49.19982" lon="-0.65239">
        <ele>70.8</ele>
        <time>2023-05-25T12:51:25Z</time>
      </trkpt>
      <trkpt lat="49.19985" lon="-0.65243">
        <ele>70.8</ele>
        <time>2023-05-25T12:51:26Z</time>
      </trkpt>
      <trkpt lat="49.19988" lon="-0.65247">
        <ele>71</ele>
        <time>2023-05-25T12:51:27Z</time>
      </trkpt>
      <trkpt lat="49.19991" lon="-0.65252">
        <ele>71</ele>
        <time>2023-05-25T12:51:28Z</time>
      </trkpt>
      <trkpt lat="49.19994" lon="-0.65256">
        <ele>71</ele>
        <time>2023-05-25T12:51:29Z</time>
      </trkpt>
      <trkpt lat="49.19997" lon="-0.6526">
        <ele>71</ele>
        <time>2023-05-25T12:51:30Z</time>
      </trkpt>
      <trkpt lat="49.2" lon="-0.65265">
        <ele>71.2</ele>
        <time>2023-05-25T12:51:31Z</time>
      </trkpt>
      <trkpt lat="49.20003" lon="-0.6527">
        <ele>71.4</ele>
        <time>2023-05-25T12:51:32Z</time>
      </trkpt>
      <trkpt lat="49.20006" lon="-0.65274">
        <ele>71.6</ele>
        <time>2023-05-25T12:51:33Z</time>
      </trkpt>
      <trkpt lat="49.20009" lon="-0.65279">
        <ele>71.6</ele>
        <time>2023-05-25T12:51:34Z</time>
      </trkpt>
      <trkpt lat="49.20012" lon="-0.65284">
        <ele>71.8</ele>
        <time>2023-05-25T12:51:35Z</time>
      </trkpt>
      <trkpt lat="49.20015" lon="-0.65289">
        <ele>72</ele>
        <time>2023-05-25T12:51:36Z</time>
      </trkpt>
      <trkpt lat="49.20018" lon="-0.65294">
        <ele>72</ele>
        <time>2023-05-25T12:51:37Z</time>
      </trkpt>
      <trkpt lat="49.20021" lon="-0.65299">
        <ele>72.2</ele>
        <time>2023-05-25T12:51:38Z</time>
      </trkpt>
      <trkpt lat="49.20024" lon="-0.65304">
        <ele>72.4</ele>
        <time>2023-05-25T12:51:39Z</time>
      </trkpt>
      <trkpt lat="49.20027" lon="-0.65309">
        <ele>72.4</ele>
        <time>2023-05-25T12:51:40Z</time>
      </trkpt>
      <trkpt lat="49.20029" lon="-0.65314">
        <ele>72.6</ele>
        <time>2023-05-25T12:51:41Z</time>
      </trkpt>
      <trkpt lat="49.20032" lon="-0.65319">
        <ele>72.6</ele>
        <time>2023-05-25T12:51:42Z</time>
      </trkpt>
      <trkpt lat="49.20035" lon="-0.65324">
        <ele>72.8</ele>
        <time>2023-05-25T12:51:43Z</time>
      </trkpt>
      <trkpt lat="49.20038" lon="-0.65329">
        <ele>73</ele>
        <time>2023-05-25T12:51:44Z</time>
      </trkpt>
      <trkpt lat="49.20041" lon="-0.65334">
        <ele>73</ele>
        <time>2023-05-25T12:51:45Z</time>
      </trkpt>
      <trkpt lat="49.20043" lon="-0.6534">
        <ele>73.2</ele>
        <time>2023-05-25T12:51:46Z</time>
      </trkpt>
      <trkpt lat="49.20046" lon="-0.65345">
        <ele>73.4</ele>
        <time>2023-05-25T12:51:47Z</time>
      </trkpt>
      <trkpt lat="49.20048" lon="-0.6535">
        <ele>73.6</ele>
        <time>2023-05-25T12:51:48Z</time>
      </trkpt>
      <trkpt lat="49.20051" lon="-0.65356">
        <ele>73.6</ele>
        <time>2023-05-25T12:51:49Z</time>
      </trkpt>
      <trkpt lat="49.20054" lon="-0.65361">
        <ele>73.8</ele>
        <time>2023-05-25T12:51:50Z</time>
      </trkpt>
      <trkpt lat="49.20056" lon="-0.65366">
        <ele>74</ele>
        <time>2023-05-25T12:51:51Z</time>
      </trkpt>
      <trkpt lat="49.20059" lon="-0.65372">
        <ele>74.2</ele>
        <time>2023-05-25T12:51:52Z</time>
      </trkpt>
      <trkpt lat="49.20061" lon="-0.65377">
        <ele>74.4</ele>
        <time>2023-05-25T12:51:53Z</time>
      </trkpt>
      <trkpt lat="49.20064" lon="-0.65382">
        <ele>74.6</ele>
        <time>2023-05-25T12:51:54Z</time>
      </trkpt>
      <trkpt lat="49.20066" lon="-0.65388">
        <ele>74.8</ele>
        <time>2023-05-25T12:51:55Z</time>
      </trkpt>
      <trkpt lat="49.20069" lon="-0.65393">
        <ele>75</ele>
        <time>2023-05-25T12:51:56Z</time>
      </trkpt>
      <trkpt lat="49.20071" lon="-0.65399">
        <ele>75.2</ele>
        <time>2023-05-25T12:51:57Z</time>
      </trkpt>
      <trkpt lat="49.20074" lon="-0.65404">
        <ele>75.4</ele>
        <time>2023-05-25T12:51:58Z</time>
      </trkpt>
      <trkpt lat="49.20076" lon="-0.6541">
        <ele>75.6</ele>
        <time>2023-05-25T12:51:59Z</time>
      </trkpt>
      <trkpt lat="49.20078" lon="-0.65416">
        <ele>75.8</ele>
        <time>2023-05-25T12:52:00Z</time>
      </trkpt>
      <trkpt lat="49.2008" lon="-0.65422">
        <ele>75.8</ele>
        <time>2023-05-25T12:52:01Z</time>
      </trkpt>
      <trkpt lat="49.20082" lon="-0.65428">
        <ele>75.8</ele>
        <time>2023-05-25T12:52:02Z</time>
      </trkpt>
      <trkpt lat="49.20084" lon="-0.65434">
        <ele>75.8</ele>
        <time>2023-05-25T12:52:03Z</time>
      </trkpt>
      <trkpt lat="49.20086" lon="-0.6544">
        <ele>75.6</ele>
        <time>2023-05-25T12:52:04Z</time>
      </trkpt>
      <trkpt lat="49.20088" lon="-0.65447">
        <ele>75.6</ele>
        <time>2023-05-25T12:52:05Z</time>
      </trkpt>
      <trkpt lat="49.2009" lon="-0.65453">
        <ele>75.6</ele>
        <time>2023-05-25T12:52:06Z</time>
      </trkpt>
      <trkpt lat="49.20092" lon="-0.6546">
        <ele>75.6</ele>
        <time>2023-05-25T12:52:07Z</time>
      </trkpt>
      <trkpt lat="49.20094" lon="-0.65467">
        <ele>75.6</ele>
        <time>2023-05-25T12:52:08Z</time>
      </trkpt>
      <trkpt lat="49.20095" lon="-0.65474">
        <ele>75.4</ele>
        <time>2023-05-25T12:52:09Z</time>
      </trkpt>
      <trkpt lat="49.20097" lon="-0.65481">
        <ele>75.4</ele>
        <time>2023-05-25T12:52:10Z</time>
      </trkpt>
      <trkpt lat="49.20099" lon="-0.65488">
        <ele>75.4</ele>
        <time>2023-05-25T12:52:11Z</time>
      </trkpt>
      <trkpt lat="49.201" lon="-0.65495">
        <ele>75.4</ele>
        <time>2023-05-25T12:52:12Z</time>
      </trkpt>
      <trkpt lat="49.20102" lon="-0.65502">
        <ele>75.2</ele>
        <time>2023-05-25T12:52:13Z</time>
      </trkpt>
      <trkpt lat="49.20104" lon="-0.65509">
        <ele>75</ele>
        <time>2023-05-25T12:52:14Z</time>
      </trkpt>
      <trkpt lat="49.20105" lon="-0.65516">
        <ele>75</ele>
        <time>2023-05-25T12:52:15Z</time>
      </trkpt>
      <trkpt lat="49.20107" lon="-0.65523">
        <ele>75</ele>
        <time>2023-05-25T12:52:16Z</time>
      </trkpt>
      <trkpt lat="49.20108" lon="-0.6553">
        <ele>75</ele>
        <time>2023-05-25T12:52:17Z</time>
      </trkpt>
      <trkpt lat="49.2011" lon="-0.65537">
        <ele>75</ele>
        <time>2023-05-25T12:52:18Z</time>
      </trkpt>
      <trkpt lat="49.20112" lon="-0.65544">
        <ele>74.8</ele>
        <time>2023-05-25T12:52:19Z</time>
      </trkpt>
      <trkpt lat="49.20113" lon="-0.65551">
        <ele>74.6</ele>
        <time>2023-05-25T12:52:20Z</time>
      </trkpt>
      <trkpt lat="49.20115" lon="-0.65559">
        <ele>74.6</ele>
        <time>2023-05-25T12:52:21Z</time>
      </trkpt>
      <trkpt lat="49.20116" lon="-0.65566">
        <ele>74.6</ele>
        <time>2023-05-25T12:52:22Z</time>
      </trkpt>
      <trkpt lat="49.20118" lon="-0.65573">
        <ele>74.6</ele>
        <time>2023-05-25T12:52:23Z</time>
      </trkpt>
      <trkpt lat="49.2012" lon="-0.6558">
        <ele>74.6</ele>
        <time>2023-05-25T12:52:24Z</time>
      </trkpt>
      <trkpt lat="49.20121" lon="-0.65588">
        <ele>74.6</ele>
        <time>2023-05-25T12:52:25Z</time>
      </trkpt>
      <trkpt lat="49.20123" lon="-0.65595">
        <ele>74.6</ele>
        <time>2023-05-25T12:52:26Z</time>
      </trkpt>
      <trkpt lat="49.20125" lon="-0.65602">
        <ele>74.6</ele>
        <time>2023-05-25T12:52:27Z</time>
      </trkpt>
      <trkpt lat="49.20126" lon="-0.65609">
        <ele>74.6</ele>
        <time>2023-05-25T12:52:28Z</time>
      </trkpt>
      <trkpt lat="49.20128" lon="-0.65616">
        <ele>74.6</ele>
        <time>2023-05-25T12:52:29Z</time>
      </trkpt>
      <trkpt lat="49.2013" lon="-0.65623">
        <ele>74.8</ele>
        <time>2023-05-25T12:52:30Z</time>
      </trkpt>
      <trkpt lat="49.20132" lon="-0.6563">
        <ele>75</ele>
        <time>2023-05-25T12:52:31Z</time>
      </trkpt>
      <trkpt lat="49.20134" lon="-0.65637">
        <ele>75</ele>
        <time>2023-05-25T12:52:32Z</time>
      </trkpt>
      <trkpt lat="49.20136" lon="-0.65644">
        <ele>75</ele>
        <time>2023-05-25T12:52:33Z</time>
      </trkpt>
      <trkpt lat="49.20138" lon="-0.65652">
        <ele>75.2</ele>
        <time>2023-05-25T12:52:34Z</time>
      </trkpt>
      <trkpt lat="49.2014" lon="-0.65659">
        <ele>75.4</ele>
        <time>2023-05-25T12:52:35Z</time>
      </trkpt>
      <trkpt lat="49.20143" lon="-0.65666">
        <ele>75.4</ele>
        <time>2023-05-25T12:52:36Z</time>
      </trkpt>
      <trkpt lat="49.20145" lon="-0.65674">
        <ele>75.6</ele>
        <time>2023-05-25T12:52:37Z</time>
      </trkpt>
      <trkpt lat="49.20147" lon="-0.65681">
        <ele>75.6</ele>
        <time>2023-05-25T12:52:38Z</time>
      </trkpt>
      <trkpt lat="49.2015" lon="-0.65689">
        <ele>75.6</ele>
        <time>2023-05-25T12:52:39Z</time>
      </trkpt>
      <trkpt lat="49.20152" lon="-0.65696">
        <ele>75.6</ele>
        <time>2023-05-25T12:52:40Z</time>
      </trkpt>
      <trkpt lat="49.20155" lon="-0.65704">
        <ele>75.8</ele>
        <time>2023-05-25T12:52:41Z</time>
      </trkpt>
      <trkpt lat="49.20158" lon="-0.65711">
        <ele>75.8</ele>
        <time>2023-05-25T12:52:42Z</time>
      </trkpt>
      <trkpt lat="49.2016" lon="-0.65719">
        <ele>76</ele>
        <time>2023-05-25T12:52:43Z</time>
      </trkpt>
      <trkpt lat="49.20163" lon="-0.65726">
        <ele>76</ele>
        <time>2023-05-25T12:52:44Z</time>
      </trkpt>
      <trkpt lat="49.20166" lon="-0.65734">
        <ele>76</ele>
        <time>2023-05-25T12:52:45Z</time>
      </trkpt>
      <trkpt lat="49.20168" lon="-0.65741">
        <ele>76</ele>
        <time>2023-05-25T12:52:46Z</time>
      </trkpt>
      <trkpt lat="49.20171" lon="-0.65749">
        <ele>76</ele>
        <time>2023-05-25T12:52:47Z</time>
      </trkpt>
      <trkpt lat="49.20173" lon="-0.65757">
        <ele>76.2</ele>
        <time>2023-05-25T12:52:48Z</time>
      </trkpt>
      <trkpt lat="49.20175" lon="-0.65765">
        <ele>76.2</ele>
        <time>2023-05-25T12:52:49Z</time>
      </trkpt>
      <trkpt lat="49.20177" lon="-0.65774">
        <ele>76.4</ele>
        <time>2023-05-25T12:52:50Z</time>
      </trkpt>
      <trkpt lat="49.20179" lon="-0.65782">
        <ele>76.4</ele>
        <time>2023-05-25T12:52:51Z</time>
      </trkpt>
      <trkpt lat="49.20182" lon="-0.65791">
        <ele>76.4</ele>
        <time>2023-05-25T12:52:52Z</time>
      </trkpt>
      <trkpt lat="49.20184" lon="-0.65799">
        <ele>76.6</ele>
        <time>2023-05-25T12:52:53Z</time>
      </trkpt>
      <trkpt lat="49.20186" lon="-0.65808">
        <ele>76.6</ele>
        <time>2023-05-25T12:52:54Z</time>
      </trkpt>
      <trkpt lat="49.20188" lon="-0.65818">
        <ele>76.6</ele>
        <time>2023-05-25T12:52:55Z</time>
      </trkpt>
      <trkpt lat="49.2019" lon="-0.65827">
        <ele>76.8</ele>
        <time>2023-05-25T12:52:56Z</time>
      </trkpt>
      <trkpt lat="49.20192" lon="-0.65837">
        <ele>77</ele>
        <time>2023-05-25T12:52:57Z</time>
      </trkpt>
      <trkpt lat="49.20194" lon="-0.65846">
        <ele>77</ele>
        <time>2023-05-25T12:52:58Z</time>
      </trkpt>
      <trkpt lat="49.20197" lon="-0.65856">
        <ele>77.4</ele>
        <time>2023-05-25T12:52:59Z</time>
      </trkpt>
      <trkpt lat="49.20199" lon="-0.65866">
        <ele>77.4</ele>
        <time>2023-05-25T12:53:00Z</time>
      </trkpt>
      <trkpt lat="49.20201" lon="-0.65876">
        <ele>77.6</ele>
        <time>2023-05-25T12:53:01Z</time>
      </trkpt>
      <trkpt lat="49.20203" lon="-0.65886">
        <ele>77.6</ele>
        <time>2023-05-25T12:53:02Z</time>
      </trkpt>
      <trkpt lat="49.20205" lon="-0.65895">
        <ele>77.8</ele>
        <time>2023-05-25T12:53:03Z</time>
      </trkpt>
      <trkpt lat="49.20207" lon="-0.65905">
        <ele>78</ele>
        <time>2023-05-25T12:53:04Z</time>
      </trkpt>
      <trkpt lat="49.20209" lon="-0.65914">
        <ele>78</ele>
        <time>2023-05-25T12:53:05Z</time>
      </trkpt>
      <trkpt lat="49.20212" lon="-0.65923">
        <ele>78.2</ele>
        <time>2023-05-25T12:53:06Z</time>
      </trkpt>
      <trkpt lat="49.20214" lon="-0.65931">
        <ele>78.4</ele>
        <time>2023-05-25T12:53:07Z</time>
      </trkpt>
      <trkpt lat="49.20217" lon="-0.65939">
        <ele>78.6</ele>
        <time>2023-05-25T12:53:08Z</time>
      </trkpt>
      <trkpt lat="49.2022" lon="-0.65947">
        <ele>79</ele>
        <time>2023-05-25T12:53:09Z</time>
      </trkpt>
      <trkpt lat="49.20223" lon="-0.65953">
        <ele>79</ele>
        <time>2023-05-25T12:53:10Z</time>
      </trkpt>
      <trkpt lat="49.20227" lon="-0.6596">
        <ele>79.4</ele>
        <time>2023-05-25T12:53:11Z</time>
      </trkpt>
      <trkpt lat="49.2023" lon="-0.65966">
        <ele>79.6</ele>
        <time>2023-05-25T12:53:12Z</time>
      </trkpt>
      <trkpt lat="49.20234" lon="-0.65971">
        <ele>79.8</ele>
        <time>2023-05-25T12:53:13Z</time>
      </trkpt>
      <trkpt lat="49.20238" lon="-0.65976">
        <ele>80</ele>
        <time>2023-05-25T12:53:14Z</time>
      </trkpt>
      <trkpt lat="49.20242" lon="-0.65981">
        <ele>80.4</ele>
        <time>2023-05-25T12:53:15Z</time>
      </trkpt>
      <trkpt lat="49.20245" lon="-0.65986">
        <ele>80.6</ele>
        <time>2023-05-25T12:53:16Z</time>
      </trkpt>
      <trkpt lat="49.20249" lon="-0.6599">
        <ele>80.6</ele>
        <time>2023-05-25T12:53:17Z</time>
      </trkpt>
      <trkpt lat="49.20253" lon="-0.65995">
        <ele>81</ele>
        <time>2023-05-25T12:53:18Z</time>
      </trkpt>
      <trkpt lat="49.20257" lon="-0.65999">
        <ele>81.2</ele>
        <time>2023-05-25T12:53:19Z</time>
      </trkpt>
      <trkpt lat="49.20261" lon="-0.66004">
        <ele>81.4</ele>
        <time>2023-05-25T12:53:20Z</time>
      </trkpt>
      <trkpt lat="49.20265" lon="-0.66008">
        <ele>81.6</ele>
        <time>2023-05-25T12:53:21Z</time>
      </trkpt>
      <trkpt lat="49.20268" lon="-0.66013">
        <ele>81.8</ele>
        <time>2023-05-25T12:53:22Z</time>
      </trkpt>
      <trkpt lat="49.20273" lon="-0.66018">
        <ele>82</ele>
        <time>2023-05-25T12:53:23Z</time>
      </trkpt>
      <trkpt lat="49.20277" lon="-0.66023">
        <ele>82.2</ele>
        <time>2023-05-25T12:53:24Z</time>
      </trkpt>
      <trkpt lat="49.2028" lon="-0.66027">
        <ele>82.4</ele>
        <time>2023-05-25T12:53:25Z</time>
      </trkpt>
      <trkpt lat="49.20284" lon="-0.66032">
        <ele>82.6</ele>
        <time>2023-05-25T12:53:26Z</time>
      </trkpt>
      <trkpt lat="49.20287" lon="-0.66036">
        <ele>82.8</ele>
        <time>2023-05-25T12:53:27Z</time>
      </trkpt>
      <trkpt lat="49.20291" lon="-0.66041">
        <ele>83</ele>
        <time>2023-05-25T12:53:28Z</time>
      </trkpt>
      <trkpt lat="49.20294" lon="-0.66045">
        <ele>83</ele>
        <time>2023-05-25T12:53:29Z</time>
      </trkpt>
      <trkpt lat="49.20297" lon="-0.6605">
        <ele>83.4</ele>
        <time>2023-05-25T12:53:30Z</time>
      </trkpt>
      <trkpt lat="49.203" lon="-0.66054">
        <ele>83.6</ele>
        <time>2023-05-25T12:53:31Z</time>
      </trkpt>
      <trkpt lat="49.20304" lon="-0.66059">
        <ele>83.6</ele>
        <time>2023-05-25T12:53:32Z</time>
      </trkpt>
      <trkpt lat="49.20307" lon="-0.66063">
        <ele>83.8</ele>
        <time>2023-05-25T12:53:33Z</time>
      </trkpt>
      <trkpt lat="49.20311" lon="-0.66068">
        <ele>84</ele>
        <time>2023-05-25T12:53:34Z</time>
      </trkpt>
      <trkpt lat="49.20314" lon="-0.66072">
        <ele>84.2</ele>
        <time>2023-05-25T12:53:35Z</time>
      </trkpt>
      <trkpt lat="49.20318" lon="-0.66077">
        <ele>84.4</ele>
        <time>2023-05-25T12:53:36Z</time>
      </trkpt>
      <trkpt lat="49.20321" lon="-0.66081">
        <ele>84.6</ele>
        <time>2023-05-25T12:53:37Z</time>
      </trkpt>
      <trkpt lat="49.20325" lon="-0.66086">
        <ele>84.6</ele>
        <time>2023-05-25T12:53:38Z</time>
      </trkpt>
      <trkpt lat="49.20328" lon="-0.66091">
        <ele>84.6</ele>
        <time>2023-05-25T12:53:39Z</time>
      </trkpt>
      <trkpt lat="49.20332" lon="-0.66095">
        <ele>84.8</ele>
        <time>2023-05-25T12:53:40Z</time>
      </trkpt>
      <trkpt lat="49.20336" lon="-0.661">
        <ele>84.8</ele>
        <time>2023-05-25T12:53:41Z</time>
      </trkpt>
      <trkpt lat="49.20339" lon="-0.66105">
        <ele>84.6</ele>
        <time>2023-05-25T12:53:42Z</time>
      </trkpt>
      <trkpt lat="49.20343" lon="-0.6611">
        <ele>84.6</ele>
        <time>2023-05-25T12:53:43Z</time>
      </trkpt>
      <trkpt lat="49.20347" lon="-0.66114">
        <ele>84.4</ele>
        <time>2023-05-25T12:53:44Z</time>
      </trkpt>
      <trkpt lat="49.20351" lon="-0.66119">
        <ele>84.4</ele>
        <time>2023-05-25T12:53:45Z</time>
      </trkpt>
      <trkpt lat="49.20355" lon="-0.66124">
        <ele>84.2</ele>
        <time>2023-05-25T12:53:46Z</time>
      </trkpt>
      <trkpt lat="49.20359" lon="-0.66129">
        <ele>84.2</ele>
        <time>2023-05-25T12:53:47Z</time>
      </trkpt>
      <trkpt lat="49.20363" lon="-0.66134">
        <ele>84</ele>
        <time>2023-05-25T12:53:48Z</time>
      </trkpt>
      <trkpt lat="49.20367" lon="-0.66139">
        <ele>84</ele>
        <time>2023-05-25T12:53:49Z</time>
      </trkpt>
      <trkpt lat="49.20372" lon="-0.66143">
        <ele>84</ele>
        <time>2023-05-25T12:53:50Z</time>
      </trkpt>
      <trkpt lat="49.20376" lon="-0.66148">
        <ele>84</ele>
        <time>2023-05-25T12:53:51Z</time>
      </trkpt>
      <trkpt lat="49.2038" lon="-0.66153">
        <ele>84</ele>
        <time>2023-05-25T12:53:52Z</time>
      </trkpt>
      <trkpt lat="49.20384" lon="-0.66158">
        <ele>84</ele>
        <time>2023-05-25T12:53:53Z</time>
      </trkpt>
      <trkpt lat="49.20389" lon="-0.66163">
        <ele>84</ele>
        <time>2023-05-25T12:53:54Z</time>
      </trkpt>
      <trkpt lat="49.20393" lon="-0.66167">
        <ele>84</ele>
        <time>2023-05-25T12:53:55Z</time>
      </trkpt>
      <trkpt lat="49.20397" lon="-0.66172">
        <ele>84</ele>
        <time>2023-05-25T12:53:56Z</time>
      </trkpt>
      <trkpt lat="49.20402" lon="-0.66177">
        <ele>84</ele>
        <time>2023-05-25T12:53:57Z</time>
      </trkpt>
      <trkpt lat="49.20406" lon="-0.66182">
        <ele>83.8</ele>
        <time>2023-05-25T12:53:58Z</time>
      </trkpt>
      <trkpt lat="49.2041" lon="-0.66187">
        <ele>83.8</ele>
        <time>2023-05-25T12:53:59Z</time>
      </trkpt>
      <trkpt lat="49.20414" lon="-0.66192">
        <ele>83.6</ele>
        <time>2023-05-25T12:54:00Z</time>
      </trkpt>
      <trkpt lat="49.20418" lon="-0.66198">
        <ele>83.6</ele>
        <time>2023-05-25T12:54:01Z</time>
      </trkpt>
      <trkpt lat="49.20422" lon="-0.66203">
        <ele>83.4</ele>
        <time>2023-05-25T12:54:02Z</time>
      </trkpt>
      <trkpt lat="49.20427" lon="-0.66209">
        <ele>83</ele>
        <time>2023-05-25T12:54:03Z</time>
      </trkpt>
      <trkpt lat="49.20431" lon="-0.66215">
        <ele>83</ele>
        <time>2023-05-25T12:54:04Z</time>
      </trkpt>
      <trkpt lat="49.20435" lon="-0.66221">
        <ele>82.6</ele>
        <time>2023-05-25T12:54:05Z</time>
      </trkpt>
      <trkpt lat="49.20439" lon="-0.66228">
        <ele>82.6</ele>
        <time>2023-05-25T12:54:06Z</time>
      </trkpt>
      <trkpt lat="49.20443" lon="-0.66234">
        <ele>82.4</ele>
        <time>2023-05-25T12:54:07Z</time>
      </trkpt>
      <trkpt lat="49.20446" lon="-0.66241">
        <ele>82</ele>
        <time>2023-05-25T12:54:08Z</time>
      </trkpt>
      <trkpt lat="49.2045" lon="-0.66248">
        <ele>81.8</ele>
        <time>2023-05-25T12:54:09Z</time>
      </trkpt>
      <trkpt lat="49.20454" lon="-0.66255">
        <ele>81.6</ele>
        <time>2023-05-25T12:54:10Z</time>
      </trkpt>
      <trkpt lat="49.20458" lon="-0.66262">
        <ele>81.6</ele>
        <time>2023-05-25T12:54:11Z</time>
      </trkpt>
      <trkpt lat="49.20462" lon="-0.66269">
        <ele>81.6</ele>
        <time>2023-05-25T12:54:12Z</time>
      </trkpt>
      <trkpt lat="49.20466" lon="-0.66277">
        <ele>81.6</ele>
        <time>2023-05-25T12:54:13Z</time>
      </trkpt>
      <trkpt lat="49.2047" lon="-0.66284">
        <ele>81.6</ele>
        <time>2023-05-25T12:54:14Z</time>
      </trkpt>
      <trkpt lat="49.20474" lon="-0.66292">
        <ele>81.6</ele>
        <time>2023-05-25T12:54:15Z</time>
      </trkpt>
      <trkpt lat="49.20478" lon="-0.663">
        <ele>81.6</ele>
        <time>2023-05-25T12:54:16Z</time>
      </trkpt>
      <trkpt lat="49.20483" lon="-0.66308">
        <ele>81.6</ele>
        <time>2023-05-25T12:54:17Z</time>
      </trkpt>
      <trkpt lat="49.20487" lon="-0.66316">
        <ele>81.8</ele>
        <time>2023-05-25T12:54:18Z</time>
      </trkpt>
      <trkpt lat="49.20492" lon="-0.66324">
        <ele>82</ele>
        <time>2023-05-25T12:54:19Z</time>
      </trkpt>
      <trkpt lat="49.20496" lon="-0.66332">
        <ele>82</ele>
        <time>2023-05-25T12:54:20Z</time>
      </trkpt>
      <trkpt lat="49.20501" lon="-0.66341">
        <ele>82</ele>
        <time>2023-05-25T12:54:21Z</time>
      </trkpt>
      <trkpt lat="49.20506" lon="-0.66349">
        <ele>81.8</ele>
        <time>2023-05-25T12:54:22Z</time>
      </trkpt>
      <trkpt lat="49.2051" lon="-0.66358">
        <ele>81.6</ele>
        <time>2023-05-25T12:54:23Z</time>
      </trkpt>
      <trkpt lat="49.20515" lon="-0.66366">
        <ele>81.6</ele>
        <time>2023-05-25T12:54:24Z</time>
      </trkpt>
      <trkpt lat="49.2052" lon="-0.66375">
        <ele>81.4</ele>
        <time>2023-05-25T12:54:25Z</time>
      </trkpt>
      <trkpt lat="49.20525" lon="-0.66384">
        <ele>81</ele>
        <time>2023-05-25T12:54:26Z</time>
      </trkpt>
      <trkpt lat="49.2053" lon="-0.66393">
        <ele>81</ele>
        <time>2023-05-25T12:54:27Z</time>
      </trkpt>
      <trkpt lat="49.20534" lon="-0.66401">
        <ele>80.8</ele>
        <time>2023-05-25T12:54:28Z</time>
      </trkpt>
      <trkpt lat="49.20539" lon="-0.6641">
        <ele>80.6</ele>
        <time>2023-05-25T12:54:29Z</time>
      </trkpt>
      <trkpt lat="49.20544" lon="-0.66419">
        <ele>80.4</ele>
        <time>2023-05-25T12:54:30Z</time>
      </trkpt>
      <trkpt lat="49.20549" lon="-0.66428">
        <ele>80</ele>
        <time>2023-05-25T12:54:31Z</time>
      </trkpt>
      <trkpt lat="49.20554" lon="-0.66437">
        <ele>80</ele>
        <time>2023-05-25T12:54:32Z</time>
      </trkpt>
      <trkpt lat="49.20558" lon="-0.66446">
        <ele>79.8</ele>
        <time>2023-05-25T12:54:33Z</time>
      </trkpt>
      <trkpt lat="49.20563" lon="-0.66454">
        <ele>79.6</ele>
        <time>2023-05-25T12:54:34Z</time>
      </trkpt>
      <trkpt lat="49.20568" lon="-0.66463">
        <ele>79.6</ele>
        <time>2023-05-25T12:54:35Z</time>
      </trkpt>
      <trkpt lat="49.20573" lon="-0.66472">
        <ele>79.6</ele>
        <time>2023-05-25T12:54:36Z</time>
      </trkpt>
      <trkpt lat="49.20578" lon="-0.66481">
        <ele>79.6</ele>
        <time>2023-05-25T12:54:37Z</time>
      </trkpt>
      <trkpt lat="49.20583" lon="-0.66489">
        <ele>79.6</ele>
        <time>2023-05-25T12:54:38Z</time>
      </trkpt>
      <trkpt lat="49.20588" lon="-0.66498">
        <ele>80</ele>
        <time>2023-05-25T12:54:39Z</time>
      </trkpt>
      <trkpt lat="49.20594" lon="-0.66507">
        <ele>80.4</ele>
        <time>2023-05-25T12:54:40Z</time>
      </trkpt>
      <trkpt lat="49.20599" lon="-0.66515">
        <ele>80.6</ele>
        <time>2023-05-25T12:54:41Z</time>
      </trkpt>
      <trkpt lat="49.20604" lon="-0.66524">
        <ele>81</ele>
        <time>2023-05-25T12:54:42Z</time>
      </trkpt>
      <trkpt lat="49.20609" lon="-0.66532">
        <ele>81.2</ele>
        <time>2023-05-25T12:54:43Z</time>
      </trkpt>
      <trkpt lat="49.20614" lon="-0.6654">
        <ele>81.6</ele>
        <time>2023-05-25T12:54:44Z</time>
      </trkpt>
      <trkpt lat="49.20619" lon="-0.66548">
        <ele>81.8</ele>
        <time>2023-05-25T12:54:45Z</time>
      </trkpt>
      <trkpt lat="49.20624" lon="-0.66556">
        <ele>82</ele>
        <time>2023-05-25T12:54:46Z</time>
      </trkpt>
      <trkpt lat="49.20629" lon="-0.66564">
        <ele>82.6</ele>
        <time>2023-05-25T12:54:47Z</time>
      </trkpt>
      <trkpt lat="49.20634" lon="-0.66571">
        <ele>82.8</ele>
        <time>2023-05-25T12:54:48Z</time>
      </trkpt>
      <trkpt lat="49.20638" lon="-0.66578">
        <ele>83.2</ele>
        <time>2023-05-25T12:54:49Z</time>
      </trkpt>
      <trkpt lat="49.20642" lon="-0.66585">
        <ele>83.6</ele>
        <time>2023-05-25T12:54:50Z</time>
      </trkpt>
      <trkpt lat="49.20647" lon="-0.66592">
        <ele>84</ele>
        <time>2023-05-25T12:54:51Z</time>
      </trkpt>
      <trkpt lat="49.20651" lon="-0.66598">
        <ele>84.4</ele>
        <time>2023-05-25T12:54:52Z</time>
      </trkpt>
      <trkpt lat="49.20655" lon="-0.66605">
        <ele>84.6</ele>
        <time>2023-05-25T12:54:53Z</time>
      </trkpt>
      <trkpt lat="49.20659" lon="-0.66611">
        <ele>85</ele>
        <time>2023-05-25T12:54:54Z</time>
      </trkpt>
      <trkpt lat="49.20663" lon="-0.66617">
        <ele>85.2</ele>
        <time>2023-05-25T12:54:55Z</time>
      </trkpt>
      <trkpt lat="49.20666" lon="-0.66623">
        <ele>85.6</ele>
        <time>2023-05-25T12:54:56Z</time>
      </trkpt>
      <trkpt lat="49.2067" lon="-0.66629">
        <ele>85.6</ele>
        <time>2023-05-25T12:54:57Z</time>
      </trkpt>
      <trkpt lat="49.20672" lon="-0.66635">
        <ele>85.8</ele>
        <time>2023-05-25T12:54:58Z</time>
      </trkpt>
      <trkpt lat="49.20675" lon="-0.6664">
        <ele>86</ele>
        <time>2023-05-25T12:54:59Z</time>
      </trkpt>
      <trkpt lat="49.20676" lon="-0.66645">
        <ele>86</ele>
        <time>2023-05-25T12:55:00Z</time>
      </trkpt>
      <trkpt lat="49.20677" lon="-0.66649">
        <ele>86.2</ele>
        <time>2023-05-25T12:55:01Z</time>
      </trkpt>
      <trkpt lat="49.20677" lon="-0.66653">
        <ele>86.2</ele>
        <time>2023-05-25T12:55:02Z</time>
      </trkpt>
      <trkpt lat="49.20675" lon="-0.66656">
        <ele>86.2</ele>
        <time>2023-05-25T12:55:03Z</time>
      </trkpt>
      <trkpt lat="49.20673" lon="-0.6666">
        <ele>86</ele>
        <time>2023-05-25T12:55:04Z</time>
      </trkpt>
      <trkpt lat="49.20669" lon="-0.66663">
        <ele>86</ele>
        <time>2023-05-25T12:55:05Z</time>
      </trkpt>
      <trkpt lat="49.20664" lon="-0.66666">
        <ele>86</ele>
        <time>2023-05-25T12:55:06Z</time>
      </trkpt>
      <trkpt lat="49.20659" lon="-0.6667">
        <ele>85.8</ele>
        <time>2023-05-25T12:55:07Z</time>
      </trkpt>
      <trkpt lat="49.20655" lon="-0.66674">
        <ele>85.8</ele>
        <time>2023-05-25T12:55:08Z</time>
      </trkpt>
      <trkpt lat="49.2065" lon="-0.66679">
        <ele>85.6</ele>
        <time>2023-05-25T12:55:09Z</time>
      </trkpt>
      <trkpt lat="49.20646" lon="-0.66684">
        <ele>85.6</ele>
        <time>2023-05-25T12:55:10Z</time>
      </trkpt>
      <trkpt lat="49.20643" lon="-0.66689">
        <ele>85.6</ele>
        <time>2023-05-25T12:55:11Z</time>
      </trkpt>
      <trkpt lat="49.20639" lon="-0.66694">
        <ele>85.8</ele>
        <time>2023-05-25T12:55:12Z</time>
      </trkpt>
      <trkpt lat="49.20635" lon="-0.66699">
        <ele>85.8</ele>
        <time>2023-05-25T12:55:13Z</time>
      </trkpt>
      <trkpt lat="49.20632" lon="-0.66705">
        <ele>85.8</ele>
        <time>2023-05-25T12:55:14Z</time>
      </trkpt>
      <trkpt lat="49.20628" lon="-0.66711">
        <ele>86</ele>
        <time>2023-05-25T12:55:15Z</time>
      </trkpt>
      <trkpt lat="49.20625" lon="-0.66716">
        <ele>86</ele>
        <time>2023-05-25T12:55:16Z</time>
      </trkpt>
      <trkpt lat="49.20621" lon="-0.66722">
        <ele>86</ele>
        <time>2023-05-25T12:55:17Z</time>
      </trkpt>
      <trkpt lat="49.20618" lon="-0.66728">
        <ele>86.2</ele>
        <time>2023-05-25T12:55:18Z</time>
      </trkpt>
      <trkpt lat="49.20615" lon="-0.66735">
        <ele>86.4</ele>
        <time>2023-05-25T12:55:19Z</time>
      </trkpt>
      <trkpt lat="49.20612" lon="-0.66741">
        <ele>86.4</ele>
        <time>2023-05-25T12:55:20Z</time>
      </trkpt>
      <trkpt lat="49.20609" lon="-0.66748">
        <ele>86.6</ele>
        <time>2023-05-25T12:55:21Z</time>
      </trkpt>
      <trkpt lat="49.20606" lon="-0.66755">
        <ele>86.6</ele>
        <time>2023-05-25T12:55:22Z</time>
      </trkpt>
      <trkpt lat="49.20603" lon="-0.66762">
        <ele>86.6</ele>
        <time>2023-05-25T12:55:23Z</time>
      </trkpt>
      <trkpt lat="49.206" lon="-0.6677">
        <ele>86.6</ele>
        <time>2023-05-25T12:55:24Z</time>
      </trkpt>
      <trkpt lat="49.20597" lon="-0.66777">
        <ele>86.6</ele>
        <time>2023-05-25T12:55:25Z</time>
      </trkpt>
      <trkpt lat="49.20594" lon="-0.66784">
        <ele>86.8</ele>
        <time>2023-05-25T12:55:26Z</time>
      </trkpt>
      <trkpt lat="49.20591" lon="-0.66792">
        <ele>86.8</ele>
        <time>2023-05-25T12:55:27Z</time>
      </trkpt>
      <trkpt lat="49.20589" lon="-0.668">
        <ele>86.8</ele>
        <time>2023-05-25T12:55:28Z</time>
      </trkpt>
      <trkpt lat="49.20586" lon="-0.66807">
        <ele>86.8</ele>
        <time>2023-05-25T12:55:29Z</time>
      </trkpt>
      <trkpt lat="49.20584" lon="-0.66815">
        <ele>86.8</ele>
        <time>2023-05-25T12:55:30Z</time>
      </trkpt>
      <trkpt lat="49.20581" lon="-0.66823">
        <ele>86.8</ele>
        <time>2023-05-25T12:55:31Z</time>
      </trkpt>
      <trkpt lat="49.20579" lon="-0.66831">
        <ele>87</ele>
        <time>2023-05-25T12:55:32Z</time>
      </trkpt>
      <trkpt lat="49.20577" lon="-0.66838">
        <ele>87</ele>
        <time>2023-05-25T12:55:33Z</time>
      </trkpt>
      <trkpt lat="49.20575" lon="-0.66846">
        <ele>87.4</ele>
        <time>2023-05-25T12:55:34Z</time>
      </trkpt>
      <trkpt lat="49.20573" lon="-0.66853">
        <ele>87.8</ele>
        <time>2023-05-25T12:55:35Z</time>
      </trkpt>
      <trkpt lat="49.20572" lon="-0.66861">
        <ele>88</ele>
        <time>2023-05-25T12:55:36Z</time>
      </trkpt>
      <trkpt lat="49.2057" lon="-0.66868">
        <ele>88.4</ele>
        <time>2023-05-25T12:55:37Z</time>
      </trkpt>
      <trkpt lat="49.20569" lon="-0.66875">
        <ele>88.8</ele>
        <time>2023-05-25T12:55:38Z</time>
      </trkpt>
      <trkpt lat="49.20567" lon="-0.66882">
        <ele>89</ele>
        <time>2023-05-25T12:55:39Z</time>
      </trkpt>
      <trkpt lat="49.20566" lon="-0.66889">
        <ele>89.4</ele>
        <time>2023-05-25T12:55:40Z</time>
      </trkpt>
      <trkpt lat="49.20565" lon="-0.66896">
        <ele>89.6</ele>
        <time>2023-05-25T12:55:41Z</time>
      </trkpt>
      <trkpt lat="49.20563" lon="-0.66903">
        <ele>90</ele>
        <time>2023-05-25T12:55:42Z</time>
      </trkpt>
      <trkpt lat="49.20562" lon="-0.66909">
        <ele>90.4</ele>
        <time>2023-05-25T12:55:43Z</time>
      </trkpt>
      <trkpt lat="49.2056" lon="-0.66916">
        <ele>90.6</ele>
        <time>2023-05-25T12:55:44Z</time>
      </trkpt>
      <trkpt lat="49.20559" lon="-0.66922">
        <ele>90.8</ele>
        <time>2023-05-25T12:55:45Z</time>
      </trkpt>
      <trkpt lat="49.20557" lon="-0.66929">
        <ele>90.8</ele>
        <time>2023-05-25T12:55:46Z</time>
      </trkpt>
      <trkpt lat="49.20556" lon="-0.66935">
        <ele>91</ele>
        <time>2023-05-25T12:55:47Z</time>
      </trkpt>
      <trkpt lat="49.20554" lon="-0.66941">
        <ele>91</ele>
        <time>2023-05-25T12:55:48Z</time>
      </trkpt>
      <trkpt lat="49.20554" lon="-0.66948">
        <ele>91</ele>
        <time>2023-05-25T12:55:49Z</time>
      </trkpt>
      <trkpt lat="49.20554" lon="-0.66953">
        <ele>91</ele>
        <time>2023-05-25T12:55:50Z</time>
      </trkpt>
      <trkpt lat="49.20556" lon="-0.66958">
        <ele>91.2</ele>
        <time>2023-05-25T12:55:51Z</time>
      </trkpt>
      <trkpt lat="49.20559" lon="-0.66963">
        <ele>91.4</ele>
        <time>2023-05-25T12:55:52Z</time>
      </trkpt>
      <trkpt lat="49.20562" lon="-0.66968">
        <ele>91.4</ele>
        <time>2023-05-25T12:55:53Z</time>
      </trkpt>
      <trkpt lat="49.20564" lon="-0.66973">
        <ele>91.4</ele>
        <time>2023-05-25T12:55:54Z</time>
      </trkpt>
      <trkpt lat="49.20567" lon="-0.66978">
        <ele>91.6</ele>
        <time>2023-05-25T12:55:55Z</time>
      </trkpt>
      <trkpt lat="49.20569" lon="-0.66983">
        <ele>91.6</ele>
        <time>2023-05-25T12:55:56Z</time>
      </trkpt>
      <trkpt lat="49.20571" lon="-0.66988">
        <ele>91.6</ele>
        <time>2023-05-25T12:55:57Z</time>
      </trkpt>
      <trkpt lat="49.20573" lon="-0.66993">
        <ele>91.8</ele>
        <time>2023-05-25T12:55:58Z</time>
      </trkpt>
      <trkpt lat="49.20575" lon="-0.66998">
        <ele>92</ele>
        <time>2023-05-25T12:55:59Z</time>
      </trkpt>
      <trkpt lat="49.20577" lon="-0.67003">
        <ele>92</ele>
        <time>2023-05-25T12:56:00Z</time>
      </trkpt>
      <trkpt lat="49.20579" lon="-0.67008">
        <ele>92</ele>
        <time>2023-05-25T12:56:01Z</time>
      </trkpt>
      <trkpt lat="49.20581" lon="-0.67014">
        <ele>92.4</ele>
        <time>2023-05-25T12:56:02Z</time>
      </trkpt>
      <trkpt lat="49.20583" lon="-0.67019">
        <ele>92.4</ele>
        <time>2023-05-25T12:56:03Z</time>
      </trkpt>
      <trkpt lat="49.20585" lon="-0.67024">
        <ele>92.6</ele>
        <time>2023-05-25T12:56:04Z</time>
      </trkpt>
      <trkpt lat="49.20587" lon="-0.67029">
        <ele>92.8</ele>
        <time>2023-05-25T12:56:05Z</time>
      </trkpt>
      <trkpt lat="49.2059" lon="-0.67034">
        <ele>93</ele>
        <time>2023-05-25T12:56:06Z</time>
      </trkpt>
      <trkpt lat="49.20592" lon="-0.6704">
        <ele>93</ele>
        <time>2023-05-25T12:56:07Z</time>
      </trkpt>
      <trkpt lat="49.20594" lon="-0.67045">
        <ele>93.2</ele>
        <time>2023-05-25T12:56:08Z</time>
      </trkpt>
      <trkpt lat="49.20597" lon="-0.67051">
        <ele>93.4</ele>
        <time>2023-05-25T12:56:09Z</time>
      </trkpt>
      <trkpt lat="49.20599" lon="-0.67056">
        <ele>93.6</ele>
        <time>2023-05-25T12:56:10Z</time>
      </trkpt>
      <trkpt lat="49.20601" lon="-0.67062">
        <ele>93.6</ele>
        <time>2023-05-25T12:56:11Z</time>
      </trkpt>
      <trkpt lat="49.20603" lon="-0.67067">
        <ele>93.6</ele>
        <time>2023-05-25T12:56:12Z</time>
      </trkpt>
      <trkpt lat="49.20604" lon="-0.67073">
        <ele>93.8</ele>
        <time>2023-05-25T12:56:13Z</time>
      </trkpt>
      <trkpt lat="49.20606" lon="-0.67078">
        <ele>94</ele>
        <time>2023-05-25T12:56:14Z</time>
      </trkpt>
      <trkpt lat="49.20607" lon="-0.67084">
        <ele>94</ele>
        <time>2023-05-25T12:56:15Z</time>
      </trkpt>
      <trkpt lat="49.20609" lon="-0.67089">
        <ele>94</ele>
        <time>2023-05-25T12:56:16Z</time>
      </trkpt>
      <trkpt lat="49.2061" lon="-0.67095">
        <ele>94.2</ele>
        <time>2023-05-25T12:56:17Z</time>
      </trkpt>
      <trkpt lat="49.20611" lon="-0.67101">
        <ele>94.4</ele>
        <time>2023-05-25T12:56:18Z</time>
      </trkpt>
      <trkpt lat="49.20612" lon="-0.67106">
        <ele>94.4</ele>
        <time>2023-05-25T12:56:19Z</time>
      </trkpt>
      <trkpt lat="49.20613" lon="-0.67112">
        <ele>94.4</ele>
        <time>2023-05-25T12:56:20Z</time>
      </trkpt>
      <trkpt lat="49.20615" lon="-0.67118">
        <ele>94.6</ele>
        <time>2023-05-25T12:56:21Z</time>
      </trkpt>
      <trkpt lat="49.20616" lon="-0.67124">
        <ele>94.6</ele>
        <time>2023-05-25T12:56:22Z</time>
      </trkpt>
      <trkpt lat="49.20617" lon="-0.6713">
        <ele>94.6</ele>
        <time>2023-05-25T12:56:23Z</time>
      </trkpt>
      <trkpt lat="49.20618" lon="-0.67136">
        <ele>94.6</ele>
        <time>2023-05-25T12:56:24Z</time>
      </trkpt>
      <trkpt lat="49.2062" lon="-0.67143">
        <ele>94.8</ele>
        <time>2023-05-25T12:56:25Z</time>
      </trkpt>
      <trkpt lat="49.20621" lon="-0.67149">
        <ele>95</ele>
        <time>2023-05-25T12:56:26Z</time>
      </trkpt>
      <trkpt lat="49.20622" lon="-0.67155">
        <ele>95</ele>
        <time>2023-05-25T12:56:27Z</time>
      </trkpt>
      <trkpt lat="49.20623" lon="-0.67162">
        <ele>95</ele>
        <time>2023-05-25T12:56:28Z</time>
      </trkpt>
      <trkpt lat="49.20625" lon="-0.67169">
        <ele>95</ele>
        <time>2023-05-25T12:56:29Z</time>
      </trkpt>
      <trkpt lat="49.20626" lon="-0.67175">
        <ele>95</ele>
        <time>2023-05-25T12:56:30Z</time>
      </trkpt>
      <trkpt lat="49.20627" lon="-0.67182">
        <ele>95.2</ele>
        <time>2023-05-25T12:56:31Z</time>
      </trkpt>
      <trkpt lat="49.20629" lon="-0.67189">
        <ele>95.4</ele>
        <time>2023-05-25T12:56:32Z</time>
      </trkpt>
      <trkpt lat="49.2063" lon="-0.67196">
        <ele>95.6</ele>
        <time>2023-05-25T12:56:33Z</time>
      </trkpt>
      <trkpt lat="49.20631" lon="-0.67203">
        <ele>95.6</ele>
        <time>2023-05-25T12:56:34Z</time>
      </trkpt>
      <trkpt lat="49.20633" lon="-0.67209">
        <ele>95.6</ele>
        <time>2023-05-25T12:56:35Z</time>
      </trkpt>
      <trkpt lat="49.20634" lon="-0.67216">
        <ele>96</ele>
        <time>2023-05-25T12:56:36Z</time>
      </trkpt>
      <trkpt lat="49.20636" lon="-0.67223">
        <ele>96</ele>
        <time>2023-05-25T12:56:37Z</time>
      </trkpt>
      <trkpt lat="49.20637" lon="-0.6723">
        <ele>96.2</ele>
        <time>2023-05-25T12:56:38Z</time>
      </trkpt>
      <trkpt lat="49.20638" lon="-0.67237">
        <ele>96.4</ele>
        <time>2023-05-25T12:56:39Z</time>
      </trkpt>
      <trkpt lat="49.2064" lon="-0.67244">
        <ele>96.6</ele>
        <time>2023-05-25T12:56:40Z</time>
      </trkpt>
      <trkpt lat="49.20642" lon="-0.67251">
        <ele>96.6</ele>
        <time>2023-05-25T12:56:41Z</time>
      </trkpt>
      <trkpt lat="49.20643" lon="-0.67259">
        <ele>96.8</ele>
        <time>2023-05-25T12:56:42Z</time>
      </trkpt>
      <trkpt lat="49.20645" lon="-0.67266">
        <ele>97</ele>
        <time>2023-05-25T12:56:43Z</time>
      </trkpt>
      <trkpt lat="49.20647" lon="-0.67273">
        <ele>97</ele>
        <time>2023-05-25T12:56:44Z</time>
      </trkpt>
      <trkpt lat="49.20649" lon="-0.6728">
        <ele>97.2</ele>
        <time>2023-05-25T12:56:45Z</time>
      </trkpt>
      <trkpt lat="49.20651" lon="-0.67288">
        <ele>97.4</ele>
        <time>2023-05-25T12:56:46Z</time>
      </trkpt>
      <trkpt lat="49.20653" lon="-0.67295">
        <ele>97.4</ele>
        <time>2023-05-25T12:56:47Z</time>
      </trkpt>
      <trkpt lat="49.20655" lon="-0.67302">
        <ele>97.6</ele>
        <time>2023-05-25T12:56:48Z</time>
      </trkpt>
      <trkpt lat="49.20658" lon="-0.67309">
        <ele>97.6</ele>
        <time>2023-05-25T12:56:49Z</time>
      </trkpt>
      <trkpt lat="49.2066" lon="-0.67317">
        <ele>97.6</ele>
        <time>2023-05-25T12:56:50Z</time>
      </trkpt>
      <trkpt lat="49.20663" lon="-0.67324">
        <ele>97.8</ele>
        <time>2023-05-25T12:56:51Z</time>
      </trkpt>
      <trkpt lat="49.20665" lon="-0.67332">
        <ele>98</ele>
        <time>2023-05-25T12:56:52Z</time>
      </trkpt>
      <trkpt lat="49.20668" lon="-0.67339">
        <ele>98</ele>
        <time>2023-05-25T12:56:53Z</time>
      </trkpt>
      <trkpt lat="49.2067" lon="-0.67346">
        <ele>98</ele>
        <time>2023-05-25T12:56:54Z</time>
      </trkpt>
      <trkpt lat="49.20672" lon="-0.67354">
        <ele>98</ele>
        <time>2023-05-25T12:56:55Z</time>
      </trkpt>
      <trkpt lat="49.20675" lon="-0.67361">
        <ele>98</ele>
        <time>2023-05-25T12:56:56Z</time>
      </trkpt>
      <trkpt lat="49.20677" lon="-0.67369">
        <ele>97.8</ele>
        <time>2023-05-25T12:56:57Z</time>
      </trkpt>
      <trkpt lat="49.20679" lon="-0.67376">
        <ele>97.8</ele>
        <time>2023-05-25T12:56:58Z</time>
      </trkpt>
      <trkpt lat="49.20681" lon="-0.67384">
        <ele>97.6</ele>
        <time>2023-05-25T12:56:59Z</time>
      </trkpt>
      <trkpt lat="49.20683" lon="-0.67391">
        <ele>97.6</ele>
        <time>2023-05-25T12:57:00Z</time>
      </trkpt>
      <trkpt lat="49.20685" lon="-0.67399">
        <ele>97.6</ele>
        <time>2023-05-25T12:57:01Z</time>
      </trkpt>
      <trkpt lat="49.20686" lon="-0.67407">
        <ele>97.6</ele>
        <time>2023-05-25T12:57:02Z</time>
      </trkpt>
      <trkpt lat="49.20688" lon="-0.67414">
        <ele>97.6</ele>
        <time>2023-05-25T12:57:03Z</time>
      </trkpt>
      <trkpt lat="49.2069" lon="-0.67422">
        <ele>97.6</ele>
        <time>2023-05-25T12:57:04Z</time>
      </trkpt>
      <trkpt lat="49.20692" lon="-0.6743">
        <ele>97.6</ele>
        <time>2023-05-25T12:57:05Z</time>
      </trkpt>
      <trkpt lat="49.20694" lon="-0.67438">
        <ele>97.6</ele>
        <time>2023-05-25T12:57:06Z</time>
      </trkpt>
      <trkpt lat="49.20695" lon="-0.67446">
        <ele>97.6</ele>
        <time>2023-05-25T12:57:07Z</time>
      </trkpt>
      <trkpt lat="49.20697" lon="-0.67454">
        <ele>97.6</ele>
        <time>2023-05-25T12:57:08Z</time>
      </trkpt>
      <trkpt lat="49.20699" lon="-0.67462">
        <ele>97.6</ele>
        <time>2023-05-25T12:57:09Z</time>
      </trkpt>
      <trkpt lat="49.20701" lon="-0.6747">
        <ele>97.6</ele>
        <time>2023-05-25T12:57:10Z</time>
      </trkpt>
      <trkpt lat="49.20703" lon="-0.67478">
        <ele>97.6</ele>
        <time>2023-05-25T12:57:11Z</time>
      </trkpt>
      <trkpt lat="49.20705" lon="-0.67486">
        <ele>97.6</ele>
        <time>2023-05-25T12:57:12Z</time>
      </trkpt>
      <trkpt lat="49.20706" lon="-0.67494">
        <ele>97.6</ele>
        <time>2023-05-25T12:57:13Z</time>
      </trkpt>
      <trkpt lat="49.20708" lon="-0.67503">
        <ele>97.6</ele>
        <time>2023-05-25T12:57:14Z</time>
      </trkpt>
      <trkpt lat="49.2071" lon="-0.67511">
        <ele>97.6</ele>
        <time>2023-05-25T12:57:15Z</time>
      </trkpt>
      <trkpt lat="49.20712" lon="-0.67519">
        <ele>97.6</ele>
        <time>2023-05-25T12:57:16Z</time>
      </trkpt>
      <trkpt lat="49.20714" lon="-0.67528">
        <ele>97.6</ele>
        <time>2023-05-25T12:57:17Z</time>
      </trkpt>
      <trkpt lat="49.20715" lon="-0.67536">
        <ele>97.6</ele>
        <time>2023-05-25T12:57:18Z</time>
      </trkpt>
      <trkpt lat="49.20717" lon="-0.67545">
        <ele>97.6</ele>
        <time>2023-05-25T12:57:19Z</time>
      </trkpt>
      <trkpt lat="49.20719" lon="-0.67553">
        <ele>97.6</ele>
        <time>2023-05-25T12:57:20Z</time>
      </trkpt>
      <trkpt lat="49.20721" lon="-0.67562">
        <ele>97.6</ele>
        <time>2023-05-25T12:57:21Z</time>
      </trkpt>
      <trkpt lat="49.20723" lon="-0.6757">
        <ele>97.6</ele>
        <time>2023-05-25T12:57:22Z</time>
      </trkpt>
      <trkpt lat="49.20724" lon="-0.67579">
        <ele>97.6</ele>
        <time>2023-05-25T12:57:23Z</time>
      </trkpt>
      <trkpt lat="49.20726" lon="-0.67588">
        <ele>97.6</ele>
        <time>2023-05-25T12:57:24Z</time>
      </trkpt>
      <trkpt lat="49.20728" lon="-0.67597">
        <ele>97.4</ele>
        <time>2023-05-25T12:57:25Z</time>
      </trkpt>
      <trkpt lat="49.2073" lon="-0.67606">
        <ele>97.2</ele>
        <time>2023-05-25T12:57:26Z</time>
      </trkpt>
      <trkpt lat="49.20732" lon="-0.67615">
        <ele>97</ele>
        <time>2023-05-25T12:57:27Z</time>
      </trkpt>
      <trkpt lat="49.20733" lon="-0.67624">
        <ele>97</ele>
        <time>2023-05-25T12:57:28Z</time>
      </trkpt>
      <trkpt lat="49.20735" lon="-0.67633">
        <ele>96.8</ele>
        <time>2023-05-25T12:57:29Z</time>
      </trkpt>
      <trkpt lat="49.20737" lon="-0.67642">
        <ele>96.6</ele>
        <time>2023-05-25T12:57:30Z</time>
      </trkpt>
      <trkpt lat="49.20739" lon="-0.67651">
        <ele>96.6</ele>
        <time>2023-05-25T12:57:31Z</time>
      </trkpt>
      <trkpt lat="49.2074" lon="-0.6766">
        <ele>96.4</ele>
        <time>2023-05-25T12:57:32Z</time>
      </trkpt>
      <trkpt lat="49.20742" lon="-0.6767">
        <ele>96.2</ele>
        <time>2023-05-25T12:57:33Z</time>
      </trkpt>
      <trkpt lat="49.20744" lon="-0.6768">
        <ele>96</ele>
        <time>2023-05-25T12:57:34Z</time>
      </trkpt>
      <trkpt lat="49.20746" lon="-0.67689">
        <ele>95.8</ele>
        <time>2023-05-25T12:57:35Z</time>
      </trkpt>
      <trkpt lat="49.20747" lon="-0.67699">
        <ele>95.6</ele>
        <time>2023-05-25T12:57:36Z</time>
      </trkpt>
      <trkpt lat="49.20749" lon="-0.67709">
        <ele>95.6</ele>
        <time>2023-05-25T12:57:37Z</time>
      </trkpt>
      <trkpt lat="49.20751" lon="-0.67719">
        <ele>95.4</ele>
        <time>2023-05-25T12:57:38Z</time>
      </trkpt>
      <trkpt lat="49.20753" lon="-0.67729">
        <ele>95.2</ele>
        <time>2023-05-25T12:57:39Z</time>
      </trkpt>
      <trkpt lat="49.20755" lon="-0.67739">
        <ele>95</ele>
        <time>2023-05-25T12:57:40Z</time>
      </trkpt>
      <trkpt lat="49.20757" lon="-0.6775">
        <ele>94.8</ele>
        <time>2023-05-25T12:57:41Z</time>
      </trkpt>
      <trkpt lat="49.20759" lon="-0.67761">
        <ele>94.8</ele>
        <time>2023-05-25T12:57:42Z</time>
      </trkpt>
      <trkpt lat="49.20761" lon="-0.67771">
        <ele>94.6</ele>
        <time>2023-05-25T12:57:43Z</time>
      </trkpt>
      <trkpt lat="49.20763" lon="-0.67782">
        <ele>94.6</ele>
        <time>2023-05-25T12:57:44Z</time>
      </trkpt>
      <trkpt lat="49.20765" lon="-0.67792">
        <ele>94.6</ele>
        <time>2023-05-25T12:57:45Z</time>
      </trkpt>
      <trkpt lat="49.20767" lon="-0.67803">
        <ele>94.6</ele>
        <time>2023-05-25T12:57:46Z</time>
      </trkpt>
      <trkpt lat="49.20768" lon="-0.67814">
        <ele>94.4</ele>
        <time>2023-05-25T12:57:47Z</time>
      </trkpt>
      <trkpt lat="49.2077" lon="-0.67824">
        <ele>94.4</ele>
        <time>2023-05-25T12:57:48Z</time>
      </trkpt>
      <trkpt lat="49.20771" lon="-0.67835">
        <ele>94.2</ele>
        <time>2023-05-25T12:57:49Z</time>
      </trkpt>
      <trkpt lat="49.20773" lon="-0.67845">
        <ele>93.8</ele>
        <time>2023-05-25T12:57:50Z</time>
      </trkpt>
      <trkpt lat="49.20774" lon="-0.67856">
        <ele>93.6</ele>
        <time>2023-05-25T12:57:51Z</time>
      </trkpt>
      <trkpt lat="49.20775" lon="-0.67867">
        <ele>93.2</ele>
        <time>2023-05-25T12:57:52Z</time>
      </trkpt>
      <trkpt lat="49.20776" lon="-0.67878">
        <ele>92.8</ele>
        <time>2023-05-25T12:57:53Z</time>
      </trkpt>
      <trkpt lat="49.20776" lon="-0.6789">
        <ele>92.6</ele>
        <time>2023-05-25T12:57:54Z</time>
      </trkpt>
      <trkpt lat="49.20777" lon="-0.67902">
        <ele>92</ele>
        <time>2023-05-25T12:57:55Z</time>
      </trkpt>
      <trkpt lat="49.20777" lon="-0.67914">
        <ele>91.8</ele>
        <time>2023-05-25T12:57:56Z</time>
      </trkpt>
      <trkpt lat="49.20777" lon="-0.67926">
        <ele>91.6</ele>
        <time>2023-05-25T12:57:57Z</time>
      </trkpt>
      <trkpt lat="49.20777" lon="-0.67939">
        <ele>91.2</ele>
        <time>2023-05-25T12:57:58Z</time>
      </trkpt>
      <trkpt lat="49.20777" lon="-0.67952">
        <ele>91</ele>
        <time>2023-05-25T12:57:59Z</time>
      </trkpt>
      <trkpt lat="49.20778" lon="-0.67965">
        <ele>90.6</ele>
        <time>2023-05-25T12:58:00Z</time>
      </trkpt>
      <trkpt lat="49.20779" lon="-0.67978">
        <ele>90</ele>
        <time>2023-05-25T12:58:01Z</time>
      </trkpt>
      <trkpt lat="49.2078" lon="-0.67992">
        <ele>89.6</ele>
        <time>2023-05-25T12:58:02Z</time>
      </trkpt>
      <trkpt lat="49.20782" lon="-0.68006">
        <ele>89.4</ele>
        <time>2023-05-25T12:58:03Z</time>
      </trkpt>
      <trkpt lat="49.20784" lon="-0.6802">
        <ele>89</ele>
        <time>2023-05-25T12:58:04Z</time>
      </trkpt>
      <trkpt lat="49.20785" lon="-0.68034">
        <ele>88.6</ele>
        <time>2023-05-25T12:58:05Z</time>
      </trkpt>
      <trkpt lat="49.20787" lon="-0.68047">
        <ele>88.4</ele>
        <time>2023-05-25T12:58:06Z</time>
      </trkpt>
      <trkpt lat="49.20789" lon="-0.68061">
        <ele>88</ele>
        <time>2023-05-25T12:58:07Z</time>
      </trkpt>
      <trkpt lat="49.20791" lon="-0.68075">
        <ele>87.6</ele>
        <time>2023-05-25T12:58:08Z</time>
      </trkpt>
      <trkpt lat="49.20792" lon="-0.68089">
        <ele>87.4</ele>
        <time>2023-05-25T12:58:09Z</time>
      </trkpt>
      <trkpt lat="49.20794" lon="-0.68102">
        <ele>86.8</ele>
        <time>2023-05-25T12:58:10Z</time>
      </trkpt>
      <trkpt lat="49.20796" lon="-0.68116">
        <ele>86.4</ele>
        <time>2023-05-25T12:58:11Z</time>
      </trkpt>
      <trkpt lat="49.20798" lon="-0.68129">
        <ele>86</ele>
        <time>2023-05-25T12:58:12Z</time>
      </trkpt>
      <trkpt lat="49.208" lon="-0.68143">
        <ele>85.6</ele>
        <time>2023-05-25T12:58:13Z</time>
      </trkpt>
      <trkpt lat="49.20801" lon="-0.68156">
        <ele>85</ele>
        <time>2023-05-25T12:58:14Z</time>
      </trkpt>
      <trkpt lat="49.20803" lon="-0.68169">
        <ele>84.6</ele>
        <time>2023-05-25T12:58:15Z</time>
      </trkpt>
      <trkpt lat="49.20805" lon="-0.68182">
        <ele>84.4</ele>
        <time>2023-05-25T12:58:16Z</time>
      </trkpt>
      <trkpt lat="49.20807" lon="-0.68195">
        <ele>84</ele>
        <time>2023-05-25T12:58:17Z</time>
      </trkpt>
      <trkpt lat="49.20808" lon="-0.68208">
        <ele>83.8</ele>
        <time>2023-05-25T12:58:18Z</time>
      </trkpt>
      <trkpt lat="49.2081" lon="-0.68222">
        <ele>83.4</ele>
        <time>2023-05-25T12:58:19Z</time>
      </trkpt>
      <trkpt lat="49.20811" lon="-0.68235">
        <ele>83</ele>
        <time>2023-05-25T12:58:20Z</time>
      </trkpt>
      <trkpt lat="49.20813" lon="-0.68248">
        <ele>82.8</ele>
        <time>2023-05-25T12:58:21Z</time>
      </trkpt>
      <trkpt lat="49.20814" lon="-0.68261">
        <ele>82.6</ele>
        <time>2023-05-25T12:58:22Z</time>
      </trkpt>
      <trkpt lat="49.20814" lon="-0.68274">
        <ele>82.6</ele>
        <time>2023-05-25T12:58:23Z</time>
      </trkpt>
      <trkpt lat="49.20815" lon="-0.68286">
        <ele>82.8</ele>
        <time>2023-05-25T12:58:24Z</time>
      </trkpt>
      <trkpt lat="49.20815" lon="-0.68299">
        <ele>82.8</ele>
        <time>2023-05-25T12:58:25Z</time>
      </trkpt>
      <trkpt lat="49.20815" lon="-0.68311">
        <ele>82.8</ele>
        <time>2023-05-25T12:58:26Z</time>
      </trkpt>
      <trkpt lat="49.20815" lon="-0.68323">
        <ele>83</ele>
        <time>2023-05-25T12:58:27Z</time>
      </trkpt>
      <trkpt lat="49.20814" lon="-0.68334">
        <ele>83</ele>
        <time>2023-05-25T12:58:28Z</time>
      </trkpt>
      <trkpt lat="49.20814" lon="-0.68346">
        <ele>82.8</ele>
        <time>2023-05-25T12:58:29Z</time>
      </trkpt>
      <trkpt lat="49.20813" lon="-0.68357">
        <ele>82.6</ele>
        <time>2023-05-25T12:58:30Z</time>
      </trkpt>
      <trkpt lat="49.20813" lon="-0.68368">
        <ele>82.6</ele>
        <time>2023-05-25T12:58:31Z</time>
      </trkpt>
      <trkpt lat="49.20813" lon="-0.68379">
        <ele>82.6</ele>
        <time>2023-05-25T12:58:32Z</time>
      </trkpt>
      <trkpt lat="49.20812" lon="-0.6839">
        <ele>82.4</ele>
        <time>2023-05-25T12:58:33Z</time>
      </trkpt>
      <trkpt lat="49.20812" lon="-0.68401">
        <ele>82.2</ele>
        <time>2023-05-25T12:58:34Z</time>
      </trkpt>
      <trkpt lat="49.20812" lon="-0.68412">
        <ele>82</ele>
        <time>2023-05-25T12:58:35Z</time>
      </trkpt>
      <trkpt lat="49.20811" lon="-0.68422">
        <ele>82</ele>
        <time>2023-05-25T12:58:36Z</time>
      </trkpt>
      <trkpt lat="49.20811" lon="-0.68433">
        <ele>82.2</ele>
        <time>2023-05-25T12:58:37Z</time>
      </trkpt>
      <trkpt lat="49.20811" lon="-0.68444">
        <ele>82.2</ele>
        <time>2023-05-25T12:58:38Z</time>
      </trkpt>
      <trkpt lat="49.2081" lon="-0.68455">
        <ele>82.4</ele>
        <time>2023-05-25T12:58:39Z</time>
      </trkpt>
      <trkpt lat="49.2081" lon="-0.68467">
        <ele>82.4</ele>
        <time>2023-05-25T12:58:40Z</time>
      </trkpt>
      <trkpt lat="49.20809" lon="-0.68478">
        <ele>82.6</ele>
        <time>2023-05-25T12:58:41Z</time>
      </trkpt>
      <trkpt lat="49.20809" lon="-0.68489">
        <ele>82.6</ele>
        <time>2023-05-25T12:58:42Z</time>
      </trkpt>
      <trkpt lat="49.20808" lon="-0.685">
        <ele>82.6</ele>
        <time>2023-05-25T12:58:43Z</time>
      </trkpt>
      <trkpt lat="49.20807" lon="-0.68511">
        <ele>82.4</ele>
        <time>2023-05-25T12:58:44Z</time>
      </trkpt>
      <trkpt lat="49.20807" lon="-0.68522">
        <ele>82.4</ele>
        <time>2023-05-25T12:58:45Z</time>
      </trkpt>
      <trkpt lat="49.20806" lon="-0.68534">
        <ele>82</ele>
        <time>2023-05-25T12:58:46Z</time>
      </trkpt>
      <trkpt lat="49.20806" lon="-0.68545">
        <ele>82</ele>
        <time>2023-05-25T12:58:47Z</time>
      </trkpt>
      <trkpt lat="49.20805" lon="-0.68556">
        <ele>81.8</ele>
        <time>2023-05-25T12:58:48Z</time>
      </trkpt>
      <trkpt lat="49.20804" lon="-0.68567">
        <ele>81.6</ele>
        <time>2023-05-25T12:58:49Z</time>
      </trkpt>
      <trkpt lat="49.20804" lon="-0.68578">
        <ele>81.6</ele>
        <time>2023-05-25T12:58:50Z</time>
      </trkpt>
      <trkpt lat="49.20803" lon="-0.68589">
        <ele>81.6</ele>
        <time>2023-05-25T12:58:51Z</time>
      </trkpt>
      <trkpt lat="49.20803" lon="-0.686">
        <ele>81.6</ele>
        <time>2023-05-25T12:58:52Z</time>
      </trkpt>
      <trkpt lat="49.20803" lon="-0.68611">
        <ele>81.6</ele>
        <time>2023-05-25T12:58:53Z</time>
      </trkpt>
      <trkpt lat="49.20802" lon="-0.68622">
        <ele>81.6</ele>
        <time>2023-05-25T12:58:54Z</time>
      </trkpt>
      <trkpt lat="49.20802" lon="-0.68633">
        <ele>81.6</ele>
        <time>2023-05-25T12:58:55Z</time>
      </trkpt>
      <trkpt lat="49.20801" lon="-0.68643">
        <ele>81.8</ele>
        <time>2023-05-25T12:58:56Z</time>
      </trkpt>
      <trkpt lat="49.20801" lon="-0.68654">
        <ele>82</ele>
        <time>2023-05-25T12:58:57Z</time>
      </trkpt>
      <trkpt lat="49.208" lon="-0.68664">
        <ele>82</ele>
        <time>2023-05-25T12:58:58Z</time>
      </trkpt>
      <trkpt lat="49.208" lon="-0.68675">
        <ele>82</ele>
        <time>2023-05-25T12:58:59Z</time>
      </trkpt>
      <trkpt lat="49.20799" lon="-0.68685">
        <ele>81.8</ele>
        <time>2023-05-25T12:59:00Z</time>
      </trkpt>
      <trkpt lat="49.20798" lon="-0.68695">
        <ele>81.6</ele>
        <time>2023-05-25T12:59:01Z</time>
      </trkpt>
      <trkpt lat="49.20797" lon="-0.68705">
        <ele>81.6</ele>
        <time>2023-05-25T12:59:02Z</time>
      </trkpt>
      <trkpt lat="49.20796" lon="-0.68715">
        <ele>81.4</ele>
        <time>2023-05-25T12:59:03Z</time>
      </trkpt>
      <trkpt lat="49.20796" lon="-0.68725">
        <ele>81.4</ele>
        <time>2023-05-25T12:59:04Z</time>
      </trkpt>
      <trkpt lat="49.20795" lon="-0.68735">
        <ele>81</ele>
        <time>2023-05-25T12:59:05Z</time>
      </trkpt>
      <trkpt lat="49.20794" lon="-0.68744">
        <ele>81</ele>
        <time>2023-05-25T12:59:06Z</time>
      </trkpt>
      <trkpt lat="49.20793" lon="-0.68754">
        <ele>80.8</ele>
        <time>2023-05-25T12:59:07Z</time>
      </trkpt>
      <trkpt lat="49.20793" lon="-0.68763">
        <ele>80.6</ele>
        <time>2023-05-25T12:59:08Z</time>
      </trkpt>
      <trkpt lat="49.20792" lon="-0.68773">
        <ele>80.4</ele>
        <time>2023-05-25T12:59:09Z</time>
      </trkpt>
      <trkpt lat="49.20791" lon="-0.68782">
        <ele>80.4</ele>
        <time>2023-05-25T12:59:10Z</time>
      </trkpt>
      <trkpt lat="49.2079" lon="-0.6879">
        <ele>80</ele>
        <time>2023-05-25T12:59:11Z</time>
      </trkpt>
      <trkpt lat="49.20788" lon="-0.68798">
        <ele>80</ele>
        <time>2023-05-25T12:59:12Z</time>
      </trkpt>
      <trkpt lat="49.20787" lon="-0.68805">
        <ele>80</ele>
        <time>2023-05-25T12:59:13Z</time>
      </trkpt>
      <trkpt lat="49.20785" lon="-0.68811">
        <ele>80</ele>
        <time>2023-05-25T12:59:14Z</time>
      </trkpt>
      <trkpt lat="49.20784" lon="-0.68815">
        <ele>80</ele>
        <time>2023-05-25T12:59:15Z</time>
      </trkpt>
      <trkpt lat="49.20784" lon="-0.68817">
        <ele>80</ele>
        <time>2023-05-25T12:59:16Z</time>
      </trkpt>
      <trkpt lat="49.20784" lon="-0.68817">
        <ele>80</ele>
        <time>2023-05-25T12:59:17Z</time>
      </trkpt>
      <trkpt lat="49.20784" lon="-0.68816">
        <ele>80</ele>
        <time>2023-05-25T12:59:18Z</time>
      </trkpt>
      <trkpt lat="49.20784" lon="-0.68816">
        <ele>80</ele>
        <time>2023-05-25T12:59:19Z</time>
      </trkpt>
      <trkpt lat="49.20784" lon="-0.68816">
        <ele>80</ele>
        <time>2023-05-25T12:59:20Z</time>
      </trkpt>
      <trkpt lat="49.20784" lon="-0.68817">
        <ele>80</ele>
        <time>2023-05-25T12:59:21Z</time>
      </trkpt>
      <trkpt lat="49.20783" lon="-0.6882">
        <ele>80</ele>
        <time>2023-05-25T12:59:22Z</time>
      </trkpt>
      <trkpt lat="49.20783" lon="-0.68822">
        <ele>80</ele>
        <time>2023-05-25T12:59:23Z</time>
      </trkpt>
      <trkpt lat="49.20783" lon="-0.68825">
        <ele>79.8</ele>
        <time>2023-05-25T12:59:24Z</time>
      </trkpt>
      <trkpt lat="49.20783" lon="-0.68826">
        <ele>79.6</ele>
        <time>2023-05-25T12:59:25Z</time>
      </trkpt>
      <trkpt lat="49.20784" lon="-0.68828">
        <ele>79.6</ele>
        <time>2023-05-25T12:59:26Z</time>
      </trkpt>
      <trkpt lat="49.20784" lon="-0.68828">
        <ele>79.6</ele>
        <time>2023-05-25T12:59:27Z</time>
      </trkpt>
      <trkpt lat="49.20784" lon="-0.68828">
        <ele>79.6</ele>
        <time>2023-05-25T12:59:28Z</time>
      </trkpt>
      <trkpt lat="49.20784" lon="-0.68828">
        <ele>79.6</ele>
        <time>2023-05-25T12:59:29Z</time>
      </trkpt>
      <trkpt lat="49.20784" lon="-0.68828">
        <ele>79.6</ele>
        <time>2023-05-25T12:59:30Z</time>
      </trkpt>
      <trkpt lat="49.20784" lon="-0.68828">
        <ele>79.6</ele>
        <time>2023-05-25T12:59:31Z</time>
      </trkpt>
      <trkpt lat="49.20784" lon="-0.68828">
        <ele>79.6</ele>
        <time>2023-05-25T12:59:32Z</time>
      </trkpt>
      <trkpt lat="49.20784" lon="-0.68828">
        <ele>79.6</ele>
        <time>2023-05-25T13:03:22Z</time>
      </trkpt>
      <trkpt lat="49.20784" lon="-0.68828">
        <ele>79.6</ele>
        <time>2023-05-25T13:03:23Z</time>
      </trkpt>
      <trkpt lat="49.20784" lon="-0.68828">
        <ele>79.6</ele>
        <time>2023-05-25T13:03:24Z</time>
      </trkpt>
      <trkpt lat="49.20784" lon="-0.68829">
        <ele>79.6</ele>
        <time>2023-05-25T13:03:25Z</time>
      </trkpt>
      <trkpt lat="49.20784" lon="-0.68829">
        <ele>79.6</ele>
        <time>2023-05-25T13:03:26Z</time>
      </trkpt>
      <trkpt lat="49.20784" lon="-0.68829">
        <ele>79.6</ele>
        <time>2023-05-25T13:03:27Z</time>
      </trkpt>
      <trkpt lat="49.20784" lon="-0.68829">
        <ele>79.6</ele>
        <time>2023-05-25T13:03:28Z</time>
      </trkpt>
      <trkpt lat="49.20784" lon="-0.68828">
        <ele>79.6</ele>
        <time>2023-05-25T13:03:29Z</time>
      </trkpt>
      <trkpt lat="49.20784" lon="-0.68828">
        <ele>79.6</ele>
        <time>2023-05-25T13:03:30Z</time>
      </trkpt>
      <trkpt lat="49.20786" lon="-0.68827">
        <ele>79.6</ele>
        <time>2023-05-25T13:03:31Z</time>
      </trkpt>
      <trkpt lat="49.20787" lon="-0.68825">
        <ele>79.6</ele>
        <time>2023-05-25T13:03:32Z</time>
      </trkpt>
      <trkpt lat="49.20787" lon="-0.68822">
        <ele>79.6</ele>
        <time>2023-05-25T13:03:33Z</time>
      </trkpt>
      <trkpt lat="49.20788" lon="-0.68819">
        <ele>79.6</ele>
        <time>2023-05-25T13:03:34Z</time>
      </trkpt>
      <trkpt lat="49.20788" lon="-0.68815">
        <ele>79.6</ele>
        <time>2023-05-25T13:03:35Z</time>
      </trkpt>
      <trkpt lat="49.20789" lon="-0.6881">
        <ele>79.8</ele>
        <time>2023-05-25T13:03:36Z</time>
      </trkpt>
      <trkpt lat="49.20789" lon="-0.68805">
        <ele>79.8</ele>
        <time>2023-05-25T13:03:37Z</time>
      </trkpt>
      <trkpt lat="49.2079" lon="-0.688">
        <ele>80</ele>
        <time>2023-05-25T13:03:38Z</time>
      </trkpt>
      <trkpt lat="49.2079" lon="-0.68795">
        <ele>80</ele>
        <time>2023-05-25T13:03:39Z</time>
      </trkpt>
      <trkpt lat="49.20791" lon="-0.68789">
        <ele>80</ele>
        <time>2023-05-25T13:03:40Z</time>
      </trkpt>
      <trkpt lat="49.20792" lon="-0.68783">
        <ele>80.2</ele>
        <time>2023-05-25T13:03:41Z</time>
      </trkpt>
      <trkpt lat="49.20792" lon="-0.68777">
        <ele>80.4</ele>
        <time>2023-05-25T13:03:42Z</time>
      </trkpt>
      <trkpt lat="49.20793" lon="-0.6877">
        <ele>80.4</ele>
        <time>2023-05-25T13:03:43Z</time>
      </trkpt>
      <trkpt lat="49.20794" lon="-0.68763">
        <ele>80.6</ele>
        <time>2023-05-25T13:03:44Z</time>
      </trkpt>
      <trkpt lat="49.20794" lon="-0.68756">
        <ele>80.6</ele>
        <time>2023-05-25T13:03:45Z</time>
      </trkpt>
      <trkpt lat="49.20794" lon="-0.68749">
        <ele>81</ele>
        <time>2023-05-25T13:03:46Z</time>
      </trkpt>
      <trkpt lat="49.20795" lon="-0.68741">
        <ele>81</ele>
        <time>2023-05-25T13:03:47Z</time>
      </trkpt>
      <trkpt lat="49.20795" lon="-0.68734">
        <ele>81</ele>
        <time>2023-05-25T13:03:48Z</time>
      </trkpt>
      <trkpt lat="49.20796" lon="-0.68727">
        <ele>81.2</ele>
        <time>2023-05-25T13:03:49Z</time>
      </trkpt>
      <trkpt lat="49.20797" lon="-0.68719">
        <ele>81.4</ele>
        <time>2023-05-25T13:03:50Z</time>
      </trkpt>
      <trkpt lat="49.20797" lon="-0.68712">
        <ele>81.4</ele>
        <time>2023-05-25T13:03:51Z</time>
      </trkpt>
      <trkpt lat="49.20798" lon="-0.68704">
        <ele>81.6</ele>
        <time>2023-05-25T13:03:52Z</time>
      </trkpt>
      <trkpt lat="49.20799" lon="-0.68697">
        <ele>81.6</ele>
        <time>2023-05-25T13:03:53Z</time>
      </trkpt>
      <trkpt lat="49.20799" lon="-0.68689">
        <ele>81.6</ele>
        <time>2023-05-25T13:03:54Z</time>
      </trkpt>
      <trkpt lat="49.208" lon="-0.68681">
        <ele>81.8</ele>
        <time>2023-05-25T13:03:55Z</time>
      </trkpt>
      <trkpt lat="49.208" lon="-0.68674">
        <ele>82</ele>
        <time>2023-05-25T13:03:56Z</time>
      </trkpt>
      <trkpt lat="49.20801" lon="-0.68666">
        <ele>82</ele>
        <time>2023-05-25T13:03:57Z</time>
      </trkpt>
      <trkpt lat="49.20802" lon="-0.68658">
        <ele>82</ele>
        <time>2023-05-25T13:03:58Z</time>
      </trkpt>
      <trkpt lat="49.20802" lon="-0.6865">
        <ele>81.8</ele>
        <time>2023-05-25T13:03:59Z</time>
      </trkpt>
      <trkpt lat="49.20803" lon="-0.68642">
        <ele>81.6</ele>
        <time>2023-05-25T13:04:00Z</time>
      </trkpt>
      <trkpt lat="49.20803" lon="-0.68633">
        <ele>81.6</ele>
        <time>2023-05-25T13:04:01Z</time>
      </trkpt>
      <trkpt lat="49.20804" lon="-0.68625">
        <ele>81.6</ele>
        <time>2023-05-25T13:04:02Z</time>
      </trkpt>
      <trkpt lat="49.20804" lon="-0.68617">
        <ele>81.6</ele>
        <time>2023-05-25T13:04:03Z</time>
      </trkpt>
      <trkpt lat="49.20804" lon="-0.68609">
        <ele>81.6</ele>
        <time>2023-05-25T13:04:04Z</time>
      </trkpt>
      <trkpt lat="49.20805" lon="-0.68601">
        <ele>81.4</ele>
        <time>2023-05-25T13:04:05Z</time>
      </trkpt>
      <trkpt lat="49.20805" lon="-0.68593">
        <ele>81.4</ele>
        <time>2023-05-25T13:04:06Z</time>
      </trkpt>
      <trkpt lat="49.20805" lon="-0.68585">
        <ele>81.4</ele>
        <time>2023-05-25T13:04:07Z</time>
      </trkpt>
      <trkpt lat="49.20806" lon="-0.68576">
        <ele>81.4</ele>
        <time>2023-05-25T13:04:08Z</time>
      </trkpt>
      <trkpt lat="49.20806" lon="-0.68568">
        <ele>81.6</ele>
        <time>2023-05-25T13:04:09Z</time>
      </trkpt>
      <trkpt lat="49.20806" lon="-0.6856">
        <ele>81.6</ele>
        <time>2023-05-25T13:04:10Z</time>
      </trkpt>
      <trkpt lat="49.20806" lon="-0.68553">
        <ele>81.8</ele>
        <time>2023-05-25T13:04:11Z</time>
      </trkpt>
      <trkpt lat="49.20807" lon="-0.68545">
        <ele>82</ele>
        <time>2023-05-25T13:04:12Z</time>
      </trkpt>
      <trkpt lat="49.20807" lon="-0.68537">
        <ele>82</ele>
        <time>2023-05-25T13:04:13Z</time>
      </trkpt>
      <trkpt lat="49.20808" lon="-0.68529">
        <ele>82</ele>
        <time>2023-05-25T13:04:14Z</time>
      </trkpt>
      <trkpt lat="49.20808" lon="-0.68521">
        <ele>82.2</ele>
        <time>2023-05-25T13:04:15Z</time>
      </trkpt>
      <trkpt lat="49.20809" lon="-0.68514">
        <ele>82.4</ele>
        <time>2023-05-25T13:04:16Z</time>
      </trkpt>
      <trkpt lat="49.20809" lon="-0.68507">
        <ele>82.6</ele>
        <time>2023-05-25T13:04:17Z</time>
      </trkpt>
      <trkpt lat="49.20809" lon="-0.68499">
        <ele>82.6</ele>
        <time>2023-05-25T13:04:18Z</time>
      </trkpt>
      <trkpt lat="49.2081" lon="-0.68492">
        <ele>82.6</ele>
        <time>2023-05-25T13:04:19Z</time>
      </trkpt>
      <trkpt lat="49.2081" lon="-0.68484">
        <ele>82.6</ele>
        <time>2023-05-25T13:04:20Z</time>
      </trkpt>
      <trkpt lat="49.2081" lon="-0.68477">
        <ele>82.4</ele>
        <time>2023-05-25T13:04:21Z</time>
      </trkpt>
      <trkpt lat="49.2081" lon="-0.6847">
        <ele>82.4</ele>
        <time>2023-05-25T13:04:22Z</time>
      </trkpt>
      <trkpt lat="49.2081" lon="-0.68463">
        <ele>82.4</ele>
        <time>2023-05-25T13:04:23Z</time>
      </trkpt>
      <trkpt lat="49.20811" lon="-0.68455">
        <ele>82.4</ele>
        <time>2023-05-25T13:04:24Z</time>
      </trkpt>
      <trkpt lat="49.20811" lon="-0.68448">
        <ele>82.2</ele>
        <time>2023-05-25T13:04:25Z</time>
      </trkpt>
      <trkpt lat="49.20811" lon="-0.68441">
        <ele>82.2</ele>
        <time>2023-05-25T13:04:26Z</time>
      </trkpt>
      <trkpt lat="49.20812" lon="-0.68433">
        <ele>82</ele>
        <time>2023-05-25T13:04:27Z</time>
      </trkpt>
      <trkpt lat="49.20812" lon="-0.68426">
        <ele>82</ele>
        <time>2023-05-25T13:04:28Z</time>
      </trkpt>
      <trkpt lat="49.20812" lon="-0.68418">
        <ele>82</ele>
        <time>2023-05-25T13:04:29Z</time>
      </trkpt>
      <trkpt lat="49.20813" lon="-0.68411">
        <ele>82</ele>
        <time>2023-05-25T13:04:30Z</time>
      </trkpt>
      <trkpt lat="49.20813" lon="-0.68403">
        <ele>82</ele>
        <time>2023-05-25T13:04:31Z</time>
      </trkpt>
      <trkpt lat="49.20813" lon="-0.68395">
        <ele>82.2</ele>
        <time>2023-05-25T13:04:32Z</time>
      </trkpt>
      <trkpt lat="49.20813" lon="-0.68387">
        <ele>82.4</ele>
        <time>2023-05-25T13:04:33Z</time>
      </trkpt>
      <trkpt lat="49.20814" lon="-0.68379">
        <ele>82.4</ele>
        <time>2023-05-25T13:04:34Z</time>
      </trkpt>
      <trkpt lat="49.20814" lon="-0.68371">
        <ele>82.6</ele>
        <time>2023-05-25T13:04:35Z</time>
      </trkpt>
      <trkpt lat="49.20814" lon="-0.68363">
        <ele>82.6</ele>
        <time>2023-05-25T13:04:36Z</time>
      </trkpt>
      <trkpt lat="49.20815" lon="-0.68355">
        <ele>82.6</ele>
        <time>2023-05-25T13:04:37Z</time>
      </trkpt>
      <trkpt lat="49.20815" lon="-0.68347">
        <ele>82.6</ele>
        <time>2023-05-25T13:04:38Z</time>
      </trkpt>
      <trkpt lat="49.20815" lon="-0.68338">
        <ele>82.8</ele>
        <time>2023-05-25T13:04:39Z</time>
      </trkpt>
      <trkpt lat="49.20815" lon="-0.6833">
        <ele>83</ele>
        <time>2023-05-25T13:04:40Z</time>
      </trkpt>
      <trkpt lat="49.20815" lon="-0.68321">
        <ele>82.8</ele>
        <time>2023-05-25T13:04:41Z</time>
      </trkpt>
      <trkpt lat="49.20816" lon="-0.68312">
        <ele>82.8</ele>
        <time>2023-05-25T13:04:42Z</time>
      </trkpt>
      <trkpt lat="49.20816" lon="-0.68303">
        <ele>82.8</ele>
        <time>2023-05-25T13:04:43Z</time>
      </trkpt>
      <trkpt lat="49.20816" lon="-0.68293">
        <ele>82.8</ele>
        <time>2023-05-25T13:04:44Z</time>
      </trkpt>
      <trkpt lat="49.20815" lon="-0.68284">
        <ele>82.6</ele>
        <time>2023-05-25T13:04:45Z</time>
      </trkpt>
      <trkpt lat="49.20815" lon="-0.68274">
        <ele>82.6</ele>
        <time>2023-05-25T13:04:46Z</time>
      </trkpt>
      <trkpt lat="49.20814" lon="-0.68265">
        <ele>82.6</ele>
        <time>2023-05-25T13:04:47Z</time>
      </trkpt>
      <trkpt lat="49.20813" lon="-0.68255">
        <ele>82.6</ele>
        <time>2023-05-25T13:04:48Z</time>
      </trkpt>
      <trkpt lat="49.20812" lon="-0.68246">
        <ele>82.8</ele>
        <time>2023-05-25T13:04:49Z</time>
      </trkpt>
      <trkpt lat="49.20811" lon="-0.68237">
        <ele>83</ele>
        <time>2023-05-25T13:04:50Z</time>
      </trkpt>
      <trkpt lat="49.2081" lon="-0.68228">
        <ele>83.4</ele>
        <time>2023-05-25T13:04:51Z</time>
      </trkpt>
      <trkpt lat="49.20809" lon="-0.6822">
        <ele>83.6</ele>
        <time>2023-05-25T13:04:52Z</time>
      </trkpt>
      <trkpt lat="49.20808" lon="-0.68212">
        <ele>83.6</ele>
        <time>2023-05-25T13:04:53Z</time>
      </trkpt>
      <trkpt lat="49.20807" lon="-0.68203">
        <ele>84</ele>
        <time>2023-05-25T13:04:54Z</time>
      </trkpt>
      <trkpt lat="49.20806" lon="-0.68195">
        <ele>84</ele>
        <time>2023-05-25T13:04:55Z</time>
      </trkpt>
      <trkpt lat="49.20805" lon="-0.68188">
        <ele>84.4</ele>
        <time>2023-05-25T13:04:56Z</time>
      </trkpt>
      <trkpt lat="49.20804" lon="-0.6818">
        <ele>84.4</ele>
        <time>2023-05-25T13:04:57Z</time>
      </trkpt>
      <trkpt lat="49.20803" lon="-0.68173">
        <ele>84.6</ele>
        <time>2023-05-25T13:04:58Z</time>
      </trkpt>
      <trkpt lat="49.20802" lon="-0.68166">
        <ele>84.8</ele>
        <time>2023-05-25T13:04:59Z</time>
      </trkpt>
      <trkpt lat="49.20801" lon="-0.68159">
        <ele>85</ele>
        <time>2023-05-25T13:05:00Z</time>
      </trkpt>
      <trkpt lat="49.208" lon="-0.68152">
        <ele>85.2</ele>
        <time>2023-05-25T13:05:01Z</time>
      </trkpt>
      <trkpt lat="49.20799" lon="-0.68145">
        <ele>85.6</ele>
        <time>2023-05-25T13:05:02Z</time>
      </trkpt>
      <trkpt lat="49.20798" lon="-0.68138">
        <ele>85.6</ele>
        <time>2023-05-25T13:05:03Z</time>
      </trkpt>
      <trkpt lat="49.20797" lon="-0.68131">
        <ele>86</ele>
        <time>2023-05-25T13:05:04Z</time>
      </trkpt>
      <trkpt lat="49.20796" lon="-0.68125">
        <ele>86</ele>
        <time>2023-05-25T13:05:05Z</time>
      </trkpt>
      <trkpt lat="49.20795" lon="-0.68118">
        <ele>86.4</ele>
        <time>2023-05-25T13:05:06Z</time>
      </trkpt>
      <trkpt lat="49.20794" lon="-0.68112">
        <ele>86.6</ele>
        <time>2023-05-25T13:05:07Z</time>
      </trkpt>
      <trkpt lat="49.20793" lon="-0.68105">
        <ele>86.8</ele>
        <time>2023-05-25T13:05:08Z</time>
      </trkpt>
      <trkpt lat="49.20792" lon="-0.68099">
        <ele>87</ele>
        <time>2023-05-25T13:05:09Z</time>
      </trkpt>
      <trkpt lat="49.20791" lon="-0.68093">
        <ele>87.2</ele>
        <time>2023-05-25T13:05:10Z</time>
      </trkpt>
      <trkpt lat="49.2079" lon="-0.68086">
        <ele>87.6</ele>
        <time>2023-05-25T13:05:11Z</time>
      </trkpt>
      <trkpt lat="49.20789" lon="-0.6808">
        <ele>87.6</ele>
        <time>2023-05-25T13:05:12Z</time>
      </trkpt>
      <trkpt lat="49.20788" lon="-0.68074">
        <ele>87.8</ele>
        <time>2023-05-25T13:05:13Z</time>
      </trkpt>
      <trkpt lat="49.20787" lon="-0.68067">
        <ele>88</ele>
        <time>2023-05-25T13:05:14Z</time>
      </trkpt>
      <trkpt lat="49.20786" lon="-0.68061">
        <ele>88</ele>
        <time>2023-05-25T13:05:15Z</time>
      </trkpt>
      <trkpt lat="49.20785" lon="-0.68055">
        <ele>88.4</ele>
        <time>2023-05-25T13:05:16Z</time>
      </trkpt>
      <trkpt lat="49.20784" lon="-0.68049">
        <ele>88.4</ele>
        <time>2023-05-25T13:05:17Z</time>
      </trkpt>
      <trkpt lat="49.20783" lon="-0.68043">
        <ele>88.6</ele>
        <time>2023-05-25T13:05:18Z</time>
      </trkpt>
      <trkpt lat="49.20783" lon="-0.68037">
        <ele>88.6</ele>
        <time>2023-05-25T13:05:19Z</time>
      </trkpt>
      <trkpt lat="49.20782" lon="-0.68031">
        <ele>89</ele>
        <time>2023-05-25T13:05:20Z</time>
      </trkpt>
      <trkpt lat="49.20781" lon="-0.68026">
        <ele>89</ele>
        <time>2023-05-25T13:05:21Z</time>
      </trkpt>
      <trkpt lat="49.2078" lon="-0.6802">
        <ele>89.2</ele>
        <time>2023-05-25T13:05:22Z</time>
      </trkpt>
      <trkpt lat="49.20779" lon="-0.68014">
        <ele>89.4</ele>
        <time>2023-05-25T13:05:23Z</time>
      </trkpt>
      <trkpt lat="49.20779" lon="-0.68009">
        <ele>89.6</ele>
        <time>2023-05-25T13:05:24Z</time>
      </trkpt>
      <trkpt lat="49.20778" lon="-0.68003">
        <ele>89.6</ele>
        <time>2023-05-25T13:05:25Z</time>
      </trkpt>
      <trkpt lat="49.20777" lon="-0.67997">
        <ele>89.8</ele>
        <time>2023-05-25T13:05:26Z</time>
      </trkpt>
      <trkpt lat="49.20776" lon="-0.67992">
        <ele>90</ele>
        <time>2023-05-25T13:05:27Z</time>
      </trkpt>
      <trkpt lat="49.20776" lon="-0.67986">
        <ele>90</ele>
        <time>2023-05-25T13:05:28Z</time>
      </trkpt>
      <trkpt lat="49.20775" lon="-0.67981">
        <ele>90.4</ele>
        <time>2023-05-25T13:05:29Z</time>
      </trkpt>
      <trkpt lat="49.20774" lon="-0.67975">
        <ele>90.4</ele>
        <time>2023-05-25T13:05:30Z</time>
      </trkpt>
      <trkpt lat="49.20774" lon="-0.6797">
        <ele>90.6</ele>
        <time>2023-05-25T13:05:31Z</time>
      </trkpt>
      <trkpt lat="49.20774" lon="-0.67965">
        <ele>90.6</ele>
        <time>2023-05-25T13:05:32Z</time>
      </trkpt>
      <trkpt lat="49.20773" lon="-0.6796">
        <ele>91</ele>
        <time>2023-05-25T13:05:33Z</time>
      </trkpt>
      <trkpt lat="49.20773" lon="-0.67955">
        <ele>91</ele>
        <time>2023-05-25T13:05:34Z</time>
      </trkpt>
      <trkpt lat="49.20773" lon="-0.67951">
        <ele>91</ele>
        <time>2023-05-25T13:05:35Z</time>
      </trkpt>
      <trkpt lat="49.20773" lon="-0.67946">
        <ele>91.2</ele>
        <time>2023-05-25T13:05:36Z</time>
      </trkpt>
      <trkpt lat="49.20773" lon="-0.67942">
        <ele>91.4</ele>
        <time>2023-05-25T13:05:37Z</time>
      </trkpt>
      <trkpt lat="49.20773" lon="-0.67938">
        <ele>91.4</ele>
        <time>2023-05-25T13:05:38Z</time>
      </trkpt>
      <trkpt lat="49.20773" lon="-0.67933">
        <ele>91.6</ele>
        <time>2023-05-25T13:05:39Z</time>
      </trkpt>
      <trkpt lat="49.20773" lon="-0.67928">
        <ele>91.6</ele>
        <time>2023-05-25T13:05:40Z</time>
      </trkpt>
      <trkpt lat="49.20773" lon="-0.67923">
        <ele>91.6</ele>
        <time>2023-05-25T13:05:41Z</time>
      </trkpt>
      <trkpt lat="49.20773" lon="-0.67918">
        <ele>91.8</ele>
        <time>2023-05-25T13:05:42Z</time>
      </trkpt>
      <trkpt lat="49.20773" lon="-0.67913">
        <ele>92</ele>
        <time>2023-05-25T13:05:43Z</time>
      </trkpt>
      <trkpt lat="49.20773" lon="-0.67909">
        <ele>92</ele>
        <time>2023-05-25T13:05:44Z</time>
      </trkpt>
      <trkpt lat="49.20773" lon="-0.67904">
        <ele>92.2</ele>
        <time>2023-05-25T13:05:45Z</time>
      </trkpt>
      <trkpt lat="49.20773" lon="-0.67899">
        <ele>92.4</ele>
        <time>2023-05-25T13:05:46Z</time>
      </trkpt>
      <trkpt lat="49.20773" lon="-0.67894">
        <ele>92.6</ele>
        <time>2023-05-25T13:05:47Z</time>
      </trkpt>
      <trkpt lat="49.20773" lon="-0.67889">
        <ele>92.6</ele>
        <time>2023-05-25T13:05:48Z</time>
      </trkpt>
      <trkpt lat="49.20773" lon="-0.67884">
        <ele>92.8</ele>
        <time>2023-05-25T13:05:49Z</time>
      </trkpt>
      <trkpt lat="49.20773" lon="-0.6788">
        <ele>93</ele>
        <time>2023-05-25T13:05:50Z</time>
      </trkpt>
      <trkpt lat="49.20773" lon="-0.67875">
        <ele>93</ele>
        <time>2023-05-25T13:05:51Z</time>
      </trkpt>
      <trkpt lat="49.20772" lon="-0.6787">
        <ele>93.2</ele>
        <time>2023-05-25T13:05:52Z</time>
      </trkpt>
      <trkpt lat="49.20772" lon="-0.67865">
        <ele>93.4</ele>
        <time>2023-05-25T13:05:53Z</time>
      </trkpt>
      <trkpt lat="49.20771" lon="-0.6786">
        <ele>93.6</ele>
        <time>2023-05-25T13:05:54Z</time>
      </trkpt>
      <trkpt lat="49.20771" lon="-0.67855">
        <ele>93.6</ele>
        <time>2023-05-25T13:05:55Z</time>
      </trkpt>
      <trkpt lat="49.2077" lon="-0.67851">
        <ele>93.8</ele>
        <time>2023-05-25T13:05:56Z</time>
      </trkpt>
      <trkpt lat="49.2077" lon="-0.67845">
        <ele>94</ele>
        <time>2023-05-25T13:05:57Z</time>
      </trkpt>
      <trkpt lat="49.20769" lon="-0.67841">
        <ele>94</ele>
        <time>2023-05-25T13:05:58Z</time>
      </trkpt>
      <trkpt lat="49.20769" lon="-0.67835">
        <ele>94.4</ele>
        <time>2023-05-25T13:05:59Z</time>
      </trkpt>
      <trkpt lat="49.20768" lon="-0.6783">
        <ele>94.4</ele>
        <time>2023-05-25T13:06:00Z</time>
      </trkpt>
      <trkpt lat="49.20767" lon="-0.67825">
        <ele>94.4</ele>
        <time>2023-05-25T13:06:01Z</time>
      </trkpt>
      <trkpt lat="49.20766" lon="-0.6782">
        <ele>94.4</ele>
        <time>2023-05-25T13:06:02Z</time>
      </trkpt>
      <trkpt lat="49.20766" lon="-0.67815">
        <ele>94.6</ele>
        <time>2023-05-25T13:06:03Z</time>
      </trkpt>
      <trkpt lat="49.20765" lon="-0.67809">
        <ele>94.6</ele>
        <time>2023-05-25T13:06:04Z</time>
      </trkpt>
      <trkpt lat="49.20764" lon="-0.67804">
        <ele>94.6</ele>
        <time>2023-05-25T13:06:05Z</time>
      </trkpt>
      <trkpt lat="49.20763" lon="-0.67798">
        <ele>94.6</ele>
        <time>2023-05-25T13:06:06Z</time>
      </trkpt>
      <trkpt lat="49.20762" lon="-0.67793">
        <ele>94.6</ele>
        <time>2023-05-25T13:06:07Z</time>
      </trkpt>
      <trkpt lat="49.20761" lon="-0.67788">
        <ele>94.6</ele>
        <time>2023-05-25T13:06:08Z</time>
      </trkpt>
      <trkpt lat="49.2076" lon="-0.67782">
        <ele>94.6</ele>
        <time>2023-05-25T13:06:09Z</time>
      </trkpt>
      <trkpt lat="49.20759" lon="-0.67776">
        <ele>94.6</ele>
        <time>2023-05-25T13:06:10Z</time>
      </trkpt>
      <trkpt lat="49.20758" lon="-0.67771">
        <ele>94.8</ele>
        <time>2023-05-25T13:06:11Z</time>
      </trkpt>
      <trkpt lat="49.20757" lon="-0.67765">
        <ele>94.8</ele>
        <time>2023-05-25T13:06:12Z</time>
      </trkpt>
      <trkpt lat="49.20756" lon="-0.67759">
        <ele>94.8</ele>
        <time>2023-05-25T13:06:13Z</time>
      </trkpt>
      <trkpt lat="49.20755" lon="-0.67754">
        <ele>95</ele>
        <time>2023-05-25T13:06:14Z</time>
      </trkpt>
      <trkpt lat="49.20754" lon="-0.67748">
        <ele>95</ele>
        <time>2023-05-25T13:06:15Z</time>
      </trkpt>
      <trkpt lat="49.20753" lon="-0.67743">
        <ele>95</ele>
        <time>2023-05-25T13:06:16Z</time>
      </trkpt>
      <trkpt lat="49.20752" lon="-0.67737">
        <ele>95</ele>
        <time>2023-05-25T13:06:17Z</time>
      </trkpt>
      <trkpt lat="49.20751" lon="-0.67732">
        <ele>95.2</ele>
        <time>2023-05-25T13:06:18Z</time>
      </trkpt>
      <trkpt lat="49.2075" lon="-0.67726">
        <ele>95.4</ele>
        <time>2023-05-25T13:06:19Z</time>
      </trkpt>
      <trkpt lat="49.20748" lon="-0.6772">
        <ele>95.4</ele>
        <time>2023-05-25T13:06:20Z</time>
      </trkpt>
      <trkpt lat="49.20747" lon="-0.67715">
        <ele>95.6</ele>
        <time>2023-05-25T13:06:21Z</time>
      </trkpt>
      <trkpt lat="49.20746" lon="-0.67709">
        <ele>95.6</ele>
        <time>2023-05-25T13:06:22Z</time>
      </trkpt>
      <trkpt lat="49.20745" lon="-0.67703">
        <ele>95.6</ele>
        <time>2023-05-25T13:06:23Z</time>
      </trkpt>
      <trkpt lat="49.20744" lon="-0.67697">
        <ele>95.8</ele>
        <time>2023-05-25T13:06:24Z</time>
      </trkpt>
      <trkpt lat="49.20743" lon="-0.67692">
        <ele>96</ele>
        <time>2023-05-25T13:06:25Z</time>
      </trkpt>
      <trkpt lat="49.20742" lon="-0.67686">
        <ele>96</ele>
        <time>2023-05-25T13:06:26Z</time>
      </trkpt>
      <trkpt lat="49.20741" lon="-0.6768">
        <ele>96</ele>
        <time>2023-05-25T13:06:27Z</time>
      </trkpt>
      <trkpt lat="49.2074" lon="-0.67674">
        <ele>96.2</ele>
        <time>2023-05-25T13:06:28Z</time>
      </trkpt>
      <trkpt lat="49.20738" lon="-0.67669">
        <ele>96.4</ele>
        <time>2023-05-25T13:06:29Z</time>
      </trkpt>
      <trkpt lat="49.20737" lon="-0.67663">
        <ele>96.4</ele>
        <time>2023-05-25T13:06:30Z</time>
      </trkpt>
      <trkpt lat="49.20736" lon="-0.67657">
        <ele>96.6</ele>
        <time>2023-05-25T13:06:31Z</time>
      </trkpt>
      <trkpt lat="49.20735" lon="-0.67651">
        <ele>96.6</ele>
        <time>2023-05-25T13:06:32Z</time>
      </trkpt>
      <trkpt lat="49.20734" lon="-0.67645">
        <ele>96.6</ele>
        <time>2023-05-25T13:06:33Z</time>
      </trkpt>
      <trkpt lat="49.20733" lon="-0.67638">
        <ele>96.8</ele>
        <time>2023-05-25T13:06:34Z</time>
      </trkpt>
      <trkpt lat="49.20732" lon="-0.67632">
        <ele>97</ele>
        <time>2023-05-25T13:06:35Z</time>
      </trkpt>
      <trkpt lat="49.20731" lon="-0.67626">
        <ele>97</ele>
        <time>2023-05-25T13:06:36Z</time>
      </trkpt>
      <trkpt lat="49.20729" lon="-0.6762">
        <ele>97</ele>
        <time>2023-05-25T13:06:37Z</time>
      </trkpt>
      <trkpt lat="49.20728" lon="-0.67613">
        <ele>97.2</ele>
        <time>2023-05-25T13:06:38Z</time>
      </trkpt>
      <trkpt lat="49.20727" lon="-0.67607">
        <ele>97.4</ele>
        <time>2023-05-25T13:06:39Z</time>
      </trkpt>
      <trkpt lat="49.20725" lon="-0.676">
        <ele>97.4</ele>
        <time>2023-05-25T13:06:40Z</time>
      </trkpt>
      <trkpt lat="49.20724" lon="-0.67593">
        <ele>97.6</ele>
        <time>2023-05-25T13:06:41Z</time>
      </trkpt>
      <trkpt lat="49.20723" lon="-0.67586">
        <ele>97.6</ele>
        <time>2023-05-25T13:06:42Z</time>
      </trkpt>
      <trkpt lat="49.20721" lon="-0.6758">
        <ele>97.6</ele>
        <time>2023-05-25T13:06:43Z</time>
      </trkpt>
      <trkpt lat="49.2072" lon="-0.67573">
        <ele>97.6</ele>
        <time>2023-05-25T13:06:44Z</time>
      </trkpt>
      <trkpt lat="49.20718" lon="-0.67566">
        <ele>97.6</ele>
        <time>2023-05-25T13:06:45Z</time>
      </trkpt>
      <trkpt lat="49.20717" lon="-0.67558">
        <ele>97.6</ele>
        <time>2023-05-25T13:06:46Z</time>
      </trkpt>
      <trkpt lat="49.20715" lon="-0.67551">
        <ele>97.6</ele>
        <time>2023-05-25T13:06:47Z</time>
      </trkpt>
      <trkpt lat="49.20714" lon="-0.67544">
        <ele>97.6</ele>
        <time>2023-05-25T13:06:48Z</time>
      </trkpt>
      <trkpt lat="49.20712" lon="-0.67537">
        <ele>97.6</ele>
        <time>2023-05-25T13:06:49Z</time>
      </trkpt>
      <trkpt lat="49.20711" lon="-0.67529">
        <ele>97.6</ele>
        <time>2023-05-25T13:06:50Z</time>
      </trkpt>
      <trkpt lat="49.20709" lon="-0.67522">
        <ele>97.6</ele>
        <time>2023-05-25T13:06:51Z</time>
      </trkpt>
      <trkpt lat="49.20707" lon="-0.67514">
        <ele>97.6</ele>
        <time>2023-05-25T13:06:52Z</time>
      </trkpt>
      <trkpt lat="49.20706" lon="-0.67507">
        <ele>97.6</ele>
        <time>2023-05-25T13:06:53Z</time>
      </trkpt>
      <trkpt lat="49.20704" lon="-0.67499">
        <ele>97.6</ele>
        <time>2023-05-25T13:06:54Z</time>
      </trkpt>
      <trkpt lat="49.20702" lon="-0.67491">
        <ele>97.6</ele>
        <time>2023-05-25T13:06:55Z</time>
      </trkpt>
      <trkpt lat="49.20701" lon="-0.67484">
        <ele>97.6</ele>
        <time>2023-05-25T13:06:56Z</time>
      </trkpt>
      <trkpt lat="49.20699" lon="-0.67476">
        <ele>97.6</ele>
        <time>2023-05-25T13:06:57Z</time>
      </trkpt>
      <trkpt lat="49.20697" lon="-0.67468">
        <ele>97.6</ele>
        <time>2023-05-25T13:06:58Z</time>
      </trkpt>
      <trkpt lat="49.20695" lon="-0.6746">
        <ele>97.6</ele>
        <time>2023-05-25T13:06:59Z</time>
      </trkpt>
      <trkpt lat="49.20694" lon="-0.67451">
        <ele>97.6</ele>
        <time>2023-05-25T13:07:00Z</time>
      </trkpt>
      <trkpt lat="49.20692" lon="-0.67443">
        <ele>97.6</ele>
        <time>2023-05-25T13:07:01Z</time>
      </trkpt>
      <trkpt lat="49.2069" lon="-0.67435">
        <ele>97.6</ele>
        <time>2023-05-25T13:07:02Z</time>
      </trkpt>
      <trkpt lat="49.20688" lon="-0.67427">
        <ele>97.6</ele>
        <time>2023-05-25T13:07:03Z</time>
      </trkpt>
      <trkpt lat="49.20686" lon="-0.67418">
        <ele>97.6</ele>
        <time>2023-05-25T13:07:04Z</time>
      </trkpt>
      <trkpt lat="49.20684" lon="-0.6741">
        <ele>97.6</ele>
        <time>2023-05-25T13:07:05Z</time>
      </trkpt>
      <trkpt lat="49.20682" lon="-0.67401">
        <ele>97.6</ele>
        <time>2023-05-25T13:07:06Z</time>
      </trkpt>
      <trkpt lat="49.2068" lon="-0.67393">
        <ele>97.6</ele>
        <time>2023-05-25T13:07:07Z</time>
      </trkpt>
      <trkpt lat="49.20677" lon="-0.67384">
        <ele>97.8</ele>
        <time>2023-05-25T13:07:08Z</time>
      </trkpt>
      <trkpt lat="49.20675" lon="-0.67376">
        <ele>97.8</ele>
        <time>2023-05-25T13:07:09Z</time>
      </trkpt>
      <trkpt lat="49.20673" lon="-0.67367">
        <ele>98</ele>
        <time>2023-05-25T13:07:10Z</time>
      </trkpt>
      <trkpt lat="49.20671" lon="-0.67359">
        <ele>98</ele>
        <time>2023-05-25T13:07:11Z</time>
      </trkpt>
      <trkpt lat="49.20668" lon="-0.67351">
        <ele>98</ele>
        <time>2023-05-25T13:07:12Z</time>
      </trkpt>
      <trkpt lat="49.20665" lon="-0.67342">
        <ele>98</ele>
        <time>2023-05-25T13:07:13Z</time>
      </trkpt>
      <trkpt lat="49.20663" lon="-0.67334">
        <ele>98</ele>
        <time>2023-05-25T13:07:14Z</time>
      </trkpt>
      <trkpt lat="49.2066" lon="-0.67326">
        <ele>97.8</ele>
        <time>2023-05-25T13:07:15Z</time>
      </trkpt>
      <trkpt lat="49.20657" lon="-0.67318">
        <ele>97.6</ele>
        <time>2023-05-25T13:07:16Z</time>
      </trkpt>
      <trkpt lat="49.20654" lon="-0.6731">
        <ele>97.6</ele>
        <time>2023-05-25T13:07:17Z</time>
      </trkpt>
      <trkpt lat="49.20652" lon="-0.67302">
        <ele>97.4</ele>
        <time>2023-05-25T13:07:18Z</time>
      </trkpt>
      <trkpt lat="49.20649" lon="-0.67293">
        <ele>97.4</ele>
        <time>2023-05-25T13:07:19Z</time>
      </trkpt>
      <trkpt lat="49.20646" lon="-0.67285">
        <ele>97.2</ele>
        <time>2023-05-25T13:07:20Z</time>
      </trkpt>
      <trkpt lat="49.20644" lon="-0.67276">
        <ele>97</ele>
        <time>2023-05-25T13:07:21Z</time>
      </trkpt>
      <trkpt lat="49.20642" lon="-0.67267">
        <ele>97</ele>
        <time>2023-05-25T13:07:22Z</time>
      </trkpt>
      <trkpt lat="49.20639" lon="-0.67258">
        <ele>96.8</ele>
        <time>2023-05-25T13:07:23Z</time>
      </trkpt>
      <trkpt lat="49.20637" lon="-0.67248">
        <ele>96.6</ele>
        <time>2023-05-25T13:07:24Z</time>
      </trkpt>
      <trkpt lat="49.20635" lon="-0.67239">
        <ele>96.4</ele>
        <time>2023-05-25T13:07:25Z</time>
      </trkpt>
      <trkpt lat="49.20633" lon="-0.67229">
        <ele>96.2</ele>
        <time>2023-05-25T13:07:26Z</time>
      </trkpt>
      <trkpt lat="49.20632" lon="-0.6722">
        <ele>96</ele>
        <time>2023-05-25T13:07:27Z</time>
      </trkpt>
      <trkpt lat="49.20629" lon="-0.6721">
        <ele>95.8</ele>
        <time>2023-05-25T13:07:28Z</time>
      </trkpt>
      <trkpt lat="49.20628" lon="-0.672">
        <ele>95.6</ele>
        <time>2023-05-25T13:07:29Z</time>
      </trkpt>
      <trkpt lat="49.20626" lon="-0.6719">
        <ele>95.4</ele>
        <time>2023-05-25T13:07:30Z</time>
      </trkpt>
      <trkpt lat="49.20623" lon="-0.6718">
        <ele>95.4</ele>
        <time>2023-05-25T13:07:31Z</time>
      </trkpt>
      <trkpt lat="49.20622" lon="-0.6717">
        <ele>95</ele>
        <time>2023-05-25T13:07:32Z</time>
      </trkpt>
      <trkpt lat="49.20619" lon="-0.6716">
        <ele>95</ele>
        <time>2023-05-25T13:07:33Z</time>
      </trkpt>
      <trkpt lat="49.20617" lon="-0.67151">
        <ele>95</ele>
        <time>2023-05-25T13:07:34Z</time>
      </trkpt>
      <trkpt lat="49.20616" lon="-0.67141">
        <ele>94.8</ele>
        <time>2023-05-25T13:07:35Z</time>
      </trkpt>
      <trkpt lat="49.20614" lon="-0.67131">
        <ele>94.6</ele>
        <time>2023-05-25T13:07:36Z</time>
      </trkpt>
      <trkpt lat="49.20612" lon="-0.67121">
        <ele>94.6</ele>
        <time>2023-05-25T13:07:37Z</time>
      </trkpt>
      <trkpt lat="49.2061" lon="-0.67111">
        <ele>94.6</ele>
        <time>2023-05-25T13:07:38Z</time>
      </trkpt>
      <trkpt lat="49.20608" lon="-0.67101">
        <ele>94.4</ele>
        <time>2023-05-25T13:07:39Z</time>
      </trkpt>
      <trkpt lat="49.20606" lon="-0.67091">
        <ele>94</ele>
        <time>2023-05-25T13:07:40Z</time>
      </trkpt>
      <trkpt lat="49.20603" lon="-0.67082">
        <ele>94</ele>
        <time>2023-05-25T13:07:41Z</time>
      </trkpt>
      <trkpt lat="49.206" lon="-0.67072">
        <ele>93.8</ele>
        <time>2023-05-25T13:07:42Z</time>
      </trkpt>
      <trkpt lat="49.20597" lon="-0.67062">
        <ele>93.6</ele>
        <time>2023-05-25T13:07:43Z</time>
      </trkpt>
      <trkpt lat="49.20594" lon="-0.67053">
        <ele>93.4</ele>
        <time>2023-05-25T13:07:44Z</time>
      </trkpt>
      <trkpt lat="49.20591" lon="-0.67043">
        <ele>93</ele>
        <time>2023-05-25T13:07:45Z</time>
      </trkpt>
      <trkpt lat="49.20587" lon="-0.67034">
        <ele>93</ele>
        <time>2023-05-25T13:07:46Z</time>
      </trkpt>
      <trkpt lat="49.20583" lon="-0.67025">
        <ele>92.6</ele>
        <time>2023-05-25T13:07:47Z</time>
      </trkpt>
      <trkpt lat="49.2058" lon="-0.67016">
        <ele>92.4</ele>
        <time>2023-05-25T13:07:48Z</time>
      </trkpt>
      <trkpt lat="49.20576" lon="-0.67007">
        <ele>92</ele>
        <time>2023-05-25T13:07:49Z</time>
      </trkpt>
      <trkpt lat="49.20573" lon="-0.66998">
        <ele>91.8</ele>
        <time>2023-05-25T13:07:50Z</time>
      </trkpt>
      <trkpt lat="49.20569" lon="-0.6699">
        <ele>91.6</ele>
        <time>2023-05-25T13:07:51Z</time>
      </trkpt>
      <trkpt lat="49.20566" lon="-0.66982">
        <ele>91.6</ele>
        <time>2023-05-25T13:07:52Z</time>
      </trkpt>
      <trkpt lat="49.20563" lon="-0.66974">
        <ele>91.4</ele>
        <time>2023-05-25T13:07:53Z</time>
      </trkpt>
      <trkpt lat="49.20559" lon="-0.66968">
        <ele>91.4</ele>
        <time>2023-05-25T13:07:54Z</time>
      </trkpt>
      <trkpt lat="49.20556" lon="-0.66962">
        <ele>91.2</ele>
        <time>2023-05-25T13:07:55Z</time>
      </trkpt>
      <trkpt lat="49.20553" lon="-0.66959">
        <ele>91</ele>
        <time>2023-05-25T13:07:56Z</time>
      </trkpt>
      <trkpt lat="49.20552" lon="-0.66956">
        <ele>91</ele>
        <time>2023-05-25T13:07:57Z</time>
      </trkpt>
      <trkpt lat="49.2055" lon="-0.66955">
        <ele>91</ele>
        <time>2023-05-25T13:07:58Z</time>
      </trkpt>
      <trkpt lat="49.20549" lon="-0.66954">
        <ele>91</ele>
        <time>2023-05-25T13:07:59Z</time>
      </trkpt>
      <trkpt lat="49.20548" lon="-0.66951">
        <ele>91</ele>
        <time>2023-05-25T13:08:00Z</time>
      </trkpt>
      <trkpt lat="49.20547" lon="-0.66947">
        <ele>91</ele>
        <time>2023-05-25T13:08:01Z</time>
      </trkpt>
      <trkpt lat="49.20548" lon="-0.66943">
        <ele>91</ele>
        <time>2023-05-25T13:08:02Z</time>
      </trkpt>
      <trkpt lat="49.2055" lon="-0.66937">
        <ele>91</ele>
        <time>2023-05-25T13:08:03Z</time>
      </trkpt>
      <trkpt lat="49.20552" lon="-0.66931">
        <ele>90.8</ele>
        <time>2023-05-25T13:08:04Z</time>
      </trkpt>
      <trkpt lat="49.20554" lon="-0.66924">
        <ele>90.6</ele>
        <time>2023-05-25T13:08:05Z</time>
      </trkpt>
      <trkpt lat="49.20556" lon="-0.66917">
        <ele>90.6</ele>
        <time>2023-05-25T13:08:06Z</time>
      </trkpt>
      <trkpt lat="49.20557" lon="-0.66909">
        <ele>90.4</ele>
        <time>2023-05-25T13:08:07Z</time>
      </trkpt>
      <trkpt lat="49.20559" lon="-0.66901">
        <ele>90</ele>
        <time>2023-05-25T13:08:08Z</time>
      </trkpt>
      <trkpt lat="49.20561" lon="-0.66892">
        <ele>89.6</ele>
        <time>2023-05-25T13:08:09Z</time>
      </trkpt>
      <trkpt lat="49.20562" lon="-0.66883">
        <ele>89</ele>
        <time>2023-05-25T13:08:10Z</time>
      </trkpt>
      <trkpt lat="49.20564" lon="-0.66873">
        <ele>88.6</ele>
        <time>2023-05-25T13:08:11Z</time>
      </trkpt>
      <trkpt lat="49.20566" lon="-0.66864">
        <ele>88</ele>
        <time>2023-05-25T13:08:12Z</time>
      </trkpt>
      <trkpt lat="49.20569" lon="-0.66854">
        <ele>87.6</ele>
        <time>2023-05-25T13:08:13Z</time>
      </trkpt>
      <trkpt lat="49.20571" lon="-0.66845">
        <ele>87.4</ele>
        <time>2023-05-25T13:08:14Z</time>
      </trkpt>
      <trkpt lat="49.20574" lon="-0.66835">
        <ele>86.8</ele>
        <time>2023-05-25T13:08:15Z</time>
      </trkpt>
      <trkpt lat="49.20577" lon="-0.66825">
        <ele>86.6</ele>
        <time>2023-05-25T13:08:16Z</time>
      </trkpt>
      <trkpt lat="49.2058" lon="-0.66815">
        <ele>86.6</ele>
        <time>2023-05-25T13:08:17Z</time>
      </trkpt>
      <trkpt lat="49.20583" lon="-0.66805">
        <ele>86.6</ele>
        <time>2023-05-25T13:08:18Z</time>
      </trkpt>
      <trkpt lat="49.20586" lon="-0.66796">
        <ele>86.6</ele>
        <time>2023-05-25T13:08:19Z</time>
      </trkpt>
      <trkpt lat="49.2059" lon="-0.66786">
        <ele>86.6</ele>
        <time>2023-05-25T13:08:20Z</time>
      </trkpt>
      <trkpt lat="49.20593" lon="-0.66777">
        <ele>86.6</ele>
        <time>2023-05-25T13:08:21Z</time>
      </trkpt>
      <trkpt lat="49.20597" lon="-0.66767">
        <ele>86.6</ele>
        <time>2023-05-25T13:08:22Z</time>
      </trkpt>
      <trkpt lat="49.20601" lon="-0.66758">
        <ele>86.6</ele>
        <time>2023-05-25T13:08:23Z</time>
      </trkpt>
      <trkpt lat="49.20604" lon="-0.66749">
        <ele>86.6</ele>
        <time>2023-05-25T13:08:24Z</time>
      </trkpt>
      <trkpt lat="49.20609" lon="-0.6674">
        <ele>86.4</ele>
        <time>2023-05-25T13:08:25Z</time>
      </trkpt>
      <trkpt lat="49.20613" lon="-0.66731">
        <ele>86</ele>
        <time>2023-05-25T13:08:26Z</time>
      </trkpt>
      <trkpt lat="49.20617" lon="-0.66723">
        <ele>86</ele>
        <time>2023-05-25T13:08:27Z</time>
      </trkpt>
      <trkpt lat="49.20621" lon="-0.66715">
        <ele>85.8</ele>
        <time>2023-05-25T13:08:28Z</time>
      </trkpt>
      <trkpt lat="49.20625" lon="-0.66707">
        <ele>85.6</ele>
        <time>2023-05-25T13:08:29Z</time>
      </trkpt>
      <trkpt lat="49.2063" lon="-0.66699">
        <ele>85.6</ele>
        <time>2023-05-25T13:08:30Z</time>
      </trkpt>
      <trkpt lat="49.20635" lon="-0.66692">
        <ele>85.6</ele>
        <time>2023-05-25T13:08:31Z</time>
      </trkpt>
      <trkpt lat="49.2064" lon="-0.66685">
        <ele>85.6</ele>
        <time>2023-05-25T13:08:32Z</time>
      </trkpt>
      <trkpt lat="49.20645" lon="-0.66679">
        <ele>85.6</ele>
        <time>2023-05-25T13:08:33Z</time>
      </trkpt>
      <trkpt lat="49.2065" lon="-0.66673">
        <ele>85.6</ele>
        <time>2023-05-25T13:08:34Z</time>
      </trkpt>
      <trkpt lat="49.20656" lon="-0.66667">
        <ele>85.6</ele>
        <time>2023-05-25T13:08:35Z</time>
      </trkpt>
      <trkpt lat="49.20661" lon="-0.66662">
        <ele>85.6</ele>
        <time>2023-05-25T13:08:36Z</time>
      </trkpt>
      <trkpt lat="49.20666" lon="-0.66656">
        <ele>85.8</ele>
        <time>2023-05-25T13:08:37Z</time>
      </trkpt>
      <trkpt lat="49.20669" lon="-0.6665">
        <ele>86</ele>
        <time>2023-05-25T13:08:38Z</time>
      </trkpt>
      <trkpt lat="49.2067" lon="-0.66643">
        <ele>85.8</ele>
        <time>2023-05-25T13:08:39Z</time>
      </trkpt>
      <trkpt lat="49.20669" lon="-0.66636">
        <ele>85.6</ele>
        <time>2023-05-25T13:08:40Z</time>
      </trkpt>
      <trkpt lat="49.20665" lon="-0.66628">
        <ele>85.6</ele>
        <time>2023-05-25T13:08:41Z</time>
      </trkpt>
      <trkpt lat="49.20661" lon="-0.66621">
        <ele>85.2</ele>
        <time>2023-05-25T13:08:42Z</time>
      </trkpt>
      <trkpt lat="49.20656" lon="-0.66613">
        <ele>84.8</ele>
        <time>2023-05-25T13:08:43Z</time>
      </trkpt>
      <trkpt lat="49.20651" lon="-0.66605">
        <ele>84.4</ele>
        <time>2023-05-25T13:08:44Z</time>
      </trkpt>
      <trkpt lat="49.20646" lon="-0.66597">
        <ele>84</ele>
        <time>2023-05-25T13:08:45Z</time>
      </trkpt>
      <trkpt lat="49.2064" lon="-0.66588">
        <ele>83.6</ele>
        <time>2023-05-25T13:08:46Z</time>
      </trkpt>
      <trkpt lat="49.20635" lon="-0.66578">
        <ele>83</ele>
        <time>2023-05-25T13:08:47Z</time>
      </trkpt>
      <trkpt lat="49.20629" lon="-0.66569">
        <ele>82.6</ele>
        <time>2023-05-25T13:08:48Z</time>
      </trkpt>
      <trkpt lat="49.20623" lon="-0.6656">
        <ele>82</ele>
        <time>2023-05-25T13:08:49Z</time>
      </trkpt>
      <trkpt lat="49.20617" lon="-0.6655">
        <ele>81.6</ele>
        <time>2023-05-25T13:08:50Z</time>
      </trkpt>
      <trkpt lat="49.20611" lon="-0.6654">
        <ele>81.4</ele>
        <time>2023-05-25T13:08:51Z</time>
      </trkpt>
      <trkpt lat="49.20605" lon="-0.6653">
        <ele>81</ele>
        <time>2023-05-25T13:08:52Z</time>
      </trkpt>
      <trkpt lat="49.20599" lon="-0.66521">
        <ele>80.6</ele>
        <time>2023-05-25T13:08:53Z</time>
      </trkpt>
      <trkpt lat="49.20593" lon="-0.66511">
        <ele>80.4</ele>
        <time>2023-05-25T13:08:54Z</time>
      </trkpt>
      <trkpt lat="49.20587" lon="-0.66501">
        <ele>80</ele>
        <time>2023-05-25T13:08:55Z</time>
      </trkpt>
      <trkpt lat="49.20582" lon="-0.66491">
        <ele>79.8</ele>
        <time>2023-05-25T13:08:56Z</time>
      </trkpt>
      <trkpt lat="49.20576" lon="-0.66482">
        <ele>79.6</ele>
        <time>2023-05-25T13:08:57Z</time>
      </trkpt>
      <trkpt lat="49.2057" lon="-0.66472">
        <ele>79.6</ele>
        <time>2023-05-25T13:08:58Z</time>
      </trkpt>
      <trkpt lat="49.20565" lon="-0.66462">
        <ele>79.6</ele>
        <time>2023-05-25T13:08:59Z</time>
      </trkpt>
      <trkpt lat="49.2056" lon="-0.66453">
        <ele>79.8</ele>
        <time>2023-05-25T13:09:00Z</time>
      </trkpt>
      <trkpt lat="49.20555" lon="-0.66444">
        <ele>80</ele>
        <time>2023-05-25T13:09:01Z</time>
      </trkpt>
      <trkpt lat="49.2055" lon="-0.66435">
        <ele>80</ele>
        <time>2023-05-25T13:09:02Z</time>
      </trkpt>
      <trkpt lat="49.20546" lon="-0.66427">
        <ele>80.4</ele>
        <time>2023-05-25T13:09:03Z</time>
      </trkpt>
      <trkpt lat="49.20541" lon="-0.66419">
        <ele>80.6</ele>
        <time>2023-05-25T13:09:04Z</time>
      </trkpt>
      <trkpt lat="49.20537" lon="-0.66411">
        <ele>80.6</ele>
        <time>2023-05-25T13:09:05Z</time>
      </trkpt>
      <trkpt lat="49.20532" lon="-0.66403">
        <ele>81</ele>
        <time>2023-05-25T13:09:06Z</time>
      </trkpt>
      <trkpt lat="49.20528" lon="-0.66396">
        <ele>81</ele>
        <time>2023-05-25T13:09:07Z</time>
      </trkpt>
      <trkpt lat="49.20523" lon="-0.66389">
        <ele>81.4</ele>
        <time>2023-05-25T13:09:08Z</time>
      </trkpt>
      <trkpt lat="49.20519" lon="-0.66382">
        <ele>81.4</ele>
        <time>2023-05-25T13:09:09Z</time>
      </trkpt>
      <trkpt lat="49.20515" lon="-0.66374">
        <ele>81.6</ele>
        <time>2023-05-25T13:09:10Z</time>
      </trkpt>
      <trkpt lat="49.2051" lon="-0.66367">
        <ele>81.8</ele>
        <time>2023-05-25T13:09:11Z</time>
      </trkpt>
      <trkpt lat="49.20506" lon="-0.6636">
        <ele>82</ele>
        <time>2023-05-25T13:09:12Z</time>
      </trkpt>
      <trkpt lat="49.20502" lon="-0.66352">
        <ele>82</ele>
        <time>2023-05-25T13:09:13Z</time>
      </trkpt>
      <trkpt lat="49.20498" lon="-0.66345">
        <ele>82.2</ele>
        <time>2023-05-25T13:09:14Z</time>
      </trkpt>
      <trkpt lat="49.20494" lon="-0.66338">
        <ele>82</ele>
        <time>2023-05-25T13:09:15Z</time>
      </trkpt>
      <trkpt lat="49.2049" lon="-0.6633">
        <ele>82</ele>
        <time>2023-05-25T13:09:16Z</time>
      </trkpt>
      <trkpt lat="49.20486" lon="-0.66323">
        <ele>82</ele>
        <time>2023-05-25T13:09:17Z</time>
      </trkpt>
      <trkpt lat="49.20482" lon="-0.66316">
        <ele>82</ele>
        <time>2023-05-25T13:09:18Z</time>
      </trkpt>
      <trkpt lat="49.20478" lon="-0.66309">
        <ele>81.8</ele>
        <time>2023-05-25T13:09:19Z</time>
      </trkpt>
      <trkpt lat="49.20475" lon="-0.66302">
        <ele>81.8</ele>
        <time>2023-05-25T13:09:20Z</time>
      </trkpt>
      <trkpt lat="49.20471" lon="-0.66295">
        <ele>81.8</ele>
        <time>2023-05-25T13:09:21Z</time>
      </trkpt>
      <trkpt lat="49.20467" lon="-0.66289">
        <ele>81.6</ele>
        <time>2023-05-25T13:09:22Z</time>
      </trkpt>
      <trkpt lat="49.20464" lon="-0.66282">
        <ele>81.6</ele>
        <time>2023-05-25T13:09:23Z</time>
      </trkpt>
      <trkpt lat="49.2046" lon="-0.66275">
        <ele>81.6</ele>
        <time>2023-05-25T13:09:24Z</time>
      </trkpt>
      <trkpt lat="49.20457" lon="-0.66269">
        <ele>81.8</ele>
        <time>2023-05-25T13:09:25Z</time>
      </trkpt>
      <trkpt lat="49.20453" lon="-0.66262">
        <ele>81.8</ele>
        <time>2023-05-25T13:09:26Z</time>
      </trkpt>
      <trkpt lat="49.2045" lon="-0.66256">
        <ele>82</ele>
        <time>2023-05-25T13:09:27Z</time>
      </trkpt>
      <trkpt lat="49.20446" lon="-0.66249">
        <ele>82</ele>
        <time>2023-05-25T13:09:28Z</time>
      </trkpt>
      <trkpt lat="49.20443" lon="-0.66243">
        <ele>82.2</ele>
        <time>2023-05-25T13:09:29Z</time>
      </trkpt>
      <trkpt lat="49.20439" lon="-0.66237">
        <ele>82.4</ele>
        <time>2023-05-25T13:09:30Z</time>
      </trkpt>
      <trkpt lat="49.20435" lon="-0.6623">
        <ele>82.6</ele>
        <time>2023-05-25T13:09:31Z</time>
      </trkpt>
      <trkpt lat="49.20431" lon="-0.66224">
        <ele>82.8</ele>
        <time>2023-05-25T13:09:32Z</time>
      </trkpt>
      <trkpt lat="49.20428" lon="-0.66218">
        <ele>83</ele>
        <time>2023-05-25T13:09:33Z</time>
      </trkpt>
      <trkpt lat="49.20424" lon="-0.66212">
        <ele>83.2</ele>
        <time>2023-05-25T13:09:34Z</time>
      </trkpt>
      <trkpt lat="49.2042" lon="-0.66206">
        <ele>83.4</ele>
        <time>2023-05-25T13:09:35Z</time>
      </trkpt>
      <trkpt lat="49.20415" lon="-0.662">
        <ele>83.6</ele>
        <time>2023-05-25T13:09:36Z</time>
      </trkpt>
      <trkpt lat="49.20411" lon="-0.66195">
        <ele>83.6</ele>
        <time>2023-05-25T13:09:37Z</time>
      </trkpt>
      <trkpt lat="49.20407" lon="-0.66189">
        <ele>83.8</ele>
        <time>2023-05-25T13:09:38Z</time>
      </trkpt>
      <trkpt lat="49.20402" lon="-0.66184">
        <ele>83.8</ele>
        <time>2023-05-25T13:09:39Z</time>
      </trkpt>
      <trkpt lat="49.20398" lon="-0.66179">
        <ele>84</ele>
        <time>2023-05-25T13:09:40Z</time>
      </trkpt>
      <trkpt lat="49.20393" lon="-0.66173">
        <ele>84</ele>
        <time>2023-05-25T13:09:41Z</time>
      </trkpt>
      <trkpt lat="49.20389" lon="-0.66168">
        <ele>84</ele>
        <time>2023-05-25T13:09:42Z</time>
      </trkpt>
      <trkpt lat="49.20384" lon="-0.66163">
        <ele>84</ele>
        <time>2023-05-25T13:09:43Z</time>
      </trkpt>
      <trkpt lat="49.2038" lon="-0.66157">
        <ele>84</ele>
        <time>2023-05-25T13:09:44Z</time>
      </trkpt>
      <trkpt lat="49.20375" lon="-0.66152">
        <ele>84</ele>
        <time>2023-05-25T13:09:45Z</time>
      </trkpt>
      <trkpt lat="49.2037" lon="-0.66146">
        <ele>84</ele>
        <time>2023-05-25T13:09:46Z</time>
      </trkpt>
      <trkpt lat="49.20366" lon="-0.66141">
        <ele>84</ele>
        <time>2023-05-25T13:09:47Z</time>
      </trkpt>
      <trkpt lat="49.20361" lon="-0.66135">
        <ele>84</ele>
        <time>2023-05-25T13:09:48Z</time>
      </trkpt>
      <trkpt lat="49.20356" lon="-0.6613">
        <ele>84.2</ele>
        <time>2023-05-25T13:09:49Z</time>
      </trkpt>
      <trkpt lat="49.20352" lon="-0.66124">
        <ele>84.4</ele>
        <time>2023-05-25T13:09:50Z</time>
      </trkpt>
      <trkpt lat="49.20347" lon="-0.66118">
        <ele>84.4</ele>
        <time>2023-05-25T13:09:51Z</time>
      </trkpt>
      <trkpt lat="49.20342" lon="-0.66112">
        <ele>84.6</ele>
        <time>2023-05-25T13:09:52Z</time>
      </trkpt>
      <trkpt lat="49.20337" lon="-0.66106">
        <ele>84.6</ele>
        <time>2023-05-25T13:09:53Z</time>
      </trkpt>
      <trkpt lat="49.20333" lon="-0.661">
        <ele>84.8</ele>
        <time>2023-05-25T13:09:54Z</time>
      </trkpt>
      <trkpt lat="49.20328" lon="-0.66094">
        <ele>84.6</ele>
        <time>2023-05-25T13:09:55Z</time>
      </trkpt>
      <trkpt lat="49.20323" lon="-0.66088">
        <ele>84.6</ele>
        <time>2023-05-25T13:09:56Z</time>
      </trkpt>
      <trkpt lat="49.20318" lon="-0.66082">
        <ele>84.4</ele>
        <time>2023-05-25T13:09:57Z</time>
      </trkpt>
      <trkpt lat="49.20314" lon="-0.66076">
        <ele>84.2</ele>
        <time>2023-05-25T13:09:58Z</time>
      </trkpt>
      <trkpt lat="49.20309" lon="-0.66069">
        <ele>84</ele>
        <time>2023-05-25T13:09:59Z</time>
      </trkpt>
      <trkpt lat="49.20304" lon="-0.66063">
        <ele>83.6</ele>
        <time>2023-05-25T13:10:00Z</time>
      </trkpt>
      <trkpt lat="49.20299" lon="-0.66056">
        <ele>83.4</ele>
        <time>2023-05-25T13:10:01Z</time>
      </trkpt>
      <trkpt lat="49.20294" lon="-0.6605">
        <ele>83.2</ele>
        <time>2023-05-25T13:10:02Z</time>
      </trkpt>
      <trkpt lat="49.20289" lon="-0.66043">
        <ele>83</ele>
        <time>2023-05-25T13:10:03Z</time>
      </trkpt>
      <trkpt lat="49.20284" lon="-0.66036">
        <ele>82.6</ele>
        <time>2023-05-25T13:10:04Z</time>
      </trkpt>
      <trkpt lat="49.20279" lon="-0.6603">
        <ele>82.4</ele>
        <time>2023-05-25T13:10:05Z</time>
      </trkpt>
      <trkpt lat="49.20273" lon="-0.66023">
        <ele>82</ele>
        <time>2023-05-25T13:10:06Z</time>
      </trkpt>
      <trkpt lat="49.20268" lon="-0.66016">
        <ele>81.8</ele>
        <time>2023-05-25T13:10:07Z</time>
      </trkpt>
      <trkpt lat="49.20262" lon="-0.66009">
        <ele>81.6</ele>
        <time>2023-05-25T13:10:08Z</time>
      </trkpt>
      <trkpt lat="49.20256" lon="-0.66002">
        <ele>81.2</ele>
        <time>2023-05-25T13:10:09Z</time>
      </trkpt>
      <trkpt lat="49.20249" lon="-0.65994">
        <ele>80.8</ele>
        <time>2023-05-25T13:10:10Z</time>
      </trkpt>
      <trkpt lat="49.20242" lon="-0.65986">
        <ele>80.4</ele>
        <time>2023-05-25T13:10:11Z</time>
      </trkpt>
      <trkpt lat="49.20236" lon="-0.65977">
        <ele>80</ele>
        <time>2023-05-25T13:10:12Z</time>
      </trkpt>
      <trkpt lat="49.20229" lon="-0.65967">
        <ele>79.6</ele>
        <time>2023-05-25T13:10:13Z</time>
      </trkpt>
      <trkpt lat="49.20222" lon="-0.65956">
        <ele>79</ele>
        <time>2023-05-25T13:10:14Z</time>
      </trkpt>
      <trkpt lat="49.20217" lon="-0.65944">
        <ele>78.6</ele>
        <time>2023-05-25T13:10:15Z</time>
      </trkpt>
      <trkpt lat="49.20212" lon="-0.65931">
        <ele>78.4</ele>
        <time>2023-05-25T13:10:16Z</time>
      </trkpt>
      <trkpt lat="49.20208" lon="-0.65917">
        <ele>78</ele>
        <time>2023-05-25T13:10:17Z</time>
      </trkpt>
      <trkpt lat="49.20205" lon="-0.65903">
        <ele>77.8</ele>
        <time>2023-05-25T13:10:18Z</time>
      </trkpt>
      <trkpt lat="49.20201" lon="-0.65889">
        <ele>77.6</ele>
        <time>2023-05-25T13:10:19Z</time>
      </trkpt>
      <trkpt lat="49.20198" lon="-0.65876">
        <ele>77.4</ele>
        <time>2023-05-25T13:10:20Z</time>
      </trkpt>
      <trkpt lat="49.20195" lon="-0.65862">
        <ele>77.2</ele>
        <time>2023-05-25T13:10:21Z</time>
      </trkpt>
      <trkpt lat="49.20192" lon="-0.65848">
        <ele>77</ele>
        <time>2023-05-25T13:10:22Z</time>
      </trkpt>
      <trkpt lat="49.20189" lon="-0.65835">
        <ele>76.8</ele>
        <time>2023-05-25T13:10:23Z</time>
      </trkpt>
      <trkpt lat="49.20186" lon="-0.65823">
        <ele>76.6</ele>
        <time>2023-05-25T13:10:24Z</time>
      </trkpt>
      <trkpt lat="49.20183" lon="-0.6581">
        <ele>76.6</ele>
        <time>2023-05-25T13:10:25Z</time>
      </trkpt>
      <trkpt lat="49.20181" lon="-0.65798">
        <ele>76.4</ele>
        <time>2023-05-25T13:10:26Z</time>
      </trkpt>
      <trkpt lat="49.20178" lon="-0.65786">
        <ele>76.4</ele>
        <time>2023-05-25T13:10:27Z</time>
      </trkpt>
      <trkpt lat="49.20175" lon="-0.65775">
        <ele>76.2</ele>
        <time>2023-05-25T13:10:28Z</time>
      </trkpt>
      <trkpt lat="49.20172" lon="-0.65764">
        <ele>76</ele>
        <time>2023-05-25T13:10:29Z</time>
      </trkpt>
      <trkpt lat="49.20169" lon="-0.65753">
        <ele>76</ele>
        <time>2023-05-25T13:10:30Z</time>
      </trkpt>
      <trkpt lat="49.20165" lon="-0.65742">
        <ele>76</ele>
        <time>2023-05-25T13:10:31Z</time>
      </trkpt>
      <trkpt lat="49.20162" lon="-0.65731">
        <ele>76</ele>
        <time>2023-05-25T13:10:32Z</time>
      </trkpt>
      <trkpt lat="49.20159" lon="-0.6572">
        <ele>76</ele>
        <time>2023-05-25T13:10:33Z</time>
      </trkpt>
      <trkpt lat="49.20155" lon="-0.6571">
        <ele>75.8</ele>
        <time>2023-05-25T13:10:34Z</time>
      </trkpt>
      <trkpt lat="49.20151" lon="-0.65699">
        <ele>75.6</ele>
        <time>2023-05-25T13:10:35Z</time>
      </trkpt>
      <trkpt lat="49.20148" lon="-0.65689">
        <ele>75.6</ele>
        <time>2023-05-25T13:10:36Z</time>
      </trkpt>
      <trkpt lat="49.20144" lon="-0.65678">
        <ele>75.6</ele>
        <time>2023-05-25T13:10:37Z</time>
      </trkpt>
      <trkpt lat="49.20141" lon="-0.65668">
        <ele>75.4</ele>
        <time>2023-05-25T13:10:38Z</time>
      </trkpt>
      <trkpt lat="49.20138" lon="-0.65658">
        <ele>75.2</ele>
        <time>2023-05-25T13:10:39Z</time>
      </trkpt>
      <trkpt lat="49.20134" lon="-0.65647">
        <ele>75</ele>
        <time>2023-05-25T13:10:40Z</time>
      </trkpt>
      <trkpt lat="49.20131" lon="-0.65636">
        <ele>75</ele>
        <time>2023-05-25T13:10:41Z</time>
      </trkpt>
      <trkpt lat="49.20128" lon="-0.65625">
        <ele>74.8</ele>
        <time>2023-05-25T13:10:42Z</time>
      </trkpt>
      <trkpt lat="49.20126" lon="-0.65614">
        <ele>74.6</ele>
        <time>2023-05-25T13:10:43Z</time>
      </trkpt>
      <trkpt lat="49.20123" lon="-0.65603">
        <ele>74.6</ele>
        <time>2023-05-25T13:10:44Z</time>
      </trkpt>
      <trkpt lat="49.2012" lon="-0.65592">
        <ele>74.6</ele>
        <time>2023-05-25T13:10:45Z</time>
      </trkpt>
      <trkpt lat="49.20118" lon="-0.65581">
        <ele>74.4</ele>
        <time>2023-05-25T13:10:46Z</time>
      </trkpt>
      <trkpt lat="49.20115" lon="-0.6557">
        <ele>74.6</ele>
        <time>2023-05-25T13:10:47Z</time>
      </trkpt>
      <trkpt lat="49.20113" lon="-0.65559">
        <ele>74.6</ele>
        <time>2023-05-25T13:10:48Z</time>
      </trkpt>
      <trkpt lat="49.2011" lon="-0.65547">
        <ele>74.6</ele>
        <time>2023-05-25T13:10:49Z</time>
      </trkpt>
      <trkpt lat="49.20107" lon="-0.65536">
        <ele>75</ele>
        <time>2023-05-25T13:10:50Z</time>
      </trkpt>
      <trkpt lat="49.20105" lon="-0.65525">
        <ele>75</ele>
        <time>2023-05-25T13:10:51Z</time>
      </trkpt>
      <trkpt lat="49.20103" lon="-0.65514">
        <ele>75</ele>
        <time>2023-05-25T13:10:52Z</time>
      </trkpt>
      <trkpt lat="49.201" lon="-0.65502">
        <ele>75.2</ele>
        <time>2023-05-25T13:10:53Z</time>
      </trkpt>
      <trkpt lat="49.20097" lon="-0.65491">
        <ele>75.4</ele>
        <time>2023-05-25T13:10:54Z</time>
      </trkpt>
      <trkpt lat="49.20095" lon="-0.6548">
        <ele>75.4</ele>
        <time>2023-05-25T13:10:55Z</time>
      </trkpt>
      <trkpt lat="49.20092" lon="-0.65468">
        <ele>75.4</ele>
        <time>2023-05-25T13:10:56Z</time>
      </trkpt>
      <trkpt lat="49.20089" lon="-0.65457">
        <ele>75.6</ele>
        <time>2023-05-25T13:10:57Z</time>
      </trkpt>
      <trkpt lat="49.20086" lon="-0.65446">
        <ele>75.6</ele>
        <time>2023-05-25T13:10:58Z</time>
      </trkpt>
      <trkpt lat="49.20083" lon="-0.65435">
        <ele>75.8</ele>
        <time>2023-05-25T13:10:59Z</time>
      </trkpt>
      <trkpt lat="49.20079" lon="-0.65424">
        <ele>75.8</ele>
        <time>2023-05-25T13:11:00Z</time>
      </trkpt>
      <trkpt lat="49.20075" lon="-0.65414">
        <ele>75.6</ele>
        <time>2023-05-25T13:11:01Z</time>
      </trkpt>
      <trkpt lat="49.20071" lon="-0.65403">
        <ele>75.4</ele>
        <time>2023-05-25T13:11:02Z</time>
      </trkpt>
      <trkpt lat="49.20067" lon="-0.65393">
        <ele>75</ele>
        <time>2023-05-25T13:11:03Z</time>
      </trkpt>
      <trkpt lat="49.20062" lon="-0.65383">
        <ele>74.6</ele>
        <time>2023-05-25T13:11:04Z</time>
      </trkpt>
      <trkpt lat="49.20058" lon="-0.65373">
        <ele>74.2</ele>
        <time>2023-05-25T13:11:05Z</time>
      </trkpt>
      <trkpt lat="49.20053" lon="-0.65363">
        <ele>74</ele>
        <time>2023-05-25T13:11:06Z</time>
      </trkpt>
      <trkpt lat="49.20048" lon="-0.65352">
        <ele>73.6</ele>
        <time>2023-05-25T13:11:07Z</time>
      </trkpt>
      <trkpt lat="49.20043" lon="-0.65342">
        <ele>73.2</ele>
        <time>2023-05-25T13:11:08Z</time>
      </trkpt>
      <trkpt lat="49.20038" lon="-0.65332">
        <ele>73</ele>
        <time>2023-05-25T13:11:09Z</time>
      </trkpt>
      <trkpt lat="49.20033" lon="-0.65322">
        <ele>72.6</ele>
        <time>2023-05-25T13:11:10Z</time>
      </trkpt>
      <trkpt lat="49.20027" lon="-0.65312">
        <ele>72.6</ele>
        <time>2023-05-25T13:11:11Z</time>
      </trkpt>
      <trkpt lat="49.20022" lon="-0.65302">
        <ele>72.2</ele>
        <time>2023-05-25T13:11:12Z</time>
      </trkpt>
      <trkpt lat="49.20016" lon="-0.65292">
        <ele>72</ele>
        <time>2023-05-25T13:11:13Z</time>
      </trkpt>
      <trkpt lat="49.20011" lon="-0.65283">
        <ele>71.6</ele>
        <time>2023-05-25T13:11:14Z</time>
      </trkpt>
      <trkpt lat="49.20005" lon="-0.65273">
        <ele>71.4</ele>
        <time>2023-05-25T13:11:15Z</time>
      </trkpt>
      <trkpt lat="49.19999" lon="-0.65264">
        <ele>71.2</ele>
        <time>2023-05-25T13:11:16Z</time>
      </trkpt>
      <trkpt lat="49.19993" lon="-0.65255">
        <ele>71</ele>
        <time>2023-05-25T13:11:17Z</time>
      </trkpt>
      <trkpt lat="49.19987" lon="-0.65246">
        <ele>70.8</ele>
        <time>2023-05-25T13:11:18Z</time>
      </trkpt>
      <trkpt lat="49.19981" lon="-0.65238">
        <ele>70.6</ele>
        <time>2023-05-25T13:11:19Z</time>
      </trkpt>
      <trkpt lat="49.19975" lon="-0.6523">
        <ele>70.6</ele>
        <time>2023-05-25T13:11:20Z</time>
      </trkpt>
      <trkpt lat="49.19969" lon="-0.65223">
        <ele>70.6</ele>
        <time>2023-05-25T13:11:21Z</time>
      </trkpt>
      <trkpt lat="49.19962" lon="-0.65216">
        <ele>70.4</ele>
        <time>2023-05-25T13:11:22Z</time>
      </trkpt>
      <trkpt lat="49.19956" lon="-0.65209">
        <ele>70.2</ele>
        <time>2023-05-25T13:11:23Z</time>
      </trkpt>
      <trkpt lat="49.19949" lon="-0.65203">
        <ele>70</ele>
        <time>2023-05-25T13:11:24Z</time>
      </trkpt>
      <trkpt lat="49.19943" lon="-0.65198">
        <ele>70</ele>
        <time>2023-05-25T13:11:25Z</time>
      </trkpt>
      <trkpt lat="49.19938" lon="-0.65192">
        <ele>69.6</ele>
        <time>2023-05-25T13:11:26Z</time>
      </trkpt>
      <trkpt lat="49.19934" lon="-0.65187">
        <ele>69.6</ele>
        <time>2023-05-25T13:11:27Z</time>
      </trkpt>
      <trkpt lat="49.19932" lon="-0.65183">
        <ele>69.6</ele>
        <time>2023-05-25T13:11:28Z</time>
      </trkpt>
      <trkpt lat="49.19932" lon="-0.65178">
        <ele>69.6</ele>
        <time>2023-05-25T13:11:29Z</time>
      </trkpt>
      <trkpt lat="49.19934" lon="-0.65174">
        <ele>69.6</ele>
        <time>2023-05-25T13:11:30Z</time>
      </trkpt>
      <trkpt lat="49.19937" lon="-0.65171">
        <ele>69.6</ele>
        <time>2023-05-25T13:11:31Z</time>
      </trkpt>
      <trkpt lat="49.19941" lon="-0.65169">
        <ele>69.6</ele>
        <time>2023-05-25T13:11:32Z</time>
      </trkpt>
      <trkpt lat="49.19945" lon="-0.65168">
        <ele>69.6</ele>
        <time>2023-05-25T13:11:33Z</time>
      </trkpt>
      <trkpt lat="49.19949" lon="-0.65166">
        <ele>69.8</ele>
        <time>2023-05-25T13:11:34Z</time>
      </trkpt>
      <trkpt lat="49.19952" lon="-0.65163">
        <ele>70</ele>
        <time>2023-05-25T13:11:35Z</time>
      </trkpt>
      <trkpt lat="49.19956" lon="-0.6516">
        <ele>70</ele>
        <time>2023-05-25T13:11:36Z</time>
      </trkpt>
      <trkpt lat="49.1996" lon="-0.65155">
        <ele>70</ele>
        <time>2023-05-25T13:11:37Z</time>
      </trkpt>
      <trkpt lat="49.19963" lon="-0.6515">
        <ele>70</ele>
        <time>2023-05-25T13:11:38Z</time>
      </trkpt>
      <trkpt lat="49.19966" lon="-0.65146">
        <ele>70</ele>
        <time>2023-05-25T13:11:39Z</time>
      </trkpt>
      <trkpt lat="49.19969" lon="-0.6514">
        <ele>70.2</ele>
        <time>2023-05-25T13:11:40Z</time>
      </trkpt>
      <trkpt lat="49.19973" lon="-0.65135">
        <ele>70.2</ele>
        <time>2023-05-25T13:11:41Z</time>
      </trkpt>
      <trkpt lat="49.19976" lon="-0.6513">
        <ele>70.2</ele>
        <time>2023-05-25T13:11:42Z</time>
      </trkpt>
      <trkpt lat="49.19979" lon="-0.65125">
        <ele>70.2</ele>
        <time>2023-05-25T13:11:43Z</time>
      </trkpt>
      <trkpt lat="49.19983" lon="-0.6512">
        <ele>70.4</ele>
        <time>2023-05-25T13:11:44Z</time>
      </trkpt>
      <trkpt lat="49.19986" lon="-0.65114">
        <ele>70.2</ele>
        <time>2023-05-25T13:11:45Z</time>
      </trkpt>
      <trkpt lat="49.19989" lon="-0.65109">
        <ele>70.2</ele>
        <time>2023-05-25T13:11:46Z</time>
      </trkpt>
      <trkpt lat="49.19993" lon="-0.65104">
        <ele>70.2</ele>
        <time>2023-05-25T13:11:47Z</time>
      </trkpt>
      <trkpt lat="49.19996" lon="-0.65099">
        <ele>70.2</ele>
        <time>2023-05-25T13:11:48Z</time>
      </trkpt>
      <trkpt lat="49.19999" lon="-0.65094">
        <ele>70</ele>
        <time>2023-05-25T13:11:49Z</time>
      </trkpt>
      <trkpt lat="49.20003" lon="-0.65088">
        <ele>70</ele>
        <time>2023-05-25T13:11:50Z</time>
      </trkpt>
      <trkpt lat="49.20006" lon="-0.65083">
        <ele>70</ele>
        <time>2023-05-25T13:11:51Z</time>
      </trkpt>
      <trkpt lat="49.2001" lon="-0.65078">
        <ele>70.2</ele>
        <time>2023-05-25T13:11:52Z</time>
      </trkpt>
      <trkpt lat="49.20013" lon="-0.65073">
        <ele>70.4</ele>
        <time>2023-05-25T13:11:53Z</time>
      </trkpt>
      <trkpt lat="49.20016" lon="-0.65067">
        <ele>70.4</ele>
        <time>2023-05-25T13:11:54Z</time>
      </trkpt>
      <trkpt lat="49.2002" lon="-0.65062">
        <ele>70.4</ele>
        <time>2023-05-25T13:11:55Z</time>
      </trkpt>
      <trkpt lat="49.20023" lon="-0.65057">
        <ele>70.6</ele>
        <time>2023-05-25T13:11:56Z</time>
      </trkpt>
      <trkpt lat="49.20027" lon="-0.65051">
        <ele>70.6</ele>
        <time>2023-05-25T13:11:57Z</time>
      </trkpt>
      <trkpt lat="49.2003" lon="-0.65046">
        <ele>70.6</ele>
        <time>2023-05-25T13:11:58Z</time>
      </trkpt>
      <trkpt lat="49.20034" lon="-0.65041">
        <ele>70.6</ele>
        <time>2023-05-25T13:11:59Z</time>
      </trkpt>
      <trkpt lat="49.20037" lon="-0.65035">
        <ele>70.6</ele>
        <time>2023-05-25T13:12:00Z</time>
      </trkpt>
      <trkpt lat="49.20041" lon="-0.6503">
        <ele>70.6</ele>
        <time>2023-05-25T13:12:01Z</time>
      </trkpt>
      <trkpt lat="49.20044" lon="-0.65025">
        <ele>70.6</ele>
        <time>2023-05-25T13:12:02Z</time>
      </trkpt>
      <trkpt lat="49.20048" lon="-0.65019">
        <ele>70.6</ele>
        <time>2023-05-25T13:12:03Z</time>
      </trkpt>
      <trkpt lat="49.20051" lon="-0.65014">
        <ele>70.6</ele>
        <time>2023-05-25T13:12:04Z</time>
      </trkpt>
      <trkpt lat="49.20055" lon="-0.65008">
        <ele>70.6</ele>
        <time>2023-05-25T13:12:05Z</time>
      </trkpt>
      <trkpt lat="49.20058" lon="-0.65003">
        <ele>70.6</ele>
        <time>2023-05-25T13:12:06Z</time>
      </trkpt>
      <trkpt lat="49.20062" lon="-0.64998">
        <ele>70.6</ele>
        <time>2023-05-25T13:12:07Z</time>
      </trkpt>
      <trkpt lat="49.20065" lon="-0.64992">
        <ele>70.6</ele>
        <time>2023-05-25T13:12:08Z</time>
      </trkpt>
      <trkpt lat="49.20069" lon="-0.64987">
        <ele>70.6</ele>
        <time>2023-05-25T13:12:09Z</time>
      </trkpt>
      <trkpt lat="49.20072" lon="-0.64982">
        <ele>70.6</ele>
        <time>2023-05-25T13:12:10Z</time>
      </trkpt>
      <trkpt lat="49.20076" lon="-0.64976">
        <ele>70.6</ele>
        <time>2023-05-25T13:12:11Z</time>
      </trkpt>
      <trkpt lat="49.20079" lon="-0.64971">
        <ele>70.6</ele>
        <time>2023-05-25T13:12:12Z</time>
      </trkpt>
      <trkpt lat="49.20083" lon="-0.64965">
        <ele>70.6</ele>
        <time>2023-05-25T13:12:13Z</time>
      </trkpt>
      <trkpt lat="49.20086" lon="-0.6496">
        <ele>70.6</ele>
        <time>2023-05-25T13:12:14Z</time>
      </trkpt>
      <trkpt lat="49.2009" lon="-0.64955">
        <ele>70.6</ele>
        <time>2023-05-25T13:12:15Z</time>
      </trkpt>
      <trkpt lat="49.20093" lon="-0.64949">
        <ele>70.6</ele>
        <time>2023-05-25T13:12:16Z</time>
      </trkpt>
      <trkpt lat="49.20097" lon="-0.64944">
        <ele>70.8</ele>
        <time>2023-05-25T13:12:17Z</time>
      </trkpt>
      <trkpt lat="49.201" lon="-0.64938">
        <ele>71</ele>
        <time>2023-05-25T13:12:18Z</time>
      </trkpt>
      <trkpt lat="49.20103" lon="-0.64933">
        <ele>71</ele>
        <time>2023-05-25T13:12:19Z</time>
      </trkpt>
      <trkpt lat="49.20107" lon="-0.64927">
        <ele>71</ele>
        <time>2023-05-25T13:12:20Z</time>
      </trkpt>
      <trkpt lat="49.2011" lon="-0.64922">
        <ele>71</ele>
        <time>2023-05-25T13:12:21Z</time>
      </trkpt>
      <trkpt lat="49.20114" lon="-0.64917">
        <ele>71</ele>
        <time>2023-05-25T13:12:22Z</time>
      </trkpt>
      <trkpt lat="49.20117" lon="-0.64911">
        <ele>71</ele>
        <time>2023-05-25T13:12:23Z</time>
      </trkpt>
      <trkpt lat="49.2012" lon="-0.64906">
        <ele>71.2</ele>
        <time>2023-05-25T13:12:24Z</time>
      </trkpt>
      <trkpt lat="49.20124" lon="-0.64901">
        <ele>71.4</ele>
        <time>2023-05-25T13:12:25Z</time>
      </trkpt>
      <trkpt lat="49.20127" lon="-0.64896">
        <ele>71.4</ele>
        <time>2023-05-25T13:12:26Z</time>
      </trkpt>
      <trkpt lat="49.2013" lon="-0.64891">
        <ele>71.4</ele>
        <time>2023-05-25T13:12:27Z</time>
      </trkpt>
      <trkpt lat="49.20134" lon="-0.64886">
        <ele>71.4</ele>
        <time>2023-05-25T13:12:28Z</time>
      </trkpt>
      <trkpt lat="49.20137" lon="-0.64881">
        <ele>71.6</ele>
        <time>2023-05-25T13:12:29Z</time>
      </trkpt>
      <trkpt lat="49.2014" lon="-0.64876">
        <ele>71.6</ele>
        <time>2023-05-25T13:12:30Z</time>
      </trkpt>
      <trkpt lat="49.20143" lon="-0.64871">
        <ele>71.6</ele>
        <time>2023-05-25T13:12:31Z</time>
      </trkpt>
      <trkpt lat="49.20146" lon="-0.64866">
        <ele>71.6</ele>
        <time>2023-05-25T13:12:32Z</time>
      </trkpt>
      <trkpt lat="49.20149" lon="-0.64861">
        <ele>71.6</ele>
        <time>2023-05-25T13:12:33Z</time>
      </trkpt>
      <trkpt lat="49.20152" lon="-0.64856">
        <ele>71.8</ele>
        <time>2023-05-25T13:12:34Z</time>
      </trkpt>
      <trkpt lat="49.20156" lon="-0.64851">
        <ele>71.8</ele>
        <time>2023-05-25T13:12:35Z</time>
      </trkpt>
      <trkpt lat="49.20159" lon="-0.64846">
        <ele>72</ele>
        <time>2023-05-25T13:12:36Z</time>
      </trkpt>
      <trkpt lat="49.20162" lon="-0.64841">
        <ele>72</ele>
        <time>2023-05-25T13:12:37Z</time>
      </trkpt>
      <trkpt lat="49.20165" lon="-0.64835">
        <ele>72</ele>
        <time>2023-05-25T13:12:38Z</time>
      </trkpt>
      <trkpt lat="49.20169" lon="-0.6483">
        <ele>72</ele>
        <time>2023-05-25T13:12:39Z</time>
      </trkpt>
      <trkpt lat="49.20172" lon="-0.64825">
        <ele>72</ele>
        <time>2023-05-25T13:12:40Z</time>
      </trkpt>
      <trkpt lat="49.20175" lon="-0.6482">
        <ele>72</ele>
        <time>2023-05-25T13:12:41Z</time>
      </trkpt>
      <trkpt lat="49.20178" lon="-0.64815">
        <ele>72</ele>
        <time>2023-05-25T13:12:42Z</time>
      </trkpt>
      <trkpt lat="49.20181" lon="-0.6481">
        <ele>72</ele>
        <time>2023-05-25T13:12:43Z</time>
      </trkpt>
      <trkpt lat="49.20184" lon="-0.64805">
        <ele>72</ele>
        <time>2023-05-25T13:12:44Z</time>
      </trkpt>
      <trkpt lat="49.20187" lon="-0.648">
        <ele>72</ele>
        <time>2023-05-25T13:12:45Z</time>
      </trkpt>
      <trkpt lat="49.2019" lon="-0.64795">
        <ele>72</ele>
        <time>2023-05-25T13:12:46Z</time>
      </trkpt>
      <trkpt lat="49.20193" lon="-0.6479">
        <ele>72</ele>
        <time>2023-05-25T13:12:47Z</time>
      </trkpt>
      <trkpt lat="49.20195" lon="-0.64785">
        <ele>72</ele>
        <time>2023-05-25T13:12:48Z</time>
      </trkpt>
      <trkpt lat="49.20198" lon="-0.6478">
        <ele>72</ele>
        <time>2023-05-25T13:12:49Z</time>
      </trkpt>
      <trkpt lat="49.20201" lon="-0.64775">
        <ele>71.8</ele>
        <time>2023-05-25T13:12:50Z</time>
      </trkpt>
      <trkpt lat="49.20203" lon="-0.6477">
        <ele>71.8</ele>
        <time>2023-05-25T13:12:51Z</time>
      </trkpt>
      <trkpt lat="49.20206" lon="-0.64764">
        <ele>71.6</ele>
        <time>2023-05-25T13:12:52Z</time>
      </trkpt>
      <trkpt lat="49.20209" lon="-0.64759">
        <ele>71.6</ele>
        <time>2023-05-25T13:12:53Z</time>
      </trkpt>
      <trkpt lat="49.20211" lon="-0.64753">
        <ele>71.6</ele>
        <time>2023-05-25T13:12:54Z</time>
      </trkpt>
      <trkpt lat="49.20214" lon="-0.64746">
        <ele>71.6</ele>
        <time>2023-05-25T13:12:55Z</time>
      </trkpt>
      <trkpt lat="49.20216" lon="-0.6474">
        <ele>71.6</ele>
        <time>2023-05-25T13:12:56Z</time>
      </trkpt>
      <trkpt lat="49.20219" lon="-0.64734">
        <ele>71.6</ele>
        <time>2023-05-25T13:12:57Z</time>
      </trkpt>
      <trkpt lat="49.20221" lon="-0.64727">
        <ele>71.6</ele>
        <time>2023-05-25T13:12:58Z</time>
      </trkpt>
      <trkpt lat="49.20223" lon="-0.6472">
        <ele>71.6</ele>
        <time>2023-05-25T13:12:59Z</time>
      </trkpt>
      <trkpt lat="49.20225" lon="-0.64714">
        <ele>71.6</ele>
        <time>2023-05-25T13:13:00Z</time>
      </trkpt>
      <trkpt lat="49.20227" lon="-0.64707">
        <ele>71.6</ele>
        <time>2023-05-25T13:13:01Z</time>
      </trkpt>
      <trkpt lat="49.20229" lon="-0.647">
        <ele>71.6</ele>
        <time>2023-05-25T13:13:02Z</time>
      </trkpt>
      <trkpt lat="49.20231" lon="-0.64693">
        <ele>71.6</ele>
        <time>2023-05-25T13:13:03Z</time>
      </trkpt>
      <trkpt lat="49.20233" lon="-0.64686">
        <ele>71.6</ele>
        <time>2023-05-25T13:13:04Z</time>
      </trkpt>
      <trkpt lat="49.20234" lon="-0.64679">
        <ele>71.6</ele>
        <time>2023-05-25T13:13:05Z</time>
      </trkpt>
      <trkpt lat="49.20236" lon="-0.64673">
        <ele>71.6</ele>
        <time>2023-05-25T13:13:06Z</time>
      </trkpt>
      <trkpt lat="49.20238" lon="-0.64666">
        <ele>71.6</ele>
        <time>2023-05-25T13:13:07Z</time>
      </trkpt>
      <trkpt lat="49.20239" lon="-0.6466">
        <ele>71.6</ele>
        <time>2023-05-25T13:13:08Z</time>
      </trkpt>
      <trkpt lat="49.20241" lon="-0.64655">
        <ele>71.4</ele>
        <time>2023-05-25T13:13:09Z</time>
      </trkpt>
      <trkpt lat="49.20242" lon="-0.64651">
        <ele>71.4</ele>
        <time>2023-05-25T13:13:10Z</time>
      </trkpt>
      <trkpt lat="49.20242" lon="-0.64647">
        <ele>71</ele>
        <time>2023-05-25T13:13:11Z</time>
      </trkpt>
      <trkpt lat="49.20243" lon="-0.64644">
        <ele>71</ele>
        <time>2023-05-25T13:13:12Z</time>
      </trkpt>
      <trkpt lat="49.20243" lon="-0.64639">
        <ele>71</ele>
        <time>2023-05-25T13:13:13Z</time>
      </trkpt>
      <trkpt lat="49.20244" lon="-0.64635">
        <ele>70.6</ele>
        <time>2023-05-25T13:13:14Z</time>
      </trkpt>
      <trkpt lat="49.20245" lon="-0.6463">
        <ele>70.6</ele>
        <time>2023-05-25T13:13:15Z</time>
      </trkpt>
      <trkpt lat="49.20247" lon="-0.64624">
        <ele>70.4</ele>
        <time>2023-05-25T13:13:16Z</time>
      </trkpt>
      <trkpt lat="49.20249" lon="-0.64617">
        <ele>70.2</ele>
        <time>2023-05-25T13:13:17Z</time>
      </trkpt>
      <trkpt lat="49.20251" lon="-0.6461">
        <ele>70</ele>
        <time>2023-05-25T13:13:18Z</time>
      </trkpt>
      <trkpt lat="49.20254" lon="-0.64603">
        <ele>69.8</ele>
        <time>2023-05-25T13:13:19Z</time>
      </trkpt>
      <trkpt lat="49.20256" lon="-0.64595">
        <ele>69.6</ele>
        <time>2023-05-25T13:13:20Z</time>
      </trkpt>
      <trkpt lat="49.20258" lon="-0.64588">
        <ele>69.4</ele>
        <time>2023-05-25T13:13:21Z</time>
      </trkpt>
      <trkpt lat="49.20261" lon="-0.6458">
        <ele>69.2</ele>
        <time>2023-05-25T13:13:22Z</time>
      </trkpt>
      <trkpt lat="49.20263" lon="-0.64572">
        <ele>69.2</ele>
        <time>2023-05-25T13:13:23Z</time>
      </trkpt>
      <trkpt lat="49.20266" lon="-0.64564">
        <ele>69.2</ele>
        <time>2023-05-25T13:13:24Z</time>
      </trkpt>
      <trkpt lat="49.20269" lon="-0.64556">
        <ele>69</ele>
        <time>2023-05-25T13:13:25Z</time>
      </trkpt>
      <trkpt lat="49.20272" lon="-0.64547">
        <ele>69</ele>
        <time>2023-05-25T13:13:26Z</time>
      </trkpt>
      <trkpt lat="49.20274" lon="-0.64539">
        <ele>69</ele>
        <time>2023-05-25T13:13:27Z</time>
      </trkpt>
      <trkpt lat="49.20277" lon="-0.64531">
        <ele>69</ele>
        <time>2023-05-25T13:13:28Z</time>
      </trkpt>
      <trkpt lat="49.2028" lon="-0.64522">
        <ele>69</ele>
        <time>2023-05-25T13:13:29Z</time>
      </trkpt>
      <trkpt lat="49.20283" lon="-0.64513">
        <ele>69</ele>
        <time>2023-05-25T13:13:30Z</time>
      </trkpt>
      <trkpt lat="49.20286" lon="-0.64505">
        <ele>69</ele>
        <time>2023-05-25T13:13:31Z</time>
      </trkpt>
      <trkpt lat="49.20289" lon="-0.64496">
        <ele>69</ele>
        <time>2023-05-25T13:13:32Z</time>
      </trkpt>
      <trkpt lat="49.20292" lon="-0.64487">
        <ele>69</ele>
        <time>2023-05-25T13:13:33Z</time>
      </trkpt>
      <trkpt lat="49.20295" lon="-0.64478">
        <ele>69</ele>
        <time>2023-05-25T13:13:34Z</time>
      </trkpt>
      <trkpt lat="49.20299" lon="-0.6447">
        <ele>69</ele>
        <time>2023-05-25T13:13:35Z</time>
      </trkpt>
      <trkpt lat="49.20302" lon="-0.64461">
        <ele>69</ele>
        <time>2023-05-25T13:13:36Z</time>
      </trkpt>
      <trkpt lat="49.20305" lon="-0.64452">
        <ele>69</ele>
        <time>2023-05-25T13:13:37Z</time>
      </trkpt>
      <trkpt lat="49.20308" lon="-0.64443">
        <ele>69</ele>
        <time>2023-05-25T13:13:38Z</time>
      </trkpt>
      <trkpt lat="49.20311" lon="-0.64434">
        <ele>69</ele>
        <time>2023-05-25T13:13:39Z</time>
      </trkpt>
      <trkpt lat="49.20314" lon="-0.64425">
        <ele>69</ele>
        <time>2023-05-25T13:13:40Z</time>
      </trkpt>
      <trkpt lat="49.20318" lon="-0.64416">
        <ele>68.8</ele>
        <time>2023-05-25T13:13:41Z</time>
      </trkpt>
      <trkpt lat="49.20321" lon="-0.64407">
        <ele>68.6</ele>
        <time>2023-05-25T13:13:42Z</time>
      </trkpt>
      <trkpt lat="49.20324" lon="-0.64398">
        <ele>68.4</ele>
        <time>2023-05-25T13:13:43Z</time>
      </trkpt>
      <trkpt lat="49.20327" lon="-0.6439">
        <ele>68</ele>
        <time>2023-05-25T13:13:44Z</time>
      </trkpt>
      <trkpt lat="49.2033" lon="-0.64381">
        <ele>67.6</ele>
        <time>2023-05-25T13:13:45Z</time>
      </trkpt>
      <trkpt lat="49.20334" lon="-0.64372">
        <ele>67.4</ele>
        <time>2023-05-25T13:13:46Z</time>
      </trkpt>
      <trkpt lat="49.20337" lon="-0.64363">
        <ele>67</ele>
        <time>2023-05-25T13:13:47Z</time>
      </trkpt>
      <trkpt lat="49.2034" lon="-0.64354">
        <ele>66.6</ele>
        <time>2023-05-25T13:13:48Z</time>
      </trkpt>
      <trkpt lat="49.20343" lon="-0.64345">
        <ele>66.4</ele>
        <time>2023-05-25T13:13:49Z</time>
      </trkpt>
      <trkpt lat="49.20346" lon="-0.64336">
        <ele>66</ele>
        <time>2023-05-25T13:13:50Z</time>
      </trkpt>
      <trkpt lat="49.2035" lon="-0.64326">
        <ele>66</ele>
        <time>2023-05-25T13:13:51Z</time>
      </trkpt>
      <trkpt lat="49.20353" lon="-0.64317">
        <ele>65.8</ele>
        <time>2023-05-25T13:13:52Z</time>
      </trkpt>
      <trkpt lat="49.20357" lon="-0.64308">
        <ele>65.6</ele>
        <time>2023-05-25T13:13:53Z</time>
      </trkpt>
      <trkpt lat="49.2036" lon="-0.64299">
        <ele>65.6</ele>
        <time>2023-05-25T13:13:54Z</time>
      </trkpt>
      <trkpt lat="49.20363" lon="-0.64289">
        <ele>65.6</ele>
        <time>2023-05-25T13:13:55Z</time>
      </trkpt>
      <trkpt lat="49.20367" lon="-0.64279">
        <ele>65.4</ele>
        <time>2023-05-25T13:13:56Z</time>
      </trkpt>
      <trkpt lat="49.2037" lon="-0.6427">
        <ele>65.2</ele>
        <time>2023-05-25T13:13:57Z</time>
      </trkpt>
      <trkpt lat="49.20374" lon="-0.6426">
        <ele>65</ele>
        <time>2023-05-25T13:13:58Z</time>
      </trkpt>
      <trkpt lat="49.20377" lon="-0.6425">
        <ele>65</ele>
        <time>2023-05-25T13:13:59Z</time>
      </trkpt>
      <trkpt lat="49.20381" lon="-0.64241">
        <ele>64.8</ele>
        <time>2023-05-25T13:14:00Z</time>
      </trkpt>
      <trkpt lat="49.20384" lon="-0.64231">
        <ele>64.6</ele>
        <time>2023-05-25T13:14:01Z</time>
      </trkpt>
      <trkpt lat="49.20388" lon="-0.64221">
        <ele>64.4</ele>
        <time>2023-05-25T13:14:02Z</time>
      </trkpt>
      <trkpt lat="49.20391" lon="-0.64212">
        <ele>64</ele>
        <time>2023-05-25T13:14:03Z</time>
      </trkpt>
      <trkpt lat="49.20395" lon="-0.64202">
        <ele>63.8</ele>
        <time>2023-05-25T13:14:04Z</time>
      </trkpt>
      <trkpt lat="49.20398" lon="-0.64192">
        <ele>63.6</ele>
        <time>2023-05-25T13:14:05Z</time>
      </trkpt>
      <trkpt lat="49.20402" lon="-0.64182">
        <ele>63.4</ele>
        <time>2023-05-25T13:14:06Z</time>
      </trkpt>
      <trkpt lat="49.20405" lon="-0.64172">
        <ele>63</ele>
        <time>2023-05-25T13:14:07Z</time>
      </trkpt>
      <trkpt lat="49.20408" lon="-0.64161">
        <ele>63</ele>
        <time>2023-05-25T13:14:08Z</time>
      </trkpt>
      <trkpt lat="49.20412" lon="-0.64151">
        <ele>62.8</ele>
        <time>2023-05-25T13:14:09Z</time>
      </trkpt>
      <trkpt lat="49.20415" lon="-0.64141">
        <ele>62.8</ele>
        <time>2023-05-25T13:14:10Z</time>
      </trkpt>
      <trkpt lat="49.20419" lon="-0.64131">
        <ele>62.6</ele>
        <time>2023-05-25T13:14:11Z</time>
      </trkpt>
      <trkpt lat="49.20422" lon="-0.64122">
        <ele>62.6</ele>
        <time>2023-05-25T13:14:12Z</time>
      </trkpt>
      <trkpt lat="49.20426" lon="-0.64112">
        <ele>62.6</ele>
        <time>2023-05-25T13:14:13Z</time>
      </trkpt>
      <trkpt lat="49.20429" lon="-0.64102">
        <ele>62.6</ele>
        <time>2023-05-25T13:14:14Z</time>
      </trkpt>
      <trkpt lat="49.20433" lon="-0.64092">
        <ele>62.6</ele>
        <time>2023-05-25T13:14:15Z</time>
      </trkpt>
      <trkpt lat="49.20436" lon="-0.64083">
        <ele>62.6</ele>
        <time>2023-05-25T13:14:16Z</time>
      </trkpt>
      <trkpt lat="49.2044" lon="-0.64073">
        <ele>62.4</ele>
        <time>2023-05-25T13:14:17Z</time>
      </trkpt>
      <trkpt lat="49.20444" lon="-0.64064">
        <ele>62.2</ele>
        <time>2023-05-25T13:14:18Z</time>
      </trkpt>
      <trkpt lat="49.20448" lon="-0.64054">
        <ele>62.2</ele>
        <time>2023-05-25T13:14:19Z</time>
      </trkpt>
      <trkpt lat="49.20452" lon="-0.64044">
        <ele>62.2</ele>
        <time>2023-05-25T13:14:20Z</time>
      </trkpt>
      <trkpt lat="49.20456" lon="-0.64035">
        <ele>62</ele>
        <time>2023-05-25T13:14:21Z</time>
      </trkpt>
      <trkpt lat="49.2046" lon="-0.64025">
        <ele>62</ele>
        <time>2023-05-25T13:14:22Z</time>
      </trkpt>
      <trkpt lat="49.20465" lon="-0.64015">
        <ele>62</ele>
        <time>2023-05-25T13:14:23Z</time>
      </trkpt>
      <trkpt lat="49.20469" lon="-0.64005">
        <ele>61.8</ele>
        <time>2023-05-25T13:14:24Z</time>
      </trkpt>
      <trkpt lat="49.20473" lon="-0.63995">
        <ele>61.6</ele>
        <time>2023-05-25T13:14:25Z</time>
      </trkpt>
      <trkpt lat="49.20478" lon="-0.63985">
        <ele>61.2</ele>
        <time>2023-05-25T13:14:26Z</time>
      </trkpt>
      <trkpt lat="49.20482" lon="-0.63975">
        <ele>61</ele>
        <time>2023-05-25T13:14:27Z</time>
      </trkpt>
      <trkpt lat="49.20486" lon="-0.63965">
        <ele>61</ele>
        <time>2023-05-25T13:14:28Z</time>
      </trkpt>
      <trkpt lat="49.20491" lon="-0.63955">
        <ele>60.8</ele>
        <time>2023-05-25T13:14:29Z</time>
      </trkpt>
      <trkpt lat="49.20495" lon="-0.63945">
        <ele>60.6</ele>
        <time>2023-05-25T13:14:30Z</time>
      </trkpt>
      <trkpt lat="49.20499" lon="-0.63934">
        <ele>60.4</ele>
        <time>2023-05-25T13:14:31Z</time>
      </trkpt>
      <trkpt lat="49.20504" lon="-0.63924">
        <ele>60.2</ele>
        <time>2023-05-25T13:14:32Z</time>
      </trkpt>
      <trkpt lat="49.20508" lon="-0.63914">
        <ele>60</ele>
        <time>2023-05-25T13:14:33Z</time>
      </trkpt>
      <trkpt lat="49.20512" lon="-0.63903">
        <ele>59.8</ele>
        <time>2023-05-25T13:14:34Z</time>
      </trkpt>
      <trkpt lat="49.20516" lon="-0.63893">
        <ele>59.2</ele>
        <time>2023-05-25T13:14:35Z</time>
      </trkpt>
      <trkpt lat="49.2052" lon="-0.63882">
        <ele>59</ele>
        <time>2023-05-25T13:14:36Z</time>
      </trkpt>
      <trkpt lat="49.20524" lon="-0.63872">
        <ele>58.8</ele>
        <time>2023-05-25T13:14:37Z</time>
      </trkpt>
      <trkpt lat="49.20528" lon="-0.63862">
        <ele>58.4</ele>
        <time>2023-05-25T13:14:38Z</time>
      </trkpt>
      <trkpt lat="49.20532" lon="-0.63852">
        <ele>58</ele>
        <time>2023-05-25T13:14:39Z</time>
      </trkpt>
      <trkpt lat="49.20536" lon="-0.63842">
        <ele>57.8</ele>
        <time>2023-05-25T13:14:40Z</time>
      </trkpt>
      <trkpt lat="49.2054" lon="-0.63832">
        <ele>57.6</ele>
        <time>2023-05-25T13:14:41Z</time>
      </trkpt>
      <trkpt lat="49.20544" lon="-0.63823">
        <ele>57.4</ele>
        <time>2023-05-25T13:14:42Z</time>
      </trkpt>
      <trkpt lat="49.20548" lon="-0.63813">
        <ele>57.2</ele>
        <time>2023-05-25T13:14:43Z</time>
      </trkpt>
      <trkpt lat="49.20553" lon="-0.63804">
        <ele>57.2</ele>
        <time>2023-05-25T13:14:44Z</time>
      </trkpt>
      <trkpt lat="49.20557" lon="-0.63795">
        <ele>57</ele>
        <time>2023-05-25T13:14:45Z</time>
      </trkpt>
      <trkpt lat="49.20561" lon="-0.63785">
        <ele>57</ele>
        <time>2023-05-25T13:14:46Z</time>
      </trkpt>
      <trkpt lat="49.20566" lon="-0.63776">
        <ele>56.8</ele>
        <time>2023-05-25T13:14:47Z</time>
      </trkpt>
      <trkpt lat="49.2057" lon="-0.63766">
        <ele>56.6</ele>
        <time>2023-05-25T13:14:48Z</time>
      </trkpt>
      <trkpt lat="49.20574" lon="-0.63756">
        <ele>56.2</ele>
        <time>2023-05-25T13:14:49Z</time>
      </trkpt>
      <trkpt lat="49.20578" lon="-0.63745">
        <ele>56</ele>
        <time>2023-05-25T13:14:50Z</time>
      </trkpt>
      <trkpt lat="49.20582" lon="-0.63735">
        <ele>55.8</ele>
        <time>2023-05-25T13:14:51Z</time>
      </trkpt>
      <trkpt lat="49.20587" lon="-0.63725">
        <ele>55.8</ele>
        <time>2023-05-25T13:14:52Z</time>
      </trkpt>
      <trkpt lat="49.20592" lon="-0.63715">
        <ele>55.6</ele>
        <time>2023-05-25T13:14:53Z</time>
      </trkpt>
      <trkpt lat="49.20597" lon="-0.63706">
        <ele>55.4</ele>
        <time>2023-05-25T13:14:54Z</time>
      </trkpt>
      <trkpt lat="49.20603" lon="-0.63697">
        <ele>55.2</ele>
        <time>2023-05-25T13:14:55Z</time>
      </trkpt>
      <trkpt lat="49.20608" lon="-0.63689">
        <ele>55</ele>
        <time>2023-05-25T13:14:56Z</time>
      </trkpt>
      <trkpt lat="49.20614" lon="-0.63682">
        <ele>55</ele>
        <time>2023-05-25T13:14:57Z</time>
      </trkpt>
      <trkpt lat="49.20619" lon="-0.63674">
        <ele>54.8</ele>
        <time>2023-05-25T13:14:58Z</time>
      </trkpt>
      <trkpt lat="49.20625" lon="-0.63667">
        <ele>54.6</ele>
        <time>2023-05-25T13:14:59Z</time>
      </trkpt>
      <trkpt lat="49.2063" lon="-0.6366">
        <ele>54.2</ele>
        <time>2023-05-25T13:15:00Z</time>
      </trkpt>
      <trkpt lat="49.20636" lon="-0.63653">
        <ele>54</ele>
        <time>2023-05-25T13:15:01Z</time>
      </trkpt>
      <trkpt lat="49.20642" lon="-0.63646">
        <ele>54</ele>
        <time>2023-05-25T13:15:02Z</time>
      </trkpt>
      <trkpt lat="49.20648" lon="-0.63639">
        <ele>53.8</ele>
        <time>2023-05-25T13:15:03Z</time>
      </trkpt>
      <trkpt lat="49.20653" lon="-0.63633">
        <ele>53.6</ele>
        <time>2023-05-25T13:15:04Z</time>
      </trkpt>
      <trkpt lat="49.20658" lon="-0.63628">
        <ele>53.6</ele>
        <time>2023-05-25T13:15:05Z</time>
      </trkpt>
      <trkpt lat="49.20662" lon="-0.63624">
        <ele>53.6</ele>
        <time>2023-05-25T13:15:06Z</time>
      </trkpt>
      <trkpt lat="49.20665" lon="-0.6362">
        <ele>53.4</ele>
        <time>2023-05-25T13:15:07Z</time>
      </trkpt>
      <trkpt lat="49.20668" lon="-0.63615">
        <ele>53.4</ele>
        <time>2023-05-25T13:15:08Z</time>
      </trkpt>
      <trkpt lat="49.20671" lon="-0.63609">
        <ele>53.4</ele>
        <time>2023-05-25T13:15:09Z</time>
      </trkpt>
      <trkpt lat="49.20674" lon="-0.63603">
        <ele>53.2</ele>
        <time>2023-05-25T13:15:10Z</time>
      </trkpt>
      <trkpt lat="49.20677" lon="-0.63596">
        <ele>53.2</ele>
        <time>2023-05-25T13:15:11Z</time>
      </trkpt>
      <trkpt lat="49.20679" lon="-0.63589">
        <ele>53.2</ele>
        <time>2023-05-25T13:15:12Z</time>
      </trkpt>
      <trkpt lat="49.20682" lon="-0.63583">
        <ele>53.2</ele>
        <time>2023-05-25T13:15:13Z</time>
      </trkpt>
      <trkpt lat="49.20686" lon="-0.63576">
        <ele>53</ele>
        <time>2023-05-25T13:15:14Z</time>
      </trkpt>
      <trkpt lat="49.20689" lon="-0.63569">
        <ele>52.8</ele>
        <time>2023-05-25T13:15:15Z</time>
      </trkpt>
      <trkpt lat="49.20693" lon="-0.63561">
        <ele>52.4</ele>
        <time>2023-05-25T13:15:16Z</time>
      </trkpt>
      <trkpt lat="49.20697" lon="-0.63553">
        <ele>52</ele>
        <time>2023-05-25T13:15:17Z</time>
      </trkpt>
      <trkpt lat="49.20701" lon="-0.63544">
        <ele>51.8</ele>
        <time>2023-05-25T13:15:18Z</time>
      </trkpt>
      <trkpt lat="49.20705" lon="-0.63535">
        <ele>51.4</ele>
        <time>2023-05-25T13:15:19Z</time>
      </trkpt>
      <trkpt lat="49.20709" lon="-0.63525">
        <ele>51</ele>
        <time>2023-05-25T13:15:20Z</time>
      </trkpt>
      <trkpt lat="49.20714" lon="-0.63516">
        <ele>50.8</ele>
        <time>2023-05-25T13:15:21Z</time>
      </trkpt>
      <trkpt lat="49.20718" lon="-0.63506">
        <ele>50.2</ele>
        <time>2023-05-25T13:15:22Z</time>
      </trkpt>
      <trkpt lat="49.20723" lon="-0.63497">
        <ele>50</ele>
        <time>2023-05-25T13:15:23Z</time>
      </trkpt>
      <trkpt lat="49.20728" lon="-0.63489">
        <ele>49.6</ele>
        <time>2023-05-25T13:15:24Z</time>
      </trkpt>
      <trkpt lat="49.20732" lon="-0.63481">
        <ele>49.2</ele>
        <time>2023-05-25T13:15:25Z</time>
      </trkpt>
      <trkpt lat="49.20737" lon="-0.63473">
        <ele>49</ele>
        <time>2023-05-25T13:15:26Z</time>
      </trkpt>
      <trkpt lat="49.20741" lon="-0.63466">
        <ele>48.8</ele>
        <time>2023-05-25T13:15:27Z</time>
      </trkpt>
      <trkpt lat="49.20746" lon="-0.63459">
        <ele>48.6</ele>
        <time>2023-05-25T13:15:28Z</time>
      </trkpt>
      <trkpt lat="49.20751" lon="-0.63451">
        <ele>48.2</ele>
        <time>2023-05-25T13:15:29Z</time>
      </trkpt>
      <trkpt lat="49.20757" lon="-0.63442">
        <ele>48</ele>
        <time>2023-05-25T13:15:30Z</time>
      </trkpt>
      <trkpt lat="49.20763" lon="-0.63432">
        <ele>47.8</ele>
        <time>2023-05-25T13:15:31Z</time>
      </trkpt>
      <trkpt lat="49.20769" lon="-0.63422">
        <ele>47.4</ele>
        <time>2023-05-25T13:15:32Z</time>
      </trkpt>
      <trkpt lat="49.20775" lon="-0.63413">
        <ele>47</ele>
        <time>2023-05-25T13:15:33Z</time>
      </trkpt>
      <trkpt lat="49.20781" lon="-0.63404">
        <ele>46.8</ele>
        <time>2023-05-25T13:15:34Z</time>
      </trkpt>
      <trkpt lat="49.20788" lon="-0.63397">
        <ele>46.6</ele>
        <time>2023-05-25T13:15:35Z</time>
      </trkpt>
      <trkpt lat="49.20794" lon="-0.63389">
        <ele>46.4</ele>
        <time>2023-05-25T13:15:36Z</time>
      </trkpt>
      <trkpt lat="49.208" lon="-0.63382">
        <ele>46.2</ele>
        <time>2023-05-25T13:15:37Z</time>
      </trkpt>
      <trkpt lat="49.20805" lon="-0.63374">
        <ele>46</ele>
        <time>2023-05-25T13:15:38Z</time>
      </trkpt>
      <trkpt lat="49.2081" lon="-0.63367">
        <ele>45.8</ele>
        <time>2023-05-25T13:15:39Z</time>
      </trkpt>
      <trkpt lat="49.20815" lon="-0.63359">
        <ele>45.6</ele>
        <time>2023-05-25T13:15:40Z</time>
      </trkpt>
      <trkpt lat="49.2082" lon="-0.63351">
        <ele>45.4</ele>
        <time>2023-05-25T13:15:41Z</time>
      </trkpt>
      <trkpt lat="49.20826" lon="-0.63343">
        <ele>45.2</ele>
        <time>2023-05-25T13:15:42Z</time>
      </trkpt>
      <trkpt lat="49.20832" lon="-0.63335">
        <ele>45</ele>
        <time>2023-05-25T13:15:43Z</time>
      </trkpt>
      <trkpt lat="49.20837" lon="-0.63327">
        <ele>45</ele>
        <time>2023-05-25T13:15:44Z</time>
      </trkpt>
      <trkpt lat="49.20843" lon="-0.6332">
        <ele>45.2</ele>
        <time>2023-05-25T13:15:45Z</time>
      </trkpt>
      <trkpt lat="49.20848" lon="-0.63312">
        <ele>45.2</ele>
        <time>2023-05-25T13:15:46Z</time>
      </trkpt>
      <trkpt lat="49.20854" lon="-0.63304">
        <ele>45.4</ele>
        <time>2023-05-25T13:15:47Z</time>
      </trkpt>
      <trkpt lat="49.20859" lon="-0.63297">
        <ele>45.6</ele>
        <time>2023-05-25T13:15:48Z</time>
      </trkpt>
      <trkpt lat="49.20864" lon="-0.6329">
        <ele>45.6</ele>
        <time>2023-05-25T13:15:49Z</time>
      </trkpt>
      <trkpt lat="49.20868" lon="-0.63283">
        <ele>45.6</ele>
        <time>2023-05-25T13:15:50Z</time>
      </trkpt>
      <trkpt lat="49.20873" lon="-0.63276">
        <ele>45.8</ele>
        <time>2023-05-25T13:15:51Z</time>
      </trkpt>
      <trkpt lat="49.20877" lon="-0.63269">
        <ele>45.8</ele>
        <time>2023-05-25T13:15:52Z</time>
      </trkpt>
      <trkpt lat="49.20881" lon="-0.63262">
        <ele>45.8</ele>
        <time>2023-05-25T13:15:53Z</time>
      </trkpt>
      <trkpt lat="49.20886" lon="-0.63255">
        <ele>45.8</ele>
        <time>2023-05-25T13:15:54Z</time>
      </trkpt>
      <trkpt lat="49.2089" lon="-0.63249">
        <ele>45.8</ele>
        <time>2023-05-25T13:15:55Z</time>
      </trkpt>
      <trkpt lat="49.20894" lon="-0.63242">
        <ele>45.8</ele>
        <time>2023-05-25T13:15:56Z</time>
      </trkpt>
      <trkpt lat="49.20899" lon="-0.63235">
        <ele>45.8</ele>
        <time>2023-05-25T13:15:57Z</time>
      </trkpt>
      <trkpt lat="49.20903" lon="-0.63228">
        <ele>45.8</ele>
        <time>2023-05-25T13:15:58Z</time>
      </trkpt>
      <trkpt lat="49.20908" lon="-0.63221">
        <ele>46</ele>
        <time>2023-05-25T13:15:59Z</time>
      </trkpt>
      <trkpt lat="49.20912" lon="-0.63214">
        <ele>46</ele>
        <time>2023-05-25T13:16:00Z</time>
      </trkpt>
      <trkpt lat="49.20917" lon="-0.63207">
        <ele>46</ele>
        <time>2023-05-25T13:16:01Z</time>
      </trkpt>
      <trkpt lat="49.20921" lon="-0.63199">
        <ele>46</ele>
        <time>2023-05-25T13:16:02Z</time>
      </trkpt>
      <trkpt lat="49.20925" lon="-0.63191">
        <ele>46</ele>
        <time>2023-05-25T13:16:03Z</time>
      </trkpt>
      <trkpt lat="49.20929" lon="-0.63182">
        <ele>46</ele>
        <time>2023-05-25T13:16:04Z</time>
      </trkpt>
      <trkpt lat="49.20933" lon="-0.63173">
        <ele>46</ele>
        <time>2023-05-25T13:16:05Z</time>
      </trkpt>
      <trkpt lat="49.20936" lon="-0.63164">
        <ele>46</ele>
        <time>2023-05-25T13:16:06Z</time>
      </trkpt>
      <trkpt lat="49.20939" lon="-0.63154">
        <ele>45.8</ele>
        <time>2023-05-25T13:16:07Z</time>
      </trkpt>
      <trkpt lat="49.20942" lon="-0.63145">
        <ele>45.6</ele>
        <time>2023-05-25T13:16:08Z</time>
      </trkpt>
      <trkpt lat="49.20945" lon="-0.63135">
        <ele>45.2</ele>
        <time>2023-05-25T13:16:09Z</time>
      </trkpt>
      <trkpt lat="49.20948" lon="-0.63125">
        <ele>45</ele>
        <time>2023-05-25T13:16:10Z</time>
      </trkpt>
      <trkpt lat="49.20951" lon="-0.63115">
        <ele>45</ele>
        <time>2023-05-25T13:16:11Z</time>
      </trkpt>
      <trkpt lat="49.20954" lon="-0.63106">
        <ele>44.8</ele>
        <time>2023-05-25T13:16:12Z</time>
      </trkpt>
      <trkpt lat="49.20958" lon="-0.63096">
        <ele>44.6</ele>
        <time>2023-05-25T13:16:13Z</time>
      </trkpt>
      <trkpt lat="49.20961" lon="-0.63087">
        <ele>44.4</ele>
        <time>2023-05-25T13:16:14Z</time>
      </trkpt>
      <trkpt lat="49.20965" lon="-0.63078">
        <ele>44.4</ele>
        <time>2023-05-25T13:16:15Z</time>
      </trkpt>
      <trkpt lat="49.20968" lon="-0.6307">
        <ele>44.6</ele>
        <time>2023-05-25T13:16:16Z</time>
      </trkpt>
      <trkpt lat="49.20972" lon="-0.63062">
        <ele>44.6</ele>
        <time>2023-05-25T13:16:17Z</time>
      </trkpt>
      <trkpt lat="49.20976" lon="-0.63055">
        <ele>44.8</ele>
        <time>2023-05-25T13:16:18Z</time>
      </trkpt>
      <trkpt lat="49.2098" lon="-0.63048">
        <ele>44.8</ele>
        <time>2023-05-25T13:16:19Z</time>
      </trkpt>
      <trkpt lat="49.20984" lon="-0.63041">
        <ele>45</ele>
        <time>2023-05-25T13:16:20Z</time>
      </trkpt>
      <trkpt lat="49.20987" lon="-0.63035">
        <ele>45</ele>
        <time>2023-05-25T13:16:21Z</time>
      </trkpt>
      <trkpt lat="49.20991" lon="-0.63028">
        <ele>45</ele>
        <time>2023-05-25T13:16:22Z</time>
      </trkpt>
      <trkpt lat="49.20995" lon="-0.63022">
        <ele>45.2</ele>
        <time>2023-05-25T13:16:23Z</time>
      </trkpt>
      <trkpt lat="49.20999" lon="-0.63017">
        <ele>45.2</ele>
        <time>2023-05-25T13:16:24Z</time>
      </trkpt>
      <trkpt lat="49.21002" lon="-0.63012">
        <ele>45.4</ele>
        <time>2023-05-25T13:16:25Z</time>
      </trkpt>
      <trkpt lat="49.21006" lon="-0.63007">
        <ele>45.6</ele>
        <time>2023-05-25T13:16:26Z</time>
      </trkpt>
      <trkpt lat="49.21009" lon="-0.63003">
        <ele>45.6</ele>
        <time>2023-05-25T13:16:27Z</time>
      </trkpt>
      <trkpt lat="49.21013" lon="-0.62999">
        <ele>45.8</ele>
        <time>2023-05-25T13:16:28Z</time>
      </trkpt>
      <trkpt lat="49.21016" lon="-0.62995">
        <ele>45.8</ele>
        <time>2023-05-25T13:16:29Z</time>
      </trkpt>
      <trkpt lat="49.2102" lon="-0.62992">
        <ele>46</ele>
        <time>2023-05-25T13:16:30Z</time>
      </trkpt>
      <trkpt lat="49.21023" lon="-0.62989">
        <ele>46</ele>
        <time>2023-05-25T13:16:31Z</time>
      </trkpt>
      <trkpt lat="49.21027" lon="-0.62987">
        <ele>46.2</ele>
        <time>2023-05-25T13:16:32Z</time>
      </trkpt>
      <trkpt lat="49.2103" lon="-0.62985">
        <ele>46.2</ele>
        <time>2023-05-25T13:16:33Z</time>
      </trkpt>
      <trkpt lat="49.21033" lon="-0.62984">
        <ele>46.6</ele>
        <time>2023-05-25T13:16:34Z</time>
      </trkpt>
      <trkpt lat="49.21036" lon="-0.62984">
        <ele>46.8</ele>
        <time>2023-05-25T13:16:35Z</time>
      </trkpt>
      <trkpt lat="49.21038" lon="-0.62985">
        <ele>46.8</ele>
        <time>2023-05-25T13:16:36Z</time>
      </trkpt>
      <trkpt lat="49.21041" lon="-0.62986">
        <ele>47</ele>
        <time>2023-05-25T13:16:37Z</time>
      </trkpt>
      <trkpt lat="49.21043" lon="-0.62988">
        <ele>47.2</ele>
        <time>2023-05-25T13:16:38Z</time>
      </trkpt>
      <trkpt lat="49.21046" lon="-0.6299">
        <ele>47.6</ele>
        <time>2023-05-25T13:16:39Z</time>
      </trkpt>
      <trkpt lat="49.21049" lon="-0.62992">
        <ele>47.8</ele>
        <time>2023-05-25T13:16:40Z</time>
      </trkpt>
      <trkpt lat="49.21052" lon="-0.62994">
        <ele>48</ele>
        <time>2023-05-25T13:16:41Z</time>
      </trkpt>
      <trkpt lat="49.21054" lon="-0.62997">
        <ele>48.2</ele>
        <time>2023-05-25T13:16:42Z</time>
      </trkpt>
      <trkpt lat="49.21057" lon="-0.63">
        <ele>48.4</ele>
        <time>2023-05-25T13:16:43Z</time>
      </trkpt>
      <trkpt lat="49.21059" lon="-0.63003">
        <ele>48.6</ele>
        <time>2023-05-25T13:16:44Z</time>
      </trkpt>
      <trkpt lat="49.21062" lon="-0.63006">
        <ele>48.8</ele>
        <time>2023-05-25T13:16:45Z</time>
      </trkpt>
      <trkpt lat="49.21064" lon="-0.63008">
        <ele>49</ele>
        <time>2023-05-25T13:16:46Z</time>
      </trkpt>
      <trkpt lat="49.21067" lon="-0.63009">
        <ele>49</ele>
        <time>2023-05-25T13:16:47Z</time>
      </trkpt>
      <trkpt lat="49.21071" lon="-0.6301">
        <ele>49.2</ele>
        <time>2023-05-25T13:16:48Z</time>
      </trkpt>
      <trkpt lat="49.21074" lon="-0.63011">
        <ele>49.6</ele>
        <time>2023-05-25T13:16:49Z</time>
      </trkpt>
      <trkpt lat="49.21078" lon="-0.63011">
        <ele>49.8</ele>
        <time>2023-05-25T13:16:50Z</time>
      </trkpt>
      <trkpt lat="49.21082" lon="-0.6301">
        <ele>50</ele>
        <time>2023-05-25T13:16:51Z</time>
      </trkpt>
      <trkpt lat="49.21086" lon="-0.6301">
        <ele>50</ele>
        <time>2023-05-25T13:16:52Z</time>
      </trkpt>
      <trkpt lat="49.2109" lon="-0.63009">
        <ele>50</ele>
        <time>2023-05-25T13:16:53Z</time>
      </trkpt>
      <trkpt lat="49.21094" lon="-0.63009">
        <ele>50</ele>
        <time>2023-05-25T13:16:54Z</time>
      </trkpt>
      <trkpt lat="49.21099" lon="-0.63008">
        <ele>49.8</ele>
        <time>2023-05-25T13:16:55Z</time>
      </trkpt>
      <trkpt lat="49.21103" lon="-0.63008">
        <ele>49.8</ele>
        <time>2023-05-25T13:16:56Z</time>
      </trkpt>
      <trkpt lat="49.21108" lon="-0.63009">
        <ele>49.8</ele>
        <time>2023-05-25T13:16:57Z</time>
      </trkpt>
      <trkpt lat="49.21112" lon="-0.63009">
        <ele>49.8</ele>
        <time>2023-05-25T13:16:58Z</time>
      </trkpt>
      <trkpt lat="49.21117" lon="-0.63009">
        <ele>49.6</ele>
        <time>2023-05-25T13:16:59Z</time>
      </trkpt>
      <trkpt lat="49.21122" lon="-0.6301">
        <ele>49.6</ele>
        <time>2023-05-25T13:17:00Z</time>
      </trkpt>
      <trkpt lat="49.21126" lon="-0.63011">
        <ele>49.6</ele>
        <time>2023-05-25T13:17:01Z</time>
      </trkpt>
      <trkpt lat="49.21131" lon="-0.63012">
        <ele>49.6</ele>
        <time>2023-05-25T13:17:02Z</time>
      </trkpt>
      <trkpt lat="49.21135" lon="-0.63014">
        <ele>49.6</ele>
        <time>2023-05-25T13:17:03Z</time>
      </trkpt>
      <trkpt lat="49.21139" lon="-0.63015">
        <ele>49.6</ele>
        <time>2023-05-25T13:17:04Z</time>
      </trkpt>
      <trkpt lat="49.21143" lon="-0.63017">
        <ele>49.4</ele>
        <time>2023-05-25T13:17:05Z</time>
      </trkpt>
      <trkpt lat="49.21148" lon="-0.63018">
        <ele>49.4</ele>
        <time>2023-05-25T13:17:06Z</time>
      </trkpt>
      <trkpt lat="49.21152" lon="-0.6302">
        <ele>49.4</ele>
        <time>2023-05-25T13:17:07Z</time>
      </trkpt>
      <trkpt lat="49.21156" lon="-0.63021">
        <ele>49.2</ele>
        <time>2023-05-25T13:17:08Z</time>
      </trkpt>
      <trkpt lat="49.2116" lon="-0.63021">
        <ele>49.2</ele>
        <time>2023-05-25T13:17:09Z</time>
      </trkpt>
      <trkpt lat="49.21163" lon="-0.6302">
        <ele>49.2</ele>
        <time>2023-05-25T13:17:10Z</time>
      </trkpt>
      <trkpt lat="49.21166" lon="-0.63016">
        <ele>49.2</ele>
        <time>2023-05-25T13:17:11Z</time>
      </trkpt>
      <trkpt lat="49.21168" lon="-0.63011">
        <ele>49.2</ele>
        <time>2023-05-25T13:17:12Z</time>
      </trkpt>
      <trkpt lat="49.2117" lon="-0.63004">
        <ele>49</ele>
        <time>2023-05-25T13:17:13Z</time>
      </trkpt>
      <trkpt lat="49.21172" lon="-0.62996">
        <ele>49</ele>
        <time>2023-05-25T13:17:14Z</time>
      </trkpt>
      <trkpt lat="49.21175" lon="-0.62989">
        <ele>49</ele>
        <time>2023-05-25T13:17:15Z</time>
      </trkpt>
      <trkpt lat="49.21177" lon="-0.62981">
        <ele>48.8</ele>
        <time>2023-05-25T13:17:16Z</time>
      </trkpt>
      <trkpt lat="49.2118" lon="-0.62973">
        <ele>48.6</ele>
        <time>2023-05-25T13:17:17Z</time>
      </trkpt>
      <trkpt lat="49.21182" lon="-0.62964">
        <ele>48.4</ele>
        <time>2023-05-25T13:17:18Z</time>
      </trkpt>
      <trkpt lat="49.21184" lon="-0.62956">
        <ele>48</ele>
        <time>2023-05-25T13:17:19Z</time>
      </trkpt>
      <trkpt lat="49.21185" lon="-0.62947">
        <ele>48</ele>
        <time>2023-05-25T13:17:20Z</time>
      </trkpt>
      <trkpt lat="49.21187" lon="-0.62938">
        <ele>47.6</ele>
        <time>2023-05-25T13:17:21Z</time>
      </trkpt>
      <trkpt lat="49.21188" lon="-0.62929">
        <ele>47.4</ele>
        <time>2023-05-25T13:17:22Z</time>
      </trkpt>
      <trkpt lat="49.21189" lon="-0.6292">
        <ele>47</ele>
        <time>2023-05-25T13:17:23Z</time>
      </trkpt>
      <trkpt lat="49.2119" lon="-0.62911">
        <ele>47</ele>
        <time>2023-05-25T13:17:24Z</time>
      </trkpt>
      <trkpt lat="49.21191" lon="-0.62901">
        <ele>46.8</ele>
        <time>2023-05-25T13:17:25Z</time>
      </trkpt>
      <trkpt lat="49.21192" lon="-0.62892">
        <ele>46.6</ele>
        <time>2023-05-25T13:17:26Z</time>
      </trkpt>
      <trkpt lat="49.21193" lon="-0.62883">
        <ele>46.6</ele>
        <time>2023-05-25T13:17:27Z</time>
      </trkpt>
      <trkpt lat="49.21194" lon="-0.62874">
        <ele>46.2</ele>
        <time>2023-05-25T13:17:28Z</time>
      </trkpt>
      <trkpt lat="49.21195" lon="-0.62864">
        <ele>46.2</ele>
        <time>2023-05-25T13:17:29Z</time>
      </trkpt>
      <trkpt lat="49.21196" lon="-0.62855">
        <ele>46</ele>
        <time>2023-05-25T13:17:30Z</time>
      </trkpt>
      <trkpt lat="49.21198" lon="-0.62846">
        <ele>45.8</ele>
        <time>2023-05-25T13:17:31Z</time>
      </trkpt>
      <trkpt lat="49.21199" lon="-0.62837">
        <ele>45.8</ele>
        <time>2023-05-25T13:17:32Z</time>
      </trkpt>
      <trkpt lat="49.212" lon="-0.62828">
        <ele>45.6</ele>
        <time>2023-05-25T13:17:33Z</time>
      </trkpt>
      <trkpt lat="49.21202" lon="-0.62819">
        <ele>45.2</ele>
        <time>2023-05-25T13:17:34Z</time>
      </trkpt>
      <trkpt lat="49.21204" lon="-0.6281">
        <ele>45</ele>
        <time>2023-05-25T13:17:35Z</time>
      </trkpt>
      <trkpt lat="49.21206" lon="-0.62801">
        <ele>44.8</ele>
        <time>2023-05-25T13:17:36Z</time>
      </trkpt>
      <trkpt lat="49.21208" lon="-0.62792">
        <ele>44.6</ele>
        <time>2023-05-25T13:17:37Z</time>
      </trkpt>
      <trkpt lat="49.21209" lon="-0.62783">
        <ele>44.2</ele>
        <time>2023-05-25T13:17:38Z</time>
      </trkpt>
      <trkpt lat="49.2121" lon="-0.62774">
        <ele>44</ele>
        <time>2023-05-25T13:17:39Z</time>
      </trkpt>
      <trkpt lat="49.2121" lon="-0.62764">
        <ele>43.8</ele>
        <time>2023-05-25T13:17:40Z</time>
      </trkpt>
      <trkpt lat="49.2121" lon="-0.62754">
        <ele>43.6</ele>
        <time>2023-05-25T13:17:41Z</time>
      </trkpt>
      <trkpt lat="49.21209" lon="-0.62744">
        <ele>43.2</ele>
        <time>2023-05-25T13:17:42Z</time>
      </trkpt>
      <trkpt lat="49.21208" lon="-0.62734">
        <ele>43</ele>
        <time>2023-05-25T13:17:43Z</time>
      </trkpt>
      <trkpt lat="49.21208" lon="-0.62723">
        <ele>43</ele>
        <time>2023-05-25T13:17:44Z</time>
      </trkpt>
      <trkpt lat="49.21208" lon="-0.62713">
        <ele>42.6</ele>
        <time>2023-05-25T13:17:45Z</time>
      </trkpt>
      <trkpt lat="49.2121" lon="-0.62703">
        <ele>42.2</ele>
        <time>2023-05-25T13:17:46Z</time>
      </trkpt>
      <trkpt lat="49.21211" lon="-0.62693">
        <ele>42</ele>
        <time>2023-05-25T13:17:47Z</time>
      </trkpt>
      <trkpt lat="49.21214" lon="-0.62683">
        <ele>41.8</ele>
        <time>2023-05-25T13:17:48Z</time>
      </trkpt>
      <trkpt lat="49.21217" lon="-0.62673">
        <ele>41.6</ele>
        <time>2023-05-25T13:17:49Z</time>
      </trkpt>
      <trkpt lat="49.2122" lon="-0.62664">
        <ele>41.2</ele>
        <time>2023-05-25T13:17:50Z</time>
      </trkpt>
      <trkpt lat="49.21223" lon="-0.62654">
        <ele>41</ele>
        <time>2023-05-25T13:17:51Z</time>
      </trkpt>
      <trkpt lat="49.21227" lon="-0.62645">
        <ele>40.8</ele>
        <time>2023-05-25T13:17:52Z</time>
      </trkpt>
      <trkpt lat="49.2123" lon="-0.62635">
        <ele>40.6</ele>
        <time>2023-05-25T13:17:53Z</time>
      </trkpt>
      <trkpt lat="49.21233" lon="-0.62625">
        <ele>40.2</ele>
        <time>2023-05-25T13:17:54Z</time>
      </trkpt>
      <trkpt lat="49.21236" lon="-0.62615">
        <ele>40</ele>
        <time>2023-05-25T13:17:55Z</time>
      </trkpt>
      <trkpt lat="49.21239" lon="-0.62604">
        <ele>39.6</ele>
        <time>2023-05-25T13:17:56Z</time>
      </trkpt>
      <trkpt lat="49.21242" lon="-0.62594">
        <ele>39.4</ele>
        <time>2023-05-25T13:17:57Z</time>
      </trkpt>
      <trkpt lat="49.21245" lon="-0.62584">
        <ele>39</ele>
        <time>2023-05-25T13:17:58Z</time>
      </trkpt>
      <trkpt lat="49.21248" lon="-0.62573">
        <ele>39</ele>
        <time>2023-05-25T13:17:59Z</time>
      </trkpt>
      <trkpt lat="49.21252" lon="-0.62563">
        <ele>38.8</ele>
        <time>2023-05-25T13:18:00Z</time>
      </trkpt>
      <trkpt lat="49.21255" lon="-0.62552">
        <ele>38.6</ele>
        <time>2023-05-25T13:18:01Z</time>
      </trkpt>
      <trkpt lat="49.21257" lon="-0.62541">
        <ele>38.4</ele>
        <time>2023-05-25T13:18:02Z</time>
      </trkpt>
      <trkpt lat="49.2126" lon="-0.6253">
        <ele>38.2</ele>
        <time>2023-05-25T13:18:03Z</time>
      </trkpt>
      <trkpt lat="49.21263" lon="-0.6252">
        <ele>38.2</ele>
        <time>2023-05-25T13:18:04Z</time>
      </trkpt>
      <trkpt lat="49.21266" lon="-0.62509">
        <ele>38</ele>
        <time>2023-05-25T13:18:05Z</time>
      </trkpt>
      <trkpt lat="49.21268" lon="-0.62499">
        <ele>38</ele>
        <time>2023-05-25T13:18:06Z</time>
      </trkpt>
      <trkpt lat="49.21271" lon="-0.62488">
        <ele>38</ele>
        <time>2023-05-25T13:18:07Z</time>
      </trkpt>
      <trkpt lat="49.21273" lon="-0.62478">
        <ele>38</ele>
        <time>2023-05-25T13:18:08Z</time>
      </trkpt>
      <trkpt lat="49.21276" lon="-0.62467">
        <ele>38</ele>
        <time>2023-05-25T13:18:09Z</time>
      </trkpt>
      <trkpt lat="49.21279" lon="-0.62457">
        <ele>38.2</ele>
        <time>2023-05-25T13:18:10Z</time>
      </trkpt>
      <trkpt lat="49.21282" lon="-0.62447">
        <ele>38.2</ele>
        <time>2023-05-25T13:18:11Z</time>
      </trkpt>
      <trkpt lat="49.21285" lon="-0.62437">
        <ele>38.2</ele>
        <time>2023-05-25T13:18:12Z</time>
      </trkpt>
      <trkpt lat="49.21287" lon="-0.62427">
        <ele>38.4</ele>
        <time>2023-05-25T13:18:13Z</time>
      </trkpt>
      <trkpt lat="49.2129" lon="-0.62418">
        <ele>38.6</ele>
        <time>2023-05-25T13:18:14Z</time>
      </trkpt>
      <trkpt lat="49.21293" lon="-0.62408">
        <ele>38.6</ele>
        <time>2023-05-25T13:18:15Z</time>
      </trkpt>
      <trkpt lat="49.21296" lon="-0.62398">
        <ele>38.8</ele>
        <time>2023-05-25T13:18:16Z</time>
      </trkpt>
      <trkpt lat="49.21299" lon="-0.62388">
        <ele>38.8</ele>
        <time>2023-05-25T13:18:17Z</time>
      </trkpt>
      <trkpt lat="49.21302" lon="-0.62379">
        <ele>39</ele>
        <time>2023-05-25T13:18:18Z</time>
      </trkpt>
      <trkpt lat="49.21305" lon="-0.62369">
        <ele>39</ele>
        <time>2023-05-25T13:18:19Z</time>
      </trkpt>
      <trkpt lat="49.21308" lon="-0.6236">
        <ele>39.2</ele>
        <time>2023-05-25T13:18:20Z</time>
      </trkpt>
      <trkpt lat="49.21311" lon="-0.6235">
        <ele>39.2</ele>
        <time>2023-05-25T13:18:21Z</time>
      </trkpt>
      <trkpt lat="49.21314" lon="-0.62341">
        <ele>39.6</ele>
        <time>2023-05-25T13:18:22Z</time>
      </trkpt>
      <trkpt lat="49.21316" lon="-0.62332">
        <ele>39.6</ele>
        <time>2023-05-25T13:18:23Z</time>
      </trkpt>
      <trkpt lat="49.21319" lon="-0.62323">
        <ele>39.8</ele>
        <time>2023-05-25T13:18:24Z</time>
      </trkpt>
      <trkpt lat="49.21322" lon="-0.62313">
        <ele>40</ele>
        <time>2023-05-25T13:18:25Z</time>
      </trkpt>
      <trkpt lat="49.21325" lon="-0.62304">
        <ele>40</ele>
        <time>2023-05-25T13:18:26Z</time>
      </trkpt>
      <trkpt lat="49.21328" lon="-0.62295">
        <ele>40.2</ele>
        <time>2023-05-25T13:18:27Z</time>
      </trkpt>
      <trkpt lat="49.21331" lon="-0.62287">
        <ele>40.6</ele>
        <time>2023-05-25T13:18:28Z</time>
      </trkpt>
      <trkpt lat="49.21334" lon="-0.62278">
        <ele>40.8</ele>
        <time>2023-05-25T13:18:29Z</time>
      </trkpt>
      <trkpt lat="49.21337" lon="-0.62269">
        <ele>40.8</ele>
        <time>2023-05-25T13:18:30Z</time>
      </trkpt>
      <trkpt lat="49.21339" lon="-0.6226">
        <ele>41</ele>
        <time>2023-05-25T13:18:31Z</time>
      </trkpt>
      <trkpt lat="49.21342" lon="-0.62251">
        <ele>41</ele>
        <time>2023-05-25T13:18:32Z</time>
      </trkpt>
      <trkpt lat="49.21345" lon="-0.62243">
        <ele>41.2</ele>
        <time>2023-05-25T13:18:33Z</time>
      </trkpt>
      <trkpt lat="49.21347" lon="-0.62234">
        <ele>41.4</ele>
        <time>2023-05-25T13:18:34Z</time>
      </trkpt>
      <trkpt lat="49.21349" lon="-0.62226">
        <ele>41.6</ele>
        <time>2023-05-25T13:18:35Z</time>
      </trkpt>
      <trkpt lat="49.21351" lon="-0.62218">
        <ele>41.8</ele>
        <time>2023-05-25T13:18:36Z</time>
      </trkpt>
      <trkpt lat="49.21353" lon="-0.62211">
        <ele>42</ele>
        <time>2023-05-25T13:18:37Z</time>
      </trkpt>
      <trkpt lat="49.21355" lon="-0.62204">
        <ele>42</ele>
        <time>2023-05-25T13:18:38Z</time>
      </trkpt>
      <trkpt lat="49.21357" lon="-0.62198">
        <ele>42.2</ele>
        <time>2023-05-25T13:18:39Z</time>
      </trkpt>
      <trkpt lat="49.21359" lon="-0.62192">
        <ele>42.4</ele>
        <time>2023-05-25T13:18:40Z</time>
      </trkpt>
      <trkpt lat="49.21361" lon="-0.62186">
        <ele>42.6</ele>
        <time>2023-05-25T13:18:41Z</time>
      </trkpt>
      <trkpt lat="49.21363" lon="-0.62181">
        <ele>42.8</ele>
        <time>2023-05-25T13:18:42Z</time>
      </trkpt>
      <trkpt lat="49.21366" lon="-0.62176">
        <ele>42.8</ele>
        <time>2023-05-25T13:18:43Z</time>
      </trkpt>
      <trkpt lat="49.21368" lon="-0.62172">
        <ele>43</ele>
        <time>2023-05-25T13:18:44Z</time>
      </trkpt>
      <trkpt lat="49.21371" lon="-0.62167">
        <ele>43</ele>
        <time>2023-05-25T13:18:45Z</time>
      </trkpt>
      <trkpt lat="49.21373" lon="-0.62162">
        <ele>43.2</ele>
        <time>2023-05-25T13:18:46Z</time>
      </trkpt>
      <trkpt lat="49.21375" lon="-0.62157">
        <ele>43.4</ele>
        <time>2023-05-25T13:18:47Z</time>
      </trkpt>
      <trkpt lat="49.21378" lon="-0.62153">
        <ele>43.6</ele>
        <time>2023-05-25T13:18:48Z</time>
      </trkpt>
      <trkpt lat="49.2138" lon="-0.62148">
        <ele>43.8</ele>
        <time>2023-05-25T13:18:49Z</time>
      </trkpt>
      <trkpt lat="49.21382" lon="-0.62143">
        <ele>44</ele>
        <time>2023-05-25T13:18:50Z</time>
      </trkpt>
      <trkpt lat="49.21384" lon="-0.62139">
        <ele>44</ele>
        <time>2023-05-25T13:18:51Z</time>
      </trkpt>
      <trkpt lat="49.21387" lon="-0.62134">
        <ele>44.2</ele>
        <time>2023-05-25T13:18:52Z</time>
      </trkpt>
      <trkpt lat="49.21389" lon="-0.6213">
        <ele>44.6</ele>
        <time>2023-05-25T13:18:53Z</time>
      </trkpt>
      <trkpt lat="49.21391" lon="-0.62125">
        <ele>44.6</ele>
        <time>2023-05-25T13:18:54Z</time>
      </trkpt>
      <trkpt lat="49.21393" lon="-0.62121">
        <ele>44.8</ele>
        <time>2023-05-25T13:18:55Z</time>
      </trkpt>
      <trkpt lat="49.21396" lon="-0.62117">
        <ele>45</ele>
        <time>2023-05-25T13:18:56Z</time>
      </trkpt>
      <trkpt lat="49.21398" lon="-0.62113">
        <ele>45</ele>
        <time>2023-05-25T13:18:57Z</time>
      </trkpt>
      <trkpt lat="49.214" lon="-0.62108">
        <ele>45.2</ele>
        <time>2023-05-25T13:18:58Z</time>
      </trkpt>
      <trkpt lat="49.21402" lon="-0.62104">
        <ele>45.4</ele>
        <time>2023-05-25T13:18:59Z</time>
      </trkpt>
      <trkpt lat="49.21404" lon="-0.621">
        <ele>45.6</ele>
        <time>2023-05-25T13:19:00Z</time>
      </trkpt>
      <trkpt lat="49.21407" lon="-0.62096">
        <ele>45.8</ele>
        <time>2023-05-25T13:19:01Z</time>
      </trkpt>
      <trkpt lat="49.21409" lon="-0.62092">
        <ele>45.8</ele>
        <time>2023-05-25T13:19:02Z</time>
      </trkpt>
      <trkpt lat="49.21411" lon="-0.62087">
        <ele>46</ele>
        <time>2023-05-25T13:19:03Z</time>
      </trkpt>
      <trkpt lat="49.21413" lon="-0.62083">
        <ele>46</ele>
        <time>2023-05-25T13:19:04Z</time>
      </trkpt>
      <trkpt lat="49.21416" lon="-0.62079">
        <ele>46</ele>
        <time>2023-05-25T13:19:05Z</time>
      </trkpt>
      <trkpt lat="49.21418" lon="-0.62074">
        <ele>46.2</ele>
        <time>2023-05-25T13:19:06Z</time>
      </trkpt>
      <trkpt lat="49.2142" lon="-0.6207">
        <ele>46.2</ele>
        <time>2023-05-25T13:19:07Z</time>
      </trkpt>
      <trkpt lat="49.21422" lon="-0.62066">
        <ele>46.2</ele>
        <time>2023-05-25T13:19:08Z</time>
      </trkpt>
      <trkpt lat="49.21424" lon="-0.62061">
        <ele>46.4</ele>
        <time>2023-05-25T13:19:09Z</time>
      </trkpt>
      <trkpt lat="49.21426" lon="-0.62057">
        <ele>46.4</ele>
        <time>2023-05-25T13:19:10Z</time>
      </trkpt>
      <trkpt lat="49.21428" lon="-0.62052">
        <ele>46.6</ele>
        <time>2023-05-25T13:19:11Z</time>
      </trkpt>
      <trkpt lat="49.2143" lon="-0.62047">
        <ele>46.6</ele>
        <time>2023-05-25T13:19:12Z</time>
      </trkpt>
      <trkpt lat="49.21432" lon="-0.62043">
        <ele>46.6</ele>
        <time>2023-05-25T13:19:13Z</time>
      </trkpt>
      <trkpt lat="49.21433" lon="-0.62038">
        <ele>46.8</ele>
        <time>2023-05-25T13:19:14Z</time>
      </trkpt>
      <trkpt lat="49.21435" lon="-0.62033">
        <ele>46.8</ele>
        <time>2023-05-25T13:19:15Z</time>
      </trkpt>
      <trkpt lat="49.21436" lon="-0.62028">
        <ele>46.8</ele>
        <time>2023-05-25T13:19:16Z</time>
      </trkpt>
      <trkpt lat="49.21438" lon="-0.62024">
        <ele>47</ele>
        <time>2023-05-25T13:19:17Z</time>
      </trkpt>
      <trkpt lat="49.21439" lon="-0.62019">
        <ele>47</ele>
        <time>2023-05-25T13:19:18Z</time>
      </trkpt>
      <trkpt lat="49.21441" lon="-0.62014">
        <ele>47</ele>
        <time>2023-05-25T13:19:19Z</time>
      </trkpt>
      <trkpt lat="49.21442" lon="-0.62009">
        <ele>47.2</ele>
        <time>2023-05-25T13:19:20Z</time>
      </trkpt>
      <trkpt lat="49.21444" lon="-0.62004">
        <ele>47.2</ele>
        <time>2023-05-25T13:19:21Z</time>
      </trkpt>
      <trkpt lat="49.21445" lon="-0.61999">
        <ele>47.2</ele>
        <time>2023-05-25T13:19:22Z</time>
      </trkpt>
      <trkpt lat="49.21447" lon="-0.61995">
        <ele>47.4</ele>
        <time>2023-05-25T13:19:23Z</time>
      </trkpt>
      <trkpt lat="49.21448" lon="-0.6199">
        <ele>47.6</ele>
        <time>2023-05-25T13:19:24Z</time>
      </trkpt>
      <trkpt lat="49.21449" lon="-0.61985">
        <ele>47.6</ele>
        <time>2023-05-25T13:19:25Z</time>
      </trkpt>
      <trkpt lat="49.2145" lon="-0.6198">
        <ele>47.6</ele>
        <time>2023-05-25T13:19:26Z</time>
      </trkpt>
      <trkpt lat="49.21452" lon="-0.61975">
        <ele>47.6</ele>
        <time>2023-05-25T13:19:27Z</time>
      </trkpt>
      <trkpt lat="49.21453" lon="-0.6197">
        <ele>47.8</ele>
        <time>2023-05-25T13:19:28Z</time>
      </trkpt>
      <trkpt lat="49.21454" lon="-0.61965">
        <ele>47.8</ele>
        <time>2023-05-25T13:19:29Z</time>
      </trkpt>
      <trkpt lat="49.21456" lon="-0.6196">
        <ele>47.8</ele>
        <time>2023-05-25T13:19:30Z</time>
      </trkpt>
      <trkpt lat="49.21457" lon="-0.61955">
        <ele>47.8</ele>
        <time>2023-05-25T13:19:31Z</time>
      </trkpt>
      <trkpt lat="49.21459" lon="-0.6195">
        <ele>48</ele>
        <time>2023-05-25T13:19:32Z</time>
      </trkpt>
      <trkpt lat="49.2146" lon="-0.61945">
        <ele>48</ele>
        <time>2023-05-25T13:19:33Z</time>
      </trkpt>
      <trkpt lat="49.21462" lon="-0.6194">
        <ele>48</ele>
        <time>2023-05-25T13:19:34Z</time>
      </trkpt>
      <trkpt lat="49.21463" lon="-0.61934">
        <ele>48</ele>
        <time>2023-05-25T13:19:35Z</time>
      </trkpt>
      <trkpt lat="49.21464" lon="-0.61929">
        <ele>48</ele>
        <time>2023-05-25T13:19:36Z</time>
      </trkpt>
      <trkpt lat="49.21466" lon="-0.61924">
        <ele>48</ele>
        <time>2023-05-25T13:19:37Z</time>
      </trkpt>
      <trkpt lat="49.21467" lon="-0.61919">
        <ele>48</ele>
        <time>2023-05-25T13:19:38Z</time>
      </trkpt>
      <trkpt lat="49.21469" lon="-0.61914">
        <ele>48.2</ele>
        <time>2023-05-25T13:19:39Z</time>
      </trkpt>
      <trkpt lat="49.2147" lon="-0.61909">
        <ele>48.2</ele>
        <time>2023-05-25T13:19:40Z</time>
      </trkpt>
      <trkpt lat="49.21472" lon="-0.61903">
        <ele>48.4</ele>
        <time>2023-05-25T13:19:41Z</time>
      </trkpt>
      <trkpt lat="49.21473" lon="-0.61898">
        <ele>48.6</ele>
        <time>2023-05-25T13:19:42Z</time>
      </trkpt>
      <trkpt lat="49.21475" lon="-0.61893">
        <ele>48.8</ele>
        <time>2023-05-25T13:19:43Z</time>
      </trkpt>
      <trkpt lat="49.21476" lon="-0.61888">
        <ele>48.8</ele>
        <time>2023-05-25T13:19:44Z</time>
      </trkpt>
      <trkpt lat="49.21478" lon="-0.61883">
        <ele>49</ele>
        <time>2023-05-25T13:19:45Z</time>
      </trkpt>
      <trkpt lat="49.21479" lon="-0.61877">
        <ele>49</ele>
        <time>2023-05-25T13:19:46Z</time>
      </trkpt>
      <trkpt lat="49.21481" lon="-0.61872">
        <ele>49.2</ele>
        <time>2023-05-25T13:19:47Z</time>
      </trkpt>
      <trkpt lat="49.21483" lon="-0.61867">
        <ele>49.2</ele>
        <time>2023-05-25T13:19:48Z</time>
      </trkpt>
      <trkpt lat="49.21484" lon="-0.61862">
        <ele>49.4</ele>
        <time>2023-05-25T13:19:49Z</time>
      </trkpt>
      <trkpt lat="49.21486" lon="-0.61856">
        <ele>49.6</ele>
        <time>2023-05-25T13:19:50Z</time>
      </trkpt>
      <trkpt lat="49.21487" lon="-0.61851">
        <ele>49.8</ele>
        <time>2023-05-25T13:19:51Z</time>
      </trkpt>
      <trkpt lat="49.21489" lon="-0.61846">
        <ele>49.8</ele>
        <time>2023-05-25T13:19:52Z</time>
      </trkpt>
      <trkpt lat="49.2149" lon="-0.6184">
        <ele>50</ele>
        <time>2023-05-25T13:19:53Z</time>
      </trkpt>
      <trkpt lat="49.21492" lon="-0.61835">
        <ele>50</ele>
        <time>2023-05-25T13:19:54Z</time>
      </trkpt>
      <trkpt lat="49.21493" lon="-0.6183">
        <ele>50.2</ele>
        <time>2023-05-25T13:19:55Z</time>
      </trkpt>
      <trkpt lat="49.21495" lon="-0.61824">
        <ele>50.2</ele>
        <time>2023-05-25T13:19:56Z</time>
      </trkpt>
      <trkpt lat="49.21496" lon="-0.61819">
        <ele>50.2</ele>
        <time>2023-05-25T13:19:57Z</time>
      </trkpt>
      <trkpt lat="49.21498" lon="-0.61813">
        <ele>50.2</ele>
        <time>2023-05-25T13:19:58Z</time>
      </trkpt>
      <trkpt lat="49.21499" lon="-0.61808">
        <ele>50.2</ele>
        <time>2023-05-25T13:19:59Z</time>
      </trkpt>
      <trkpt lat="49.21501" lon="-0.61802">
        <ele>50.4</ele>
        <time>2023-05-25T13:20:00Z</time>
      </trkpt>
      <trkpt lat="49.21502" lon="-0.61797">
        <ele>50.4</ele>
        <time>2023-05-25T13:20:01Z</time>
      </trkpt>
      <trkpt lat="49.21503" lon="-0.61791">
        <ele>50.4</ele>
        <time>2023-05-25T13:20:02Z</time>
      </trkpt>
      <trkpt lat="49.21505" lon="-0.61786">
        <ele>50.4</ele>
        <time>2023-05-25T13:20:03Z</time>
      </trkpt>
      <trkpt lat="49.21506" lon="-0.6178">
        <ele>50.4</ele>
        <time>2023-05-25T13:20:04Z</time>
      </trkpt>
      <trkpt lat="49.21507" lon="-0.61774">
        <ele>50.6</ele>
        <time>2023-05-25T13:20:05Z</time>
      </trkpt>
      <trkpt lat="49.21508" lon="-0.61769">
        <ele>50.6</ele>
        <time>2023-05-25T13:20:06Z</time>
      </trkpt>
      <trkpt lat="49.21509" lon="-0.61763">
        <ele>50.6</ele>
        <time>2023-05-25T13:20:07Z</time>
      </trkpt>
      <trkpt lat="49.2151" lon="-0.61758">
        <ele>50.6</ele>
        <time>2023-05-25T13:20:08Z</time>
      </trkpt>
      <trkpt lat="49.21511" lon="-0.61752">
        <ele>50.6</ele>
        <time>2023-05-25T13:20:09Z</time>
      </trkpt>
      <trkpt lat="49.21512" lon="-0.61746">
        <ele>50.8</ele>
        <time>2023-05-25T13:20:10Z</time>
      </trkpt>
      <trkpt lat="49.21513" lon="-0.6174">
        <ele>50.8</ele>
        <time>2023-05-25T13:20:11Z</time>
      </trkpt>
      <trkpt lat="49.21514" lon="-0.61735">
        <ele>51</ele>
        <time>2023-05-25T13:20:12Z</time>
      </trkpt>
      <trkpt lat="49.21514" lon="-0.61729">
        <ele>51</ele>
        <time>2023-05-25T13:20:13Z</time>
      </trkpt>
      <trkpt lat="49.21515" lon="-0.61723">
        <ele>51.2</ele>
        <time>2023-05-25T13:20:14Z</time>
      </trkpt>
      <trkpt lat="49.21516" lon="-0.61717">
        <ele>51.2</ele>
        <time>2023-05-25T13:20:15Z</time>
      </trkpt>
      <trkpt lat="49.21516" lon="-0.61711">
        <ele>51.4</ele>
        <time>2023-05-25T13:20:16Z</time>
      </trkpt>
      <trkpt lat="49.21516" lon="-0.61705">
        <ele>51.6</ele>
        <time>2023-05-25T13:20:17Z</time>
      </trkpt>
      <trkpt lat="49.21517" lon="-0.61699">
        <ele>51.8</ele>
        <time>2023-05-25T13:20:18Z</time>
      </trkpt>
      <trkpt lat="49.21517" lon="-0.61694">
        <ele>52</ele>
        <time>2023-05-25T13:20:19Z</time>
      </trkpt>
      <trkpt lat="49.21517" lon="-0.61688">
        <ele>52</ele>
        <time>2023-05-25T13:20:20Z</time>
      </trkpt>
      <trkpt lat="49.21517" lon="-0.61682">
        <ele>52.2</ele>
        <time>2023-05-25T13:20:21Z</time>
      </trkpt>
      <trkpt lat="49.21517" lon="-0.61675">
        <ele>52.4</ele>
        <time>2023-05-25T13:20:22Z</time>
      </trkpt>
      <trkpt lat="49.21516" lon="-0.61669">
        <ele>52.6</ele>
        <time>2023-05-25T13:20:23Z</time>
      </trkpt>
      <trkpt lat="49.21516" lon="-0.61663">
        <ele>52.6</ele>
        <time>2023-05-25T13:20:24Z</time>
      </trkpt>
      <trkpt lat="49.21515" lon="-0.61657">
        <ele>52.6</ele>
        <time>2023-05-25T13:20:25Z</time>
      </trkpt>
      <trkpt lat="49.21514" lon="-0.6165">
        <ele>52.8</ele>
        <time>2023-05-25T13:20:26Z</time>
      </trkpt>
      <trkpt lat="49.21513" lon="-0.61644">
        <ele>52.8</ele>
        <time>2023-05-25T13:20:27Z</time>
      </trkpt>
      <trkpt lat="49.21512" lon="-0.61638">
        <ele>52.8</ele>
        <time>2023-05-25T13:20:28Z</time>
      </trkpt>
      <trkpt lat="49.21511" lon="-0.61633">
        <ele>52.8</ele>
        <time>2023-05-25T13:20:29Z</time>
      </trkpt>
      <trkpt lat="49.21509" lon="-0.61627">
        <ele>52.8</ele>
        <time>2023-05-25T13:20:30Z</time>
      </trkpt>
      <trkpt lat="49.21508" lon="-0.61621">
        <ele>52.8</ele>
        <time>2023-05-25T13:20:31Z</time>
      </trkpt>
      <trkpt lat="49.21506" lon="-0.61615">
        <ele>53</ele>
        <time>2023-05-25T13:20:32Z</time>
      </trkpt>
      <trkpt lat="49.21505" lon="-0.6161">
        <ele>53</ele>
        <time>2023-05-25T13:20:33Z</time>
      </trkpt>
      <trkpt lat="49.21503" lon="-0.61604">
        <ele>53</ele>
        <time>2023-05-25T13:20:34Z</time>
      </trkpt>
      <trkpt lat="49.21501" lon="-0.61598">
        <ele>53</ele>
        <time>2023-05-25T13:20:35Z</time>
      </trkpt>
      <trkpt lat="49.21499" lon="-0.61592">
        <ele>53</ele>
        <time>2023-05-25T13:20:36Z</time>
      </trkpt>
      <trkpt lat="49.21498" lon="-0.61586">
        <ele>53</ele>
        <time>2023-05-25T13:20:37Z</time>
      </trkpt>
      <trkpt lat="49.21496" lon="-0.6158">
        <ele>53.2</ele>
        <time>2023-05-25T13:20:38Z</time>
      </trkpt>
      <trkpt lat="49.21494" lon="-0.61574">
        <ele>53.4</ele>
        <time>2023-05-25T13:20:39Z</time>
      </trkpt>
      <trkpt lat="49.21493" lon="-0.61568">
        <ele>53.6</ele>
        <time>2023-05-25T13:20:40Z</time>
      </trkpt>
      <trkpt lat="49.21491" lon="-0.61561">
        <ele>53.8</ele>
        <time>2023-05-25T13:20:41Z</time>
      </trkpt>
      <trkpt lat="49.21489" lon="-0.61555">
        <ele>54</ele>
        <time>2023-05-25T13:20:42Z</time>
      </trkpt>
      <trkpt lat="49.21487" lon="-0.61549">
        <ele>54.2</ele>
        <time>2023-05-25T13:20:43Z</time>
      </trkpt>
      <trkpt lat="49.21486" lon="-0.61543">
        <ele>54.4</ele>
        <time>2023-05-25T13:20:44Z</time>
      </trkpt>
      <trkpt lat="49.21484" lon="-0.61537">
        <ele>54.6</ele>
        <time>2023-05-25T13:20:45Z</time>
      </trkpt>
      <trkpt lat="49.21482" lon="-0.61531">
        <ele>54.8</ele>
        <time>2023-05-25T13:20:46Z</time>
      </trkpt>
      <trkpt lat="49.21481" lon="-0.61525">
        <ele>55</ele>
        <time>2023-05-25T13:20:47Z</time>
      </trkpt>
      <trkpt lat="49.21479" lon="-0.61519">
        <ele>55</ele>
        <time>2023-05-25T13:20:48Z</time>
      </trkpt>
      <trkpt lat="49.21478" lon="-0.61513">
        <ele>55.2</ele>
        <time>2023-05-25T13:20:49Z</time>
      </trkpt>
      <trkpt lat="49.21476" lon="-0.61507">
        <ele>55.4</ele>
        <time>2023-05-25T13:20:50Z</time>
      </trkpt>
      <trkpt lat="49.21475" lon="-0.615">
        <ele>55.6</ele>
        <time>2023-05-25T13:20:51Z</time>
      </trkpt>
      <trkpt lat="49.21474" lon="-0.61494">
        <ele>55.8</ele>
        <time>2023-05-25T13:20:52Z</time>
      </trkpt>
      <trkpt lat="49.21473" lon="-0.61488">
        <ele>55.8</ele>
        <time>2023-05-25T13:20:53Z</time>
      </trkpt>
      <trkpt lat="49.21472" lon="-0.61482">
        <ele>56</ele>
        <time>2023-05-25T13:20:54Z</time>
      </trkpt>
      <trkpt lat="49.21471" lon="-0.61476">
        <ele>56</ele>
        <time>2023-05-25T13:20:55Z</time>
      </trkpt>
      <trkpt lat="49.2147" lon="-0.61469">
        <ele>56</ele>
        <time>2023-05-25T13:20:56Z</time>
      </trkpt>
      <trkpt lat="49.2147" lon="-0.61463">
        <ele>56.2</ele>
        <time>2023-05-25T13:20:57Z</time>
      </trkpt>
      <trkpt lat="49.2147" lon="-0.61457">
        <ele>56.2</ele>
        <time>2023-05-25T13:20:58Z</time>
      </trkpt>
      <trkpt lat="49.2147" lon="-0.6145">
        <ele>56.2</ele>
        <time>2023-05-25T13:20:59Z</time>
      </trkpt>
      <trkpt lat="49.2147" lon="-0.61444">
        <ele>56.4</ele>
        <time>2023-05-25T13:21:00Z</time>
      </trkpt>
      <trkpt lat="49.2147" lon="-0.61438">
        <ele>56.6</ele>
        <time>2023-05-25T13:21:01Z</time>
      </trkpt>
      <trkpt lat="49.2147" lon="-0.61431">
        <ele>56.6</ele>
        <time>2023-05-25T13:21:02Z</time>
      </trkpt>
      <trkpt lat="49.21471" lon="-0.61425">
        <ele>56.6</ele>
        <time>2023-05-25T13:21:03Z</time>
      </trkpt>
      <trkpt lat="49.21471" lon="-0.61418">
        <ele>56.8</ele>
        <time>2023-05-25T13:21:04Z</time>
      </trkpt>
      <trkpt lat="49.21472" lon="-0.61412">
        <ele>56.8</ele>
        <time>2023-05-25T13:21:05Z</time>
      </trkpt>
      <trkpt lat="49.21473" lon="-0.61405">
        <ele>56.8</ele>
        <time>2023-05-25T13:21:06Z</time>
      </trkpt>
      <trkpt lat="49.21474" lon="-0.61398">
        <ele>56.8</ele>
        <time>2023-05-25T13:21:07Z</time>
      </trkpt>
      <trkpt lat="49.21475" lon="-0.61391">
        <ele>56.8</ele>
        <time>2023-05-25T13:21:08Z</time>
      </trkpt>
      <trkpt lat="49.21477" lon="-0.61383">
        <ele>56.8</ele>
        <time>2023-05-25T13:21:09Z</time>
      </trkpt>
      <trkpt lat="49.21478" lon="-0.61375">
        <ele>56.6</ele>
        <time>2023-05-25T13:21:10Z</time>
      </trkpt>
      <trkpt lat="49.2148" lon="-0.61368">
        <ele>56.6</ele>
        <time>2023-05-25T13:21:11Z</time>
      </trkpt>
      <trkpt lat="49.21482" lon="-0.6136">
        <ele>56.6</ele>
        <time>2023-05-25T13:21:12Z</time>
      </trkpt>
      <trkpt lat="49.21484" lon="-0.61352">
        <ele>56.6</ele>
        <time>2023-05-25T13:21:13Z</time>
      </trkpt>
      <trkpt lat="49.21486" lon="-0.61344">
        <ele>56.6</ele>
        <time>2023-05-25T13:21:14Z</time>
      </trkpt>
      <trkpt lat="49.21487" lon="-0.61336">
        <ele>56.4</ele>
        <time>2023-05-25T13:21:15Z</time>
      </trkpt>
      <trkpt lat="49.21489" lon="-0.61329">
        <ele>56.4</ele>
        <time>2023-05-25T13:21:16Z</time>
      </trkpt>
      <trkpt lat="49.21491" lon="-0.61321">
        <ele>56.6</ele>
        <time>2023-05-25T13:21:17Z</time>
      </trkpt>
      <trkpt lat="49.21493" lon="-0.61313">
        <ele>56.6</ele>
        <time>2023-05-25T13:21:18Z</time>
      </trkpt>
      <trkpt lat="49.21495" lon="-0.61306">
        <ele>56.6</ele>
        <time>2023-05-25T13:21:19Z</time>
      </trkpt>
      <trkpt lat="49.21496" lon="-0.61298">
        <ele>56.6</ele>
        <time>2023-05-25T13:21:20Z</time>
      </trkpt>
      <trkpt lat="49.21498" lon="-0.61291">
        <ele>56.6</ele>
        <time>2023-05-25T13:21:21Z</time>
      </trkpt>
      <trkpt lat="49.215" lon="-0.61283">
        <ele>56.6</ele>
        <time>2023-05-25T13:21:22Z</time>
      </trkpt>
      <trkpt lat="49.21502" lon="-0.61275">
        <ele>56.6</ele>
        <time>2023-05-25T13:21:23Z</time>
      </trkpt>
      <trkpt lat="49.21503" lon="-0.61268">
        <ele>56.8</ele>
        <time>2023-05-25T13:21:24Z</time>
      </trkpt>
      <trkpt lat="49.21505" lon="-0.6126">
        <ele>56.8</ele>
        <time>2023-05-25T13:21:25Z</time>
      </trkpt>
      <trkpt lat="49.21507" lon="-0.61252">
        <ele>56.8</ele>
        <time>2023-05-25T13:21:26Z</time>
      </trkpt>
      <trkpt lat="49.21509" lon="-0.61245">
        <ele>56.6</ele>
        <time>2023-05-25T13:21:27Z</time>
      </trkpt>
      <trkpt lat="49.2151" lon="-0.61237">
        <ele>56.2</ele>
        <time>2023-05-25T13:21:28Z</time>
      </trkpt>
      <trkpt lat="49.21512" lon="-0.61229">
        <ele>56</ele>
        <time>2023-05-25T13:21:29Z</time>
      </trkpt>
      <trkpt lat="49.21514" lon="-0.61221">
        <ele>56</ele>
        <time>2023-05-25T13:21:30Z</time>
      </trkpt>
      <trkpt lat="49.21516" lon="-0.61214">
        <ele>55.6</ele>
        <time>2023-05-25T13:21:31Z</time>
      </trkpt>
      <trkpt lat="49.21518" lon="-0.61206">
        <ele>55.4</ele>
        <time>2023-05-25T13:21:32Z</time>
      </trkpt>
      <trkpt lat="49.21519" lon="-0.61198">
        <ele>55.2</ele>
        <time>2023-05-25T13:21:33Z</time>
      </trkpt>
      <trkpt lat="49.21521" lon="-0.6119">
        <ele>55</ele>
        <time>2023-05-25T13:21:34Z</time>
      </trkpt>
      <trkpt lat="49.21523" lon="-0.61183">
        <ele>54.8</ele>
        <time>2023-05-25T13:21:35Z</time>
      </trkpt>
      <trkpt lat="49.21525" lon="-0.61175">
        <ele>54.6</ele>
        <time>2023-05-25T13:21:36Z</time>
      </trkpt>
      <trkpt lat="49.21526" lon="-0.61167">
        <ele>54.4</ele>
        <time>2023-05-25T13:21:37Z</time>
      </trkpt>
      <trkpt lat="49.21528" lon="-0.6116">
        <ele>54.4</ele>
        <time>2023-05-25T13:21:38Z</time>
      </trkpt>
      <trkpt lat="49.2153" lon="-0.61152">
        <ele>54.6</ele>
        <time>2023-05-25T13:21:39Z</time>
      </trkpt>
      <trkpt lat="49.21531" lon="-0.61145">
        <ele>54.6</ele>
        <time>2023-05-25T13:21:40Z</time>
      </trkpt>
      <trkpt lat="49.21533" lon="-0.61137">
        <ele>54.6</ele>
        <time>2023-05-25T13:21:41Z</time>
      </trkpt>
      <trkpt lat="49.21535" lon="-0.61129">
        <ele>54.6</ele>
        <time>2023-05-25T13:21:42Z</time>
      </trkpt>
      <trkpt lat="49.21536" lon="-0.61122">
        <ele>54.8</ele>
        <time>2023-05-25T13:21:43Z</time>
      </trkpt>
      <trkpt lat="49.21538" lon="-0.61114">
        <ele>54.8</ele>
        <time>2023-05-25T13:21:44Z</time>
      </trkpt>
      <trkpt lat="49.2154" lon="-0.61106">
        <ele>54.8</ele>
        <time>2023-05-25T13:21:45Z</time>
      </trkpt>
      <trkpt lat="49.21541" lon="-0.61098">
        <ele>54.8</ele>
        <time>2023-05-25T13:21:46Z</time>
      </trkpt>
      <trkpt lat="49.21543" lon="-0.61089">
        <ele>55</ele>
        <time>2023-05-25T13:21:47Z</time>
      </trkpt>
      <trkpt lat="49.21545" lon="-0.61081">
        <ele>55</ele>
        <time>2023-05-25T13:21:48Z</time>
      </trkpt>
      <trkpt lat="49.21546" lon="-0.61073">
        <ele>55</ele>
        <time>2023-05-25T13:21:49Z</time>
      </trkpt>
      <trkpt lat="49.21548" lon="-0.61065">
        <ele>55</ele>
        <time>2023-05-25T13:21:50Z</time>
      </trkpt>
      <trkpt lat="49.2155" lon="-0.61057">
        <ele>55</ele>
        <time>2023-05-25T13:21:51Z</time>
      </trkpt>
      <trkpt lat="49.21551" lon="-0.61049">
        <ele>55</ele>
        <time>2023-05-25T13:21:52Z</time>
      </trkpt>
      <trkpt lat="49.21553" lon="-0.6104">
        <ele>55</ele>
        <time>2023-05-25T13:21:53Z</time>
      </trkpt>
      <trkpt lat="49.21554" lon="-0.61033">
        <ele>55</ele>
        <time>2023-05-25T13:21:54Z</time>
      </trkpt>
      <trkpt lat="49.21556" lon="-0.61024">
        <ele>55</ele>
        <time>2023-05-25T13:21:55Z</time>
      </trkpt>
      <trkpt lat="49.21558" lon="-0.61017">
        <ele>55</ele>
        <time>2023-05-25T13:21:56Z</time>
      </trkpt>
      <trkpt lat="49.21559" lon="-0.61009">
        <ele>55</ele>
        <time>2023-05-25T13:21:57Z</time>
      </trkpt>
      <trkpt lat="49.21561" lon="-0.61001">
        <ele>55</ele>
        <time>2023-05-25T13:21:58Z</time>
      </trkpt>
      <trkpt lat="49.21562" lon="-0.60993">
        <ele>55</ele>
        <time>2023-05-25T13:21:59Z</time>
      </trkpt>
      <trkpt lat="49.21563" lon="-0.60985">
        <ele>55</ele>
        <time>2023-05-25T13:22:00Z</time>
      </trkpt>
      <trkpt lat="49.21565" lon="-0.60977">
        <ele>55</ele>
        <time>2023-05-25T13:22:01Z</time>
      </trkpt>
      <trkpt lat="49.21566" lon="-0.6097">
        <ele>55</ele>
        <time>2023-05-25T13:22:02Z</time>
      </trkpt>
      <trkpt lat="49.21568" lon="-0.60962">
        <ele>55</ele>
        <time>2023-05-25T13:22:03Z</time>
      </trkpt>
      <trkpt lat="49.21569" lon="-0.60954">
        <ele>55</ele>
        <time>2023-05-25T13:22:04Z</time>
      </trkpt>
      <trkpt lat="49.2157" lon="-0.60947">
        <ele>55</ele>
        <time>2023-05-25T13:22:05Z</time>
      </trkpt>
      <trkpt lat="49.21571" lon="-0.60939">
        <ele>55</ele>
        <time>2023-05-25T13:22:06Z</time>
      </trkpt>
      <trkpt lat="49.21573" lon="-0.60932">
        <ele>55</ele>
        <time>2023-05-25T13:22:07Z</time>
      </trkpt>
      <trkpt lat="49.21574" lon="-0.60925">
        <ele>55</ele>
        <time>2023-05-25T13:22:08Z</time>
      </trkpt>
      <trkpt lat="49.21575" lon="-0.60917">
        <ele>55</ele>
        <time>2023-05-25T13:22:09Z</time>
      </trkpt>
      <trkpt lat="49.21576" lon="-0.6091">
        <ele>55.2</ele>
        <time>2023-05-25T13:22:10Z</time>
      </trkpt>
      <trkpt lat="49.21577" lon="-0.60903">
        <ele>55.2</ele>
        <time>2023-05-25T13:22:11Z</time>
      </trkpt>
      <trkpt lat="49.21578" lon="-0.60895">
        <ele>55.6</ele>
        <time>2023-05-25T13:22:12Z</time>
      </trkpt>
      <trkpt lat="49.21579" lon="-0.60888">
        <ele>55.8</ele>
        <time>2023-05-25T13:22:13Z</time>
      </trkpt>
      <trkpt lat="49.2158" lon="-0.60881">
        <ele>55.8</ele>
        <time>2023-05-25T13:22:14Z</time>
      </trkpt>
      <trkpt lat="49.21581" lon="-0.60874">
        <ele>56</ele>
        <time>2023-05-25T13:22:15Z</time>
      </trkpt>
      <trkpt lat="49.21582" lon="-0.60867">
        <ele>56.2</ele>
        <time>2023-05-25T13:22:16Z</time>
      </trkpt>
      <trkpt lat="49.21583" lon="-0.6086">
        <ele>56.4</ele>
        <time>2023-05-25T13:22:17Z</time>
      </trkpt>
      <trkpt lat="49.21584" lon="-0.60853">
        <ele>56.6</ele>
        <time>2023-05-25T13:22:18Z</time>
      </trkpt>
      <trkpt lat="49.21585" lon="-0.60846">
        <ele>56.8</ele>
        <time>2023-05-25T13:22:19Z</time>
      </trkpt>
      <trkpt lat="49.21586" lon="-0.60838">
        <ele>57</ele>
        <time>2023-05-25T13:22:20Z</time>
      </trkpt>
      <trkpt lat="49.21587" lon="-0.60831">
        <ele>57</ele>
        <time>2023-05-25T13:22:21Z</time>
      </trkpt>
      <trkpt lat="49.21588" lon="-0.60824">
        <ele>57</ele>
        <time>2023-05-25T13:22:22Z</time>
      </trkpt>
      <trkpt lat="49.21589" lon="-0.60817">
        <ele>57</ele>
        <time>2023-05-25T13:22:23Z</time>
      </trkpt>
      <trkpt lat="49.2159" lon="-0.60809">
        <ele>57</ele>
        <time>2023-05-25T13:22:24Z</time>
      </trkpt>
      <trkpt lat="49.21591" lon="-0.60802">
        <ele>57</ele>
        <time>2023-05-25T13:22:25Z</time>
      </trkpt>
      <trkpt lat="49.21592" lon="-0.60795">
        <ele>57</ele>
        <time>2023-05-25T13:22:26Z</time>
      </trkpt>
      <trkpt lat="49.21593" lon="-0.60788">
        <ele>57</ele>
        <time>2023-05-25T13:22:27Z</time>
      </trkpt>
      <trkpt lat="49.21594" lon="-0.60781">
        <ele>57</ele>
        <time>2023-05-25T13:22:28Z</time>
      </trkpt>
      <trkpt lat="49.21595" lon="-0.60774">
        <ele>57</ele>
        <time>2023-05-25T13:22:29Z</time>
      </trkpt>
      <trkpt lat="49.21596" lon="-0.60766">
        <ele>57</ele>
        <time>2023-05-25T13:22:30Z</time>
      </trkpt>
      <trkpt lat="49.21597" lon="-0.60759">
        <ele>57</ele>
        <time>2023-05-25T13:22:31Z</time>
      </trkpt>
      <trkpt lat="49.21598" lon="-0.60752">
        <ele>57</ele>
        <time>2023-05-25T13:22:32Z</time>
      </trkpt>
      <trkpt lat="49.21599" lon="-0.60745">
        <ele>57</ele>
        <time>2023-05-25T13:22:33Z</time>
      </trkpt>
      <trkpt lat="49.216" lon="-0.60738">
        <ele>57</ele>
        <time>2023-05-25T13:22:34Z</time>
      </trkpt>
      <trkpt lat="49.21601" lon="-0.60731">
        <ele>57.2</ele>
        <time>2023-05-25T13:22:35Z</time>
      </trkpt>
      <trkpt lat="49.21602" lon="-0.60724">
        <ele>57.2</ele>
        <time>2023-05-25T13:22:36Z</time>
      </trkpt>
      <trkpt lat="49.21603" lon="-0.60717">
        <ele>57.4</ele>
        <time>2023-05-25T13:22:37Z</time>
      </trkpt>
      <trkpt lat="49.21604" lon="-0.60711">
        <ele>57.6</ele>
        <time>2023-05-25T13:22:38Z</time>
      </trkpt>
      <trkpt lat="49.21605" lon="-0.60704">
        <ele>57.6</ele>
        <time>2023-05-25T13:22:39Z</time>
      </trkpt>
      <trkpt lat="49.21606" lon="-0.60697">
        <ele>57.6</ele>
        <time>2023-05-25T13:22:40Z</time>
      </trkpt>
      <trkpt lat="49.21607" lon="-0.6069">
        <ele>57.8</ele>
        <time>2023-05-25T13:22:41Z</time>
      </trkpt>
      <trkpt lat="49.21608" lon="-0.60683">
        <ele>57.8</ele>
        <time>2023-05-25T13:22:42Z</time>
      </trkpt>
      <trkpt lat="49.21609" lon="-0.60676">
        <ele>58</ele>
        <time>2023-05-25T13:22:43Z</time>
      </trkpt>
      <trkpt lat="49.2161" lon="-0.60669">
        <ele>58</ele>
        <time>2023-05-25T13:22:44Z</time>
      </trkpt>
      <trkpt lat="49.21611" lon="-0.60662">
        <ele>58</ele>
        <time>2023-05-25T13:22:45Z</time>
      </trkpt>
      <trkpt lat="49.21612" lon="-0.60655">
        <ele>58</ele>
        <time>2023-05-25T13:22:46Z</time>
      </trkpt>
      <trkpt lat="49.21613" lon="-0.60648">
        <ele>58</ele>
        <time>2023-05-25T13:22:47Z</time>
      </trkpt>
      <trkpt lat="49.21613" lon="-0.60641">
        <ele>58.2</ele>
        <time>2023-05-25T13:22:48Z</time>
      </trkpt>
      <trkpt lat="49.21614" lon="-0.60633">
        <ele>58.2</ele>
        <time>2023-05-25T13:22:49Z</time>
      </trkpt>
      <trkpt lat="49.21615" lon="-0.60626">
        <ele>58.2</ele>
        <time>2023-05-25T13:22:50Z</time>
      </trkpt>
      <trkpt lat="49.21616" lon="-0.60619">
        <ele>58.2</ele>
        <time>2023-05-25T13:22:51Z</time>
      </trkpt>
      <trkpt lat="49.21616" lon="-0.60612">
        <ele>58.4</ele>
        <time>2023-05-25T13:22:52Z</time>
      </trkpt>
      <trkpt lat="49.21617" lon="-0.60605">
        <ele>58.4</ele>
        <time>2023-05-25T13:22:53Z</time>
      </trkpt>
      <trkpt lat="49.21617" lon="-0.60598">
        <ele>58.6</ele>
        <time>2023-05-25T13:22:54Z</time>
      </trkpt>
      <trkpt lat="49.21618" lon="-0.60591">
        <ele>58.6</ele>
        <time>2023-05-25T13:22:55Z</time>
      </trkpt>
      <trkpt lat="49.21618" lon="-0.60584">
        <ele>58.6</ele>
        <time>2023-05-25T13:22:56Z</time>
      </trkpt>
      <trkpt lat="49.21619" lon="-0.60577">
        <ele>58.6</ele>
        <time>2023-05-25T13:22:57Z</time>
      </trkpt>
      <trkpt lat="49.21619" lon="-0.60569">
        <ele>58.8</ele>
        <time>2023-05-25T13:22:58Z</time>
      </trkpt>
      <trkpt lat="49.21619" lon="-0.60562">
        <ele>58.8</ele>
        <time>2023-05-25T13:22:59Z</time>
      </trkpt>
      <trkpt lat="49.21619" lon="-0.60554">
        <ele>59</ele>
        <time>2023-05-25T13:23:00Z</time>
      </trkpt>
      <trkpt lat="49.21619" lon="-0.60547">
        <ele>59</ele>
        <time>2023-05-25T13:23:01Z</time>
      </trkpt>
      <trkpt lat="49.21619" lon="-0.60539">
        <ele>59</ele>
        <time>2023-05-25T13:23:02Z</time>
      </trkpt>
      <trkpt lat="49.21619" lon="-0.60531">
        <ele>59</ele>
        <time>2023-05-25T13:23:03Z</time>
      </trkpt>
      <trkpt lat="49.21619" lon="-0.60523">
        <ele>59.2</ele>
        <time>2023-05-25T13:23:04Z</time>
      </trkpt>
      <trkpt lat="49.21619" lon="-0.60515">
        <ele>59.2</ele>
        <time>2023-05-25T13:23:05Z</time>
      </trkpt>
      <trkpt lat="49.21619" lon="-0.60508">
        <ele>59.2</ele>
        <time>2023-05-25T13:23:06Z</time>
      </trkpt>
      <trkpt lat="49.21619" lon="-0.605">
        <ele>59.4</ele>
        <time>2023-05-25T13:23:07Z</time>
      </trkpt>
      <trkpt lat="49.2162" lon="-0.60493">
        <ele>59.6</ele>
        <time>2023-05-25T13:23:08Z</time>
      </trkpt>
      <trkpt lat="49.2162" lon="-0.60485">
        <ele>59.8</ele>
        <time>2023-05-25T13:23:09Z</time>
      </trkpt>
      <trkpt lat="49.2162" lon="-0.60478">
        <ele>60</ele>
        <time>2023-05-25T13:23:10Z</time>
      </trkpt>
      <trkpt lat="49.2162" lon="-0.6047">
        <ele>60.2</ele>
        <time>2023-05-25T13:23:11Z</time>
      </trkpt>
      <trkpt lat="49.2162" lon="-0.60463">
        <ele>60.2</ele>
        <time>2023-05-25T13:23:12Z</time>
      </trkpt>
      <trkpt lat="49.2162" lon="-0.60455">
        <ele>60.6</ele>
        <time>2023-05-25T13:23:13Z</time>
      </trkpt>
      <trkpt lat="49.2162" lon="-0.60448">
        <ele>60.8</ele>
        <time>2023-05-25T13:23:14Z</time>
      </trkpt>
      <trkpt lat="49.2162" lon="-0.60441">
        <ele>61</ele>
        <time>2023-05-25T13:23:15Z</time>
      </trkpt>
      <trkpt lat="49.21619" lon="-0.60433">
        <ele>61</ele>
        <time>2023-05-25T13:23:16Z</time>
      </trkpt>
      <trkpt lat="49.21618" lon="-0.60426">
        <ele>61.2</ele>
        <time>2023-05-25T13:23:17Z</time>
      </trkpt>
      <trkpt lat="49.21616" lon="-0.60419">
        <ele>61.4</ele>
        <time>2023-05-25T13:23:18Z</time>
      </trkpt>
      <trkpt lat="49.21614" lon="-0.60412">
        <ele>61.4</ele>
        <time>2023-05-25T13:23:19Z</time>
      </trkpt>
      <trkpt lat="49.21612" lon="-0.60405">
        <ele>61.4</ele>
        <time>2023-05-25T13:23:20Z</time>
      </trkpt>
      <trkpt lat="49.21609" lon="-0.60398">
        <ele>61.6</ele>
        <time>2023-05-25T13:23:21Z</time>
      </trkpt>
      <trkpt lat="49.21607" lon="-0.60392">
        <ele>61.6</ele>
        <time>2023-05-25T13:23:22Z</time>
      </trkpt>
      <trkpt lat="49.21603" lon="-0.60387">
        <ele>61.6</ele>
        <time>2023-05-25T13:23:23Z</time>
      </trkpt>
      <trkpt lat="49.216" lon="-0.60381">
        <ele>61.6</ele>
        <time>2023-05-25T13:23:24Z</time>
      </trkpt>
      <trkpt lat="49.21597" lon="-0.60375">
        <ele>61.6</ele>
        <time>2023-05-25T13:23:25Z</time>
      </trkpt>
      <trkpt lat="49.21593" lon="-0.6037">
        <ele>61.6</ele>
        <time>2023-05-25T13:23:26Z</time>
      </trkpt>
      <trkpt lat="49.2159" lon="-0.60364">
        <ele>61.8</ele>
        <time>2023-05-25T13:23:27Z</time>
      </trkpt>
      <trkpt lat="49.21586" lon="-0.60358">
        <ele>61.8</ele>
        <time>2023-05-25T13:23:28Z</time>
      </trkpt>
      <trkpt lat="49.21583" lon="-0.60353">
        <ele>61.8</ele>
        <time>2023-05-25T13:23:29Z</time>
      </trkpt>
      <trkpt lat="49.21579" lon="-0.60347">
        <ele>61.8</ele>
        <time>2023-05-25T13:23:30Z</time>
      </trkpt>
      <trkpt lat="49.21576" lon="-0.60342">
        <ele>62</ele>
        <time>2023-05-25T13:23:31Z</time>
      </trkpt>
      <trkpt lat="49.21573" lon="-0.60337">
        <ele>62</ele>
        <time>2023-05-25T13:23:32Z</time>
      </trkpt>
      <trkpt lat="49.2157" lon="-0.60332">
        <ele>62</ele>
        <time>2023-05-25T13:23:33Z</time>
      </trkpt>
      <trkpt lat="49.21567" lon="-0.60327">
        <ele>62</ele>
        <time>2023-05-25T13:23:34Z</time>
      </trkpt>
      <trkpt lat="49.21565" lon="-0.60322">
        <ele>62</ele>
        <time>2023-05-25T13:23:35Z</time>
      </trkpt>
      <trkpt lat="49.21562" lon="-0.60317">
        <ele>62</ele>
        <time>2023-05-25T13:23:36Z</time>
      </trkpt>
      <trkpt lat="49.2156" lon="-0.60312">
        <ele>62</ele>
        <time>2023-05-25T13:23:37Z</time>
      </trkpt>
      <trkpt lat="49.21558" lon="-0.60307">
        <ele>62.2</ele>
        <time>2023-05-25T13:23:38Z</time>
      </trkpt>
      <trkpt lat="49.21556" lon="-0.60303">
        <ele>62.2</ele>
        <time>2023-05-25T13:23:39Z</time>
      </trkpt>
      <trkpt lat="49.21554" lon="-0.60298">
        <ele>62.2</ele>
        <time>2023-05-25T13:23:40Z</time>
      </trkpt>
      <trkpt lat="49.21552" lon="-0.60294">
        <ele>62.4</ele>
        <time>2023-05-25T13:23:41Z</time>
      </trkpt>
      <trkpt lat="49.21549" lon="-0.60289">
        <ele>62.4</ele>
        <time>2023-05-25T13:23:42Z</time>
      </trkpt>
      <trkpt lat="49.21546" lon="-0.60285">
        <ele>62.6</ele>
        <time>2023-05-25T13:23:43Z</time>
      </trkpt>
      <trkpt lat="49.21543" lon="-0.6028">
        <ele>62.6</ele>
        <time>2023-05-25T13:23:44Z</time>
      </trkpt>
      <trkpt lat="49.2154" lon="-0.60275">
        <ele>62.8</ele>
        <time>2023-05-25T13:23:45Z</time>
      </trkpt>
      <trkpt lat="49.21536" lon="-0.6027">
        <ele>63</ele>
        <time>2023-05-25T13:23:46Z</time>
      </trkpt>
      <trkpt lat="49.21533" lon="-0.60265">
        <ele>63</ele>
        <time>2023-05-25T13:23:47Z</time>
      </trkpt>
      <trkpt lat="49.21529" lon="-0.6026">
        <ele>63</ele>
        <time>2023-05-25T13:23:48Z</time>
      </trkpt>
      <trkpt lat="49.21525" lon="-0.60255">
        <ele>63.2</ele>
        <time>2023-05-25T13:23:49Z</time>
      </trkpt>
      <trkpt lat="49.21522" lon="-0.6025">
        <ele>63.6</ele>
        <time>2023-05-25T13:23:50Z</time>
      </trkpt>
      <trkpt lat="49.21518" lon="-0.60244">
        <ele>63.6</ele>
        <time>2023-05-25T13:23:51Z</time>
      </trkpt>
      <trkpt lat="49.21515" lon="-0.60239">
        <ele>63.8</ele>
        <time>2023-05-25T13:23:52Z</time>
      </trkpt>
      <trkpt lat="49.21512" lon="-0.60233">
        <ele>63.8</ele>
        <time>2023-05-25T13:23:53Z</time>
      </trkpt>
      <trkpt lat="49.21508" lon="-0.60228">
        <ele>63.8</ele>
        <time>2023-05-25T13:23:54Z</time>
      </trkpt>
      <trkpt lat="49.21505" lon="-0.60222">
        <ele>64</ele>
        <time>2023-05-25T13:23:55Z</time>
      </trkpt>
      <trkpt lat="49.21502" lon="-0.60215">
        <ele>64</ele>
        <time>2023-05-25T13:23:56Z</time>
      </trkpt>
      <trkpt lat="49.215" lon="-0.60209">
        <ele>64</ele>
        <time>2023-05-25T13:23:57Z</time>
      </trkpt>
      <trkpt lat="49.21498" lon="-0.60202">
        <ele>64</ele>
        <time>2023-05-25T13:23:58Z</time>
      </trkpt>
      <trkpt lat="49.21497" lon="-0.60195">
        <ele>64</ele>
        <time>2023-05-25T13:23:59Z</time>
      </trkpt>
      <trkpt lat="49.21496" lon="-0.60187">
        <ele>64</ele>
        <time>2023-05-25T13:24:00Z</time>
      </trkpt>
      <trkpt lat="49.21496" lon="-0.6018">
        <ele>64</ele>
        <time>2023-05-25T13:24:01Z</time>
      </trkpt>
      <trkpt lat="49.21496" lon="-0.60172">
        <ele>64</ele>
        <time>2023-05-25T13:24:02Z</time>
      </trkpt>
      <trkpt lat="49.21496" lon="-0.60165">
        <ele>64</ele>
        <time>2023-05-25T13:24:03Z</time>
      </trkpt>
      <trkpt lat="49.21497" lon="-0.60157">
        <ele>64</ele>
        <time>2023-05-25T13:24:04Z</time>
      </trkpt>
      <trkpt lat="49.21498" lon="-0.6015">
        <ele>64.2</ele>
        <time>2023-05-25T13:24:05Z</time>
      </trkpt>
      <trkpt lat="49.21499" lon="-0.60142">
        <ele>64.4</ele>
        <time>2023-05-25T13:24:06Z</time>
      </trkpt>
      <trkpt lat="49.215" lon="-0.60135">
        <ele>64.4</ele>
        <time>2023-05-25T13:24:07Z</time>
      </trkpt>
      <trkpt lat="49.21501" lon="-0.60127">
        <ele>64.6</ele>
        <time>2023-05-25T13:24:08Z</time>
      </trkpt>
      <trkpt lat="49.21502" lon="-0.6012">
        <ele>64.6</ele>
        <time>2023-05-25T13:24:09Z</time>
      </trkpt>
      <trkpt lat="49.21502" lon="-0.60113">
        <ele>64.6</ele>
        <time>2023-05-25T13:24:10Z</time>
      </trkpt>
      <trkpt lat="49.21503" lon="-0.60105">
        <ele>64.6</ele>
        <time>2023-05-25T13:24:11Z</time>
      </trkpt>
      <trkpt lat="49.21505" lon="-0.60097">
        <ele>64.8</ele>
        <time>2023-05-25T13:24:12Z</time>
      </trkpt>
      <trkpt lat="49.21506" lon="-0.6009">
        <ele>65</ele>
        <time>2023-05-25T13:24:13Z</time>
      </trkpt>
      <trkpt lat="49.21506" lon="-0.60082">
        <ele>65</ele>
        <time>2023-05-25T13:24:14Z</time>
      </trkpt>
      <trkpt lat="49.21508" lon="-0.60075">
        <ele>65</ele>
        <time>2023-05-25T13:24:15Z</time>
      </trkpt>
      <trkpt lat="49.21509" lon="-0.60067">
        <ele>65</ele>
        <time>2023-05-25T13:24:16Z</time>
      </trkpt>
      <trkpt lat="49.21509" lon="-0.60059">
        <ele>65.2</ele>
        <time>2023-05-25T13:24:17Z</time>
      </trkpt>
      <trkpt lat="49.21511" lon="-0.60052">
        <ele>65.4</ele>
        <time>2023-05-25T13:24:18Z</time>
      </trkpt>
      <trkpt lat="49.21512" lon="-0.60044">
        <ele>65.4</ele>
        <time>2023-05-25T13:24:19Z</time>
      </trkpt>
      <trkpt lat="49.21513" lon="-0.60036">
        <ele>65.4</ele>
        <time>2023-05-25T13:24:20Z</time>
      </trkpt>
      <trkpt lat="49.21514" lon="-0.60028">
        <ele>65.6</ele>
        <time>2023-05-25T13:24:21Z</time>
      </trkpt>
      <trkpt lat="49.21515" lon="-0.60021">
        <ele>65.6</ele>
        <time>2023-05-25T13:24:22Z</time>
      </trkpt>
      <trkpt lat="49.21516" lon="-0.60013">
        <ele>65.6</ele>
        <time>2023-05-25T13:24:23Z</time>
      </trkpt>
      <trkpt lat="49.21517" lon="-0.60005">
        <ele>65.6</ele>
        <time>2023-05-25T13:24:24Z</time>
      </trkpt>
      <trkpt lat="49.21518" lon="-0.59997">
        <ele>65.8</ele>
        <time>2023-05-25T13:24:25Z</time>
      </trkpt>
      <trkpt lat="49.21519" lon="-0.59989">
        <ele>65.6</ele>
        <time>2023-05-25T13:24:26Z</time>
      </trkpt>
      <trkpt lat="49.2152" lon="-0.59981">
        <ele>65.6</ele>
        <time>2023-05-25T13:24:27Z</time>
      </trkpt>
      <trkpt lat="49.21521" lon="-0.59973">
        <ele>65.6</ele>
        <time>2023-05-25T13:24:28Z</time>
      </trkpt>
      <trkpt lat="49.21522" lon="-0.59965">
        <ele>65.6</ele>
        <time>2023-05-25T13:24:29Z</time>
      </trkpt>
      <trkpt lat="49.21523" lon="-0.59957">
        <ele>65.6</ele>
        <time>2023-05-25T13:24:30Z</time>
      </trkpt>
      <trkpt lat="49.21524" lon="-0.59949">
        <ele>65.6</ele>
        <time>2023-05-25T13:24:31Z</time>
      </trkpt>
      <trkpt lat="49.21525" lon="-0.59941">
        <ele>65.4</ele>
        <time>2023-05-25T13:24:32Z</time>
      </trkpt>
      <trkpt lat="49.21526" lon="-0.59932">
        <ele>65.4</ele>
        <time>2023-05-25T13:24:33Z</time>
      </trkpt>
      <trkpt lat="49.21528" lon="-0.59924">
        <ele>65.4</ele>
        <time>2023-05-25T13:24:34Z</time>
      </trkpt>
      <trkpt lat="49.21529" lon="-0.59916">
        <ele>65.4</ele>
        <time>2023-05-25T13:24:35Z</time>
      </trkpt>
      <trkpt lat="49.21529" lon="-0.59908">
        <ele>65.4</ele>
        <time>2023-05-25T13:24:36Z</time>
      </trkpt>
      <trkpt lat="49.2153" lon="-0.59899">
        <ele>65.4</ele>
        <time>2023-05-25T13:24:37Z</time>
      </trkpt>
      <trkpt lat="49.21531" lon="-0.59891">
        <ele>65.6</ele>
        <time>2023-05-25T13:24:38Z</time>
      </trkpt>
      <trkpt lat="49.21532" lon="-0.59883">
        <ele>65.6</ele>
        <time>2023-05-25T13:24:39Z</time>
      </trkpt>
      <trkpt lat="49.21533" lon="-0.59874">
        <ele>65.6</ele>
        <time>2023-05-25T13:24:40Z</time>
      </trkpt>
      <trkpt lat="49.21534" lon="-0.59865">
        <ele>65.6</ele>
        <time>2023-05-25T13:24:41Z</time>
      </trkpt>
      <trkpt lat="49.21534" lon="-0.59857">
        <ele>65.6</ele>
        <time>2023-05-25T13:24:42Z</time>
      </trkpt>
      <trkpt lat="49.21535" lon="-0.59848">
        <ele>65.8</ele>
        <time>2023-05-25T13:24:43Z</time>
      </trkpt>
      <trkpt lat="49.21535" lon="-0.5984">
        <ele>65.8</ele>
        <time>2023-05-25T13:24:44Z</time>
      </trkpt>
      <trkpt lat="49.21534" lon="-0.59831">
        <ele>65.8</ele>
        <time>2023-05-25T13:24:45Z</time>
      </trkpt>
      <trkpt lat="49.21534" lon="-0.59822">
        <ele>65.6</ele>
        <time>2023-05-25T13:24:46Z</time>
      </trkpt>
      <trkpt lat="49.21533" lon="-0.59814">
        <ele>65.6</ele>
        <time>2023-05-25T13:24:47Z</time>
      </trkpt>
      <trkpt lat="49.21532" lon="-0.59805">
        <ele>65.4</ele>
        <time>2023-05-25T13:24:48Z</time>
      </trkpt>
      <trkpt lat="49.21531" lon="-0.59797">
        <ele>65.2</ele>
        <time>2023-05-25T13:24:49Z</time>
      </trkpt>
      <trkpt lat="49.21531" lon="-0.59788">
        <ele>65</ele>
        <time>2023-05-25T13:24:50Z</time>
      </trkpt>
      <trkpt lat="49.2153" lon="-0.5978">
        <ele>64.8</ele>
        <time>2023-05-25T13:24:51Z</time>
      </trkpt>
      <trkpt lat="49.21529" lon="-0.59771">
        <ele>64.6</ele>
        <time>2023-05-25T13:24:52Z</time>
      </trkpt>
      <trkpt lat="49.21528" lon="-0.59762">
        <ele>64.6</ele>
        <time>2023-05-25T13:24:53Z</time>
      </trkpt>
      <trkpt lat="49.21528" lon="-0.59754">
        <ele>64.4</ele>
        <time>2023-05-25T13:24:54Z</time>
      </trkpt>
      <trkpt lat="49.21527" lon="-0.59745">
        <ele>64.4</ele>
        <time>2023-05-25T13:24:55Z</time>
      </trkpt>
      <trkpt lat="49.21526" lon="-0.59736">
        <ele>64.4</ele>
        <time>2023-05-25T13:24:56Z</time>
      </trkpt>
      <trkpt lat="49.21525" lon="-0.59727">
        <ele>64.4</ele>
        <time>2023-05-25T13:24:57Z</time>
      </trkpt>
      <trkpt lat="49.21525" lon="-0.59719">
        <ele>64.4</ele>
        <time>2023-05-25T13:24:58Z</time>
      </trkpt>
      <trkpt lat="49.21524" lon="-0.5971">
        <ele>64.4</ele>
        <time>2023-05-25T13:24:59Z</time>
      </trkpt>
      <trkpt lat="49.21523" lon="-0.59701">
        <ele>64.4</ele>
        <time>2023-05-25T13:25:00Z</time>
      </trkpt>
      <trkpt lat="49.21522" lon="-0.59692">
        <ele>64.4</ele>
        <time>2023-05-25T13:25:01Z</time>
      </trkpt>
      <trkpt lat="49.21521" lon="-0.59684">
        <ele>64.4</ele>
        <time>2023-05-25T13:25:02Z</time>
      </trkpt>
      <trkpt lat="49.2152" lon="-0.59675">
        <ele>64.2</ele>
        <time>2023-05-25T13:25:03Z</time>
      </trkpt>
      <trkpt lat="49.21518" lon="-0.59667">
        <ele>64.2</ele>
        <time>2023-05-25T13:25:04Z</time>
      </trkpt>
      <trkpt lat="49.21516" lon="-0.59659">
        <ele>64.2</ele>
        <time>2023-05-25T13:25:05Z</time>
      </trkpt>
      <trkpt lat="49.21513" lon="-0.59651">
        <ele>64.2</ele>
        <time>2023-05-25T13:25:06Z</time>
      </trkpt>
      <trkpt lat="49.2151" lon="-0.59644">
        <ele>64</ele>
        <time>2023-05-25T13:25:07Z</time>
      </trkpt>
      <trkpt lat="49.21507" lon="-0.59637">
        <ele>64</ele>
        <time>2023-05-25T13:25:08Z</time>
      </trkpt>
      <trkpt lat="49.21504" lon="-0.59629">
        <ele>64</ele>
        <time>2023-05-25T13:25:09Z</time>
      </trkpt>
      <trkpt lat="49.21502" lon="-0.59622">
        <ele>64</ele>
        <time>2023-05-25T13:25:10Z</time>
      </trkpt>
      <trkpt lat="49.21499" lon="-0.59615">
        <ele>64</ele>
        <time>2023-05-25T13:25:11Z</time>
      </trkpt>
      <trkpt lat="49.21496" lon="-0.59608">
        <ele>64</ele>
        <time>2023-05-25T13:25:12Z</time>
      </trkpt>
      <trkpt lat="49.21493" lon="-0.59601">
        <ele>64</ele>
        <time>2023-05-25T13:25:13Z</time>
      </trkpt>
      <trkpt lat="49.21491" lon="-0.59594">
        <ele>64</ele>
        <time>2023-05-25T13:25:14Z</time>
      </trkpt>
      <trkpt lat="49.21488" lon="-0.59587">
        <ele>64</ele>
        <time>2023-05-25T13:25:15Z</time>
      </trkpt>
      <trkpt lat="49.21485" lon="-0.59581">
        <ele>64</ele>
        <time>2023-05-25T13:25:16Z</time>
      </trkpt>
      <trkpt lat="49.21482" lon="-0.59575">
        <ele>64</ele>
        <time>2023-05-25T13:25:17Z</time>
      </trkpt>
      <trkpt lat="49.21479" lon="-0.59568">
        <ele>64</ele>
        <time>2023-05-25T13:25:18Z</time>
      </trkpt>
      <trkpt lat="49.21476" lon="-0.59562">
        <ele>64.2</ele>
        <time>2023-05-25T13:25:19Z</time>
      </trkpt>
      <trkpt lat="49.21473" lon="-0.59555">
        <ele>64.2</ele>
        <time>2023-05-25T13:25:20Z</time>
      </trkpt>
      <trkpt lat="49.2147" lon="-0.59548">
        <ele>64.4</ele>
        <time>2023-05-25T13:25:21Z</time>
      </trkpt>
      <trkpt lat="49.21467" lon="-0.59541">
        <ele>64.4</ele>
        <time>2023-05-25T13:25:22Z</time>
      </trkpt>
      <trkpt lat="49.21464" lon="-0.59534">
        <ele>64.4</ele>
        <time>2023-05-25T13:25:23Z</time>
      </trkpt>
      <trkpt lat="49.21461" lon="-0.59526">
        <ele>64.4</ele>
        <time>2023-05-25T13:25:24Z</time>
      </trkpt>
      <trkpt lat="49.21457" lon="-0.59519">
        <ele>64.4</ele>
        <time>2023-05-25T13:25:25Z</time>
      </trkpt>
      <trkpt lat="49.21454" lon="-0.59512">
        <ele>64.4</ele>
        <time>2023-05-25T13:25:26Z</time>
      </trkpt>
      <trkpt lat="49.2145" lon="-0.59505">
        <ele>64.4</ele>
        <time>2023-05-25T13:25:27Z</time>
      </trkpt>
      <trkpt lat="49.21446" lon="-0.59499">
        <ele>64.4</ele>
        <time>2023-05-25T13:25:28Z</time>
      </trkpt>
      <trkpt lat="49.21442" lon="-0.59493">
        <ele>64.4</ele>
        <time>2023-05-25T13:25:29Z</time>
      </trkpt>
      <trkpt lat="49.21437" lon="-0.59488">
        <ele>64.4</ele>
        <time>2023-05-25T13:25:30Z</time>
      </trkpt>
      <trkpt lat="49.21433" lon="-0.59482">
        <ele>64.4</ele>
        <time>2023-05-25T13:25:31Z</time>
      </trkpt>
      <trkpt lat="49.21428" lon="-0.59478">
        <ele>64.4</ele>
        <time>2023-05-25T13:25:32Z</time>
      </trkpt>
      <trkpt lat="49.21423" lon="-0.59473">
        <ele>64.4</ele>
        <time>2023-05-25T13:25:33Z</time>
      </trkpt>
      <trkpt lat="49.21418" lon="-0.59469">
        <ele>64.4</ele>
        <time>2023-05-25T13:25:34Z</time>
      </trkpt>
      <trkpt lat="49.21413" lon="-0.59464">
        <ele>64.6</ele>
        <time>2023-05-25T13:25:35Z</time>
      </trkpt>
      <trkpt lat="49.21408" lon="-0.5946">
        <ele>64.6</ele>
        <time>2023-05-25T13:25:36Z</time>
      </trkpt>
      <trkpt lat="49.21403" lon="-0.59455">
        <ele>64.8</ele>
        <time>2023-05-25T13:25:37Z</time>
      </trkpt>
      <trkpt lat="49.21397" lon="-0.59451">
        <ele>65</ele>
        <time>2023-05-25T13:25:38Z</time>
      </trkpt>
      <trkpt lat="49.21392" lon="-0.59446">
        <ele>65</ele>
        <time>2023-05-25T13:25:39Z</time>
      </trkpt>
      <trkpt lat="49.21387" lon="-0.59442">
        <ele>65.2</ele>
        <time>2023-05-25T13:25:40Z</time>
      </trkpt>
      <trkpt lat="49.21382" lon="-0.59437">
        <ele>65.4</ele>
        <time>2023-05-25T13:25:41Z</time>
      </trkpt>
      <trkpt lat="49.21377" lon="-0.59433">
        <ele>65.4</ele>
        <time>2023-05-25T13:25:42Z</time>
      </trkpt>
      <trkpt lat="49.21372" lon="-0.59428">
        <ele>65.6</ele>
        <time>2023-05-25T13:25:43Z</time>
      </trkpt>
      <trkpt lat="49.21367" lon="-0.59424">
        <ele>65.6</ele>
        <time>2023-05-25T13:25:44Z</time>
      </trkpt>
      <trkpt lat="49.21361" lon="-0.59419">
        <ele>65.6</ele>
        <time>2023-05-25T13:25:45Z</time>
      </trkpt>
      <trkpt lat="49.21356" lon="-0.59415">
        <ele>65.6</ele>
        <time>2023-05-25T13:25:46Z</time>
      </trkpt>
      <trkpt lat="49.21351" lon="-0.59411">
        <ele>65.6</ele>
        <time>2023-05-25T13:25:47Z</time>
      </trkpt>
      <trkpt lat="49.21346" lon="-0.59406">
        <ele>65.6</ele>
        <time>2023-05-25T13:25:48Z</time>
      </trkpt>
      <trkpt lat="49.2134" lon="-0.59402">
        <ele>65.6</ele>
        <time>2023-05-25T13:25:49Z</time>
      </trkpt>
      <trkpt lat="49.21335" lon="-0.59397">
        <ele>65.6</ele>
        <time>2023-05-25T13:25:50Z</time>
      </trkpt>
      <trkpt lat="49.2133" lon="-0.59393">
        <ele>65.4</ele>
        <time>2023-05-25T13:25:51Z</time>
      </trkpt>
      <trkpt lat="49.21325" lon="-0.59389">
        <ele>65.2</ele>
        <time>2023-05-25T13:25:52Z</time>
      </trkpt>
      <trkpt lat="49.2132" lon="-0.59385">
        <ele>65</ele>
        <time>2023-05-25T13:25:53Z</time>
      </trkpt>
      <trkpt lat="49.21315" lon="-0.59381">
        <ele>64.8</ele>
        <time>2023-05-25T13:25:54Z</time>
      </trkpt>
      <trkpt lat="49.2131" lon="-0.59376">
        <ele>64.6</ele>
        <time>2023-05-25T13:25:55Z</time>
      </trkpt>
      <trkpt lat="49.21305" lon="-0.59372">
        <ele>64.4</ele>
        <time>2023-05-25T13:25:56Z</time>
      </trkpt>
      <trkpt lat="49.213" lon="-0.59368">
        <ele>64.4</ele>
        <time>2023-05-25T13:25:57Z</time>
      </trkpt>
      <trkpt lat="49.21295" lon="-0.59364">
        <ele>64</ele>
        <time>2023-05-25T13:25:58Z</time>
      </trkpt>
      <trkpt lat="49.2129" lon="-0.59359">
        <ele>64</ele>
        <time>2023-05-25T13:25:59Z</time>
      </trkpt>
      <trkpt lat="49.21285" lon="-0.59355">
        <ele>63.8</ele>
        <time>2023-05-25T13:26:00Z</time>
      </trkpt>
      <trkpt lat="49.21281" lon="-0.5935">
        <ele>63.6</ele>
        <time>2023-05-25T13:26:01Z</time>
      </trkpt>
      <trkpt lat="49.21276" lon="-0.59346">
        <ele>63.6</ele>
        <time>2023-05-25T13:26:02Z</time>
      </trkpt>
      <trkpt lat="49.21271" lon="-0.59341">
        <ele>63.4</ele>
        <time>2023-05-25T13:26:03Z</time>
      </trkpt>
      <trkpt lat="49.21266" lon="-0.59336">
        <ele>63.2</ele>
        <time>2023-05-25T13:26:04Z</time>
      </trkpt>
      <trkpt lat="49.21262" lon="-0.59331">
        <ele>63.2</ele>
        <time>2023-05-25T13:26:05Z</time>
      </trkpt>
      <trkpt lat="49.21257" lon="-0.59326">
        <ele>63.2</ele>
        <time>2023-05-25T13:26:06Z</time>
      </trkpt>
      <trkpt lat="49.21253" lon="-0.59322">
        <ele>63.2</ele>
        <time>2023-05-25T13:26:07Z</time>
      </trkpt>
      <trkpt lat="49.21248" lon="-0.59317">
        <ele>63.2</ele>
        <time>2023-05-25T13:26:08Z</time>
      </trkpt>
      <trkpt lat="49.21244" lon="-0.59313">
        <ele>63.2</ele>
        <time>2023-05-25T13:26:09Z</time>
      </trkpt>
      <trkpt lat="49.2124" lon="-0.59309">
        <ele>63.4</ele>
        <time>2023-05-25T13:26:10Z</time>
      </trkpt>
      <trkpt lat="49.21236" lon="-0.59305">
        <ele>63.6</ele>
        <time>2023-05-25T13:26:11Z</time>
      </trkpt>
      <trkpt lat="49.21232" lon="-0.59302">
        <ele>63.6</ele>
        <time>2023-05-25T13:26:12Z</time>
      </trkpt>
      <trkpt lat="49.21228" lon="-0.593">
        <ele>63.8</ele>
        <time>2023-05-25T13:26:13Z</time>
      </trkpt>
      <trkpt lat="49.21225" lon="-0.59298">
        <ele>63.8</ele>
        <time>2023-05-25T13:26:14Z</time>
      </trkpt>
      <trkpt lat="49.21222" lon="-0.59297">
        <ele>63.8</ele>
        <time>2023-05-25T13:26:15Z</time>
      </trkpt>
      <trkpt lat="49.2122" lon="-0.59296">
        <ele>63.8</ele>
        <time>2023-05-25T13:26:16Z</time>
      </trkpt>
      <trkpt lat="49.21218" lon="-0.59294">
        <ele>64</ele>
        <time>2023-05-25T13:26:17Z</time>
      </trkpt>
      <trkpt lat="49.21216" lon="-0.59293">
        <ele>64</ele>
        <time>2023-05-25T13:26:18Z</time>
      </trkpt>
      <trkpt lat="49.21214" lon="-0.59292">
        <ele>64</ele>
        <time>2023-05-25T13:26:19Z</time>
      </trkpt>
      <trkpt lat="49.21213" lon="-0.59292">
        <ele>64</ele>
        <time>2023-05-25T13:26:20Z</time>
      </trkpt>
      <trkpt lat="49.21211" lon="-0.59293">
        <ele>64</ele>
        <time>2023-05-25T13:26:21Z</time>
      </trkpt>
      <trkpt lat="49.21209" lon="-0.59294">
        <ele>64</ele>
        <time>2023-05-25T13:26:22Z</time>
      </trkpt>
      <trkpt lat="49.21206" lon="-0.59295">
        <ele>64</ele>
        <time>2023-05-25T13:26:23Z</time>
      </trkpt>
      <trkpt lat="49.21203" lon="-0.59295">
        <ele>64</ele>
        <time>2023-05-25T13:26:24Z</time>
      </trkpt>
      <trkpt lat="49.212" lon="-0.59295">
        <ele>64</ele>
        <time>2023-05-25T13:26:25Z</time>
      </trkpt>
      <trkpt lat="49.21197" lon="-0.59295">
        <ele>64</ele>
        <time>2023-05-25T13:26:26Z</time>
      </trkpt>
      <trkpt lat="49.21194" lon="-0.59295">
        <ele>64</ele>
        <time>2023-05-25T13:26:27Z</time>
      </trkpt>
      <trkpt lat="49.21191" lon="-0.59295">
        <ele>64.2</ele>
        <time>2023-05-25T13:26:28Z</time>
      </trkpt>
      <trkpt lat="49.21187" lon="-0.59295">
        <ele>64.2</ele>
        <time>2023-05-25T13:26:29Z</time>
      </trkpt>
      <trkpt lat="49.21184" lon="-0.59295">
        <ele>64.2</ele>
        <time>2023-05-25T13:26:30Z</time>
      </trkpt>
      <trkpt lat="49.2118" lon="-0.59296">
        <ele>64.4</ele>
        <time>2023-05-25T13:26:31Z</time>
      </trkpt>
      <trkpt lat="49.21176" lon="-0.59296">
        <ele>64.4</ele>
        <time>2023-05-25T13:26:32Z</time>
      </trkpt>
      <trkpt lat="49.21173" lon="-0.59297">
        <ele>64.4</ele>
        <time>2023-05-25T13:26:33Z</time>
      </trkpt>
      <trkpt lat="49.2117" lon="-0.59298">
        <ele>64.4</ele>
        <time>2023-05-25T13:26:34Z</time>
      </trkpt>
      <trkpt lat="49.21166" lon="-0.59299">
        <ele>64.4</ele>
        <time>2023-05-25T13:26:35Z</time>
      </trkpt>
      <trkpt lat="49.21162" lon="-0.593">
        <ele>64.6</ele>
        <time>2023-05-25T13:26:36Z</time>
      </trkpt>
      <trkpt lat="49.21159" lon="-0.59301">
        <ele>64.6</ele>
        <time>2023-05-25T13:26:37Z</time>
      </trkpt>
      <trkpt lat="49.21155" lon="-0.59303">
        <ele>64.8</ele>
        <time>2023-05-25T13:26:38Z</time>
      </trkpt>
      <trkpt lat="49.21151" lon="-0.59304">
        <ele>65</ele>
        <time>2023-05-25T13:26:39Z</time>
      </trkpt>
      <trkpt lat="49.21147" lon="-0.59306">
        <ele>65</ele>
        <time>2023-05-25T13:26:40Z</time>
      </trkpt>
      <trkpt lat="49.21143" lon="-0.59307">
        <ele>65.2</ele>
        <time>2023-05-25T13:26:41Z</time>
      </trkpt>
      <trkpt lat="49.21139" lon="-0.59309">
        <ele>65.4</ele>
        <time>2023-05-25T13:26:42Z</time>
      </trkpt>
      <trkpt lat="49.21135" lon="-0.5931">
        <ele>65.6</ele>
        <time>2023-05-25T13:26:43Z</time>
      </trkpt>
      <trkpt lat="49.21131" lon="-0.59312">
        <ele>65.6</ele>
        <time>2023-05-25T13:26:44Z</time>
      </trkpt>
      <trkpt lat="49.21126" lon="-0.59313">
        <ele>65.8</ele>
        <time>2023-05-25T13:26:45Z</time>
      </trkpt>
      <trkpt lat="49.21122" lon="-0.59315">
        <ele>66</ele>
        <time>2023-05-25T13:26:46Z</time>
      </trkpt>
      <trkpt lat="49.21118" lon="-0.59316">
        <ele>66.2</ele>
        <time>2023-05-25T13:26:47Z</time>
      </trkpt>
      <trkpt lat="49.21113" lon="-0.59318">
        <ele>66.4</ele>
        <time>2023-05-25T13:26:48Z</time>
      </trkpt>
      <trkpt lat="49.21108" lon="-0.5932">
        <ele>66.6</ele>
        <time>2023-05-25T13:26:49Z</time>
      </trkpt>
      <trkpt lat="49.21104" lon="-0.59322">
        <ele>66.8</ele>
        <time>2023-05-25T13:26:50Z</time>
      </trkpt>
      <trkpt lat="49.21099" lon="-0.59324">
        <ele>67</ele>
        <time>2023-05-25T13:26:51Z</time>
      </trkpt>
      <trkpt lat="49.21095" lon="-0.59326">
        <ele>67.4</ele>
        <time>2023-05-25T13:26:52Z</time>
      </trkpt>
      <trkpt lat="49.2109" lon="-0.59328">
        <ele>67.6</ele>
        <time>2023-05-25T13:26:53Z</time>
      </trkpt>
      <trkpt lat="49.21085" lon="-0.59331">
        <ele>68</ele>
        <time>2023-05-25T13:26:54Z</time>
      </trkpt>
      <trkpt lat="49.2108" lon="-0.59333">
        <ele>68</ele>
        <time>2023-05-25T13:26:55Z</time>
      </trkpt>
      <trkpt lat="49.21076" lon="-0.59336">
        <ele>68</ele>
        <time>2023-05-25T13:26:56Z</time>
      </trkpt>
      <trkpt lat="49.21071" lon="-0.59338">
        <ele>68.4</ele>
        <time>2023-05-25T13:26:57Z</time>
      </trkpt>
      <trkpt lat="49.21066" lon="-0.5934">
        <ele>68.4</ele>
        <time>2023-05-25T13:26:58Z</time>
      </trkpt>
      <trkpt lat="49.21061" lon="-0.59342">
        <ele>68.4</ele>
        <time>2023-05-25T13:26:59Z</time>
      </trkpt>
      <trkpt lat="49.21057" lon="-0.59344">
        <ele>68.6</ele>
        <time>2023-05-25T13:27:00Z</time>
      </trkpt>
      <trkpt lat="49.21052" lon="-0.59346">
        <ele>68.6</ele>
        <time>2023-05-25T13:27:01Z</time>
      </trkpt>
      <trkpt lat="49.21047" lon="-0.59348">
        <ele>68.6</ele>
        <time>2023-05-25T13:27:02Z</time>
      </trkpt>
      <trkpt lat="49.21042" lon="-0.59349">
        <ele>68.8</ele>
        <time>2023-05-25T13:27:03Z</time>
      </trkpt>
      <trkpt lat="49.21037" lon="-0.59351">
        <ele>69</ele>
        <time>2023-05-25T13:27:04Z</time>
      </trkpt>
      <trkpt lat="49.21032" lon="-0.59353">
        <ele>69</ele>
        <time>2023-05-25T13:27:05Z</time>
      </trkpt>
      <trkpt lat="49.21027" lon="-0.59355">
        <ele>69</ele>
        <time>2023-05-25T13:27:06Z</time>
      </trkpt>
      <trkpt lat="49.21022" lon="-0.59358">
        <ele>69</ele>
        <time>2023-05-25T13:27:07Z</time>
      </trkpt>
      <trkpt lat="49.21017" lon="-0.5936">
        <ele>69.2</ele>
        <time>2023-05-25T13:27:08Z</time>
      </trkpt>
      <trkpt lat="49.21012" lon="-0.59362">
        <ele>69.2</ele>
        <time>2023-05-25T13:27:09Z</time>
      </trkpt>
      <trkpt lat="49.21007" lon="-0.59364">
        <ele>69.4</ele>
        <time>2023-05-25T13:27:10Z</time>
      </trkpt>
      <trkpt lat="49.21002" lon="-0.59367">
        <ele>69.4</ele>
        <time>2023-05-25T13:27:11Z</time>
      </trkpt>
      <trkpt lat="49.20997" lon="-0.59369">
        <ele>69.4</ele>
        <time>2023-05-25T13:27:12Z</time>
      </trkpt>
      <trkpt lat="49.20992" lon="-0.59372">
        <ele>69.4</ele>
        <time>2023-05-25T13:27:13Z</time>
      </trkpt>
      <trkpt lat="49.20987" lon="-0.59375">
        <ele>69.4</ele>
        <time>2023-05-25T13:27:14Z</time>
      </trkpt>
      <trkpt lat="49.20982" lon="-0.59377">
        <ele>69.4</ele>
        <time>2023-05-25T13:27:15Z</time>
      </trkpt>
      <trkpt lat="49.20977" lon="-0.5938">
        <ele>69.4</ele>
        <time>2023-05-25T13:27:16Z</time>
      </trkpt>
      <trkpt lat="49.20972" lon="-0.59383">
        <ele>69.4</ele>
        <time>2023-05-25T13:27:17Z</time>
      </trkpt>
      <trkpt lat="49.20968" lon="-0.59385">
        <ele>69.4</ele>
        <time>2023-05-25T13:27:18Z</time>
      </trkpt>
      <trkpt lat="49.20963" lon="-0.59388">
        <ele>69.4</ele>
        <time>2023-05-25T13:27:19Z</time>
      </trkpt>
      <trkpt lat="49.20958" lon="-0.59391">
        <ele>69.4</ele>
        <time>2023-05-25T13:27:20Z</time>
      </trkpt>
      <trkpt lat="49.20953" lon="-0.59394">
        <ele>69.4</ele>
        <time>2023-05-25T13:27:21Z</time>
      </trkpt>
      <trkpt lat="49.20948" lon="-0.59396">
        <ele>69.4</ele>
        <time>2023-05-25T13:27:22Z</time>
      </trkpt>
      <trkpt lat="49.20943" lon="-0.59399">
        <ele>69.2</ele>
        <time>2023-05-25T13:27:23Z</time>
      </trkpt>
      <trkpt lat="49.20938" lon="-0.59401">
        <ele>69.2</ele>
        <time>2023-05-25T13:27:24Z</time>
      </trkpt>
      <trkpt lat="49.20933" lon="-0.59404">
        <ele>69.2</ele>
        <time>2023-05-25T13:27:25Z</time>
      </trkpt>
      <trkpt lat="49.20928" lon="-0.59406">
        <ele>69</ele>
        <time>2023-05-25T13:27:26Z</time>
      </trkpt>
      <trkpt lat="49.20923" lon="-0.59408">
        <ele>69</ele>
        <time>2023-05-25T13:27:27Z</time>
      </trkpt>
      <trkpt lat="49.20918" lon="-0.5941">
        <ele>69</ele>
        <time>2023-05-25T13:27:28Z</time>
      </trkpt>
      <trkpt lat="49.20913" lon="-0.59412">
        <ele>69</ele>
        <time>2023-05-25T13:27:29Z</time>
      </trkpt>
      <trkpt lat="49.20908" lon="-0.59414">
        <ele>69</ele>
        <time>2023-05-25T13:27:30Z</time>
      </trkpt>
      <trkpt lat="49.20903" lon="-0.59416">
        <ele>69.2</ele>
        <time>2023-05-25T13:27:31Z</time>
      </trkpt>
      <trkpt lat="49.20898" lon="-0.59418">
        <ele>69.2</ele>
        <time>2023-05-25T13:27:32Z</time>
      </trkpt>
      <trkpt lat="49.20893" lon="-0.59419">
        <ele>69.4</ele>
        <time>2023-05-25T13:27:33Z</time>
      </trkpt>
      <trkpt lat="49.20888" lon="-0.59421">
        <ele>69.4</ele>
        <time>2023-05-25T13:27:34Z</time>
      </trkpt>
      <trkpt lat="49.20883" lon="-0.59422">
        <ele>69.6</ele>
        <time>2023-05-25T13:27:35Z</time>
      </trkpt>
      <trkpt lat="49.20878" lon="-0.59424">
        <ele>69.6</ele>
        <time>2023-05-25T13:27:36Z</time>
      </trkpt>
      <trkpt lat="49.20873" lon="-0.59426">
        <ele>69.6</ele>
        <time>2023-05-25T13:27:37Z</time>
      </trkpt>
      <trkpt lat="49.20869" lon="-0.59428">
        <ele>69.8</ele>
        <time>2023-05-25T13:27:38Z</time>
      </trkpt>
      <trkpt lat="49.20865" lon="-0.59429">
        <ele>70</ele>
        <time>2023-05-25T13:27:39Z</time>
      </trkpt>
      <trkpt lat="49.2086" lon="-0.59431">
        <ele>70</ele>
        <time>2023-05-25T13:27:40Z</time>
      </trkpt>
      <trkpt lat="49.20856" lon="-0.59433">
        <ele>70</ele>
        <time>2023-05-25T13:27:41Z</time>
      </trkpt>
      <trkpt lat="49.20853" lon="-0.59434">
        <ele>70.4</ele>
        <time>2023-05-25T13:27:42Z</time>
      </trkpt>
      <trkpt lat="49.2085" lon="-0.59436">
        <ele>70.4</ele>
        <time>2023-05-25T13:27:43Z</time>
      </trkpt>
      <trkpt lat="49.20847" lon="-0.59437">
        <ele>70.4</ele>
        <time>2023-05-25T13:27:44Z</time>
      </trkpt>
      <trkpt lat="49.20845" lon="-0.59438">
        <ele>70.6</ele>
        <time>2023-05-25T13:27:45Z</time>
      </trkpt>
      <trkpt lat="49.20842" lon="-0.59438">
        <ele>70.6</ele>
        <time>2023-05-25T13:27:46Z</time>
      </trkpt>
      <trkpt lat="49.20841" lon="-0.59437">
        <ele>70.6</ele>
        <time>2023-05-25T13:27:47Z</time>
      </trkpt>
      <trkpt lat="49.20839" lon="-0.59436">
        <ele>70.6</ele>
        <time>2023-05-25T13:27:48Z</time>
      </trkpt>
      <trkpt lat="49.20838" lon="-0.59433">
        <ele>70.6</ele>
        <time>2023-05-25T13:27:49Z</time>
      </trkpt>
      <trkpt lat="49.20837" lon="-0.59428">
        <ele>70.4</ele>
        <time>2023-05-25T13:27:50Z</time>
      </trkpt>
      <trkpt lat="49.20839" lon="-0.59422">
        <ele>70</ele>
        <time>2023-05-25T13:27:51Z</time>
      </trkpt>
      <trkpt lat="49.20841" lon="-0.59416">
        <ele>70</ele>
        <time>2023-05-25T13:27:52Z</time>
      </trkpt>
      <trkpt lat="49.20843" lon="-0.59409">
        <ele>70</ele>
        <time>2023-05-25T13:27:53Z</time>
      </trkpt>
      <trkpt lat="49.20846" lon="-0.59403">
        <ele>69.8</ele>
        <time>2023-05-25T13:27:54Z</time>
      </trkpt>
      <trkpt lat="49.20849" lon="-0.59396">
        <ele>69.8</ele>
        <time>2023-05-25T13:27:55Z</time>
      </trkpt>
      <trkpt lat="49.20852" lon="-0.59388">
        <ele>69.8</ele>
        <time>2023-05-25T13:27:56Z</time>
      </trkpt>
      <trkpt lat="49.20854" lon="-0.5938">
        <ele>69.8</ele>
        <time>2023-05-25T13:27:57Z</time>
      </trkpt>
      <trkpt lat="49.20856" lon="-0.59372">
        <ele>69.6</ele>
        <time>2023-05-25T13:27:58Z</time>
      </trkpt>
      <trkpt lat="49.20859" lon="-0.59364">
        <ele>69.6</ele>
        <time>2023-05-25T13:27:59Z</time>
      </trkpt>
      <trkpt lat="49.20861" lon="-0.59356">
        <ele>69.6</ele>
        <time>2023-05-25T13:28:00Z</time>
      </trkpt>
      <trkpt lat="49.20864" lon="-0.59348">
        <ele>69.6</ele>
        <time>2023-05-25T13:28:01Z</time>
      </trkpt>
      <trkpt lat="49.20866" lon="-0.59339">
        <ele>69.6</ele>
        <time>2023-05-25T13:28:02Z</time>
      </trkpt>
      <trkpt lat="49.20869" lon="-0.5933">
        <ele>69.6</ele>
        <time>2023-05-25T13:28:03Z</time>
      </trkpt>
      <trkpt lat="49.20871" lon="-0.59321">
        <ele>69.2</ele>
        <time>2023-05-25T13:28:04Z</time>
      </trkpt>
      <trkpt lat="49.20873" lon="-0.59312">
        <ele>69</ele>
        <time>2023-05-25T13:28:05Z</time>
      </trkpt>
      <trkpt lat="49.20876" lon="-0.59303">
        <ele>68.6</ele>
        <time>2023-05-25T13:28:06Z</time>
      </trkpt>
      <trkpt lat="49.20879" lon="-0.59293">
        <ele>68.2</ele>
        <time>2023-05-25T13:28:07Z</time>
      </trkpt>
      <trkpt lat="49.20881" lon="-0.59284">
        <ele>68</ele>
        <time>2023-05-25T13:28:08Z</time>
      </trkpt>
      <trkpt lat="49.20885" lon="-0.59275">
        <ele>67.6</ele>
        <time>2023-05-25T13:28:09Z</time>
      </trkpt>
      <trkpt lat="49.20888" lon="-0.59267">
        <ele>67.2</ele>
        <time>2023-05-25T13:28:10Z</time>
      </trkpt>
      <trkpt lat="49.20892" lon="-0.59258">
        <ele>67</ele>
        <time>2023-05-25T13:28:11Z</time>
      </trkpt>
      <trkpt lat="49.20896" lon="-0.5925">
        <ele>66.6</ele>
        <time>2023-05-25T13:28:12Z</time>
      </trkpt>
      <trkpt lat="49.20901" lon="-0.59243">
        <ele>66.4</ele>
        <time>2023-05-25T13:28:13Z</time>
      </trkpt>
      <trkpt lat="49.20906" lon="-0.59235">
        <ele>66</ele>
        <time>2023-05-25T13:28:14Z</time>
      </trkpt>
      <trkpt lat="49.20911" lon="-0.59229">
        <ele>66</ele>
        <time>2023-05-25T13:28:15Z</time>
      </trkpt>
      <trkpt lat="49.20916" lon="-0.59223">
        <ele>65.6</ele>
        <time>2023-05-25T13:28:16Z</time>
      </trkpt>
      <trkpt lat="49.20921" lon="-0.59217">
        <ele>65.6</ele>
        <time>2023-05-25T13:28:17Z</time>
      </trkpt>
      <trkpt lat="49.20926" lon="-0.59212">
        <ele>65.6</ele>
        <time>2023-05-25T13:28:18Z</time>
      </trkpt>
      <trkpt lat="49.20932" lon="-0.59207">
        <ele>65.6</ele>
        <time>2023-05-25T13:28:19Z</time>
      </trkpt>
      <trkpt lat="49.20937" lon="-0.59201">
        <ele>65.6</ele>
        <time>2023-05-25T13:28:20Z</time>
      </trkpt>
      <trkpt lat="49.20942" lon="-0.59195">
        <ele>65.4</ele>
        <time>2023-05-25T13:28:21Z</time>
      </trkpt>
      <trkpt lat="49.20947" lon="-0.59188">
        <ele>65.4</ele>
        <time>2023-05-25T13:28:22Z</time>
      </trkpt>
      <trkpt lat="49.2095" lon="-0.5918">
        <ele>65.2</ele>
        <time>2023-05-25T13:28:23Z</time>
      </trkpt>
      <trkpt lat="49.20953" lon="-0.59171">
        <ele>65</ele>
        <time>2023-05-25T13:28:24Z</time>
      </trkpt>
      <trkpt lat="49.20956" lon="-0.59161">
        <ele>65</ele>
        <time>2023-05-25T13:28:25Z</time>
      </trkpt>
      <trkpt lat="49.20958" lon="-0.59151">
        <ele>64.8</ele>
        <time>2023-05-25T13:28:26Z</time>
      </trkpt>
      <trkpt lat="49.20959" lon="-0.59142">
        <ele>64.6</ele>
        <time>2023-05-25T13:28:27Z</time>
      </trkpt>
      <trkpt lat="49.20961" lon="-0.59132">
        <ele>64.6</ele>
        <time>2023-05-25T13:28:28Z</time>
      </trkpt>
      <trkpt lat="49.20964" lon="-0.59123">
        <ele>64.6</ele>
        <time>2023-05-25T13:28:29Z</time>
      </trkpt>
      <trkpt lat="49.20966" lon="-0.59114">
        <ele>64.4</ele>
        <time>2023-05-25T13:28:30Z</time>
      </trkpt>
      <trkpt lat="49.2097" lon="-0.59105">
        <ele>64.4</ele>
        <time>2023-05-25T13:28:31Z</time>
      </trkpt>
      <trkpt lat="49.20974" lon="-0.59097">
        <ele>64.2</ele>
        <time>2023-05-25T13:28:32Z</time>
      </trkpt>
      <trkpt lat="49.20978" lon="-0.59089">
        <ele>64</ele>
        <time>2023-05-25T13:28:33Z</time>
      </trkpt>
      <trkpt lat="49.20982" lon="-0.59082">
        <ele>64</ele>
        <time>2023-05-25T13:28:34Z</time>
      </trkpt>
      <trkpt lat="49.20986" lon="-0.59075">
        <ele>64</ele>
        <time>2023-05-25T13:28:35Z</time>
      </trkpt>
      <trkpt lat="49.2099" lon="-0.59068">
        <ele>63.8</ele>
        <time>2023-05-25T13:28:36Z</time>
      </trkpt>
      <trkpt lat="49.20994" lon="-0.59061">
        <ele>63.8</ele>
        <time>2023-05-25T13:28:37Z</time>
      </trkpt>
      <trkpt lat="49.20998" lon="-0.59055">
        <ele>63.8</ele>
        <time>2023-05-25T13:28:38Z</time>
      </trkpt>
      <trkpt lat="49.21003" lon="-0.59049">
        <ele>63.6</ele>
        <time>2023-05-25T13:28:39Z</time>
      </trkpt>
      <trkpt lat="49.21006" lon="-0.59043">
        <ele>63.6</ele>
        <time>2023-05-25T13:28:40Z</time>
      </trkpt>
      <trkpt lat="49.2101" lon="-0.59036">
        <ele>63.6</ele>
        <time>2023-05-25T13:28:41Z</time>
      </trkpt>
      <trkpt lat="49.21014" lon="-0.5903">
        <ele>63.6</ele>
        <time>2023-05-25T13:28:42Z</time>
      </trkpt>
      <trkpt lat="49.21018" lon="-0.59023">
        <ele>63.4</ele>
        <time>2023-05-25T13:28:43Z</time>
      </trkpt>
      <trkpt lat="49.21022" lon="-0.59017">
        <ele>63.4</ele>
        <time>2023-05-25T13:28:44Z</time>
      </trkpt>
      <trkpt lat="49.21026" lon="-0.5901">
        <ele>63.4</ele>
        <time>2023-05-25T13:28:45Z</time>
      </trkpt>
      <trkpt lat="49.2103" lon="-0.59003">
        <ele>63.4</ele>
        <time>2023-05-25T13:28:46Z</time>
      </trkpt>
      <trkpt lat="49.21033" lon="-0.58996">
        <ele>63.2</ele>
        <time>2023-05-25T13:28:47Z</time>
      </trkpt>
      <trkpt lat="49.21037" lon="-0.58989">
        <ele>63.2</ele>
        <time>2023-05-25T13:28:48Z</time>
      </trkpt>
      <trkpt lat="49.21041" lon="-0.58981">
        <ele>63.2</ele>
        <time>2023-05-25T13:28:49Z</time>
      </trkpt>
      <trkpt lat="49.21044" lon="-0.58974">
        <ele>63</ele>
        <time>2023-05-25T13:28:50Z</time>
      </trkpt>
      <trkpt lat="49.21048" lon="-0.58967">
        <ele>63</ele>
        <time>2023-05-25T13:28:51Z</time>
      </trkpt>
      <trkpt lat="49.21051" lon="-0.5896">
        <ele>62.8</ele>
        <time>2023-05-25T13:28:52Z</time>
      </trkpt>
      <trkpt lat="49.21054" lon="-0.58953">
        <ele>62.8</ele>
        <time>2023-05-25T13:28:53Z</time>
      </trkpt>
      <trkpt lat="49.21057" lon="-0.58945">
        <ele>62.6</ele>
        <time>2023-05-25T13:28:54Z</time>
      </trkpt>
      <trkpt lat="49.2106" lon="-0.58938">
        <ele>62.4</ele>
        <time>2023-05-25T13:28:55Z</time>
      </trkpt>
      <trkpt lat="49.21064" lon="-0.58931">
        <ele>62.2</ele>
        <time>2023-05-25T13:28:56Z</time>
      </trkpt>
      <trkpt lat="49.21066" lon="-0.58924">
        <ele>62.2</ele>
        <time>2023-05-25T13:28:57Z</time>
      </trkpt>
      <trkpt lat="49.21069" lon="-0.58916">
        <ele>62</ele>
        <time>2023-05-25T13:28:58Z</time>
      </trkpt>
      <trkpt lat="49.21072" lon="-0.58909">
        <ele>62</ele>
        <time>2023-05-25T13:28:59Z</time>
      </trkpt>
      <trkpt lat="49.21075" lon="-0.58902">
        <ele>61.8</ele>
        <time>2023-05-25T13:29:00Z</time>
      </trkpt>
      <trkpt lat="49.21078" lon="-0.58895">
        <ele>61.8</ele>
        <time>2023-05-25T13:29:01Z</time>
      </trkpt>
      <trkpt lat="49.21081" lon="-0.58888">
        <ele>61.8</ele>
        <time>2023-05-25T13:29:02Z</time>
      </trkpt>
      <trkpt lat="49.21084" lon="-0.58881">
        <ele>61.6</ele>
        <time>2023-05-25T13:29:03Z</time>
      </trkpt>
      <trkpt lat="49.21087" lon="-0.58874">
        <ele>61.6</ele>
        <time>2023-05-25T13:29:04Z</time>
      </trkpt>
      <trkpt lat="49.21089" lon="-0.58867">
        <ele>61.4</ele>
        <time>2023-05-25T13:29:05Z</time>
      </trkpt>
      <trkpt lat="49.21092" lon="-0.5886">
        <ele>61.4</ele>
        <time>2023-05-25T13:29:06Z</time>
      </trkpt>
      <trkpt lat="49.21094" lon="-0.58853">
        <ele>61.2</ele>
        <time>2023-05-25T13:29:07Z</time>
      </trkpt>
      <trkpt lat="49.21096" lon="-0.58846">
        <ele>61.2</ele>
        <time>2023-05-25T13:29:08Z</time>
      </trkpt>
      <trkpt lat="49.21099" lon="-0.58838">
        <ele>61.2</ele>
        <time>2023-05-25T13:29:09Z</time>
      </trkpt>
      <trkpt lat="49.211" lon="-0.58831">
        <ele>61.2</ele>
        <time>2023-05-25T13:29:10Z</time>
      </trkpt>
      <trkpt lat="49.21102" lon="-0.58823">
        <ele>61</ele>
        <time>2023-05-25T13:29:11Z</time>
      </trkpt>
      <trkpt lat="49.21103" lon="-0.58815">
        <ele>61</ele>
        <time>2023-05-25T13:29:12Z</time>
      </trkpt>
      <trkpt lat="49.21104" lon="-0.58807">
        <ele>60.8</ele>
        <time>2023-05-25T13:29:13Z</time>
      </trkpt>
      <trkpt lat="49.21105" lon="-0.58798">
        <ele>60.8</ele>
        <time>2023-05-25T13:29:14Z</time>
      </trkpt>
      <trkpt lat="49.21105" lon="-0.58789">
        <ele>60.6</ele>
        <time>2023-05-25T13:29:15Z</time>
      </trkpt>
      <trkpt lat="49.21104" lon="-0.5878">
        <ele>60.6</ele>
        <time>2023-05-25T13:29:16Z</time>
      </trkpt>
      <trkpt lat="49.21104" lon="-0.58771">
        <ele>60.2</ele>
        <time>2023-05-25T13:29:17Z</time>
      </trkpt>
      <trkpt lat="49.21103" lon="-0.58762">
        <ele>60.2</ele>
        <time>2023-05-25T13:29:18Z</time>
      </trkpt>
      <trkpt lat="49.21102" lon="-0.58754">
        <ele>60</ele>
        <time>2023-05-25T13:29:19Z</time>
      </trkpt>
      <trkpt lat="49.21103" lon="-0.58745">
        <ele>60</ele>
        <time>2023-05-25T13:29:20Z</time>
      </trkpt>
      <trkpt lat="49.21105" lon="-0.58737">
        <ele>60</ele>
        <time>2023-05-25T13:29:21Z</time>
      </trkpt>
      <trkpt lat="49.21108" lon="-0.5873">
        <ele>60</ele>
        <time>2023-05-25T13:29:22Z</time>
      </trkpt>
      <trkpt lat="49.21111" lon="-0.58723">
        <ele>60</ele>
        <time>2023-05-25T13:29:23Z</time>
      </trkpt>
      <trkpt lat="49.21116" lon="-0.58717">
        <ele>59.8</ele>
        <time>2023-05-25T13:29:24Z</time>
      </trkpt>
      <trkpt lat="49.2112" lon="-0.58711">
        <ele>59.8</ele>
        <time>2023-05-25T13:29:25Z</time>
      </trkpt>
      <trkpt lat="49.21125" lon="-0.58705">
        <ele>59.8</ele>
        <time>2023-05-25T13:29:26Z</time>
      </trkpt>
      <trkpt lat="49.21129" lon="-0.587">
        <ele>59.8</ele>
        <time>2023-05-25T13:29:27Z</time>
      </trkpt>
      <trkpt lat="49.21134" lon="-0.58694">
        <ele>59.6</ele>
        <time>2023-05-25T13:29:28Z</time>
      </trkpt>
      <trkpt lat="49.21138" lon="-0.58689">
        <ele>59.6</ele>
        <time>2023-05-25T13:29:29Z</time>
      </trkpt>
      <trkpt lat="49.21143" lon="-0.58683">
        <ele>59.4</ele>
        <time>2023-05-25T13:29:30Z</time>
      </trkpt>
      <trkpt lat="49.21147" lon="-0.58677">
        <ele>59.2</ele>
        <time>2023-05-25T13:29:31Z</time>
      </trkpt>
      <trkpt lat="49.21152" lon="-0.58672">
        <ele>59.2</ele>
        <time>2023-05-25T13:29:32Z</time>
      </trkpt>
      <trkpt lat="49.21156" lon="-0.58666">
        <ele>59</ele>
        <time>2023-05-25T13:29:33Z</time>
      </trkpt>
      <trkpt lat="49.2116" lon="-0.58661">
        <ele>59</ele>
        <time>2023-05-25T13:29:34Z</time>
      </trkpt>
      <trkpt lat="49.21165" lon="-0.58656">
        <ele>59</ele>
        <time>2023-05-25T13:29:35Z</time>
      </trkpt>
      <trkpt lat="49.21169" lon="-0.58651">
        <ele>59</ele>
        <time>2023-05-25T13:29:36Z</time>
      </trkpt>
      <trkpt lat="49.21173" lon="-0.58646">
        <ele>59</ele>
        <time>2023-05-25T13:29:37Z</time>
      </trkpt>
      <trkpt lat="49.21177" lon="-0.58641">
        <ele>59</ele>
        <time>2023-05-25T13:29:38Z</time>
      </trkpt>
      <trkpt lat="49.21181" lon="-0.58636">
        <ele>59</ele>
        <time>2023-05-25T13:29:39Z</time>
      </trkpt>
      <trkpt lat="49.21185" lon="-0.58631">
        <ele>59</ele>
        <time>2023-05-25T13:29:40Z</time>
      </trkpt>
      <trkpt lat="49.21189" lon="-0.58627">
        <ele>59</ele>
        <time>2023-05-25T13:29:41Z</time>
      </trkpt>
      <trkpt lat="49.21193" lon="-0.58622">
        <ele>59</ele>
        <time>2023-05-25T13:29:42Z</time>
      </trkpt>
      <trkpt lat="49.21197" lon="-0.58617">
        <ele>59</ele>
        <time>2023-05-25T13:29:43Z</time>
      </trkpt>
      <trkpt lat="49.21201" lon="-0.58612">
        <ele>59</ele>
        <time>2023-05-25T13:29:44Z</time>
      </trkpt>
      <trkpt lat="49.21205" lon="-0.58607">
        <ele>59</ele>
        <time>2023-05-25T13:29:45Z</time>
      </trkpt>
      <trkpt lat="49.21209" lon="-0.58602">
        <ele>59</ele>
        <time>2023-05-25T13:29:46Z</time>
      </trkpt>
      <trkpt lat="49.21213" lon="-0.58597">
        <ele>59</ele>
        <time>2023-05-25T13:29:47Z</time>
      </trkpt>
      <trkpt lat="49.21216" lon="-0.58591">
        <ele>59</ele>
        <time>2023-05-25T13:29:48Z</time>
      </trkpt>
      <trkpt lat="49.2122" lon="-0.58585">
        <ele>59</ele>
        <time>2023-05-25T13:29:49Z</time>
      </trkpt>
      <trkpt lat="49.21222" lon="-0.58578">
        <ele>59</ele>
        <time>2023-05-25T13:29:50Z</time>
      </trkpt>
      <trkpt lat="49.21223" lon="-0.58571">
        <ele>59</ele>
        <time>2023-05-25T13:29:51Z</time>
      </trkpt>
      <trkpt lat="49.21223" lon="-0.58563">
        <ele>58.8</ele>
        <time>2023-05-25T13:29:52Z</time>
      </trkpt>
      <trkpt lat="49.21221" lon="-0.58556">
        <ele>58.8</ele>
        <time>2023-05-25T13:29:53Z</time>
      </trkpt>
      <trkpt lat="49.21219" lon="-0.58549">
        <ele>58.8</ele>
        <time>2023-05-25T13:29:54Z</time>
      </trkpt>
      <trkpt lat="49.21215" lon="-0.58543">
        <ele>58.8</ele>
        <time>2023-05-25T13:29:55Z</time>
      </trkpt>
      <trkpt lat="49.21212" lon="-0.58537">
        <ele>58.8</ele>
        <time>2023-05-25T13:29:56Z</time>
      </trkpt>
      <trkpt lat="49.21208" lon="-0.58531">
        <ele>58.8</ele>
        <time>2023-05-25T13:29:57Z</time>
      </trkpt>
      <trkpt lat="49.21204" lon="-0.58525">
        <ele>58.8</ele>
        <time>2023-05-25T13:29:58Z</time>
      </trkpt>
      <trkpt lat="49.212" lon="-0.58519">
        <ele>58.8</ele>
        <time>2023-05-25T13:29:59Z</time>
      </trkpt>
      <trkpt lat="49.21196" lon="-0.58513">
        <ele>58.8</ele>
        <time>2023-05-25T13:30:00Z</time>
      </trkpt>
      <trkpt lat="49.21192" lon="-0.58507">
        <ele>58.8</ele>
        <time>2023-05-25T13:30:01Z</time>
      </trkpt>
      <trkpt lat="49.21188" lon="-0.58501">
        <ele>58.8</ele>
        <time>2023-05-25T13:30:02Z</time>
      </trkpt>
      <trkpt lat="49.21184" lon="-0.58495">
        <ele>58.8</ele>
        <time>2023-05-25T13:30:03Z</time>
      </trkpt>
      <trkpt lat="49.21179" lon="-0.58489">
        <ele>59</ele>
        <time>2023-05-25T13:30:04Z</time>
      </trkpt>
      <trkpt lat="49.21175" lon="-0.58483">
        <ele>59</ele>
        <time>2023-05-25T13:30:05Z</time>
      </trkpt>
      <trkpt lat="49.21171" lon="-0.58477">
        <ele>59.2</ele>
        <time>2023-05-25T13:30:06Z</time>
      </trkpt>
      <trkpt lat="49.21167" lon="-0.58471">
        <ele>59.2</ele>
        <time>2023-05-25T13:30:07Z</time>
      </trkpt>
      <trkpt lat="49.21163" lon="-0.58465">
        <ele>59.6</ele>
        <time>2023-05-25T13:30:08Z</time>
      </trkpt>
      <trkpt lat="49.21159" lon="-0.58459">
        <ele>59.8</ele>
        <time>2023-05-25T13:30:09Z</time>
      </trkpt>
      <trkpt lat="49.21154" lon="-0.58453">
        <ele>59.8</ele>
        <time>2023-05-25T13:30:10Z</time>
      </trkpt>
      <trkpt lat="49.2115" lon="-0.58447">
        <ele>60</ele>
        <time>2023-05-25T13:30:11Z</time>
      </trkpt>
      <trkpt lat="49.21146" lon="-0.58441">
        <ele>60</ele>
        <time>2023-05-25T13:30:12Z</time>
      </trkpt>
      <trkpt lat="49.21142" lon="-0.58435">
        <ele>60.2</ele>
        <time>2023-05-25T13:30:13Z</time>
      </trkpt>
      <trkpt lat="49.21138" lon="-0.58428">
        <ele>60.2</ele>
        <time>2023-05-25T13:30:14Z</time>
      </trkpt>
      <trkpt lat="49.21135" lon="-0.58421">
        <ele>60.4</ele>
        <time>2023-05-25T13:30:15Z</time>
      </trkpt>
      <trkpt lat="49.21133" lon="-0.58413">
        <ele>60.6</ele>
        <time>2023-05-25T13:30:16Z</time>
      </trkpt>
      <trkpt lat="49.21132" lon="-0.58405">
        <ele>60.6</ele>
        <time>2023-05-25T13:30:17Z</time>
      </trkpt>
      <trkpt lat="49.21132" lon="-0.58396">
        <ele>60.8</ele>
        <time>2023-05-25T13:30:18Z</time>
      </trkpt>
      <trkpt lat="49.21134" lon="-0.58388">
        <ele>60.8</ele>
        <time>2023-05-25T13:30:19Z</time>
      </trkpt>
      <trkpt lat="49.21135" lon="-0.58381">
        <ele>60.8</ele>
        <time>2023-05-25T13:30:20Z</time>
      </trkpt>
      <trkpt lat="49.21137" lon="-0.58374">
        <ele>61</ele>
        <time>2023-05-25T13:30:21Z</time>
      </trkpt>
      <trkpt lat="49.21139" lon="-0.58366">
        <ele>61</ele>
        <time>2023-05-25T13:30:22Z</time>
      </trkpt>
      <trkpt lat="49.2114" lon="-0.58359">
        <ele>61</ele>
        <time>2023-05-25T13:30:23Z</time>
      </trkpt>
      <trkpt lat="49.21142" lon="-0.58352">
        <ele>61</ele>
        <time>2023-05-25T13:30:24Z</time>
      </trkpt>
      <trkpt lat="49.21143" lon="-0.58345">
        <ele>61</ele>
        <time>2023-05-25T13:30:25Z</time>
      </trkpt>
      <trkpt lat="49.21145" lon="-0.58338">
        <ele>61.2</ele>
        <time>2023-05-25T13:30:26Z</time>
      </trkpt>
      <trkpt lat="49.21147" lon="-0.58331">
        <ele>61.2</ele>
        <time>2023-05-25T13:30:27Z</time>
      </trkpt>
      <trkpt lat="49.21148" lon="-0.58324">
        <ele>61</ele>
        <time>2023-05-25T13:30:28Z</time>
      </trkpt>
      <trkpt lat="49.2115" lon="-0.58317">
        <ele>61</ele>
        <time>2023-05-25T13:30:29Z</time>
      </trkpt>
      <trkpt lat="49.21152" lon="-0.5831">
        <ele>60.8</ele>
        <time>2023-05-25T13:30:30Z</time>
      </trkpt>
      <trkpt lat="49.21153" lon="-0.58303">
        <ele>60.6</ele>
        <time>2023-05-25T13:30:31Z</time>
      </trkpt>
      <trkpt lat="49.21155" lon="-0.58296">
        <ele>60.4</ele>
        <time>2023-05-25T13:30:32Z</time>
      </trkpt>
      <trkpt lat="49.21157" lon="-0.58289">
        <ele>60.2</ele>
        <time>2023-05-25T13:30:33Z</time>
      </trkpt>
      <trkpt lat="49.21158" lon="-0.58282">
        <ele>60</ele>
        <time>2023-05-25T13:30:34Z</time>
      </trkpt>
      <trkpt lat="49.2116" lon="-0.58274">
        <ele>59.8</ele>
        <time>2023-05-25T13:30:35Z</time>
      </trkpt>
      <trkpt lat="49.21162" lon="-0.58267">
        <ele>59.6</ele>
        <time>2023-05-25T13:30:36Z</time>
      </trkpt>
      <trkpt lat="49.21163" lon="-0.58259">
        <ele>59.4</ele>
        <time>2023-05-25T13:30:37Z</time>
      </trkpt>
      <trkpt lat="49.21165" lon="-0.58252">
        <ele>59</ele>
        <time>2023-05-25T13:30:38Z</time>
      </trkpt>
      <trkpt lat="49.21166" lon="-0.58244">
        <ele>59.2</ele>
        <time>2023-05-25T13:30:39Z</time>
      </trkpt>
      <trkpt lat="49.21168" lon="-0.58236">
        <ele>59.2</ele>
        <time>2023-05-25T13:30:40Z</time>
      </trkpt>
      <trkpt lat="49.21169" lon="-0.58227">
        <ele>59.6</ele>
        <time>2023-05-25T13:30:41Z</time>
      </trkpt>
      <trkpt lat="49.21171" lon="-0.58219">
        <ele>59.8</ele>
        <time>2023-05-25T13:30:42Z</time>
      </trkpt>
      <trkpt lat="49.21172" lon="-0.5821">
        <ele>60</ele>
        <time>2023-05-25T13:30:43Z</time>
      </trkpt>
      <trkpt lat="49.21173" lon="-0.58202">
        <ele>60</ele>
        <time>2023-05-25T13:30:44Z</time>
      </trkpt>
      <trkpt lat="49.21174" lon="-0.58193">
        <ele>60.2</ele>
        <time>2023-05-25T13:30:45Z</time>
      </trkpt>
      <trkpt lat="49.21176" lon="-0.58184">
        <ele>60.4</ele>
        <time>2023-05-25T13:30:46Z</time>
      </trkpt>
      <trkpt lat="49.21177" lon="-0.58175">
        <ele>60.6</ele>
        <time>2023-05-25T13:30:47Z</time>
      </trkpt>
      <trkpt lat="49.21178" lon="-0.58167">
        <ele>60.8</ele>
        <time>2023-05-25T13:30:48Z</time>
      </trkpt>
      <trkpt lat="49.21179" lon="-0.58159">
        <ele>60.8</ele>
        <time>2023-05-25T13:30:49Z</time>
      </trkpt>
      <trkpt lat="49.2118" lon="-0.58151">
        <ele>60.8</ele>
        <time>2023-05-25T13:30:50Z</time>
      </trkpt>
      <trkpt lat="49.21181" lon="-0.58143">
        <ele>61</ele>
        <time>2023-05-25T13:30:51Z</time>
      </trkpt>
      <trkpt lat="49.21182" lon="-0.58136">
        <ele>61</ele>
        <time>2023-05-25T13:30:52Z</time>
      </trkpt>
      <trkpt lat="49.21183" lon="-0.58128">
        <ele>61</ele>
        <time>2023-05-25T13:30:53Z</time>
      </trkpt>
      <trkpt lat="49.21184" lon="-0.58121">
        <ele>61</ele>
        <time>2023-05-25T13:30:54Z</time>
      </trkpt>
      <trkpt lat="49.21184" lon="-0.58114">
        <ele>61</ele>
        <time>2023-05-25T13:30:55Z</time>
      </trkpt>
      <trkpt lat="49.21185" lon="-0.58106">
        <ele>61</ele>
        <time>2023-05-25T13:30:56Z</time>
      </trkpt>
      <trkpt lat="49.21186" lon="-0.58099">
        <ele>61.2</ele>
        <time>2023-05-25T13:30:57Z</time>
      </trkpt>
      <trkpt lat="49.21187" lon="-0.58092">
        <ele>61.2</ele>
        <time>2023-05-25T13:30:58Z</time>
      </trkpt>
      <trkpt lat="49.21187" lon="-0.58084">
        <ele>61.2</ele>
        <time>2023-05-25T13:30:59Z</time>
      </trkpt>
      <trkpt lat="49.21188" lon="-0.58076">
        <ele>61.2</ele>
        <time>2023-05-25T13:31:00Z</time>
      </trkpt>
      <trkpt lat="49.21189" lon="-0.58068">
        <ele>61.2</ele>
        <time>2023-05-25T13:31:01Z</time>
      </trkpt>
      <trkpt lat="49.2119" lon="-0.58059">
        <ele>61.2</ele>
        <time>2023-05-25T13:31:02Z</time>
      </trkpt>
      <trkpt lat="49.21191" lon="-0.58051">
        <ele>61</ele>
        <time>2023-05-25T13:31:03Z</time>
      </trkpt>
      <trkpt lat="49.21191" lon="-0.58042">
        <ele>61</ele>
        <time>2023-05-25T13:31:04Z</time>
      </trkpt>
      <trkpt lat="49.21192" lon="-0.58033">
        <ele>61</ele>
        <time>2023-05-25T13:31:05Z</time>
      </trkpt>
      <trkpt lat="49.21193" lon="-0.58024">
        <ele>61</ele>
        <time>2023-05-25T13:31:06Z</time>
      </trkpt>
      <trkpt lat="49.21194" lon="-0.58015">
        <ele>61</ele>
        <time>2023-05-25T13:31:07Z</time>
      </trkpt>
      <trkpt lat="49.21195" lon="-0.58006">
        <ele>61</ele>
        <time>2023-05-25T13:31:08Z</time>
      </trkpt>
      <trkpt lat="49.21195" lon="-0.57997">
        <ele>61</ele>
        <time>2023-05-25T13:31:09Z</time>
      </trkpt>
      <trkpt lat="49.21196" lon="-0.57989">
        <ele>61</ele>
        <time>2023-05-25T13:31:10Z</time>
      </trkpt>
      <trkpt lat="49.21197" lon="-0.5798">
        <ele>61</ele>
        <time>2023-05-25T13:31:11Z</time>
      </trkpt>
      <trkpt lat="49.21197" lon="-0.57971">
        <ele>61</ele>
        <time>2023-05-25T13:31:12Z</time>
      </trkpt>
      <trkpt lat="49.21198" lon="-0.57963">
        <ele>61</ele>
        <time>2023-05-25T13:31:13Z</time>
      </trkpt>
      <trkpt lat="49.21199" lon="-0.57954">
        <ele>60.8</ele>
        <time>2023-05-25T13:31:14Z</time>
      </trkpt>
      <trkpt lat="49.212" lon="-0.57946">
        <ele>60.8</ele>
        <time>2023-05-25T13:31:15Z</time>
      </trkpt>
      <trkpt lat="49.212" lon="-0.57937">
        <ele>60.8</ele>
        <time>2023-05-25T13:31:16Z</time>
      </trkpt>
      <trkpt lat="49.21201" lon="-0.57929">
        <ele>60.8</ele>
        <time>2023-05-25T13:31:17Z</time>
      </trkpt>
      <trkpt lat="49.21202" lon="-0.5792">
        <ele>60.8</ele>
        <time>2023-05-25T13:31:18Z</time>
      </trkpt>
      <trkpt lat="49.21202" lon="-0.57911">
        <ele>60.8</ele>
        <time>2023-05-25T13:31:19Z</time>
      </trkpt>
      <trkpt lat="49.21203" lon="-0.57903">
        <ele>60.6</ele>
        <time>2023-05-25T13:31:20Z</time>
      </trkpt>
      <trkpt lat="49.21204" lon="-0.57894">
        <ele>60.4</ele>
        <time>2023-05-25T13:31:21Z</time>
      </trkpt>
      <trkpt lat="49.21204" lon="-0.57885">
        <ele>60.2</ele>
        <time>2023-05-25T13:31:22Z</time>
      </trkpt>
      <trkpt lat="49.21205" lon="-0.57877">
        <ele>60</ele>
        <time>2023-05-25T13:31:23Z</time>
      </trkpt>
      <trkpt lat="49.21206" lon="-0.57868">
        <ele>60</ele>
        <time>2023-05-25T13:31:24Z</time>
      </trkpt>
      <trkpt lat="49.21207" lon="-0.57859">
        <ele>60</ele>
        <time>2023-05-25T13:31:25Z</time>
      </trkpt>
      <trkpt lat="49.21207" lon="-0.5785">
        <ele>59.8</ele>
        <time>2023-05-25T13:31:26Z</time>
      </trkpt>
      <trkpt lat="49.21208" lon="-0.57841">
        <ele>59.6</ele>
        <time>2023-05-25T13:31:27Z</time>
      </trkpt>
      <trkpt lat="49.21209" lon="-0.57832">
        <ele>59.6</ele>
        <time>2023-05-25T13:31:28Z</time>
      </trkpt>
      <trkpt lat="49.21209" lon="-0.57823">
        <ele>59.2</ele>
        <time>2023-05-25T13:31:29Z</time>
      </trkpt>
      <trkpt lat="49.2121" lon="-0.57815">
        <ele>59.2</ele>
        <time>2023-05-25T13:31:30Z</time>
      </trkpt>
      <trkpt lat="49.21211" lon="-0.57806">
        <ele>59</ele>
        <time>2023-05-25T13:31:31Z</time>
      </trkpt>
      <trkpt lat="49.21211" lon="-0.57797">
        <ele>59</ele>
        <time>2023-05-25T13:31:32Z</time>
      </trkpt>
      <trkpt lat="49.21212" lon="-0.57788">
        <ele>59</ele>
        <time>2023-05-25T13:31:33Z</time>
      </trkpt>
      <trkpt lat="49.21213" lon="-0.57779">
        <ele>58.8</ele>
        <time>2023-05-25T13:31:34Z</time>
      </trkpt>
      <trkpt lat="49.21214" lon="-0.5777">
        <ele>58.8</ele>
        <time>2023-05-25T13:31:35Z</time>
      </trkpt>
      <trkpt lat="49.21214" lon="-0.57762">
        <ele>58.6</ele>
        <time>2023-05-25T13:31:36Z</time>
      </trkpt>
      <trkpt lat="49.21215" lon="-0.57753">
        <ele>58.6</ele>
        <time>2023-05-25T13:31:37Z</time>
      </trkpt>
      <trkpt lat="49.21216" lon="-0.57744">
        <ele>58.6</ele>
        <time>2023-05-25T13:31:38Z</time>
      </trkpt>
      <trkpt lat="49.21216" lon="-0.57735">
        <ele>58.6</ele>
        <time>2023-05-25T13:31:39Z</time>
      </trkpt>
      <trkpt lat="49.21217" lon="-0.57726">
        <ele>58.6</ele>
        <time>2023-05-25T13:31:40Z</time>
      </trkpt>
      <trkpt lat="49.21218" lon="-0.57717">
        <ele>58.8</ele>
        <time>2023-05-25T13:31:41Z</time>
      </trkpt>
      <trkpt lat="49.21218" lon="-0.57708">
        <ele>58.8</ele>
        <time>2023-05-25T13:31:42Z</time>
      </trkpt>
      <trkpt lat="49.21219" lon="-0.57699">
        <ele>58.8</ele>
        <time>2023-05-25T13:31:43Z</time>
      </trkpt>
      <trkpt lat="49.2122" lon="-0.57691">
        <ele>59</ele>
        <time>2023-05-25T13:31:44Z</time>
      </trkpt>
      <trkpt lat="49.21221" lon="-0.57682">
        <ele>59</ele>
        <time>2023-05-25T13:31:45Z</time>
      </trkpt>
      <trkpt lat="49.21221" lon="-0.57673">
        <ele>59</ele>
        <time>2023-05-25T13:31:46Z</time>
      </trkpt>
      <trkpt lat="49.21222" lon="-0.57665">
        <ele>59</ele>
        <time>2023-05-25T13:31:47Z</time>
      </trkpt>
      <trkpt lat="49.21223" lon="-0.57656">
        <ele>59</ele>
        <time>2023-05-25T13:31:48Z</time>
      </trkpt>
      <trkpt lat="49.21224" lon="-0.57647">
        <ele>59</ele>
        <time>2023-05-25T13:31:49Z</time>
      </trkpt>
      <trkpt lat="49.21224" lon="-0.57639">
        <ele>59.2</ele>
        <time>2023-05-25T13:31:50Z</time>
      </trkpt>
      <trkpt lat="49.21225" lon="-0.5763">
        <ele>59.2</ele>
        <time>2023-05-25T13:31:51Z</time>
      </trkpt>
      <trkpt lat="49.21226" lon="-0.57622">
        <ele>59.2</ele>
        <time>2023-05-25T13:31:52Z</time>
      </trkpt>
      <trkpt lat="49.21227" lon="-0.57613">
        <ele>59.2</ele>
        <time>2023-05-25T13:31:53Z</time>
      </trkpt>
      <trkpt lat="49.21227" lon="-0.57604">
        <ele>59.4</ele>
        <time>2023-05-25T13:31:54Z</time>
      </trkpt>
      <trkpt lat="49.21228" lon="-0.57595">
        <ele>59.4</ele>
        <time>2023-05-25T13:31:55Z</time>
      </trkpt>
      <trkpt lat="49.21229" lon="-0.57586">
        <ele>59.6</ele>
        <time>2023-05-25T13:31:56Z</time>
      </trkpt>
      <trkpt lat="49.2123" lon="-0.57577">
        <ele>59.6</ele>
        <time>2023-05-25T13:31:57Z</time>
      </trkpt>
      <trkpt lat="49.2123" lon="-0.57569">
        <ele>59.8</ele>
        <time>2023-05-25T13:31:58Z</time>
      </trkpt>
      <trkpt lat="49.21231" lon="-0.5756">
        <ele>60</ele>
        <time>2023-05-25T13:31:59Z</time>
      </trkpt>
      <trkpt lat="49.21232" lon="-0.57551">
        <ele>60</ele>
        <time>2023-05-25T13:32:00Z</time>
      </trkpt>
      <trkpt lat="49.21233" lon="-0.57543">
        <ele>60.2</ele>
        <time>2023-05-25T13:32:01Z</time>
      </trkpt>
      <trkpt lat="49.21233" lon="-0.57534">
        <ele>60.6</ele>
        <time>2023-05-25T13:32:02Z</time>
      </trkpt>
      <trkpt lat="49.21234" lon="-0.57525">
        <ele>60.6</ele>
        <time>2023-05-25T13:32:03Z</time>
      </trkpt>
      <trkpt lat="49.21234" lon="-0.57517">
        <ele>60.8</ele>
        <time>2023-05-25T13:32:04Z</time>
      </trkpt>
      <trkpt lat="49.21235" lon="-0.57508">
        <ele>61</ele>
        <time>2023-05-25T13:32:05Z</time>
      </trkpt>
      <trkpt lat="49.21236" lon="-0.575">
        <ele>61.2</ele>
        <time>2023-05-25T13:32:06Z</time>
      </trkpt>
      <trkpt lat="49.21236" lon="-0.57492">
        <ele>61</ele>
        <time>2023-05-25T13:32:07Z</time>
      </trkpt>
      <trkpt lat="49.21237" lon="-0.57484">
        <ele>61</ele>
        <time>2023-05-25T13:32:08Z</time>
      </trkpt>
      <trkpt lat="49.21237" lon="-0.57476">
        <ele>61</ele>
        <time>2023-05-25T13:32:09Z</time>
      </trkpt>
      <trkpt lat="49.21238" lon="-0.57468">
        <ele>60.8</ele>
        <time>2023-05-25T13:32:10Z</time>
      </trkpt>
      <trkpt lat="49.21238" lon="-0.57459">
        <ele>60.8</ele>
        <time>2023-05-25T13:32:11Z</time>
      </trkpt>
      <trkpt lat="49.21239" lon="-0.57451">
        <ele>60.6</ele>
        <time>2023-05-25T13:32:12Z</time>
      </trkpt>
      <trkpt lat="49.21239" lon="-0.57443">
        <ele>60.6</ele>
        <time>2023-05-25T13:32:13Z</time>
      </trkpt>
      <trkpt lat="49.21239" lon="-0.57434">
        <ele>60.4</ele>
        <time>2023-05-25T13:32:14Z</time>
      </trkpt>
      <trkpt lat="49.21239" lon="-0.57425">
        <ele>60.4</ele>
        <time>2023-05-25T13:32:15Z</time>
      </trkpt>
      <trkpt lat="49.21239" lon="-0.57416">
        <ele>60.2</ele>
        <time>2023-05-25T13:32:16Z</time>
      </trkpt>
      <trkpt lat="49.21239" lon="-0.57408">
        <ele>60.2</ele>
        <time>2023-05-25T13:32:17Z</time>
      </trkpt>
      <trkpt lat="49.21239" lon="-0.57399">
        <ele>60</ele>
        <time>2023-05-25T13:32:18Z</time>
      </trkpt>
      <trkpt lat="49.21238" lon="-0.5739">
        <ele>60</ele>
        <time>2023-05-25T13:32:19Z</time>
      </trkpt>
      <trkpt lat="49.21238" lon="-0.57381">
        <ele>60</ele>
        <time>2023-05-25T13:32:20Z</time>
      </trkpt>
      <trkpt lat="49.21237" lon="-0.57372">
        <ele>59.8</ele>
        <time>2023-05-25T13:32:21Z</time>
      </trkpt>
      <trkpt lat="49.21237" lon="-0.57363">
        <ele>59.8</ele>
        <time>2023-05-25T13:32:22Z</time>
      </trkpt>
      <trkpt lat="49.21236" lon="-0.57355">
        <ele>59.6</ele>
        <time>2023-05-25T13:32:23Z</time>
      </trkpt>
      <trkpt lat="49.21236" lon="-0.57346">
        <ele>59.6</ele>
        <time>2023-05-25T13:32:24Z</time>
      </trkpt>
      <trkpt lat="49.21235" lon="-0.57337">
        <ele>59.4</ele>
        <time>2023-05-25T13:32:25Z</time>
      </trkpt>
      <trkpt lat="49.21234" lon="-0.57328">
        <ele>59.6</ele>
        <time>2023-05-25T13:32:26Z</time>
      </trkpt>
      <trkpt lat="49.21233" lon="-0.57319">
        <ele>59.6</ele>
        <time>2023-05-25T13:32:27Z</time>
      </trkpt>
      <trkpt lat="49.21232" lon="-0.5731">
        <ele>59.8</ele>
        <time>2023-05-25T13:32:28Z</time>
      </trkpt>
      <trkpt lat="49.21231" lon="-0.57302">
        <ele>60</ele>
        <time>2023-05-25T13:32:29Z</time>
      </trkpt>
      <trkpt lat="49.21231" lon="-0.57293">
        <ele>60</ele>
        <time>2023-05-25T13:32:30Z</time>
      </trkpt>
      <trkpt lat="49.2123" lon="-0.57284">
        <ele>60.2</ele>
        <time>2023-05-25T13:32:31Z</time>
      </trkpt>
      <trkpt lat="49.21229" lon="-0.57275">
        <ele>60.4</ele>
        <time>2023-05-25T13:32:32Z</time>
      </trkpt>
      <trkpt lat="49.21228" lon="-0.57266">
        <ele>60.6</ele>
        <time>2023-05-25T13:32:33Z</time>
      </trkpt>
      <trkpt lat="49.21227" lon="-0.57258">
        <ele>60.8</ele>
        <time>2023-05-25T13:32:34Z</time>
      </trkpt>
      <trkpt lat="49.21226" lon="-0.57249">
        <ele>61</ele>
        <time>2023-05-25T13:32:35Z</time>
      </trkpt>
      <trkpt lat="49.21226" lon="-0.5724">
        <ele>61</ele>
        <time>2023-05-25T13:32:36Z</time>
      </trkpt>
      <trkpt lat="49.21225" lon="-0.57231">
        <ele>61.2</ele>
        <time>2023-05-25T13:32:37Z</time>
      </trkpt>
      <trkpt lat="49.21224" lon="-0.57222">
        <ele>61.4</ele>
        <time>2023-05-25T13:32:38Z</time>
      </trkpt>
      <trkpt lat="49.21223" lon="-0.57213">
        <ele>61.6</ele>
        <time>2023-05-25T13:32:39Z</time>
      </trkpt>
      <trkpt lat="49.21223" lon="-0.57204">
        <ele>61.8</ele>
        <time>2023-05-25T13:32:40Z</time>
      </trkpt>
      <trkpt lat="49.21222" lon="-0.57197">
        <ele>61.8</ele>
        <time>2023-05-25T13:32:41Z</time>
      </trkpt>
      <trkpt lat="49.21222" lon="-0.57191">
        <ele>62</ele>
        <time>2023-05-25T13:32:42Z</time>
      </trkpt>
      <trkpt lat="49.21222" lon="-0.57187">
        <ele>62</ele>
        <time>2023-05-25T13:32:43Z</time>
      </trkpt>
      <trkpt lat="49.21222" lon="-0.57185">
        <ele>62</ele>
        <time>2023-05-25T13:32:44Z</time>
      </trkpt>
      <trkpt lat="49.21222" lon="-0.57183">
        <ele>62</ele>
        <time>2023-05-25T13:32:45Z</time>
      </trkpt>
      <trkpt lat="49.21222" lon="-0.57182">
        <ele>62</ele>
        <time>2023-05-25T13:32:46Z</time>
      </trkpt>
      <trkpt lat="49.21223" lon="-0.57179">
        <ele>62</ele>
        <time>2023-05-25T13:32:47Z</time>
      </trkpt>
      <trkpt lat="49.21223" lon="-0.57177">
        <ele>62</ele>
        <time>2023-05-25T13:32:48Z</time>
      </trkpt>
      <trkpt lat="49.21223" lon="-0.57174">
        <ele>62</ele>
        <time>2023-05-25T13:32:49Z</time>
      </trkpt>
      <trkpt lat="49.21224" lon="-0.57171">
        <ele>62</ele>
        <time>2023-05-25T13:32:50Z</time>
      </trkpt>
      <trkpt lat="49.21224" lon="-0.57167">
        <ele>62</ele>
        <time>2023-05-25T13:32:51Z</time>
      </trkpt>
      <trkpt lat="49.21225" lon="-0.57162">
        <ele>62.2</ele>
        <time>2023-05-25T13:32:52Z</time>
      </trkpt>
      <trkpt lat="49.21225" lon="-0.57155">
        <ele>62.2</ele>
        <time>2023-05-25T13:32:53Z</time>
      </trkpt>
      <trkpt lat="49.21226" lon="-0.57148">
        <ele>62.2</ele>
        <time>2023-05-25T13:32:54Z</time>
      </trkpt>
      <trkpt lat="49.21226" lon="-0.5714">
        <ele>62.4</ele>
        <time>2023-05-25T13:32:55Z</time>
      </trkpt>
      <trkpt lat="49.21226" lon="-0.57132">
        <ele>62.4</ele>
        <time>2023-05-25T13:32:56Z</time>
      </trkpt>
      <trkpt lat="49.21227" lon="-0.57123">
        <ele>62.6</ele>
        <time>2023-05-25T13:32:57Z</time>
      </trkpt>
      <trkpt lat="49.21227" lon="-0.57115">
        <ele>62.6</ele>
        <time>2023-05-25T13:32:58Z</time>
      </trkpt>
      <trkpt lat="49.21228" lon="-0.57107">
        <ele>62.6</ele>
        <time>2023-05-25T13:32:59Z</time>
      </trkpt>
      <trkpt lat="49.21229" lon="-0.57098">
        <ele>62.6</ele>
        <time>2023-05-25T13:33:00Z</time>
      </trkpt>
      <trkpt lat="49.2123" lon="-0.57089">
        <ele>62.6</ele>
        <time>2023-05-25T13:33:01Z</time>
      </trkpt>
      <trkpt lat="49.21231" lon="-0.57081">
        <ele>62.6</ele>
        <time>2023-05-25T13:33:02Z</time>
      </trkpt>
      <trkpt lat="49.21232" lon="-0.57072">
        <ele>62.6</ele>
        <time>2023-05-25T13:33:03Z</time>
      </trkpt>
      <trkpt lat="49.21233" lon="-0.57063">
        <ele>62.2</ele>
        <time>2023-05-25T13:33:04Z</time>
      </trkpt>
      <trkpt lat="49.21234" lon="-0.57054">
        <ele>62.2</ele>
        <time>2023-05-25T13:33:05Z</time>
      </trkpt>
      <trkpt lat="49.21235" lon="-0.57046">
        <ele>62</ele>
        <time>2023-05-25T13:33:06Z</time>
      </trkpt>
      <trkpt lat="49.21236" lon="-0.57037">
        <ele>62</ele>
        <time>2023-05-25T13:33:07Z</time>
      </trkpt>
      <trkpt lat="49.21237" lon="-0.57028">
        <ele>61.8</ele>
        <time>2023-05-25T13:33:08Z</time>
      </trkpt>
      <trkpt lat="49.21238" lon="-0.57019">
        <ele>61.8</ele>
        <time>2023-05-25T13:33:09Z</time>
      </trkpt>
      <trkpt lat="49.21239" lon="-0.5701">
        <ele>61.6</ele>
        <time>2023-05-25T13:33:10Z</time>
      </trkpt>
      <trkpt lat="49.21239" lon="-0.57001">
        <ele>61.6</ele>
        <time>2023-05-25T13:33:11Z</time>
      </trkpt>
      <trkpt lat="49.2124" lon="-0.56991">
        <ele>61.6</ele>
        <time>2023-05-25T13:33:12Z</time>
      </trkpt>
      <trkpt lat="49.21241" lon="-0.56982">
        <ele>61.4</ele>
        <time>2023-05-25T13:33:13Z</time>
      </trkpt>
      <trkpt lat="49.21241" lon="-0.56973">
        <ele>61.4</ele>
        <time>2023-05-25T13:33:14Z</time>
      </trkpt>
      <trkpt lat="49.21241" lon="-0.56964">
        <ele>61.4</ele>
        <time>2023-05-25T13:33:15Z</time>
      </trkpt>
      <trkpt lat="49.21242" lon="-0.56955">
        <ele>61.2</ele>
        <time>2023-05-25T13:33:16Z</time>
      </trkpt>
      <trkpt lat="49.21242" lon="-0.56946">
        <ele>61.2</ele>
        <time>2023-05-25T13:33:17Z</time>
      </trkpt>
      <trkpt lat="49.21241" lon="-0.56937">
        <ele>61.2</ele>
        <time>2023-05-25T13:33:18Z</time>
      </trkpt>
      <trkpt lat="49.21241" lon="-0.56928">
        <ele>61.2</ele>
        <time>2023-05-25T13:33:19Z</time>
      </trkpt>
      <trkpt lat="49.2124" lon="-0.56919">
        <ele>61.4</ele>
        <time>2023-05-25T13:33:20Z</time>
      </trkpt>
      <trkpt lat="49.2124" lon="-0.5691">
        <ele>61.6</ele>
        <time>2023-05-25T13:33:21Z</time>
      </trkpt>
      <trkpt lat="49.21239" lon="-0.56902">
        <ele>61.8</ele>
        <time>2023-05-25T13:33:22Z</time>
      </trkpt>
      <trkpt lat="49.21237" lon="-0.56893">
        <ele>62</ele>
        <time>2023-05-25T13:33:23Z</time>
      </trkpt>
      <trkpt lat="49.21236" lon="-0.56885">
        <ele>62</ele>
        <time>2023-05-25T13:33:24Z</time>
      </trkpt>
      <trkpt lat="49.21234" lon="-0.56877">
        <ele>62.2</ele>
        <time>2023-05-25T13:33:25Z</time>
      </trkpt>
      <trkpt lat="49.21232" lon="-0.56869">
        <ele>62.6</ele>
        <time>2023-05-25T13:33:26Z</time>
      </trkpt>
      <trkpt lat="49.2123" lon="-0.56862">
        <ele>62.8</ele>
        <time>2023-05-25T13:33:27Z</time>
      </trkpt>
      <trkpt lat="49.21228" lon="-0.56855">
        <ele>63</ele>
        <time>2023-05-25T13:33:28Z</time>
      </trkpt>
      <trkpt lat="49.21226" lon="-0.56848">
        <ele>63</ele>
        <time>2023-05-25T13:33:29Z</time>
      </trkpt>
      <trkpt lat="49.21224" lon="-0.56841">
        <ele>63.2</ele>
        <time>2023-05-25T13:33:30Z</time>
      </trkpt>
      <trkpt lat="49.21221" lon="-0.56835">
        <ele>63.2</ele>
        <time>2023-05-25T13:33:31Z</time>
      </trkpt>
      <trkpt lat="49.21218" lon="-0.56829">
        <ele>63.2</ele>
        <time>2023-05-25T13:33:32Z</time>
      </trkpt>
      <trkpt lat="49.21216" lon="-0.56822">
        <ele>63.2</ele>
        <time>2023-05-25T13:33:33Z</time>
      </trkpt>
      <trkpt lat="49.21213" lon="-0.56816">
        <ele>63.2</ele>
        <time>2023-05-25T13:33:34Z</time>
      </trkpt>
      <trkpt lat="49.2121" lon="-0.56809">
        <ele>63.2</ele>
        <time>2023-05-25T13:33:35Z</time>
      </trkpt>
      <trkpt lat="49.21207" lon="-0.56803">
        <ele>63.2</ele>
        <time>2023-05-25T13:33:36Z</time>
      </trkpt>
      <trkpt lat="49.21204" lon="-0.56796">
        <ele>63</ele>
        <time>2023-05-25T13:33:37Z</time>
      </trkpt>
      <trkpt lat="49.212" lon="-0.56789">
        <ele>63</ele>
        <time>2023-05-25T13:33:38Z</time>
      </trkpt>
      <trkpt lat="49.21197" lon="-0.56782">
        <ele>63</ele>
        <time>2023-05-25T13:33:39Z</time>
      </trkpt>
      <trkpt lat="49.21194" lon="-0.56775">
        <ele>63</ele>
        <time>2023-05-25T13:33:40Z</time>
      </trkpt>
      <trkpt lat="49.2119" lon="-0.56768">
        <ele>63</ele>
        <time>2023-05-25T13:33:41Z</time>
      </trkpt>
      <trkpt lat="49.21187" lon="-0.56761">
        <ele>63</ele>
        <time>2023-05-25T13:33:42Z</time>
      </trkpt>
      <trkpt lat="49.21183" lon="-0.56753">
        <ele>62.8</ele>
        <time>2023-05-25T13:33:43Z</time>
      </trkpt>
      <trkpt lat="49.2118" lon="-0.56746">
        <ele>62.8</ele>
        <time>2023-05-25T13:33:44Z</time>
      </trkpt>
      <trkpt lat="49.21176" lon="-0.56739">
        <ele>62.6</ele>
        <time>2023-05-25T13:33:45Z</time>
      </trkpt>
      <trkpt lat="49.21172" lon="-0.56731">
        <ele>62.6</ele>
        <time>2023-05-25T13:33:46Z</time>
      </trkpt>
      <trkpt lat="49.21168" lon="-0.56723">
        <ele>62.2</ele>
        <time>2023-05-25T13:33:47Z</time>
      </trkpt>
      <trkpt lat="49.21165" lon="-0.56715">
        <ele>62.2</ele>
        <time>2023-05-25T13:33:48Z</time>
      </trkpt>
      <trkpt lat="49.21161" lon="-0.56707">
        <ele>62</ele>
        <time>2023-05-25T13:33:49Z</time>
      </trkpt>
      <trkpt lat="49.21157" lon="-0.56699">
        <ele>61.8</ele>
        <time>2023-05-25T13:33:50Z</time>
      </trkpt>
      <trkpt lat="49.21154" lon="-0.5669">
        <ele>61.6</ele>
        <time>2023-05-25T13:33:51Z</time>
      </trkpt>
      <trkpt lat="49.21152" lon="-0.56681">
        <ele>61.2</ele>
        <time>2023-05-25T13:33:52Z</time>
      </trkpt>
      <trkpt lat="49.2115" lon="-0.56672">
        <ele>61</ele>
        <time>2023-05-25T13:33:53Z</time>
      </trkpt>
      <trkpt lat="49.21148" lon="-0.56663">
        <ele>61</ele>
        <time>2023-05-25T13:33:54Z</time>
      </trkpt>
      <trkpt lat="49.21147" lon="-0.56653">
        <ele>61</ele>
        <time>2023-05-25T13:33:55Z</time>
      </trkpt>
      <trkpt lat="49.21146" lon="-0.56643">
        <ele>61</ele>
        <time>2023-05-25T13:33:56Z</time>
      </trkpt>
      <trkpt lat="49.21146" lon="-0.56632">
        <ele>60.8</ele>
        <time>2023-05-25T13:33:57Z</time>
      </trkpt>
      <trkpt lat="49.21146" lon="-0.56621">
        <ele>60.8</ele>
        <time>2023-05-25T13:33:58Z</time>
      </trkpt>
      <trkpt lat="49.21145" lon="-0.5661">
        <ele>60.8</ele>
        <time>2023-05-25T13:33:59Z</time>
      </trkpt>
      <trkpt lat="49.21145" lon="-0.56599">
        <ele>60.6</ele>
        <time>2023-05-25T13:34:00Z</time>
      </trkpt>
      <trkpt lat="49.21145" lon="-0.56588">
        <ele>60.6</ele>
        <time>2023-05-25T13:34:01Z</time>
      </trkpt>
      <trkpt lat="49.21145" lon="-0.56576">
        <ele>60.2</ele>
        <time>2023-05-25T13:34:02Z</time>
      </trkpt>
      <trkpt lat="49.21144" lon="-0.56565">
        <ele>60</ele>
        <time>2023-05-25T13:34:03Z</time>
      </trkpt>
      <trkpt lat="49.21144" lon="-0.56553">
        <ele>59.8</ele>
        <time>2023-05-25T13:34:04Z</time>
      </trkpt>
      <trkpt lat="49.21144" lon="-0.56542">
        <ele>59.4</ele>
        <time>2023-05-25T13:34:05Z</time>
      </trkpt>
      <trkpt lat="49.21143" lon="-0.5653">
        <ele>59</ele>
        <time>2023-05-25T13:34:06Z</time>
      </trkpt>
      <trkpt lat="49.21142" lon="-0.56518">
        <ele>58.8</ele>
        <time>2023-05-25T13:34:07Z</time>
      </trkpt>
      <trkpt lat="49.21141" lon="-0.56506">
        <ele>58.6</ele>
        <time>2023-05-25T13:34:08Z</time>
      </trkpt>
      <trkpt lat="49.21139" lon="-0.56494">
        <ele>58.4</ele>
        <time>2023-05-25T13:34:09Z</time>
      </trkpt>
      <trkpt lat="49.21138" lon="-0.56482">
        <ele>58.4</ele>
        <time>2023-05-25T13:34:10Z</time>
      </trkpt>
      <trkpt lat="49.21135" lon="-0.56471">
        <ele>58.4</ele>
        <time>2023-05-25T13:34:11Z</time>
      </trkpt>
      <trkpt lat="49.21132" lon="-0.5646">
        <ele>58.4</ele>
        <time>2023-05-25T13:34:12Z</time>
      </trkpt>
      <trkpt lat="49.21129" lon="-0.5645">
        <ele>58.4</ele>
        <time>2023-05-25T13:34:13Z</time>
      </trkpt>
      <trkpt lat="49.21126" lon="-0.56439">
        <ele>58.4</ele>
        <time>2023-05-25T13:34:14Z</time>
      </trkpt>
      <trkpt lat="49.21123" lon="-0.56429">
        <ele>58.4</ele>
        <time>2023-05-25T13:34:15Z</time>
      </trkpt>
      <trkpt lat="49.21121" lon="-0.56418">
        <ele>58.4</ele>
        <time>2023-05-25T13:34:16Z</time>
      </trkpt>
      <trkpt lat="49.21118" lon="-0.56408">
        <ele>58.2</ele>
        <time>2023-05-25T13:34:17Z</time>
      </trkpt>
      <trkpt lat="49.21116" lon="-0.56398">
        <ele>58.2</ele>
        <time>2023-05-25T13:34:18Z</time>
      </trkpt>
      <trkpt lat="49.21114" lon="-0.56388">
        <ele>58</ele>
        <time>2023-05-25T13:34:19Z</time>
      </trkpt>
      <trkpt lat="49.21112" lon="-0.56379">
        <ele>58</ele>
        <time>2023-05-25T13:34:20Z</time>
      </trkpt>
      <trkpt lat="49.2111" lon="-0.56369">
        <ele>58</ele>
        <time>2023-05-25T13:34:21Z</time>
      </trkpt>
      <trkpt lat="49.21108" lon="-0.5636">
        <ele>58</ele>
        <time>2023-05-25T13:34:22Z</time>
      </trkpt>
      <trkpt lat="49.21106" lon="-0.56351">
        <ele>57.8</ele>
        <time>2023-05-25T13:34:23Z</time>
      </trkpt>
      <trkpt lat="49.21104" lon="-0.56342">
        <ele>57.8</ele>
        <time>2023-05-25T13:34:24Z</time>
      </trkpt>
      <trkpt lat="49.21103" lon="-0.56332">
        <ele>57.8</ele>
        <time>2023-05-25T13:34:25Z</time>
      </trkpt>
      <trkpt lat="49.21101" lon="-0.56323">
        <ele>57.8</ele>
        <time>2023-05-25T13:34:26Z</time>
      </trkpt>
      <trkpt lat="49.211" lon="-0.56313">
        <ele>58</ele>
        <time>2023-05-25T13:34:27Z</time>
      </trkpt>
      <trkpt lat="49.21099" lon="-0.56303">
        <ele>58</ele>
        <time>2023-05-25T13:34:28Z</time>
      </trkpt>
      <trkpt lat="49.21098" lon="-0.56293">
        <ele>58</ele>
        <time>2023-05-25T13:34:29Z</time>
      </trkpt>
      <trkpt lat="49.21097" lon="-0.56283">
        <ele>58</ele>
        <time>2023-05-25T13:34:30Z</time>
      </trkpt>
      <trkpt lat="49.21097" lon="-0.56274">
        <ele>58</ele>
        <time>2023-05-25T13:34:31Z</time>
      </trkpt>
      <trkpt lat="49.21097" lon="-0.56264">
        <ele>58</ele>
        <time>2023-05-25T13:34:32Z</time>
      </trkpt>
      <trkpt lat="49.21096" lon="-0.56254">
        <ele>58</ele>
        <time>2023-05-25T13:34:33Z</time>
      </trkpt>
      <trkpt lat="49.21096" lon="-0.56245">
        <ele>58</ele>
        <time>2023-05-25T13:34:34Z</time>
      </trkpt>
      <trkpt lat="49.21096" lon="-0.56236">
        <ele>58</ele>
        <time>2023-05-25T13:34:35Z</time>
      </trkpt>
      <trkpt lat="49.21096" lon="-0.56227">
        <ele>58</ele>
        <time>2023-05-25T13:34:36Z</time>
      </trkpt>
      <trkpt lat="49.21095" lon="-0.56217">
        <ele>58</ele>
        <time>2023-05-25T13:34:37Z</time>
      </trkpt>
      <trkpt lat="49.21095" lon="-0.56208">
        <ele>58</ele>
        <time>2023-05-25T13:34:38Z</time>
      </trkpt>
      <trkpt lat="49.21095" lon="-0.56199">
        <ele>58</ele>
        <time>2023-05-25T13:34:39Z</time>
      </trkpt>
      <trkpt lat="49.21095" lon="-0.5619">
        <ele>58</ele>
        <time>2023-05-25T13:34:40Z</time>
      </trkpt>
      <trkpt lat="49.21095" lon="-0.56181">
        <ele>58</ele>
        <time>2023-05-25T13:34:41Z</time>
      </trkpt>
      <trkpt lat="49.21095" lon="-0.56172">
        <ele>58</ele>
        <time>2023-05-25T13:34:42Z</time>
      </trkpt>
      <trkpt lat="49.21094" lon="-0.56163">
        <ele>58</ele>
        <time>2023-05-25T13:34:43Z</time>
      </trkpt>
      <trkpt lat="49.21094" lon="-0.56155">
        <ele>58</ele>
        <time>2023-05-25T13:34:44Z</time>
      </trkpt>
      <trkpt lat="49.21094" lon="-0.56146">
        <ele>58</ele>
        <time>2023-05-25T13:34:45Z</time>
      </trkpt>
      <trkpt lat="49.21094" lon="-0.56137">
        <ele>58.2</ele>
        <time>2023-05-25T13:34:46Z</time>
      </trkpt>
      <trkpt lat="49.21093" lon="-0.56129">
        <ele>58.2</ele>
        <time>2023-05-25T13:34:47Z</time>
      </trkpt>
      <trkpt lat="49.21093" lon="-0.5612">
        <ele>58.4</ele>
        <time>2023-05-25T13:34:48Z</time>
      </trkpt>
      <trkpt lat="49.21093" lon="-0.56111">
        <ele>58.6</ele>
        <time>2023-05-25T13:34:49Z</time>
      </trkpt>
      <trkpt lat="49.21092" lon="-0.56102">
        <ele>58.8</ele>
        <time>2023-05-25T13:34:50Z</time>
      </trkpt>
      <trkpt lat="49.21091" lon="-0.56093">
        <ele>58.8</ele>
        <time>2023-05-25T13:34:51Z</time>
      </trkpt>
      <trkpt lat="49.2109" lon="-0.56084">
        <ele>59</ele>
        <time>2023-05-25T13:34:52Z</time>
      </trkpt>
      <trkpt lat="49.21089" lon="-0.56076">
        <ele>59</ele>
        <time>2023-05-25T13:34:53Z</time>
      </trkpt>
      <trkpt lat="49.21088" lon="-0.56067">
        <ele>59.2</ele>
        <time>2023-05-25T13:34:54Z</time>
      </trkpt>
      <trkpt lat="49.21086" lon="-0.56059">
        <ele>59.2</ele>
        <time>2023-05-25T13:34:55Z</time>
      </trkpt>
      <trkpt lat="49.21085" lon="-0.5605">
        <ele>59.4</ele>
        <time>2023-05-25T13:34:56Z</time>
      </trkpt>
      <trkpt lat="49.21084" lon="-0.56042">
        <ele>59.6</ele>
        <time>2023-05-25T13:34:57Z</time>
      </trkpt>
      <trkpt lat="49.21083" lon="-0.56034">
        <ele>59.6</ele>
        <time>2023-05-25T13:34:58Z</time>
      </trkpt>
      <trkpt lat="49.21083" lon="-0.56026">
        <ele>59.8</ele>
        <time>2023-05-25T13:34:59Z</time>
      </trkpt>
      <trkpt lat="49.21083" lon="-0.56018">
        <ele>59.8</ele>
        <time>2023-05-25T13:35:00Z</time>
      </trkpt>
      <trkpt lat="49.21082" lon="-0.5601">
        <ele>60</ele>
        <time>2023-05-25T13:35:01Z</time>
      </trkpt>
      <trkpt lat="49.21082" lon="-0.56003">
        <ele>60</ele>
        <time>2023-05-25T13:35:02Z</time>
      </trkpt>
      <trkpt lat="49.21082" lon="-0.55996">
        <ele>60</ele>
        <time>2023-05-25T13:35:03Z</time>
      </trkpt>
      <trkpt lat="49.21082" lon="-0.55989">
        <ele>60.2</ele>
        <time>2023-05-25T13:35:04Z</time>
      </trkpt>
      <trkpt lat="49.21082" lon="-0.55982">
        <ele>60.4</ele>
        <time>2023-05-25T13:35:05Z</time>
      </trkpt>
      <trkpt lat="49.21082" lon="-0.55975">
        <ele>60.6</ele>
        <time>2023-05-25T13:35:06Z</time>
      </trkpt>
      <trkpt lat="49.21082" lon="-0.55969">
        <ele>60.8</ele>
        <time>2023-05-25T13:35:07Z</time>
      </trkpt>
      <trkpt lat="49.21082" lon="-0.55962">
        <ele>61</ele>
        <time>2023-05-25T13:35:08Z</time>
      </trkpt>
      <trkpt lat="49.21082" lon="-0.55955">
        <ele>61</ele>
        <time>2023-05-25T13:35:09Z</time>
      </trkpt>
      <trkpt lat="49.21082" lon="-0.55948">
        <ele>61.2</ele>
        <time>2023-05-25T13:35:10Z</time>
      </trkpt>
      <trkpt lat="49.21082" lon="-0.55942">
        <ele>61.4</ele>
        <time>2023-05-25T13:35:11Z</time>
      </trkpt>
      <trkpt lat="49.21082" lon="-0.55935">
        <ele>61.6</ele>
        <time>2023-05-25T13:35:12Z</time>
      </trkpt>
      <trkpt lat="49.21083" lon="-0.55929">
        <ele>61.8</ele>
        <time>2023-05-25T13:35:13Z</time>
      </trkpt>
      <trkpt lat="49.21083" lon="-0.55922">
        <ele>62</ele>
        <time>2023-05-25T13:35:14Z</time>
      </trkpt>
      <trkpt lat="49.21083" lon="-0.55916">
        <ele>62</ele>
        <time>2023-05-25T13:35:15Z</time>
      </trkpt>
      <trkpt lat="49.21083" lon="-0.55909">
        <ele>62.2</ele>
        <time>2023-05-25T13:35:16Z</time>
      </trkpt>
      <trkpt lat="49.21083" lon="-0.55903">
        <ele>62.2</ele>
        <time>2023-05-25T13:35:17Z</time>
      </trkpt>
      <trkpt lat="49.21083" lon="-0.55897">
        <ele>62.6</ele>
        <time>2023-05-25T13:35:18Z</time>
      </trkpt>
      <trkpt lat="49.21084" lon="-0.55891">
        <ele>62.6</ele>
        <time>2023-05-25T13:35:19Z</time>
      </trkpt>
      <trkpt lat="49.21084" lon="-0.55885">
        <ele>62.8</ele>
        <time>2023-05-25T13:35:20Z</time>
      </trkpt>
      <trkpt lat="49.21085" lon="-0.55879">
        <ele>63</ele>
        <time>2023-05-25T13:35:21Z</time>
      </trkpt>
      <trkpt lat="49.21086" lon="-0.55873">
        <ele>63</ele>
        <time>2023-05-25T13:35:22Z</time>
      </trkpt>
      <trkpt lat="49.21086" lon="-0.55868">
        <ele>63</ele>
        <time>2023-05-25T13:35:23Z</time>
      </trkpt>
      <trkpt lat="49.21087" lon="-0.55862">
        <ele>63.2</ele>
        <time>2023-05-25T13:35:24Z</time>
      </trkpt>
      <trkpt lat="49.21088" lon="-0.55856">
        <ele>63.4</ele>
        <time>2023-05-25T13:35:25Z</time>
      </trkpt>
      <trkpt lat="49.21089" lon="-0.5585">
        <ele>63.6</ele>
        <time>2023-05-25T13:35:26Z</time>
      </trkpt>
      <trkpt lat="49.21091" lon="-0.55844">
        <ele>63.6</ele>
        <time>2023-05-25T13:35:27Z</time>
      </trkpt>
      <trkpt lat="49.21092" lon="-0.55838">
        <ele>63.8</ele>
        <time>2023-05-25T13:35:28Z</time>
      </trkpt>
      <trkpt lat="49.21093" lon="-0.55831">
        <ele>63.8</ele>
        <time>2023-05-25T13:35:29Z</time>
      </trkpt>
      <trkpt lat="49.21094" lon="-0.55825">
        <ele>63.8</ele>
        <time>2023-05-25T13:35:30Z</time>
      </trkpt>
      <trkpt lat="49.21095" lon="-0.55818">
        <ele>64</ele>
        <time>2023-05-25T13:35:31Z</time>
      </trkpt>
      <trkpt lat="49.21096" lon="-0.55812">
        <ele>64</ele>
        <time>2023-05-25T13:35:32Z</time>
      </trkpt>
      <trkpt lat="49.21098" lon="-0.55805">
        <ele>64</ele>
        <time>2023-05-25T13:35:33Z</time>
      </trkpt>
      <trkpt lat="49.21098" lon="-0.55799">
        <ele>64</ele>
        <time>2023-05-25T13:35:34Z</time>
      </trkpt>
      <trkpt lat="49.21099" lon="-0.55792">
        <ele>64</ele>
        <time>2023-05-25T13:35:35Z</time>
      </trkpt>
      <trkpt lat="49.21099" lon="-0.55785">
        <ele>64.2</ele>
        <time>2023-05-25T13:35:36Z</time>
      </trkpt>
      <trkpt lat="49.211" lon="-0.55778">
        <ele>64.4</ele>
        <time>2023-05-25T13:35:37Z</time>
      </trkpt>
      <trkpt lat="49.211" lon="-0.55772">
        <ele>64.4</ele>
        <time>2023-05-25T13:35:38Z</time>
      </trkpt>
      <trkpt lat="49.21099" lon="-0.55765">
        <ele>64.4</ele>
        <time>2023-05-25T13:35:39Z</time>
      </trkpt>
      <trkpt lat="49.21099" lon="-0.55758">
        <ele>64.6</ele>
        <time>2023-05-25T13:35:40Z</time>
      </trkpt>
      <trkpt lat="49.21099" lon="-0.55751">
        <ele>64.6</ele>
        <time>2023-05-25T13:35:41Z</time>
      </trkpt>
      <trkpt lat="49.21099" lon="-0.55745">
        <ele>64.6</ele>
        <time>2023-05-25T13:35:42Z</time>
      </trkpt>
      <trkpt lat="49.21099" lon="-0.55738">
        <ele>64.6</ele>
        <time>2023-05-25T13:35:43Z</time>
      </trkpt>
      <trkpt lat="49.21098" lon="-0.55731">
        <ele>64.6</ele>
        <time>2023-05-25T13:35:44Z</time>
      </trkpt>
      <trkpt lat="49.21098" lon="-0.55725">
        <ele>64.8</ele>
        <time>2023-05-25T13:35:45Z</time>
      </trkpt>
      <trkpt lat="49.21097" lon="-0.55718">
        <ele>64.8</ele>
        <time>2023-05-25T13:35:46Z</time>
      </trkpt>
      <trkpt lat="49.21097" lon="-0.55712">
        <ele>64.8</ele>
        <time>2023-05-25T13:35:47Z</time>
      </trkpt>
      <trkpt lat="49.21097" lon="-0.55706">
        <ele>64.8</ele>
        <time>2023-05-25T13:35:48Z</time>
      </trkpt>
      <trkpt lat="49.21097" lon="-0.557">
        <ele>65</ele>
        <time>2023-05-25T13:35:49Z</time>
      </trkpt>
      <trkpt lat="49.21098" lon="-0.55694">
        <ele>65</ele>
        <time>2023-05-25T13:35:50Z</time>
      </trkpt>
      <trkpt lat="49.21098" lon="-0.55688">
        <ele>65</ele>
        <time>2023-05-25T13:35:51Z</time>
      </trkpt>
      <trkpt lat="49.21099" lon="-0.55682">
        <ele>65</ele>
        <time>2023-05-25T13:35:52Z</time>
      </trkpt>
      <trkpt lat="49.211" lon="-0.55677">
        <ele>65</ele>
        <time>2023-05-25T13:35:53Z</time>
      </trkpt>
      <trkpt lat="49.211" lon="-0.55671">
        <ele>65</ele>
        <time>2023-05-25T13:35:54Z</time>
      </trkpt>
      <trkpt lat="49.21101" lon="-0.55666">
        <ele>65</ele>
        <time>2023-05-25T13:35:55Z</time>
      </trkpt>
      <trkpt lat="49.21102" lon="-0.5566">
        <ele>65.2</ele>
        <time>2023-05-25T13:35:56Z</time>
      </trkpt>
      <trkpt lat="49.21102" lon="-0.55655">
        <ele>65.4</ele>
        <time>2023-05-25T13:35:57Z</time>
      </trkpt>
      <trkpt lat="49.21103" lon="-0.55649">
        <ele>65.6</ele>
        <time>2023-05-25T13:35:58Z</time>
      </trkpt>
      <trkpt lat="49.21104" lon="-0.55644">
        <ele>65.6</ele>
        <time>2023-05-25T13:35:59Z</time>
      </trkpt>
      <trkpt lat="49.21104" lon="-0.55639">
        <ele>65.8</ele>
        <time>2023-05-25T13:36:00Z</time>
      </trkpt>
      <trkpt lat="49.21105" lon="-0.55634">
        <ele>66</ele>
        <time>2023-05-25T13:36:01Z</time>
      </trkpt>
      <trkpt lat="49.21106" lon="-0.55629">
        <ele>66</ele>
        <time>2023-05-25T13:36:02Z</time>
      </trkpt>
      <trkpt lat="49.21107" lon="-0.55623">
        <ele>66.2</ele>
        <time>2023-05-25T13:36:03Z</time>
      </trkpt>
      <trkpt lat="49.21107" lon="-0.55618">
        <ele>66.4</ele>
        <time>2023-05-25T13:36:04Z</time>
      </trkpt>
      <trkpt lat="49.21108" lon="-0.55613">
        <ele>66.6</ele>
        <time>2023-05-25T13:36:05Z</time>
      </trkpt>
      <trkpt lat="49.21109" lon="-0.55608">
        <ele>66.6</ele>
        <time>2023-05-25T13:36:06Z</time>
      </trkpt>
      <trkpt lat="49.2111" lon="-0.55603">
        <ele>66.8</ele>
        <time>2023-05-25T13:36:07Z</time>
      </trkpt>
      <trkpt lat="49.21111" lon="-0.55598">
        <ele>67</ele>
        <time>2023-05-25T13:36:08Z</time>
      </trkpt>
      <trkpt lat="49.21112" lon="-0.55593">
        <ele>67</ele>
        <time>2023-05-25T13:36:09Z</time>
      </trkpt>
      <trkpt lat="49.21113" lon="-0.55588">
        <ele>67.2</ele>
        <time>2023-05-25T13:36:10Z</time>
      </trkpt>
      <trkpt lat="49.21114" lon="-0.55583">
        <ele>67.4</ele>
        <time>2023-05-25T13:36:11Z</time>
      </trkpt>
      <trkpt lat="49.21115" lon="-0.55578">
        <ele>67.6</ele>
        <time>2023-05-25T13:36:12Z</time>
      </trkpt>
      <trkpt lat="49.21115" lon="-0.55573">
        <ele>67.6</ele>
        <time>2023-05-25T13:36:13Z</time>
      </trkpt>
      <trkpt lat="49.21116" lon="-0.55568">
        <ele>67.8</ele>
        <time>2023-05-25T13:36:14Z</time>
      </trkpt>
      <trkpt lat="49.21117" lon="-0.55563">
        <ele>68</ele>
        <time>2023-05-25T13:36:15Z</time>
      </trkpt>
      <trkpt lat="49.21118" lon="-0.55558">
        <ele>68</ele>
        <time>2023-05-25T13:36:16Z</time>
      </trkpt>
      <trkpt lat="49.21119" lon="-0.55553">
        <ele>68.2</ele>
        <time>2023-05-25T13:36:17Z</time>
      </trkpt>
      <trkpt lat="49.2112" lon="-0.55548">
        <ele>68.4</ele>
        <time>2023-05-25T13:36:18Z</time>
      </trkpt>
      <trkpt lat="49.21121" lon="-0.55543">
        <ele>68.6</ele>
        <time>2023-05-25T13:36:19Z</time>
      </trkpt>
      <trkpt lat="49.21122" lon="-0.55538">
        <ele>68.6</ele>
        <time>2023-05-25T13:36:20Z</time>
      </trkpt>
      <trkpt lat="49.21123" lon="-0.55534">
        <ele>68.6</ele>
        <time>2023-05-25T13:36:21Z</time>
      </trkpt>
      <trkpt lat="49.21124" lon="-0.55529">
        <ele>68.8</ele>
        <time>2023-05-25T13:36:22Z</time>
      </trkpt>
      <trkpt lat="49.21124" lon="-0.55524">
        <ele>69</ele>
        <time>2023-05-25T13:36:23Z</time>
      </trkpt>
      <trkpt lat="49.21125" lon="-0.55519">
        <ele>69</ele>
        <time>2023-05-25T13:36:24Z</time>
      </trkpt>
      <trkpt lat="49.21125" lon="-0.55514">
        <ele>69.2</ele>
        <time>2023-05-25T13:36:25Z</time>
      </trkpt>
      <trkpt lat="49.21126" lon="-0.55508">
        <ele>69.4</ele>
        <time>2023-05-25T13:36:26Z</time>
      </trkpt>
      <trkpt lat="49.21126" lon="-0.55503">
        <ele>69.4</ele>
        <time>2023-05-25T13:36:27Z</time>
      </trkpt>
      <trkpt lat="49.21126" lon="-0.55498">
        <ele>69.6</ele>
        <time>2023-05-25T13:36:28Z</time>
      </trkpt>
      <trkpt lat="49.21126" lon="-0.55492">
        <ele>69.6</ele>
        <time>2023-05-25T13:36:29Z</time>
      </trkpt>
      <trkpt lat="49.21126" lon="-0.55487">
        <ele>69.6</ele>
        <time>2023-05-25T13:36:30Z</time>
      </trkpt>
      <trkpt lat="49.21125" lon="-0.55482">
        <ele>69.6</ele>
        <time>2023-05-25T13:36:31Z</time>
      </trkpt>
      <trkpt lat="49.21125" lon="-0.55476">
        <ele>69.8</ele>
        <time>2023-05-25T13:36:32Z</time>
      </trkpt>
      <trkpt lat="49.21124" lon="-0.55472">
        <ele>69.8</ele>
        <time>2023-05-25T13:36:33Z</time>
      </trkpt>
      <trkpt lat="49.21124" lon="-0.55467">
        <ele>70</ele>
        <time>2023-05-25T13:36:34Z</time>
      </trkpt>
      <trkpt lat="49.21123" lon="-0.55462">
        <ele>70</ele>
        <time>2023-05-25T13:36:35Z</time>
      </trkpt>
      <trkpt lat="49.21122" lon="-0.55458">
        <ele>70</ele>
        <time>2023-05-25T13:36:36Z</time>
      </trkpt>
      <trkpt lat="49.21121" lon="-0.55453">
        <ele>70</ele>
        <time>2023-05-25T13:36:37Z</time>
      </trkpt>
      <trkpt lat="49.2112" lon="-0.55449">
        <ele>70.2</ele>
        <time>2023-05-25T13:36:38Z</time>
      </trkpt>
      <trkpt lat="49.21119" lon="-0.55444">
        <ele>70.2</ele>
        <time>2023-05-25T13:36:39Z</time>
      </trkpt>
      <trkpt lat="49.21118" lon="-0.5544">
        <ele>70.4</ele>
        <time>2023-05-25T13:36:40Z</time>
      </trkpt>
      <trkpt lat="49.21116" lon="-0.55435">
        <ele>70.4</ele>
        <time>2023-05-25T13:36:41Z</time>
      </trkpt>
      <trkpt lat="49.21115" lon="-0.55431">
        <ele>70.6</ele>
        <time>2023-05-25T13:36:42Z</time>
      </trkpt>
      <trkpt lat="49.21113" lon="-0.55427">
        <ele>70.6</ele>
        <time>2023-05-25T13:36:43Z</time>
      </trkpt>
      <trkpt lat="49.21111" lon="-0.55423">
        <ele>70.6</ele>
        <time>2023-05-25T13:36:44Z</time>
      </trkpt>
      <trkpt lat="49.21109" lon="-0.5542">
        <ele>70.6</ele>
        <time>2023-05-25T13:36:45Z</time>
      </trkpt>
      <trkpt lat="49.21108" lon="-0.55416">
        <ele>70.6</ele>
        <time>2023-05-25T13:36:46Z</time>
      </trkpt>
      <trkpt lat="49.21106" lon="-0.55412">
        <ele>70.6</ele>
        <time>2023-05-25T13:36:47Z</time>
      </trkpt>
      <trkpt lat="49.21104" lon="-0.55408">
        <ele>70.8</ele>
        <time>2023-05-25T13:36:48Z</time>
      </trkpt>
      <trkpt lat="49.21102" lon="-0.55404">
        <ele>70.8</ele>
        <time>2023-05-25T13:36:49Z</time>
      </trkpt>
      <trkpt lat="49.21101" lon="-0.55401">
        <ele>70.8</ele>
        <time>2023-05-25T13:36:50Z</time>
      </trkpt>
      <trkpt lat="49.21099" lon="-0.55398">
        <ele>71</ele>
        <time>2023-05-25T13:36:51Z</time>
      </trkpt>
      <trkpt lat="49.21099" lon="-0.55396">
        <ele>71</ele>
        <time>2023-05-25T13:36:52Z</time>
      </trkpt>
      <trkpt lat="49.21099" lon="-0.55394">
        <ele>71</ele>
        <time>2023-05-25T13:36:53Z</time>
      </trkpt>
      <trkpt lat="49.21099" lon="-0.55394">
        <ele>71</ele>
        <time>2023-05-25T13:36:54Z</time>
      </trkpt>
      <trkpt lat="49.21099" lon="-0.55394">
        <ele>71</ele>
        <time>2023-05-25T13:36:55Z</time>
      </trkpt>
      <trkpt lat="49.21099" lon="-0.55394">
        <ele>71</ele>
        <time>2023-05-25T13:36:56Z</time>
      </trkpt>
      <trkpt lat="49.21098" lon="-0.55393">
        <ele>71</ele>
        <time>2023-05-25T13:36:57Z</time>
      </trkpt>
      <trkpt lat="49.21098" lon="-0.5539">
        <ele>71</ele>
        <time>2023-05-25T13:36:58Z</time>
      </trkpt>
      <trkpt lat="49.21098" lon="-0.55386">
        <ele>71</ele>
        <time>2023-05-25T13:36:59Z</time>
      </trkpt>
      <trkpt lat="49.211" lon="-0.55382">
        <ele>71</ele>
        <time>2023-05-25T13:37:00Z</time>
      </trkpt>
      <trkpt lat="49.21102" lon="-0.55378">
        <ele>71</ele>
        <time>2023-05-25T13:37:01Z</time>
      </trkpt>
      <trkpt lat="49.21104" lon="-0.55374">
        <ele>71</ele>
        <time>2023-05-25T13:37:02Z</time>
      </trkpt>
      <trkpt lat="49.21107" lon="-0.5537">
        <ele>71</ele>
        <time>2023-05-25T13:37:03Z</time>
      </trkpt>
      <trkpt lat="49.2111" lon="-0.55366">
        <ele>71</ele>
        <time>2023-05-25T13:37:04Z</time>
      </trkpt>
      <trkpt lat="49.21113" lon="-0.55362">
        <ele>71</ele>
        <time>2023-05-25T13:37:05Z</time>
      </trkpt>
      <trkpt lat="49.21115" lon="-0.55358">
        <ele>71</ele>
        <time>2023-05-25T13:37:06Z</time>
      </trkpt>
      <trkpt lat="49.21118" lon="-0.55354">
        <ele>71</ele>
        <time>2023-05-25T13:37:07Z</time>
      </trkpt>
      <trkpt lat="49.21121" lon="-0.5535">
        <ele>71</ele>
        <time>2023-05-25T13:37:08Z</time>
      </trkpt>
      <trkpt lat="49.21124" lon="-0.55346">
        <ele>71</ele>
        <time>2023-05-25T13:37:09Z</time>
      </trkpt>
      <trkpt lat="49.21126" lon="-0.55341">
        <ele>71</ele>
        <time>2023-05-25T13:37:10Z</time>
      </trkpt>
      <trkpt lat="49.21129" lon="-0.55337">
        <ele>71</ele>
        <time>2023-05-25T13:37:11Z</time>
      </trkpt>
      <trkpt lat="49.21132" lon="-0.55334">
        <ele>71</ele>
        <time>2023-05-25T13:37:12Z</time>
      </trkpt>
      <trkpt lat="49.21135" lon="-0.55329">
        <ele>71</ele>
        <time>2023-05-25T13:37:13Z</time>
      </trkpt>
      <trkpt lat="49.21138" lon="-0.55325">
        <ele>71.2</ele>
        <time>2023-05-25T13:37:14Z</time>
      </trkpt>
      <trkpt lat="49.2114" lon="-0.55321">
        <ele>71.4</ele>
        <time>2023-05-25T13:37:15Z</time>
      </trkpt>
      <trkpt lat="49.21143" lon="-0.55316">
        <ele>71.6</ele>
        <time>2023-05-25T13:37:16Z</time>
      </trkpt>
      <trkpt lat="49.21146" lon="-0.55312">
        <ele>71.6</ele>
        <time>2023-05-25T13:37:17Z</time>
      </trkpt>
      <trkpt lat="49.21149" lon="-0.55306">
        <ele>71.8</ele>
        <time>2023-05-25T13:37:18Z</time>
      </trkpt>
      <trkpt lat="49.21149" lon="-0.553">
        <ele>72</ele>
        <time>2023-05-25T13:37:19Z</time>
      </trkpt>
      <trkpt lat="49.21149" lon="-0.55293">
        <ele>72.2</ele>
        <time>2023-05-25T13:37:20Z</time>
      </trkpt>
      <trkpt lat="49.21148" lon="-0.55286">
        <ele>72.4</ele>
        <time>2023-05-25T13:37:21Z</time>
      </trkpt>
      <trkpt lat="49.21146" lon="-0.55279">
        <ele>72.6</ele>
        <time>2023-05-25T13:37:22Z</time>
      </trkpt>
      <trkpt lat="49.21145" lon="-0.55272">
        <ele>72.8</ele>
        <time>2023-05-25T13:37:23Z</time>
      </trkpt>
      <trkpt lat="49.21144" lon="-0.55264">
        <ele>73</ele>
        <time>2023-05-25T13:37:24Z</time>
      </trkpt>
      <trkpt lat="49.21144" lon="-0.55256">
        <ele>73.4</ele>
        <time>2023-05-25T13:37:25Z</time>
      </trkpt>
      <trkpt lat="49.21143" lon="-0.55247">
        <ele>73.4</ele>
        <time>2023-05-25T13:37:26Z</time>
      </trkpt>
      <trkpt lat="49.21143" lon="-0.55237">
        <ele>73.4</ele>
        <time>2023-05-25T13:37:27Z</time>
      </trkpt>
      <trkpt lat="49.21143" lon="-0.55228">
        <ele>73.4</ele>
        <time>2023-05-25T13:37:28Z</time>
      </trkpt>
      <trkpt lat="49.21143" lon="-0.55218">
        <ele>73.4</ele>
        <time>2023-05-25T13:37:29Z</time>
      </trkpt>
      <trkpt lat="49.21143" lon="-0.55208">
        <ele>73.2</ele>
        <time>2023-05-25T13:37:30Z</time>
      </trkpt>
      <trkpt lat="49.21144" lon="-0.55199">
        <ele>73.2</ele>
        <time>2023-05-25T13:37:31Z</time>
      </trkpt>
      <trkpt lat="49.21144" lon="-0.5519">
        <ele>73</ele>
        <time>2023-05-25T13:37:32Z</time>
      </trkpt>
      <trkpt lat="49.21144" lon="-0.5518">
        <ele>73</ele>
        <time>2023-05-25T13:37:33Z</time>
      </trkpt>
      <trkpt lat="49.21144" lon="-0.55172">
        <ele>73</ele>
        <time>2023-05-25T13:37:34Z</time>
      </trkpt>
      <trkpt lat="49.21144" lon="-0.55163">
        <ele>73</ele>
        <time>2023-05-25T13:37:35Z</time>
      </trkpt>
      <trkpt lat="49.21144" lon="-0.55155">
        <ele>73</ele>
        <time>2023-05-25T13:37:36Z</time>
      </trkpt>
      <trkpt lat="49.21145" lon="-0.55146">
        <ele>73</ele>
        <time>2023-05-25T13:37:37Z</time>
      </trkpt>
      <trkpt lat="49.21145" lon="-0.55138">
        <ele>73.2</ele>
        <time>2023-05-25T13:37:38Z</time>
      </trkpt>
      <trkpt lat="49.21145" lon="-0.5513">
        <ele>73.2</ele>
        <time>2023-05-25T13:37:39Z</time>
      </trkpt>
      <trkpt lat="49.21145" lon="-0.55122">
        <ele>73.4</ele>
        <time>2023-05-25T13:37:40Z</time>
      </trkpt>
      <trkpt lat="49.21145" lon="-0.55114">
        <ele>73.4</ele>
        <time>2023-05-25T13:37:41Z</time>
      </trkpt>
      <trkpt lat="49.21145" lon="-0.55106">
        <ele>73.4</ele>
        <time>2023-05-25T13:37:42Z</time>
      </trkpt>
      <trkpt lat="49.21145" lon="-0.55098">
        <ele>73.4</ele>
        <time>2023-05-25T13:37:43Z</time>
      </trkpt>
      <trkpt lat="49.21146" lon="-0.5509">
        <ele>73.6</ele>
        <time>2023-05-25T13:37:44Z</time>
      </trkpt>
      <trkpt lat="49.21146" lon="-0.55082">
        <ele>73.6</ele>
        <time>2023-05-25T13:37:45Z</time>
      </trkpt>
      <trkpt lat="49.21146" lon="-0.55074">
        <ele>73.6</ele>
        <time>2023-05-25T13:37:46Z</time>
      </trkpt>
      <trkpt lat="49.21146" lon="-0.55066">
        <ele>73.6</ele>
        <time>2023-05-25T13:37:47Z</time>
      </trkpt>
      <trkpt lat="49.21146" lon="-0.55058">
        <ele>73.4</ele>
        <time>2023-05-25T13:37:48Z</time>
      </trkpt>
      <trkpt lat="49.21146" lon="-0.5505">
        <ele>73.4</ele>
        <time>2023-05-25T13:37:49Z</time>
      </trkpt>
      <trkpt lat="49.21146" lon="-0.55042">
        <ele>73.4</ele>
        <time>2023-05-25T13:37:50Z</time>
      </trkpt>
      <trkpt lat="49.21146" lon="-0.55033">
        <ele>73.4</ele>
        <time>2023-05-25T13:37:51Z</time>
      </trkpt>
      <trkpt lat="49.21146" lon="-0.55025">
        <ele>73.4</ele>
        <time>2023-05-25T13:37:52Z</time>
      </trkpt>
      <trkpt lat="49.21147" lon="-0.55016">
        <ele>73.4</ele>
        <time>2023-05-25T13:37:53Z</time>
      </trkpt>
      <trkpt lat="49.21147" lon="-0.55008">
        <ele>73.4</ele>
        <time>2023-05-25T13:37:54Z</time>
      </trkpt>
      <trkpt lat="49.21147" lon="-0.54999">
        <ele>73.2</ele>
        <time>2023-05-25T13:37:55Z</time>
      </trkpt>
      <trkpt lat="49.21147" lon="-0.54991">
        <ele>73</ele>
        <time>2023-05-25T13:37:56Z</time>
      </trkpt>
      <trkpt lat="49.21147" lon="-0.54982">
        <ele>73</ele>
        <time>2023-05-25T13:37:57Z</time>
      </trkpt>
      <trkpt lat="49.21147" lon="-0.54973">
        <ele>72.8</ele>
        <time>2023-05-25T13:37:58Z</time>
      </trkpt>
      <trkpt lat="49.21147" lon="-0.54965">
        <ele>72.6</ele>
        <time>2023-05-25T13:37:59Z</time>
      </trkpt>
      <trkpt lat="49.21147" lon="-0.54956">
        <ele>72.4</ele>
        <time>2023-05-25T13:38:00Z</time>
      </trkpt>
      <trkpt lat="49.21147" lon="-0.54948">
        <ele>72.4</ele>
        <time>2023-05-25T13:38:01Z</time>
      </trkpt>
      <trkpt lat="49.21147" lon="-0.54939">
        <ele>72</ele>
        <time>2023-05-25T13:38:02Z</time>
      </trkpt>
      <trkpt lat="49.21147" lon="-0.54931">
        <ele>72</ele>
        <time>2023-05-25T13:38:03Z</time>
      </trkpt>
      <trkpt lat="49.21147" lon="-0.54923">
        <ele>71.8</ele>
        <time>2023-05-25T13:38:04Z</time>
      </trkpt>
      <trkpt lat="49.21147" lon="-0.54915">
        <ele>71.6</ele>
        <time>2023-05-25T13:38:05Z</time>
      </trkpt>
      <trkpt lat="49.21147" lon="-0.54907">
        <ele>71.6</ele>
        <time>2023-05-25T13:38:06Z</time>
      </trkpt>
      <trkpt lat="49.21147" lon="-0.54898">
        <ele>71.6</ele>
        <time>2023-05-25T13:38:07Z</time>
      </trkpt>
      <trkpt lat="49.21147" lon="-0.5489">
        <ele>71.4</ele>
        <time>2023-05-25T13:38:08Z</time>
      </trkpt>
      <trkpt lat="49.21147" lon="-0.54882">
        <ele>71.4</ele>
        <time>2023-05-25T13:38:09Z</time>
      </trkpt>
      <trkpt lat="49.21147" lon="-0.54874">
        <ele>71.2</ele>
        <time>2023-05-25T13:38:10Z</time>
      </trkpt>
      <trkpt lat="49.21148" lon="-0.54866">
        <ele>71</ele>
        <time>2023-05-25T13:38:11Z</time>
      </trkpt>
      <trkpt lat="49.21148" lon="-0.54858">
        <ele>71</ele>
        <time>2023-05-25T13:38:12Z</time>
      </trkpt>
      <trkpt lat="49.21148" lon="-0.54849">
        <ele>71</ele>
        <time>2023-05-25T13:38:13Z</time>
      </trkpt>
      <trkpt lat="49.21148" lon="-0.54841">
        <ele>70.8</ele>
        <time>2023-05-25T13:38:14Z</time>
      </trkpt>
      <trkpt lat="49.21148" lon="-0.54833">
        <ele>70.6</ele>
        <time>2023-05-25T13:38:15Z</time>
      </trkpt>
      <trkpt lat="49.21148" lon="-0.54824">
        <ele>70.6</ele>
        <time>2023-05-25T13:38:16Z</time>
      </trkpt>
      <trkpt lat="49.21149" lon="-0.54816">
        <ele>70.6</ele>
        <time>2023-05-25T13:38:17Z</time>
      </trkpt>
      <trkpt lat="49.21149" lon="-0.54807">
        <ele>70.6</ele>
        <time>2023-05-25T13:38:18Z</time>
      </trkpt>
      <trkpt lat="49.21149" lon="-0.54799">
        <ele>70.6</ele>
        <time>2023-05-25T13:38:19Z</time>
      </trkpt>
      <trkpt lat="49.21149" lon="-0.54791">
        <ele>70.6</ele>
        <time>2023-05-25T13:38:20Z</time>
      </trkpt>
      <trkpt lat="49.2115" lon="-0.54782">
        <ele>70.6</ele>
        <time>2023-05-25T13:38:21Z</time>
      </trkpt>
      <trkpt lat="49.2115" lon="-0.54774">
        <ele>70.6</ele>
        <time>2023-05-25T13:38:22Z</time>
      </trkpt>
      <trkpt lat="49.2115" lon="-0.54766">
        <ele>70.4</ele>
        <time>2023-05-25T13:38:23Z</time>
      </trkpt>
      <trkpt lat="49.21151" lon="-0.54757">
        <ele>70.4</ele>
        <time>2023-05-25T13:38:24Z</time>
      </trkpt>
      <trkpt lat="49.21151" lon="-0.54749">
        <ele>70.4</ele>
        <time>2023-05-25T13:38:25Z</time>
      </trkpt>
      <trkpt lat="49.21151" lon="-0.54741">
        <ele>70.6</ele>
        <time>2023-05-25T13:38:26Z</time>
      </trkpt>
      <trkpt lat="49.21151" lon="-0.54733">
        <ele>70.6</ele>
        <time>2023-05-25T13:38:27Z</time>
      </trkpt>
      <trkpt lat="49.21151" lon="-0.54724">
        <ele>70.8</ele>
        <time>2023-05-25T13:38:28Z</time>
      </trkpt>
      <trkpt lat="49.21152" lon="-0.54716">
        <ele>71</ele>
        <time>2023-05-25T13:38:29Z</time>
      </trkpt>
      <trkpt lat="49.21152" lon="-0.54708">
        <ele>71</ele>
        <time>2023-05-25T13:38:30Z</time>
      </trkpt>
      <trkpt lat="49.21152" lon="-0.54699">
        <ele>71.2</ele>
        <time>2023-05-25T13:38:31Z</time>
      </trkpt>
      <trkpt lat="49.21152" lon="-0.54691">
        <ele>71.4</ele>
        <time>2023-05-25T13:38:32Z</time>
      </trkpt>
      <trkpt lat="49.21152" lon="-0.54682">
        <ele>71.6</ele>
        <time>2023-05-25T13:38:33Z</time>
      </trkpt>
      <trkpt lat="49.21152" lon="-0.54674">
        <ele>71.6</ele>
        <time>2023-05-25T13:38:34Z</time>
      </trkpt>
      <trkpt lat="49.21151" lon="-0.54665">
        <ele>71.8</ele>
        <time>2023-05-25T13:38:35Z</time>
      </trkpt>
      <trkpt lat="49.21151" lon="-0.54657">
        <ele>72</ele>
        <time>2023-05-25T13:38:36Z</time>
      </trkpt>
      <trkpt lat="49.2115" lon="-0.54648">
        <ele>72</ele>
        <time>2023-05-25T13:38:37Z</time>
      </trkpt>
      <trkpt lat="49.2115" lon="-0.5464">
        <ele>72.2</ele>
        <time>2023-05-25T13:38:38Z</time>
      </trkpt>
      <trkpt lat="49.21149" lon="-0.54631">
        <ele>72.4</ele>
        <time>2023-05-25T13:38:39Z</time>
      </trkpt>
      <trkpt lat="49.21148" lon="-0.54622">
        <ele>72.4</ele>
        <time>2023-05-25T13:38:40Z</time>
      </trkpt>
      <trkpt lat="49.21146" lon="-0.54614">
        <ele>72.6</ele>
        <time>2023-05-25T13:38:41Z</time>
      </trkpt>
      <trkpt lat="49.21144" lon="-0.54605">
        <ele>72.6</ele>
        <time>2023-05-25T13:38:42Z</time>
      </trkpt>
      <trkpt lat="49.21142" lon="-0.54597">
        <ele>72.8</ele>
        <time>2023-05-25T13:38:43Z</time>
      </trkpt>
      <trkpt lat="49.2114" lon="-0.54588">
        <ele>73</ele>
        <time>2023-05-25T13:38:44Z</time>
      </trkpt>
      <trkpt lat="49.21137" lon="-0.5458">
        <ele>73</ele>
        <time>2023-05-25T13:38:45Z</time>
      </trkpt>
      <trkpt lat="49.21134" lon="-0.54572">
        <ele>73</ele>
        <time>2023-05-25T13:38:46Z</time>
      </trkpt>
      <trkpt lat="49.2113" lon="-0.54564">
        <ele>72.8</ele>
        <time>2023-05-25T13:38:47Z</time>
      </trkpt>
      <trkpt lat="49.21126" lon="-0.54556">
        <ele>72.6</ele>
        <time>2023-05-25T13:38:48Z</time>
      </trkpt>
      <trkpt lat="49.21121" lon="-0.5455">
        <ele>72.6</ele>
        <time>2023-05-25T13:38:49Z</time>
      </trkpt>
      <trkpt lat="49.21116" lon="-0.54543">
        <ele>72.6</ele>
        <time>2023-05-25T13:38:50Z</time>
      </trkpt>
      <trkpt lat="49.21111" lon="-0.54537">
        <ele>72.4</ele>
        <time>2023-05-25T13:38:51Z</time>
      </trkpt>
      <trkpt lat="49.21106" lon="-0.5453">
        <ele>72.4</ele>
        <time>2023-05-25T13:38:52Z</time>
      </trkpt>
      <trkpt lat="49.21101" lon="-0.54523">
        <ele>72.4</ele>
        <time>2023-05-25T13:38:53Z</time>
      </trkpt>
      <trkpt lat="49.21096" lon="-0.54517">
        <ele>72.2</ele>
        <time>2023-05-25T13:38:54Z</time>
      </trkpt>
      <trkpt lat="49.21091" lon="-0.5451">
        <ele>72</ele>
        <time>2023-05-25T13:38:55Z</time>
      </trkpt>
      <trkpt lat="49.21086" lon="-0.54503">
        <ele>72</ele>
        <time>2023-05-25T13:38:56Z</time>
      </trkpt>
      <trkpt lat="49.2108" lon="-0.54497">
        <ele>72</ele>
        <time>2023-05-25T13:38:57Z</time>
      </trkpt>
      <trkpt lat="49.21075" lon="-0.5449">
        <ele>72</ele>
        <time>2023-05-25T13:38:58Z</time>
      </trkpt>
      <trkpt lat="49.2107" lon="-0.54483">
        <ele>72</ele>
        <time>2023-05-25T13:38:59Z</time>
      </trkpt>
      <trkpt lat="49.21065" lon="-0.54476">
        <ele>72</ele>
        <time>2023-05-25T13:39:00Z</time>
      </trkpt>
      <trkpt lat="49.2106" lon="-0.54469">
        <ele>72</ele>
        <time>2023-05-25T13:39:01Z</time>
      </trkpt>
      <trkpt lat="49.21056" lon="-0.54462">
        <ele>72</ele>
        <time>2023-05-25T13:39:02Z</time>
      </trkpt>
      <trkpt lat="49.21052" lon="-0.54455">
        <ele>72</ele>
        <time>2023-05-25T13:39:03Z</time>
      </trkpt>
      <trkpt lat="49.21047" lon="-0.54449">
        <ele>72</ele>
        <time>2023-05-25T13:39:04Z</time>
      </trkpt>
      <trkpt lat="49.21043" lon="-0.54442">
        <ele>72</ele>
        <time>2023-05-25T13:39:05Z</time>
      </trkpt>
      <trkpt lat="49.21039" lon="-0.54436">
        <ele>72</ele>
        <time>2023-05-25T13:39:06Z</time>
      </trkpt>
      <trkpt lat="49.21035" lon="-0.5443">
        <ele>72</ele>
        <time>2023-05-25T13:39:07Z</time>
      </trkpt>
      <trkpt lat="49.21033" lon="-0.54423">
        <ele>72</ele>
        <time>2023-05-25T13:39:08Z</time>
      </trkpt>
      <trkpt lat="49.21032" lon="-0.54417">
        <ele>72</ele>
        <time>2023-05-25T13:39:09Z</time>
      </trkpt>
      <trkpt lat="49.21033" lon="-0.5441">
        <ele>72</ele>
        <time>2023-05-25T13:39:10Z</time>
      </trkpt>
      <trkpt lat="49.21035" lon="-0.54405">
        <ele>72</ele>
        <time>2023-05-25T13:39:11Z</time>
      </trkpt>
      <trkpt lat="49.21038" lon="-0.54399">
        <ele>72</ele>
        <time>2023-05-25T13:39:12Z</time>
      </trkpt>
      <trkpt lat="49.21042" lon="-0.54394">
        <ele>72</ele>
        <time>2023-05-25T13:39:13Z</time>
      </trkpt>
      <trkpt lat="49.21045" lon="-0.54388">
        <ele>72</ele>
        <time>2023-05-25T13:39:14Z</time>
      </trkpt>
      <trkpt lat="49.21048" lon="-0.54383">
        <ele>72</ele>
        <time>2023-05-25T13:39:15Z</time>
      </trkpt>
      <trkpt lat="49.21052" lon="-0.54377">
        <ele>72</ele>
        <time>2023-05-25T13:39:16Z</time>
      </trkpt>
      <trkpt lat="49.21055" lon="-0.54371">
        <ele>72</ele>
        <time>2023-05-25T13:39:17Z</time>
      </trkpt>
      <trkpt lat="49.21059" lon="-0.54364">
        <ele>72</ele>
        <time>2023-05-25T13:39:18Z</time>
      </trkpt>
      <trkpt lat="49.21062" lon="-0.54358">
        <ele>72</ele>
        <time>2023-05-25T13:39:19Z</time>
      </trkpt>
      <trkpt lat="49.21066" lon="-0.54351">
        <ele>72</ele>
        <time>2023-05-25T13:39:20Z</time>
      </trkpt>
      <trkpt lat="49.21069" lon="-0.54344">
        <ele>72</ele>
        <time>2023-05-25T13:39:21Z</time>
      </trkpt>
      <trkpt lat="49.21072" lon="-0.54337">
        <ele>72</ele>
        <time>2023-05-25T13:39:22Z</time>
      </trkpt>
      <trkpt lat="49.21075" lon="-0.5433">
        <ele>72</ele>
        <time>2023-05-25T13:39:23Z</time>
      </trkpt>
      <trkpt lat="49.21079" lon="-0.54323">
        <ele>71.8</ele>
        <time>2023-05-25T13:39:24Z</time>
      </trkpt>
      <trkpt lat="49.21082" lon="-0.54316">
        <ele>71.6</ele>
        <time>2023-05-25T13:39:25Z</time>
      </trkpt>
      <trkpt lat="49.21086" lon="-0.5431">
        <ele>71.4</ele>
        <time>2023-05-25T13:39:26Z</time>
      </trkpt>
      <trkpt lat="49.2109" lon="-0.54303">
        <ele>71.2</ele>
        <time>2023-05-25T13:39:27Z</time>
      </trkpt>
      <trkpt lat="49.21094" lon="-0.54297">
        <ele>71</ele>
        <time>2023-05-25T13:39:28Z</time>
      </trkpt>
      <trkpt lat="49.21098" lon="-0.54291">
        <ele>71</ele>
        <time>2023-05-25T13:39:29Z</time>
      </trkpt>
      <trkpt lat="49.21102" lon="-0.54285">
        <ele>70.8</ele>
        <time>2023-05-25T13:39:30Z</time>
      </trkpt>
      <trkpt lat="49.21106" lon="-0.5428">
        <ele>70.6</ele>
        <time>2023-05-25T13:39:31Z</time>
      </trkpt>
      <trkpt lat="49.2111" lon="-0.54274">
        <ele>70.6</ele>
        <time>2023-05-25T13:39:32Z</time>
      </trkpt>
      <trkpt lat="49.21114" lon="-0.54268">
        <ele>70.4</ele>
        <time>2023-05-25T13:39:33Z</time>
      </trkpt>
      <trkpt lat="49.21118" lon="-0.54263">
        <ele>70.2</ele>
        <time>2023-05-25T13:39:34Z</time>
      </trkpt>
      <trkpt lat="49.21123" lon="-0.54257">
        <ele>70</ele>
        <time>2023-05-25T13:39:35Z</time>
      </trkpt>
      <trkpt lat="49.21127" lon="-0.54251">
        <ele>70</ele>
        <time>2023-05-25T13:39:36Z</time>
      </trkpt>
      <trkpt lat="49.21131" lon="-0.54245">
        <ele>70</ele>
        <time>2023-05-25T13:39:37Z</time>
      </trkpt>
      <trkpt lat="49.21135" lon="-0.54239">
        <ele>70</ele>
        <time>2023-05-25T13:39:38Z</time>
      </trkpt>
      <trkpt lat="49.21139" lon="-0.54233">
        <ele>70</ele>
        <time>2023-05-25T13:39:39Z</time>
      </trkpt>
      <trkpt lat="49.21143" lon="-0.54226">
        <ele>70</ele>
        <time>2023-05-25T13:39:40Z</time>
      </trkpt>
      <trkpt lat="49.21147" lon="-0.5422">
        <ele>70</ele>
        <time>2023-05-25T13:39:41Z</time>
      </trkpt>
      <trkpt lat="49.21151" lon="-0.54212">
        <ele>70</ele>
        <time>2023-05-25T13:39:42Z</time>
      </trkpt>
      <trkpt lat="49.21154" lon="-0.54205">
        <ele>70</ele>
        <time>2023-05-25T13:39:43Z</time>
      </trkpt>
      <trkpt lat="49.21158" lon="-0.54198">
        <ele>70</ele>
        <time>2023-05-25T13:39:44Z</time>
      </trkpt>
      <trkpt lat="49.21162" lon="-0.5419">
        <ele>70</ele>
        <time>2023-05-25T13:39:45Z</time>
      </trkpt>
      <trkpt lat="49.21165" lon="-0.54183">
        <ele>70</ele>
        <time>2023-05-25T13:39:46Z</time>
      </trkpt>
      <trkpt lat="49.21169" lon="-0.54175">
        <ele>70</ele>
        <time>2023-05-25T13:39:47Z</time>
      </trkpt>
      <trkpt lat="49.21173" lon="-0.54167">
        <ele>70</ele>
        <time>2023-05-25T13:39:48Z</time>
      </trkpt>
      <trkpt lat="49.21176" lon="-0.5416">
        <ele>70.4</ele>
        <time>2023-05-25T13:39:49Z</time>
      </trkpt>
      <trkpt lat="49.2118" lon="-0.54153">
        <ele>70.6</ele>
        <time>2023-05-25T13:39:50Z</time>
      </trkpt>
      <trkpt lat="49.21184" lon="-0.54146">
        <ele>70.6</ele>
        <time>2023-05-25T13:39:51Z</time>
      </trkpt>
      <trkpt lat="49.21188" lon="-0.5414">
        <ele>71</ele>
        <time>2023-05-25T13:39:52Z</time>
      </trkpt>
      <trkpt lat="49.21193" lon="-0.54134">
        <ele>71</ele>
        <time>2023-05-25T13:39:53Z</time>
      </trkpt>
      <trkpt lat="49.21197" lon="-0.54129">
        <ele>71.4</ele>
        <time>2023-05-25T13:39:54Z</time>
      </trkpt>
      <trkpt lat="49.21202" lon="-0.54124">
        <ele>71.4</ele>
        <time>2023-05-25T13:39:55Z</time>
      </trkpt>
      <trkpt lat="49.21207" lon="-0.5412">
        <ele>71.6</ele>
        <time>2023-05-25T13:39:56Z</time>
      </trkpt>
      <trkpt lat="49.21212" lon="-0.54117">
        <ele>71.6</ele>
        <time>2023-05-25T13:39:57Z</time>
      </trkpt>
      <trkpt lat="49.21217" lon="-0.54115">
        <ele>71.8</ele>
        <time>2023-05-25T13:39:58Z</time>
      </trkpt>
      <trkpt lat="49.21223" lon="-0.54114">
        <ele>72</ele>
        <time>2023-05-25T13:39:59Z</time>
      </trkpt>
      <trkpt lat="49.21228" lon="-0.54114">
        <ele>72</ele>
        <time>2023-05-25T13:40:00Z</time>
      </trkpt>
      <trkpt lat="49.21233" lon="-0.54116">
        <ele>72</ele>
        <time>2023-05-25T13:40:01Z</time>
      </trkpt>
      <trkpt lat="49.21239" lon="-0.54118">
        <ele>72</ele>
        <time>2023-05-25T13:40:02Z</time>
      </trkpt>
      <trkpt lat="49.21244" lon="-0.5412">
        <ele>72</ele>
        <time>2023-05-25T13:40:03Z</time>
      </trkpt>
      <trkpt lat="49.21249" lon="-0.54123">
        <ele>72</ele>
        <time>2023-05-25T13:40:04Z</time>
      </trkpt>
      <trkpt lat="49.21254" lon="-0.54125">
        <ele>72</ele>
        <time>2023-05-25T13:40:05Z</time>
      </trkpt>
      <trkpt lat="49.2126" lon="-0.54127">
        <ele>72</ele>
        <time>2023-05-25T13:40:06Z</time>
      </trkpt>
      <trkpt lat="49.21265" lon="-0.5413">
        <ele>72</ele>
        <time>2023-05-25T13:40:07Z</time>
      </trkpt>
      <trkpt lat="49.21271" lon="-0.54131">
        <ele>71.8</ele>
        <time>2023-05-25T13:40:08Z</time>
      </trkpt>
      <trkpt lat="49.21276" lon="-0.54132">
        <ele>71.8</ele>
        <time>2023-05-25T13:40:09Z</time>
      </trkpt>
      <trkpt lat="49.21282" lon="-0.5413">
        <ele>72</ele>
        <time>2023-05-25T13:40:10Z</time>
      </trkpt>
      <trkpt lat="49.21287" lon="-0.54128">
        <ele>72</ele>
        <time>2023-05-25T13:40:11Z</time>
      </trkpt>
      <trkpt lat="49.21291" lon="-0.54124">
        <ele>72</ele>
        <time>2023-05-25T13:40:12Z</time>
      </trkpt>
      <trkpt lat="49.21296" lon="-0.54119">
        <ele>72</ele>
        <time>2023-05-25T13:40:13Z</time>
      </trkpt>
      <trkpt lat="49.21299" lon="-0.54114">
        <ele>72.4</ele>
        <time>2023-05-25T13:40:14Z</time>
      </trkpt>
      <trkpt lat="49.21303" lon="-0.54109">
        <ele>72.4</ele>
        <time>2023-05-25T13:40:15Z</time>
      </trkpt>
      <trkpt lat="49.21306" lon="-0.54103">
        <ele>72.6</ele>
        <time>2023-05-25T13:40:16Z</time>
      </trkpt>
      <trkpt lat="49.21309" lon="-0.54098">
        <ele>72.6</ele>
        <time>2023-05-25T13:40:17Z</time>
      </trkpt>
      <trkpt lat="49.21312" lon="-0.54093">
        <ele>72.8</ele>
        <time>2023-05-25T13:40:18Z</time>
      </trkpt>
      <trkpt lat="49.21315" lon="-0.54089">
        <ele>73</ele>
        <time>2023-05-25T13:40:19Z</time>
      </trkpt>
      <trkpt lat="49.21318" lon="-0.54084">
        <ele>73</ele>
        <time>2023-05-25T13:40:20Z</time>
      </trkpt>
      <trkpt lat="49.21321" lon="-0.5408">
        <ele>73</ele>
        <time>2023-05-25T13:40:21Z</time>
      </trkpt>
      <trkpt lat="49.21324" lon="-0.54074">
        <ele>73</ele>
        <time>2023-05-25T13:40:22Z</time>
      </trkpt>
      <trkpt lat="49.21327" lon="-0.54069">
        <ele>73</ele>
        <time>2023-05-25T13:40:23Z</time>
      </trkpt>
      <trkpt lat="49.2133" lon="-0.54064">
        <ele>72.8</ele>
        <time>2023-05-25T13:40:24Z</time>
      </trkpt>
      <trkpt lat="49.21333" lon="-0.54059">
        <ele>72.6</ele>
        <time>2023-05-25T13:40:25Z</time>
      </trkpt>
      <trkpt lat="49.21336" lon="-0.54053">
        <ele>72.6</ele>
        <time>2023-05-25T13:40:26Z</time>
      </trkpt>
      <trkpt lat="49.21339" lon="-0.54048">
        <ele>72.6</ele>
        <time>2023-05-25T13:40:27Z</time>
      </trkpt>
      <trkpt lat="49.21342" lon="-0.54043">
        <ele>72.4</ele>
        <time>2023-05-25T13:40:28Z</time>
      </trkpt>
      <trkpt lat="49.21346" lon="-0.54037">
        <ele>72.2</ele>
        <time>2023-05-25T13:40:29Z</time>
      </trkpt>
      <trkpt lat="49.21349" lon="-0.54031">
        <ele>72</ele>
        <time>2023-05-25T13:40:30Z</time>
      </trkpt>
      <trkpt lat="49.21352" lon="-0.54025">
        <ele>72</ele>
        <time>2023-05-25T13:40:31Z</time>
      </trkpt>
      <trkpt lat="49.21356" lon="-0.5402">
        <ele>72</ele>
        <time>2023-05-25T13:40:32Z</time>
      </trkpt>
      <trkpt lat="49.21359" lon="-0.54014">
        <ele>71.8</ele>
        <time>2023-05-25T13:40:33Z</time>
      </trkpt>
      <trkpt lat="49.21363" lon="-0.54008">
        <ele>71.6</ele>
        <time>2023-05-25T13:40:34Z</time>
      </trkpt>
      <trkpt lat="49.21367" lon="-0.54002">
        <ele>71.6</ele>
        <time>2023-05-25T13:40:35Z</time>
      </trkpt>
      <trkpt lat="49.2137" lon="-0.53996">
        <ele>71.6</ele>
        <time>2023-05-25T13:40:36Z</time>
      </trkpt>
      <trkpt lat="49.21374" lon="-0.53989">
        <ele>71.6</ele>
        <time>2023-05-25T13:40:37Z</time>
      </trkpt>
      <trkpt lat="49.21378" lon="-0.53983">
        <ele>71.4</ele>
        <time>2023-05-25T13:40:38Z</time>
      </trkpt>
      <trkpt lat="49.21381" lon="-0.53977">
        <ele>71.4</ele>
        <time>2023-05-25T13:40:39Z</time>
      </trkpt>
      <trkpt lat="49.21385" lon="-0.53971">
        <ele>71.2</ele>
        <time>2023-05-25T13:40:40Z</time>
      </trkpt>
      <trkpt lat="49.21389" lon="-0.53964">
        <ele>71</ele>
        <time>2023-05-25T13:40:41Z</time>
      </trkpt>
      <trkpt lat="49.21393" lon="-0.53957">
        <ele>71</ele>
        <time>2023-05-25T13:40:42Z</time>
      </trkpt>
      <trkpt lat="49.21397" lon="-0.53951">
        <ele>70.8</ele>
        <time>2023-05-25T13:40:43Z</time>
      </trkpt>
      <trkpt lat="49.21401" lon="-0.53944">
        <ele>70.6</ele>
        <time>2023-05-25T13:40:44Z</time>
      </trkpt>
      <trkpt lat="49.21405" lon="-0.53937">
        <ele>70.6</ele>
        <time>2023-05-25T13:40:45Z</time>
      </trkpt>
      <trkpt lat="49.21409" lon="-0.5393">
        <ele>70.4</ele>
        <time>2023-05-25T13:40:46Z</time>
      </trkpt>
      <trkpt lat="49.21413" lon="-0.53923">
        <ele>70.2</ele>
        <time>2023-05-25T13:40:47Z</time>
      </trkpt>
      <trkpt lat="49.21417" lon="-0.53915">
        <ele>70</ele>
        <time>2023-05-25T13:40:48Z</time>
      </trkpt>
      <trkpt lat="49.2142" lon="-0.53907">
        <ele>70.2</ele>
        <time>2023-05-25T13:40:49Z</time>
      </trkpt>
      <trkpt lat="49.21422" lon="-0.53899">
        <ele>70.4</ele>
        <time>2023-05-25T13:40:50Z</time>
      </trkpt>
      <trkpt lat="49.21423" lon="-0.5389">
        <ele>70.6</ele>
        <time>2023-05-25T13:40:51Z</time>
      </trkpt>
      <trkpt lat="49.21423" lon="-0.53881">
        <ele>70.8</ele>
        <time>2023-05-25T13:40:52Z</time>
      </trkpt>
      <trkpt lat="49.21421" lon="-0.53872">
        <ele>71</ele>
        <time>2023-05-25T13:40:53Z</time>
      </trkpt>
      <trkpt lat="49.21418" lon="-0.53864">
        <ele>71.2</ele>
        <time>2023-05-25T13:40:54Z</time>
      </trkpt>
      <trkpt lat="49.21414" lon="-0.53857">
        <ele>71.4</ele>
        <time>2023-05-25T13:40:55Z</time>
      </trkpt>
      <trkpt lat="49.2141" lon="-0.53851">
        <ele>71.6</ele>
        <time>2023-05-25T13:40:56Z</time>
      </trkpt>
      <trkpt lat="49.21405" lon="-0.53845">
        <ele>71.6</ele>
        <time>2023-05-25T13:40:57Z</time>
      </trkpt>
      <trkpt lat="49.214" lon="-0.5384">
        <ele>71.6</ele>
        <time>2023-05-25T13:40:58Z</time>
      </trkpt>
      <trkpt lat="49.21395" lon="-0.53835">
        <ele>71.6</ele>
        <time>2023-05-25T13:40:59Z</time>
      </trkpt>
      <trkpt lat="49.2139" lon="-0.5383">
        <ele>71.6</ele>
        <time>2023-05-25T13:41:00Z</time>
      </trkpt>
      <trkpt lat="49.21384" lon="-0.53825">
        <ele>71.6</ele>
        <time>2023-05-25T13:41:01Z</time>
      </trkpt>
      <trkpt lat="49.21379" lon="-0.53821">
        <ele>71.6</ele>
        <time>2023-05-25T13:41:02Z</time>
      </trkpt>
      <trkpt lat="49.21374" lon="-0.53816">
        <ele>71.6</ele>
        <time>2023-05-25T13:41:03Z</time>
      </trkpt>
      <trkpt lat="49.21369" lon="-0.53812">
        <ele>71.4</ele>
        <time>2023-05-25T13:41:04Z</time>
      </trkpt>
      <trkpt lat="49.21364" lon="-0.53807">
        <ele>71.4</ele>
        <time>2023-05-25T13:41:05Z</time>
      </trkpt>
      <trkpt lat="49.21358" lon="-0.53803">
        <ele>71.4</ele>
        <time>2023-05-25T13:41:06Z</time>
      </trkpt>
      <trkpt lat="49.21353" lon="-0.53798">
        <ele>71.2</ele>
        <time>2023-05-25T13:41:07Z</time>
      </trkpt>
      <trkpt lat="49.21347" lon="-0.53794">
        <ele>71.2</ele>
        <time>2023-05-25T13:41:08Z</time>
      </trkpt>
      <trkpt lat="49.21342" lon="-0.53789">
        <ele>71</ele>
        <time>2023-05-25T13:41:09Z</time>
      </trkpt>
      <trkpt lat="49.21336" lon="-0.53784">
        <ele>71</ele>
        <time>2023-05-25T13:41:10Z</time>
      </trkpt>
      <trkpt lat="49.21331" lon="-0.53779">
        <ele>71</ele>
        <time>2023-05-25T13:41:11Z</time>
      </trkpt>
      <trkpt lat="49.21326" lon="-0.53774">
        <ele>71</ele>
        <time>2023-05-25T13:41:12Z</time>
      </trkpt>
      <trkpt lat="49.21321" lon="-0.53767">
        <ele>71</ele>
        <time>2023-05-25T13:41:13Z</time>
      </trkpt>
      <trkpt lat="49.21316" lon="-0.5376">
        <ele>71</ele>
        <time>2023-05-25T13:41:14Z</time>
      </trkpt>
      <trkpt lat="49.21312" lon="-0.53752">
        <ele>71</ele>
        <time>2023-05-25T13:41:15Z</time>
      </trkpt>
      <trkpt lat="49.21309" lon="-0.53743">
        <ele>71</ele>
        <time>2023-05-25T13:41:16Z</time>
      </trkpt>
      <trkpt lat="49.21306" lon="-0.53733">
        <ele>70.8</ele>
        <time>2023-05-25T13:41:17Z</time>
      </trkpt>
      <trkpt lat="49.21304" lon="-0.53723">
        <ele>70.6</ele>
        <time>2023-05-25T13:41:18Z</time>
      </trkpt>
      <trkpt lat="49.21302" lon="-0.53713">
        <ele>70.6</ele>
        <time>2023-05-25T13:41:19Z</time>
      </trkpt>
      <trkpt lat="49.213" lon="-0.53703">
        <ele>70.4</ele>
        <time>2023-05-25T13:41:20Z</time>
      </trkpt>
      <trkpt lat="49.21298" lon="-0.53693">
        <ele>70.4</ele>
        <time>2023-05-25T13:41:21Z</time>
      </trkpt>
      <trkpt lat="49.21295" lon="-0.53683">
        <ele>70.2</ele>
        <time>2023-05-25T13:41:22Z</time>
      </trkpt>
      <trkpt lat="49.21293" lon="-0.53674">
        <ele>70</ele>
        <time>2023-05-25T13:41:23Z</time>
      </trkpt>
      <trkpt lat="49.21291" lon="-0.53664">
        <ele>70</ele>
        <time>2023-05-25T13:41:24Z</time>
      </trkpt>
      <trkpt lat="49.21289" lon="-0.53654">
        <ele>69.8</ele>
        <time>2023-05-25T13:41:25Z</time>
      </trkpt>
      <trkpt lat="49.21287" lon="-0.53644">
        <ele>69.6</ele>
        <time>2023-05-25T13:41:26Z</time>
      </trkpt>
      <trkpt lat="49.21285" lon="-0.53635">
        <ele>69.6</ele>
        <time>2023-05-25T13:41:27Z</time>
      </trkpt>
      <trkpt lat="49.21283" lon="-0.53625">
        <ele>69.4</ele>
        <time>2023-05-25T13:41:28Z</time>
      </trkpt>
      <trkpt lat="49.21281" lon="-0.53616">
        <ele>69.2</ele>
        <time>2023-05-25T13:41:29Z</time>
      </trkpt>
      <trkpt lat="49.21279" lon="-0.53607">
        <ele>69</ele>
        <time>2023-05-25T13:41:30Z</time>
      </trkpt>
      <trkpt lat="49.21278" lon="-0.53597">
        <ele>69</ele>
        <time>2023-05-25T13:41:31Z</time>
      </trkpt>
      <trkpt lat="49.21276" lon="-0.53587">
        <ele>68.6</ele>
        <time>2023-05-25T13:41:32Z</time>
      </trkpt>
      <trkpt lat="49.21274" lon="-0.53576">
        <ele>68.6</ele>
        <time>2023-05-25T13:41:33Z</time>
      </trkpt>
      <trkpt lat="49.21273" lon="-0.53566">
        <ele>68.4</ele>
        <time>2023-05-25T13:41:34Z</time>
      </trkpt>
      <trkpt lat="49.21272" lon="-0.53555">
        <ele>68</ele>
        <time>2023-05-25T13:41:35Z</time>
      </trkpt>
      <trkpt lat="49.2127" lon="-0.53545">
        <ele>67.8</ele>
        <time>2023-05-25T13:41:36Z</time>
      </trkpt>
      <trkpt lat="49.21269" lon="-0.53534">
        <ele>67.6</ele>
        <time>2023-05-25T13:41:37Z</time>
      </trkpt>
      <trkpt lat="49.21269" lon="-0.53523">
        <ele>67.4</ele>
        <time>2023-05-25T13:41:38Z</time>
      </trkpt>
      <trkpt lat="49.21268" lon="-0.53512">
        <ele>67</ele>
        <time>2023-05-25T13:41:39Z</time>
      </trkpt>
      <trkpt lat="49.21267" lon="-0.53501">
        <ele>66.8</ele>
        <time>2023-05-25T13:41:40Z</time>
      </trkpt>
      <trkpt lat="49.21266" lon="-0.53491">
        <ele>66.8</ele>
        <time>2023-05-25T13:41:41Z</time>
      </trkpt>
      <trkpt lat="49.21266" lon="-0.5348">
        <ele>67</ele>
        <time>2023-05-25T13:41:42Z</time>
      </trkpt>
      <trkpt lat="49.21266" lon="-0.53469">
        <ele>67</ele>
        <time>2023-05-25T13:41:43Z</time>
      </trkpt>
      <trkpt lat="49.21265" lon="-0.53459">
        <ele>67</ele>
        <time>2023-05-25T13:41:44Z</time>
      </trkpt>
      <trkpt lat="49.21265" lon="-0.53448">
        <ele>67</ele>
        <time>2023-05-25T13:41:45Z</time>
      </trkpt>
      <trkpt lat="49.21264" lon="-0.53438">
        <ele>67</ele>
        <time>2023-05-25T13:41:46Z</time>
      </trkpt>
      <trkpt lat="49.21264" lon="-0.53428">
        <ele>67</ele>
        <time>2023-05-25T13:41:47Z</time>
      </trkpt>
      <trkpt lat="49.21264" lon="-0.53418">
        <ele>67</ele>
        <time>2023-05-25T13:41:48Z</time>
      </trkpt>
      <trkpt lat="49.21264" lon="-0.53407">
        <ele>67</ele>
        <time>2023-05-25T13:41:49Z</time>
      </trkpt>
      <trkpt lat="49.21263" lon="-0.53397">
        <ele>66.8</ele>
        <time>2023-05-25T13:41:50Z</time>
      </trkpt>
      <trkpt lat="49.21263" lon="-0.53387">
        <ele>66.6</ele>
        <time>2023-05-25T13:41:51Z</time>
      </trkpt>
      <trkpt lat="49.21263" lon="-0.53377">
        <ele>66.6</ele>
        <time>2023-05-25T13:41:52Z</time>
      </trkpt>
      <trkpt lat="49.21263" lon="-0.53367">
        <ele>66.4</ele>
        <time>2023-05-25T13:41:53Z</time>
      </trkpt>
      <trkpt lat="49.21263" lon="-0.53356">
        <ele>66.4</ele>
        <time>2023-05-25T13:41:54Z</time>
      </trkpt>
      <trkpt lat="49.21262" lon="-0.53346">
        <ele>66.2</ele>
        <time>2023-05-25T13:41:55Z</time>
      </trkpt>
      <trkpt lat="49.21262" lon="-0.53336">
        <ele>66</ele>
        <time>2023-05-25T13:41:56Z</time>
      </trkpt>
      <trkpt lat="49.21262" lon="-0.53326">
        <ele>65.8</ele>
        <time>2023-05-25T13:41:57Z</time>
      </trkpt>
      <trkpt lat="49.21262" lon="-0.53315">
        <ele>65.6</ele>
        <time>2023-05-25T13:41:58Z</time>
      </trkpt>
      <trkpt lat="49.21262" lon="-0.53305">
        <ele>65.4</ele>
        <time>2023-05-25T13:41:59Z</time>
      </trkpt>
      <trkpt lat="49.21261" lon="-0.53294">
        <ele>65.2</ele>
        <time>2023-05-25T13:42:00Z</time>
      </trkpt>
      <trkpt lat="49.21261" lon="-0.53284">
        <ele>65</ele>
        <time>2023-05-25T13:42:01Z</time>
      </trkpt>
      <trkpt lat="49.2126" lon="-0.53273">
        <ele>64.6</ele>
        <time>2023-05-25T13:42:02Z</time>
      </trkpt>
      <trkpt lat="49.2126" lon="-0.53263">
        <ele>64.6</ele>
        <time>2023-05-25T13:42:03Z</time>
      </trkpt>
      <trkpt lat="49.2126" lon="-0.53252">
        <ele>64.4</ele>
        <time>2023-05-25T13:42:04Z</time>
      </trkpt>
      <trkpt lat="49.21259" lon="-0.53242">
        <ele>64.2</ele>
        <time>2023-05-25T13:42:05Z</time>
      </trkpt>
      <trkpt lat="49.21258" lon="-0.53231">
        <ele>64.2</ele>
        <time>2023-05-25T13:42:06Z</time>
      </trkpt>
      <trkpt lat="49.21257" lon="-0.53221">
        <ele>64.2</ele>
        <time>2023-05-25T13:42:07Z</time>
      </trkpt>
      <trkpt lat="49.21256" lon="-0.53211">
        <ele>64</ele>
        <time>2023-05-25T13:42:08Z</time>
      </trkpt>
      <trkpt lat="49.21255" lon="-0.532">
        <ele>64</ele>
        <time>2023-05-25T13:42:09Z</time>
      </trkpt>
      <trkpt lat="49.21254" lon="-0.5319">
        <ele>64</ele>
        <time>2023-05-25T13:42:10Z</time>
      </trkpt>
      <trkpt lat="49.21253" lon="-0.5318">
        <ele>64</ele>
        <time>2023-05-25T13:42:11Z</time>
      </trkpt>
      <trkpt lat="49.21252" lon="-0.53169">
        <ele>64</ele>
        <time>2023-05-25T13:42:12Z</time>
      </trkpt>
      <trkpt lat="49.21251" lon="-0.53159">
        <ele>64</ele>
        <time>2023-05-25T13:42:13Z</time>
      </trkpt>
      <trkpt lat="49.2125" lon="-0.53149">
        <ele>64</ele>
        <time>2023-05-25T13:42:14Z</time>
      </trkpt>
      <trkpt lat="49.21249" lon="-0.53139">
        <ele>64</ele>
        <time>2023-05-25T13:42:15Z</time>
      </trkpt>
      <trkpt lat="49.21248" lon="-0.53129">
        <ele>64</ele>
        <time>2023-05-25T13:42:16Z</time>
      </trkpt>
      <trkpt lat="49.21247" lon="-0.53119">
        <ele>64</ele>
        <time>2023-05-25T13:42:17Z</time>
      </trkpt>
      <trkpt lat="49.21246" lon="-0.53109">
        <ele>64</ele>
        <time>2023-05-25T13:42:18Z</time>
      </trkpt>
      <trkpt lat="49.21245" lon="-0.53098">
        <ele>64</ele>
        <time>2023-05-25T13:42:19Z</time>
      </trkpt>
      <trkpt lat="49.21244" lon="-0.53088">
        <ele>64</ele>
        <time>2023-05-25T13:42:20Z</time>
      </trkpt>
      <trkpt lat="49.21244" lon="-0.53078">
        <ele>63.8</ele>
        <time>2023-05-25T13:42:21Z</time>
      </trkpt>
      <trkpt lat="49.21243" lon="-0.53068">
        <ele>63.8</ele>
        <time>2023-05-25T13:42:22Z</time>
      </trkpt>
      <trkpt lat="49.21243" lon="-0.53058">
        <ele>63.6</ele>
        <time>2023-05-25T13:42:23Z</time>
      </trkpt>
      <trkpt lat="49.21243" lon="-0.53048">
        <ele>63.6</ele>
        <time>2023-05-25T13:42:24Z</time>
      </trkpt>
      <trkpt lat="49.21243" lon="-0.53038">
        <ele>63.4</ele>
        <time>2023-05-25T13:42:25Z</time>
      </trkpt>
      <trkpt lat="49.21243" lon="-0.53028">
        <ele>63.2</ele>
        <time>2023-05-25T13:42:26Z</time>
      </trkpt>
      <trkpt lat="49.21243" lon="-0.53018">
        <ele>63.2</ele>
        <time>2023-05-25T13:42:27Z</time>
      </trkpt>
      <trkpt lat="49.21244" lon="-0.53008">
        <ele>63</ele>
        <time>2023-05-25T13:42:28Z</time>
      </trkpt>
      <trkpt lat="49.21244" lon="-0.52998">
        <ele>63</ele>
        <time>2023-05-25T13:42:29Z</time>
      </trkpt>
      <trkpt lat="49.21244" lon="-0.52988">
        <ele>63</ele>
        <time>2023-05-25T13:42:30Z</time>
      </trkpt>
      <trkpt lat="49.21245" lon="-0.52978">
        <ele>63</ele>
        <time>2023-05-25T13:42:31Z</time>
      </trkpt>
      <trkpt lat="49.21246" lon="-0.52968">
        <ele>63</ele>
        <time>2023-05-25T13:42:32Z</time>
      </trkpt>
      <trkpt lat="49.21246" lon="-0.52959">
        <ele>63</ele>
        <time>2023-05-25T13:42:33Z</time>
      </trkpt>
      <trkpt lat="49.21247" lon="-0.52949">
        <ele>63</ele>
        <time>2023-05-25T13:42:34Z</time>
      </trkpt>
      <trkpt lat="49.21247" lon="-0.52939">
        <ele>63</ele>
        <time>2023-05-25T13:42:35Z</time>
      </trkpt>
      <trkpt lat="49.21248" lon="-0.52929">
        <ele>63</ele>
        <time>2023-05-25T13:42:36Z</time>
      </trkpt>
      <trkpt lat="49.21248" lon="-0.52919">
        <ele>63</ele>
        <time>2023-05-25T13:42:37Z</time>
      </trkpt>
      <trkpt lat="49.21249" lon="-0.52909">
        <ele>63</ele>
        <time>2023-05-25T13:42:38Z</time>
      </trkpt>
      <trkpt lat="49.21249" lon="-0.52899">
        <ele>63</ele>
        <time>2023-05-25T13:42:39Z</time>
      </trkpt>
      <trkpt lat="49.21249" lon="-0.5289">
        <ele>63</ele>
        <time>2023-05-25T13:42:40Z</time>
      </trkpt>
      <trkpt lat="49.21249" lon="-0.5288">
        <ele>63</ele>
        <time>2023-05-25T13:42:41Z</time>
      </trkpt>
      <trkpt lat="49.21249" lon="-0.5287">
        <ele>63</ele>
        <time>2023-05-25T13:42:42Z</time>
      </trkpt>
      <trkpt lat="49.21249" lon="-0.5286">
        <ele>63</ele>
        <time>2023-05-25T13:42:43Z</time>
      </trkpt>
      <trkpt lat="49.21249" lon="-0.5285">
        <ele>63</ele>
        <time>2023-05-25T13:42:44Z</time>
      </trkpt>
      <trkpt lat="49.21248" lon="-0.5284">
        <ele>63</ele>
        <time>2023-05-25T13:42:45Z</time>
      </trkpt>
      <trkpt lat="49.21248" lon="-0.52829">
        <ele>63</ele>
        <time>2023-05-25T13:42:46Z</time>
      </trkpt>
      <trkpt lat="49.21247" lon="-0.52819">
        <ele>63</ele>
        <time>2023-05-25T13:42:47Z</time>
      </trkpt>
      <trkpt lat="49.21247" lon="-0.5281">
        <ele>63</ele>
        <time>2023-05-25T13:42:48Z</time>
      </trkpt>
      <trkpt lat="49.21246" lon="-0.528">
        <ele>63</ele>
        <time>2023-05-25T13:42:49Z</time>
      </trkpt>
      <trkpt lat="49.21245" lon="-0.5279">
        <ele>63</ele>
        <time>2023-05-25T13:42:50Z</time>
      </trkpt>
      <trkpt lat="49.21245" lon="-0.52781">
        <ele>63</ele>
        <time>2023-05-25T13:42:51Z</time>
      </trkpt>
      <trkpt lat="49.21244" lon="-0.52771">
        <ele>63</ele>
        <time>2023-05-25T13:42:52Z</time>
      </trkpt>
      <trkpt lat="49.21243" lon="-0.52762">
        <ele>62.8</ele>
        <time>2023-05-25T13:42:53Z</time>
      </trkpt>
      <trkpt lat="49.21242" lon="-0.52753">
        <ele>62.8</ele>
        <time>2023-05-25T13:42:54Z</time>
      </trkpt>
      <trkpt lat="49.2124" lon="-0.52744">
        <ele>62.8</ele>
        <time>2023-05-25T13:42:55Z</time>
      </trkpt>
      <trkpt lat="49.21238" lon="-0.52735">
        <ele>62.6</ele>
        <time>2023-05-25T13:42:56Z</time>
      </trkpt>
      <trkpt lat="49.21235" lon="-0.52728">
        <ele>62.4</ele>
        <time>2023-05-25T13:42:57Z</time>
      </trkpt>
      <trkpt lat="49.21231" lon="-0.5272">
        <ele>62.2</ele>
        <time>2023-05-25T13:42:58Z</time>
      </trkpt>
      <trkpt lat="49.21228" lon="-0.52712">
        <ele>62</ele>
        <time>2023-05-25T13:42:59Z</time>
      </trkpt>
      <trkpt lat="49.21226" lon="-0.52703">
        <ele>62</ele>
        <time>2023-05-25T13:43:00Z</time>
      </trkpt>
      <trkpt lat="49.21226" lon="-0.52695">
        <ele>61.8</ele>
        <time>2023-05-25T13:43:01Z</time>
      </trkpt>
      <trkpt lat="49.21226" lon="-0.52686">
        <ele>61.8</ele>
        <time>2023-05-25T13:43:02Z</time>
      </trkpt>
      <trkpt lat="49.21228" lon="-0.52677">
        <ele>61.6</ele>
        <time>2023-05-25T13:43:03Z</time>
      </trkpt>
      <trkpt lat="49.2123" lon="-0.52669">
        <ele>61.6</ele>
        <time>2023-05-25T13:43:04Z</time>
      </trkpt>
      <trkpt lat="49.21232" lon="-0.52661">
        <ele>61.4</ele>
        <time>2023-05-25T13:43:05Z</time>
      </trkpt>
      <trkpt lat="49.21233" lon="-0.52653">
        <ele>61.2</ele>
        <time>2023-05-25T13:43:06Z</time>
      </trkpt>
      <trkpt lat="49.21233" lon="-0.52644">
        <ele>61</ele>
        <time>2023-05-25T13:43:07Z</time>
      </trkpt>
      <trkpt lat="49.21234" lon="-0.52635">
        <ele>60.8</ele>
        <time>2023-05-25T13:43:08Z</time>
      </trkpt>
      <trkpt lat="49.21234" lon="-0.52626">
        <ele>60.6</ele>
        <time>2023-05-25T13:43:09Z</time>
      </trkpt>
      <trkpt lat="49.21233" lon="-0.52616">
        <ele>60.4</ele>
        <time>2023-05-25T13:43:10Z</time>
      </trkpt>
      <trkpt lat="49.21233" lon="-0.52607">
        <ele>60.2</ele>
        <time>2023-05-25T13:43:11Z</time>
      </trkpt>
      <trkpt lat="49.21233" lon="-0.52597">
        <ele>60</ele>
        <time>2023-05-25T13:43:12Z</time>
      </trkpt>
      <trkpt lat="49.21233" lon="-0.52587">
        <ele>59.8</ele>
        <time>2023-05-25T13:43:13Z</time>
      </trkpt>
      <trkpt lat="49.21233" lon="-0.52577">
        <ele>59.6</ele>
        <time>2023-05-25T13:43:14Z</time>
      </trkpt>
      <trkpt lat="49.21233" lon="-0.52566">
        <ele>59.6</ele>
        <time>2023-05-25T13:43:15Z</time>
      </trkpt>
      <trkpt lat="49.21233" lon="-0.52556">
        <ele>59.4</ele>
        <time>2023-05-25T13:43:16Z</time>
      </trkpt>
      <trkpt lat="49.21233" lon="-0.52545">
        <ele>59.2</ele>
        <time>2023-05-25T13:43:17Z</time>
      </trkpt>
      <trkpt lat="49.21233" lon="-0.52535">
        <ele>59.2</ele>
        <time>2023-05-25T13:43:18Z</time>
      </trkpt>
      <trkpt lat="49.21233" lon="-0.52524">
        <ele>59.2</ele>
        <time>2023-05-25T13:43:19Z</time>
      </trkpt>
      <trkpt lat="49.21233" lon="-0.52513">
        <ele>59</ele>
        <time>2023-05-25T13:43:20Z</time>
      </trkpt>
      <trkpt lat="49.21233" lon="-0.52503">
        <ele>59</ele>
        <time>2023-05-25T13:43:21Z</time>
      </trkpt>
      <trkpt lat="49.21233" lon="-0.52492">
        <ele>59</ele>
        <time>2023-05-25T13:43:22Z</time>
      </trkpt>
      <trkpt lat="49.21234" lon="-0.52481">
        <ele>59.2</ele>
        <time>2023-05-25T13:43:23Z</time>
      </trkpt>
      <trkpt lat="49.21235" lon="-0.52471">
        <ele>59.2</ele>
        <time>2023-05-25T13:43:24Z</time>
      </trkpt>
      <trkpt lat="49.21236" lon="-0.52461">
        <ele>59.4</ele>
        <time>2023-05-25T13:43:25Z</time>
      </trkpt>
      <trkpt lat="49.21237" lon="-0.5245">
        <ele>59.6</ele>
        <time>2023-05-25T13:43:26Z</time>
      </trkpt>
      <trkpt lat="49.21238" lon="-0.5244">
        <ele>59.6</ele>
        <time>2023-05-25T13:43:27Z</time>
      </trkpt>
      <trkpt lat="49.2124" lon="-0.52431">
        <ele>59.8</ele>
        <time>2023-05-25T13:43:28Z</time>
      </trkpt>
      <trkpt lat="49.21242" lon="-0.52421">
        <ele>60</ele>
        <time>2023-05-25T13:43:29Z</time>
      </trkpt>
      <trkpt lat="49.21244" lon="-0.52412">
        <ele>60</ele>
        <time>2023-05-25T13:43:30Z</time>
      </trkpt>
      <trkpt lat="49.21247" lon="-0.52403">
        <ele>60.2</ele>
        <time>2023-05-25T13:43:31Z</time>
      </trkpt>
      <trkpt lat="49.2125" lon="-0.52395">
        <ele>60.6</ele>
        <time>2023-05-25T13:43:32Z</time>
      </trkpt>
      <trkpt lat="49.21252" lon="-0.52387">
        <ele>60.8</ele>
        <time>2023-05-25T13:43:33Z</time>
      </trkpt>
      <trkpt lat="49.21256" lon="-0.52378">
        <ele>61</ele>
        <time>2023-05-25T13:43:34Z</time>
      </trkpt>
      <trkpt lat="49.21259" lon="-0.5237">
        <ele>61.2</ele>
        <time>2023-05-25T13:43:35Z</time>
      </trkpt>
      <trkpt lat="49.21262" lon="-0.52362">
        <ele>61.4</ele>
        <time>2023-05-25T13:43:36Z</time>
      </trkpt>
      <trkpt lat="49.21265" lon="-0.52354">
        <ele>61.6</ele>
        <time>2023-05-25T13:43:37Z</time>
      </trkpt>
      <trkpt lat="49.21268" lon="-0.52347">
        <ele>61.8</ele>
        <time>2023-05-25T13:43:38Z</time>
      </trkpt>
      <trkpt lat="49.21271" lon="-0.5234">
        <ele>62</ele>
        <time>2023-05-25T13:43:39Z</time>
      </trkpt>
      <trkpt lat="49.21273" lon="-0.52334">
        <ele>62</ele>
        <time>2023-05-25T13:43:40Z</time>
      </trkpt>
      <trkpt lat="49.21276" lon="-0.52329">
        <ele>62</ele>
        <time>2023-05-25T13:43:41Z</time>
      </trkpt>
      <trkpt lat="49.2128" lon="-0.52323">
        <ele>62</ele>
        <time>2023-05-25T13:43:42Z</time>
      </trkpt>
      <trkpt lat="49.21284" lon="-0.52315">
        <ele>61.8</ele>
        <time>2023-05-25T13:43:43Z</time>
      </trkpt>
      <trkpt lat="49.21287" lon="-0.52308">
        <ele>61.8</ele>
        <time>2023-05-25T13:43:44Z</time>
      </trkpt>
      <trkpt lat="49.2129" lon="-0.52301">
        <ele>61.6</ele>
        <time>2023-05-25T13:43:45Z</time>
      </trkpt>
      <trkpt lat="49.21293" lon="-0.52294">
        <ele>61.6</ele>
        <time>2023-05-25T13:43:46Z</time>
      </trkpt>
      <trkpt lat="49.21295" lon="-0.52286">
        <ele>61.4</ele>
        <time>2023-05-25T13:43:47Z</time>
      </trkpt>
      <trkpt lat="49.21298" lon="-0.52279">
        <ele>61.2</ele>
        <time>2023-05-25T13:43:48Z</time>
      </trkpt>
      <trkpt lat="49.21301" lon="-0.52272">
        <ele>61.2</ele>
        <time>2023-05-25T13:43:49Z</time>
      </trkpt>
      <trkpt lat="49.21304" lon="-0.52265">
        <ele>61.2</ele>
        <time>2023-05-25T13:43:50Z</time>
      </trkpt>
      <trkpt lat="49.21308" lon="-0.52258">
        <ele>61</ele>
        <time>2023-05-25T13:43:51Z</time>
      </trkpt>
      <trkpt lat="49.21311" lon="-0.52251">
        <ele>61</ele>
        <time>2023-05-25T13:43:52Z</time>
      </trkpt>
      <trkpt lat="49.21314" lon="-0.52244">
        <ele>61</ele>
        <time>2023-05-25T13:43:53Z</time>
      </trkpt>
      <trkpt lat="49.21318" lon="-0.52238">
        <ele>60.8</ele>
        <time>2023-05-25T13:43:54Z</time>
      </trkpt>
      <trkpt lat="49.21321" lon="-0.52232">
        <ele>60.6</ele>
        <time>2023-05-25T13:43:55Z</time>
      </trkpt>
      <trkpt lat="49.21325" lon="-0.52225">
        <ele>60.6</ele>
        <time>2023-05-25T13:43:56Z</time>
      </trkpt>
      <trkpt lat="49.21328" lon="-0.52219">
        <ele>60.2</ele>
        <time>2023-05-25T13:43:57Z</time>
      </trkpt>
      <trkpt lat="49.21332" lon="-0.52212">
        <ele>60</ele>
        <time>2023-05-25T13:43:58Z</time>
      </trkpt>
      <trkpt lat="49.21335" lon="-0.52206">
        <ele>60</ele>
        <time>2023-05-25T13:43:59Z</time>
      </trkpt>
      <trkpt lat="49.21338" lon="-0.522">
        <ele>60</ele>
        <time>2023-05-25T13:44:00Z</time>
      </trkpt>
      <trkpt lat="49.21341" lon="-0.52195">
        <ele>59.8</ele>
        <time>2023-05-25T13:44:01Z</time>
      </trkpt>
      <trkpt lat="49.21343" lon="-0.52188">
        <ele>59.8</ele>
        <time>2023-05-25T13:44:02Z</time>
      </trkpt>
      <trkpt lat="49.21344" lon="-0.52181">
        <ele>59.6</ele>
        <time>2023-05-25T13:44:03Z</time>
      </trkpt>
      <trkpt lat="49.21344" lon="-0.52174">
        <ele>59.4</ele>
        <time>2023-05-25T13:44:04Z</time>
      </trkpt>
      <trkpt lat="49.21343" lon="-0.52166">
        <ele>59.2</ele>
        <time>2023-05-25T13:44:05Z</time>
      </trkpt>
      <trkpt lat="49.21342" lon="-0.52158">
        <ele>59.2</ele>
        <time>2023-05-25T13:44:06Z</time>
      </trkpt>
      <trkpt lat="49.2134" lon="-0.5215">
        <ele>59.2</ele>
        <time>2023-05-25T13:44:07Z</time>
      </trkpt>
      <trkpt lat="49.21337" lon="-0.52142">
        <ele>59</ele>
        <time>2023-05-25T13:44:08Z</time>
      </trkpt>
      <trkpt lat="49.21335" lon="-0.52134">
        <ele>59</ele>
        <time>2023-05-25T13:44:09Z</time>
      </trkpt>
      <trkpt lat="49.21332" lon="-0.52126">
        <ele>59</ele>
        <time>2023-05-25T13:44:10Z</time>
      </trkpt>
      <trkpt lat="49.21329" lon="-0.52118">
        <ele>59</ele>
        <time>2023-05-25T13:44:11Z</time>
      </trkpt>
      <trkpt lat="49.21327" lon="-0.52109">
        <ele>59</ele>
        <time>2023-05-25T13:44:12Z</time>
      </trkpt>
      <trkpt lat="49.21324" lon="-0.521">
        <ele>59</ele>
        <time>2023-05-25T13:44:13Z</time>
      </trkpt>
      <trkpt lat="49.21321" lon="-0.52091">
        <ele>59</ele>
        <time>2023-05-25T13:44:14Z</time>
      </trkpt>
      <trkpt lat="49.21318" lon="-0.52083">
        <ele>59</ele>
        <time>2023-05-25T13:44:15Z</time>
      </trkpt>
      <trkpt lat="49.21315" lon="-0.52074">
        <ele>59</ele>
        <time>2023-05-25T13:44:16Z</time>
      </trkpt>
      <trkpt lat="49.21312" lon="-0.52065">
        <ele>59</ele>
        <time>2023-05-25T13:44:17Z</time>
      </trkpt>
      <trkpt lat="49.21309" lon="-0.52057">
        <ele>59</ele>
        <time>2023-05-25T13:44:18Z</time>
      </trkpt>
      <trkpt lat="49.21306" lon="-0.52048">
        <ele>59</ele>
        <time>2023-05-25T13:44:19Z</time>
      </trkpt>
      <trkpt lat="49.21303" lon="-0.52039">
        <ele>59</ele>
        <time>2023-05-25T13:44:20Z</time>
      </trkpt>
      <trkpt lat="49.213" lon="-0.5203">
        <ele>59</ele>
        <time>2023-05-25T13:44:21Z</time>
      </trkpt>
      <trkpt lat="49.21297" lon="-0.52021">
        <ele>59</ele>
        <time>2023-05-25T13:44:22Z</time>
      </trkpt>
      <trkpt lat="49.21294" lon="-0.52012">
        <ele>59</ele>
        <time>2023-05-25T13:44:23Z</time>
      </trkpt>
      <trkpt lat="49.21291" lon="-0.52003">
        <ele>59</ele>
        <time>2023-05-25T13:44:24Z</time>
      </trkpt>
      <trkpt lat="49.21288" lon="-0.51993">
        <ele>58.8</ele>
        <time>2023-05-25T13:44:25Z</time>
      </trkpt>
      <trkpt lat="49.21285" lon="-0.51984">
        <ele>58.6</ele>
        <time>2023-05-25T13:44:26Z</time>
      </trkpt>
      <trkpt lat="49.21282" lon="-0.51974">
        <ele>58.6</ele>
        <time>2023-05-25T13:44:27Z</time>
      </trkpt>
      <trkpt lat="49.21279" lon="-0.51965">
        <ele>58.2</ele>
        <time>2023-05-25T13:44:28Z</time>
      </trkpt>
      <trkpt lat="49.21275" lon="-0.51956">
        <ele>58</ele>
        <time>2023-05-25T13:44:29Z</time>
      </trkpt>
      <trkpt lat="49.21272" lon="-0.51946">
        <ele>58</ele>
        <time>2023-05-25T13:44:30Z</time>
      </trkpt>
      <trkpt lat="49.21269" lon="-0.51936">
        <ele>57.8</ele>
        <time>2023-05-25T13:44:31Z</time>
      </trkpt>
      <trkpt lat="49.21265" lon="-0.51927">
        <ele>57.6</ele>
        <time>2023-05-25T13:44:32Z</time>
      </trkpt>
      <trkpt lat="49.21262" lon="-0.51917">
        <ele>57.2</ele>
        <time>2023-05-25T13:44:33Z</time>
      </trkpt>
      <trkpt lat="49.21259" lon="-0.51908">
        <ele>57.2</ele>
        <time>2023-05-25T13:44:34Z</time>
      </trkpt>
      <trkpt lat="49.21256" lon="-0.51898">
        <ele>57</ele>
        <time>2023-05-25T13:44:35Z</time>
      </trkpt>
      <trkpt lat="49.21253" lon="-0.51888">
        <ele>57</ele>
        <time>2023-05-25T13:44:36Z</time>
      </trkpt>
      <trkpt lat="49.2125" lon="-0.51879">
        <ele>57</ele>
        <time>2023-05-25T13:44:37Z</time>
      </trkpt>
      <trkpt lat="49.21247" lon="-0.51869">
        <ele>57</ele>
        <time>2023-05-25T13:44:38Z</time>
      </trkpt>
      <trkpt lat="49.21244" lon="-0.51859">
        <ele>57</ele>
        <time>2023-05-25T13:44:39Z</time>
      </trkpt>
      <trkpt lat="49.21241" lon="-0.5185">
        <ele>57</ele>
        <time>2023-05-25T13:44:40Z</time>
      </trkpt>
      <trkpt lat="49.21239" lon="-0.5184">
        <ele>57</ele>
        <time>2023-05-25T13:44:41Z</time>
      </trkpt>
      <trkpt lat="49.21236" lon="-0.51831">
        <ele>57</ele>
        <time>2023-05-25T13:44:42Z</time>
      </trkpt>
      <trkpt lat="49.21233" lon="-0.51821">
        <ele>57</ele>
        <time>2023-05-25T13:44:43Z</time>
      </trkpt>
      <trkpt lat="49.2123" lon="-0.51812">
        <ele>57.2</ele>
        <time>2023-05-25T13:44:44Z</time>
      </trkpt>
      <trkpt lat="49.21228" lon="-0.51802">
        <ele>57.2</ele>
        <time>2023-05-25T13:44:45Z</time>
      </trkpt>
      <trkpt lat="49.21225" lon="-0.51793">
        <ele>57.6</ele>
        <time>2023-05-25T13:44:46Z</time>
      </trkpt>
      <trkpt lat="49.21222" lon="-0.51784">
        <ele>57.8</ele>
        <time>2023-05-25T13:44:47Z</time>
      </trkpt>
      <trkpt lat="49.21219" lon="-0.51775">
        <ele>58</ele>
        <time>2023-05-25T13:44:48Z</time>
      </trkpt>
      <trkpt lat="49.21217" lon="-0.51766">
        <ele>58</ele>
        <time>2023-05-25T13:44:49Z</time>
      </trkpt>
      <trkpt lat="49.21214" lon="-0.51757">
        <ele>58.2</ele>
        <time>2023-05-25T13:44:50Z</time>
      </trkpt>
      <trkpt lat="49.2121" lon="-0.51748">
        <ele>58.6</ele>
        <time>2023-05-25T13:44:51Z</time>
      </trkpt>
      <trkpt lat="49.21207" lon="-0.5174">
        <ele>58.4</ele>
        <time>2023-05-25T13:44:52Z</time>
      </trkpt>
      <trkpt lat="49.21204" lon="-0.51731">
        <ele>58.4</ele>
        <time>2023-05-25T13:44:53Z</time>
      </trkpt>
      <trkpt lat="49.21201" lon="-0.51722">
        <ele>58.2</ele>
        <time>2023-05-25T13:44:54Z</time>
      </trkpt>
      <trkpt lat="49.21198" lon="-0.51713">
        <ele>58.2</ele>
        <time>2023-05-25T13:44:55Z</time>
      </trkpt>
      <trkpt lat="49.21195" lon="-0.51704">
        <ele>58.2</ele>
        <time>2023-05-25T13:44:56Z</time>
      </trkpt>
      <trkpt lat="49.21192" lon="-0.51695">
        <ele>58.2</ele>
        <time>2023-05-25T13:44:57Z</time>
      </trkpt>
      <trkpt lat="49.21189" lon="-0.51686">
        <ele>58.2</ele>
        <time>2023-05-25T13:44:58Z</time>
      </trkpt>
      <trkpt lat="49.21187" lon="-0.51676">
        <ele>58.2</ele>
        <time>2023-05-25T13:44:59Z</time>
      </trkpt>
      <trkpt lat="49.21184" lon="-0.51667">
        <ele>58.4</ele>
        <time>2023-05-25T13:45:00Z</time>
      </trkpt>
      <trkpt lat="49.21181" lon="-0.51658">
        <ele>58.2</ele>
        <time>2023-05-25T13:45:01Z</time>
      </trkpt>
      <trkpt lat="49.21178" lon="-0.51649">
        <ele>58.2</ele>
        <time>2023-05-25T13:45:02Z</time>
      </trkpt>
      <trkpt lat="49.21175" lon="-0.5164">
        <ele>58</ele>
        <time>2023-05-25T13:45:03Z</time>
      </trkpt>
      <trkpt lat="49.21173" lon="-0.51631">
        <ele>58</ele>
        <time>2023-05-25T13:45:04Z</time>
      </trkpt>
      <trkpt lat="49.2117" lon="-0.51622">
        <ele>58</ele>
        <time>2023-05-25T13:45:05Z</time>
      </trkpt>
      <trkpt lat="49.21168" lon="-0.51613">
        <ele>57.8</ele>
        <time>2023-05-25T13:45:06Z</time>
      </trkpt>
      <trkpt lat="49.21165" lon="-0.51605">
        <ele>57.6</ele>
        <time>2023-05-25T13:45:07Z</time>
      </trkpt>
      <trkpt lat="49.21162" lon="-0.51595">
        <ele>57.2</ele>
        <time>2023-05-25T13:45:08Z</time>
      </trkpt>
      <trkpt lat="49.2116" lon="-0.51586">
        <ele>57</ele>
        <time>2023-05-25T13:45:09Z</time>
      </trkpt>
      <trkpt lat="49.21158" lon="-0.51577">
        <ele>56.8</ele>
        <time>2023-05-25T13:45:10Z</time>
      </trkpt>
      <trkpt lat="49.21155" lon="-0.51568">
        <ele>56.8</ele>
        <time>2023-05-25T13:45:11Z</time>
      </trkpt>
      <trkpt lat="49.21153" lon="-0.51559">
        <ele>56.6</ele>
        <time>2023-05-25T13:45:12Z</time>
      </trkpt>
      <trkpt lat="49.21151" lon="-0.5155">
        <ele>56.6</ele>
        <time>2023-05-25T13:45:13Z</time>
      </trkpt>
      <trkpt lat="49.21149" lon="-0.51542">
        <ele>56.6</ele>
        <time>2023-05-25T13:45:14Z</time>
      </trkpt>
      <trkpt lat="49.21147" lon="-0.51533">
        <ele>56.4</ele>
        <time>2023-05-25T13:45:15Z</time>
      </trkpt>
      <trkpt lat="49.21145" lon="-0.51525">
        <ele>56.4</ele>
        <time>2023-05-25T13:45:16Z</time>
      </trkpt>
      <trkpt lat="49.21142" lon="-0.51517">
        <ele>56.4</ele>
        <time>2023-05-25T13:45:17Z</time>
      </trkpt>
      <trkpt lat="49.2114" lon="-0.51509">
        <ele>56.4</ele>
        <time>2023-05-25T13:45:18Z</time>
      </trkpt>
      <trkpt lat="49.21138" lon="-0.515">
        <ele>56.2</ele>
        <time>2023-05-25T13:45:19Z</time>
      </trkpt>
      <trkpt lat="49.21135" lon="-0.51491">
        <ele>56.2</ele>
        <time>2023-05-25T13:45:20Z</time>
      </trkpt>
      <trkpt lat="49.21133" lon="-0.51483">
        <ele>56.2</ele>
        <time>2023-05-25T13:45:21Z</time>
      </trkpt>
      <trkpt lat="49.21131" lon="-0.51474">
        <ele>56</ele>
        <time>2023-05-25T13:45:22Z</time>
      </trkpt>
      <trkpt lat="49.21129" lon="-0.51464">
        <ele>56</ele>
        <time>2023-05-25T13:45:23Z</time>
      </trkpt>
      <trkpt lat="49.21126" lon="-0.51455">
        <ele>56</ele>
        <time>2023-05-25T13:45:24Z</time>
      </trkpt>
      <trkpt lat="49.21124" lon="-0.51446">
        <ele>56</ele>
        <time>2023-05-25T13:45:25Z</time>
      </trkpt>
      <trkpt lat="49.21121" lon="-0.51437">
        <ele>55.8</ele>
        <time>2023-05-25T13:45:26Z</time>
      </trkpt>
      <trkpt lat="49.21118" lon="-0.51427">
        <ele>55.8</ele>
        <time>2023-05-25T13:45:27Z</time>
      </trkpt>
      <trkpt lat="49.21116" lon="-0.51418">
        <ele>55.6</ele>
        <time>2023-05-25T13:45:28Z</time>
      </trkpt>
      <trkpt lat="49.21113" lon="-0.51409">
        <ele>55.6</ele>
        <time>2023-05-25T13:45:29Z</time>
      </trkpt>
      <trkpt lat="49.2111" lon="-0.514">
        <ele>55.8</ele>
        <time>2023-05-25T13:45:30Z</time>
      </trkpt>
      <trkpt lat="49.21107" lon="-0.5139">
        <ele>55.8</ele>
        <time>2023-05-25T13:45:31Z</time>
      </trkpt>
      <trkpt lat="49.21104" lon="-0.51381">
        <ele>55.8</ele>
        <time>2023-05-25T13:45:32Z</time>
      </trkpt>
      <trkpt lat="49.21101" lon="-0.51372">
        <ele>55.8</ele>
        <time>2023-05-25T13:45:33Z</time>
      </trkpt>
      <trkpt lat="49.21098" lon="-0.51363">
        <ele>55.8</ele>
        <time>2023-05-25T13:45:34Z</time>
      </trkpt>
      <trkpt lat="49.21095" lon="-0.51354">
        <ele>56</ele>
        <time>2023-05-25T13:45:35Z</time>
      </trkpt>
      <trkpt lat="49.21092" lon="-0.51344">
        <ele>56</ele>
        <time>2023-05-25T13:45:36Z</time>
      </trkpt>
      <trkpt lat="49.21089" lon="-0.51335">
        <ele>56</ele>
        <time>2023-05-25T13:45:37Z</time>
      </trkpt>
      <trkpt lat="49.21086" lon="-0.51326">
        <ele>56</ele>
        <time>2023-05-25T13:45:38Z</time>
      </trkpt>
      <trkpt lat="49.21083" lon="-0.51316">
        <ele>55.8</ele>
        <time>2023-05-25T13:45:39Z</time>
      </trkpt>
      <trkpt lat="49.2108" lon="-0.51307">
        <ele>55.8</ele>
        <time>2023-05-25T13:45:40Z</time>
      </trkpt>
      <trkpt lat="49.21077" lon="-0.51297">
        <ele>56</ele>
        <time>2023-05-25T13:45:41Z</time>
      </trkpt>
      <trkpt lat="49.21074" lon="-0.51288">
        <ele>56</ele>
        <time>2023-05-25T13:45:42Z</time>
      </trkpt>
      <trkpt lat="49.21071" lon="-0.51278">
        <ele>56</ele>
        <time>2023-05-25T13:45:43Z</time>
      </trkpt>
      <trkpt lat="49.21068" lon="-0.51269">
        <ele>56</ele>
        <time>2023-05-25T13:45:44Z</time>
      </trkpt>
      <trkpt lat="49.21065" lon="-0.5126">
        <ele>56</ele>
        <time>2023-05-25T13:45:45Z</time>
      </trkpt>
      <trkpt lat="49.21062" lon="-0.51251">
        <ele>56</ele>
        <time>2023-05-25T13:45:46Z</time>
      </trkpt>
      <trkpt lat="49.21059" lon="-0.51242">
        <ele>56</ele>
        <time>2023-05-25T13:45:47Z</time>
      </trkpt>
      <trkpt lat="49.21056" lon="-0.51233">
        <ele>55.8</ele>
        <time>2023-05-25T13:45:48Z</time>
      </trkpt>
      <trkpt lat="49.21053" lon="-0.51224">
        <ele>55.8</ele>
        <time>2023-05-25T13:45:49Z</time>
      </trkpt>
      <trkpt lat="49.2105" lon="-0.51215">
        <ele>55.6</ele>
        <time>2023-05-25T13:45:50Z</time>
      </trkpt>
      <trkpt lat="49.21047" lon="-0.51207">
        <ele>55.6</ele>
        <time>2023-05-25T13:45:51Z</time>
      </trkpt>
      <trkpt lat="49.21045" lon="-0.51199">
        <ele>55.4</ele>
        <time>2023-05-25T13:45:52Z</time>
      </trkpt>
      <trkpt lat="49.21042" lon="-0.51191">
        <ele>55.2</ele>
        <time>2023-05-25T13:45:53Z</time>
      </trkpt>
      <trkpt lat="49.2104" lon="-0.51184">
        <ele>55</ele>
        <time>2023-05-25T13:45:54Z</time>
      </trkpt>
      <trkpt lat="49.21037" lon="-0.51176">
        <ele>55</ele>
        <time>2023-05-25T13:45:55Z</time>
      </trkpt>
      <trkpt lat="49.21034" lon="-0.51169">
        <ele>54.8</ele>
        <time>2023-05-25T13:45:56Z</time>
      </trkpt>
      <trkpt lat="49.21032" lon="-0.51163">
        <ele>54.8</ele>
        <time>2023-05-25T13:45:57Z</time>
      </trkpt>
      <trkpt lat="49.2103" lon="-0.51156">
        <ele>54.8</ele>
        <time>2023-05-25T13:45:58Z</time>
      </trkpt>
      <trkpt lat="49.21027" lon="-0.5115">
        <ele>54.8</ele>
        <time>2023-05-25T13:45:59Z</time>
      </trkpt>
      <trkpt lat="49.21025" lon="-0.51143">
        <ele>54.8</ele>
        <time>2023-05-25T13:46:00Z</time>
      </trkpt>
      <trkpt lat="49.21023" lon="-0.51137">
        <ele>54.8</ele>
        <time>2023-05-25T13:46:01Z</time>
      </trkpt>
      <trkpt lat="49.2102" lon="-0.51131">
        <ele>54.6</ele>
        <time>2023-05-25T13:46:02Z</time>
      </trkpt>
      <trkpt lat="49.21018" lon="-0.51125">
        <ele>54.6</ele>
        <time>2023-05-25T13:46:03Z</time>
      </trkpt>
      <trkpt lat="49.21016" lon="-0.51119">
        <ele>54.6</ele>
        <time>2023-05-25T13:46:04Z</time>
      </trkpt>
      <trkpt lat="49.21014" lon="-0.51112">
        <ele>54.4</ele>
        <time>2023-05-25T13:46:05Z</time>
      </trkpt>
      <trkpt lat="49.21013" lon="-0.51106">
        <ele>54.2</ele>
        <time>2023-05-25T13:46:06Z</time>
      </trkpt>
      <trkpt lat="49.21011" lon="-0.51099">
        <ele>54.2</ele>
        <time>2023-05-25T13:46:07Z</time>
      </trkpt>
      <trkpt lat="49.21009" lon="-0.51092">
        <ele>54</ele>
        <time>2023-05-25T13:46:08Z</time>
      </trkpt>
      <trkpt lat="49.21007" lon="-0.51085">
        <ele>54</ele>
        <time>2023-05-25T13:46:09Z</time>
      </trkpt>
      <trkpt lat="49.21004" lon="-0.5108">
        <ele>54</ele>
        <time>2023-05-25T13:46:10Z</time>
      </trkpt>
      <trkpt lat="49.21002" lon="-0.51074">
        <ele>54</ele>
        <time>2023-05-25T13:46:11Z</time>
      </trkpt>
      <trkpt lat="49.21" lon="-0.51069">
        <ele>54</ele>
        <time>2023-05-25T13:46:12Z</time>
      </trkpt>
      <trkpt lat="49.20999" lon="-0.51063">
        <ele>54</ele>
        <time>2023-05-25T13:46:13Z</time>
      </trkpt>
      <trkpt lat="49.20997" lon="-0.51057">
        <ele>54</ele>
        <time>2023-05-25T13:46:14Z</time>
      </trkpt>
      <trkpt lat="49.20996" lon="-0.51051">
        <ele>54</ele>
        <time>2023-05-25T13:46:15Z</time>
      </trkpt>
      <trkpt lat="49.20994" lon="-0.51045">
        <ele>54</ele>
        <time>2023-05-25T13:46:16Z</time>
      </trkpt>
      <trkpt lat="49.20991" lon="-0.51038">
        <ele>54</ele>
        <time>2023-05-25T13:46:17Z</time>
      </trkpt>
      <trkpt lat="49.20989" lon="-0.51031">
        <ele>54</ele>
        <time>2023-05-25T13:46:18Z</time>
      </trkpt>
      <trkpt lat="49.20987" lon="-0.51024">
        <ele>54</ele>
        <time>2023-05-25T13:46:19Z</time>
      </trkpt>
      <trkpt lat="49.20984" lon="-0.51016">
        <ele>54</ele>
        <time>2023-05-25T13:46:20Z</time>
      </trkpt>
      <trkpt lat="49.20982" lon="-0.51009">
        <ele>54</ele>
        <time>2023-05-25T13:46:21Z</time>
      </trkpt>
      <trkpt lat="49.20979" lon="-0.51001">
        <ele>54</ele>
        <time>2023-05-25T13:46:22Z</time>
      </trkpt>
      <trkpt lat="49.20977" lon="-0.50993">
        <ele>54</ele>
        <time>2023-05-25T13:46:23Z</time>
      </trkpt>
      <trkpt lat="49.20974" lon="-0.50986">
        <ele>53.8</ele>
        <time>2023-05-25T13:46:24Z</time>
      </trkpt>
      <trkpt lat="49.20971" lon="-0.50978">
        <ele>53.6</ele>
        <time>2023-05-25T13:46:25Z</time>
      </trkpt>
      <trkpt lat="49.20968" lon="-0.5097">
        <ele>53.6</ele>
        <time>2023-05-25T13:46:26Z</time>
      </trkpt>
      <trkpt lat="49.20966" lon="-0.50962">
        <ele>53.6</ele>
        <time>2023-05-25T13:46:27Z</time>
      </trkpt>
      <trkpt lat="49.20963" lon="-0.50954">
        <ele>53.4</ele>
        <time>2023-05-25T13:46:28Z</time>
      </trkpt>
      <trkpt lat="49.2096" lon="-0.50946">
        <ele>53.2</ele>
        <time>2023-05-25T13:46:29Z</time>
      </trkpt>
      <trkpt lat="49.20958" lon="-0.50938">
        <ele>53.2</ele>
        <time>2023-05-25T13:46:30Z</time>
      </trkpt>
      <trkpt lat="49.20955" lon="-0.5093">
        <ele>53.2</ele>
        <time>2023-05-25T13:46:31Z</time>
      </trkpt>
      <trkpt lat="49.20952" lon="-0.50922">
        <ele>53.2</ele>
        <time>2023-05-25T13:46:32Z</time>
      </trkpt>
      <trkpt lat="49.20949" lon="-0.50914">
        <ele>53.2</ele>
        <time>2023-05-25T13:46:33Z</time>
      </trkpt>
      <trkpt lat="49.20947" lon="-0.50906">
        <ele>53.4</ele>
        <time>2023-05-25T13:46:34Z</time>
      </trkpt>
      <trkpt lat="49.20944" lon="-0.50898">
        <ele>53.6</ele>
        <time>2023-05-25T13:46:35Z</time>
      </trkpt>
      <trkpt lat="49.20941" lon="-0.5089">
        <ele>53.8</ele>
        <time>2023-05-25T13:46:36Z</time>
      </trkpt>
      <trkpt lat="49.20938" lon="-0.50882">
        <ele>54</ele>
        <time>2023-05-25T13:46:37Z</time>
      </trkpt>
      <trkpt lat="49.20935" lon="-0.50874">
        <ele>54</ele>
        <time>2023-05-25T13:46:38Z</time>
      </trkpt>
      <trkpt lat="49.20933" lon="-0.50866">
        <ele>54.2</ele>
        <time>2023-05-25T13:46:39Z</time>
      </trkpt>
      <trkpt lat="49.2093" lon="-0.50858">
        <ele>54.4</ele>
        <time>2023-05-25T13:46:40Z</time>
      </trkpt>
      <trkpt lat="49.20927" lon="-0.5085">
        <ele>54.6</ele>
        <time>2023-05-25T13:46:41Z</time>
      </trkpt>
      <trkpt lat="49.20924" lon="-0.50842">
        <ele>54.8</ele>
        <time>2023-05-25T13:46:42Z</time>
      </trkpt>
      <trkpt lat="49.20921" lon="-0.50834">
        <ele>55</ele>
        <time>2023-05-25T13:46:43Z</time>
      </trkpt>
      <trkpt lat="49.20919" lon="-0.50826">
        <ele>55</ele>
        <time>2023-05-25T13:46:44Z</time>
      </trkpt>
      <trkpt lat="49.20916" lon="-0.50818">
        <ele>55.2</ele>
        <time>2023-05-25T13:46:45Z</time>
      </trkpt>
      <trkpt lat="49.20913" lon="-0.5081">
        <ele>55.2</ele>
        <time>2023-05-25T13:46:46Z</time>
      </trkpt>
      <trkpt lat="49.20911" lon="-0.50802">
        <ele>55.4</ele>
        <time>2023-05-25T13:46:47Z</time>
      </trkpt>
      <trkpt lat="49.20908" lon="-0.50794">
        <ele>55.6</ele>
        <time>2023-05-25T13:46:48Z</time>
      </trkpt>
      <trkpt lat="49.20905" lon="-0.50785">
        <ele>55.6</ele>
        <time>2023-05-25T13:46:49Z</time>
      </trkpt>
      <trkpt lat="49.20903" lon="-0.50778">
        <ele>55.8</ele>
        <time>2023-05-25T13:46:50Z</time>
      </trkpt>
      <trkpt lat="49.209" lon="-0.50769">
        <ele>55.8</ele>
        <time>2023-05-25T13:46:51Z</time>
      </trkpt>
      <trkpt lat="49.20898" lon="-0.50761">
        <ele>56</ele>
        <time>2023-05-25T13:46:52Z</time>
      </trkpt>
      <trkpt lat="49.20895" lon="-0.50753">
        <ele>56</ele>
        <time>2023-05-25T13:46:53Z</time>
      </trkpt>
      <trkpt lat="49.20892" lon="-0.50745">
        <ele>56</ele>
        <time>2023-05-25T13:46:54Z</time>
      </trkpt>
      <trkpt lat="49.2089" lon="-0.50736">
        <ele>56.2</ele>
        <time>2023-05-25T13:46:55Z</time>
      </trkpt>
      <trkpt lat="49.20887" lon="-0.50728">
        <ele>56.4</ele>
        <time>2023-05-25T13:46:56Z</time>
      </trkpt>
      <trkpt lat="49.20885" lon="-0.5072">
        <ele>56.6</ele>
        <time>2023-05-25T13:46:57Z</time>
      </trkpt>
      <trkpt lat="49.20882" lon="-0.50712">
        <ele>56.8</ele>
        <time>2023-05-25T13:46:58Z</time>
      </trkpt>
      <trkpt lat="49.2088" lon="-0.50704">
        <ele>57</ele>
        <time>2023-05-25T13:46:59Z</time>
      </trkpt>
      <trkpt lat="49.20877" lon="-0.50696">
        <ele>57</ele>
        <time>2023-05-25T13:47:00Z</time>
      </trkpt>
      <trkpt lat="49.20875" lon="-0.50688">
        <ele>57</ele>
        <time>2023-05-25T13:47:01Z</time>
      </trkpt>
      <trkpt lat="49.20872" lon="-0.5068">
        <ele>57.2</ele>
        <time>2023-05-25T13:47:02Z</time>
      </trkpt>
      <trkpt lat="49.2087" lon="-0.50672">
        <ele>57.2</ele>
        <time>2023-05-25T13:47:03Z</time>
      </trkpt>
      <trkpt lat="49.20868" lon="-0.50665">
        <ele>57.4</ele>
        <time>2023-05-25T13:47:04Z</time>
      </trkpt>
      <trkpt lat="49.20865" lon="-0.50657">
        <ele>57.2</ele>
        <time>2023-05-25T13:47:05Z</time>
      </trkpt>
      <trkpt lat="49.20863" lon="-0.50649">
        <ele>57.2</ele>
        <time>2023-05-25T13:47:06Z</time>
      </trkpt>
      <trkpt lat="49.20861" lon="-0.50642">
        <ele>57</ele>
        <time>2023-05-25T13:47:07Z</time>
      </trkpt>
      <trkpt lat="49.20858" lon="-0.50634">
        <ele>57</ele>
        <time>2023-05-25T13:47:08Z</time>
      </trkpt>
      <trkpt lat="49.20856" lon="-0.50626">
        <ele>57</ele>
        <time>2023-05-25T13:47:09Z</time>
      </trkpt>
      <trkpt lat="49.20854" lon="-0.50618">
        <ele>57</ele>
        <time>2023-05-25T13:47:10Z</time>
      </trkpt>
      <trkpt lat="49.20851" lon="-0.5061">
        <ele>57</ele>
        <time>2023-05-25T13:47:11Z</time>
      </trkpt>
      <trkpt lat="49.20849" lon="-0.50602">
        <ele>57</ele>
        <time>2023-05-25T13:47:12Z</time>
      </trkpt>
      <trkpt lat="49.20846" lon="-0.50595">
        <ele>57</ele>
        <time>2023-05-25T13:47:13Z</time>
      </trkpt>
      <trkpt lat="49.20843" lon="-0.50587">
        <ele>57</ele>
        <time>2023-05-25T13:47:14Z</time>
      </trkpt>
      <trkpt lat="49.20841" lon="-0.50579">
        <ele>57</ele>
        <time>2023-05-25T13:47:15Z</time>
      </trkpt>
      <trkpt lat="49.20838" lon="-0.50571">
        <ele>57</ele>
        <time>2023-05-25T13:47:16Z</time>
      </trkpt>
      <trkpt lat="49.20835" lon="-0.50563">
        <ele>57.2</ele>
        <time>2023-05-25T13:47:17Z</time>
      </trkpt>
      <trkpt lat="49.20832" lon="-0.50555">
        <ele>57.2</ele>
        <time>2023-05-25T13:47:18Z</time>
      </trkpt>
      <trkpt lat="49.2083" lon="-0.50547">
        <ele>57.4</ele>
        <time>2023-05-25T13:47:19Z</time>
      </trkpt>
      <trkpt lat="49.20827" lon="-0.50538">
        <ele>57.6</ele>
        <time>2023-05-25T13:47:20Z</time>
      </trkpt>
      <trkpt lat="49.20825" lon="-0.5053">
        <ele>57.6</ele>
        <time>2023-05-25T13:47:21Z</time>
      </trkpt>
      <trkpt lat="49.20822" lon="-0.50521">
        <ele>57.6</ele>
        <time>2023-05-25T13:47:22Z</time>
      </trkpt>
      <trkpt lat="49.2082" lon="-0.50512">
        <ele>57.8</ele>
        <time>2023-05-25T13:47:23Z</time>
      </trkpt>
      <trkpt lat="49.20818" lon="-0.50503">
        <ele>57.8</ele>
        <time>2023-05-25T13:47:24Z</time>
      </trkpt>
      <trkpt lat="49.20816" lon="-0.50495">
        <ele>58</ele>
        <time>2023-05-25T13:47:25Z</time>
      </trkpt>
      <trkpt lat="49.20814" lon="-0.50486">
        <ele>58</ele>
        <time>2023-05-25T13:47:26Z</time>
      </trkpt>
      <trkpt lat="49.20811" lon="-0.50477">
        <ele>58</ele>
        <time>2023-05-25T13:47:27Z</time>
      </trkpt>
      <trkpt lat="49.20809" lon="-0.50469">
        <ele>58.2</ele>
        <time>2023-05-25T13:47:28Z</time>
      </trkpt>
      <trkpt lat="49.20806" lon="-0.5046">
        <ele>58.2</ele>
        <time>2023-05-25T13:47:29Z</time>
      </trkpt>
      <trkpt lat="49.20803" lon="-0.50451">
        <ele>58.4</ele>
        <time>2023-05-25T13:47:30Z</time>
      </trkpt>
      <trkpt lat="49.20801" lon="-0.50442">
        <ele>58.6</ele>
        <time>2023-05-25T13:47:31Z</time>
      </trkpt>
      <trkpt lat="49.20798" lon="-0.50433">
        <ele>58.6</ele>
        <time>2023-05-25T13:47:32Z</time>
      </trkpt>
      <trkpt lat="49.20796" lon="-0.50424">
        <ele>58.6</ele>
        <time>2023-05-25T13:47:33Z</time>
      </trkpt>
      <trkpt lat="49.20793" lon="-0.50415">
        <ele>58.6</ele>
        <time>2023-05-25T13:47:34Z</time>
      </trkpt>
      <trkpt lat="49.2079" lon="-0.50406">
        <ele>58</ele>
        <time>2023-05-25T13:47:35Z</time>
      </trkpt>
      <trkpt lat="49.20787" lon="-0.50397">
        <ele>57.8</ele>
        <time>2023-05-25T13:47:36Z</time>
      </trkpt>
      <trkpt lat="49.20784" lon="-0.50388">
        <ele>57.2</ele>
        <time>2023-05-25T13:47:37Z</time>
      </trkpt>
      <trkpt lat="49.20781" lon="-0.50379">
        <ele>57</ele>
        <time>2023-05-25T13:47:38Z</time>
      </trkpt>
      <trkpt lat="49.20779" lon="-0.50369">
        <ele>56.6</ele>
        <time>2023-05-25T13:47:39Z</time>
      </trkpt>
      <trkpt lat="49.20776" lon="-0.50359">
        <ele>56</ele>
        <time>2023-05-25T13:47:40Z</time>
      </trkpt>
      <trkpt lat="49.20773" lon="-0.50349">
        <ele>55.8</ele>
        <time>2023-05-25T13:47:41Z</time>
      </trkpt>
      <trkpt lat="49.2077" lon="-0.50339">
        <ele>55.4</ele>
        <time>2023-05-25T13:47:42Z</time>
      </trkpt>
      <trkpt lat="49.20768" lon="-0.50329">
        <ele>55</ele>
        <time>2023-05-25T13:47:43Z</time>
      </trkpt>
      <trkpt lat="49.20765" lon="-0.5032">
        <ele>55</ele>
        <time>2023-05-25T13:47:44Z</time>
      </trkpt>
      <trkpt lat="49.20762" lon="-0.5031">
        <ele>54.6</ele>
        <time>2023-05-25T13:47:45Z</time>
      </trkpt>
      <trkpt lat="49.20759" lon="-0.503">
        <ele>54.2</ele>
        <time>2023-05-25T13:47:46Z</time>
      </trkpt>
      <trkpt lat="49.20757" lon="-0.50291">
        <ele>54</ele>
        <time>2023-05-25T13:47:47Z</time>
      </trkpt>
      <trkpt lat="49.20754" lon="-0.50282">
        <ele>53.8</ele>
        <time>2023-05-25T13:47:48Z</time>
      </trkpt>
      <trkpt lat="49.20751" lon="-0.50272">
        <ele>53.6</ele>
        <time>2023-05-25T13:47:49Z</time>
      </trkpt>
      <trkpt lat="49.20748" lon="-0.50263">
        <ele>53.2</ele>
        <time>2023-05-25T13:47:50Z</time>
      </trkpt>
      <trkpt lat="49.20746" lon="-0.50254">
        <ele>53</ele>
        <time>2023-05-25T13:47:51Z</time>
      </trkpt>
      <trkpt lat="49.20743" lon="-0.50245">
        <ele>52.8</ele>
        <time>2023-05-25T13:47:52Z</time>
      </trkpt>
      <trkpt lat="49.2074" lon="-0.50236">
        <ele>52.6</ele>
        <time>2023-05-25T13:47:53Z</time>
      </trkpt>
      <trkpt lat="49.20738" lon="-0.50227">
        <ele>52.2</ele>
        <time>2023-05-25T13:47:54Z</time>
      </trkpt>
      <trkpt lat="49.20735" lon="-0.50218">
        <ele>52</ele>
        <time>2023-05-25T13:47:55Z</time>
      </trkpt>
      <trkpt lat="49.20732" lon="-0.50209">
        <ele>52</ele>
        <time>2023-05-25T13:47:56Z</time>
      </trkpt>
      <trkpt lat="49.2073" lon="-0.502">
        <ele>51.8</ele>
        <time>2023-05-25T13:47:57Z</time>
      </trkpt>
      <trkpt lat="49.20727" lon="-0.50191">
        <ele>51.6</ele>
        <time>2023-05-25T13:47:58Z</time>
      </trkpt>
      <trkpt lat="49.20724" lon="-0.50182">
        <ele>51.2</ele>
        <time>2023-05-25T13:47:59Z</time>
      </trkpt>
      <trkpt lat="49.20722" lon="-0.50174">
        <ele>51</ele>
        <time>2023-05-25T13:48:00Z</time>
      </trkpt>
      <trkpt lat="49.20719" lon="-0.50165">
        <ele>51</ele>
        <time>2023-05-25T13:48:01Z</time>
      </trkpt>
      <trkpt lat="49.20717" lon="-0.50156">
        <ele>51</ele>
        <time>2023-05-25T13:48:02Z</time>
      </trkpt>
      <trkpt lat="49.20714" lon="-0.50147">
        <ele>51</ele>
        <time>2023-05-25T13:48:03Z</time>
      </trkpt>
      <trkpt lat="49.20711" lon="-0.50139">
        <ele>51.2</ele>
        <time>2023-05-25T13:48:04Z</time>
      </trkpt>
      <trkpt lat="49.20709" lon="-0.5013">
        <ele>51.2</ele>
        <time>2023-05-25T13:48:05Z</time>
      </trkpt>
      <trkpt lat="49.20707" lon="-0.50122">
        <ele>51.2</ele>
        <time>2023-05-25T13:48:06Z</time>
      </trkpt>
      <trkpt lat="49.20704" lon="-0.50113">
        <ele>51.4</ele>
        <time>2023-05-25T13:48:07Z</time>
      </trkpt>
      <trkpt lat="49.20702" lon="-0.50105">
        <ele>51.4</ele>
        <time>2023-05-25T13:48:08Z</time>
      </trkpt>
      <trkpt lat="49.20699" lon="-0.50097">
        <ele>51.6</ele>
        <time>2023-05-25T13:48:09Z</time>
      </trkpt>
      <trkpt lat="49.20697" lon="-0.50089">
        <ele>51.6</ele>
        <time>2023-05-25T13:48:10Z</time>
      </trkpt>
      <trkpt lat="49.20694" lon="-0.5008">
        <ele>51.8</ele>
        <time>2023-05-25T13:48:11Z</time>
      </trkpt>
      <trkpt lat="49.20692" lon="-0.50073">
        <ele>52</ele>
        <time>2023-05-25T13:48:12Z</time>
      </trkpt>
      <trkpt lat="49.2069" lon="-0.50065">
        <ele>52.2</ele>
        <time>2023-05-25T13:48:13Z</time>
      </trkpt>
      <trkpt lat="49.20687" lon="-0.50057">
        <ele>52.4</ele>
        <time>2023-05-25T13:48:14Z</time>
      </trkpt>
      <trkpt lat="49.20685" lon="-0.50049">
        <ele>52.6</ele>
        <time>2023-05-25T13:48:15Z</time>
      </trkpt>
      <trkpt lat="49.20683" lon="-0.50042">
        <ele>52.8</ele>
        <time>2023-05-25T13:48:16Z</time>
      </trkpt>
      <trkpt lat="49.20681" lon="-0.50034">
        <ele>53</ele>
        <time>2023-05-25T13:48:17Z</time>
      </trkpt>
      <trkpt lat="49.20679" lon="-0.50027">
        <ele>53.2</ele>
        <time>2023-05-25T13:48:18Z</time>
      </trkpt>
      <trkpt lat="49.20676" lon="-0.50019">
        <ele>53.4</ele>
        <time>2023-05-25T13:48:19Z</time>
      </trkpt>
      <trkpt lat="49.20674" lon="-0.50012">
        <ele>53.6</ele>
        <time>2023-05-25T13:48:20Z</time>
      </trkpt>
      <trkpt lat="49.20672" lon="-0.50005">
        <ele>53.8</ele>
        <time>2023-05-25T13:48:21Z</time>
      </trkpt>
      <trkpt lat="49.2067" lon="-0.49997">
        <ele>54</ele>
        <time>2023-05-25T13:48:22Z</time>
      </trkpt>
      <trkpt lat="49.20668" lon="-0.4999">
        <ele>54</ele>
        <time>2023-05-25T13:48:23Z</time>
      </trkpt>
      <trkpt lat="49.20665" lon="-0.49983">
        <ele>54</ele>
        <time>2023-05-25T13:48:24Z</time>
      </trkpt>
      <trkpt lat="49.20663" lon="-0.49975">
        <ele>54</ele>
        <time>2023-05-25T13:48:25Z</time>
      </trkpt>
      <trkpt lat="49.20661" lon="-0.49968">
        <ele>54</ele>
        <time>2023-05-25T13:48:26Z</time>
      </trkpt>
      <trkpt lat="49.20659" lon="-0.49961">
        <ele>54</ele>
        <time>2023-05-25T13:48:27Z</time>
      </trkpt>
      <trkpt lat="49.20657" lon="-0.49954">
        <ele>54</ele>
        <time>2023-05-25T13:48:28Z</time>
      </trkpt>
      <trkpt lat="49.20654" lon="-0.49946">
        <ele>54</ele>
        <time>2023-05-25T13:48:29Z</time>
      </trkpt>
      <trkpt lat="49.20652" lon="-0.49939">
        <ele>54</ele>
        <time>2023-05-25T13:48:30Z</time>
      </trkpt>
      <trkpt lat="49.2065" lon="-0.49932">
        <ele>54.2</ele>
        <time>2023-05-25T13:48:31Z</time>
      </trkpt>
      <trkpt lat="49.20648" lon="-0.49925">
        <ele>54.2</ele>
        <time>2023-05-25T13:48:32Z</time>
      </trkpt>
      <trkpt lat="49.20646" lon="-0.49918">
        <ele>54.2</ele>
        <time>2023-05-25T13:48:33Z</time>
      </trkpt>
      <trkpt lat="49.20644" lon="-0.49911">
        <ele>54.4</ele>
        <time>2023-05-25T13:48:34Z</time>
      </trkpt>
      <trkpt lat="49.20642" lon="-0.49904">
        <ele>54.6</ele>
        <time>2023-05-25T13:48:35Z</time>
      </trkpt>
      <trkpt lat="49.2064" lon="-0.49897">
        <ele>54.6</ele>
        <time>2023-05-25T13:48:36Z</time>
      </trkpt>
      <trkpt lat="49.20638" lon="-0.4989">
        <ele>54.8</ele>
        <time>2023-05-25T13:48:37Z</time>
      </trkpt>
      <trkpt lat="49.20636" lon="-0.49883">
        <ele>55</ele>
        <time>2023-05-25T13:48:38Z</time>
      </trkpt>
      <trkpt lat="49.20634" lon="-0.49876">
        <ele>55</ele>
        <time>2023-05-25T13:48:39Z</time>
      </trkpt>
      <trkpt lat="49.20632" lon="-0.49869">
        <ele>55.2</ele>
        <time>2023-05-25T13:48:40Z</time>
      </trkpt>
      <trkpt lat="49.2063" lon="-0.49863">
        <ele>55.4</ele>
        <time>2023-05-25T13:48:41Z</time>
      </trkpt>
      <trkpt lat="49.20628" lon="-0.49856">
        <ele>55.6</ele>
        <time>2023-05-25T13:48:42Z</time>
      </trkpt>
      <trkpt lat="49.20626" lon="-0.4985">
        <ele>55.8</ele>
        <time>2023-05-25T13:48:43Z</time>
      </trkpt>
      <trkpt lat="49.20624" lon="-0.49843">
        <ele>55.8</ele>
        <time>2023-05-25T13:48:44Z</time>
      </trkpt>
      <trkpt lat="49.20622" lon="-0.49837">
        <ele>56</ele>
        <time>2023-05-25T13:48:45Z</time>
      </trkpt>
      <trkpt lat="49.2062" lon="-0.4983">
        <ele>56.2</ele>
        <time>2023-05-25T13:48:46Z</time>
      </trkpt>
      <trkpt lat="49.20618" lon="-0.49824">
        <ele>56.4</ele>
        <time>2023-05-25T13:48:47Z</time>
      </trkpt>
      <trkpt lat="49.20616" lon="-0.49817">
        <ele>56.8</ele>
        <time>2023-05-25T13:48:48Z</time>
      </trkpt>
      <trkpt lat="49.20614" lon="-0.49811">
        <ele>57</ele>
        <time>2023-05-25T13:48:49Z</time>
      </trkpt>
      <trkpt lat="49.20613" lon="-0.49804">
        <ele>57</ele>
        <time>2023-05-25T13:48:50Z</time>
      </trkpt>
      <trkpt lat="49.20611" lon="-0.49798">
        <ele>57.2</ele>
        <time>2023-05-25T13:48:51Z</time>
      </trkpt>
      <trkpt lat="49.20609" lon="-0.49791">
        <ele>57.6</ele>
        <time>2023-05-25T13:48:52Z</time>
      </trkpt>
      <trkpt lat="49.20607" lon="-0.49785">
        <ele>57.8</ele>
        <time>2023-05-25T13:48:53Z</time>
      </trkpt>
      <trkpt lat="49.20605" lon="-0.49779">
        <ele>58</ele>
        <time>2023-05-25T13:48:54Z</time>
      </trkpt>
      <trkpt lat="49.20603" lon="-0.49772">
        <ele>58.2</ele>
        <time>2023-05-25T13:48:55Z</time>
      </trkpt>
      <trkpt lat="49.20601" lon="-0.49766">
        <ele>58.4</ele>
        <time>2023-05-25T13:48:56Z</time>
      </trkpt>
      <trkpt lat="49.20599" lon="-0.4976">
        <ele>58.6</ele>
        <time>2023-05-25T13:48:57Z</time>
      </trkpt>
      <trkpt lat="49.20598" lon="-0.49753">
        <ele>58.8</ele>
        <time>2023-05-25T13:48:58Z</time>
      </trkpt>
      <trkpt lat="49.20596" lon="-0.49747">
        <ele>59</ele>
        <time>2023-05-25T13:48:59Z</time>
      </trkpt>
      <trkpt lat="49.20594" lon="-0.4974">
        <ele>59</ele>
        <time>2023-05-25T13:49:00Z</time>
      </trkpt>
      <trkpt lat="49.20592" lon="-0.49734">
        <ele>59</ele>
        <time>2023-05-25T13:49:01Z</time>
      </trkpt>
      <trkpt lat="49.2059" lon="-0.49728">
        <ele>59</ele>
        <time>2023-05-25T13:49:02Z</time>
      </trkpt>
      <trkpt lat="49.20588" lon="-0.49721">
        <ele>59</ele>
        <time>2023-05-25T13:49:03Z</time>
      </trkpt>
      <trkpt lat="49.20586" lon="-0.49715">
        <ele>59</ele>
        <time>2023-05-25T13:49:04Z</time>
      </trkpt>
      <trkpt lat="49.20584" lon="-0.49708">
        <ele>59</ele>
        <time>2023-05-25T13:49:05Z</time>
      </trkpt>
      <trkpt lat="49.20583" lon="-0.49702">
        <ele>59</ele>
        <time>2023-05-25T13:49:06Z</time>
      </trkpt>
      <trkpt lat="49.20581" lon="-0.49695">
        <ele>59</ele>
        <time>2023-05-25T13:49:07Z</time>
      </trkpt>
      <trkpt lat="49.20579" lon="-0.49689">
        <ele>59</ele>
        <time>2023-05-25T13:49:08Z</time>
      </trkpt>
      <trkpt lat="49.20577" lon="-0.49682">
        <ele>59</ele>
        <time>2023-05-25T13:49:09Z</time>
      </trkpt>
      <trkpt lat="49.20575" lon="-0.49676">
        <ele>59</ele>
        <time>2023-05-25T13:49:10Z</time>
      </trkpt>
      <trkpt lat="49.20573" lon="-0.49669">
        <ele>59</ele>
        <time>2023-05-25T13:49:11Z</time>
      </trkpt>
      <trkpt lat="49.20571" lon="-0.49663">
        <ele>59</ele>
        <time>2023-05-25T13:49:12Z</time>
      </trkpt>
      <trkpt lat="49.20569" lon="-0.49656">
        <ele>59</ele>
        <time>2023-05-25T13:49:13Z</time>
      </trkpt>
      <trkpt lat="49.20567" lon="-0.49649">
        <ele>59.2</ele>
        <time>2023-05-25T13:49:14Z</time>
      </trkpt>
      <trkpt lat="49.20565" lon="-0.49643">
        <ele>59.2</ele>
        <time>2023-05-25T13:49:15Z</time>
      </trkpt>
      <trkpt lat="49.20563" lon="-0.49636">
        <ele>59.2</ele>
        <time>2023-05-25T13:49:16Z</time>
      </trkpt>
      <trkpt lat="49.20561" lon="-0.49629">
        <ele>59.2</ele>
        <time>2023-05-25T13:49:17Z</time>
      </trkpt>
      <trkpt lat="49.20559" lon="-0.49622">
        <ele>59.4</ele>
        <time>2023-05-25T13:49:18Z</time>
      </trkpt>
      <trkpt lat="49.20557" lon="-0.49616">
        <ele>59.4</ele>
        <time>2023-05-25T13:49:19Z</time>
      </trkpt>
      <trkpt lat="49.20555" lon="-0.49609">
        <ele>59.6</ele>
        <time>2023-05-25T13:49:20Z</time>
      </trkpt>
      <trkpt lat="49.20553" lon="-0.49602">
        <ele>59.6</ele>
        <time>2023-05-25T13:49:21Z</time>
      </trkpt>
      <trkpt lat="49.20551" lon="-0.49595">
        <ele>59.6</ele>
        <time>2023-05-25T13:49:22Z</time>
      </trkpt>
      <trkpt lat="49.20549" lon="-0.49588">
        <ele>59.6</ele>
        <time>2023-05-25T13:49:23Z</time>
      </trkpt>
      <trkpt lat="49.20547" lon="-0.4958">
        <ele>59.6</ele>
        <time>2023-05-25T13:49:24Z</time>
      </trkpt>
      <trkpt lat="49.20545" lon="-0.49573">
        <ele>59.6</ele>
        <time>2023-05-25T13:49:25Z</time>
      </trkpt>
      <trkpt lat="49.20543" lon="-0.49566">
        <ele>59.6</ele>
        <time>2023-05-25T13:49:26Z</time>
      </trkpt>
      <trkpt lat="49.20541" lon="-0.49559">
        <ele>59.6</ele>
        <time>2023-05-25T13:49:27Z</time>
      </trkpt>
      <trkpt lat="49.20539" lon="-0.49551">
        <ele>59.6</ele>
        <time>2023-05-25T13:49:28Z</time>
      </trkpt>
      <trkpt lat="49.20537" lon="-0.49544">
        <ele>59.4</ele>
        <time>2023-05-25T13:49:29Z</time>
      </trkpt>
      <trkpt lat="49.20534" lon="-0.49537">
        <ele>59.4</ele>
        <time>2023-05-25T13:49:30Z</time>
      </trkpt>
      <trkpt lat="49.20532" lon="-0.49529">
        <ele>59.4</ele>
        <time>2023-05-25T13:49:31Z</time>
      </trkpt>
      <trkpt lat="49.2053" lon="-0.49521">
        <ele>59.4</ele>
        <time>2023-05-25T13:49:32Z</time>
      </trkpt>
      <trkpt lat="49.20528" lon="-0.49514">
        <ele>59.2</ele>
        <time>2023-05-25T13:49:33Z</time>
      </trkpt>
      <trkpt lat="49.20526" lon="-0.49506">
        <ele>59.2</ele>
        <time>2023-05-25T13:49:34Z</time>
      </trkpt>
      <trkpt lat="49.20523" lon="-0.49498">
        <ele>59.2</ele>
        <time>2023-05-25T13:49:35Z</time>
      </trkpt>
      <trkpt lat="49.20521" lon="-0.49491">
        <ele>59</ele>
        <time>2023-05-25T13:49:36Z</time>
      </trkpt>
      <trkpt lat="49.20519" lon="-0.49483">
        <ele>59</ele>
        <time>2023-05-25T13:49:37Z</time>
      </trkpt>
      <trkpt lat="49.20517" lon="-0.49475">
        <ele>59</ele>
        <time>2023-05-25T13:49:38Z</time>
      </trkpt>
      <trkpt lat="49.20514" lon="-0.49467">
        <ele>58.8</ele>
        <time>2023-05-25T13:49:39Z</time>
      </trkpt>
      <trkpt lat="49.20512" lon="-0.49459">
        <ele>58.8</ele>
        <time>2023-05-25T13:49:40Z</time>
      </trkpt>
      <trkpt lat="49.2051" lon="-0.49451">
        <ele>58.6</ele>
        <time>2023-05-25T13:49:41Z</time>
      </trkpt>
      <trkpt lat="49.20507" lon="-0.49443">
        <ele>58.4</ele>
        <time>2023-05-25T13:49:42Z</time>
      </trkpt>
      <trkpt lat="49.20505" lon="-0.49435">
        <ele>58.2</ele>
        <time>2023-05-25T13:49:43Z</time>
      </trkpt>
      <trkpt lat="49.20502" lon="-0.49427">
        <ele>58.2</ele>
        <time>2023-05-25T13:49:44Z</time>
      </trkpt>
      <trkpt lat="49.205" lon="-0.49419">
        <ele>58</ele>
        <time>2023-05-25T13:49:45Z</time>
      </trkpt>
      <trkpt lat="49.20498" lon="-0.49411">
        <ele>58</ele>
        <time>2023-05-25T13:49:46Z</time>
      </trkpt>
      <trkpt lat="49.20495" lon="-0.49402">
        <ele>57.8</ele>
        <time>2023-05-25T13:49:47Z</time>
      </trkpt>
      <trkpt lat="49.20493" lon="-0.49394">
        <ele>57.8</ele>
        <time>2023-05-25T13:49:48Z</time>
      </trkpt>
      <trkpt lat="49.2049" lon="-0.49386">
        <ele>57.6</ele>
        <time>2023-05-25T13:49:49Z</time>
      </trkpt>
      <trkpt lat="49.20488" lon="-0.49377">
        <ele>57.6</ele>
        <time>2023-05-25T13:49:50Z</time>
      </trkpt>
      <trkpt lat="49.20485" lon="-0.49369">
        <ele>57.4</ele>
        <time>2023-05-25T13:49:51Z</time>
      </trkpt>
      <trkpt lat="49.20483" lon="-0.4936">
        <ele>57.2</ele>
        <time>2023-05-25T13:49:52Z</time>
      </trkpt>
      <trkpt lat="49.2048" lon="-0.49352">
        <ele>57.2</ele>
        <time>2023-05-25T13:49:53Z</time>
      </trkpt>
      <trkpt lat="49.20478" lon="-0.49344">
        <ele>57</ele>
        <time>2023-05-25T13:49:54Z</time>
      </trkpt>
      <trkpt lat="49.20475" lon="-0.49335">
        <ele>57</ele>
        <time>2023-05-25T13:49:55Z</time>
      </trkpt>
      <trkpt lat="49.20472" lon="-0.49326">
        <ele>57</ele>
        <time>2023-05-25T13:49:56Z</time>
      </trkpt>
      <trkpt lat="49.20469" lon="-0.49318">
        <ele>57</ele>
        <time>2023-05-25T13:49:57Z</time>
      </trkpt>
      <trkpt lat="49.20466" lon="-0.49309">
        <ele>56.8</ele>
        <time>2023-05-25T13:49:58Z</time>
      </trkpt>
      <trkpt lat="49.20463" lon="-0.49301">
        <ele>56.8</ele>
        <time>2023-05-25T13:49:59Z</time>
      </trkpt>
      <trkpt lat="49.20459" lon="-0.49292">
        <ele>56.6</ele>
        <time>2023-05-25T13:50:00Z</time>
      </trkpt>
      <trkpt lat="49.20456" lon="-0.49284">
        <ele>56.4</ele>
        <time>2023-05-25T13:50:01Z</time>
      </trkpt>
      <trkpt lat="49.20452" lon="-0.49275">
        <ele>56.2</ele>
        <time>2023-05-25T13:50:02Z</time>
      </trkpt>
      <trkpt lat="49.20448" lon="-0.49267">
        <ele>56</ele>
        <time>2023-05-25T13:50:03Z</time>
      </trkpt>
      <trkpt lat="49.20444" lon="-0.49259">
        <ele>55.8</ele>
        <time>2023-05-25T13:50:04Z</time>
      </trkpt>
      <trkpt lat="49.2044" lon="-0.49251">
        <ele>55.6</ele>
        <time>2023-05-25T13:50:05Z</time>
      </trkpt>
      <trkpt lat="49.20436" lon="-0.49243">
        <ele>55.4</ele>
        <time>2023-05-25T13:50:06Z</time>
      </trkpt>
      <trkpt lat="49.20431" lon="-0.49235">
        <ele>55.2</ele>
        <time>2023-05-25T13:50:07Z</time>
      </trkpt>
      <trkpt lat="49.20427" lon="-0.49227">
        <ele>55</ele>
        <time>2023-05-25T13:50:08Z</time>
      </trkpt>
      <trkpt lat="49.20422" lon="-0.49219">
        <ele>54.8</ele>
        <time>2023-05-25T13:50:09Z</time>
      </trkpt>
      <trkpt lat="49.20418" lon="-0.49212">
        <ele>54.6</ele>
        <time>2023-05-25T13:50:10Z</time>
      </trkpt>
      <trkpt lat="49.20413" lon="-0.49204">
        <ele>54.4</ele>
        <time>2023-05-25T13:50:11Z</time>
      </trkpt>
      <trkpt lat="49.20409" lon="-0.49196">
        <ele>54.2</ele>
        <time>2023-05-25T13:50:12Z</time>
      </trkpt>
      <trkpt lat="49.20404" lon="-0.49189">
        <ele>54.2</ele>
        <time>2023-05-25T13:50:13Z</time>
      </trkpt>
      <trkpt lat="49.204" lon="-0.49181">
        <ele>54</ele>
        <time>2023-05-25T13:50:14Z</time>
      </trkpt>
      <trkpt lat="49.20395" lon="-0.49173">
        <ele>54</ele>
        <time>2023-05-25T13:50:15Z</time>
      </trkpt>
      <trkpt lat="49.2039" lon="-0.49166">
        <ele>53.8</ele>
        <time>2023-05-25T13:50:16Z</time>
      </trkpt>
      <trkpt lat="49.20386" lon="-0.49158">
        <ele>53.6</ele>
        <time>2023-05-25T13:50:17Z</time>
      </trkpt>
      <trkpt lat="49.20381" lon="-0.49151">
        <ele>53.4</ele>
        <time>2023-05-25T13:50:18Z</time>
      </trkpt>
      <trkpt lat="49.20376" lon="-0.49146">
        <ele>53.2</ele>
        <time>2023-05-25T13:50:19Z</time>
      </trkpt>
      <trkpt lat="49.20371" lon="-0.49142">
        <ele>53</ele>
        <time>2023-05-25T13:50:20Z</time>
      </trkpt>
      <trkpt lat="49.20365" lon="-0.49138">
        <ele>53</ele>
        <time>2023-05-25T13:50:21Z</time>
      </trkpt>
      <trkpt lat="49.2036" lon="-0.49136">
        <ele>53</ele>
        <time>2023-05-25T13:50:22Z</time>
      </trkpt>
      <trkpt lat="49.20355" lon="-0.49133">
        <ele>52.8</ele>
        <time>2023-05-25T13:50:23Z</time>
      </trkpt>
      <trkpt lat="49.2035" lon="-0.49128">
        <ele>52.8</ele>
        <time>2023-05-25T13:50:24Z</time>
      </trkpt>
      <trkpt lat="49.20346" lon="-0.49122">
        <ele>52.6</ele>
        <time>2023-05-25T13:50:25Z</time>
      </trkpt>
      <trkpt lat="49.20344" lon="-0.49114">
        <ele>52.6</ele>
        <time>2023-05-25T13:50:26Z</time>
      </trkpt>
      <trkpt lat="49.20343" lon="-0.49106">
        <ele>52.4</ele>
        <time>2023-05-25T13:50:27Z</time>
      </trkpt>
      <trkpt lat="49.20344" lon="-0.49097">
        <ele>52.2</ele>
        <time>2023-05-25T13:50:28Z</time>
      </trkpt>
      <trkpt lat="49.20346" lon="-0.49088">
        <ele>52.2</ele>
        <time>2023-05-25T13:50:29Z</time>
      </trkpt>
      <trkpt lat="49.20348" lon="-0.49079">
        <ele>52</ele>
        <time>2023-05-25T13:50:30Z</time>
      </trkpt>
      <trkpt lat="49.20349" lon="-0.49069">
        <ele>52</ele>
        <time>2023-05-25T13:50:31Z</time>
      </trkpt>
      <trkpt lat="49.2035" lon="-0.49059">
        <ele>52</ele>
        <time>2023-05-25T13:50:32Z</time>
      </trkpt>
      <trkpt lat="49.2035" lon="-0.49049">
        <ele>51.8</ele>
        <time>2023-05-25T13:50:33Z</time>
      </trkpt>
      <trkpt lat="49.2035" lon="-0.49039">
        <ele>51.8</ele>
        <time>2023-05-25T13:50:34Z</time>
      </trkpt>
      <trkpt lat="49.2035" lon="-0.49029">
        <ele>51.6</ele>
        <time>2023-05-25T13:50:35Z</time>
      </trkpt>
      <trkpt lat="49.2035" lon="-0.49018">
        <ele>51.4</ele>
        <time>2023-05-25T13:50:36Z</time>
      </trkpt>
      <trkpt lat="49.20349" lon="-0.49008">
        <ele>51.2</ele>
        <time>2023-05-25T13:50:37Z</time>
      </trkpt>
      <trkpt lat="49.20349" lon="-0.48997">
        <ele>51.2</ele>
        <time>2023-05-25T13:50:38Z</time>
      </trkpt>
      <trkpt lat="49.20348" lon="-0.48987">
        <ele>51.2</ele>
        <time>2023-05-25T13:50:39Z</time>
      </trkpt>
      <trkpt lat="49.20348" lon="-0.48976">
        <ele>51.4</ele>
        <time>2023-05-25T13:50:40Z</time>
      </trkpt>
      <trkpt lat="49.20347" lon="-0.48965">
        <ele>51.4</ele>
        <time>2023-05-25T13:50:41Z</time>
      </trkpt>
      <trkpt lat="49.20347" lon="-0.48954">
        <ele>51.6</ele>
        <time>2023-05-25T13:50:42Z</time>
      </trkpt>
      <trkpt lat="49.20346" lon="-0.48943">
        <ele>51.6</ele>
        <time>2023-05-25T13:50:43Z</time>
      </trkpt>
      <trkpt lat="49.20345" lon="-0.48931">
        <ele>51.8</ele>
        <time>2023-05-25T13:50:44Z</time>
      </trkpt>
      <trkpt lat="49.20344" lon="-0.4892">
        <ele>51.8</ele>
        <time>2023-05-25T13:50:45Z</time>
      </trkpt>
      <trkpt lat="49.20342" lon="-0.48909">
        <ele>52</ele>
        <time>2023-05-25T13:50:46Z</time>
      </trkpt>
      <trkpt lat="49.2034" lon="-0.48897">
        <ele>52</ele>
        <time>2023-05-25T13:50:47Z</time>
      </trkpt>
      <trkpt lat="49.20338" lon="-0.48886">
        <ele>52.2</ele>
        <time>2023-05-25T13:50:48Z</time>
      </trkpt>
      <trkpt lat="49.20336" lon="-0.48875">
        <ele>52.4</ele>
        <time>2023-05-25T13:50:49Z</time>
      </trkpt>
      <trkpt lat="49.20334" lon="-0.48864">
        <ele>52.6</ele>
        <time>2023-05-25T13:50:50Z</time>
      </trkpt>
      <trkpt lat="49.20332" lon="-0.48853">
        <ele>52.8</ele>
        <time>2023-05-25T13:50:51Z</time>
      </trkpt>
      <trkpt lat="49.20329" lon="-0.48842">
        <ele>52.8</ele>
        <time>2023-05-25T13:50:52Z</time>
      </trkpt>
      <trkpt lat="49.20326" lon="-0.48831">
        <ele>52.8</ele>
        <time>2023-05-25T13:50:53Z</time>
      </trkpt>
      <trkpt lat="49.20324" lon="-0.4882">
        <ele>52.4</ele>
        <time>2023-05-25T13:50:54Z</time>
      </trkpt>
      <trkpt lat="49.20321" lon="-0.4881">
        <ele>52</ele>
        <time>2023-05-25T13:50:55Z</time>
      </trkpt>
      <trkpt lat="49.20318" lon="-0.488">
        <ele>52</ele>
        <time>2023-05-25T13:50:56Z</time>
      </trkpt>
      <trkpt lat="49.20315" lon="-0.48789">
        <ele>51.6</ele>
        <time>2023-05-25T13:50:57Z</time>
      </trkpt>
      <trkpt lat="49.20312" lon="-0.48779">
        <ele>51.4</ele>
        <time>2023-05-25T13:50:58Z</time>
      </trkpt>
      <trkpt lat="49.20309" lon="-0.4877">
        <ele>51.2</ele>
        <time>2023-05-25T13:50:59Z</time>
      </trkpt>
      <trkpt lat="49.20306" lon="-0.4876">
        <ele>51</ele>
        <time>2023-05-25T13:51:00Z</time>
      </trkpt>
      <trkpt lat="49.20303" lon="-0.4875">
        <ele>51</ele>
        <time>2023-05-25T13:51:01Z</time>
      </trkpt>
      <trkpt lat="49.20301" lon="-0.4874">
        <ele>51</ele>
        <time>2023-05-25T13:51:02Z</time>
      </trkpt>
      <trkpt lat="49.20298" lon="-0.48731">
        <ele>51</ele>
        <time>2023-05-25T13:51:03Z</time>
      </trkpt>
      <trkpt lat="49.20295" lon="-0.48721">
        <ele>51</ele>
        <time>2023-05-25T13:51:04Z</time>
      </trkpt>
      <trkpt lat="49.20292" lon="-0.48712">
        <ele>51</ele>
        <time>2023-05-25T13:51:05Z</time>
      </trkpt>
      <trkpt lat="49.20289" lon="-0.48702">
        <ele>51</ele>
        <time>2023-05-25T13:51:06Z</time>
      </trkpt>
      <trkpt lat="49.20287" lon="-0.48693">
        <ele>51</ele>
        <time>2023-05-25T13:51:07Z</time>
      </trkpt>
      <trkpt lat="49.20284" lon="-0.48683">
        <ele>51</ele>
        <time>2023-05-25T13:51:08Z</time>
      </trkpt>
      <trkpt lat="49.20281" lon="-0.48674">
        <ele>51.2</ele>
        <time>2023-05-25T13:51:09Z</time>
      </trkpt>
      <trkpt lat="49.20279" lon="-0.48665">
        <ele>51.4</ele>
        <time>2023-05-25T13:51:10Z</time>
      </trkpt>
      <trkpt lat="49.20276" lon="-0.48655">
        <ele>51.8</ele>
        <time>2023-05-25T13:51:11Z</time>
      </trkpt>
      <trkpt lat="49.20273" lon="-0.48646">
        <ele>52</ele>
        <time>2023-05-25T13:51:12Z</time>
      </trkpt>
      <trkpt lat="49.20271" lon="-0.48636">
        <ele>52.6</ele>
        <time>2023-05-25T13:51:13Z</time>
      </trkpt>
      <trkpt lat="49.20268" lon="-0.48627">
        <ele>53</ele>
        <time>2023-05-25T13:51:14Z</time>
      </trkpt>
      <trkpt lat="49.20265" lon="-0.48618">
        <ele>53.2</ele>
        <time>2023-05-25T13:51:15Z</time>
      </trkpt>
      <trkpt lat="49.20262" lon="-0.48608">
        <ele>53.8</ele>
        <time>2023-05-25T13:51:16Z</time>
      </trkpt>
      <trkpt lat="49.20259" lon="-0.48599">
        <ele>54</ele>
        <time>2023-05-25T13:51:17Z</time>
      </trkpt>
      <trkpt lat="49.20256" lon="-0.4859">
        <ele>54.6</ele>
        <time>2023-05-25T13:51:18Z</time>
      </trkpt>
      <trkpt lat="49.20252" lon="-0.48581">
        <ele>55</ele>
        <time>2023-05-25T13:51:19Z</time>
      </trkpt>
      <trkpt lat="49.20249" lon="-0.48571">
        <ele>54.8</ele>
        <time>2023-05-25T13:51:20Z</time>
      </trkpt>
      <trkpt lat="49.20246" lon="-0.48562">
        <ele>54.8</ele>
        <time>2023-05-25T13:51:21Z</time>
      </trkpt>
      <trkpt lat="49.20242" lon="-0.48553">
        <ele>54.6</ele>
        <time>2023-05-25T13:51:22Z</time>
      </trkpt>
      <trkpt lat="49.20239" lon="-0.48543">
        <ele>54.4</ele>
        <time>2023-05-25T13:51:23Z</time>
      </trkpt>
      <trkpt lat="49.20236" lon="-0.48534">
        <ele>54.2</ele>
        <time>2023-05-25T13:51:24Z</time>
      </trkpt>
      <trkpt lat="49.20233" lon="-0.48524">
        <ele>54</ele>
        <time>2023-05-25T13:51:25Z</time>
      </trkpt>
      <trkpt lat="49.2023" lon="-0.48515">
        <ele>54</ele>
        <time>2023-05-25T13:51:26Z</time>
      </trkpt>
      <trkpt lat="49.20226" lon="-0.48505">
        <ele>53.8</ele>
        <time>2023-05-25T13:51:27Z</time>
      </trkpt>
      <trkpt lat="49.20223" lon="-0.48496">
        <ele>53.6</ele>
        <time>2023-05-25T13:51:28Z</time>
      </trkpt>
      <trkpt lat="49.2022" lon="-0.48486">
        <ele>53.6</ele>
        <time>2023-05-25T13:51:29Z</time>
      </trkpt>
      <trkpt lat="49.20216" lon="-0.48476">
        <ele>53.6</ele>
        <time>2023-05-25T13:51:30Z</time>
      </trkpt>
      <trkpt lat="49.20213" lon="-0.48467">
        <ele>53.6</ele>
        <time>2023-05-25T13:51:31Z</time>
      </trkpt>
      <trkpt lat="49.2021" lon="-0.48457">
        <ele>53.6</ele>
        <time>2023-05-25T13:51:32Z</time>
      </trkpt>
      <trkpt lat="49.20206" lon="-0.48448">
        <ele>53.6</ele>
        <time>2023-05-25T13:51:33Z</time>
      </trkpt>
      <trkpt lat="49.20203" lon="-0.48438">
        <ele>53.6</ele>
        <time>2023-05-25T13:51:34Z</time>
      </trkpt>
      <trkpt lat="49.202" lon="-0.48429">
        <ele>53.8</ele>
        <time>2023-05-25T13:51:35Z</time>
      </trkpt>
      <trkpt lat="49.20197" lon="-0.48419">
        <ele>54</ele>
        <time>2023-05-25T13:51:36Z</time>
      </trkpt>
      <trkpt lat="49.20194" lon="-0.4841">
        <ele>54</ele>
        <time>2023-05-25T13:51:37Z</time>
      </trkpt>
      <trkpt lat="49.20191" lon="-0.48401">
        <ele>54</ele>
        <time>2023-05-25T13:51:38Z</time>
      </trkpt>
      <trkpt lat="49.20188" lon="-0.48392">
        <ele>54</ele>
        <time>2023-05-25T13:51:39Z</time>
      </trkpt>
      <trkpt lat="49.20185" lon="-0.48384">
        <ele>53.8</ele>
        <time>2023-05-25T13:51:40Z</time>
      </trkpt>
      <trkpt lat="49.20183" lon="-0.48375">
        <ele>53.8</ele>
        <time>2023-05-25T13:51:41Z</time>
      </trkpt>
      <trkpt lat="49.2018" lon="-0.48367">
        <ele>53.6</ele>
        <time>2023-05-25T13:51:42Z</time>
      </trkpt>
      <trkpt lat="49.20177" lon="-0.48358">
        <ele>53.6</ele>
        <time>2023-05-25T13:51:43Z</time>
      </trkpt>
      <trkpt lat="49.20174" lon="-0.4835">
        <ele>53.2</ele>
        <time>2023-05-25T13:51:44Z</time>
      </trkpt>
      <trkpt lat="49.20171" lon="-0.48341">
        <ele>53.2</ele>
        <time>2023-05-25T13:51:45Z</time>
      </trkpt>
      <trkpt lat="49.20168" lon="-0.48333">
        <ele>53</ele>
        <time>2023-05-25T13:51:46Z</time>
      </trkpt>
      <trkpt lat="49.20165" lon="-0.48324">
        <ele>52.8</ele>
        <time>2023-05-25T13:51:47Z</time>
      </trkpt>
      <trkpt lat="49.20163" lon="-0.48315">
        <ele>52.6</ele>
        <time>2023-05-25T13:51:48Z</time>
      </trkpt>
      <trkpt lat="49.2016" lon="-0.48306">
        <ele>52.2</ele>
        <time>2023-05-25T13:51:49Z</time>
      </trkpt>
      <trkpt lat="49.20157" lon="-0.48296">
        <ele>52</ele>
        <time>2023-05-25T13:51:50Z</time>
      </trkpt>
      <trkpt lat="49.20153" lon="-0.48287">
        <ele>51.8</ele>
        <time>2023-05-25T13:51:51Z</time>
      </trkpt>
      <trkpt lat="49.2015" lon="-0.48277">
        <ele>51.6</ele>
        <time>2023-05-25T13:51:52Z</time>
      </trkpt>
      <trkpt lat="49.20147" lon="-0.48267">
        <ele>51.4</ele>
        <time>2023-05-25T13:51:53Z</time>
      </trkpt>
      <trkpt lat="49.20144" lon="-0.48258">
        <ele>51.2</ele>
        <time>2023-05-25T13:51:54Z</time>
      </trkpt>
      <trkpt lat="49.20141" lon="-0.48248">
        <ele>51</ele>
        <time>2023-05-25T13:51:55Z</time>
      </trkpt>
      <trkpt lat="49.20138" lon="-0.48238">
        <ele>50.8</ele>
        <time>2023-05-25T13:51:56Z</time>
      </trkpt>
      <trkpt lat="49.20134" lon="-0.48229">
        <ele>50.6</ele>
        <time>2023-05-25T13:51:57Z</time>
      </trkpt>
      <trkpt lat="49.20131" lon="-0.48219">
        <ele>50.4</ele>
        <time>2023-05-25T13:51:58Z</time>
      </trkpt>
      <trkpt lat="49.20128" lon="-0.48209">
        <ele>50.2</ele>
        <time>2023-05-25T13:51:59Z</time>
      </trkpt>
      <trkpt lat="49.20125" lon="-0.482">
        <ele>50</ele>
        <time>2023-05-25T13:52:00Z</time>
      </trkpt>
      <trkpt lat="49.20122" lon="-0.4819">
        <ele>50</ele>
        <time>2023-05-25T13:52:01Z</time>
      </trkpt>
      <trkpt lat="49.20119" lon="-0.4818">
        <ele>49.8</ele>
        <time>2023-05-25T13:52:02Z</time>
      </trkpt>
      <trkpt lat="49.20116" lon="-0.48171">
        <ele>49.8</ele>
        <time>2023-05-25T13:52:03Z</time>
      </trkpt>
      <trkpt lat="49.20113" lon="-0.48161">
        <ele>49.6</ele>
        <time>2023-05-25T13:52:04Z</time>
      </trkpt>
      <trkpt lat="49.2011" lon="-0.48152">
        <ele>49.4</ele>
        <time>2023-05-25T13:52:05Z</time>
      </trkpt>
      <trkpt lat="49.20107" lon="-0.48143">
        <ele>49.4</ele>
        <time>2023-05-25T13:52:06Z</time>
      </trkpt>
      <trkpt lat="49.20103" lon="-0.48134">
        <ele>49.2</ele>
        <time>2023-05-25T13:52:07Z</time>
      </trkpt>
      <trkpt lat="49.201" lon="-0.48125">
        <ele>49.2</ele>
        <time>2023-05-25T13:52:08Z</time>
      </trkpt>
      <trkpt lat="49.20096" lon="-0.48117">
        <ele>49.2</ele>
        <time>2023-05-25T13:52:09Z</time>
      </trkpt>
      <trkpt lat="49.20093" lon="-0.48108">
        <ele>49</ele>
        <time>2023-05-25T13:52:10Z</time>
      </trkpt>
      <trkpt lat="49.20089" lon="-0.48099">
        <ele>49</ele>
        <time>2023-05-25T13:52:11Z</time>
      </trkpt>
      <trkpt lat="49.20085" lon="-0.48091">
        <ele>49</ele>
        <time>2023-05-25T13:52:12Z</time>
      </trkpt>
      <trkpt lat="49.20081" lon="-0.48082">
        <ele>49</ele>
        <time>2023-05-25T13:52:13Z</time>
      </trkpt>
      <trkpt lat="49.20077" lon="-0.48074">
        <ele>49</ele>
        <time>2023-05-25T13:52:14Z</time>
      </trkpt>
      <trkpt lat="49.20073" lon="-0.48065">
        <ele>48.8</ele>
        <time>2023-05-25T13:52:15Z</time>
      </trkpt>
      <trkpt lat="49.20069" lon="-0.48057">
        <ele>48.8</ele>
        <time>2023-05-25T13:52:16Z</time>
      </trkpt>
      <trkpt lat="49.20065" lon="-0.48048">
        <ele>48.6</ele>
        <time>2023-05-25T13:52:17Z</time>
      </trkpt>
      <trkpt lat="49.20061" lon="-0.4804">
        <ele>48.6</ele>
        <time>2023-05-25T13:52:18Z</time>
      </trkpt>
      <trkpt lat="49.20057" lon="-0.48032">
        <ele>48.4</ele>
        <time>2023-05-25T13:52:19Z</time>
      </trkpt>
      <trkpt lat="49.20053" lon="-0.48024">
        <ele>48.2</ele>
        <time>2023-05-25T13:52:20Z</time>
      </trkpt>
      <trkpt lat="49.20049" lon="-0.48015">
        <ele>48.2</ele>
        <time>2023-05-25T13:52:21Z</time>
      </trkpt>
      <trkpt lat="49.20045" lon="-0.48007">
        <ele>48</ele>
        <time>2023-05-25T13:52:22Z</time>
      </trkpt>
      <trkpt lat="49.20041" lon="-0.47999">
        <ele>48</ele>
        <time>2023-05-25T13:52:23Z</time>
      </trkpt>
      <trkpt lat="49.20037" lon="-0.47991">
        <ele>48</ele>
        <time>2023-05-25T13:52:24Z</time>
      </trkpt>
      <trkpt lat="49.20032" lon="-0.47983">
        <ele>48</ele>
        <time>2023-05-25T13:52:25Z</time>
      </trkpt>
      <trkpt lat="49.20029" lon="-0.47975">
        <ele>48</ele>
        <time>2023-05-25T13:52:26Z</time>
      </trkpt>
      <trkpt lat="49.20025" lon="-0.47967">
        <ele>47.8</ele>
        <time>2023-05-25T13:52:27Z</time>
      </trkpt>
      <trkpt lat="49.20021" lon="-0.47958">
        <ele>47.8</ele>
        <time>2023-05-25T13:52:28Z</time>
      </trkpt>
      <trkpt lat="49.20017" lon="-0.4795">
        <ele>47.6</ele>
        <time>2023-05-25T13:52:29Z</time>
      </trkpt>
      <trkpt lat="49.20013" lon="-0.47941">
        <ele>47.6</ele>
        <time>2023-05-25T13:52:30Z</time>
      </trkpt>
      <trkpt lat="49.2001" lon="-0.47933">
        <ele>47.2</ele>
        <time>2023-05-25T13:52:31Z</time>
      </trkpt>
      <trkpt lat="49.20006" lon="-0.47924">
        <ele>47.2</ele>
        <time>2023-05-25T13:52:32Z</time>
      </trkpt>
      <trkpt lat="49.20004" lon="-0.47915">
        <ele>47</ele>
        <time>2023-05-25T13:52:33Z</time>
      </trkpt>
      <trkpt lat="49.20001" lon="-0.47906">
        <ele>46.8</ele>
        <time>2023-05-25T13:52:34Z</time>
      </trkpt>
      <trkpt lat="49.19999" lon="-0.47896">
        <ele>46.6</ele>
        <time>2023-05-25T13:52:35Z</time>
      </trkpt>
      <trkpt lat="49.19997" lon="-0.47887">
        <ele>46.2</ele>
        <time>2023-05-25T13:52:36Z</time>
      </trkpt>
      <trkpt lat="49.19995" lon="-0.47878">
        <ele>46</ele>
        <time>2023-05-25T13:52:37Z</time>
      </trkpt>
      <trkpt lat="49.19994" lon="-0.47868">
        <ele>46</ele>
        <time>2023-05-25T13:52:38Z</time>
      </trkpt>
      <trkpt lat="49.19992" lon="-0.47859">
        <ele>45.8</ele>
        <time>2023-05-25T13:52:39Z</time>
      </trkpt>
      <trkpt lat="49.19991" lon="-0.4785">
        <ele>45.6</ele>
        <time>2023-05-25T13:52:40Z</time>
      </trkpt>
      <trkpt lat="49.1999" lon="-0.47841">
        <ele>45.2</ele>
        <time>2023-05-25T13:52:41Z</time>
      </trkpt>
      <trkpt lat="49.19989" lon="-0.47833">
        <ele>45</ele>
        <time>2023-05-25T13:52:42Z</time>
      </trkpt>
      <trkpt lat="49.19988" lon="-0.47824">
        <ele>45.2</ele>
        <time>2023-05-25T13:52:43Z</time>
      </trkpt>
      <trkpt lat="49.19988" lon="-0.47816">
        <ele>45.2</ele>
        <time>2023-05-25T13:52:44Z</time>
      </trkpt>
      <trkpt lat="49.19987" lon="-0.47808">
        <ele>45.4</ele>
        <time>2023-05-25T13:52:45Z</time>
      </trkpt>
      <trkpt lat="49.19987" lon="-0.47801">
        <ele>45.6</ele>
        <time>2023-05-25T13:52:46Z</time>
      </trkpt>
      <trkpt lat="49.19987" lon="-0.47793">
        <ele>45.6</ele>
        <time>2023-05-25T13:52:47Z</time>
      </trkpt>
      <trkpt lat="49.19987" lon="-0.47787">
        <ele>45.8</ele>
        <time>2023-05-25T13:52:48Z</time>
      </trkpt>
      <trkpt lat="49.19986" lon="-0.47781">
        <ele>45.8</ele>
        <time>2023-05-25T13:52:49Z</time>
      </trkpt>
      <trkpt lat="49.19985" lon="-0.47776">
        <ele>46</ele>
        <time>2023-05-25T13:52:50Z</time>
      </trkpt>
      <trkpt lat="49.19984" lon="-0.47772">
        <ele>46</ele>
        <time>2023-05-25T13:52:51Z</time>
      </trkpt>
      <trkpt lat="49.19983" lon="-0.47769">
        <ele>46</ele>
        <time>2023-05-25T13:52:52Z</time>
      </trkpt>
      <trkpt lat="49.19983" lon="-0.47765">
        <ele>46</ele>
        <time>2023-05-25T13:52:53Z</time>
      </trkpt>
      <trkpt lat="49.19983" lon="-0.47761">
        <ele>46</ele>
        <time>2023-05-25T13:52:54Z</time>
      </trkpt>
      <trkpt lat="49.19984" lon="-0.47757">
        <ele>46</ele>
        <time>2023-05-25T13:52:55Z</time>
      </trkpt>
      <trkpt lat="49.19985" lon="-0.47752">
        <ele>46.2</ele>
        <time>2023-05-25T13:52:56Z</time>
      </trkpt>
      <trkpt lat="49.19986" lon="-0.47747">
        <ele>46.2</ele>
        <time>2023-05-25T13:52:57Z</time>
      </trkpt>
      <trkpt lat="49.19986" lon="-0.47741">
        <ele>46.4</ele>
        <time>2023-05-25T13:52:58Z</time>
      </trkpt>
      <trkpt lat="49.19987" lon="-0.47736">
        <ele>46.6</ele>
        <time>2023-05-25T13:52:59Z</time>
      </trkpt>
      <trkpt lat="49.19987" lon="-0.4773">
        <ele>46.8</ele>
        <time>2023-05-25T13:53:00Z</time>
      </trkpt>
      <trkpt lat="49.19987" lon="-0.47725">
        <ele>47</ele>
        <time>2023-05-25T13:53:01Z</time>
      </trkpt>
      <trkpt lat="49.19987" lon="-0.47718">
        <ele>47</ele>
        <time>2023-05-25T13:53:02Z</time>
      </trkpt>
      <trkpt lat="49.19987" lon="-0.47712">
        <ele>47.2</ele>
        <time>2023-05-25T13:53:03Z</time>
      </trkpt>
      <trkpt lat="49.19987" lon="-0.47705">
        <ele>47.6</ele>
        <time>2023-05-25T13:53:04Z</time>
      </trkpt>
      <trkpt lat="49.19987" lon="-0.47698">
        <ele>47.8</ele>
        <time>2023-05-25T13:53:05Z</time>
      </trkpt>
      <trkpt lat="49.19987" lon="-0.4769">
        <ele>48</ele>
        <time>2023-05-25T13:53:06Z</time>
      </trkpt>
      <trkpt lat="49.19987" lon="-0.47683">
        <ele>48.2</ele>
        <time>2023-05-25T13:53:07Z</time>
      </trkpt>
      <trkpt lat="49.19987" lon="-0.47676">
        <ele>48.4</ele>
        <time>2023-05-25T13:53:08Z</time>
      </trkpt>
      <trkpt lat="49.19987" lon="-0.47669">
        <ele>48.6</ele>
        <time>2023-05-25T13:53:09Z</time>
      </trkpt>
      <trkpt lat="49.19987" lon="-0.47661">
        <ele>48.8</ele>
        <time>2023-05-25T13:53:10Z</time>
      </trkpt>
      <trkpt lat="49.19987" lon="-0.47654">
        <ele>48.8</ele>
        <time>2023-05-25T13:53:11Z</time>
      </trkpt>
      <trkpt lat="49.19987" lon="-0.47647">
        <ele>48.8</ele>
        <time>2023-05-25T13:53:12Z</time>
      </trkpt>
      <trkpt lat="49.19987" lon="-0.47639">
        <ele>48.8</ele>
        <time>2023-05-25T13:53:13Z</time>
      </trkpt>
      <trkpt lat="49.19987" lon="-0.47632">
        <ele>48.8</ele>
        <time>2023-05-25T13:53:14Z</time>
      </trkpt>
      <trkpt lat="49.19987" lon="-0.47624">
        <ele>48.8</ele>
        <time>2023-05-25T13:53:15Z</time>
      </trkpt>
      <trkpt lat="49.19987" lon="-0.47617">
        <ele>48.8</ele>
        <time>2023-05-25T13:53:16Z</time>
      </trkpt>
      <trkpt lat="49.19987" lon="-0.47609">
        <ele>48.8</ele>
        <time>2023-05-25T13:53:17Z</time>
      </trkpt>
      <trkpt lat="49.19987" lon="-0.47602">
        <ele>48.8</ele>
        <time>2023-05-25T13:53:18Z</time>
      </trkpt>
      <trkpt lat="49.19987" lon="-0.47594">
        <ele>48.8</ele>
        <time>2023-05-25T13:53:19Z</time>
      </trkpt>
      <trkpt lat="49.19987" lon="-0.47587">
        <ele>48.8</ele>
        <time>2023-05-25T13:53:20Z</time>
      </trkpt>
      <trkpt lat="49.19987" lon="-0.47579">
        <ele>48.8</ele>
        <time>2023-05-25T13:53:21Z</time>
      </trkpt>
      <trkpt lat="49.19987" lon="-0.47571">
        <ele>48.8</ele>
        <time>2023-05-25T13:53:22Z</time>
      </trkpt>
      <trkpt lat="49.19987" lon="-0.47564">
        <ele>48.8</ele>
        <time>2023-05-25T13:53:23Z</time>
      </trkpt>
      <trkpt lat="49.19987" lon="-0.47556">
        <ele>48.8</ele>
        <time>2023-05-25T13:53:24Z</time>
      </trkpt>
      <trkpt lat="49.19987" lon="-0.47548">
        <ele>48.8</ele>
        <time>2023-05-25T13:53:25Z</time>
      </trkpt>
      <trkpt lat="49.19987" lon="-0.4754">
        <ele>48.8</ele>
        <time>2023-05-25T13:53:26Z</time>
      </trkpt>
      <trkpt lat="49.19988" lon="-0.47532">
        <ele>48.8</ele>
        <time>2023-05-25T13:53:27Z</time>
      </trkpt>
      <trkpt lat="49.19988" lon="-0.47525">
        <ele>48.8</ele>
        <time>2023-05-25T13:53:28Z</time>
      </trkpt>
      <trkpt lat="49.19988" lon="-0.47517">
        <ele>48.8</ele>
        <time>2023-05-25T13:53:29Z</time>
      </trkpt>
      <trkpt lat="49.19988" lon="-0.47509">
        <ele>48.8</ele>
        <time>2023-05-25T13:53:30Z</time>
      </trkpt>
      <trkpt lat="49.19988" lon="-0.47502">
        <ele>49</ele>
        <time>2023-05-25T13:53:31Z</time>
      </trkpt>
      <trkpt lat="49.19988" lon="-0.47494">
        <ele>49</ele>
        <time>2023-05-25T13:53:32Z</time>
      </trkpt>
      <trkpt lat="49.19988" lon="-0.47486">
        <ele>49</ele>
        <time>2023-05-25T13:53:33Z</time>
      </trkpt>
      <trkpt lat="49.19988" lon="-0.47479">
        <ele>49</ele>
        <time>2023-05-25T13:53:34Z</time>
      </trkpt>
      <trkpt lat="49.19988" lon="-0.47471">
        <ele>49</ele>
        <time>2023-05-25T13:53:35Z</time>
      </trkpt>
      <trkpt lat="49.19987" lon="-0.47463">
        <ele>49</ele>
        <time>2023-05-25T13:53:36Z</time>
      </trkpt>
      <trkpt lat="49.19987" lon="-0.47456">
        <ele>49</ele>
        <time>2023-05-25T13:53:37Z</time>
      </trkpt>
      <trkpt lat="49.19987" lon="-0.47448">
        <ele>49</ele>
        <time>2023-05-25T13:53:38Z</time>
      </trkpt>
      <trkpt lat="49.19986" lon="-0.47441">
        <ele>49</ele>
        <time>2023-05-25T13:53:39Z</time>
      </trkpt>
      <trkpt lat="49.19985" lon="-0.47433">
        <ele>49</ele>
        <time>2023-05-25T13:53:40Z</time>
      </trkpt>
      <trkpt lat="49.19984" lon="-0.47425">
        <ele>49</ele>
        <time>2023-05-25T13:53:41Z</time>
      </trkpt>
      <trkpt lat="49.19983" lon="-0.47417">
        <ele>49</ele>
        <time>2023-05-25T13:53:42Z</time>
      </trkpt>
      <trkpt lat="49.19982" lon="-0.4741">
        <ele>49</ele>
        <time>2023-05-25T13:53:43Z</time>
      </trkpt>
      <trkpt lat="49.19981" lon="-0.47402">
        <ele>49</ele>
        <time>2023-05-25T13:53:44Z</time>
      </trkpt>
      <trkpt lat="49.19979" lon="-0.47395">
        <ele>49</ele>
        <time>2023-05-25T13:53:45Z</time>
      </trkpt>
      <trkpt lat="49.19978" lon="-0.47387">
        <ele>49.2</ele>
        <time>2023-05-25T13:53:46Z</time>
      </trkpt>
      <trkpt lat="49.19977" lon="-0.4738">
        <ele>49.2</ele>
        <time>2023-05-25T13:53:47Z</time>
      </trkpt>
      <trkpt lat="49.19975" lon="-0.47373">
        <ele>49.2</ele>
        <time>2023-05-25T13:53:48Z</time>
      </trkpt>
      <trkpt lat="49.19974" lon="-0.47365">
        <ele>49.4</ele>
        <time>2023-05-25T13:53:49Z</time>
      </trkpt>
      <trkpt lat="49.19972" lon="-0.47358">
        <ele>49.6</ele>
        <time>2023-05-25T13:53:50Z</time>
      </trkpt>
      <trkpt lat="49.1997" lon="-0.47351">
        <ele>49.6</ele>
        <time>2023-05-25T13:53:51Z</time>
      </trkpt>
      <trkpt lat="49.19969" lon="-0.47343">
        <ele>49.8</ele>
        <time>2023-05-25T13:53:52Z</time>
      </trkpt>
      <trkpt lat="49.19967" lon="-0.47336">
        <ele>49.8</ele>
        <time>2023-05-25T13:53:53Z</time>
      </trkpt>
      <trkpt lat="49.19966" lon="-0.47329">
        <ele>49.8</ele>
        <time>2023-05-25T13:53:54Z</time>
      </trkpt>
      <trkpt lat="49.19964" lon="-0.47322">
        <ele>50</ele>
        <time>2023-05-25T13:53:55Z</time>
      </trkpt>
      <trkpt lat="49.19963" lon="-0.47315">
        <ele>50</ele>
        <time>2023-05-25T13:53:56Z</time>
      </trkpt>
      <trkpt lat="49.19962" lon="-0.47307">
        <ele>50</ele>
        <time>2023-05-25T13:53:57Z</time>
      </trkpt>
      <trkpt lat="49.19961" lon="-0.473">
        <ele>50</ele>
        <time>2023-05-25T13:53:58Z</time>
      </trkpt>
      <trkpt lat="49.1996" lon="-0.47293">
        <ele>50.2</ele>
        <time>2023-05-25T13:53:59Z</time>
      </trkpt>
      <trkpt lat="49.19958" lon="-0.47286">
        <ele>50.2</ele>
        <time>2023-05-25T13:54:00Z</time>
      </trkpt>
      <trkpt lat="49.19957" lon="-0.47278">
        <ele>50.4</ele>
        <time>2023-05-25T13:54:01Z</time>
      </trkpt>
      <trkpt lat="49.19956" lon="-0.47271">
        <ele>50.6</ele>
        <time>2023-05-25T13:54:02Z</time>
      </trkpt>
      <trkpt lat="49.19954" lon="-0.47264">
        <ele>50.6</ele>
        <time>2023-05-25T13:54:03Z</time>
      </trkpt>
      <trkpt lat="49.19953" lon="-0.47257">
        <ele>50.8</ele>
        <time>2023-05-25T13:54:04Z</time>
      </trkpt>
      <trkpt lat="49.19951" lon="-0.4725">
        <ele>50.8</ele>
        <time>2023-05-25T13:54:05Z</time>
      </trkpt>
      <trkpt lat="49.1995" lon="-0.47242">
        <ele>50.8</ele>
        <time>2023-05-25T13:54:06Z</time>
      </trkpt>
      <trkpt lat="49.19949" lon="-0.47235">
        <ele>51</ele>
        <time>2023-05-25T13:54:07Z</time>
      </trkpt>
      <trkpt lat="49.19947" lon="-0.47228">
        <ele>51</ele>
        <time>2023-05-25T13:54:08Z</time>
      </trkpt>
      <trkpt lat="49.19946" lon="-0.47221">
        <ele>51</ele>
        <time>2023-05-25T13:54:09Z</time>
      </trkpt>
      <trkpt lat="49.19944" lon="-0.47214">
        <ele>51</ele>
        <time>2023-05-25T13:54:10Z</time>
      </trkpt>
      <trkpt lat="49.19943" lon="-0.47207">
        <ele>51</ele>
        <time>2023-05-25T13:54:11Z</time>
      </trkpt>
      <trkpt lat="49.19942" lon="-0.472">
        <ele>51</ele>
        <time>2023-05-25T13:54:12Z</time>
      </trkpt>
      <trkpt lat="49.1994" lon="-0.47193">
        <ele>51</ele>
        <time>2023-05-25T13:54:13Z</time>
      </trkpt>
      <trkpt lat="49.19939" lon="-0.47186">
        <ele>51.2</ele>
        <time>2023-05-25T13:54:14Z</time>
      </trkpt>
      <trkpt lat="49.19938" lon="-0.47179">
        <ele>51.2</ele>
        <time>2023-05-25T13:54:15Z</time>
      </trkpt>
      <trkpt lat="49.19936" lon="-0.47172">
        <ele>51.2</ele>
        <time>2023-05-25T13:54:16Z</time>
      </trkpt>
      <trkpt lat="49.19935" lon="-0.47165">
        <ele>51.2</ele>
        <time>2023-05-25T13:54:17Z</time>
      </trkpt>
      <trkpt lat="49.19934" lon="-0.47158">
        <ele>51.4</ele>
        <time>2023-05-25T13:54:18Z</time>
      </trkpt>
      <trkpt lat="49.19932" lon="-0.47151">
        <ele>51.6</ele>
        <time>2023-05-25T13:54:19Z</time>
      </trkpt>
      <trkpt lat="49.19931" lon="-0.47144">
        <ele>51.6</ele>
        <time>2023-05-25T13:54:20Z</time>
      </trkpt>
      <trkpt lat="49.19929" lon="-0.47137">
        <ele>51.6</ele>
        <time>2023-05-25T13:54:21Z</time>
      </trkpt>
      <trkpt lat="49.19928" lon="-0.4713">
        <ele>51.8</ele>
        <time>2023-05-25T13:54:22Z</time>
      </trkpt>
      <trkpt lat="49.19926" lon="-0.47123">
        <ele>51.8</ele>
        <time>2023-05-25T13:54:23Z</time>
      </trkpt>
      <trkpt lat="49.19925" lon="-0.47115">
        <ele>51.8</ele>
        <time>2023-05-25T13:54:24Z</time>
      </trkpt>
      <trkpt lat="49.19924" lon="-0.47109">
        <ele>51.8</ele>
        <time>2023-05-25T13:54:25Z</time>
      </trkpt>
      <trkpt lat="49.19922" lon="-0.47102">
        <ele>52</ele>
        <time>2023-05-25T13:54:26Z</time>
      </trkpt>
      <trkpt lat="49.19921" lon="-0.47095">
        <ele>52</ele>
        <time>2023-05-25T13:54:27Z</time>
      </trkpt>
      <trkpt lat="49.19919" lon="-0.47088">
        <ele>52</ele>
        <time>2023-05-25T13:54:28Z</time>
      </trkpt>
      <trkpt lat="49.19918" lon="-0.47081">
        <ele>52</ele>
        <time>2023-05-25T13:54:29Z</time>
      </trkpt>
      <trkpt lat="49.19917" lon="-0.47074">
        <ele>52</ele>
        <time>2023-05-25T13:54:30Z</time>
      </trkpt>
      <trkpt lat="49.19915" lon="-0.47067">
        <ele>52.2</ele>
        <time>2023-05-25T13:54:31Z</time>
      </trkpt>
      <trkpt lat="49.19914" lon="-0.47061">
        <ele>52.2</ele>
        <time>2023-05-25T13:54:32Z</time>
      </trkpt>
      <trkpt lat="49.19913" lon="-0.47054">
        <ele>52.4</ele>
        <time>2023-05-25T13:54:33Z</time>
      </trkpt>
      <trkpt lat="49.19911" lon="-0.47047">
        <ele>52.6</ele>
        <time>2023-05-25T13:54:34Z</time>
      </trkpt>
      <trkpt lat="49.1991" lon="-0.47041">
        <ele>52.6</ele>
        <time>2023-05-25T13:54:35Z</time>
      </trkpt>
      <trkpt lat="49.19909" lon="-0.47034">
        <ele>52.8</ele>
        <time>2023-05-25T13:54:36Z</time>
      </trkpt>
      <trkpt lat="49.19907" lon="-0.47027">
        <ele>52.8</ele>
        <time>2023-05-25T13:54:37Z</time>
      </trkpt>
      <trkpt lat="49.19906" lon="-0.4702">
        <ele>52.8</ele>
        <time>2023-05-25T13:54:38Z</time>
      </trkpt>
      <trkpt lat="49.19905" lon="-0.47013">
        <ele>53</ele>
        <time>2023-05-25T13:54:39Z</time>
      </trkpt>
      <trkpt lat="49.19903" lon="-0.47006">
        <ele>53</ele>
        <time>2023-05-25T13:54:40Z</time>
      </trkpt>
      <trkpt lat="49.19902" lon="-0.46999">
        <ele>53</ele>
        <time>2023-05-25T13:54:41Z</time>
      </trkpt>
      <trkpt lat="49.19901" lon="-0.46992">
        <ele>53</ele>
        <time>2023-05-25T13:54:42Z</time>
      </trkpt>
      <trkpt lat="49.19899" lon="-0.46984">
        <ele>53</ele>
        <time>2023-05-25T13:54:43Z</time>
      </trkpt>
      <trkpt lat="49.19898" lon="-0.46977">
        <ele>53</ele>
        <time>2023-05-25T13:54:44Z</time>
      </trkpt>
      <trkpt lat="49.19896" lon="-0.4697">
        <ele>53</ele>
        <time>2023-05-25T13:54:45Z</time>
      </trkpt>
      <trkpt lat="49.19895" lon="-0.46963">
        <ele>53</ele>
        <time>2023-05-25T13:54:46Z</time>
      </trkpt>
      <trkpt lat="49.19893" lon="-0.46955">
        <ele>53</ele>
        <time>2023-05-25T13:54:47Z</time>
      </trkpt>
      <trkpt lat="49.19892" lon="-0.46949">
        <ele>53</ele>
        <time>2023-05-25T13:54:48Z</time>
      </trkpt>
      <trkpt lat="49.19891" lon="-0.46942">
        <ele>53</ele>
        <time>2023-05-25T13:54:49Z</time>
      </trkpt>
      <trkpt lat="49.19889" lon="-0.46935">
        <ele>53</ele>
        <time>2023-05-25T13:54:50Z</time>
      </trkpt>
      <trkpt lat="49.19888" lon="-0.46928">
        <ele>53</ele>
        <time>2023-05-25T13:54:51Z</time>
      </trkpt>
      <trkpt lat="49.19887" lon="-0.46922">
        <ele>53</ele>
        <time>2023-05-25T13:54:52Z</time>
      </trkpt>
      <trkpt lat="49.19886" lon="-0.46915">
        <ele>53</ele>
        <time>2023-05-25T13:54:53Z</time>
      </trkpt>
      <trkpt lat="49.19884" lon="-0.46908">
        <ele>53</ele>
        <time>2023-05-25T13:54:54Z</time>
      </trkpt>
      <trkpt lat="49.19883" lon="-0.46901">
        <ele>53.2</ele>
        <time>2023-05-25T13:54:55Z</time>
      </trkpt>
      <trkpt lat="49.19881" lon="-0.46894">
        <ele>53.2</ele>
        <time>2023-05-25T13:54:56Z</time>
      </trkpt>
      <trkpt lat="49.1988" lon="-0.46887">
        <ele>53.2</ele>
        <time>2023-05-25T13:54:57Z</time>
      </trkpt>
      <trkpt lat="49.19879" lon="-0.4688">
        <ele>53.4</ele>
        <time>2023-05-25T13:54:58Z</time>
      </trkpt>
      <trkpt lat="49.19877" lon="-0.46873">
        <ele>53.6</ele>
        <time>2023-05-25T13:54:59Z</time>
      </trkpt>
      <trkpt lat="49.19876" lon="-0.46865">
        <ele>53.6</ele>
        <time>2023-05-25T13:55:00Z</time>
      </trkpt>
      <trkpt lat="49.19875" lon="-0.46858">
        <ele>53.8</ele>
        <time>2023-05-25T13:55:01Z</time>
      </trkpt>
      <trkpt lat="49.19873" lon="-0.46851">
        <ele>53.8</ele>
        <time>2023-05-25T13:55:02Z</time>
      </trkpt>
      <trkpt lat="49.19872" lon="-0.46843">
        <ele>54</ele>
        <time>2023-05-25T13:55:03Z</time>
      </trkpt>
      <trkpt lat="49.1987" lon="-0.46836">
        <ele>54</ele>
        <time>2023-05-25T13:55:04Z</time>
      </trkpt>
      <trkpt lat="49.19869" lon="-0.46829">
        <ele>54.2</ele>
        <time>2023-05-25T13:55:05Z</time>
      </trkpt>
      <trkpt lat="49.19867" lon="-0.46821">
        <ele>54.2</ele>
        <time>2023-05-25T13:55:06Z</time>
      </trkpt>
      <trkpt lat="49.19866" lon="-0.46814">
        <ele>54.4</ele>
        <time>2023-05-25T13:55:07Z</time>
      </trkpt>
      <trkpt lat="49.19865" lon="-0.46806">
        <ele>54.6</ele>
        <time>2023-05-25T13:55:08Z</time>
      </trkpt>
      <trkpt lat="49.19863" lon="-0.46799">
        <ele>54.6</ele>
        <time>2023-05-25T13:55:09Z</time>
      </trkpt>
      <trkpt lat="49.19862" lon="-0.46791">
        <ele>54.8</ele>
        <time>2023-05-25T13:55:10Z</time>
      </trkpt>
      <trkpt lat="49.1986" lon="-0.46784">
        <ele>54.8</ele>
        <time>2023-05-25T13:55:11Z</time>
      </trkpt>
      <trkpt lat="49.19859" lon="-0.46777">
        <ele>55</ele>
        <time>2023-05-25T13:55:12Z</time>
      </trkpt>
      <trkpt lat="49.19857" lon="-0.46769">
        <ele>55</ele>
        <time>2023-05-25T13:55:13Z</time>
      </trkpt>
      <trkpt lat="49.19856" lon="-0.46762">
        <ele>55</ele>
        <time>2023-05-25T13:55:14Z</time>
      </trkpt>
      <trkpt lat="49.19855" lon="-0.46754">
        <ele>55.2</ele>
        <time>2023-05-25T13:55:15Z</time>
      </trkpt>
      <trkpt lat="49.19853" lon="-0.46747">
        <ele>55.2</ele>
        <time>2023-05-25T13:55:16Z</time>
      </trkpt>
      <trkpt lat="49.19852" lon="-0.46739">
        <ele>55.4</ele>
        <time>2023-05-25T13:55:17Z</time>
      </trkpt>
      <trkpt lat="49.1985" lon="-0.46732">
        <ele>55.6</ele>
        <time>2023-05-25T13:55:18Z</time>
      </trkpt>
      <trkpt lat="49.19849" lon="-0.46724">
        <ele>55.8</ele>
        <time>2023-05-25T13:55:19Z</time>
      </trkpt>
      <trkpt lat="49.19847" lon="-0.46717">
        <ele>55.8</ele>
        <time>2023-05-25T13:55:20Z</time>
      </trkpt>
      <trkpt lat="49.19846" lon="-0.4671">
        <ele>56</ele>
        <time>2023-05-25T13:55:21Z</time>
      </trkpt>
      <trkpt lat="49.19844" lon="-0.46702">
        <ele>56</ele>
        <time>2023-05-25T13:55:22Z</time>
      </trkpt>
      <trkpt lat="49.19843" lon="-0.46695">
        <ele>56.2</ele>
        <time>2023-05-25T13:55:23Z</time>
      </trkpt>
      <trkpt lat="49.19841" lon="-0.46687">
        <ele>56.4</ele>
        <time>2023-05-25T13:55:24Z</time>
      </trkpt>
      <trkpt lat="49.1984" lon="-0.4668">
        <ele>56.6</ele>
        <time>2023-05-25T13:55:25Z</time>
      </trkpt>
      <trkpt lat="49.19838" lon="-0.46672">
        <ele>56.8</ele>
        <time>2023-05-25T13:55:26Z</time>
      </trkpt>
      <trkpt lat="49.19837" lon="-0.46665">
        <ele>57</ele>
        <time>2023-05-25T13:55:27Z</time>
      </trkpt>
      <trkpt lat="49.19835" lon="-0.46658">
        <ele>57</ele>
        <time>2023-05-25T13:55:28Z</time>
      </trkpt>
      <trkpt lat="49.19834" lon="-0.4665">
        <ele>57.2</ele>
        <time>2023-05-25T13:55:29Z</time>
      </trkpt>
      <trkpt lat="49.19832" lon="-0.46643">
        <ele>57.2</ele>
        <time>2023-05-25T13:55:30Z</time>
      </trkpt>
      <trkpt lat="49.19831" lon="-0.46636">
        <ele>57.4</ele>
        <time>2023-05-25T13:55:31Z</time>
      </trkpt>
      <trkpt lat="49.1983" lon="-0.46629">
        <ele>57.6</ele>
        <time>2023-05-25T13:55:32Z</time>
      </trkpt>
      <trkpt lat="49.19828" lon="-0.46622">
        <ele>57.6</ele>
        <time>2023-05-25T13:55:33Z</time>
      </trkpt>
      <trkpt lat="49.19827" lon="-0.46616">
        <ele>57.8</ele>
        <time>2023-05-25T13:55:34Z</time>
      </trkpt>
      <trkpt lat="49.19825" lon="-0.46609">
        <ele>57.8</ele>
        <time>2023-05-25T13:55:35Z</time>
      </trkpt>
      <trkpt lat="49.19824" lon="-0.46602">
        <ele>58</ele>
        <time>2023-05-25T13:55:36Z</time>
      </trkpt>
      <trkpt lat="49.19823" lon="-0.46596">
        <ele>58</ele>
        <time>2023-05-25T13:55:37Z</time>
      </trkpt>
      <trkpt lat="49.19821" lon="-0.4659">
        <ele>58.2</ele>
        <time>2023-05-25T13:55:38Z</time>
      </trkpt>
      <trkpt lat="49.1982" lon="-0.46583">
        <ele>58.2</ele>
        <time>2023-05-25T13:55:39Z</time>
      </trkpt>
      <trkpt lat="49.19819" lon="-0.46577">
        <ele>58.6</ele>
        <time>2023-05-25T13:55:40Z</time>
      </trkpt>
      <trkpt lat="49.19818" lon="-0.46571">
        <ele>58.8</ele>
        <time>2023-05-25T13:55:41Z</time>
      </trkpt>
      <trkpt lat="49.19816" lon="-0.46565">
        <ele>59</ele>
        <time>2023-05-25T13:55:42Z</time>
      </trkpt>
      <trkpt lat="49.19815" lon="-0.46559">
        <ele>59.2</ele>
        <time>2023-05-25T13:55:43Z</time>
      </trkpt>
      <trkpt lat="49.19814" lon="-0.46553">
        <ele>59.6</ele>
        <time>2023-05-25T13:55:44Z</time>
      </trkpt>
      <trkpt lat="49.19813" lon="-0.46547">
        <ele>59.8</ele>
        <time>2023-05-25T13:55:45Z</time>
      </trkpt>
      <trkpt lat="49.19812" lon="-0.46541">
        <ele>60</ele>
        <time>2023-05-25T13:55:46Z</time>
      </trkpt>
      <trkpt lat="49.19811" lon="-0.46536">
        <ele>60</ele>
        <time>2023-05-25T13:55:47Z</time>
      </trkpt>
      <trkpt lat="49.1981" lon="-0.4653">
        <ele>60.2</ele>
        <time>2023-05-25T13:55:48Z</time>
      </trkpt>
      <trkpt lat="49.19809" lon="-0.46524">
        <ele>60.6</ele>
        <time>2023-05-25T13:55:49Z</time>
      </trkpt>
      <trkpt lat="49.19807" lon="-0.46518">
        <ele>60.8</ele>
        <time>2023-05-25T13:55:50Z</time>
      </trkpt>
      <trkpt lat="49.19806" lon="-0.46513">
        <ele>61</ele>
        <time>2023-05-25T13:55:51Z</time>
      </trkpt>
      <trkpt lat="49.19805" lon="-0.46507">
        <ele>61</ele>
        <time>2023-05-25T13:55:52Z</time>
      </trkpt>
      <trkpt lat="49.19804" lon="-0.46501">
        <ele>61.2</ele>
        <time>2023-05-25T13:55:53Z</time>
      </trkpt>
      <trkpt lat="49.19803" lon="-0.46496">
        <ele>61.4</ele>
        <time>2023-05-25T13:55:54Z</time>
      </trkpt>
      <trkpt lat="49.19802" lon="-0.4649">
        <ele>61.4</ele>
        <time>2023-05-25T13:55:55Z</time>
      </trkpt>
      <trkpt lat="49.19801" lon="-0.46485">
        <ele>61.4</ele>
        <time>2023-05-25T13:55:56Z</time>
      </trkpt>
      <trkpt lat="49.19799" lon="-0.46479">
        <ele>61.4</ele>
        <time>2023-05-25T13:55:57Z</time>
      </trkpt>
      <trkpt lat="49.19798" lon="-0.46473">
        <ele>61.2</ele>
        <time>2023-05-25T13:55:58Z</time>
      </trkpt>
      <trkpt lat="49.19797" lon="-0.46468">
        <ele>61.2</ele>
        <time>2023-05-25T13:55:59Z</time>
      </trkpt>
      <trkpt lat="49.19796" lon="-0.46462">
        <ele>61.2</ele>
        <time>2023-05-25T13:56:00Z</time>
      </trkpt>
      <trkpt lat="49.19795" lon="-0.46456">
        <ele>61.2</ele>
        <time>2023-05-25T13:56:01Z</time>
      </trkpt>
      <trkpt lat="49.19794" lon="-0.46451">
        <ele>61.2</ele>
        <time>2023-05-25T13:56:02Z</time>
      </trkpt>
      <trkpt lat="49.19793" lon="-0.46445">
        <ele>61.2</ele>
        <time>2023-05-25T13:56:03Z</time>
      </trkpt>
      <trkpt lat="49.19792" lon="-0.46439">
        <ele>61</ele>
        <time>2023-05-25T13:56:04Z</time>
      </trkpt>
      <trkpt lat="49.1979" lon="-0.46434">
        <ele>61</ele>
        <time>2023-05-25T13:56:05Z</time>
      </trkpt>
      <trkpt lat="49.19789" lon="-0.46428">
        <ele>61</ele>
        <time>2023-05-25T13:56:06Z</time>
      </trkpt>
      <trkpt lat="49.19788" lon="-0.46423">
        <ele>61</ele>
        <time>2023-05-25T13:56:07Z</time>
      </trkpt>
      <trkpt lat="49.19787" lon="-0.46417">
        <ele>61</ele>
        <time>2023-05-25T13:56:08Z</time>
      </trkpt>
      <trkpt lat="49.19786" lon="-0.46411">
        <ele>61</ele>
        <time>2023-05-25T13:56:09Z</time>
      </trkpt>
      <trkpt lat="49.19785" lon="-0.46406">
        <ele>61</ele>
        <time>2023-05-25T13:56:10Z</time>
      </trkpt>
      <trkpt lat="49.19784" lon="-0.464">
        <ele>61</ele>
        <time>2023-05-25T13:56:11Z</time>
      </trkpt>
      <trkpt lat="49.19783" lon="-0.46394">
        <ele>61.2</ele>
        <time>2023-05-25T13:56:12Z</time>
      </trkpt>
      <trkpt lat="49.19782" lon="-0.46389">
        <ele>61.2</ele>
        <time>2023-05-25T13:56:13Z</time>
      </trkpt>
      <trkpt lat="49.19781" lon="-0.46383">
        <ele>61.4</ele>
        <time>2023-05-25T13:56:14Z</time>
      </trkpt>
      <trkpt lat="49.1978" lon="-0.46378">
        <ele>61.6</ele>
        <time>2023-05-25T13:56:15Z</time>
      </trkpt>
      <trkpt lat="49.19779" lon="-0.46372">
        <ele>61.6</ele>
        <time>2023-05-25T13:56:16Z</time>
      </trkpt>
      <trkpt lat="49.19778" lon="-0.46367">
        <ele>61.8</ele>
        <time>2023-05-25T13:56:17Z</time>
      </trkpt>
      <trkpt lat="49.19776" lon="-0.46361">
        <ele>61.8</ele>
        <time>2023-05-25T13:56:18Z</time>
      </trkpt>
      <trkpt lat="49.19775" lon="-0.46356">
        <ele>61.8</ele>
        <time>2023-05-25T13:56:19Z</time>
      </trkpt>
      <trkpt lat="49.19774" lon="-0.4635">
        <ele>62</ele>
        <time>2023-05-25T13:56:20Z</time>
      </trkpt>
      <trkpt lat="49.19773" lon="-0.46344">
        <ele>62</ele>
        <time>2023-05-25T13:56:21Z</time>
      </trkpt>
      <trkpt lat="49.19772" lon="-0.46339">
        <ele>62.2</ele>
        <time>2023-05-25T13:56:22Z</time>
      </trkpt>
      <trkpt lat="49.19771" lon="-0.46333">
        <ele>62.2</ele>
        <time>2023-05-25T13:56:23Z</time>
      </trkpt>
      <trkpt lat="49.1977" lon="-0.46327">
        <ele>62.4</ele>
        <time>2023-05-25T13:56:24Z</time>
      </trkpt>
      <trkpt lat="49.19769" lon="-0.46321">
        <ele>62.6</ele>
        <time>2023-05-25T13:56:25Z</time>
      </trkpt>
      <trkpt lat="49.19769" lon="-0.46315">
        <ele>62.8</ele>
        <time>2023-05-25T13:56:26Z</time>
      </trkpt>
      <trkpt lat="49.19768" lon="-0.4631">
        <ele>62.8</ele>
        <time>2023-05-25T13:56:27Z</time>
      </trkpt>
      <trkpt lat="49.19767" lon="-0.46304">
        <ele>63</ele>
        <time>2023-05-25T13:56:28Z</time>
      </trkpt>
      <trkpt lat="49.19767" lon="-0.46298">
        <ele>63</ele>
        <time>2023-05-25T13:56:29Z</time>
      </trkpt>
      <trkpt lat="49.19766" lon="-0.46292">
        <ele>63.2</ele>
        <time>2023-05-25T13:56:30Z</time>
      </trkpt>
      <trkpt lat="49.19766" lon="-0.46286">
        <ele>63.2</ele>
        <time>2023-05-25T13:56:31Z</time>
      </trkpt>
      <trkpt lat="49.19765" lon="-0.4628">
        <ele>63.6</ele>
        <time>2023-05-25T13:56:32Z</time>
      </trkpt>
      <trkpt lat="49.19764" lon="-0.46275">
        <ele>63.6</ele>
        <time>2023-05-25T13:56:33Z</time>
      </trkpt>
      <trkpt lat="49.19762" lon="-0.46271">
        <ele>63.6</ele>
        <time>2023-05-25T13:56:34Z</time>
      </trkpt>
      <trkpt lat="49.19759" lon="-0.46266">
        <ele>63.8</ele>
        <time>2023-05-25T13:56:35Z</time>
      </trkpt>
      <trkpt lat="49.19757" lon="-0.46261">
        <ele>63.8</ele>
        <time>2023-05-25T13:56:36Z</time>
      </trkpt>
      <trkpt lat="49.19755" lon="-0.46256">
        <ele>64</ele>
        <time>2023-05-25T13:56:37Z</time>
      </trkpt>
      <trkpt lat="49.19754" lon="-0.46251">
        <ele>64</ele>
        <time>2023-05-25T13:56:38Z</time>
      </trkpt>
      <trkpt lat="49.19755" lon="-0.46245">
        <ele>64.2</ele>
        <time>2023-05-25T13:56:39Z</time>
      </trkpt>
      <trkpt lat="49.19756" lon="-0.4624">
        <ele>64.4</ele>
        <time>2023-05-25T13:56:40Z</time>
      </trkpt>
      <trkpt lat="49.19757" lon="-0.46235">
        <ele>64.6</ele>
        <time>2023-05-25T13:56:41Z</time>
      </trkpt>
      <trkpt lat="49.19759" lon="-0.4623">
        <ele>64.6</ele>
        <time>2023-05-25T13:56:42Z</time>
      </trkpt>
      <trkpt lat="49.1976" lon="-0.46225">
        <ele>64.8</ele>
        <time>2023-05-25T13:56:43Z</time>
      </trkpt>
      <trkpt lat="49.19761" lon="-0.4622">
        <ele>65</ele>
        <time>2023-05-25T13:56:44Z</time>
      </trkpt>
      <trkpt lat="49.19762" lon="-0.46215">
        <ele>65</ele>
        <time>2023-05-25T13:56:45Z</time>
      </trkpt>
      <trkpt lat="49.19762" lon="-0.46209">
        <ele>65.2</ele>
        <time>2023-05-25T13:56:46Z</time>
      </trkpt>
      <trkpt lat="49.19762" lon="-0.46203">
        <ele>65.4</ele>
        <time>2023-05-25T13:56:47Z</time>
      </trkpt>
      <trkpt lat="49.19761" lon="-0.46197">
        <ele>65.6</ele>
        <time>2023-05-25T13:56:48Z</time>
      </trkpt>
      <trkpt lat="49.1976" lon="-0.4619">
        <ele>65.6</ele>
        <time>2023-05-25T13:56:49Z</time>
      </trkpt>
      <trkpt lat="49.1976" lon="-0.46183">
        <ele>65.8</ele>
        <time>2023-05-25T13:56:50Z</time>
      </trkpt>
      <trkpt lat="49.19759" lon="-0.46176">
        <ele>66</ele>
        <time>2023-05-25T13:56:51Z</time>
      </trkpt>
      <trkpt lat="49.19757" lon="-0.46169">
        <ele>66</ele>
        <time>2023-05-25T13:56:52Z</time>
      </trkpt>
      <trkpt lat="49.19756" lon="-0.46162">
        <ele>66.2</ele>
        <time>2023-05-25T13:56:53Z</time>
      </trkpt>
      <trkpt lat="49.19755" lon="-0.46155">
        <ele>66.4</ele>
        <time>2023-05-25T13:56:54Z</time>
      </trkpt>
      <trkpt lat="49.19754" lon="-0.46147">
        <ele>66.4</ele>
        <time>2023-05-25T13:56:55Z</time>
      </trkpt>
      <trkpt lat="49.19753" lon="-0.4614">
        <ele>66.4</ele>
        <time>2023-05-25T13:56:56Z</time>
      </trkpt>
      <trkpt lat="49.19752" lon="-0.46133">
        <ele>66.4</ele>
        <time>2023-05-25T13:56:57Z</time>
      </trkpt>
      <trkpt lat="49.1975" lon="-0.46125">
        <ele>66.6</ele>
        <time>2023-05-25T13:56:58Z</time>
      </trkpt>
      <trkpt lat="49.1975" lon="-0.46118">
        <ele>66.6</ele>
        <time>2023-05-25T13:56:59Z</time>
      </trkpt>
      <trkpt lat="49.19749" lon="-0.4611">
        <ele>66.6</ele>
        <time>2023-05-25T13:57:00Z</time>
      </trkpt>
      <trkpt lat="49.19748" lon="-0.46103">
        <ele>66.6</ele>
        <time>2023-05-25T13:57:01Z</time>
      </trkpt>
      <trkpt lat="49.19747" lon="-0.46095">
        <ele>66.8</ele>
        <time>2023-05-25T13:57:02Z</time>
      </trkpt>
      <trkpt lat="49.19747" lon="-0.46088">
        <ele>66.8</ele>
        <time>2023-05-25T13:57:03Z</time>
      </trkpt>
      <trkpt lat="49.19747" lon="-0.46081">
        <ele>66.8</ele>
        <time>2023-05-25T13:57:04Z</time>
      </trkpt>
      <trkpt lat="49.19747" lon="-0.46074">
        <ele>66.6</ele>
        <time>2023-05-25T13:57:05Z</time>
      </trkpt>
      <trkpt lat="49.19748" lon="-0.46067">
        <ele>66.6</ele>
        <time>2023-05-25T13:57:06Z</time>
      </trkpt>
      <trkpt lat="49.1975" lon="-0.46061">
        <ele>66.4</ele>
        <time>2023-05-25T13:57:07Z</time>
      </trkpt>
      <trkpt lat="49.19752" lon="-0.46054">
        <ele>66.4</ele>
        <time>2023-05-25T13:57:08Z</time>
      </trkpt>
      <trkpt lat="49.19753" lon="-0.46048">
        <ele>66.2</ele>
        <time>2023-05-25T13:57:09Z</time>
      </trkpt>
      <trkpt lat="49.19755" lon="-0.46041">
        <ele>66</ele>
        <time>2023-05-25T13:57:10Z</time>
      </trkpt>
      <trkpt lat="49.19757" lon="-0.46035">
        <ele>66</ele>
        <time>2023-05-25T13:57:11Z</time>
      </trkpt>
      <trkpt lat="49.19758" lon="-0.46028">
        <ele>65.8</ele>
        <time>2023-05-25T13:57:12Z</time>
      </trkpt>
      <trkpt lat="49.19759" lon="-0.46021">
        <ele>65.6</ele>
        <time>2023-05-25T13:57:13Z</time>
      </trkpt>
      <trkpt lat="49.19759" lon="-0.46015">
        <ele>65.6</ele>
        <time>2023-05-25T13:57:14Z</time>
      </trkpt>
      <trkpt lat="49.19759" lon="-0.46008">
        <ele>65.4</ele>
        <time>2023-05-25T13:57:15Z</time>
      </trkpt>
      <trkpt lat="49.19758" lon="-0.46001">
        <ele>65</ele>
        <time>2023-05-25T13:57:16Z</time>
      </trkpt>
      <trkpt lat="49.19757" lon="-0.45995">
        <ele>65</ele>
        <time>2023-05-25T13:57:17Z</time>
      </trkpt>
      <trkpt lat="49.19756" lon="-0.45989">
        <ele>65</ele>
        <time>2023-05-25T13:57:18Z</time>
      </trkpt>
      <trkpt lat="49.19754" lon="-0.45983">
        <ele>65</ele>
        <time>2023-05-25T13:57:19Z</time>
      </trkpt>
      <trkpt lat="49.19752" lon="-0.45977">
        <ele>64.8</ele>
        <time>2023-05-25T13:57:20Z</time>
      </trkpt>
      <trkpt lat="49.19749" lon="-0.45972">
        <ele>64.6</ele>
        <time>2023-05-25T13:57:21Z</time>
      </trkpt>
      <trkpt lat="49.19746" lon="-0.45967">
        <ele>64.6</ele>
        <time>2023-05-25T13:57:22Z</time>
      </trkpt>
      <trkpt lat="49.19741" lon="-0.45963">
        <ele>64.6</ele>
        <time>2023-05-25T13:57:23Z</time>
      </trkpt>
      <trkpt lat="49.19736" lon="-0.45959">
        <ele>64.6</ele>
        <time>2023-05-25T13:57:24Z</time>
      </trkpt>
      <trkpt lat="49.19732" lon="-0.45955">
        <ele>64.6</ele>
        <time>2023-05-25T13:57:25Z</time>
      </trkpt>
      <trkpt lat="49.19728" lon="-0.45949">
        <ele>64.4</ele>
        <time>2023-05-25T13:57:26Z</time>
      </trkpt>
      <trkpt lat="49.19725" lon="-0.4594">
        <ele>64.4</ele>
        <time>2023-05-25T13:57:27Z</time>
      </trkpt>
      <trkpt lat="49.19724" lon="-0.45932">
        <ele>64.2</ele>
        <time>2023-05-25T13:57:28Z</time>
      </trkpt>
      <trkpt lat="49.19725" lon="-0.45924">
        <ele>64</ele>
        <time>2023-05-25T13:57:29Z</time>
      </trkpt>
      <trkpt lat="49.19728" lon="-0.45917">
        <ele>64</ele>
        <time>2023-05-25T13:57:30Z</time>
      </trkpt>
      <trkpt lat="49.19731" lon="-0.45911">
        <ele>64</ele>
        <time>2023-05-25T13:57:31Z</time>
      </trkpt>
      <trkpt lat="49.19735" lon="-0.45906">
        <ele>64.2</ele>
        <time>2023-05-25T13:57:32Z</time>
      </trkpt>
      <trkpt lat="49.19739" lon="-0.45902">
        <ele>64.4</ele>
        <time>2023-05-25T13:57:33Z</time>
      </trkpt>
      <trkpt lat="49.19743" lon="-0.45898">
        <ele>64.4</ele>
        <time>2023-05-25T13:57:34Z</time>
      </trkpt>
      <trkpt lat="49.19748" lon="-0.45895">
        <ele>64.6</ele>
        <time>2023-05-25T13:57:35Z</time>
      </trkpt>
      <trkpt lat="49.19752" lon="-0.4589">
        <ele>64.6</ele>
        <time>2023-05-25T13:57:36Z</time>
      </trkpt>
      <trkpt lat="49.19755" lon="-0.45885">
        <ele>65</ele>
        <time>2023-05-25T13:57:37Z</time>
      </trkpt>
      <trkpt lat="49.19757" lon="-0.45878">
        <ele>65</ele>
        <time>2023-05-25T13:57:38Z</time>
      </trkpt>
      <trkpt lat="49.19758" lon="-0.45871">
        <ele>65.4</ele>
        <time>2023-05-25T13:57:39Z</time>
      </trkpt>
      <trkpt lat="49.19759" lon="-0.45864">
        <ele>65.6</ele>
        <time>2023-05-25T13:57:40Z</time>
      </trkpt>
      <trkpt lat="49.1976" lon="-0.45857">
        <ele>65.6</ele>
        <time>2023-05-25T13:57:41Z</time>
      </trkpt>
      <trkpt lat="49.1976" lon="-0.45849">
        <ele>66</ele>
        <time>2023-05-25T13:57:42Z</time>
      </trkpt>
      <trkpt lat="49.19759" lon="-0.45842">
        <ele>66</ele>
        <time>2023-05-25T13:57:43Z</time>
      </trkpt>
      <trkpt lat="49.19759" lon="-0.45834">
        <ele>66.2</ele>
        <time>2023-05-25T13:57:44Z</time>
      </trkpt>
      <trkpt lat="49.19759" lon="-0.45826">
        <ele>66.4</ele>
        <time>2023-05-25T13:57:45Z</time>
      </trkpt>
      <trkpt lat="49.19759" lon="-0.45818">
        <ele>66.4</ele>
        <time>2023-05-25T13:57:46Z</time>
      </trkpt>
      <trkpt lat="49.19759" lon="-0.45811">
        <ele>66.6</ele>
        <time>2023-05-25T13:57:47Z</time>
      </trkpt>
      <trkpt lat="49.1976" lon="-0.45803">
        <ele>66.6</ele>
        <time>2023-05-25T13:57:48Z</time>
      </trkpt>
      <trkpt lat="49.19761" lon="-0.45795">
        <ele>66.6</ele>
        <time>2023-05-25T13:57:49Z</time>
      </trkpt>
      <trkpt lat="49.19763" lon="-0.45788">
        <ele>66.8</ele>
        <time>2023-05-25T13:57:50Z</time>
      </trkpt>
      <trkpt lat="49.19765" lon="-0.45781">
        <ele>67</ele>
        <time>2023-05-25T13:57:51Z</time>
      </trkpt>
      <trkpt lat="49.19767" lon="-0.45775">
        <ele>67</ele>
        <time>2023-05-25T13:57:52Z</time>
      </trkpt>
      <trkpt lat="49.1977" lon="-0.45769">
        <ele>67</ele>
        <time>2023-05-25T13:57:53Z</time>
      </trkpt>
      <trkpt lat="49.19773" lon="-0.45763">
        <ele>67.2</ele>
        <time>2023-05-25T13:57:54Z</time>
      </trkpt>
      <trkpt lat="49.19776" lon="-0.45758">
        <ele>67.4</ele>
        <time>2023-05-25T13:57:55Z</time>
      </trkpt>
      <trkpt lat="49.1978" lon="-0.45753">
        <ele>67.4</ele>
        <time>2023-05-25T13:57:56Z</time>
      </trkpt>
      <trkpt lat="49.19783" lon="-0.45749">
        <ele>67.4</ele>
        <time>2023-05-25T13:57:57Z</time>
      </trkpt>
      <trkpt lat="49.19787" lon="-0.45745">
        <ele>67.4</ele>
        <time>2023-05-25T13:57:58Z</time>
      </trkpt>
      <trkpt lat="49.19791" lon="-0.45741">
        <ele>67.6</ele>
        <time>2023-05-25T13:57:59Z</time>
      </trkpt>
      <trkpt lat="49.19795" lon="-0.45738">
        <ele>67.6</ele>
        <time>2023-05-25T13:58:00Z</time>
      </trkpt>
      <trkpt lat="49.19799" lon="-0.45735">
        <ele>67.6</ele>
        <time>2023-05-25T13:58:01Z</time>
      </trkpt>
      <trkpt lat="49.19803" lon="-0.45732">
        <ele>67.6</ele>
        <time>2023-05-25T13:58:02Z</time>
      </trkpt>
      <trkpt lat="49.19807" lon="-0.45729">
        <ele>67.6</ele>
        <time>2023-05-25T13:58:03Z</time>
      </trkpt>
      <trkpt lat="49.19811" lon="-0.45726">
        <ele>67.6</ele>
        <time>2023-05-25T13:58:04Z</time>
      </trkpt>
      <trkpt lat="49.19815" lon="-0.45723">
        <ele>67.8</ele>
        <time>2023-05-25T13:58:05Z</time>
      </trkpt>
      <trkpt lat="49.19818" lon="-0.4572">
        <ele>67.8</ele>
        <time>2023-05-25T13:58:06Z</time>
      </trkpt>
      <trkpt lat="49.19822" lon="-0.45716">
        <ele>68</ele>
        <time>2023-05-25T13:58:07Z</time>
      </trkpt>
      <trkpt lat="49.19825" lon="-0.45713">
        <ele>68</ele>
        <time>2023-05-25T13:58:08Z</time>
      </trkpt>
      <trkpt lat="49.19828" lon="-0.45708">
        <ele>68</ele>
        <time>2023-05-25T13:58:09Z</time>
      </trkpt>
      <trkpt lat="49.1983" lon="-0.45703">
        <ele>68</ele>
        <time>2023-05-25T13:58:10Z</time>
      </trkpt>
      <trkpt lat="49.19831" lon="-0.45697">
        <ele>68</ele>
        <time>2023-05-25T13:58:11Z</time>
      </trkpt>
      <trkpt lat="49.19833" lon="-0.45691">
        <ele>68</ele>
        <time>2023-05-25T13:58:12Z</time>
      </trkpt>
      <trkpt lat="49.19835" lon="-0.45686">
        <ele>68</ele>
        <time>2023-05-25T13:58:13Z</time>
      </trkpt>
      <trkpt lat="49.19838" lon="-0.45681">
        <ele>68</ele>
        <time>2023-05-25T13:58:14Z</time>
      </trkpt>
      <trkpt lat="49.19841" lon="-0.45675">
        <ele>68</ele>
        <time>2023-05-25T13:58:15Z</time>
      </trkpt>
      <trkpt lat="49.19843" lon="-0.45669">
        <ele>68</ele>
        <time>2023-05-25T13:58:16Z</time>
      </trkpt>
      <trkpt lat="49.19843" lon="-0.45663">
        <ele>68</ele>
        <time>2023-05-25T13:58:17Z</time>
      </trkpt>
      <trkpt lat="49.19842" lon="-0.45656">
        <ele>68</ele>
        <time>2023-05-25T13:58:18Z</time>
      </trkpt>
      <trkpt lat="49.19841" lon="-0.45649">
        <ele>67.8</ele>
        <time>2023-05-25T13:58:19Z</time>
      </trkpt>
      <trkpt lat="49.19839" lon="-0.45642">
        <ele>67.6</ele>
        <time>2023-05-25T13:58:20Z</time>
      </trkpt>
      <trkpt lat="49.19838" lon="-0.45635">
        <ele>67.6</ele>
        <time>2023-05-25T13:58:21Z</time>
      </trkpt>
      <trkpt lat="49.19836" lon="-0.45628">
        <ele>67.6</ele>
        <time>2023-05-25T13:58:22Z</time>
      </trkpt>
      <trkpt lat="49.19835" lon="-0.4562">
        <ele>67.4</ele>
        <time>2023-05-25T13:58:23Z</time>
      </trkpt>
      <trkpt lat="49.19834" lon="-0.45613">
        <ele>67.4</ele>
        <time>2023-05-25T13:58:24Z</time>
      </trkpt>
      <trkpt lat="49.19832" lon="-0.45605">
        <ele>67.2</ele>
        <time>2023-05-25T13:58:25Z</time>
      </trkpt>
      <trkpt lat="49.19831" lon="-0.45598">
        <ele>67</ele>
        <time>2023-05-25T13:58:26Z</time>
      </trkpt>
      <trkpt lat="49.19829" lon="-0.45591">
        <ele>67</ele>
        <time>2023-05-25T13:58:27Z</time>
      </trkpt>
      <trkpt lat="49.19828" lon="-0.45583">
        <ele>66.8</ele>
        <time>2023-05-25T13:58:28Z</time>
      </trkpt>
      <trkpt lat="49.19826" lon="-0.45576">
        <ele>66.8</ele>
        <time>2023-05-25T13:58:29Z</time>
      </trkpt>
      <trkpt lat="49.19825" lon="-0.45568">
        <ele>67</ele>
        <time>2023-05-25T13:58:30Z</time>
      </trkpt>
      <trkpt lat="49.19824" lon="-0.4556">
        <ele>67</ele>
        <time>2023-05-25T13:58:31Z</time>
      </trkpt>
      <trkpt lat="49.19822" lon="-0.45552">
        <ele>67</ele>
        <time>2023-05-25T13:58:32Z</time>
      </trkpt>
      <trkpt lat="49.1982" lon="-0.45544">
        <ele>67</ele>
        <time>2023-05-25T13:58:33Z</time>
      </trkpt>
      <trkpt lat="49.19819" lon="-0.45536">
        <ele>67</ele>
        <time>2023-05-25T13:58:34Z</time>
      </trkpt>
      <trkpt lat="49.19817" lon="-0.45528">
        <ele>67</ele>
        <time>2023-05-25T13:58:35Z</time>
      </trkpt>
      <trkpt lat="49.19815" lon="-0.4552">
        <ele>67</ele>
        <time>2023-05-25T13:58:36Z</time>
      </trkpt>
      <trkpt lat="49.19814" lon="-0.45512">
        <ele>67.2</ele>
        <time>2023-05-25T13:58:37Z</time>
      </trkpt>
      <trkpt lat="49.19812" lon="-0.45503">
        <ele>67.2</ele>
        <time>2023-05-25T13:58:38Z</time>
      </trkpt>
      <trkpt lat="49.1981" lon="-0.45496">
        <ele>67.2</ele>
        <time>2023-05-25T13:58:39Z</time>
      </trkpt>
      <trkpt lat="49.19808" lon="-0.45487">
        <ele>67</ele>
        <time>2023-05-25T13:58:40Z</time>
      </trkpt>
      <trkpt lat="49.19806" lon="-0.4548">
        <ele>67</ele>
        <time>2023-05-25T13:58:41Z</time>
      </trkpt>
      <trkpt lat="49.19805" lon="-0.45472">
        <ele>67</ele>
        <time>2023-05-25T13:58:42Z</time>
      </trkpt>
      <trkpt lat="49.19804" lon="-0.45466">
        <ele>67</ele>
        <time>2023-05-25T13:58:43Z</time>
      </trkpt>
      <trkpt lat="49.19802" lon="-0.45459">
        <ele>67</ele>
        <time>2023-05-25T13:58:44Z</time>
      </trkpt>
      <trkpt lat="49.198" lon="-0.45452">
        <ele>67</ele>
        <time>2023-05-25T13:58:45Z</time>
      </trkpt>
      <trkpt lat="49.19797" lon="-0.45444">
        <ele>67</ele>
        <time>2023-05-25T13:58:46Z</time>
      </trkpt>
      <trkpt lat="49.19796" lon="-0.45435">
        <ele>67</ele>
        <time>2023-05-25T13:58:47Z</time>
      </trkpt>
      <trkpt lat="49.19795" lon="-0.45426">
        <ele>67</ele>
        <time>2023-05-25T13:58:48Z</time>
      </trkpt>
      <trkpt lat="49.19794" lon="-0.45416">
        <ele>67</ele>
        <time>2023-05-25T13:58:49Z</time>
      </trkpt>
      <trkpt lat="49.19792" lon="-0.45407">
        <ele>67</ele>
        <time>2023-05-25T13:58:50Z</time>
      </trkpt>
      <trkpt lat="49.19791" lon="-0.45397">
        <ele>67</ele>
        <time>2023-05-25T13:58:51Z</time>
      </trkpt>
      <trkpt lat="49.19789" lon="-0.45388">
        <ele>67</ele>
        <time>2023-05-25T13:58:52Z</time>
      </trkpt>
      <trkpt lat="49.19788" lon="-0.45379">
        <ele>67</ele>
        <time>2023-05-25T13:58:53Z</time>
      </trkpt>
      <trkpt lat="49.19786" lon="-0.4537">
        <ele>67</ele>
        <time>2023-05-25T13:58:54Z</time>
      </trkpt>
      <trkpt lat="49.19784" lon="-0.45361">
        <ele>66.8</ele>
        <time>2023-05-25T13:58:55Z</time>
      </trkpt>
      <trkpt lat="49.19783" lon="-0.45352">
        <ele>66.8</ele>
        <time>2023-05-25T13:58:56Z</time>
      </trkpt>
      <trkpt lat="49.19781" lon="-0.45343">
        <ele>66.6</ele>
        <time>2023-05-25T13:58:57Z</time>
      </trkpt>
      <trkpt lat="49.19779" lon="-0.45334">
        <ele>66.6</ele>
        <time>2023-05-25T13:58:58Z</time>
      </trkpt>
      <trkpt lat="49.19778" lon="-0.45325">
        <ele>66.6</ele>
        <time>2023-05-25T13:58:59Z</time>
      </trkpt>
      <trkpt lat="49.19776" lon="-0.45316">
        <ele>66.8</ele>
        <time>2023-05-25T13:59:00Z</time>
      </trkpt>
      <trkpt lat="49.19774" lon="-0.45308">
        <ele>66.8</ele>
        <time>2023-05-25T13:59:01Z</time>
      </trkpt>
      <trkpt lat="49.19772" lon="-0.45299">
        <ele>66.8</ele>
        <time>2023-05-25T13:59:02Z</time>
      </trkpt>
      <trkpt lat="49.1977" lon="-0.4529">
        <ele>67</ele>
        <time>2023-05-25T13:59:03Z</time>
      </trkpt>
      <trkpt lat="49.19769" lon="-0.45282">
        <ele>67</ele>
        <time>2023-05-25T13:59:04Z</time>
      </trkpt>
      <trkpt lat="49.19767" lon="-0.45273">
        <ele>67</ele>
        <time>2023-05-25T13:59:05Z</time>
      </trkpt>
      <trkpt lat="49.19765" lon="-0.45265">
        <ele>67</ele>
        <time>2023-05-25T13:59:06Z</time>
      </trkpt>
      <trkpt lat="49.19763" lon="-0.45256">
        <ele>67</ele>
        <time>2023-05-25T13:59:07Z</time>
      </trkpt>
      <trkpt lat="49.19762" lon="-0.45247">
        <ele>67</ele>
        <time>2023-05-25T13:59:08Z</time>
      </trkpt>
      <trkpt lat="49.1976" lon="-0.45239">
        <ele>67</ele>
        <time>2023-05-25T13:59:09Z</time>
      </trkpt>
      <trkpt lat="49.19758" lon="-0.4523">
        <ele>67</ele>
        <time>2023-05-25T13:59:10Z</time>
      </trkpt>
      <trkpt lat="49.19756" lon="-0.45221">
        <ele>67</ele>
        <time>2023-05-25T13:59:11Z</time>
      </trkpt>
      <trkpt lat="49.19754" lon="-0.45213">
        <ele>67</ele>
        <time>2023-05-25T13:59:12Z</time>
      </trkpt>
      <trkpt lat="49.19753" lon="-0.45204">
        <ele>67</ele>
        <time>2023-05-25T13:59:13Z</time>
      </trkpt>
      <trkpt lat="49.19751" lon="-0.45195">
        <ele>67</ele>
        <time>2023-05-25T13:59:14Z</time>
      </trkpt>
      <trkpt lat="49.19749" lon="-0.45186">
        <ele>67</ele>
        <time>2023-05-25T13:59:15Z</time>
      </trkpt>
      <trkpt lat="49.19747" lon="-0.45177">
        <ele>67</ele>
        <time>2023-05-25T13:59:16Z</time>
      </trkpt>
      <trkpt lat="49.19745" lon="-0.45168">
        <ele>66.8</ele>
        <time>2023-05-25T13:59:17Z</time>
      </trkpt>
      <trkpt lat="49.19743" lon="-0.45158">
        <ele>66.6</ele>
        <time>2023-05-25T13:59:18Z</time>
      </trkpt>
      <trkpt lat="49.19741" lon="-0.45149">
        <ele>66.6</ele>
        <time>2023-05-25T13:59:19Z</time>
      </trkpt>
      <trkpt lat="49.19739" lon="-0.45139">
        <ele>66.6</ele>
        <time>2023-05-25T13:59:20Z</time>
      </trkpt>
      <trkpt lat="49.19737" lon="-0.4513">
        <ele>66.6</ele>
        <time>2023-05-25T13:59:21Z</time>
      </trkpt>
      <trkpt lat="49.19735" lon="-0.45121">
        <ele>66.6</ele>
        <time>2023-05-25T13:59:22Z</time>
      </trkpt>
      <trkpt lat="49.19733" lon="-0.45111">
        <ele>66.6</ele>
        <time>2023-05-25T13:59:23Z</time>
      </trkpt>
      <trkpt lat="49.19731" lon="-0.45101">
        <ele>66.6</ele>
        <time>2023-05-25T13:59:24Z</time>
      </trkpt>
      <trkpt lat="49.1973" lon="-0.45092">
        <ele>66.6</ele>
        <time>2023-05-25T13:59:25Z</time>
      </trkpt>
      <trkpt lat="49.19728" lon="-0.45082">
        <ele>66.6</ele>
        <time>2023-05-25T13:59:26Z</time>
      </trkpt>
      <trkpt lat="49.19726" lon="-0.45072">
        <ele>66.4</ele>
        <time>2023-05-25T13:59:27Z</time>
      </trkpt>
      <trkpt lat="49.19724" lon="-0.45063">
        <ele>66.4</ele>
        <time>2023-05-25T13:59:28Z</time>
      </trkpt>
      <trkpt lat="49.19723" lon="-0.45053">
        <ele>66.2</ele>
        <time>2023-05-25T13:59:29Z</time>
      </trkpt>
      <trkpt lat="49.19721" lon="-0.45043">
        <ele>66</ele>
        <time>2023-05-25T13:59:30Z</time>
      </trkpt>
      <trkpt lat="49.19719" lon="-0.45034">
        <ele>66</ele>
        <time>2023-05-25T13:59:31Z</time>
      </trkpt>
      <trkpt lat="49.19717" lon="-0.45024">
        <ele>66</ele>
        <time>2023-05-25T13:59:32Z</time>
      </trkpt>
      <trkpt lat="49.19715" lon="-0.45014">
        <ele>65.8</ele>
        <time>2023-05-25T13:59:33Z</time>
      </trkpt>
      <trkpt lat="49.19713" lon="-0.45004">
        <ele>65.6</ele>
        <time>2023-05-25T13:59:34Z</time>
      </trkpt>
      <trkpt lat="49.19711" lon="-0.44995">
        <ele>65.6</ele>
        <time>2023-05-25T13:59:35Z</time>
      </trkpt>
      <trkpt lat="49.19709" lon="-0.44985">
        <ele>65.6</ele>
        <time>2023-05-25T13:59:36Z</time>
      </trkpt>
      <trkpt lat="49.19707" lon="-0.44975">
        <ele>65.6</ele>
        <time>2023-05-25T13:59:37Z</time>
      </trkpt>
      <trkpt lat="49.19706" lon="-0.44966">
        <ele>65.6</ele>
        <time>2023-05-25T13:59:38Z</time>
      </trkpt>
      <trkpt lat="49.19704" lon="-0.44956">
        <ele>65.6</ele>
        <time>2023-05-25T13:59:39Z</time>
      </trkpt>
      <trkpt lat="49.19702" lon="-0.44946">
        <ele>65.6</ele>
        <time>2023-05-25T13:59:40Z</time>
      </trkpt>
      <trkpt lat="49.197" lon="-0.44937">
        <ele>65.6</ele>
        <time>2023-05-25T13:59:41Z</time>
      </trkpt>
      <trkpt lat="49.19698" lon="-0.44927">
        <ele>65.6</ele>
        <time>2023-05-25T13:59:42Z</time>
      </trkpt>
      <trkpt lat="49.19696" lon="-0.44917">
        <ele>65.6</ele>
        <time>2023-05-25T13:59:43Z</time>
      </trkpt>
      <trkpt lat="49.19694" lon="-0.44908">
        <ele>65.8</ele>
        <time>2023-05-25T13:59:44Z</time>
      </trkpt>
      <trkpt lat="49.19692" lon="-0.44898">
        <ele>65.8</ele>
        <time>2023-05-25T13:59:45Z</time>
      </trkpt>
      <trkpt lat="49.1969" lon="-0.44889">
        <ele>66</ele>
        <time>2023-05-25T13:59:46Z</time>
      </trkpt>
      <trkpt lat="49.19688" lon="-0.44879">
        <ele>66</ele>
        <time>2023-05-25T13:59:47Z</time>
      </trkpt>
      <trkpt lat="49.19686" lon="-0.4487">
        <ele>66</ele>
        <time>2023-05-25T13:59:48Z</time>
      </trkpt>
      <trkpt lat="49.19685" lon="-0.4486">
        <ele>66</ele>
        <time>2023-05-25T13:59:49Z</time>
      </trkpt>
      <trkpt lat="49.19683" lon="-0.44851">
        <ele>66.2</ele>
        <time>2023-05-25T13:59:50Z</time>
      </trkpt>
      <trkpt lat="49.19681" lon="-0.44841">
        <ele>66.2</ele>
        <time>2023-05-25T13:59:51Z</time>
      </trkpt>
      <trkpt lat="49.19679" lon="-0.44832">
        <ele>66.4</ele>
        <time>2023-05-25T13:59:52Z</time>
      </trkpt>
      <trkpt lat="49.19677" lon="-0.44823">
        <ele>66.2</ele>
        <time>2023-05-25T13:59:53Z</time>
      </trkpt>
      <trkpt lat="49.19675" lon="-0.44813">
        <ele>66.2</ele>
        <time>2023-05-25T13:59:54Z</time>
      </trkpt>
      <trkpt lat="49.19674" lon="-0.44804">
        <ele>66</ele>
        <time>2023-05-25T13:59:55Z</time>
      </trkpt>
      <trkpt lat="49.19672" lon="-0.44795">
        <ele>66</ele>
        <time>2023-05-25T13:59:56Z</time>
      </trkpt>
      <trkpt lat="49.1967" lon="-0.44785">
        <ele>66</ele>
        <time>2023-05-25T13:59:57Z</time>
      </trkpt>
      <trkpt lat="49.19668" lon="-0.44776">
        <ele>66</ele>
        <time>2023-05-25T13:59:58Z</time>
      </trkpt>
      <trkpt lat="49.19666" lon="-0.44767">
        <ele>66</ele>
        <time>2023-05-25T13:59:59Z</time>
      </trkpt>
      <trkpt lat="49.19664" lon="-0.44758">
        <ele>66</ele>
        <time>2023-05-25T14:00:00Z</time>
      </trkpt>
      <trkpt lat="49.19663" lon="-0.44749">
        <ele>66</ele>
        <time>2023-05-25T14:00:01Z</time>
      </trkpt>
      <trkpt lat="49.19661" lon="-0.4474">
        <ele>65.8</ele>
        <time>2023-05-25T14:00:02Z</time>
      </trkpt>
      <trkpt lat="49.19659" lon="-0.44731">
        <ele>65.6</ele>
        <time>2023-05-25T14:00:03Z</time>
      </trkpt>
      <trkpt lat="49.19657" lon="-0.44722">
        <ele>65.6</ele>
        <time>2023-05-25T14:00:04Z</time>
      </trkpt>
      <trkpt lat="49.19656" lon="-0.44713">
        <ele>65.6</ele>
        <time>2023-05-25T14:00:05Z</time>
      </trkpt>
      <trkpt lat="49.19654" lon="-0.44705">
        <ele>65.6</ele>
        <time>2023-05-25T14:00:06Z</time>
      </trkpt>
      <trkpt lat="49.19652" lon="-0.44696">
        <ele>65.6</ele>
        <time>2023-05-25T14:00:07Z</time>
      </trkpt>
      <trkpt lat="49.19651" lon="-0.44687">
        <ele>65.6</ele>
        <time>2023-05-25T14:00:08Z</time>
      </trkpt>
      <trkpt lat="49.19649" lon="-0.44679">
        <ele>65.6</ele>
        <time>2023-05-25T14:00:09Z</time>
      </trkpt>
      <trkpt lat="49.19647" lon="-0.4467">
        <ele>65.6</ele>
        <time>2023-05-25T14:00:10Z</time>
      </trkpt>
      <trkpt lat="49.19646" lon="-0.44662">
        <ele>65.6</ele>
        <time>2023-05-25T14:00:11Z</time>
      </trkpt>
      <trkpt lat="49.19644" lon="-0.44654">
        <ele>65.6</ele>
        <time>2023-05-25T14:00:12Z</time>
      </trkpt>
      <trkpt lat="49.19642" lon="-0.44645">
        <ele>65.6</ele>
        <time>2023-05-25T14:00:13Z</time>
      </trkpt>
      <trkpt lat="49.19641" lon="-0.44637">
        <ele>65.6</ele>
        <time>2023-05-25T14:00:14Z</time>
      </trkpt>
      <trkpt lat="49.19639" lon="-0.44629">
        <ele>65.6</ele>
        <time>2023-05-25T14:00:15Z</time>
      </trkpt>
      <trkpt lat="49.19638" lon="-0.44621">
        <ele>65.6</ele>
        <time>2023-05-25T14:00:16Z</time>
      </trkpt>
      <trkpt lat="49.19636" lon="-0.44612">
        <ele>65.6</ele>
        <time>2023-05-25T14:00:17Z</time>
      </trkpt>
      <trkpt lat="49.19635" lon="-0.44604">
        <ele>65.6</ele>
        <time>2023-05-25T14:00:18Z</time>
      </trkpt>
      <trkpt lat="49.19633" lon="-0.44596">
        <ele>65.6</ele>
        <time>2023-05-25T14:00:19Z</time>
      </trkpt>
      <trkpt lat="49.19631" lon="-0.44588">
        <ele>65.6</ele>
        <time>2023-05-25T14:00:20Z</time>
      </trkpt>
      <trkpt lat="49.1963" lon="-0.4458">
        <ele>65.6</ele>
        <time>2023-05-25T14:00:21Z</time>
      </trkpt>
      <trkpt lat="49.19628" lon="-0.44571">
        <ele>65.8</ele>
        <time>2023-05-25T14:00:22Z</time>
      </trkpt>
      <trkpt lat="49.19627" lon="-0.44563">
        <ele>66</ele>
        <time>2023-05-25T14:00:23Z</time>
      </trkpt>
      <trkpt lat="49.19625" lon="-0.44555">
        <ele>66</ele>
        <time>2023-05-25T14:00:24Z</time>
      </trkpt>
      <trkpt lat="49.19623" lon="-0.44547">
        <ele>66</ele>
        <time>2023-05-25T14:00:25Z</time>
      </trkpt>
      <trkpt lat="49.19622" lon="-0.44538">
        <ele>66.2</ele>
        <time>2023-05-25T14:00:26Z</time>
      </trkpt>
      <trkpt lat="49.1962" lon="-0.4453">
        <ele>66.4</ele>
        <time>2023-05-25T14:00:27Z</time>
      </trkpt>
      <trkpt lat="49.19618" lon="-0.44522">
        <ele>66.6</ele>
        <time>2023-05-25T14:00:28Z</time>
      </trkpt>
      <trkpt lat="49.19617" lon="-0.44514">
        <ele>66.6</ele>
        <time>2023-05-25T14:00:29Z</time>
      </trkpt>
      <trkpt lat="49.19615" lon="-0.44506">
        <ele>66.6</ele>
        <time>2023-05-25T14:00:30Z</time>
      </trkpt>
      <trkpt lat="49.19614" lon="-0.44498">
        <ele>66.8</ele>
        <time>2023-05-25T14:00:31Z</time>
      </trkpt>
      <trkpt lat="49.19612" lon="-0.44489">
        <ele>66.8</ele>
        <time>2023-05-25T14:00:32Z</time>
      </trkpt>
      <trkpt lat="49.1961" lon="-0.44481">
        <ele>67</ele>
        <time>2023-05-25T14:00:33Z</time>
      </trkpt>
      <trkpt lat="49.19608" lon="-0.44473">
        <ele>67</ele>
        <time>2023-05-25T14:00:34Z</time>
      </trkpt>
      <trkpt lat="49.19607" lon="-0.44465">
        <ele>67</ele>
        <time>2023-05-25T14:00:35Z</time>
      </trkpt>
      <trkpt lat="49.19605" lon="-0.44457">
        <ele>67</ele>
        <time>2023-05-25T14:00:36Z</time>
      </trkpt>
      <trkpt lat="49.19604" lon="-0.44449">
        <ele>67</ele>
        <time>2023-05-25T14:00:37Z</time>
      </trkpt>
      <trkpt lat="49.19602" lon="-0.44441">
        <ele>67.2</ele>
        <time>2023-05-25T14:00:38Z</time>
      </trkpt>
      <trkpt lat="49.196" lon="-0.44433">
        <ele>67.2</ele>
        <time>2023-05-25T14:00:39Z</time>
      </trkpt>
      <trkpt lat="49.19599" lon="-0.44424">
        <ele>67.4</ele>
        <time>2023-05-25T14:00:40Z</time>
      </trkpt>
      <trkpt lat="49.19597" lon="-0.44417">
        <ele>67.4</ele>
        <time>2023-05-25T14:00:41Z</time>
      </trkpt>
      <trkpt lat="49.19595" lon="-0.44408">
        <ele>67.4</ele>
        <time>2023-05-25T14:00:42Z</time>
      </trkpt>
      <trkpt lat="49.19594" lon="-0.444">
        <ele>67.4</ele>
        <time>2023-05-25T14:00:43Z</time>
      </trkpt>
      <trkpt lat="49.19592" lon="-0.44392">
        <ele>67.4</ele>
        <time>2023-05-25T14:00:44Z</time>
      </trkpt>
      <trkpt lat="49.19591" lon="-0.44384">
        <ele>67.6</ele>
        <time>2023-05-25T14:00:45Z</time>
      </trkpt>
      <trkpt lat="49.19589" lon="-0.44376">
        <ele>67.6</ele>
        <time>2023-05-25T14:00:46Z</time>
      </trkpt>
      <trkpt lat="49.19588" lon="-0.44368">
        <ele>67.6</ele>
        <time>2023-05-25T14:00:47Z</time>
      </trkpt>
      <trkpt lat="49.19586" lon="-0.4436">
        <ele>67.6</ele>
        <time>2023-05-25T14:00:48Z</time>
      </trkpt>
      <trkpt lat="49.19584" lon="-0.44352">
        <ele>67.8</ele>
        <time>2023-05-25T14:00:49Z</time>
      </trkpt>
      <trkpt lat="49.19583" lon="-0.44344">
        <ele>68</ele>
        <time>2023-05-25T14:00:50Z</time>
      </trkpt>
      <trkpt lat="49.19581" lon="-0.44335">
        <ele>68</ele>
        <time>2023-05-25T14:00:51Z</time>
      </trkpt>
      <trkpt lat="49.19579" lon="-0.44327">
        <ele>68</ele>
        <time>2023-05-25T14:00:52Z</time>
      </trkpt>
      <trkpt lat="49.19578" lon="-0.44319">
        <ele>68</ele>
        <time>2023-05-25T14:00:53Z</time>
      </trkpt>
      <trkpt lat="49.19576" lon="-0.4431">
        <ele>68</ele>
        <time>2023-05-25T14:00:54Z</time>
      </trkpt>
      <trkpt lat="49.19575" lon="-0.44302">
        <ele>68</ele>
        <time>2023-05-25T14:00:55Z</time>
      </trkpt>
      <trkpt lat="49.19573" lon="-0.44293">
        <ele>68</ele>
        <time>2023-05-25T14:00:56Z</time>
      </trkpt>
      <trkpt lat="49.19571" lon="-0.44285">
        <ele>68</ele>
        <time>2023-05-25T14:00:57Z</time>
      </trkpt>
      <trkpt lat="49.1957" lon="-0.44276">
        <ele>68</ele>
        <time>2023-05-25T14:00:58Z</time>
      </trkpt>
      <trkpt lat="49.19568" lon="-0.44268">
        <ele>68</ele>
        <time>2023-05-25T14:00:59Z</time>
      </trkpt>
      <trkpt lat="49.19566" lon="-0.44259">
        <ele>68</ele>
        <time>2023-05-25T14:01:00Z</time>
      </trkpt>
      <trkpt lat="49.19565" lon="-0.44251">
        <ele>68</ele>
        <time>2023-05-25T14:01:01Z</time>
      </trkpt>
      <trkpt lat="49.19563" lon="-0.44243">
        <ele>68</ele>
        <time>2023-05-25T14:01:02Z</time>
      </trkpt>
      <trkpt lat="49.19562" lon="-0.44234">
        <ele>68.2</ele>
        <time>2023-05-25T14:01:03Z</time>
      </trkpt>
      <trkpt lat="49.1956" lon="-0.44226">
        <ele>68.4</ele>
        <time>2023-05-25T14:01:04Z</time>
      </trkpt>
      <trkpt lat="49.19558" lon="-0.44217">
        <ele>68.4</ele>
        <time>2023-05-25T14:01:05Z</time>
      </trkpt>
      <trkpt lat="49.19557" lon="-0.44209">
        <ele>68.6</ele>
        <time>2023-05-25T14:01:06Z</time>
      </trkpt>
      <trkpt lat="49.19555" lon="-0.44201">
        <ele>68.6</ele>
        <time>2023-05-25T14:01:07Z</time>
      </trkpt>
      <trkpt lat="49.19553" lon="-0.44193">
        <ele>68.6</ele>
        <time>2023-05-25T14:01:08Z</time>
      </trkpt>
      <trkpt lat="49.19552" lon="-0.44184">
        <ele>68.8</ele>
        <time>2023-05-25T14:01:09Z</time>
      </trkpt>
      <trkpt lat="49.1955" lon="-0.44176">
        <ele>69</ele>
        <time>2023-05-25T14:01:10Z</time>
      </trkpt>
      <trkpt lat="49.19549" lon="-0.44168">
        <ele>69</ele>
        <time>2023-05-25T14:01:11Z</time>
      </trkpt>
      <trkpt lat="49.19547" lon="-0.4416">
        <ele>69</ele>
        <time>2023-05-25T14:01:12Z</time>
      </trkpt>
      <trkpt lat="49.19546" lon="-0.44152">
        <ele>69</ele>
        <time>2023-05-25T14:01:13Z</time>
      </trkpt>
      <trkpt lat="49.19544" lon="-0.44144">
        <ele>69</ele>
        <time>2023-05-25T14:01:14Z</time>
      </trkpt>
      <trkpt lat="49.19542" lon="-0.44135">
        <ele>69</ele>
        <time>2023-05-25T14:01:15Z</time>
      </trkpt>
      <trkpt lat="49.19541" lon="-0.44127">
        <ele>69</ele>
        <time>2023-05-25T14:01:16Z</time>
      </trkpt>
      <trkpt lat="49.19539" lon="-0.44119">
        <ele>69</ele>
        <time>2023-05-25T14:01:17Z</time>
      </trkpt>
      <trkpt lat="49.19538" lon="-0.4411">
        <ele>69</ele>
        <time>2023-05-25T14:01:18Z</time>
      </trkpt>
      <trkpt lat="49.19536" lon="-0.44102">
        <ele>69</ele>
        <time>2023-05-25T14:01:19Z</time>
      </trkpt>
      <trkpt lat="49.19534" lon="-0.44093">
        <ele>69</ele>
        <time>2023-05-25T14:01:20Z</time>
      </trkpt>
      <trkpt lat="49.19533" lon="-0.44085">
        <ele>69</ele>
        <time>2023-05-25T14:01:21Z</time>
      </trkpt>
      <trkpt lat="49.19531" lon="-0.44076">
        <ele>69</ele>
        <time>2023-05-25T14:01:22Z</time>
      </trkpt>
      <trkpt lat="49.19529" lon="-0.44067">
        <ele>69</ele>
        <time>2023-05-25T14:01:23Z</time>
      </trkpt>
      <trkpt lat="49.19527" lon="-0.44058">
        <ele>69</ele>
        <time>2023-05-25T14:01:24Z</time>
      </trkpt>
      <trkpt lat="49.19526" lon="-0.44049">
        <ele>69</ele>
        <time>2023-05-25T14:01:25Z</time>
      </trkpt>
      <trkpt lat="49.19524" lon="-0.4404">
        <ele>69</ele>
        <time>2023-05-25T14:01:26Z</time>
      </trkpt>
      <trkpt lat="49.19522" lon="-0.4403">
        <ele>69</ele>
        <time>2023-05-25T14:01:27Z</time>
      </trkpt>
      <trkpt lat="49.1952" lon="-0.44021">
        <ele>69</ele>
        <time>2023-05-25T14:01:28Z</time>
      </trkpt>
      <trkpt lat="49.19518" lon="-0.44012">
        <ele>69</ele>
        <time>2023-05-25T14:01:29Z</time>
      </trkpt>
      <trkpt lat="49.19516" lon="-0.44003">
        <ele>69</ele>
        <time>2023-05-25T14:01:30Z</time>
      </trkpt>
      <trkpt lat="49.19515" lon="-0.43993">
        <ele>69</ele>
        <time>2023-05-25T14:01:31Z</time>
      </trkpt>
      <trkpt lat="49.19513" lon="-0.43984">
        <ele>69</ele>
        <time>2023-05-25T14:01:32Z</time>
      </trkpt>
      <trkpt lat="49.19511" lon="-0.43974">
        <ele>69</ele>
        <time>2023-05-25T14:01:33Z</time>
      </trkpt>
      <trkpt lat="49.19509" lon="-0.43964">
        <ele>69</ele>
        <time>2023-05-25T14:01:34Z</time>
      </trkpt>
      <trkpt lat="49.19507" lon="-0.43955">
        <ele>69</ele>
        <time>2023-05-25T14:01:35Z</time>
      </trkpt>
      <trkpt lat="49.19503" lon="-0.43945">
        <ele>69</ele>
        <time>2023-05-25T14:01:36Z</time>
      </trkpt>
      <trkpt lat="49.19499" lon="-0.43937">
        <ele>69</ele>
        <time>2023-05-25T14:01:37Z</time>
      </trkpt>
      <trkpt lat="49.19495" lon="-0.43928">
        <ele>68.8</ele>
        <time>2023-05-25T14:01:38Z</time>
      </trkpt>
      <trkpt lat="49.1949" lon="-0.4392">
        <ele>68.6</ele>
        <time>2023-05-25T14:01:39Z</time>
      </trkpt>
      <trkpt lat="49.19484" lon="-0.43913">
        <ele>68.4</ele>
        <time>2023-05-25T14:01:40Z</time>
      </trkpt>
      <trkpt lat="49.19478" lon="-0.43906">
        <ele>68</ele>
        <time>2023-05-25T14:01:41Z</time>
      </trkpt>
      <trkpt lat="49.19472" lon="-0.439">
        <ele>68</ele>
        <time>2023-05-25T14:01:42Z</time>
      </trkpt>
      <trkpt lat="49.19466" lon="-0.43895">
        <ele>67.6</ele>
        <time>2023-05-25T14:01:43Z</time>
      </trkpt>
      <trkpt lat="49.19459" lon="-0.43891">
        <ele>67.4</ele>
        <time>2023-05-25T14:01:44Z</time>
      </trkpt>
      <trkpt lat="49.19452" lon="-0.43889">
        <ele>67</ele>
        <time>2023-05-25T14:01:45Z</time>
      </trkpt>
      <trkpt lat="49.19446" lon="-0.4389">
        <ele>67</ele>
        <time>2023-05-25T14:01:46Z</time>
      </trkpt>
      <trkpt lat="49.19439" lon="-0.43891">
        <ele>66.6</ele>
        <time>2023-05-25T14:01:47Z</time>
      </trkpt>
      <trkpt lat="49.19432" lon="-0.43892">
        <ele>66.6</ele>
        <time>2023-05-25T14:01:48Z</time>
      </trkpt>
      <trkpt lat="49.19425" lon="-0.43892">
        <ele>66.4</ele>
        <time>2023-05-25T14:01:49Z</time>
      </trkpt>
      <trkpt lat="49.19418" lon="-0.43891">
        <ele>66</ele>
        <time>2023-05-25T14:01:50Z</time>
      </trkpt>
      <trkpt lat="49.19411" lon="-0.43887">
        <ele>66</ele>
        <time>2023-05-25T14:01:51Z</time>
      </trkpt>
      <trkpt lat="49.19405" lon="-0.43881">
        <ele>66</ele>
        <time>2023-05-25T14:01:52Z</time>
      </trkpt>
      <trkpt lat="49.19401" lon="-0.43872">
        <ele>66.2</ele>
        <time>2023-05-25T14:01:53Z</time>
      </trkpt>
      <trkpt lat="49.19398" lon="-0.43863">
        <ele>66.4</ele>
        <time>2023-05-25T14:01:54Z</time>
      </trkpt>
      <trkpt lat="49.19397" lon="-0.43852">
        <ele>66.4</ele>
        <time>2023-05-25T14:01:55Z</time>
      </trkpt>
      <trkpt lat="49.19397" lon="-0.43843">
        <ele>66.4</ele>
        <time>2023-05-25T14:01:56Z</time>
      </trkpt>
      <trkpt lat="49.19399" lon="-0.43833">
        <ele>66.4</ele>
        <time>2023-05-25T14:01:57Z</time>
      </trkpt>
      <trkpt lat="49.19401" lon="-0.43825">
        <ele>66.6</ele>
        <time>2023-05-25T14:01:58Z</time>
      </trkpt>
      <trkpt lat="49.19405" lon="-0.43817">
        <ele>66.6</ele>
        <time>2023-05-25T14:01:59Z</time>
      </trkpt>
      <trkpt lat="49.19408" lon="-0.43811">
        <ele>66.6</ele>
        <time>2023-05-25T14:02:00Z</time>
      </trkpt>
      <trkpt lat="49.19412" lon="-0.43806">
        <ele>66.6</ele>
        <time>2023-05-25T14:02:01Z</time>
      </trkpt>
      <trkpt lat="49.19417" lon="-0.43803">
        <ele>66.6</ele>
        <time>2023-05-25T14:02:02Z</time>
      </trkpt>
      <trkpt lat="49.19422" lon="-0.43801">
        <ele>67</ele>
        <time>2023-05-25T14:02:03Z</time>
      </trkpt>
      <trkpt lat="49.19427" lon="-0.438">
        <ele>67</ele>
        <time>2023-05-25T14:02:04Z</time>
      </trkpt>
      <trkpt lat="49.19432" lon="-0.438">
        <ele>67.2</ele>
        <time>2023-05-25T14:02:05Z</time>
      </trkpt>
      <trkpt lat="49.19437" lon="-0.438">
        <ele>67.4</ele>
        <time>2023-05-25T14:02:06Z</time>
      </trkpt>
      <trkpt lat="49.19442" lon="-0.43799">
        <ele>67.4</ele>
        <time>2023-05-25T14:02:07Z</time>
      </trkpt>
      <trkpt lat="49.19446" lon="-0.43796">
        <ele>67.6</ele>
        <time>2023-05-25T14:02:08Z</time>
      </trkpt>
      <trkpt lat="49.1945" lon="-0.43792">
        <ele>67.8</ele>
        <time>2023-05-25T14:02:09Z</time>
      </trkpt>
      <trkpt lat="49.19453" lon="-0.43787">
        <ele>68</ele>
        <time>2023-05-25T14:02:10Z</time>
      </trkpt>
      <trkpt lat="49.19456" lon="-0.43782">
        <ele>68.2</ele>
        <time>2023-05-25T14:02:11Z</time>
      </trkpt>
      <trkpt lat="49.19459" lon="-0.43777">
        <ele>68.4</ele>
        <time>2023-05-25T14:02:12Z</time>
      </trkpt>
      <trkpt lat="49.19463" lon="-0.43771">
        <ele>68.6</ele>
        <time>2023-05-25T14:02:13Z</time>
      </trkpt>
      <trkpt lat="49.19466" lon="-0.43766">
        <ele>68.8</ele>
        <time>2023-05-25T14:02:14Z</time>
      </trkpt>
      <trkpt lat="49.19469" lon="-0.43761">
        <ele>69</ele>
        <time>2023-05-25T14:02:15Z</time>
      </trkpt>
      <trkpt lat="49.19473" lon="-0.43757">
        <ele>69.2</ele>
        <time>2023-05-25T14:02:16Z</time>
      </trkpt>
      <trkpt lat="49.19477" lon="-0.43752">
        <ele>69.4</ele>
        <time>2023-05-25T14:02:17Z</time>
      </trkpt>
      <trkpt lat="49.1948" lon="-0.43748">
        <ele>69.6</ele>
        <time>2023-05-25T14:02:18Z</time>
      </trkpt>
      <trkpt lat="49.19484" lon="-0.43744">
        <ele>69.6</ele>
        <time>2023-05-25T14:02:19Z</time>
      </trkpt>
      <trkpt lat="49.19488" lon="-0.43741">
        <ele>69.8</ele>
        <time>2023-05-25T14:02:20Z</time>
      </trkpt>
      <trkpt lat="49.19492" lon="-0.43737">
        <ele>70</ele>
        <time>2023-05-25T14:02:21Z</time>
      </trkpt>
      <trkpt lat="49.19496" lon="-0.43734">
        <ele>70</ele>
        <time>2023-05-25T14:02:22Z</time>
      </trkpt>
      <trkpt lat="49.195" lon="-0.43731">
        <ele>70.2</ele>
        <time>2023-05-25T14:02:23Z</time>
      </trkpt>
      <trkpt lat="49.19505" lon="-0.43727">
        <ele>70.4</ele>
        <time>2023-05-25T14:02:24Z</time>
      </trkpt>
      <trkpt lat="49.19509" lon="-0.43724">
        <ele>70.4</ele>
        <time>2023-05-25T14:02:25Z</time>
      </trkpt>
      <trkpt lat="49.19513" lon="-0.4372">
        <ele>70.4</ele>
        <time>2023-05-25T14:02:26Z</time>
      </trkpt>
      <trkpt lat="49.19517" lon="-0.43717">
        <ele>70.4</ele>
        <time>2023-05-25T14:02:27Z</time>
      </trkpt>
      <trkpt lat="49.19521" lon="-0.43713">
        <ele>70.4</ele>
        <time>2023-05-25T14:02:28Z</time>
      </trkpt>
      <trkpt lat="49.19525" lon="-0.4371">
        <ele>70.4</ele>
        <time>2023-05-25T14:02:29Z</time>
      </trkpt>
      <trkpt lat="49.19529" lon="-0.43707">
        <ele>70.4</ele>
        <time>2023-05-25T14:02:30Z</time>
      </trkpt>
      <trkpt lat="49.19533" lon="-0.43704">
        <ele>70.4</ele>
        <time>2023-05-25T14:02:31Z</time>
      </trkpt>
      <trkpt lat="49.19537" lon="-0.43701">
        <ele>70.4</ele>
        <time>2023-05-25T14:02:32Z</time>
      </trkpt>
      <trkpt lat="49.19541" lon="-0.43698">
        <ele>70.4</ele>
        <time>2023-05-25T14:02:33Z</time>
      </trkpt>
      <trkpt lat="49.19545" lon="-0.43695">
        <ele>70.4</ele>
        <time>2023-05-25T14:02:34Z</time>
      </trkpt>
      <trkpt lat="49.19549" lon="-0.43692">
        <ele>70.4</ele>
        <time>2023-05-25T14:02:35Z</time>
      </trkpt>
      <trkpt lat="49.19553" lon="-0.43688">
        <ele>70.4</ele>
        <time>2023-05-25T14:02:36Z</time>
      </trkpt>
      <trkpt lat="49.19557" lon="-0.43685">
        <ele>70.2</ele>
        <time>2023-05-25T14:02:37Z</time>
      </trkpt>
      <trkpt lat="49.19561" lon="-0.43682">
        <ele>70.2</ele>
        <time>2023-05-25T14:02:38Z</time>
      </trkpt>
      <trkpt lat="49.19565" lon="-0.43679">
        <ele>70.2</ele>
        <time>2023-05-25T14:02:39Z</time>
      </trkpt>
      <trkpt lat="49.19569" lon="-0.43676">
        <ele>70.2</ele>
        <time>2023-05-25T14:02:40Z</time>
      </trkpt>
      <trkpt lat="49.19573" lon="-0.43673">
        <ele>70</ele>
        <time>2023-05-25T14:02:41Z</time>
      </trkpt>
      <trkpt lat="49.19578" lon="-0.4367">
        <ele>70</ele>
        <time>2023-05-25T14:02:42Z</time>
      </trkpt>
      <trkpt lat="49.19582" lon="-0.43666">
        <ele>70</ele>
        <time>2023-05-25T14:02:43Z</time>
      </trkpt>
      <trkpt lat="49.19586" lon="-0.43663">
        <ele>70</ele>
        <time>2023-05-25T14:02:44Z</time>
      </trkpt>
      <trkpt lat="49.1959" lon="-0.43659">
        <ele>70</ele>
        <time>2023-05-25T14:02:45Z</time>
      </trkpt>
      <trkpt lat="49.19595" lon="-0.43656">
        <ele>70</ele>
        <time>2023-05-25T14:02:46Z</time>
      </trkpt>
      <trkpt lat="49.19599" lon="-0.43653">
        <ele>69.8</ele>
        <time>2023-05-25T14:02:47Z</time>
      </trkpt>
      <trkpt lat="49.19603" lon="-0.43649">
        <ele>69.8</ele>
        <time>2023-05-25T14:02:48Z</time>
      </trkpt>
      <trkpt lat="49.19608" lon="-0.43646">
        <ele>69.6</ele>
        <time>2023-05-25T14:02:49Z</time>
      </trkpt>
      <trkpt lat="49.19612" lon="-0.43642">
        <ele>69.6</ele>
        <time>2023-05-25T14:02:50Z</time>
      </trkpt>
      <trkpt lat="49.19616" lon="-0.43639">
        <ele>69.6</ele>
        <time>2023-05-25T14:02:51Z</time>
      </trkpt>
      <trkpt lat="49.1962" lon="-0.43636">
        <ele>69.6</ele>
        <time>2023-05-25T14:02:52Z</time>
      </trkpt>
      <trkpt lat="49.19624" lon="-0.43633">
        <ele>69.6</ele>
        <time>2023-05-25T14:02:53Z</time>
      </trkpt>
      <trkpt lat="49.19629" lon="-0.43629">
        <ele>69.6</ele>
        <time>2023-05-25T14:02:54Z</time>
      </trkpt>
      <trkpt lat="49.19633" lon="-0.43626">
        <ele>69.4</ele>
        <time>2023-05-25T14:02:55Z</time>
      </trkpt>
      <trkpt lat="49.19637" lon="-0.43623">
        <ele>69.4</ele>
        <time>2023-05-25T14:02:56Z</time>
      </trkpt>
      <trkpt lat="49.19641" lon="-0.43619">
        <ele>69.4</ele>
        <time>2023-05-25T14:02:57Z</time>
      </trkpt>
      <trkpt lat="49.19646" lon="-0.43616">
        <ele>69.2</ele>
        <time>2023-05-25T14:02:58Z</time>
      </trkpt>
      <trkpt lat="49.1965" lon="-0.43613">
        <ele>69.2</ele>
        <time>2023-05-25T14:02:59Z</time>
      </trkpt>
      <trkpt lat="49.19655" lon="-0.43609">
        <ele>69</ele>
        <time>2023-05-25T14:03:00Z</time>
      </trkpt>
      <trkpt lat="49.19659" lon="-0.43606">
        <ele>69</ele>
        <time>2023-05-25T14:03:01Z</time>
      </trkpt>
      <trkpt lat="49.19663" lon="-0.43603">
        <ele>69</ele>
        <time>2023-05-25T14:03:02Z</time>
      </trkpt>
      <trkpt lat="49.19667" lon="-0.43599">
        <ele>69</ele>
        <time>2023-05-25T14:03:03Z</time>
      </trkpt>
      <trkpt lat="49.19672" lon="-0.43596">
        <ele>69</ele>
        <time>2023-05-25T14:03:04Z</time>
      </trkpt>
      <trkpt lat="49.19676" lon="-0.43592">
        <ele>69</ele>
        <time>2023-05-25T14:03:05Z</time>
      </trkpt>
      <trkpt lat="49.1968" lon="-0.43589">
        <ele>69</ele>
        <time>2023-05-25T14:03:06Z</time>
      </trkpt>
      <trkpt lat="49.19684" lon="-0.43586">
        <ele>68.8</ele>
        <time>2023-05-25T14:03:07Z</time>
      </trkpt>
      <trkpt lat="49.19688" lon="-0.43582">
        <ele>68.6</ele>
        <time>2023-05-25T14:03:08Z</time>
      </trkpt>
      <trkpt lat="49.19692" lon="-0.43579">
        <ele>68.6</ele>
        <time>2023-05-25T14:03:09Z</time>
      </trkpt>
      <trkpt lat="49.19697" lon="-0.43576">
        <ele>68.6</ele>
        <time>2023-05-25T14:03:10Z</time>
      </trkpt>
      <trkpt lat="49.19701" lon="-0.43573">
        <ele>68.6</ele>
        <time>2023-05-25T14:03:11Z</time>
      </trkpt>
      <trkpt lat="49.19705" lon="-0.43569">
        <ele>68.6</ele>
        <time>2023-05-25T14:03:12Z</time>
      </trkpt>
      <trkpt lat="49.19709" lon="-0.43566">
        <ele>68.6</ele>
        <time>2023-05-25T14:03:13Z</time>
      </trkpt>
      <trkpt lat="49.19713" lon="-0.43563">
        <ele>68.6</ele>
        <time>2023-05-25T14:03:14Z</time>
      </trkpt>
      <trkpt lat="49.19718" lon="-0.4356">
        <ele>68.6</ele>
        <time>2023-05-25T14:03:15Z</time>
      </trkpt>
      <trkpt lat="49.19722" lon="-0.43556">
        <ele>68.6</ele>
        <time>2023-05-25T14:03:16Z</time>
      </trkpt>
      <trkpt lat="49.19727" lon="-0.43553">
        <ele>68.6</ele>
        <time>2023-05-25T14:03:17Z</time>
      </trkpt>
      <trkpt lat="49.19731" lon="-0.43549">
        <ele>68.6</ele>
        <time>2023-05-25T14:03:18Z</time>
      </trkpt>
      <trkpt lat="49.19736" lon="-0.43546">
        <ele>68.6</ele>
        <time>2023-05-25T14:03:19Z</time>
      </trkpt>
      <trkpt lat="49.1974" lon="-0.43542">
        <ele>68.6</ele>
        <time>2023-05-25T14:03:20Z</time>
      </trkpt>
      <trkpt lat="49.19745" lon="-0.43538">
        <ele>68.6</ele>
        <time>2023-05-25T14:03:21Z</time>
      </trkpt>
      <trkpt lat="49.19749" lon="-0.43535">
        <ele>68.6</ele>
        <time>2023-05-25T14:03:22Z</time>
      </trkpt>
      <trkpt lat="49.19754" lon="-0.43531">
        <ele>68.6</ele>
        <time>2023-05-25T14:03:23Z</time>
      </trkpt>
      <trkpt lat="49.19758" lon="-0.43528">
        <ele>68.6</ele>
        <time>2023-05-25T14:03:24Z</time>
      </trkpt>
      <trkpt lat="49.19763" lon="-0.43524">
        <ele>68.8</ele>
        <time>2023-05-25T14:03:25Z</time>
      </trkpt>
      <trkpt lat="49.19767" lon="-0.43521">
        <ele>68.8</ele>
        <time>2023-05-25T14:03:26Z</time>
      </trkpt>
      <trkpt lat="49.19771" lon="-0.43518">
        <ele>68.8</ele>
        <time>2023-05-25T14:03:27Z</time>
      </trkpt>
      <trkpt lat="49.19775" lon="-0.43514">
        <ele>69</ele>
        <time>2023-05-25T14:03:28Z</time>
      </trkpt>
      <trkpt lat="49.19779" lon="-0.43511">
        <ele>69</ele>
        <time>2023-05-25T14:03:29Z</time>
      </trkpt>
      <trkpt lat="49.19783" lon="-0.43508">
        <ele>69</ele>
        <time>2023-05-25T14:03:30Z</time>
      </trkpt>
      <trkpt lat="49.19787" lon="-0.43505">
        <ele>69</ele>
        <time>2023-05-25T14:03:31Z</time>
      </trkpt>
      <trkpt lat="49.19791" lon="-0.43502">
        <ele>69</ele>
        <time>2023-05-25T14:03:32Z</time>
      </trkpt>
      <trkpt lat="49.19795" lon="-0.43499">
        <ele>69</ele>
        <time>2023-05-25T14:03:33Z</time>
      </trkpt>
      <trkpt lat="49.19799" lon="-0.43496">
        <ele>69</ele>
        <time>2023-05-25T14:03:34Z</time>
      </trkpt>
      <trkpt lat="49.19804" lon="-0.43492">
        <ele>69</ele>
        <time>2023-05-25T14:03:35Z</time>
      </trkpt>
      <trkpt lat="49.19808" lon="-0.43489">
        <ele>69</ele>
        <time>2023-05-25T14:03:36Z</time>
      </trkpt>
      <trkpt lat="49.19812" lon="-0.43486">
        <ele>69</ele>
        <time>2023-05-25T14:03:37Z</time>
      </trkpt>
      <trkpt lat="49.19816" lon="-0.43483">
        <ele>69.2</ele>
        <time>2023-05-25T14:03:38Z</time>
      </trkpt>
      <trkpt lat="49.1982" lon="-0.4348">
        <ele>69.2</ele>
        <time>2023-05-25T14:03:39Z</time>
      </trkpt>
      <trkpt lat="49.19824" lon="-0.43476">
        <ele>69.4</ele>
        <time>2023-05-25T14:03:40Z</time>
      </trkpt>
      <trkpt lat="49.19828" lon="-0.43473">
        <ele>69.4</ele>
        <time>2023-05-25T14:03:41Z</time>
      </trkpt>
      <trkpt lat="49.19832" lon="-0.4347">
        <ele>69.4</ele>
        <time>2023-05-25T14:03:42Z</time>
      </trkpt>
      <trkpt lat="49.19837" lon="-0.43466">
        <ele>69.4</ele>
        <time>2023-05-25T14:03:43Z</time>
      </trkpt>
      <trkpt lat="49.19841" lon="-0.43463">
        <ele>69.2</ele>
        <time>2023-05-25T14:03:44Z</time>
      </trkpt>
      <trkpt lat="49.19845" lon="-0.43459">
        <ele>69</ele>
        <time>2023-05-25T14:03:45Z</time>
      </trkpt>
      <trkpt lat="49.19849" lon="-0.43456">
        <ele>69</ele>
        <time>2023-05-25T14:03:46Z</time>
      </trkpt>
      <trkpt lat="49.19853" lon="-0.43453">
        <ele>69</ele>
        <time>2023-05-25T14:03:47Z</time>
      </trkpt>
      <trkpt lat="49.19857" lon="-0.4345">
        <ele>69</ele>
        <time>2023-05-25T14:03:48Z</time>
      </trkpt>
      <trkpt lat="49.19861" lon="-0.43446">
        <ele>68.8</ele>
        <time>2023-05-25T14:03:49Z</time>
      </trkpt>
      <trkpt lat="49.19865" lon="-0.43443">
        <ele>68.6</ele>
        <time>2023-05-25T14:03:50Z</time>
      </trkpt>
      <trkpt lat="49.19869" lon="-0.4344">
        <ele>68.6</ele>
        <time>2023-05-25T14:03:51Z</time>
      </trkpt>
      <trkpt lat="49.19873" lon="-0.43437">
        <ele>68.4</ele>
        <time>2023-05-25T14:03:52Z</time>
      </trkpt>
      <trkpt lat="49.19877" lon="-0.43434">
        <ele>68.4</ele>
        <time>2023-05-25T14:03:53Z</time>
      </trkpt>
      <trkpt lat="49.19881" lon="-0.43431">
        <ele>68.2</ele>
        <time>2023-05-25T14:03:54Z</time>
      </trkpt>
      <trkpt lat="49.19885" lon="-0.43429">
        <ele>68</ele>
        <time>2023-05-25T14:03:55Z</time>
      </trkpt>
      <trkpt lat="49.19889" lon="-0.43426">
        <ele>68</ele>
        <time>2023-05-25T14:03:56Z</time>
      </trkpt>
      <trkpt lat="49.19893" lon="-0.43423">
        <ele>67.8</ele>
        <time>2023-05-25T14:03:57Z</time>
      </trkpt>
      <trkpt lat="49.19897" lon="-0.4342">
        <ele>67.6</ele>
        <time>2023-05-25T14:03:58Z</time>
      </trkpt>
      <trkpt lat="49.19901" lon="-0.43418">
        <ele>67.6</ele>
        <time>2023-05-25T14:03:59Z</time>
      </trkpt>
      <trkpt lat="49.19906" lon="-0.43416">
        <ele>67.4</ele>
        <time>2023-05-25T14:04:00Z</time>
      </trkpt>
      <trkpt lat="49.1991" lon="-0.43413">
        <ele>67.2</ele>
        <time>2023-05-25T14:04:01Z</time>
      </trkpt>
      <trkpt lat="49.19915" lon="-0.43411">
        <ele>67</ele>
        <time>2023-05-25T14:04:02Z</time>
      </trkpt>
      <trkpt lat="49.1992" lon="-0.43409">
        <ele>67</ele>
        <time>2023-05-25T14:04:03Z</time>
      </trkpt>
      <trkpt lat="49.19924" lon="-0.43406">
        <ele>67</ele>
        <time>2023-05-25T14:04:04Z</time>
      </trkpt>
      <trkpt lat="49.19929" lon="-0.43404">
        <ele>67</ele>
        <time>2023-05-25T14:04:05Z</time>
      </trkpt>
      <trkpt lat="49.19934" lon="-0.43402">
        <ele>67</ele>
        <time>2023-05-25T14:04:06Z</time>
      </trkpt>
      <trkpt lat="49.19939" lon="-0.43401">
        <ele>67</ele>
        <time>2023-05-25T14:04:07Z</time>
      </trkpt>
      <trkpt lat="49.19944" lon="-0.43399">
        <ele>67</ele>
        <time>2023-05-25T14:04:08Z</time>
      </trkpt>
      <trkpt lat="49.19949" lon="-0.43397">
        <ele>67</ele>
        <time>2023-05-25T14:04:09Z</time>
      </trkpt>
      <trkpt lat="49.19954" lon="-0.43396">
        <ele>67</ele>
        <time>2023-05-25T14:04:10Z</time>
      </trkpt>
      <trkpt lat="49.1996" lon="-0.43395">
        <ele>67</ele>
        <time>2023-05-25T14:04:11Z</time>
      </trkpt>
      <trkpt lat="49.19965" lon="-0.43394">
        <ele>67</ele>
        <time>2023-05-25T14:04:12Z</time>
      </trkpt>
      <trkpt lat="49.1997" lon="-0.43393">
        <ele>67</ele>
        <time>2023-05-25T14:04:13Z</time>
      </trkpt>
      <trkpt lat="49.19975" lon="-0.43392">
        <ele>67</ele>
        <time>2023-05-25T14:04:14Z</time>
      </trkpt>
      <trkpt lat="49.1998" lon="-0.43391">
        <ele>67</ele>
        <time>2023-05-25T14:04:15Z</time>
      </trkpt>
      <trkpt lat="49.19986" lon="-0.4339">
        <ele>67</ele>
        <time>2023-05-25T14:04:16Z</time>
      </trkpt>
      <trkpt lat="49.19991" lon="-0.43389">
        <ele>67</ele>
        <time>2023-05-25T14:04:17Z</time>
      </trkpt>
      <trkpt lat="49.19996" lon="-0.43388">
        <ele>67</ele>
        <time>2023-05-25T14:04:18Z</time>
      </trkpt>
      <trkpt lat="49.20001" lon="-0.43387">
        <ele>67</ele>
        <time>2023-05-25T14:04:19Z</time>
      </trkpt>
      <trkpt lat="49.20006" lon="-0.43386">
        <ele>67</ele>
        <time>2023-05-25T14:04:20Z</time>
      </trkpt>
      <trkpt lat="49.20011" lon="-0.43386">
        <ele>67</ele>
        <time>2023-05-25T14:04:21Z</time>
      </trkpt>
      <trkpt lat="49.20016" lon="-0.43385">
        <ele>67</ele>
        <time>2023-05-25T14:04:22Z</time>
      </trkpt>
      <trkpt lat="49.20022" lon="-0.43384">
        <ele>66.8</ele>
        <time>2023-05-25T14:04:23Z</time>
      </trkpt>
      <trkpt lat="49.20027" lon="-0.43383">
        <ele>66.8</ele>
        <time>2023-05-25T14:04:24Z</time>
      </trkpt>
      <trkpt lat="49.20032" lon="-0.43383">
        <ele>66.8</ele>
        <time>2023-05-25T14:04:25Z</time>
      </trkpt>
      <trkpt lat="49.20037" lon="-0.43382">
        <ele>66.6</ele>
        <time>2023-05-25T14:04:26Z</time>
      </trkpt>
      <trkpt lat="49.20042" lon="-0.43381">
        <ele>66.6</ele>
        <time>2023-05-25T14:04:27Z</time>
      </trkpt>
      <trkpt lat="49.20047" lon="-0.43381">
        <ele>66.6</ele>
        <time>2023-05-25T14:04:28Z</time>
      </trkpt>
      <trkpt lat="49.20052" lon="-0.4338">
        <ele>66.6</ele>
        <time>2023-05-25T14:04:29Z</time>
      </trkpt>
      <trkpt lat="49.20057" lon="-0.4338">
        <ele>66.6</ele>
        <time>2023-05-25T14:04:30Z</time>
      </trkpt>
      <trkpt lat="49.20062" lon="-0.43379">
        <ele>66.6</ele>
        <time>2023-05-25T14:04:31Z</time>
      </trkpt>
      <trkpt lat="49.20067" lon="-0.43378">
        <ele>66.6</ele>
        <time>2023-05-25T14:04:32Z</time>
      </trkpt>
      <trkpt lat="49.20072" lon="-0.43378">
        <ele>66.6</ele>
        <time>2023-05-25T14:04:33Z</time>
      </trkpt>
      <trkpt lat="49.20077" lon="-0.43377">
        <ele>66.6</ele>
        <time>2023-05-25T14:04:34Z</time>
      </trkpt>
      <trkpt lat="49.20082" lon="-0.43376">
        <ele>66.6</ele>
        <time>2023-05-25T14:04:35Z</time>
      </trkpt>
      <trkpt lat="49.20088" lon="-0.43376">
        <ele>66.6</ele>
        <time>2023-05-25T14:04:36Z</time>
      </trkpt>
      <trkpt lat="49.20093" lon="-0.43375">
        <ele>66.6</ele>
        <time>2023-05-25T14:04:37Z</time>
      </trkpt>
      <trkpt lat="49.20098" lon="-0.43374">
        <ele>66.6</ele>
        <time>2023-05-25T14:04:38Z</time>
      </trkpt>
      <trkpt lat="49.20103" lon="-0.43374">
        <ele>66.6</ele>
        <time>2023-05-25T14:04:39Z</time>
      </trkpt>
      <trkpt lat="49.20108" lon="-0.43373">
        <ele>66.6</ele>
        <time>2023-05-25T14:04:40Z</time>
      </trkpt>
      <trkpt lat="49.20114" lon="-0.43372">
        <ele>66.6</ele>
        <time>2023-05-25T14:04:41Z</time>
      </trkpt>
      <trkpt lat="49.20119" lon="-0.43371">
        <ele>66.6</ele>
        <time>2023-05-25T14:04:42Z</time>
      </trkpt>
      <trkpt lat="49.20124" lon="-0.4337">
        <ele>66.8</ele>
        <time>2023-05-25T14:04:43Z</time>
      </trkpt>
      <trkpt lat="49.2013" lon="-0.4337">
        <ele>66.8</ele>
        <time>2023-05-25T14:04:44Z</time>
      </trkpt>
      <trkpt lat="49.20135" lon="-0.43369">
        <ele>66.8</ele>
        <time>2023-05-25T14:04:45Z</time>
      </trkpt>
      <trkpt lat="49.2014" lon="-0.43368">
        <ele>67</ele>
        <time>2023-05-25T14:04:46Z</time>
      </trkpt>
      <trkpt lat="49.20146" lon="-0.43367">
        <ele>67</ele>
        <time>2023-05-25T14:04:47Z</time>
      </trkpt>
      <trkpt lat="49.20151" lon="-0.43366">
        <ele>67</ele>
        <time>2023-05-25T14:04:48Z</time>
      </trkpt>
      <trkpt lat="49.20156" lon="-0.43366">
        <ele>67</ele>
        <time>2023-05-25T14:04:49Z</time>
      </trkpt>
      <trkpt lat="49.20161" lon="-0.43365">
        <ele>67</ele>
        <time>2023-05-25T14:04:50Z</time>
      </trkpt>
      <trkpt lat="49.20166" lon="-0.43364">
        <ele>67</ele>
        <time>2023-05-25T14:04:51Z</time>
      </trkpt>
      <trkpt lat="49.20171" lon="-0.43363">
        <ele>67</ele>
        <time>2023-05-25T14:04:52Z</time>
      </trkpt>
      <trkpt lat="49.20176" lon="-0.43363">
        <ele>67</ele>
        <time>2023-05-25T14:04:53Z</time>
      </trkpt>
      <trkpt lat="49.20181" lon="-0.43362">
        <ele>67</ele>
        <time>2023-05-25T14:04:54Z</time>
      </trkpt>
      <trkpt lat="49.20186" lon="-0.43361">
        <ele>67</ele>
        <time>2023-05-25T14:04:55Z</time>
      </trkpt>
      <trkpt lat="49.20192" lon="-0.4336">
        <ele>67</ele>
        <time>2023-05-25T14:04:56Z</time>
      </trkpt>
      <trkpt lat="49.20197" lon="-0.43359">
        <ele>67</ele>
        <time>2023-05-25T14:04:57Z</time>
      </trkpt>
      <trkpt lat="49.20202" lon="-0.43358">
        <ele>67.2</ele>
        <time>2023-05-25T14:04:58Z</time>
      </trkpt>
      <trkpt lat="49.20208" lon="-0.43357">
        <ele>67.2</ele>
        <time>2023-05-25T14:04:59Z</time>
      </trkpt>
      <trkpt lat="49.20213" lon="-0.43356">
        <ele>67.4</ele>
        <time>2023-05-25T14:05:00Z</time>
      </trkpt>
      <trkpt lat="49.20219" lon="-0.43355">
        <ele>67.4</ele>
        <time>2023-05-25T14:05:01Z</time>
      </trkpt>
      <trkpt lat="49.20224" lon="-0.43354">
        <ele>67.4</ele>
        <time>2023-05-25T14:05:02Z</time>
      </trkpt>
      <trkpt lat="49.2023" lon="-0.43353">
        <ele>67.4</ele>
        <time>2023-05-25T14:05:03Z</time>
      </trkpt>
      <trkpt lat="49.20235" lon="-0.43352">
        <ele>67.6</ele>
        <time>2023-05-25T14:05:04Z</time>
      </trkpt>
      <trkpt lat="49.20241" lon="-0.43351">
        <ele>67.6</ele>
        <time>2023-05-25T14:05:05Z</time>
      </trkpt>
      <trkpt lat="49.20247" lon="-0.4335">
        <ele>67.6</ele>
        <time>2023-05-25T14:05:06Z</time>
      </trkpt>
      <trkpt lat="49.20252" lon="-0.4335">
        <ele>67.6</ele>
        <time>2023-05-25T14:05:07Z</time>
      </trkpt>
      <trkpt lat="49.20258" lon="-0.43349">
        <ele>67.6</ele>
        <time>2023-05-25T14:05:08Z</time>
      </trkpt>
      <trkpt lat="49.20264" lon="-0.43348">
        <ele>67.6</ele>
        <time>2023-05-25T14:05:09Z</time>
      </trkpt>
      <trkpt lat="49.20269" lon="-0.43347">
        <ele>67.4</ele>
        <time>2023-05-25T14:05:10Z</time>
      </trkpt>
      <trkpt lat="49.20275" lon="-0.43347">
        <ele>67.4</ele>
        <time>2023-05-25T14:05:11Z</time>
      </trkpt>
      <trkpt lat="49.2028" lon="-0.43346">
        <ele>67.4</ele>
        <time>2023-05-25T14:05:12Z</time>
      </trkpt>
      <trkpt lat="49.20285" lon="-0.43345">
        <ele>67.2</ele>
        <time>2023-05-25T14:05:13Z</time>
      </trkpt>
      <trkpt lat="49.2029" lon="-0.43345">
        <ele>67.2</ele>
        <time>2023-05-25T14:05:14Z</time>
      </trkpt>
      <trkpt lat="49.20294" lon="-0.43344">
        <ele>67</ele>
        <time>2023-05-25T14:05:15Z</time>
      </trkpt>
      <trkpt lat="49.20299" lon="-0.43344">
        <ele>67</ele>
        <time>2023-05-25T14:05:16Z</time>
      </trkpt>
      <trkpt lat="49.20303" lon="-0.43343">
        <ele>67</ele>
        <time>2023-05-25T14:05:17Z</time>
      </trkpt>
      <trkpt lat="49.20308" lon="-0.43342">
        <ele>67</ele>
        <time>2023-05-25T14:05:18Z</time>
      </trkpt>
      <trkpt lat="49.20312" lon="-0.43342">
        <ele>67</ele>
        <time>2023-05-25T14:05:19Z</time>
      </trkpt>
      <trkpt lat="49.20316" lon="-0.43341">
        <ele>67</ele>
        <time>2023-05-25T14:05:20Z</time>
      </trkpt>
      <trkpt lat="49.20321" lon="-0.43341">
        <ele>67</ele>
        <time>2023-05-25T14:05:21Z</time>
      </trkpt>
      <trkpt lat="49.20325" lon="-0.4334">
        <ele>66.8</ele>
        <time>2023-05-25T14:05:22Z</time>
      </trkpt>
      <trkpt lat="49.2033" lon="-0.4334">
        <ele>66.8</ele>
        <time>2023-05-25T14:05:23Z</time>
      </trkpt>
      <trkpt lat="49.20334" lon="-0.4334">
        <ele>66.8</ele>
        <time>2023-05-25T14:05:24Z</time>
      </trkpt>
      <trkpt lat="49.20339" lon="-0.43339">
        <ele>66.6</ele>
        <time>2023-05-25T14:05:25Z</time>
      </trkpt>
      <trkpt lat="49.20344" lon="-0.43338">
        <ele>66.6</ele>
        <time>2023-05-25T14:05:26Z</time>
      </trkpt>
      <trkpt lat="49.20349" lon="-0.43338">
        <ele>66.6</ele>
        <time>2023-05-25T14:05:27Z</time>
      </trkpt>
      <trkpt lat="49.20354" lon="-0.43337">
        <ele>66.6</ele>
        <time>2023-05-25T14:05:28Z</time>
      </trkpt>
      <trkpt lat="49.20359" lon="-0.43337">
        <ele>66.6</ele>
        <time>2023-05-25T14:05:29Z</time>
      </trkpt>
      <trkpt lat="49.20364" lon="-0.43336">
        <ele>66.6</ele>
        <time>2023-05-25T14:05:30Z</time>
      </trkpt>
      <trkpt lat="49.20369" lon="-0.43335">
        <ele>66.6</ele>
        <time>2023-05-25T14:05:31Z</time>
      </trkpt>
      <trkpt lat="49.20374" lon="-0.43334">
        <ele>66.6</ele>
        <time>2023-05-25T14:05:32Z</time>
      </trkpt>
      <trkpt lat="49.20379" lon="-0.43333">
        <ele>66.6</ele>
        <time>2023-05-25T14:05:33Z</time>
      </trkpt>
      <trkpt lat="49.20384" lon="-0.43332">
        <ele>66.4</ele>
        <time>2023-05-25T14:05:34Z</time>
      </trkpt>
      <trkpt lat="49.20389" lon="-0.43331">
        <ele>66.4</ele>
        <time>2023-05-25T14:05:35Z</time>
      </trkpt>
      <trkpt lat="49.20394" lon="-0.43329">
        <ele>66.4</ele>
        <time>2023-05-25T14:05:36Z</time>
      </trkpt>
      <trkpt lat="49.20399" lon="-0.43328">
        <ele>66.4</ele>
        <time>2023-05-25T14:05:37Z</time>
      </trkpt>
      <trkpt lat="49.20404" lon="-0.43326">
        <ele>66.4</ele>
        <time>2023-05-25T14:05:38Z</time>
      </trkpt>
      <trkpt lat="49.2041" lon="-0.43325">
        <ele>66.4</ele>
        <time>2023-05-25T14:05:39Z</time>
      </trkpt>
      <trkpt lat="49.20415" lon="-0.43323">
        <ele>66.4</ele>
        <time>2023-05-25T14:05:40Z</time>
      </trkpt>
      <trkpt lat="49.2042" lon="-0.43321">
        <ele>66.2</ele>
        <time>2023-05-25T14:05:41Z</time>
      </trkpt>
      <trkpt lat="49.20425" lon="-0.4332">
        <ele>66.2</ele>
        <time>2023-05-25T14:05:42Z</time>
      </trkpt>
      <trkpt lat="49.2043" lon="-0.43318">
        <ele>66.2</ele>
        <time>2023-05-25T14:05:43Z</time>
      </trkpt>
      <trkpt lat="49.20435" lon="-0.43315">
        <ele>66.2</ele>
        <time>2023-05-25T14:05:44Z</time>
      </trkpt>
      <trkpt lat="49.2044" lon="-0.43313">
        <ele>66</ele>
        <time>2023-05-25T14:05:45Z</time>
      </trkpt>
      <trkpt lat="49.20445" lon="-0.4331">
        <ele>66</ele>
        <time>2023-05-25T14:05:46Z</time>
      </trkpt>
      <trkpt lat="49.2045" lon="-0.43306">
        <ele>66</ele>
        <time>2023-05-25T14:05:47Z</time>
      </trkpt>
      <trkpt lat="49.20455" lon="-0.43303">
        <ele>66</ele>
        <time>2023-05-25T14:05:48Z</time>
      </trkpt>
      <trkpt lat="49.2046" lon="-0.43299">
        <ele>66</ele>
        <time>2023-05-25T14:05:49Z</time>
      </trkpt>
      <trkpt lat="49.20465" lon="-0.43295">
        <ele>66</ele>
        <time>2023-05-25T14:05:50Z</time>
      </trkpt>
      <trkpt lat="49.20469" lon="-0.43291">
        <ele>66</ele>
        <time>2023-05-25T14:05:51Z</time>
      </trkpt>
      <trkpt lat="49.20474" lon="-0.43287">
        <ele>66</ele>
        <time>2023-05-25T14:05:52Z</time>
      </trkpt>
      <trkpt lat="49.20478" lon="-0.43282">
        <ele>66</ele>
        <time>2023-05-25T14:05:53Z</time>
      </trkpt>
      <trkpt lat="49.20483" lon="-0.43278">
        <ele>66</ele>
        <time>2023-05-25T14:05:54Z</time>
      </trkpt>
      <trkpt lat="49.20488" lon="-0.43273">
        <ele>66</ele>
        <time>2023-05-25T14:05:55Z</time>
      </trkpt>
      <trkpt lat="49.20492" lon="-0.43269">
        <ele>66</ele>
        <time>2023-05-25T14:05:56Z</time>
      </trkpt>
      <trkpt lat="49.20497" lon="-0.43264">
        <ele>66</ele>
        <time>2023-05-25T14:05:57Z</time>
      </trkpt>
      <trkpt lat="49.20501" lon="-0.4326">
        <ele>66</ele>
        <time>2023-05-25T14:05:58Z</time>
      </trkpt>
      <trkpt lat="49.20506" lon="-0.43255">
        <ele>66</ele>
        <time>2023-05-25T14:05:59Z</time>
      </trkpt>
      <trkpt lat="49.20511" lon="-0.4325">
        <ele>66</ele>
        <time>2023-05-25T14:06:00Z</time>
      </trkpt>
      <trkpt lat="49.20515" lon="-0.43246">
        <ele>66</ele>
        <time>2023-05-25T14:06:01Z</time>
      </trkpt>
      <trkpt lat="49.2052" lon="-0.43242">
        <ele>66</ele>
        <time>2023-05-25T14:06:02Z</time>
      </trkpt>
      <trkpt lat="49.20525" lon="-0.43238">
        <ele>66</ele>
        <time>2023-05-25T14:06:03Z</time>
      </trkpt>
      <trkpt lat="49.2053" lon="-0.43234">
        <ele>66</ele>
        <time>2023-05-25T14:06:04Z</time>
      </trkpt>
      <trkpt lat="49.20535" lon="-0.4323">
        <ele>66</ele>
        <time>2023-05-25T14:06:05Z</time>
      </trkpt>
      <trkpt lat="49.20539" lon="-0.43226">
        <ele>66</ele>
        <time>2023-05-25T14:06:06Z</time>
      </trkpt>
      <trkpt lat="49.20544" lon="-0.43222">
        <ele>66</ele>
        <time>2023-05-25T14:06:07Z</time>
      </trkpt>
      <trkpt lat="49.20549" lon="-0.43218">
        <ele>66</ele>
        <time>2023-05-25T14:06:08Z</time>
      </trkpt>
      <trkpt lat="49.20553" lon="-0.43213">
        <ele>66</ele>
        <time>2023-05-25T14:06:09Z</time>
      </trkpt>
      <trkpt lat="49.20558" lon="-0.43209">
        <ele>66</ele>
        <time>2023-05-25T14:06:10Z</time>
      </trkpt>
      <trkpt lat="49.20562" lon="-0.43204">
        <ele>66</ele>
        <time>2023-05-25T14:06:11Z</time>
      </trkpt>
      <trkpt lat="49.20567" lon="-0.43199">
        <ele>66</ele>
        <time>2023-05-25T14:06:12Z</time>
      </trkpt>
      <trkpt lat="49.20571" lon="-0.43193">
        <ele>66</ele>
        <time>2023-05-25T14:06:13Z</time>
      </trkpt>
      <trkpt lat="49.20576" lon="-0.43188">
        <ele>66</ele>
        <time>2023-05-25T14:06:14Z</time>
      </trkpt>
      <trkpt lat="49.2058" lon="-0.43183">
        <ele>66</ele>
        <time>2023-05-25T14:06:15Z</time>
      </trkpt>
      <trkpt lat="49.20584" lon="-0.43178">
        <ele>66</ele>
        <time>2023-05-25T14:06:16Z</time>
      </trkpt>
      <trkpt lat="49.20589" lon="-0.43174">
        <ele>66</ele>
        <time>2023-05-25T14:06:17Z</time>
      </trkpt>
      <trkpt lat="49.20594" lon="-0.4317">
        <ele>65.8</ele>
        <time>2023-05-25T14:06:18Z</time>
      </trkpt>
      <trkpt lat="49.20599" lon="-0.43166">
        <ele>65.6</ele>
        <time>2023-05-25T14:06:19Z</time>
      </trkpt>
      <trkpt lat="49.20603" lon="-0.43163">
        <ele>65.6</ele>
        <time>2023-05-25T14:06:20Z</time>
      </trkpt>
      <trkpt lat="49.20609" lon="-0.4316">
        <ele>65.4</ele>
        <time>2023-05-25T14:06:21Z</time>
      </trkpt>
      <trkpt lat="49.20614" lon="-0.43157">
        <ele>65.4</ele>
        <time>2023-05-25T14:06:22Z</time>
      </trkpt>
      <trkpt lat="49.20619" lon="-0.43155">
        <ele>65.2</ele>
        <time>2023-05-25T14:06:23Z</time>
      </trkpt>
      <trkpt lat="49.20623" lon="-0.43153">
        <ele>65</ele>
        <time>2023-05-25T14:06:24Z</time>
      </trkpt>
      <trkpt lat="49.20627" lon="-0.4315">
        <ele>65</ele>
        <time>2023-05-25T14:06:25Z</time>
      </trkpt>
      <trkpt lat="49.20632" lon="-0.43147">
        <ele>64.8</ele>
        <time>2023-05-25T14:06:26Z</time>
      </trkpt>
      <trkpt lat="49.20636" lon="-0.43144">
        <ele>64.6</ele>
        <time>2023-05-25T14:06:27Z</time>
      </trkpt>
      <trkpt lat="49.2064" lon="-0.43142">
        <ele>64.6</ele>
        <time>2023-05-25T14:06:28Z</time>
      </trkpt>
      <trkpt lat="49.20644" lon="-0.43139">
        <ele>64.6</ele>
        <time>2023-05-25T14:06:29Z</time>
      </trkpt>
      <trkpt lat="49.20647" lon="-0.43136">
        <ele>64.6</ele>
        <time>2023-05-25T14:06:30Z</time>
      </trkpt>
      <trkpt lat="49.2065" lon="-0.43132">
        <ele>64.4</ele>
        <time>2023-05-25T14:06:31Z</time>
      </trkpt>
      <trkpt lat="49.20652" lon="-0.43128">
        <ele>64.4</ele>
        <time>2023-05-25T14:06:32Z</time>
      </trkpt>
      <trkpt lat="49.20653" lon="-0.43123">
        <ele>64.4</ele>
        <time>2023-05-25T14:06:33Z</time>
      </trkpt>
      <trkpt lat="49.20653" lon="-0.43117">
        <ele>64.4</ele>
        <time>2023-05-25T14:06:34Z</time>
      </trkpt>
      <trkpt lat="49.20652" lon="-0.4311">
        <ele>64.4</ele>
        <time>2023-05-25T14:06:35Z</time>
      </trkpt>
      <trkpt lat="49.2065" lon="-0.43103">
        <ele>64.4</ele>
        <time>2023-05-25T14:06:36Z</time>
      </trkpt>
      <trkpt lat="49.20649" lon="-0.43095">
        <ele>64.4</ele>
        <time>2023-05-25T14:06:37Z</time>
      </trkpt>
      <trkpt lat="49.20647" lon="-0.43087">
        <ele>64.6</ele>
        <time>2023-05-25T14:06:38Z</time>
      </trkpt>
      <trkpt lat="49.20645" lon="-0.4308">
        <ele>64.6</ele>
        <time>2023-05-25T14:06:39Z</time>
      </trkpt>
      <trkpt lat="49.20643" lon="-0.43072">
        <ele>64.6</ele>
        <time>2023-05-25T14:06:40Z</time>
      </trkpt>
      <trkpt lat="49.20641" lon="-0.43064">
        <ele>64.6</ele>
        <time>2023-05-25T14:06:41Z</time>
      </trkpt>
      <trkpt lat="49.20639" lon="-0.43057">
        <ele>64.6</ele>
        <time>2023-05-25T14:06:42Z</time>
      </trkpt>
      <trkpt lat="49.20637" lon="-0.43049">
        <ele>64.6</ele>
        <time>2023-05-25T14:06:43Z</time>
      </trkpt>
      <trkpt lat="49.20635" lon="-0.43041">
        <ele>64.6</ele>
        <time>2023-05-25T14:06:44Z</time>
      </trkpt>
      <trkpt lat="49.20633" lon="-0.43034">
        <ele>64.6</ele>
        <time>2023-05-25T14:06:45Z</time>
      </trkpt>
      <trkpt lat="49.20631" lon="-0.43026">
        <ele>64.6</ele>
        <time>2023-05-25T14:06:46Z</time>
      </trkpt>
      <trkpt lat="49.20629" lon="-0.43019">
        <ele>64.6</ele>
        <time>2023-05-25T14:06:47Z</time>
      </trkpt>
      <trkpt lat="49.20627" lon="-0.43011">
        <ele>64.6</ele>
        <time>2023-05-25T14:06:48Z</time>
      </trkpt>
      <trkpt lat="49.20625" lon="-0.43003">
        <ele>64.6</ele>
        <time>2023-05-25T14:06:49Z</time>
      </trkpt>
      <trkpt lat="49.20623" lon="-0.42995">
        <ele>64.6</ele>
        <time>2023-05-25T14:06:50Z</time>
      </trkpt>
      <trkpt lat="49.20621" lon="-0.42988">
        <ele>64.6</ele>
        <time>2023-05-25T14:06:51Z</time>
      </trkpt>
      <trkpt lat="49.20619" lon="-0.4298">
        <ele>64.6</ele>
        <time>2023-05-25T14:06:52Z</time>
      </trkpt>
      <trkpt lat="49.20617" lon="-0.42972">
        <ele>64.6</ele>
        <time>2023-05-25T14:06:53Z</time>
      </trkpt>
      <trkpt lat="49.20615" lon="-0.42964">
        <ele>64.8</ele>
        <time>2023-05-25T14:06:54Z</time>
      </trkpt>
      <trkpt lat="49.20613" lon="-0.42956">
        <ele>64.8</ele>
        <time>2023-05-25T14:06:55Z</time>
      </trkpt>
      <trkpt lat="49.20611" lon="-0.42949">
        <ele>65</ele>
        <time>2023-05-25T14:06:56Z</time>
      </trkpt>
      <trkpt lat="49.20609" lon="-0.42941">
        <ele>65</ele>
        <time>2023-05-25T14:06:57Z</time>
      </trkpt>
      <trkpt lat="49.20607" lon="-0.42933">
        <ele>65</ele>
        <time>2023-05-25T14:06:58Z</time>
      </trkpt>
      <trkpt lat="49.20605" lon="-0.42925">
        <ele>65</ele>
        <time>2023-05-25T14:06:59Z</time>
      </trkpt>
      <trkpt lat="49.20603" lon="-0.42917">
        <ele>65</ele>
        <time>2023-05-25T14:07:00Z</time>
      </trkpt>
      <trkpt lat="49.20601" lon="-0.4291">
        <ele>65</ele>
        <time>2023-05-25T14:07:01Z</time>
      </trkpt>
      <trkpt lat="49.20599" lon="-0.42902">
        <ele>65</ele>
        <time>2023-05-25T14:07:02Z</time>
      </trkpt>
      <trkpt lat="49.20597" lon="-0.42894">
        <ele>65.2</ele>
        <time>2023-05-25T14:07:03Z</time>
      </trkpt>
      <trkpt lat="49.20595" lon="-0.42887">
        <ele>65.4</ele>
        <time>2023-05-25T14:07:04Z</time>
      </trkpt>
      <trkpt lat="49.20593" lon="-0.42879">
        <ele>65.4</ele>
        <time>2023-05-25T14:07:05Z</time>
      </trkpt>
      <trkpt lat="49.20591" lon="-0.42872">
        <ele>65.6</ele>
        <time>2023-05-25T14:07:06Z</time>
      </trkpt>
      <trkpt lat="49.20589" lon="-0.42865">
        <ele>65.6</ele>
        <time>2023-05-25T14:07:07Z</time>
      </trkpt>
      <trkpt lat="49.20586" lon="-0.42857">
        <ele>65.6</ele>
        <time>2023-05-25T14:07:08Z</time>
      </trkpt>
      <trkpt lat="49.20584" lon="-0.4285">
        <ele>65.8</ele>
        <time>2023-05-25T14:07:09Z</time>
      </trkpt>
      <trkpt lat="49.20582" lon="-0.42843">
        <ele>66</ele>
        <time>2023-05-25T14:07:10Z</time>
      </trkpt>
      <trkpt lat="49.2058" lon="-0.42835">
        <ele>66</ele>
        <time>2023-05-25T14:07:11Z</time>
      </trkpt>
      <trkpt lat="49.20577" lon="-0.42828">
        <ele>66</ele>
        <time>2023-05-25T14:07:12Z</time>
      </trkpt>
      <trkpt lat="49.20575" lon="-0.42821">
        <ele>66.2</ele>
        <time>2023-05-25T14:07:13Z</time>
      </trkpt>
      <trkpt lat="49.20573" lon="-0.42813">
        <ele>66.4</ele>
        <time>2023-05-25T14:07:14Z</time>
      </trkpt>
      <trkpt lat="49.20572" lon="-0.42806">
        <ele>66.4</ele>
        <time>2023-05-25T14:07:15Z</time>
      </trkpt>
      <trkpt lat="49.20571" lon="-0.42798">
        <ele>66.6</ele>
        <time>2023-05-25T14:07:16Z</time>
      </trkpt>
      <trkpt lat="49.2057" lon="-0.4279">
        <ele>66.6</ele>
        <time>2023-05-25T14:07:17Z</time>
      </trkpt>
      <trkpt lat="49.20569" lon="-0.42782">
        <ele>66.6</ele>
        <time>2023-05-25T14:07:18Z</time>
      </trkpt>
      <trkpt lat="49.20567" lon="-0.42776">
        <ele>66.8</ele>
        <time>2023-05-25T14:07:19Z</time>
      </trkpt>
      <trkpt lat="49.20564" lon="-0.42769">
        <ele>67</ele>
        <time>2023-05-25T14:07:20Z</time>
      </trkpt>
      <trkpt lat="49.20562" lon="-0.42762">
        <ele>67</ele>
        <time>2023-05-25T14:07:21Z</time>
      </trkpt>
      <trkpt lat="49.20561" lon="-0.42754">
        <ele>67.2</ele>
        <time>2023-05-25T14:07:22Z</time>
      </trkpt>
      <trkpt lat="49.2056" lon="-0.42747">
        <ele>67.4</ele>
        <time>2023-05-25T14:07:23Z</time>
      </trkpt>
      <trkpt lat="49.20558" lon="-0.42739">
        <ele>67.4</ele>
        <time>2023-05-25T14:07:24Z</time>
      </trkpt>
      <trkpt lat="49.20556" lon="-0.42732">
        <ele>67.4</ele>
        <time>2023-05-25T14:07:25Z</time>
      </trkpt>
      <trkpt lat="49.20554" lon="-0.42725">
        <ele>67.2</ele>
        <time>2023-05-25T14:07:26Z</time>
      </trkpt>
      <trkpt lat="49.2055" lon="-0.42719">
        <ele>67.2</ele>
        <time>2023-05-25T14:07:27Z</time>
      </trkpt>
      <trkpt lat="49.20546" lon="-0.42713">
        <ele>67.2</ele>
        <time>2023-05-25T14:07:28Z</time>
      </trkpt>
      <trkpt lat="49.20543" lon="-0.42707">
        <ele>67.2</ele>
        <time>2023-05-25T14:07:29Z</time>
      </trkpt>
      <trkpt lat="49.2054" lon="-0.427">
        <ele>67.2</ele>
        <time>2023-05-25T14:07:30Z</time>
      </trkpt>
      <trkpt lat="49.20536" lon="-0.42694">
        <ele>67.2</ele>
        <time>2023-05-25T14:07:31Z</time>
      </trkpt>
      <trkpt lat="49.20533" lon="-0.42687">
        <ele>67</ele>
        <time>2023-05-25T14:07:32Z</time>
      </trkpt>
      <trkpt lat="49.2053" lon="-0.4268">
        <ele>67</ele>
        <time>2023-05-25T14:07:33Z</time>
      </trkpt>
      <trkpt lat="49.20527" lon="-0.42673">
        <ele>67</ele>
        <time>2023-05-25T14:07:34Z</time>
      </trkpt>
      <trkpt lat="49.20524" lon="-0.42665">
        <ele>67</ele>
        <time>2023-05-25T14:07:35Z</time>
      </trkpt>
      <trkpt lat="49.20521" lon="-0.42658">
        <ele>66.8</ele>
        <time>2023-05-25T14:07:36Z</time>
      </trkpt>
      <trkpt lat="49.20519" lon="-0.42651">
        <ele>66.6</ele>
        <time>2023-05-25T14:07:37Z</time>
      </trkpt>
      <trkpt lat="49.20516" lon="-0.42644">
        <ele>66.6</ele>
        <time>2023-05-25T14:07:38Z</time>
      </trkpt>
      <trkpt lat="49.20513" lon="-0.42636">
        <ele>66.4</ele>
        <time>2023-05-25T14:07:39Z</time>
      </trkpt>
      <trkpt lat="49.2051" lon="-0.42629">
        <ele>66.2</ele>
        <time>2023-05-25T14:07:40Z</time>
      </trkpt>
      <trkpt lat="49.20507" lon="-0.42621">
        <ele>66</ele>
        <time>2023-05-25T14:07:41Z</time>
      </trkpt>
      <trkpt lat="49.20505" lon="-0.42614">
        <ele>65.8</ele>
        <time>2023-05-25T14:07:42Z</time>
      </trkpt>
      <trkpt lat="49.20502" lon="-0.42606">
        <ele>65.6</ele>
        <time>2023-05-25T14:07:43Z</time>
      </trkpt>
      <trkpt lat="49.20499" lon="-0.42599">
        <ele>65.4</ele>
        <time>2023-05-25T14:07:44Z</time>
      </trkpt>
      <trkpt lat="49.20496" lon="-0.42591">
        <ele>65.4</ele>
        <time>2023-05-25T14:07:45Z</time>
      </trkpt>
      <trkpt lat="49.20493" lon="-0.42584">
        <ele>65.2</ele>
        <time>2023-05-25T14:07:46Z</time>
      </trkpt>
      <trkpt lat="49.20491" lon="-0.42576">
        <ele>65.4</ele>
        <time>2023-05-25T14:07:47Z</time>
      </trkpt>
      <trkpt lat="49.20488" lon="-0.42569">
        <ele>65.6</ele>
        <time>2023-05-25T14:07:48Z</time>
      </trkpt>
      <trkpt lat="49.20485" lon="-0.42561">
        <ele>65.6</ele>
        <time>2023-05-25T14:07:49Z</time>
      </trkpt>
      <trkpt lat="49.20482" lon="-0.42554">
        <ele>66</ele>
        <time>2023-05-25T14:07:50Z</time>
      </trkpt>
      <trkpt lat="49.20479" lon="-0.42546">
        <ele>66</ele>
        <time>2023-05-25T14:07:51Z</time>
      </trkpt>
      <trkpt lat="49.20477" lon="-0.42539">
        <ele>66.2</ele>
        <time>2023-05-25T14:07:52Z</time>
      </trkpt>
      <trkpt lat="49.20474" lon="-0.42532">
        <ele>66.4</ele>
        <time>2023-05-25T14:07:53Z</time>
      </trkpt>
      <trkpt lat="49.20471" lon="-0.42524">
        <ele>66.6</ele>
        <time>2023-05-25T14:07:54Z</time>
      </trkpt>
      <trkpt lat="49.20469" lon="-0.42517">
        <ele>66.8</ele>
        <time>2023-05-25T14:07:55Z</time>
      </trkpt>
      <trkpt lat="49.20466" lon="-0.4251">
        <ele>67</ele>
        <time>2023-05-25T14:07:56Z</time>
      </trkpt>
      <trkpt lat="49.20463" lon="-0.42503">
        <ele>67.4</ele>
        <time>2023-05-25T14:07:57Z</time>
      </trkpt>
      <trkpt lat="49.20461" lon="-0.42495">
        <ele>67.4</ele>
        <time>2023-05-25T14:07:58Z</time>
      </trkpt>
      <trkpt lat="49.20458" lon="-0.42488">
        <ele>67.6</ele>
        <time>2023-05-25T14:07:59Z</time>
      </trkpt>
      <trkpt lat="49.20455" lon="-0.42481">
        <ele>67.6</ele>
        <time>2023-05-25T14:08:00Z</time>
      </trkpt>
      <trkpt lat="49.20453" lon="-0.42474">
        <ele>67.6</ele>
        <time>2023-05-25T14:08:01Z</time>
      </trkpt>
      <trkpt lat="49.2045" lon="-0.42466">
        <ele>67.6</ele>
        <time>2023-05-25T14:08:02Z</time>
      </trkpt>
      <trkpt lat="49.20447" lon="-0.42459">
        <ele>67.8</ele>
        <time>2023-05-25T14:08:03Z</time>
      </trkpt>
      <trkpt lat="49.20444" lon="-0.42451">
        <ele>67.8</ele>
        <time>2023-05-25T14:08:04Z</time>
      </trkpt>
      <trkpt lat="49.20442" lon="-0.42444">
        <ele>67.8</ele>
        <time>2023-05-25T14:08:05Z</time>
      </trkpt>
      <trkpt lat="49.20439" lon="-0.42436">
        <ele>67.8</ele>
        <time>2023-05-25T14:08:06Z</time>
      </trkpt>
      <trkpt lat="49.20436" lon="-0.42429">
        <ele>67.8</ele>
        <time>2023-05-25T14:08:07Z</time>
      </trkpt>
      <trkpt lat="49.20433" lon="-0.42421">
        <ele>67.8</ele>
        <time>2023-05-25T14:08:08Z</time>
      </trkpt>
      <trkpt lat="49.2043" lon="-0.42413">
        <ele>67.8</ele>
        <time>2023-05-25T14:08:09Z</time>
      </trkpt>
      <trkpt lat="49.20427" lon="-0.42406">
        <ele>68</ele>
        <time>2023-05-25T14:08:10Z</time>
      </trkpt>
      <trkpt lat="49.20424" lon="-0.42398">
        <ele>68</ele>
        <time>2023-05-25T14:08:11Z</time>
      </trkpt>
      <trkpt lat="49.20421" lon="-0.4239">
        <ele>68</ele>
        <time>2023-05-25T14:08:12Z</time>
      </trkpt>
      <trkpt lat="49.20418" lon="-0.42382">
        <ele>68</ele>
        <time>2023-05-25T14:08:13Z</time>
      </trkpt>
      <trkpt lat="49.20415" lon="-0.42374">
        <ele>68</ele>
        <time>2023-05-25T14:08:14Z</time>
      </trkpt>
      <trkpt lat="49.20412" lon="-0.42366">
        <ele>68</ele>
        <time>2023-05-25T14:08:15Z</time>
      </trkpt>
      <trkpt lat="49.20409" lon="-0.42358">
        <ele>68</ele>
        <time>2023-05-25T14:08:16Z</time>
      </trkpt>
      <trkpt lat="49.20406" lon="-0.4235">
        <ele>68</ele>
        <time>2023-05-25T14:08:17Z</time>
      </trkpt>
      <trkpt lat="49.20403" lon="-0.42342">
        <ele>68</ele>
        <time>2023-05-25T14:08:18Z</time>
      </trkpt>
      <trkpt lat="49.204" lon="-0.42335">
        <ele>68</ele>
        <time>2023-05-25T14:08:19Z</time>
      </trkpt>
      <trkpt lat="49.20397" lon="-0.42327">
        <ele>68</ele>
        <time>2023-05-25T14:08:20Z</time>
      </trkpt>
      <trkpt lat="49.20394" lon="-0.42319">
        <ele>68</ele>
        <time>2023-05-25T14:08:21Z</time>
      </trkpt>
      <trkpt lat="49.20392" lon="-0.4231">
        <ele>67.8</ele>
        <time>2023-05-25T14:08:22Z</time>
      </trkpt>
      <trkpt lat="49.20389" lon="-0.42303">
        <ele>67.8</ele>
        <time>2023-05-25T14:08:23Z</time>
      </trkpt>
      <trkpt lat="49.20386" lon="-0.42294">
        <ele>67.6</ele>
        <time>2023-05-25T14:08:24Z</time>
      </trkpt>
      <trkpt lat="49.20383" lon="-0.42287">
        <ele>67.6</ele>
        <time>2023-05-25T14:08:25Z</time>
      </trkpt>
      <trkpt lat="49.2038" lon="-0.42279">
        <ele>67.6</ele>
        <time>2023-05-25T14:08:26Z</time>
      </trkpt>
      <trkpt lat="49.20377" lon="-0.4227">
        <ele>67.6</ele>
        <time>2023-05-25T14:08:27Z</time>
      </trkpt>
      <trkpt lat="49.20374" lon="-0.42263">
        <ele>67.6</ele>
        <time>2023-05-25T14:08:28Z</time>
      </trkpt>
      <trkpt lat="49.20371" lon="-0.42254">
        <ele>67.6</ele>
        <time>2023-05-25T14:08:29Z</time>
      </trkpt>
      <trkpt lat="49.20368" lon="-0.42246">
        <ele>67.6</ele>
        <time>2023-05-25T14:08:30Z</time>
      </trkpt>
      <trkpt lat="49.20365" lon="-0.42238">
        <ele>67.6</ele>
        <time>2023-05-25T14:08:31Z</time>
      </trkpt>
      <trkpt lat="49.20362" lon="-0.4223">
        <ele>67.4</ele>
        <time>2023-05-25T14:08:32Z</time>
      </trkpt>
      <trkpt lat="49.20359" lon="-0.42222">
        <ele>67.4</ele>
        <time>2023-05-25T14:08:33Z</time>
      </trkpt>
      <trkpt lat="49.20356" lon="-0.42214">
        <ele>67.4</ele>
        <time>2023-05-25T14:08:34Z</time>
      </trkpt>
      <trkpt lat="49.20353" lon="-0.42207">
        <ele>67.2</ele>
        <time>2023-05-25T14:08:35Z</time>
      </trkpt>
      <trkpt lat="49.2035" lon="-0.42199">
        <ele>67.2</ele>
        <time>2023-05-25T14:08:36Z</time>
      </trkpt>
      <trkpt lat="49.20347" lon="-0.42191">
        <ele>67</ele>
        <time>2023-05-25T14:08:37Z</time>
      </trkpt>
      <trkpt lat="49.20344" lon="-0.42183">
        <ele>67</ele>
        <time>2023-05-25T14:08:38Z</time>
      </trkpt>
      <trkpt lat="49.20341" lon="-0.42175">
        <ele>67</ele>
        <time>2023-05-25T14:08:39Z</time>
      </trkpt>
      <trkpt lat="49.20338" lon="-0.42167">
        <ele>67</ele>
        <time>2023-05-25T14:08:40Z</time>
      </trkpt>
      <trkpt lat="49.20335" lon="-0.42159">
        <ele>67</ele>
        <time>2023-05-25T14:08:41Z</time>
      </trkpt>
      <trkpt lat="49.20332" lon="-0.42151">
        <ele>67</ele>
        <time>2023-05-25T14:08:42Z</time>
      </trkpt>
      <trkpt lat="49.20329" lon="-0.42142">
        <ele>67</ele>
        <time>2023-05-25T14:08:43Z</time>
      </trkpt>
      <trkpt lat="49.20325" lon="-0.42134">
        <ele>67</ele>
        <time>2023-05-25T14:08:44Z</time>
      </trkpt>
      <trkpt lat="49.20322" lon="-0.42125">
        <ele>67</ele>
        <time>2023-05-25T14:08:45Z</time>
      </trkpt>
      <trkpt lat="49.20319" lon="-0.42117">
        <ele>67</ele>
        <time>2023-05-25T14:08:46Z</time>
      </trkpt>
      <trkpt lat="49.20316" lon="-0.42108">
        <ele>67</ele>
        <time>2023-05-25T14:08:47Z</time>
      </trkpt>
      <trkpt lat="49.20313" lon="-0.421">
        <ele>67</ele>
        <time>2023-05-25T14:08:48Z</time>
      </trkpt>
      <trkpt lat="49.2031" lon="-0.42091">
        <ele>67</ele>
        <time>2023-05-25T14:08:49Z</time>
      </trkpt>
      <trkpt lat="49.20306" lon="-0.42082">
        <ele>67</ele>
        <time>2023-05-25T14:08:50Z</time>
      </trkpt>
      <trkpt lat="49.20303" lon="-0.42073">
        <ele>67</ele>
        <time>2023-05-25T14:08:51Z</time>
      </trkpt>
      <trkpt lat="49.203" lon="-0.42064">
        <ele>66.8</ele>
        <time>2023-05-25T14:08:52Z</time>
      </trkpt>
      <trkpt lat="49.20297" lon="-0.42055">
        <ele>66.6</ele>
        <time>2023-05-25T14:08:53Z</time>
      </trkpt>
      <trkpt lat="49.20293" lon="-0.42046">
        <ele>66.6</ele>
        <time>2023-05-25T14:08:54Z</time>
      </trkpt>
      <trkpt lat="49.2029" lon="-0.42037">
        <ele>66.4</ele>
        <time>2023-05-25T14:08:55Z</time>
      </trkpt>
      <trkpt lat="49.20287" lon="-0.42028">
        <ele>66.4</ele>
        <time>2023-05-25T14:08:56Z</time>
      </trkpt>
      <trkpt lat="49.20284" lon="-0.42019">
        <ele>66.2</ele>
        <time>2023-05-25T14:08:57Z</time>
      </trkpt>
      <trkpt lat="49.2028" lon="-0.4201">
        <ele>66</ele>
        <time>2023-05-25T14:08:58Z</time>
      </trkpt>
      <trkpt lat="49.20277" lon="-0.42">
        <ele>66</ele>
        <time>2023-05-25T14:08:59Z</time>
      </trkpt>
      <trkpt lat="49.20274" lon="-0.41991">
        <ele>66</ele>
        <time>2023-05-25T14:09:00Z</time>
      </trkpt>
      <trkpt lat="49.20271" lon="-0.41982">
        <ele>66.2</ele>
        <time>2023-05-25T14:09:01Z</time>
      </trkpt>
      <trkpt lat="49.20267" lon="-0.41973">
        <ele>66.4</ele>
        <time>2023-05-25T14:09:02Z</time>
      </trkpt>
      <trkpt lat="49.20264" lon="-0.41964">
        <ele>66.4</ele>
        <time>2023-05-25T14:09:03Z</time>
      </trkpt>
      <trkpt lat="49.20261" lon="-0.41955">
        <ele>66.6</ele>
        <time>2023-05-25T14:09:04Z</time>
      </trkpt>
      <trkpt lat="49.20257" lon="-0.41945">
        <ele>66.6</ele>
        <time>2023-05-25T14:09:05Z</time>
      </trkpt>
      <trkpt lat="49.20254" lon="-0.41936">
        <ele>66.6</ele>
        <time>2023-05-25T14:09:06Z</time>
      </trkpt>
      <trkpt lat="49.2025" lon="-0.41928">
        <ele>67</ele>
        <time>2023-05-25T14:09:07Z</time>
      </trkpt>
      <trkpt lat="49.20247" lon="-0.41919">
        <ele>67</ele>
        <time>2023-05-25T14:09:08Z</time>
      </trkpt>
      <trkpt lat="49.20243" lon="-0.4191">
        <ele>67</ele>
        <time>2023-05-25T14:09:09Z</time>
      </trkpt>
      <trkpt lat="49.2024" lon="-0.41901">
        <ele>67.2</ele>
        <time>2023-05-25T14:09:10Z</time>
      </trkpt>
      <trkpt lat="49.20236" lon="-0.41893">
        <ele>67.4</ele>
        <time>2023-05-25T14:09:11Z</time>
      </trkpt>
      <trkpt lat="49.20233" lon="-0.41884">
        <ele>67.4</ele>
        <time>2023-05-25T14:09:12Z</time>
      </trkpt>
      <trkpt lat="49.20229" lon="-0.41876">
        <ele>67.6</ele>
        <time>2023-05-25T14:09:13Z</time>
      </trkpt>
      <trkpt lat="49.20226" lon="-0.41867">
        <ele>67.6</ele>
        <time>2023-05-25T14:09:14Z</time>
      </trkpt>
      <trkpt lat="49.20223" lon="-0.41859">
        <ele>67.6</ele>
        <time>2023-05-25T14:09:15Z</time>
      </trkpt>
      <trkpt lat="49.20219" lon="-0.41851">
        <ele>67.8</ele>
        <time>2023-05-25T14:09:16Z</time>
      </trkpt>
      <trkpt lat="49.20216" lon="-0.41842">
        <ele>68</ele>
        <time>2023-05-25T14:09:17Z</time>
      </trkpt>
      <trkpt lat="49.20213" lon="-0.41834">
        <ele>68</ele>
        <time>2023-05-25T14:09:18Z</time>
      </trkpt>
      <trkpt lat="49.20209" lon="-0.41826">
        <ele>68</ele>
        <time>2023-05-25T14:09:19Z</time>
      </trkpt>
      <trkpt lat="49.20206" lon="-0.41818">
        <ele>68</ele>
        <time>2023-05-25T14:09:20Z</time>
      </trkpt>
      <trkpt lat="49.20203" lon="-0.4181">
        <ele>68</ele>
        <time>2023-05-25T14:09:21Z</time>
      </trkpt>
      <trkpt lat="49.20199" lon="-0.41802">
        <ele>68</ele>
        <time>2023-05-25T14:09:22Z</time>
      </trkpt>
      <trkpt lat="49.20196" lon="-0.41794">
        <ele>67.8</ele>
        <time>2023-05-25T14:09:23Z</time>
      </trkpt>
      <trkpt lat="49.20192" lon="-0.41787">
        <ele>67.8</ele>
        <time>2023-05-25T14:09:24Z</time>
      </trkpt>
      <trkpt lat="49.20188" lon="-0.41779">
        <ele>67.8</ele>
        <time>2023-05-25T14:09:25Z</time>
      </trkpt>
      <trkpt lat="49.20185" lon="-0.41771">
        <ele>67.8</ele>
        <time>2023-05-25T14:09:26Z</time>
      </trkpt>
      <trkpt lat="49.20181" lon="-0.41764">
        <ele>68</ele>
        <time>2023-05-25T14:09:27Z</time>
      </trkpt>
      <trkpt lat="49.20177" lon="-0.41756">
        <ele>68</ele>
        <time>2023-05-25T14:09:28Z</time>
      </trkpt>
      <trkpt lat="49.20173" lon="-0.41748">
        <ele>68</ele>
        <time>2023-05-25T14:09:29Z</time>
      </trkpt>
      <trkpt lat="49.2017" lon="-0.4174">
        <ele>68</ele>
        <time>2023-05-25T14:09:30Z</time>
      </trkpt>
      <trkpt lat="49.20166" lon="-0.41732">
        <ele>68</ele>
        <time>2023-05-25T14:09:31Z</time>
      </trkpt>
      <trkpt lat="49.20162" lon="-0.41724">
        <ele>68</ele>
        <time>2023-05-25T14:09:32Z</time>
      </trkpt>
      <trkpt lat="49.20158" lon="-0.41717">
        <ele>68.2</ele>
        <time>2023-05-25T14:09:33Z</time>
      </trkpt>
      <trkpt lat="49.20154" lon="-0.41709">
        <ele>68.4</ele>
        <time>2023-05-25T14:09:34Z</time>
      </trkpt>
      <trkpt lat="49.2015" lon="-0.41701">
        <ele>68.4</ele>
        <time>2023-05-25T14:09:35Z</time>
      </trkpt>
      <trkpt lat="49.20146" lon="-0.41694">
        <ele>68.6</ele>
        <time>2023-05-25T14:09:36Z</time>
      </trkpt>
      <trkpt lat="49.20141" lon="-0.41686">
        <ele>68.6</ele>
        <time>2023-05-25T14:09:37Z</time>
      </trkpt>
      <trkpt lat="49.20137" lon="-0.41679">
        <ele>68.6</ele>
        <time>2023-05-25T14:09:38Z</time>
      </trkpt>
      <trkpt lat="49.20133" lon="-0.41672">
        <ele>68.8</ele>
        <time>2023-05-25T14:09:39Z</time>
      </trkpt>
      <trkpt lat="49.20129" lon="-0.41664">
        <ele>69</ele>
        <time>2023-05-25T14:09:40Z</time>
      </trkpt>
      <trkpt lat="49.20126" lon="-0.41657">
        <ele>69</ele>
        <time>2023-05-25T14:09:41Z</time>
      </trkpt>
      <trkpt lat="49.20122" lon="-0.4165">
        <ele>69</ele>
        <time>2023-05-25T14:09:42Z</time>
      </trkpt>
      <trkpt lat="49.20119" lon="-0.41643">
        <ele>69</ele>
        <time>2023-05-25T14:09:43Z</time>
      </trkpt>
      <trkpt lat="49.20115" lon="-0.41636">
        <ele>69.2</ele>
        <time>2023-05-25T14:09:44Z</time>
      </trkpt>
      <trkpt lat="49.20112" lon="-0.41629">
        <ele>69.4</ele>
        <time>2023-05-25T14:09:45Z</time>
      </trkpt>
      <trkpt lat="49.20109" lon="-0.41621">
        <ele>69.4</ele>
        <time>2023-05-25T14:09:46Z</time>
      </trkpt>
      <trkpt lat="49.20106" lon="-0.41614">
        <ele>69.6</ele>
        <time>2023-05-25T14:09:47Z</time>
      </trkpt>
      <trkpt lat="49.20102" lon="-0.41606">
        <ele>69.6</ele>
        <time>2023-05-25T14:09:48Z</time>
      </trkpt>
      <trkpt lat="49.20099" lon="-0.41599">
        <ele>69.6</ele>
        <time>2023-05-25T14:09:49Z</time>
      </trkpt>
      <trkpt lat="49.20095" lon="-0.41591">
        <ele>69.6</ele>
        <time>2023-05-25T14:09:50Z</time>
      </trkpt>
      <trkpt lat="49.20092" lon="-0.41583">
        <ele>69.8</ele>
        <time>2023-05-25T14:09:51Z</time>
      </trkpt>
      <trkpt lat="49.20089" lon="-0.41575">
        <ele>69.6</ele>
        <time>2023-05-25T14:09:52Z</time>
      </trkpt>
      <trkpt lat="49.20085" lon="-0.41567">
        <ele>69.6</ele>
        <time>2023-05-25T14:09:53Z</time>
      </trkpt>
      <trkpt lat="49.20082" lon="-0.41559">
        <ele>69.4</ele>
        <time>2023-05-25T14:09:54Z</time>
      </trkpt>
      <trkpt lat="49.20078" lon="-0.41551">
        <ele>69</ele>
        <time>2023-05-25T14:09:55Z</time>
      </trkpt>
      <trkpt lat="49.20075" lon="-0.41544">
        <ele>68.8</ele>
        <time>2023-05-25T14:09:56Z</time>
      </trkpt>
      <trkpt lat="49.20071" lon="-0.41536">
        <ele>68.6</ele>
        <time>2023-05-25T14:09:57Z</time>
      </trkpt>
      <trkpt lat="49.20068" lon="-0.41528">
        <ele>68.4</ele>
        <time>2023-05-25T14:09:58Z</time>
      </trkpt>
      <trkpt lat="49.20064" lon="-0.41521">
        <ele>68</ele>
        <time>2023-05-25T14:09:59Z</time>
      </trkpt>
      <trkpt lat="49.2006" lon="-0.41513">
        <ele>68</ele>
        <time>2023-05-25T14:10:00Z</time>
      </trkpt>
      <trkpt lat="49.20057" lon="-0.41505">
        <ele>67.8</ele>
        <time>2023-05-25T14:10:01Z</time>
      </trkpt>
      <trkpt lat="49.20053" lon="-0.41497">
        <ele>67.6</ele>
        <time>2023-05-25T14:10:02Z</time>
      </trkpt>
      <trkpt lat="49.20049" lon="-0.41489">
        <ele>67.6</ele>
        <time>2023-05-25T14:10:03Z</time>
      </trkpt>
      <trkpt lat="49.20046" lon="-0.41482">
        <ele>67.6</ele>
        <time>2023-05-25T14:10:04Z</time>
      </trkpt>
      <trkpt lat="49.20042" lon="-0.41474">
        <ele>67.6</ele>
        <time>2023-05-25T14:10:05Z</time>
      </trkpt>
      <trkpt lat="49.20039" lon="-0.41466">
        <ele>67.6</ele>
        <time>2023-05-25T14:10:06Z</time>
      </trkpt>
      <trkpt lat="49.20035" lon="-0.41458">
        <ele>67.6</ele>
        <time>2023-05-25T14:10:07Z</time>
      </trkpt>
      <trkpt lat="49.20032" lon="-0.4145">
        <ele>67.8</ele>
        <time>2023-05-25T14:10:08Z</time>
      </trkpt>
      <trkpt lat="49.20028" lon="-0.41441">
        <ele>67.8</ele>
        <time>2023-05-25T14:10:09Z</time>
      </trkpt>
      <trkpt lat="49.20025" lon="-0.41433">
        <ele>68</ele>
        <time>2023-05-25T14:10:10Z</time>
      </trkpt>
      <trkpt lat="49.20021" lon="-0.41425">
        <ele>68</ele>
        <time>2023-05-25T14:10:11Z</time>
      </trkpt>
      <trkpt lat="49.20018" lon="-0.41417">
        <ele>68</ele>
        <time>2023-05-25T14:10:12Z</time>
      </trkpt>
      <trkpt lat="49.20014" lon="-0.41409">
        <ele>68</ele>
        <time>2023-05-25T14:10:13Z</time>
      </trkpt>
      <trkpt lat="49.2001" lon="-0.41401">
        <ele>68</ele>
        <time>2023-05-25T14:10:14Z</time>
      </trkpt>
      <trkpt lat="49.20006" lon="-0.41394">
        <ele>68</ele>
        <time>2023-05-25T14:10:15Z</time>
      </trkpt>
      <trkpt lat="49.20001" lon="-0.41386">
        <ele>68</ele>
        <time>2023-05-25T14:10:16Z</time>
      </trkpt>
      <trkpt lat="49.19997" lon="-0.41378">
        <ele>68</ele>
        <time>2023-05-25T14:10:17Z</time>
      </trkpt>
      <trkpt lat="49.19993" lon="-0.4137">
        <ele>68</ele>
        <time>2023-05-25T14:10:18Z</time>
      </trkpt>
      <trkpt lat="49.1999" lon="-0.41363">
        <ele>68</ele>
        <time>2023-05-25T14:10:19Z</time>
      </trkpt>
      <trkpt lat="49.19986" lon="-0.41355">
        <ele>68</ele>
        <time>2023-05-25T14:10:20Z</time>
      </trkpt>
      <trkpt lat="49.19983" lon="-0.41347">
        <ele>68</ele>
        <time>2023-05-25T14:10:21Z</time>
      </trkpt>
      <trkpt lat="49.1998" lon="-0.41339">
        <ele>68</ele>
        <time>2023-05-25T14:10:22Z</time>
      </trkpt>
      <trkpt lat="49.19977" lon="-0.41331">
        <ele>68</ele>
        <time>2023-05-25T14:10:23Z</time>
      </trkpt>
      <trkpt lat="49.19974" lon="-0.41323">
        <ele>68</ele>
        <time>2023-05-25T14:10:24Z</time>
      </trkpt>
      <trkpt lat="49.19971" lon="-0.41315">
        <ele>68</ele>
        <time>2023-05-25T14:10:25Z</time>
      </trkpt>
      <trkpt lat="49.19967" lon="-0.41307">
        <ele>68.2</ele>
        <time>2023-05-25T14:10:26Z</time>
      </trkpt>
      <trkpt lat="49.19963" lon="-0.41299">
        <ele>68.2</ele>
        <time>2023-05-25T14:10:27Z</time>
      </trkpt>
      <trkpt lat="49.19958" lon="-0.41292">
        <ele>68.2</ele>
        <time>2023-05-25T14:10:28Z</time>
      </trkpt>
      <trkpt lat="49.19953" lon="-0.41286">
        <ele>68.4</ele>
        <time>2023-05-25T14:10:29Z</time>
      </trkpt>
      <trkpt lat="49.19947" lon="-0.41281">
        <ele>68.2</ele>
        <time>2023-05-25T14:10:30Z</time>
      </trkpt>
      <trkpt lat="49.19941" lon="-0.41277">
        <ele>68.2</ele>
        <time>2023-05-25T14:10:31Z</time>
      </trkpt>
      <trkpt lat="49.19935" lon="-0.41274">
        <ele>68.2</ele>
        <time>2023-05-25T14:10:32Z</time>
      </trkpt>
      <trkpt lat="49.19928" lon="-0.4127">
        <ele>68</ele>
        <time>2023-05-25T14:10:33Z</time>
      </trkpt>
      <trkpt lat="49.19922" lon="-0.41267">
        <ele>68</ele>
        <time>2023-05-25T14:10:34Z</time>
      </trkpt>
      <trkpt lat="49.19915" lon="-0.41263">
        <ele>68</ele>
        <time>2023-05-25T14:10:35Z</time>
      </trkpt>
      <trkpt lat="49.19908" lon="-0.41261">
        <ele>68</ele>
        <time>2023-05-25T14:10:36Z</time>
      </trkpt>
      <trkpt lat="49.19901" lon="-0.41259">
        <ele>67.8</ele>
        <time>2023-05-25T14:10:37Z</time>
      </trkpt>
      <trkpt lat="49.19894" lon="-0.41258">
        <ele>67.8</ele>
        <time>2023-05-25T14:10:38Z</time>
      </trkpt>
      <trkpt lat="49.19888" lon="-0.41259">
        <ele>67.6</ele>
        <time>2023-05-25T14:10:39Z</time>
      </trkpt>
      <trkpt lat="49.19881" lon="-0.41261">
        <ele>67.6</ele>
        <time>2023-05-25T14:10:40Z</time>
      </trkpt>
      <trkpt lat="49.19874" lon="-0.41265">
        <ele>67.6</ele>
        <time>2023-05-25T14:10:41Z</time>
      </trkpt>
      <trkpt lat="49.19868" lon="-0.4127">
        <ele>67.6</ele>
        <time>2023-05-25T14:10:42Z</time>
      </trkpt>
      <trkpt lat="49.19862" lon="-0.41275">
        <ele>67.6</ele>
        <time>2023-05-25T14:10:43Z</time>
      </trkpt>
      <trkpt lat="49.19856" lon="-0.41281">
        <ele>67.6</ele>
        <time>2023-05-25T14:10:44Z</time>
      </trkpt>
      <trkpt lat="49.1985" lon="-0.41288">
        <ele>67.6</ele>
        <time>2023-05-25T14:10:45Z</time>
      </trkpt>
      <trkpt lat="49.19844" lon="-0.41294">
        <ele>67.6</ele>
        <time>2023-05-25T14:10:46Z</time>
      </trkpt>
      <trkpt lat="49.19839" lon="-0.41301">
        <ele>67.6</ele>
        <time>2023-05-25T14:10:47Z</time>
      </trkpt>
      <trkpt lat="49.19833" lon="-0.41308">
        <ele>67.6</ele>
        <time>2023-05-25T14:10:48Z</time>
      </trkpt>
      <trkpt lat="49.19827" lon="-0.41316">
        <ele>67.8</ele>
        <time>2023-05-25T14:10:49Z</time>
      </trkpt>
      <trkpt lat="49.19822" lon="-0.41324">
        <ele>68</ele>
        <time>2023-05-25T14:10:50Z</time>
      </trkpt>
      <trkpt lat="49.19816" lon="-0.41331">
        <ele>68</ele>
        <time>2023-05-25T14:10:51Z</time>
      </trkpt>
      <trkpt lat="49.19811" lon="-0.4134">
        <ele>68</ele>
        <time>2023-05-25T14:10:52Z</time>
      </trkpt>
      <trkpt lat="49.19806" lon="-0.41348">
        <ele>68</ele>
        <time>2023-05-25T14:10:53Z</time>
      </trkpt>
      <trkpt lat="49.19801" lon="-0.41356">
        <ele>68</ele>
        <time>2023-05-25T14:10:54Z</time>
      </trkpt>
      <trkpt lat="49.19796" lon="-0.41364">
        <ele>68</ele>
        <time>2023-05-25T14:10:55Z</time>
      </trkpt>
      <trkpt lat="49.19791" lon="-0.41371">
        <ele>68</ele>
        <time>2023-05-25T14:10:56Z</time>
      </trkpt>
      <trkpt lat="49.19786" lon="-0.41378">
        <ele>68</ele>
        <time>2023-05-25T14:10:57Z</time>
      </trkpt>
      <trkpt lat="49.19781" lon="-0.41385">
        <ele>68</ele>
        <time>2023-05-25T14:10:58Z</time>
      </trkpt>
      <trkpt lat="49.19776" lon="-0.41392">
        <ele>68</ele>
        <time>2023-05-25T14:10:59Z</time>
      </trkpt>
      <trkpt lat="49.19772" lon="-0.41398">
        <ele>68</ele>
        <time>2023-05-25T14:11:00Z</time>
      </trkpt>
      <trkpt lat="49.19768" lon="-0.41404">
        <ele>68</ele>
        <time>2023-05-25T14:11:01Z</time>
      </trkpt>
      <trkpt lat="49.19763" lon="-0.41407">
        <ele>68</ele>
        <time>2023-05-25T14:11:02Z</time>
      </trkpt>
      <trkpt lat="49.19759" lon="-0.41407">
        <ele>68</ele>
        <time>2023-05-25T14:11:03Z</time>
      </trkpt>
      <trkpt lat="49.19754" lon="-0.41405">
        <ele>68</ele>
        <time>2023-05-25T14:11:04Z</time>
      </trkpt>
      <trkpt lat="49.1975" lon="-0.41401">
        <ele>68</ele>
        <time>2023-05-25T14:11:05Z</time>
      </trkpt>
      <trkpt lat="49.19747" lon="-0.41395">
        <ele>68.2</ele>
        <time>2023-05-25T14:11:06Z</time>
      </trkpt>
      <trkpt lat="49.19743" lon="-0.41388">
        <ele>68.4</ele>
        <time>2023-05-25T14:11:07Z</time>
      </trkpt>
      <trkpt lat="49.1974" lon="-0.41381">
        <ele>68.6</ele>
        <time>2023-05-25T14:11:08Z</time>
      </trkpt>
      <trkpt lat="49.19735" lon="-0.41374">
        <ele>68.8</ele>
        <time>2023-05-25T14:11:09Z</time>
      </trkpt>
      <trkpt lat="49.19731" lon="-0.41366">
        <ele>69</ele>
        <time>2023-05-25T14:11:10Z</time>
      </trkpt>
      <trkpt lat="49.19727" lon="-0.41358">
        <ele>69.4</ele>
        <time>2023-05-25T14:11:11Z</time>
      </trkpt>
      <trkpt lat="49.19722" lon="-0.41351">
        <ele>69.6</ele>
        <time>2023-05-25T14:11:12Z</time>
      </trkpt>
      <trkpt lat="49.19718" lon="-0.41343">
        <ele>70</ele>
        <time>2023-05-25T14:11:13Z</time>
      </trkpt>
      <trkpt lat="49.19714" lon="-0.41335">
        <ele>70.2</ele>
        <time>2023-05-25T14:11:14Z</time>
      </trkpt>
      <trkpt lat="49.1971" lon="-0.41328">
        <ele>70.4</ele>
        <time>2023-05-25T14:11:15Z</time>
      </trkpt>
      <trkpt lat="49.19705" lon="-0.4132">
        <ele>70.6</ele>
        <time>2023-05-25T14:11:16Z</time>
      </trkpt>
      <trkpt lat="49.19701" lon="-0.41312">
        <ele>70.6</ele>
        <time>2023-05-25T14:11:17Z</time>
      </trkpt>
      <trkpt lat="49.19697" lon="-0.41305">
        <ele>70.8</ele>
        <time>2023-05-25T14:11:18Z</time>
      </trkpt>
      <trkpt lat="49.19692" lon="-0.41297">
        <ele>71</ele>
        <time>2023-05-25T14:11:19Z</time>
      </trkpt>
      <trkpt lat="49.19688" lon="-0.41289">
        <ele>71</ele>
        <time>2023-05-25T14:11:20Z</time>
      </trkpt>
      <trkpt lat="49.19684" lon="-0.41282">
        <ele>71</ele>
        <time>2023-05-25T14:11:21Z</time>
      </trkpt>
      <trkpt lat="49.1968" lon="-0.41274">
        <ele>71</ele>
        <time>2023-05-25T14:11:22Z</time>
      </trkpt>
      <trkpt lat="49.19675" lon="-0.41266">
        <ele>71</ele>
        <time>2023-05-25T14:11:23Z</time>
      </trkpt>
      <trkpt lat="49.19671" lon="-0.41258">
        <ele>71</ele>
        <time>2023-05-25T14:11:24Z</time>
      </trkpt>
      <trkpt lat="49.19667" lon="-0.4125">
        <ele>71</ele>
        <time>2023-05-25T14:11:25Z</time>
      </trkpt>
      <trkpt lat="49.19663" lon="-0.41242">
        <ele>71</ele>
        <time>2023-05-25T14:11:26Z</time>
      </trkpt>
      <trkpt lat="49.19659" lon="-0.41234">
        <ele>70.8</ele>
        <time>2023-05-25T14:11:27Z</time>
      </trkpt>
      <trkpt lat="49.19655" lon="-0.41226">
        <ele>70.6</ele>
        <time>2023-05-25T14:11:28Z</time>
      </trkpt>
      <trkpt lat="49.19651" lon="-0.41217">
        <ele>70.6</ele>
        <time>2023-05-25T14:11:29Z</time>
      </trkpt>
      <trkpt lat="49.19647" lon="-0.41209">
        <ele>70.6</ele>
        <time>2023-05-25T14:11:30Z</time>
      </trkpt>
      <trkpt lat="49.19643" lon="-0.412">
        <ele>70.4</ele>
        <time>2023-05-25T14:11:31Z</time>
      </trkpt>
      <trkpt lat="49.19639" lon="-0.41191">
        <ele>70.2</ele>
        <time>2023-05-25T14:11:32Z</time>
      </trkpt>
      <trkpt lat="49.19635" lon="-0.41183">
        <ele>70</ele>
        <time>2023-05-25T14:11:33Z</time>
      </trkpt>
      <trkpt lat="49.19632" lon="-0.41174">
        <ele>70</ele>
        <time>2023-05-25T14:11:34Z</time>
      </trkpt>
      <trkpt lat="49.19628" lon="-0.41164">
        <ele>70</ele>
        <time>2023-05-25T14:11:35Z</time>
      </trkpt>
      <trkpt lat="49.19624" lon="-0.41155">
        <ele>70</ele>
        <time>2023-05-25T14:11:36Z</time>
      </trkpt>
      <trkpt lat="49.19621" lon="-0.41146">
        <ele>70</ele>
        <time>2023-05-25T14:11:37Z</time>
      </trkpt>
      <trkpt lat="49.19617" lon="-0.41137">
        <ele>69.8</ele>
        <time>2023-05-25T14:11:38Z</time>
      </trkpt>
      <trkpt lat="49.19614" lon="-0.41128">
        <ele>69.8</ele>
        <time>2023-05-25T14:11:39Z</time>
      </trkpt>
      <trkpt lat="49.19611" lon="-0.41118">
        <ele>69.8</ele>
        <time>2023-05-25T14:11:40Z</time>
      </trkpt>
      <trkpt lat="49.19607" lon="-0.41109">
        <ele>69.6</ele>
        <time>2023-05-25T14:11:41Z</time>
      </trkpt>
      <trkpt lat="49.19604" lon="-0.41101">
        <ele>69.6</ele>
        <time>2023-05-25T14:11:42Z</time>
      </trkpt>
      <trkpt lat="49.19601" lon="-0.41092">
        <ele>69.6</ele>
        <time>2023-05-25T14:11:43Z</time>
      </trkpt>
      <trkpt lat="49.19598" lon="-0.41084">
        <ele>69.6</ele>
        <time>2023-05-25T14:11:44Z</time>
      </trkpt>
      <trkpt lat="49.19594" lon="-0.41076">
        <ele>69.6</ele>
        <time>2023-05-25T14:11:45Z</time>
      </trkpt>
      <trkpt lat="49.1959" lon="-0.41069">
        <ele>69.8</ele>
        <time>2023-05-25T14:11:46Z</time>
      </trkpt>
      <trkpt lat="49.19585" lon="-0.41062">
        <ele>70</ele>
        <time>2023-05-25T14:11:47Z</time>
      </trkpt>
      <trkpt lat="49.1958" lon="-0.41057">
        <ele>70</ele>
        <time>2023-05-25T14:11:48Z</time>
      </trkpt>
      <trkpt lat="49.19574" lon="-0.41053">
        <ele>70</ele>
        <time>2023-05-25T14:11:49Z</time>
      </trkpt>
      <trkpt lat="49.19568" lon="-0.4105">
        <ele>70</ele>
        <time>2023-05-25T14:11:50Z</time>
      </trkpt>
      <trkpt lat="49.19561" lon="-0.41049">
        <ele>70.2</ele>
        <time>2023-05-25T14:11:51Z</time>
      </trkpt>
      <trkpt lat="49.19555" lon="-0.41048">
        <ele>70.2</ele>
        <time>2023-05-25T14:11:52Z</time>
      </trkpt>
      <trkpt lat="49.19548" lon="-0.41046">
        <ele>70.2</ele>
        <time>2023-05-25T14:11:53Z</time>
      </trkpt>
      <trkpt lat="49.19541" lon="-0.41045">
        <ele>70.4</ele>
        <time>2023-05-25T14:11:54Z</time>
      </trkpt>
      <trkpt lat="49.19534" lon="-0.41043">
        <ele>70.4</ele>
        <time>2023-05-25T14:11:55Z</time>
      </trkpt>
      <trkpt lat="49.19528" lon="-0.41042">
        <ele>70.4</ele>
        <time>2023-05-25T14:11:56Z</time>
      </trkpt>
      <trkpt lat="49.19521" lon="-0.41041">
        <ele>70.4</ele>
        <time>2023-05-25T14:11:57Z</time>
      </trkpt>
      <trkpt lat="49.19514" lon="-0.41041">
        <ele>70.4</ele>
        <time>2023-05-25T14:11:58Z</time>
      </trkpt>
      <trkpt lat="49.19508" lon="-0.4104">
        <ele>70.4</ele>
        <time>2023-05-25T14:11:59Z</time>
      </trkpt>
      <trkpt lat="49.19501" lon="-0.4104">
        <ele>70.6</ele>
        <time>2023-05-25T14:12:00Z</time>
      </trkpt>
      <trkpt lat="49.19494" lon="-0.41039">
        <ele>70.6</ele>
        <time>2023-05-25T14:12:01Z</time>
      </trkpt>
      <trkpt lat="49.19488" lon="-0.41039">
        <ele>71</ele>
        <time>2023-05-25T14:12:02Z</time>
      </trkpt>
      <trkpt lat="49.19482" lon="-0.41038">
        <ele>71.2</ele>
        <time>2023-05-25T14:12:03Z</time>
      </trkpt>
      <trkpt lat="49.19475" lon="-0.41037">
        <ele>71.6</ele>
        <time>2023-05-25T14:12:04Z</time>
      </trkpt>
      <trkpt lat="49.19469" lon="-0.41036">
        <ele>71.8</ele>
        <time>2023-05-25T14:12:05Z</time>
      </trkpt>
      <trkpt lat="49.19463" lon="-0.41035">
        <ele>72</ele>
        <time>2023-05-25T14:12:06Z</time>
      </trkpt>
      <trkpt lat="49.19456" lon="-0.41034">
        <ele>72.4</ele>
        <time>2023-05-25T14:12:07Z</time>
      </trkpt>
      <trkpt lat="49.1945" lon="-0.41032">
        <ele>72.6</ele>
        <time>2023-05-25T14:12:08Z</time>
      </trkpt>
      <trkpt lat="49.19443" lon="-0.41031">
        <ele>73</ele>
        <time>2023-05-25T14:12:09Z</time>
      </trkpt>
      <trkpt lat="49.19437" lon="-0.41029">
        <ele>73.4</ele>
        <time>2023-05-25T14:12:10Z</time>
      </trkpt>
      <trkpt lat="49.1943" lon="-0.41027">
        <ele>73.6</ele>
        <time>2023-05-25T14:12:11Z</time>
      </trkpt>
      <trkpt lat="49.19424" lon="-0.41026">
        <ele>74</ele>
        <time>2023-05-25T14:12:12Z</time>
      </trkpt>
      <trkpt lat="49.19417" lon="-0.41024">
        <ele>74.4</ele>
        <time>2023-05-25T14:12:13Z</time>
      </trkpt>
      <trkpt lat="49.19411" lon="-0.41022">
        <ele>74.4</ele>
        <time>2023-05-25T14:12:14Z</time>
      </trkpt>
      <trkpt lat="49.19405" lon="-0.41021">
        <ele>74.4</ele>
        <time>2023-05-25T14:12:15Z</time>
      </trkpt>
      <trkpt lat="49.19399" lon="-0.41019">
        <ele>74.2</ele>
        <time>2023-05-25T14:12:16Z</time>
      </trkpt>
      <trkpt lat="49.19392" lon="-0.41018">
        <ele>74</ele>
        <time>2023-05-25T14:12:17Z</time>
      </trkpt>
      <trkpt lat="49.19386" lon="-0.41017">
        <ele>74</ele>
        <time>2023-05-25T14:12:18Z</time>
      </trkpt>
      <trkpt lat="49.19381" lon="-0.41015">
        <ele>73.8</ele>
        <time>2023-05-25T14:12:19Z</time>
      </trkpt>
      <trkpt lat="49.19375" lon="-0.41014">
        <ele>73.6</ele>
        <time>2023-05-25T14:12:20Z</time>
      </trkpt>
      <trkpt lat="49.19369" lon="-0.41013">
        <ele>73.6</ele>
        <time>2023-05-25T14:12:21Z</time>
      </trkpt>
      <trkpt lat="49.19362" lon="-0.41012">
        <ele>73.6</ele>
        <time>2023-05-25T14:12:22Z</time>
      </trkpt>
      <trkpt lat="49.19356" lon="-0.41011">
        <ele>73.4</ele>
        <time>2023-05-25T14:12:23Z</time>
      </trkpt>
      <trkpt lat="49.1935" lon="-0.4101">
        <ele>73.4</ele>
        <time>2023-05-25T14:12:24Z</time>
      </trkpt>
      <trkpt lat="49.19343" lon="-0.41009">
        <ele>73</ele>
        <time>2023-05-25T14:12:25Z</time>
      </trkpt>
      <trkpt lat="49.19337" lon="-0.41007">
        <ele>73</ele>
        <time>2023-05-25T14:12:26Z</time>
      </trkpt>
      <trkpt lat="49.1933" lon="-0.41005">
        <ele>73</ele>
        <time>2023-05-25T14:12:27Z</time>
      </trkpt>
      <trkpt lat="49.19324" lon="-0.41003">
        <ele>72.6</ele>
        <time>2023-05-25T14:12:28Z</time>
      </trkpt>
      <trkpt lat="49.19318" lon="-0.41">
        <ele>72.6</ele>
        <time>2023-05-25T14:12:29Z</time>
      </trkpt>
      <trkpt lat="49.19311" lon="-0.40997">
        <ele>72.6</ele>
        <time>2023-05-25T14:12:30Z</time>
      </trkpt>
      <trkpt lat="49.19305" lon="-0.40993">
        <ele>72.4</ele>
        <time>2023-05-25T14:12:31Z</time>
      </trkpt>
      <trkpt lat="49.19299" lon="-0.40989">
        <ele>72.2</ele>
        <time>2023-05-25T14:12:32Z</time>
      </trkpt>
      <trkpt lat="49.19293" lon="-0.40985">
        <ele>72</ele>
        <time>2023-05-25T14:12:33Z</time>
      </trkpt>
      <trkpt lat="49.19287" lon="-0.4098">
        <ele>72</ele>
        <time>2023-05-25T14:12:34Z</time>
      </trkpt>
      <trkpt lat="49.19281" lon="-0.40976">
        <ele>71.6</ele>
        <time>2023-05-25T14:12:35Z</time>
      </trkpt>
      <trkpt lat="49.19275" lon="-0.40971">
        <ele>71.6</ele>
        <time>2023-05-25T14:12:36Z</time>
      </trkpt>
      <trkpt lat="49.1927" lon="-0.40966">
        <ele>71.6</ele>
        <time>2023-05-25T14:12:37Z</time>
      </trkpt>
      <trkpt lat="49.19264" lon="-0.40962">
        <ele>71.4</ele>
        <time>2023-05-25T14:12:38Z</time>
      </trkpt>
      <trkpt lat="49.19259" lon="-0.40957">
        <ele>71.2</ele>
        <time>2023-05-25T14:12:39Z</time>
      </trkpt>
      <trkpt lat="49.19254" lon="-0.40953">
        <ele>71</ele>
        <time>2023-05-25T14:12:40Z</time>
      </trkpt>
      <trkpt lat="49.19249" lon="-0.40948">
        <ele>71</ele>
        <time>2023-05-25T14:12:41Z</time>
      </trkpt>
      <trkpt lat="49.19244" lon="-0.40944">
        <ele>71</ele>
        <time>2023-05-25T14:12:42Z</time>
      </trkpt>
      <trkpt lat="49.19239" lon="-0.4094">
        <ele>71.2</ele>
        <time>2023-05-25T14:12:43Z</time>
      </trkpt>
      <trkpt lat="49.19235" lon="-0.40935">
        <ele>71.4</ele>
        <time>2023-05-25T14:12:44Z</time>
      </trkpt>
      <trkpt lat="49.1923" lon="-0.40931">
        <ele>71.4</ele>
        <time>2023-05-25T14:12:45Z</time>
      </trkpt>
      <trkpt lat="49.19226" lon="-0.40927">
        <ele>71.6</ele>
        <time>2023-05-25T14:12:46Z</time>
      </trkpt>
      <trkpt lat="49.19221" lon="-0.40923">
        <ele>71.6</ele>
        <time>2023-05-25T14:12:47Z</time>
      </trkpt>
      <trkpt lat="49.19216" lon="-0.40919">
        <ele>71.8</ele>
        <time>2023-05-25T14:12:48Z</time>
      </trkpt>
      <trkpt lat="49.19212" lon="-0.40916">
        <ele>72</ele>
        <time>2023-05-25T14:12:49Z</time>
      </trkpt>
      <trkpt lat="49.19207" lon="-0.40914">
        <ele>72</ele>
        <time>2023-05-25T14:12:50Z</time>
      </trkpt>
      <trkpt lat="49.19201" lon="-0.40915">
        <ele>72</ele>
        <time>2023-05-25T14:12:51Z</time>
      </trkpt>
      <trkpt lat="49.19197" lon="-0.40918">
        <ele>72.4</ele>
        <time>2023-05-25T14:12:52Z</time>
      </trkpt>
      <trkpt lat="49.19192" lon="-0.40921">
        <ele>72.4</ele>
        <time>2023-05-25T14:12:53Z</time>
      </trkpt>
      <trkpt lat="49.19188" lon="-0.40919">
        <ele>72.6</ele>
        <time>2023-05-25T14:12:54Z</time>
      </trkpt>
      <trkpt lat="49.19184" lon="-0.40913">
        <ele>72.6</ele>
        <time>2023-05-25T14:12:55Z</time>
      </trkpt>
      <trkpt lat="49.19181" lon="-0.40907">
        <ele>72.6</ele>
        <time>2023-05-25T14:12:56Z</time>
      </trkpt>
      <trkpt lat="49.19179" lon="-0.409">
        <ele>72.4</ele>
        <time>2023-05-25T14:12:57Z</time>
      </trkpt>
      <trkpt lat="49.19176" lon="-0.40892">
        <ele>72.4</ele>
        <time>2023-05-25T14:12:58Z</time>
      </trkpt>
      <trkpt lat="49.19173" lon="-0.40886">
        <ele>72.2</ele>
        <time>2023-05-25T14:12:59Z</time>
      </trkpt>
      <trkpt lat="49.19169" lon="-0.4088">
        <ele>72</ele>
        <time>2023-05-25T14:13:00Z</time>
      </trkpt>
      <trkpt lat="49.19164" lon="-0.40874">
        <ele>72</ele>
        <time>2023-05-25T14:13:01Z</time>
      </trkpt>
      <trkpt lat="49.19159" lon="-0.40869">
        <ele>71.6</ele>
        <time>2023-05-25T14:13:02Z</time>
      </trkpt>
      <trkpt lat="49.19154" lon="-0.40864">
        <ele>71.6</ele>
        <time>2023-05-25T14:13:03Z</time>
      </trkpt>
      <trkpt lat="49.19149" lon="-0.40859">
        <ele>71.4</ele>
        <time>2023-05-25T14:13:04Z</time>
      </trkpt>
      <trkpt lat="49.19144" lon="-0.40855">
        <ele>71.2</ele>
        <time>2023-05-25T14:13:05Z</time>
      </trkpt>
      <trkpt lat="49.19138" lon="-0.4085">
        <ele>71</ele>
        <time>2023-05-25T14:13:06Z</time>
      </trkpt>
      <trkpt lat="49.19133" lon="-0.40845">
        <ele>70.8</ele>
        <time>2023-05-25T14:13:07Z</time>
      </trkpt>
      <trkpt lat="49.19127" lon="-0.40841">
        <ele>70.6</ele>
        <time>2023-05-25T14:13:08Z</time>
      </trkpt>
      <trkpt lat="49.19122" lon="-0.40836">
        <ele>70.6</ele>
        <time>2023-05-25T14:13:09Z</time>
      </trkpt>
      <trkpt lat="49.19117" lon="-0.40832">
        <ele>70.4</ele>
        <time>2023-05-25T14:13:10Z</time>
      </trkpt>
      <trkpt lat="49.19112" lon="-0.40828">
        <ele>70.4</ele>
        <time>2023-05-25T14:13:11Z</time>
      </trkpt>
      <trkpt lat="49.19106" lon="-0.40824">
        <ele>70.2</ele>
        <time>2023-05-25T14:13:12Z</time>
      </trkpt>
      <trkpt lat="49.19101" lon="-0.4082">
        <ele>70</ele>
        <time>2023-05-25T14:13:13Z</time>
      </trkpt>
      <trkpt lat="49.19095" lon="-0.40816">
        <ele>70</ele>
        <time>2023-05-25T14:13:14Z</time>
      </trkpt>
      <trkpt lat="49.19089" lon="-0.40812">
        <ele>69.8</ele>
        <time>2023-05-25T14:13:15Z</time>
      </trkpt>
      <trkpt lat="49.19083" lon="-0.40809">
        <ele>69.6</ele>
        <time>2023-05-25T14:13:16Z</time>
      </trkpt>
      <trkpt lat="49.19077" lon="-0.40805">
        <ele>69.6</ele>
        <time>2023-05-25T14:13:17Z</time>
      </trkpt>
      <trkpt lat="49.1907" lon="-0.40802">
        <ele>69.4</ele>
        <time>2023-05-25T14:13:18Z</time>
      </trkpt>
      <trkpt lat="49.19064" lon="-0.40798">
        <ele>69.2</ele>
        <time>2023-05-25T14:13:19Z</time>
      </trkpt>
      <trkpt lat="49.19057" lon="-0.40795">
        <ele>69</ele>
        <time>2023-05-25T14:13:20Z</time>
      </trkpt>
      <trkpt lat="49.1905" lon="-0.40791">
        <ele>69</ele>
        <time>2023-05-25T14:13:21Z</time>
      </trkpt>
      <trkpt lat="49.19043" lon="-0.40788">
        <ele>68.8</ele>
        <time>2023-05-25T14:13:22Z</time>
      </trkpt>
      <trkpt lat="49.19036" lon="-0.40785">
        <ele>68.6</ele>
        <time>2023-05-25T14:13:23Z</time>
      </trkpt>
      <trkpt lat="49.19029" lon="-0.40782">
        <ele>68.6</ele>
        <time>2023-05-25T14:13:24Z</time>
      </trkpt>
      <trkpt lat="49.19022" lon="-0.40779">
        <ele>68.4</ele>
        <time>2023-05-25T14:13:25Z</time>
      </trkpt>
      <trkpt lat="49.19015" lon="-0.40776">
        <ele>68.2</ele>
        <time>2023-05-25T14:13:26Z</time>
      </trkpt>
      <trkpt lat="49.19007" lon="-0.40773">
        <ele>68</ele>
        <time>2023-05-25T14:13:27Z</time>
      </trkpt>
      <trkpt lat="49.19" lon="-0.4077">
        <ele>68</ele>
        <time>2023-05-25T14:13:28Z</time>
      </trkpt>
      <trkpt lat="49.18992" lon="-0.40767">
        <ele>67.8</ele>
        <time>2023-05-25T14:13:29Z</time>
      </trkpt>
      <trkpt lat="49.18985" lon="-0.40764">
        <ele>67.6</ele>
        <time>2023-05-25T14:13:30Z</time>
      </trkpt>
      <trkpt lat="49.18978" lon="-0.4076">
        <ele>67.6</ele>
        <time>2023-05-25T14:13:31Z</time>
      </trkpt>
      <trkpt lat="49.1897" lon="-0.40757">
        <ele>67.4</ele>
        <time>2023-05-25T14:13:32Z</time>
      </trkpt>
      <trkpt lat="49.18963" lon="-0.40753">
        <ele>67</ele>
        <time>2023-05-25T14:13:33Z</time>
      </trkpt>
      <trkpt lat="49.18955" lon="-0.4075">
        <ele>67</ele>
        <time>2023-05-25T14:13:34Z</time>
      </trkpt>
      <trkpt lat="49.18948" lon="-0.40747">
        <ele>66.6</ele>
        <time>2023-05-25T14:13:35Z</time>
      </trkpt>
      <trkpt lat="49.18942" lon="-0.40744">
        <ele>66.6</ele>
        <time>2023-05-25T14:13:36Z</time>
      </trkpt>
      <trkpt lat="49.18936" lon="-0.40742">
        <ele>66.4</ele>
        <time>2023-05-25T14:13:37Z</time>
      </trkpt>
      <trkpt lat="49.18931" lon="-0.4074">
        <ele>66.2</ele>
        <time>2023-05-25T14:13:38Z</time>
      </trkpt>
      <trkpt lat="49.18927" lon="-0.40738">
        <ele>66</ele>
        <time>2023-05-25T14:13:39Z</time>
      </trkpt>
      <trkpt lat="49.18924" lon="-0.40736">
        <ele>66</ele>
        <time>2023-05-25T14:13:40Z</time>
      </trkpt>
      <trkpt lat="49.18921" lon="-0.40734">
        <ele>66</ele>
        <time>2023-05-25T14:13:41Z</time>
      </trkpt>
      <trkpt lat="49.18919" lon="-0.40731">
        <ele>65.8</ele>
        <time>2023-05-25T14:13:42Z</time>
      </trkpt>
      <trkpt lat="49.18918" lon="-0.40727">
        <ele>65.8</ele>
        <time>2023-05-25T14:13:43Z</time>
      </trkpt>
      <trkpt lat="49.18918" lon="-0.40722">
        <ele>65.6</ele>
        <time>2023-05-25T14:13:44Z</time>
      </trkpt>
      <trkpt lat="49.18919" lon="-0.40716">
        <ele>65.6</ele>
        <time>2023-05-25T14:13:45Z</time>
      </trkpt>
      <trkpt lat="49.18919" lon="-0.40709">
        <ele>65.6</ele>
        <time>2023-05-25T14:13:46Z</time>
      </trkpt>
      <trkpt lat="49.1892" lon="-0.40701">
        <ele>65.6</ele>
        <time>2023-05-25T14:13:47Z</time>
      </trkpt>
      <trkpt lat="49.18921" lon="-0.40694">
        <ele>65.4</ele>
        <time>2023-05-25T14:13:48Z</time>
      </trkpt>
      <trkpt lat="49.18922" lon="-0.40686">
        <ele>65.4</ele>
        <time>2023-05-25T14:13:49Z</time>
      </trkpt>
      <trkpt lat="49.18923" lon="-0.40678">
        <ele>65.4</ele>
        <time>2023-05-25T14:13:50Z</time>
      </trkpt>
      <trkpt lat="49.18923" lon="-0.4067">
        <ele>65.2</ele>
        <time>2023-05-25T14:13:51Z</time>
      </trkpt>
      <trkpt lat="49.18923" lon="-0.40663">
        <ele>65.2</ele>
        <time>2023-05-25T14:13:52Z</time>
      </trkpt>
      <trkpt lat="49.18923" lon="-0.40655">
        <ele>65.2</ele>
        <time>2023-05-25T14:13:53Z</time>
      </trkpt>
      <trkpt lat="49.18923" lon="-0.40647">
        <ele>65.2</ele>
        <time>2023-05-25T14:13:54Z</time>
      </trkpt>
      <trkpt lat="49.18923" lon="-0.40639">
        <ele>65</ele>
        <time>2023-05-25T14:13:55Z</time>
      </trkpt>
      <trkpt lat="49.18922" lon="-0.40632">
        <ele>65</ele>
        <time>2023-05-25T14:13:56Z</time>
      </trkpt>
      <trkpt lat="49.18919" lon="-0.40626">
        <ele>65</ele>
        <time>2023-05-25T14:13:57Z</time>
      </trkpt>
      <trkpt lat="49.18915" lon="-0.40622">
        <ele>65</ele>
        <time>2023-05-25T14:13:58Z</time>
      </trkpt>
      <trkpt lat="49.1891" lon="-0.40619">
        <ele>64.6</ele>
        <time>2023-05-25T14:13:59Z</time>
      </trkpt>
      <trkpt lat="49.18904" lon="-0.40617">
        <ele>64.2</ele>
        <time>2023-05-25T14:14:00Z</time>
      </trkpt>
      <trkpt lat="49.18898" lon="-0.40614">
        <ele>63.8</ele>
        <time>2023-05-25T14:14:01Z</time>
      </trkpt>
      <trkpt lat="49.18892" lon="-0.40612">
        <ele>63.4</ele>
        <time>2023-05-25T14:14:02Z</time>
      </trkpt>
      <trkpt lat="49.18886" lon="-0.40609">
        <ele>63</ele>
        <time>2023-05-25T14:14:03Z</time>
      </trkpt>
      <trkpt lat="49.18879" lon="-0.40607">
        <ele>62.6</ele>
        <time>2023-05-25T14:14:04Z</time>
      </trkpt>
      <trkpt lat="49.18872" lon="-0.40605">
        <ele>62</ele>
        <time>2023-05-25T14:14:05Z</time>
      </trkpt>
      <trkpt lat="49.18866" lon="-0.40602">
        <ele>61.6</ele>
        <time>2023-05-25T14:14:06Z</time>
      </trkpt>
      <trkpt lat="49.1886" lon="-0.40599">
        <ele>61.2</ele>
        <time>2023-05-25T14:14:07Z</time>
      </trkpt>
      <trkpt lat="49.18854" lon="-0.40596">
        <ele>60.8</ele>
        <time>2023-05-25T14:14:08Z</time>
      </trkpt>
      <trkpt lat="49.18849" lon="-0.40594">
        <ele>60.2</ele>
        <time>2023-05-25T14:14:09Z</time>
      </trkpt>
      <trkpt lat="49.18843" lon="-0.40592">
        <ele>60</ele>
        <time>2023-05-25T14:14:10Z</time>
      </trkpt>
      <trkpt lat="49.18838" lon="-0.4059">
        <ele>59.6</ele>
        <time>2023-05-25T14:14:11Z</time>
      </trkpt>
      <trkpt lat="49.18834" lon="-0.40587">
        <ele>59</ele>
        <time>2023-05-25T14:14:12Z</time>
      </trkpt>
      <trkpt lat="49.18831" lon="-0.40582">
        <ele>59</ele>
        <time>2023-05-25T14:14:13Z</time>
      </trkpt>
      <trkpt lat="49.1883" lon="-0.40576">
        <ele>58.8</ele>
        <time>2023-05-25T14:14:14Z</time>
      </trkpt>
      <trkpt lat="49.18831" lon="-0.40569">
        <ele>59</ele>
        <time>2023-05-25T14:14:15Z</time>
      </trkpt>
      <trkpt lat="49.18833" lon="-0.40563">
        <ele>59</ele>
        <time>2023-05-25T14:14:16Z</time>
      </trkpt>
      <trkpt lat="49.18835" lon="-0.40556">
        <ele>59</ele>
        <time>2023-05-25T14:14:17Z</time>
      </trkpt>
      <trkpt lat="49.18836" lon="-0.40549">
        <ele>59.2</ele>
        <time>2023-05-25T14:14:18Z</time>
      </trkpt>
      <trkpt lat="49.18838" lon="-0.40542">
        <ele>59.2</ele>
        <time>2023-05-25T14:14:19Z</time>
      </trkpt>
      <trkpt lat="49.18839" lon="-0.40535">
        <ele>59.4</ele>
        <time>2023-05-25T14:14:20Z</time>
      </trkpt>
      <trkpt lat="49.1884" lon="-0.40527">
        <ele>59.4</ele>
        <time>2023-05-25T14:14:21Z</time>
      </trkpt>
      <trkpt lat="49.18841" lon="-0.4052">
        <ele>59.6</ele>
        <time>2023-05-25T14:14:22Z</time>
      </trkpt>
      <trkpt lat="49.18842" lon="-0.40511">
        <ele>59.6</ele>
        <time>2023-05-25T14:14:23Z</time>
      </trkpt>
      <trkpt lat="49.18843" lon="-0.40503">
        <ele>59.6</ele>
        <time>2023-05-25T14:14:24Z</time>
      </trkpt>
      <trkpt lat="49.18844" lon="-0.40494">
        <ele>59.4</ele>
        <time>2023-05-25T14:14:25Z</time>
      </trkpt>
      <trkpt lat="49.18845" lon="-0.40485">
        <ele>59.2</ele>
        <time>2023-05-25T14:14:26Z</time>
      </trkpt>
      <trkpt lat="49.18846" lon="-0.40476">
        <ele>59</ele>
        <time>2023-05-25T14:14:27Z</time>
      </trkpt>
      <trkpt lat="49.18847" lon="-0.40466">
        <ele>58.8</ele>
        <time>2023-05-25T14:14:28Z</time>
      </trkpt>
      <trkpt lat="49.18848" lon="-0.40457">
        <ele>58.4</ele>
        <time>2023-05-25T14:14:29Z</time>
      </trkpt>
      <trkpt lat="49.1885" lon="-0.40447">
        <ele>58.2</ele>
        <time>2023-05-25T14:14:30Z</time>
      </trkpt>
      <trkpt lat="49.18851" lon="-0.40438">
        <ele>58</ele>
        <time>2023-05-25T14:14:31Z</time>
      </trkpt>
      <trkpt lat="49.18852" lon="-0.40428">
        <ele>57.8</ele>
        <time>2023-05-25T14:14:32Z</time>
      </trkpt>
      <trkpt lat="49.18853" lon="-0.40419">
        <ele>57.6</ele>
        <time>2023-05-25T14:14:33Z</time>
      </trkpt>
      <trkpt lat="49.18854" lon="-0.40409">
        <ele>57.4</ele>
        <time>2023-05-25T14:14:34Z</time>
      </trkpt>
      <trkpt lat="49.18855" lon="-0.404">
        <ele>57.2</ele>
        <time>2023-05-25T14:14:35Z</time>
      </trkpt>
      <trkpt lat="49.18856" lon="-0.40391">
        <ele>57.2</ele>
        <time>2023-05-25T14:14:36Z</time>
      </trkpt>
      <trkpt lat="49.18857" lon="-0.40382">
        <ele>57.2</ele>
        <time>2023-05-25T14:14:37Z</time>
      </trkpt>
      <trkpt lat="49.18859" lon="-0.40372">
        <ele>57</ele>
        <time>2023-05-25T14:14:38Z</time>
      </trkpt>
      <trkpt lat="49.1886" lon="-0.40363">
        <ele>57</ele>
        <time>2023-05-25T14:14:39Z</time>
      </trkpt>
      <trkpt lat="49.18861" lon="-0.40354">
        <ele>57</ele>
        <time>2023-05-25T14:14:40Z</time>
      </trkpt>
      <trkpt lat="49.18862" lon="-0.40345">
        <ele>57</ele>
        <time>2023-05-25T14:14:41Z</time>
      </trkpt>
      <trkpt lat="49.18863" lon="-0.40336">
        <ele>56.8</ele>
        <time>2023-05-25T14:14:42Z</time>
      </trkpt>
      <trkpt lat="49.18864" lon="-0.40327">
        <ele>56.8</ele>
        <time>2023-05-25T14:14:43Z</time>
      </trkpt>
      <trkpt lat="49.18865" lon="-0.40319">
        <ele>56.6</ele>
        <time>2023-05-25T14:14:44Z</time>
      </trkpt>
      <trkpt lat="49.18866" lon="-0.4031">
        <ele>56.4</ele>
        <time>2023-05-25T14:14:45Z</time>
      </trkpt>
      <trkpt lat="49.18867" lon="-0.40301">
        <ele>56.2</ele>
        <time>2023-05-25T14:14:46Z</time>
      </trkpt>
      <trkpt lat="49.18869" lon="-0.40292">
        <ele>56</ele>
        <time>2023-05-25T14:14:47Z</time>
      </trkpt>
      <trkpt lat="49.1887" lon="-0.40282">
        <ele>56</ele>
        <time>2023-05-25T14:14:48Z</time>
      </trkpt>
      <trkpt lat="49.18871" lon="-0.40273">
        <ele>55.8</ele>
        <time>2023-05-25T14:14:49Z</time>
      </trkpt>
      <trkpt lat="49.18872" lon="-0.40264">
        <ele>55.8</ele>
        <time>2023-05-25T14:14:50Z</time>
      </trkpt>
      <trkpt lat="49.18872" lon="-0.40256">
        <ele>55.6</ele>
        <time>2023-05-25T14:14:51Z</time>
      </trkpt>
      <trkpt lat="49.18872" lon="-0.40249">
        <ele>55.2</ele>
        <time>2023-05-25T14:14:52Z</time>
      </trkpt>
      <trkpt lat="49.18872" lon="-0.40242">
        <ele>55</ele>
        <time>2023-05-25T14:14:53Z</time>
      </trkpt>
      <trkpt lat="49.18871" lon="-0.40236">
        <ele>55</ele>
        <time>2023-05-25T14:14:54Z</time>
      </trkpt>
      <trkpt lat="49.18871" lon="-0.40229">
        <ele>54.8</ele>
        <time>2023-05-25T14:14:55Z</time>
      </trkpt>
      <trkpt lat="49.18872" lon="-0.40222">
        <ele>54.8</ele>
        <time>2023-05-25T14:14:56Z</time>
      </trkpt>
      <trkpt lat="49.18873" lon="-0.40215">
        <ele>54.6</ele>
        <time>2023-05-25T14:14:57Z</time>
      </trkpt>
      <trkpt lat="49.18874" lon="-0.40208">
        <ele>54.4</ele>
        <time>2023-05-25T14:14:58Z</time>
      </trkpt>
      <trkpt lat="49.18876" lon="-0.402">
        <ele>54.2</ele>
        <time>2023-05-25T14:14:59Z</time>
      </trkpt>
      <trkpt lat="49.18877" lon="-0.40192">
        <ele>54.2</ele>
        <time>2023-05-25T14:15:00Z</time>
      </trkpt>
      <trkpt lat="49.18877" lon="-0.40185">
        <ele>54</ele>
        <time>2023-05-25T14:15:01Z</time>
      </trkpt>
      <trkpt lat="49.18879" lon="-0.40178">
        <ele>54</ele>
        <time>2023-05-25T14:15:02Z</time>
      </trkpt>
      <trkpt lat="49.1888" lon="-0.40171">
        <ele>54</ele>
        <time>2023-05-25T14:15:03Z</time>
      </trkpt>
      <trkpt lat="49.1888" lon="-0.40165">
        <ele>53.8</ele>
        <time>2023-05-25T14:15:04Z</time>
      </trkpt>
      <trkpt lat="49.18881" lon="-0.4016">
        <ele>53.8</ele>
        <time>2023-05-25T14:15:05Z</time>
      </trkpt>
      <trkpt lat="49.18881" lon="-0.40155">
        <ele>53.8</ele>
        <time>2023-05-25T14:15:06Z</time>
      </trkpt>
      <trkpt lat="49.18882" lon="-0.40151">
        <ele>53.8</ele>
        <time>2023-05-25T14:15:07Z</time>
      </trkpt>
      <trkpt lat="49.18882" lon="-0.40147">
        <ele>53.8</ele>
        <time>2023-05-25T14:15:08Z</time>
      </trkpt>
      <trkpt lat="49.18883" lon="-0.40143">
        <ele>54</ele>
        <time>2023-05-25T14:15:09Z</time>
      </trkpt>
      <trkpt lat="49.18885" lon="-0.40138">
        <ele>54</ele>
        <time>2023-05-25T14:15:10Z</time>
      </trkpt>
      <trkpt lat="49.18886" lon="-0.40134">
        <ele>54</ele>
        <time>2023-05-25T14:15:11Z</time>
      </trkpt>
      <trkpt lat="49.18887" lon="-0.4013">
        <ele>54</ele>
        <time>2023-05-25T14:15:12Z</time>
      </trkpt>
      <trkpt lat="49.18888" lon="-0.40127">
        <ele>54</ele>
        <time>2023-05-25T14:15:13Z</time>
      </trkpt>
      <trkpt lat="49.18888" lon="-0.40124">
        <ele>54</ele>
        <time>2023-05-25T14:15:14Z</time>
      </trkpt>
      <trkpt lat="49.18887" lon="-0.40122">
        <ele>54</ele>
        <time>2023-05-25T14:15:15Z</time>
      </trkpt>
      <trkpt lat="49.18886" lon="-0.40121">
        <ele>54</ele>
        <time>2023-05-25T14:15:16Z</time>
      </trkpt>
      <trkpt lat="49.18885" lon="-0.4012">
        <ele>54</ele>
        <time>2023-05-25T14:15:17Z</time>
      </trkpt>
      <trkpt lat="49.18884" lon="-0.4012">
        <ele>53.8</ele>
        <time>2023-05-25T14:15:18Z</time>
      </trkpt>
      <trkpt lat="49.18884" lon="-0.40119">
        <ele>53.8</ele>
        <time>2023-05-25T14:15:19Z</time>
      </trkpt>
      <trkpt lat="49.18884" lon="-0.40119">
        <ele>53.8</ele>
        <time>2023-05-25T14:15:20Z</time>
      </trkpt>
      <trkpt lat="49.18884" lon="-0.40119">
        <ele>53.8</ele>
        <time>2023-05-25T14:15:21Z</time>
      </trkpt>
      <trkpt lat="49.18884" lon="-0.40119">
        <ele>53.8</ele>
        <time>2023-05-25T14:15:22Z</time>
      </trkpt>
      <trkpt lat="49.18884" lon="-0.40119">
        <ele>53.8</ele>
        <time>2023-05-25T14:15:23Z</time>
      </trkpt>
      <trkpt lat="49.18884" lon="-0.40119">
        <ele>53.8</ele>
        <time>2023-05-25T14:15:24Z</time>
      </trkpt>
      <trkpt lat="49.18884" lon="-0.40119">
        <ele>53.8</ele>
        <time>2023-05-25T14:15:25Z</time>
      </trkpt>
      <trkpt lat="49.18884" lon="-0.40119">
        <ele>53.8</ele>
        <time>2023-05-25T14:15:26Z</time>
      </trkpt>
    </trkseg>
  </trk>
</gpx>